<?xml version="1.0" encoding="UTF-8"?>
<gpx version="1.1" creator="https://www.youtrack.es" xsi:schemaLocation="http://www.topografix.com/GPX/1/1 http://www.topografix.com/GPX/1/1/gpx.xsd http://www.garmin.com/xmlschemas/GpxExtensions/v3 http://www.garmin.com/xmlschemas/GpxExtensionsv3.xsd http://www.garmin.com/xmlschemas/TrackPointExtension/v1 http://www.garmin.com/xmlschemas/TrackPointExtensionv1.xsd" xmlns:gpxtpx="http://www.garmin.com/xmlschemas/TrackPointExtension/v1" xmlns:gpxx="http://www.garmin.com/xmlschemas/GpxExtensions/v3" xmlns:xsi="http://www.w3.org/2001/XMLSchema-instance">
  <metadata>
    <author>
      <name>VIDARR 07</name>
      <email id="vidarr07" domain="gmail.com"/>
    </author>
    <link href="https://www.youtrack.es">
      <text>YouTrack.es</text>
    </link>
    <time>2026-05-08T21:10:04Z</time>
  </metadata>
  <trk>
    <src>https://www.youtrack.es</src>
    <link href="https://www.youtrack.es/ruta/14272-tramuntana-1-2">
      <text>YouTrack.es</text>
    </link>
    <trkseg>
      <trkpt lat="39.5813490" lon="2.3501320">
        <ele>-62.0</ele>
        <time>2020-01-02T08:36:58Z</time>
      </trkpt>
      <trkpt lat="39.5813490" lon="2.3501320">
        <ele>-61.0</ele>
        <time>2020-01-02T08:37:01Z</time>
      </trkpt>
      <trkpt lat="39.5813490" lon="2.3501320">
        <ele>-59.8</ele>
        <time>2020-01-02T08:37:04Z</time>
      </trkpt>
      <trkpt lat="39.5813490" lon="2.3501320">
        <ele>-58.8</ele>
        <time>2020-01-02T08:37:07Z</time>
      </trkpt>
      <trkpt lat="39.5813490" lon="2.3501320">
        <ele>-57.6</ele>
        <time>2020-01-02T08:37:11Z</time>
      </trkpt>
      <trkpt lat="39.5813490" lon="2.3501320">
        <ele>-56.6</ele>
        <time>2020-01-02T08:37:15Z</time>
      </trkpt>
      <trkpt lat="39.5813490" lon="2.3501320">
        <ele>-55.4</ele>
        <time>2020-01-02T08:37:20Z</time>
      </trkpt>
      <trkpt lat="39.5813490" lon="2.3501320">
        <ele>-54.2</ele>
        <time>2020-01-02T08:37:29Z</time>
      </trkpt>
      <trkpt lat="39.5813490" lon="2.3501320">
        <ele>-55.2</ele>
        <time>2020-01-02T08:37:52Z</time>
      </trkpt>
      <trkpt lat="39.5813490" lon="2.3501320">
        <ele>-56.4</ele>
        <time>2020-01-02T08:37:59Z</time>
      </trkpt>
      <trkpt lat="39.5813490" lon="2.3501320">
        <ele>-57.4</ele>
        <time>2020-01-02T08:38:03Z</time>
      </trkpt>
      <trkpt lat="39.5813490" lon="2.3501320">
        <ele>-58.6</ele>
        <time>2020-01-02T08:38:07Z</time>
      </trkpt>
      <trkpt lat="39.5813490" lon="2.3501320">
        <ele>-59.8</ele>
        <time>2020-01-02T08:38:12Z</time>
      </trkpt>
      <trkpt lat="39.5813490" lon="2.3501320">
        <ele>-60.8</ele>
        <time>2020-01-02T08:38:19Z</time>
      </trkpt>
      <trkpt lat="39.5813490" lon="2.3501320">
        <ele>-61.8</ele>
        <time>2020-01-02T08:38:26Z</time>
      </trkpt>
      <trkpt lat="39.5813490" lon="2.3501320">
        <ele>-63.0</ele>
        <time>2020-01-02T08:38:31Z</time>
      </trkpt>
      <trkpt lat="39.5813490" lon="2.3501320">
        <ele>-64.0</ele>
        <time>2020-01-02T08:38:42Z</time>
      </trkpt>
      <trkpt lat="39.5813490" lon="2.3501320">
        <ele>-65.2</ele>
        <time>2020-01-02T08:38:48Z</time>
      </trkpt>
      <trkpt lat="39.5813490" lon="2.3501320">
        <ele>-66.2</ele>
        <time>2020-01-02T08:38:56Z</time>
      </trkpt>
      <trkpt lat="39.5813490" lon="2.3501320">
        <ele>-67.2</ele>
        <time>2020-01-02T08:39:09Z</time>
      </trkpt>
      <trkpt lat="39.5813680" lon="2.3501240">
        <ele>-67.2</ele>
        <time>2020-01-02T08:39:10Z</time>
      </trkpt>
      <trkpt lat="39.5818000" lon="2.3499690">
        <ele>-67.8</ele>
        <time>2020-01-02T08:39:44Z</time>
      </trkpt>
      <trkpt lat="39.5819830" lon="2.3498800">
        <ele>-68.2</ele>
        <time>2020-01-02T08:40:00Z</time>
      </trkpt>
      <trkpt lat="39.5821680" lon="2.3497500">
        <ele>-69.2</ele>
        <time>2020-01-02T08:40:18Z</time>
      </trkpt>
      <trkpt lat="39.5825540" lon="2.3494520">
        <ele>-68.2</ele>
        <time>2020-01-02T08:40:47Z</time>
      </trkpt>
      <trkpt lat="39.5829470" lon="2.3492660">
        <ele>-67.8</ele>
        <time>2020-01-02T08:41:20Z</time>
      </trkpt>
      <trkpt lat="39.5829510" lon="2.3493630">
        <ele>-67.6</ele>
        <time>2020-01-02T08:41:26Z</time>
      </trkpt>
      <trkpt lat="39.5830010" lon="2.3495440">
        <ele>-67.6</ele>
        <time>2020-01-02T08:41:41Z</time>
      </trkpt>
      <trkpt lat="39.5832200" lon="2.3495750">
        <ele>-67.2</ele>
        <time>2020-01-02T08:41:55Z</time>
      </trkpt>
      <trkpt lat="39.5832730" lon="2.3496400">
        <ele>-66.8</ele>
        <time>2020-01-02T08:42:01Z</time>
      </trkpt>
      <trkpt lat="39.5832930" lon="2.3495830">
        <ele>-68.2</ele>
        <time>2020-01-02T08:42:38Z</time>
      </trkpt>
      <trkpt lat="39.5835970" lon="2.3500090">
        <ele>-67.4</ele>
        <time>2020-01-02T08:43:20Z</time>
      </trkpt>
      <trkpt lat="39.5836130" lon="2.3500340">
        <ele>-67.2</ele>
        <time>2020-01-02T08:43:22Z</time>
      </trkpt>
      <trkpt lat="39.5837440" lon="2.3501840">
        <ele>-66.2</ele>
        <time>2020-01-02T08:43:35Z</time>
      </trkpt>
      <trkpt lat="39.5838320" lon="2.3503010">
        <ele>-65.2</ele>
        <time>2020-01-02T08:43:45Z</time>
      </trkpt>
      <trkpt lat="39.5839220" lon="2.3505510">
        <ele>-64.0</ele>
        <time>2020-01-02T08:44:03Z</time>
      </trkpt>
      <trkpt lat="39.5840400" lon="2.3510090">
        <ele>-63.0</ele>
        <time>2020-01-02T08:44:40Z</time>
      </trkpt>
      <trkpt lat="39.5841300" lon="2.3513260">
        <ele>-61.8</ele>
        <time>2020-01-02T08:44:59Z</time>
      </trkpt>
      <trkpt lat="39.5842730" lon="2.3518500">
        <ele>-60.8</ele>
        <time>2020-01-02T08:45:31Z</time>
      </trkpt>
      <trkpt lat="39.5843310" lon="2.3520530">
        <ele>-59.8</ele>
        <time>2020-01-02T08:45:44Z</time>
      </trkpt>
      <trkpt lat="39.5844420" lon="2.3522630">
        <ele>-58.8</ele>
        <time>2020-01-02T08:46:00Z</time>
      </trkpt>
      <trkpt lat="39.5846470" lon="2.3525310">
        <ele>-57.6</ele>
        <time>2020-01-02T08:46:20Z</time>
      </trkpt>
      <trkpt lat="39.5847890" lon="2.3527640">
        <ele>-56.6</ele>
        <time>2020-01-02T08:46:37Z</time>
      </trkpt>
      <trkpt lat="39.5850030" lon="2.3530300">
        <ele>-57.2</ele>
        <time>2020-01-02T08:46:59Z</time>
      </trkpt>
      <trkpt lat="39.5853220" lon="2.3534550">
        <ele>-57.2</ele>
        <time>2020-01-02T08:47:33Z</time>
      </trkpt>
      <trkpt lat="39.5856800" lon="2.3538160">
        <ele>-56.6</ele>
        <time>2020-01-02T08:48:05Z</time>
      </trkpt>
      <trkpt lat="39.5860730" lon="2.3538610">
        <ele>-56.4</ele>
        <time>2020-01-02T08:48:35Z</time>
      </trkpt>
      <trkpt lat="39.5862010" lon="2.3537700">
        <ele>-55.8</ele>
        <time>2020-01-02T08:48:48Z</time>
      </trkpt>
      <trkpt lat="39.5862930" lon="2.3537290">
        <ele>-55.6</ele>
        <time>2020-01-02T08:48:57Z</time>
      </trkpt>
      <trkpt lat="39.5867140" lon="2.3536790">
        <ele>-55.4</ele>
        <time>2020-01-02T08:49:30Z</time>
      </trkpt>
      <trkpt lat="39.5869920" lon="2.3538160">
        <ele>-54.6</ele>
        <time>2020-01-02T08:49:53Z</time>
      </trkpt>
      <trkpt lat="39.5871230" lon="2.3540100">
        <ele>-53.6</ele>
        <time>2020-01-02T08:50:08Z</time>
      </trkpt>
      <trkpt lat="39.5872020" lon="2.3541810">
        <ele>-52.6</ele>
        <time>2020-01-02T08:50:19Z</time>
      </trkpt>
      <trkpt lat="39.5872760" lon="2.3543130">
        <ele>-51.6</ele>
        <time>2020-01-02T08:50:28Z</time>
      </trkpt>
      <trkpt lat="39.5873620" lon="2.3544330">
        <ele>-50.6</ele>
        <time>2020-01-02T08:50:37Z</time>
      </trkpt>
      <trkpt lat="39.5875130" lon="2.3545590">
        <ele>-49.4</ele>
        <time>2020-01-02T08:50:52Z</time>
      </trkpt>
      <trkpt lat="39.5879630" lon="2.3546550">
        <ele>-49.2</ele>
        <time>2020-01-02T08:51:26Z</time>
      </trkpt>
      <trkpt lat="39.5881650" lon="2.3547580">
        <ele>-48.4</ele>
        <time>2020-01-02T08:51:42Z</time>
      </trkpt>
      <trkpt lat="39.5883220" lon="2.3548230">
        <ele>-47.4</ele>
        <time>2020-01-02T08:51:53Z</time>
      </trkpt>
      <trkpt lat="39.5884300" lon="2.3548600">
        <ele>-46.4</ele>
        <time>2020-01-02T08:52:02Z</time>
      </trkpt>
      <trkpt lat="39.5884420" lon="2.3548670">
        <ele>-46.2</ele>
        <time>2020-01-02T08:52:03Z</time>
      </trkpt>
      <trkpt lat="39.5884690" lon="2.3548870">
        <ele>-46.0</ele>
        <time>2020-01-02T08:52:05Z</time>
      </trkpt>
      <trkpt lat="39.5885680" lon="2.3549570">
        <ele>-45.2</ele>
        <time>2020-01-02T08:52:13Z</time>
      </trkpt>
      <trkpt lat="39.5886760" lon="2.3550080">
        <ele>-44.4</ele>
        <time>2020-01-02T08:52:23Z</time>
      </trkpt>
      <trkpt lat="39.5887790" lon="2.3550820">
        <ele>-43.2</ele>
        <time>2020-01-02T08:52:32Z</time>
      </trkpt>
      <trkpt lat="39.5891080" lon="2.3549790">
        <ele>-42.2</ele>
        <time>2020-01-02T08:52:58Z</time>
      </trkpt>
      <trkpt lat="39.5892450" lon="2.3548300">
        <ele>-40.4</ele>
        <time>2020-01-02T08:53:11Z</time>
      </trkpt>
      <trkpt lat="39.5894420" lon="2.3548220">
        <ele>-39.4</ele>
        <time>2020-01-02T08:53:25Z</time>
      </trkpt>
      <trkpt lat="39.5896040" lon="2.3549070">
        <ele>-38.4</ele>
        <time>2020-01-02T08:53:38Z</time>
      </trkpt>
      <trkpt lat="39.5897700" lon="2.3550040">
        <ele>-37.6</ele>
        <time>2020-01-02T08:53:51Z</time>
      </trkpt>
      <trkpt lat="39.5898830" lon="2.3550550">
        <ele>-36.4</ele>
        <time>2020-01-02T08:53:59Z</time>
      </trkpt>
      <trkpt lat="39.5900240" lon="2.3551540">
        <ele>-35.2</ele>
        <time>2020-01-02T08:54:11Z</time>
      </trkpt>
      <trkpt lat="39.5900680" lon="2.3552140">
        <ele>-34.0</ele>
        <time>2020-01-02T08:54:18Z</time>
      </trkpt>
      <trkpt lat="39.5901100" lon="2.3552420">
        <ele>-33.6</ele>
        <time>2020-01-02T08:54:23Z</time>
      </trkpt>
      <trkpt lat="39.5901460" lon="2.3552510">
        <ele>-33.0</ele>
        <time>2020-01-02T08:54:41Z</time>
      </trkpt>
      <trkpt lat="39.5901230" lon="2.3552780">
        <ele>-32.0</ele>
        <time>2020-01-02T08:55:53Z</time>
      </trkpt>
      <trkpt lat="39.5900980" lon="2.3553060">
        <ele>-32.8</ele>
        <time>2020-01-02T08:57:51Z</time>
      </trkpt>
      <trkpt lat="39.5900730" lon="2.3552930">
        <ele>-32.0</ele>
        <time>2020-01-02T08:58:16Z</time>
      </trkpt>
      <trkpt lat="39.5900770" lon="2.3552780">
        <ele>-31.0</ele>
        <time>2020-01-02T08:58:48Z</time>
      </trkpt>
      <trkpt lat="39.5900760" lon="2.3552710">
        <ele>-29.6</ele>
        <time>2020-01-02T08:59:14Z</time>
      </trkpt>
      <trkpt lat="39.5900870" lon="2.3552670">
        <ele>-28.8</ele>
        <time>2020-01-02T08:59:31Z</time>
      </trkpt>
      <trkpt lat="39.5900870" lon="2.3552740">
        <ele>-27.4</ele>
        <time>2020-01-02T09:00:02Z</time>
      </trkpt>
      <trkpt lat="39.5900950" lon="2.3552560">
        <ele>-26.2</ele>
        <time>2020-01-02T09:02:31Z</time>
      </trkpt>
      <trkpt lat="39.5900810" lon="2.3552890">
        <ele>-25.2</ele>
        <time>2020-01-02T09:03:16Z</time>
      </trkpt>
      <trkpt lat="39.5900820" lon="2.3552920">
        <ele>-26.0</ele>
        <time>2020-01-02T09:03:20Z</time>
      </trkpt>
      <trkpt lat="39.5900860" lon="2.3552900">
        <ele>-25.0</ele>
        <time>2020-01-02T09:03:25Z</time>
      </trkpt>
      <trkpt lat="39.5901670" lon="2.3552900">
        <ele>-25.0</ele>
        <time>2020-01-02T09:04:22Z</time>
      </trkpt>
      <trkpt lat="39.5902060" lon="2.3553000">
        <ele>-23.6</ele>
        <time>2020-01-02T09:04:27Z</time>
      </trkpt>
      <trkpt lat="39.5903320" lon="2.3553140">
        <ele>-22.6</ele>
        <time>2020-01-02T09:04:39Z</time>
      </trkpt>
      <trkpt lat="39.5904050" lon="2.3553310">
        <ele>-21.6</ele>
        <time>2020-01-02T09:04:45Z</time>
      </trkpt>
      <trkpt lat="39.5905220" lon="2.3553550">
        <ele>-20.4</ele>
        <time>2020-01-02T09:04:57Z</time>
      </trkpt>
      <trkpt lat="39.5907140" lon="2.3552380">
        <ele>-19.4</ele>
        <time>2020-01-02T09:05:14Z</time>
      </trkpt>
      <trkpt lat="39.5907640" lon="2.3552230">
        <ele>-18.4</ele>
        <time>2020-01-02T09:05:18Z</time>
      </trkpt>
      <trkpt lat="39.5909260" lon="2.3551300">
        <ele>-17.2</ele>
        <time>2020-01-02T09:05:31Z</time>
      </trkpt>
      <trkpt lat="39.5909950" lon="2.3550630">
        <ele>-16.0</ele>
        <time>2020-01-02T09:05:40Z</time>
      </trkpt>
      <trkpt lat="39.5910890" lon="2.3551040">
        <ele>-15.0</ele>
        <time>2020-01-02T09:05:50Z</time>
      </trkpt>
      <trkpt lat="39.5911610" lon="2.3551300">
        <ele>-13.8</ele>
        <time>2020-01-02T09:05:57Z</time>
      </trkpt>
      <trkpt lat="39.5912710" lon="2.3551600">
        <ele>-12.8</ele>
        <time>2020-01-02T09:06:06Z</time>
      </trkpt>
      <trkpt lat="39.5913180" lon="2.3551700">
        <ele>-12.2</ele>
        <time>2020-01-02T09:06:11Z</time>
      </trkpt>
      <trkpt lat="39.5913380" lon="2.3551780">
        <ele>-11.8</ele>
        <time>2020-01-02T09:06:13Z</time>
      </trkpt>
      <trkpt lat="39.5913960" lon="2.3552230">
        <ele>-10.8</ele>
        <time>2020-01-02T09:06:19Z</time>
      </trkpt>
      <trkpt lat="39.5914430" lon="2.3552640">
        <ele>-9.6</ele>
        <time>2020-01-02T09:06:24Z</time>
      </trkpt>
      <trkpt lat="39.5914980" lon="2.3553250">
        <ele>-8.4</ele>
        <time>2020-01-02T09:06:30Z</time>
      </trkpt>
      <trkpt lat="39.5915410" lon="2.3553580">
        <ele>-7.4</ele>
        <time>2020-01-02T09:06:35Z</time>
      </trkpt>
      <trkpt lat="39.5915810" lon="2.3553910">
        <ele>-6.4</ele>
        <time>2020-01-02T09:06:40Z</time>
      </trkpt>
      <trkpt lat="39.5916180" lon="2.3554230">
        <ele>-5.2</ele>
        <time>2020-01-02T09:06:45Z</time>
      </trkpt>
      <trkpt lat="39.5916620" lon="2.3554620">
        <ele>-4.0</ele>
        <time>2020-01-02T09:06:51Z</time>
      </trkpt>
      <trkpt lat="39.5917130" lon="2.3555210">
        <ele>-2.8</ele>
        <time>2020-01-02T09:06:57Z</time>
      </trkpt>
      <trkpt lat="39.5917620" lon="2.3555630">
        <ele>-1.8</ele>
        <time>2020-01-02T09:07:02Z</time>
      </trkpt>
      <trkpt lat="39.5917890" lon="2.3556060">
        <ele>-0.8</ele>
        <time>2020-01-02T09:07:07Z</time>
      </trkpt>
      <trkpt lat="39.5918030" lon="2.3556470">
        <ele>0.4</ele>
        <time>2020-01-02T09:07:12Z</time>
      </trkpt>
      <trkpt lat="39.5918410" lon="2.3556910">
        <ele>1.4</ele>
        <time>2020-01-02T09:07:19Z</time>
      </trkpt>
      <trkpt lat="39.5918960" lon="2.3557250">
        <ele>2.4</ele>
        <time>2020-01-02T09:07:27Z</time>
      </trkpt>
      <trkpt lat="39.5919260" lon="2.3557860">
        <ele>3.4</ele>
        <time>2020-01-02T09:07:36Z</time>
      </trkpt>
      <trkpt lat="39.5919450" lon="2.3558250">
        <ele>4.6</ele>
        <time>2020-01-02T09:07:41Z</time>
      </trkpt>
      <trkpt lat="39.5919690" lon="2.3558620">
        <ele>5.6</ele>
        <time>2020-01-02T09:07:46Z</time>
      </trkpt>
      <trkpt lat="39.5920080" lon="2.3559020">
        <ele>6.8</ele>
        <time>2020-01-02T09:07:52Z</time>
      </trkpt>
      <trkpt lat="39.5920500" lon="2.3559220">
        <ele>7.8</ele>
        <time>2020-01-02T09:07:58Z</time>
      </trkpt>
      <trkpt lat="39.5920750" lon="2.3559670">
        <ele>9.0</ele>
        <time>2020-01-02T09:08:04Z</time>
      </trkpt>
      <trkpt lat="39.5921140" lon="2.3560300">
        <ele>10.2</ele>
        <time>2020-01-02T09:08:11Z</time>
      </trkpt>
      <trkpt lat="39.5921440" lon="2.3560810">
        <ele>11.2</ele>
        <time>2020-01-02T09:08:17Z</time>
      </trkpt>
      <trkpt lat="39.5921730" lon="2.3561320">
        <ele>12.4</ele>
        <time>2020-01-02T09:08:22Z</time>
      </trkpt>
      <trkpt lat="39.5922050" lon="2.3561680">
        <ele>13.4</ele>
        <time>2020-01-02T09:08:27Z</time>
      </trkpt>
      <trkpt lat="39.5922230" lon="2.3562110">
        <ele>14.4</ele>
        <time>2020-01-02T09:08:32Z</time>
      </trkpt>
      <trkpt lat="39.5922370" lon="2.3562520">
        <ele>15.6</ele>
        <time>2020-01-02T09:08:37Z</time>
      </trkpt>
      <trkpt lat="39.5922530" lon="2.3562950">
        <ele>16.6</ele>
        <time>2020-01-02T09:08:42Z</time>
      </trkpt>
      <trkpt lat="39.5922610" lon="2.3563270">
        <ele>17.6</ele>
        <time>2020-01-02T09:08:47Z</time>
      </trkpt>
      <trkpt lat="39.5922620" lon="2.3563590">
        <ele>18.6</ele>
        <time>2020-01-02T09:08:52Z</time>
      </trkpt>
      <trkpt lat="39.5922620" lon="2.3564030">
        <ele>19.8</ele>
        <time>2020-01-02T09:08:57Z</time>
      </trkpt>
      <trkpt lat="39.5922570" lon="2.3564570">
        <ele>20.8</ele>
        <time>2020-01-02T09:09:02Z</time>
      </trkpt>
      <trkpt lat="39.5922540" lon="2.3564880">
        <ele>21.2</ele>
        <time>2020-01-02T09:09:05Z</time>
      </trkpt>
      <trkpt lat="39.5922510" lon="2.3565170">
        <ele>22.0</ele>
        <time>2020-01-02T09:09:09Z</time>
      </trkpt>
      <trkpt lat="39.5922540" lon="2.3565670">
        <ele>23.0</ele>
        <time>2020-01-02T09:09:15Z</time>
      </trkpt>
      <trkpt lat="39.5922510" lon="2.3566060">
        <ele>24.2</ele>
        <time>2020-01-02T09:09:20Z</time>
      </trkpt>
      <trkpt lat="39.5922130" lon="2.3566380">
        <ele>25.4</ele>
        <time>2020-01-02T09:09:26Z</time>
      </trkpt>
      <trkpt lat="39.5921400" lon="2.3566870">
        <ele>26.6</ele>
        <time>2020-01-02T09:09:35Z</time>
      </trkpt>
      <trkpt lat="39.5921280" lon="2.3567050">
        <ele>27.0</ele>
        <time>2020-01-02T09:09:37Z</time>
      </trkpt>
      <trkpt lat="39.5921160" lon="2.3567460">
        <ele>27.6</ele>
        <time>2020-01-02T09:09:41Z</time>
      </trkpt>
      <trkpt lat="39.5921190" lon="2.3567650">
        <ele>28.0</ele>
        <time>2020-01-02T09:09:43Z</time>
      </trkpt>
      <trkpt lat="39.5921250" lon="2.3567910">
        <ele>28.8</ele>
        <time>2020-01-02T09:09:46Z</time>
      </trkpt>
      <trkpt lat="39.5921340" lon="2.3568300">
        <ele>30.0</ele>
        <time>2020-01-02T09:09:51Z</time>
      </trkpt>
      <trkpt lat="39.5921600" lon="2.3568740">
        <ele>31.0</ele>
        <time>2020-01-02T09:09:56Z</time>
      </trkpt>
      <trkpt lat="39.5921900" lon="2.3569020">
        <ele>32.0</ele>
        <time>2020-01-02T09:10:00Z</time>
      </trkpt>
      <trkpt lat="39.5921950" lon="2.3569090">
        <ele>32.2</ele>
        <time>2020-01-02T09:10:01Z</time>
      </trkpt>
      <trkpt lat="39.5922340" lon="2.3569570">
        <ele>33.2</ele>
        <time>2020-01-02T09:10:07Z</time>
      </trkpt>
      <trkpt lat="39.5922580" lon="2.3569660">
        <ele>34.0</ele>
        <time>2020-01-02T09:10:11Z</time>
      </trkpt>
      <trkpt lat="39.5922760" lon="2.3569710">
        <ele>34.2</ele>
        <time>2020-01-02T09:10:14Z</time>
      </trkpt>
      <trkpt lat="39.5922790" lon="2.3570180">
        <ele>35.2</ele>
        <time>2020-01-02T09:10:21Z</time>
      </trkpt>
      <trkpt lat="39.5922270" lon="2.3570710">
        <ele>36.2</ele>
        <time>2020-01-02T09:10:30Z</time>
      </trkpt>
      <trkpt lat="39.5922190" lon="2.3570800">
        <ele>36.2</ele>
        <time>2020-01-02T09:10:31Z</time>
      </trkpt>
      <trkpt lat="39.5921790" lon="2.3571370">
        <ele>37.4</ele>
        <time>2020-01-02T09:10:38Z</time>
      </trkpt>
      <trkpt lat="39.5921480" lon="2.3571750">
        <ele>38.4</ele>
        <time>2020-01-02T09:10:43Z</time>
      </trkpt>
      <trkpt lat="39.5920930" lon="2.3572130">
        <ele>39.4</ele>
        <time>2020-01-02T09:10:49Z</time>
      </trkpt>
      <trkpt lat="39.5920510" lon="2.3572380">
        <ele>40.4</ele>
        <time>2020-01-02T09:10:54Z</time>
      </trkpt>
      <trkpt lat="39.5920200" lon="2.3572420">
        <ele>41.4</ele>
        <time>2020-01-02T09:10:58Z</time>
      </trkpt>
      <trkpt lat="39.5920130" lon="2.3572450">
        <ele>41.6</ele>
        <time>2020-01-02T09:10:59Z</time>
      </trkpt>
      <trkpt lat="39.5920040" lon="2.3572500">
        <ele>41.6</ele>
        <time>2020-01-02T09:11:00Z</time>
      </trkpt>
      <trkpt lat="39.5919630" lon="2.3572630">
        <ele>42.6</ele>
        <time>2020-01-02T09:11:05Z</time>
      </trkpt>
      <trkpt lat="39.5919560" lon="2.3572620">
        <ele>42.8</ele>
        <time>2020-01-02T09:11:06Z</time>
      </trkpt>
      <trkpt lat="39.5919420" lon="2.3572680">
        <ele>43.2</ele>
        <time>2020-01-02T09:11:08Z</time>
      </trkpt>
      <trkpt lat="39.5919170" lon="2.3572900">
        <ele>44.0</ele>
        <time>2020-01-02T09:11:12Z</time>
      </trkpt>
      <trkpt lat="39.5919150" lon="2.3573060">
        <ele>44.2</ele>
        <time>2020-01-02T09:11:14Z</time>
      </trkpt>
      <trkpt lat="39.5919300" lon="2.3573430">
        <ele>45.0</ele>
        <time>2020-01-02T09:11:19Z</time>
      </trkpt>
      <trkpt lat="39.5919530" lon="2.3574160">
        <ele>46.6</ele>
        <time>2020-01-02T09:11:26Z</time>
      </trkpt>
      <trkpt lat="39.5919800" lon="2.3574820">
        <ele>48.0</ele>
        <time>2020-01-02T09:11:35Z</time>
      </trkpt>
      <trkpt lat="39.5919860" lon="2.3575270">
        <ele>49.0</ele>
        <time>2020-01-02T09:11:39Z</time>
      </trkpt>
      <trkpt lat="39.5919950" lon="2.3575590">
        <ele>49.8</ele>
        <time>2020-01-02T09:11:44Z</time>
      </trkpt>
      <trkpt lat="39.5920110" lon="2.3575880">
        <ele>51.0</ele>
        <time>2020-01-02T09:11:49Z</time>
      </trkpt>
      <trkpt lat="39.5920140" lon="2.3576300">
        <ele>52.0</ele>
        <time>2020-01-02T09:11:54Z</time>
      </trkpt>
      <trkpt lat="39.5920070" lon="2.3576750">
        <ele>53.2</ele>
        <time>2020-01-02T09:11:59Z</time>
      </trkpt>
      <trkpt lat="39.5919790" lon="2.3577220">
        <ele>54.0</ele>
        <time>2020-01-02T09:12:04Z</time>
      </trkpt>
      <trkpt lat="39.5919720" lon="2.3577300">
        <ele>54.2</ele>
        <time>2020-01-02T09:12:05Z</time>
      </trkpt>
      <trkpt lat="39.5919470" lon="2.3577780">
        <ele>55.2</ele>
        <time>2020-01-02T09:12:11Z</time>
      </trkpt>
      <trkpt lat="39.5919290" lon="2.3578200">
        <ele>56.0</ele>
        <time>2020-01-02T09:12:15Z</time>
      </trkpt>
      <trkpt lat="39.5919230" lon="2.3578360">
        <ele>56.2</ele>
        <time>2020-01-02T09:12:17Z</time>
      </trkpt>
      <trkpt lat="39.5919200" lon="2.3578440">
        <ele>56.6</ele>
        <time>2020-01-02T09:12:18Z</time>
      </trkpt>
      <trkpt lat="39.5919140" lon="2.3578740">
        <ele>57.4</ele>
        <time>2020-01-02T09:12:22Z</time>
      </trkpt>
      <trkpt lat="39.5918970" lon="2.3579260">
        <ele>58.4</ele>
        <time>2020-01-02T09:12:28Z</time>
      </trkpt>
      <trkpt lat="39.5918940" lon="2.3579540">
        <ele>59.0</ele>
        <time>2020-01-02T09:12:31Z</time>
      </trkpt>
      <trkpt lat="39.5919010" lon="2.3579740">
        <ele>59.6</ele>
        <time>2020-01-02T09:12:33Z</time>
      </trkpt>
      <trkpt lat="39.5919080" lon="2.3579900">
        <ele>60.2</ele>
        <time>2020-01-02T09:12:35Z</time>
      </trkpt>
      <trkpt lat="39.5919210" lon="2.3580000">
        <ele>60.6</ele>
        <time>2020-01-02T09:12:38Z</time>
      </trkpt>
      <trkpt lat="39.5919450" lon="2.3580020">
        <ele>61.6</ele>
        <time>2020-01-02T09:12:43Z</time>
      </trkpt>
      <trkpt lat="39.5919840" lon="2.3579780">
        <ele>62.8</ele>
        <time>2020-01-02T09:12:51Z</time>
      </trkpt>
      <trkpt lat="39.5920230" lon="2.3579780">
        <ele>63.8</ele>
        <time>2020-01-02T09:12:57Z</time>
      </trkpt>
      <trkpt lat="39.5920610" lon="2.3579950">
        <ele>65.0</ele>
        <time>2020-01-02T09:13:03Z</time>
      </trkpt>
      <trkpt lat="39.5920890" lon="2.3580130">
        <ele>66.0</ele>
        <time>2020-01-02T09:13:08Z</time>
      </trkpt>
      <trkpt lat="39.5921280" lon="2.3580470">
        <ele>67.4</ele>
        <time>2020-01-02T09:13:14Z</time>
      </trkpt>
      <trkpt lat="39.5921290" lon="2.3580920">
        <ele>68.2</ele>
        <time>2020-01-02T09:13:20Z</time>
      </trkpt>
      <trkpt lat="39.5921170" lon="2.3581430">
        <ele>69.4</ele>
        <time>2020-01-02T09:13:26Z</time>
      </trkpt>
      <trkpt lat="39.5921070" lon="2.3581620">
        <ele>69.6</ele>
        <time>2020-01-02T09:13:28Z</time>
      </trkpt>
      <trkpt lat="39.5920950" lon="2.3581910">
        <ele>70.2</ele>
        <time>2020-01-02T09:13:31Z</time>
      </trkpt>
      <trkpt lat="39.5920900" lon="2.3582000">
        <ele>70.4</ele>
        <time>2020-01-02T09:13:32Z</time>
      </trkpt>
      <trkpt lat="39.5920820" lon="2.3582350">
        <ele>70.8</ele>
        <time>2020-01-02T09:13:35Z</time>
      </trkpt>
      <trkpt lat="39.5920770" lon="2.3582730">
        <ele>71.4</ele>
        <time>2020-01-02T09:13:38Z</time>
      </trkpt>
      <trkpt lat="39.5920710" lon="2.3582870">
        <ele>71.8</ele>
        <time>2020-01-02T09:13:40Z</time>
      </trkpt>
      <trkpt lat="39.5920620" lon="2.3583210">
        <ele>72.4</ele>
        <time>2020-01-02T09:13:44Z</time>
      </trkpt>
      <trkpt lat="39.5920440" lon="2.3583720">
        <ele>73.6</ele>
        <time>2020-01-02T09:13:51Z</time>
      </trkpt>
      <trkpt lat="39.5920230" lon="2.3584240">
        <ele>74.6</ele>
        <time>2020-01-02T09:13:58Z</time>
      </trkpt>
      <trkpt lat="39.5920490" lon="2.3584340">
        <ele>75.8</ele>
        <time>2020-01-02T09:14:03Z</time>
      </trkpt>
      <trkpt lat="39.5920760" lon="2.3584390">
        <ele>76.8</ele>
        <time>2020-01-02T09:14:08Z</time>
      </trkpt>
      <trkpt lat="39.5921040" lon="2.3584280">
        <ele>78.0</ele>
        <time>2020-01-02T09:14:13Z</time>
      </trkpt>
      <trkpt lat="39.5921570" lon="2.3584150">
        <ele>79.2</ele>
        <time>2020-01-02T09:14:20Z</time>
      </trkpt>
      <trkpt lat="39.5921880" lon="2.3584130">
        <ele>80.4</ele>
        <time>2020-01-02T09:14:25Z</time>
      </trkpt>
      <trkpt lat="39.5922320" lon="2.3584120">
        <ele>81.6</ele>
        <time>2020-01-02T09:14:31Z</time>
      </trkpt>
      <trkpt lat="39.5922740" lon="2.3584100">
        <ele>82.8</ele>
        <time>2020-01-02T09:14:37Z</time>
      </trkpt>
      <trkpt lat="39.5923480" lon="2.3584140">
        <ele>83.8</ele>
        <time>2020-01-02T09:14:46Z</time>
      </trkpt>
      <trkpt lat="39.5923850" lon="2.3584180">
        <ele>85.0</ele>
        <time>2020-01-02T09:14:51Z</time>
      </trkpt>
      <trkpt lat="39.5924150" lon="2.3584260">
        <ele>86.0</ele>
        <time>2020-01-02T09:14:56Z</time>
      </trkpt>
      <trkpt lat="39.5924370" lon="2.3584310">
        <ele>87.0</ele>
        <time>2020-01-02T09:15:01Z</time>
      </trkpt>
      <trkpt lat="39.5924690" lon="2.3584240">
        <ele>88.2</ele>
        <time>2020-01-02T09:15:05Z</time>
      </trkpt>
      <trkpt lat="39.5924850" lon="2.3584220">
        <ele>88.6</ele>
        <time>2020-01-02T09:15:07Z</time>
      </trkpt>
      <trkpt lat="39.5925100" lon="2.3584270">
        <ele>89.4</ele>
        <time>2020-01-02T09:15:12Z</time>
      </trkpt>
      <trkpt lat="39.5924890" lon="2.3584790">
        <ele>90.4</ele>
        <time>2020-01-02T09:15:25Z</time>
      </trkpt>
      <trkpt lat="39.5924910" lon="2.3585270">
        <ele>91.6</ele>
        <time>2020-01-02T09:16:14Z</time>
      </trkpt>
      <trkpt lat="39.5925130" lon="2.3585450">
        <ele>92.8</ele>
        <time>2020-01-02T09:16:19Z</time>
      </trkpt>
      <trkpt lat="39.5925280" lon="2.3585490">
        <ele>94.0</ele>
        <time>2020-01-02T09:16:23Z</time>
      </trkpt>
      <trkpt lat="39.5925510" lon="2.3585550">
        <ele>95.2</ele>
        <time>2020-01-02T09:16:27Z</time>
      </trkpt>
      <trkpt lat="39.5925810" lon="2.3585510">
        <ele>96.4</ele>
        <time>2020-01-02T09:16:32Z</time>
      </trkpt>
      <trkpt lat="39.5926220" lon="2.3585420">
        <ele>97.6</ele>
        <time>2020-01-02T09:16:38Z</time>
      </trkpt>
      <trkpt lat="39.5926560" lon="2.3585380">
        <ele>98.8</ele>
        <time>2020-01-02T09:16:43Z</time>
      </trkpt>
      <trkpt lat="39.5926920" lon="2.3585180">
        <ele>99.8</ele>
        <time>2020-01-02T09:16:48Z</time>
      </trkpt>
      <trkpt lat="39.5927000" lon="2.3585310">
        <ele>101.0</ele>
        <time>2020-01-02T09:17:15Z</time>
      </trkpt>
      <trkpt lat="39.5926970" lon="2.3585420">
        <ele>102.2</ele>
        <time>2020-01-02T09:17:19Z</time>
      </trkpt>
      <trkpt lat="39.5927090" lon="2.3585580">
        <ele>103.2</ele>
        <time>2020-01-02T09:17:24Z</time>
      </trkpt>
      <trkpt lat="39.5927270" lon="2.3585700">
        <ele>104.4</ele>
        <time>2020-01-02T09:17:28Z</time>
      </trkpt>
      <trkpt lat="39.5927460" lon="2.3585890">
        <ele>105.6</ele>
        <time>2020-01-02T09:17:33Z</time>
      </trkpt>
      <trkpt lat="39.5927790" lon="2.3585820">
        <ele>106.6</ele>
        <time>2020-01-02T09:17:39Z</time>
      </trkpt>
      <trkpt lat="39.5928050" lon="2.3585730">
        <ele>107.6</ele>
        <time>2020-01-02T09:17:44Z</time>
      </trkpt>
      <trkpt lat="39.5928310" lon="2.3585620">
        <ele>108.8</ele>
        <time>2020-01-02T09:17:50Z</time>
      </trkpt>
      <trkpt lat="39.5928530" lon="2.3585690">
        <ele>110.0</ele>
        <time>2020-01-02T09:17:55Z</time>
      </trkpt>
      <trkpt lat="39.5928770" lon="2.3585510">
        <ele>111.6</ele>
        <time>2020-01-02T09:18:02Z</time>
      </trkpt>
      <trkpt lat="39.5929240" lon="2.3585180">
        <ele>112.6</ele>
        <time>2020-01-02T09:18:09Z</time>
      </trkpt>
      <trkpt lat="39.5929730" lon="2.3585310">
        <ele>113.6</ele>
        <time>2020-01-02T09:18:17Z</time>
      </trkpt>
      <trkpt lat="39.5929940" lon="2.3585400">
        <ele>114.8</ele>
        <time>2020-01-02T09:18:21Z</time>
      </trkpt>
      <trkpt lat="39.5930460" lon="2.3585360">
        <ele>116.0</ele>
        <time>2020-01-02T09:18:28Z</time>
      </trkpt>
      <trkpt lat="39.5930830" lon="2.3585330">
        <ele>117.0</ele>
        <time>2020-01-02T09:18:35Z</time>
      </trkpt>
      <trkpt lat="39.5931090" lon="2.3585250">
        <ele>118.0</ele>
        <time>2020-01-02T09:18:40Z</time>
      </trkpt>
      <trkpt lat="39.5931330" lon="2.3584920">
        <ele>119.2</ele>
        <time>2020-01-02T09:18:47Z</time>
      </trkpt>
      <trkpt lat="39.5931520" lon="2.3584980">
        <ele>120.2</ele>
        <time>2020-01-02T09:18:52Z</time>
      </trkpt>
      <trkpt lat="39.5931730" lon="2.3584840">
        <ele>121.2</ele>
        <time>2020-01-02T09:18:57Z</time>
      </trkpt>
      <trkpt lat="39.5932060" lon="2.3584500">
        <ele>122.2</ele>
        <time>2020-01-02T09:19:04Z</time>
      </trkpt>
      <trkpt lat="39.5932260" lon="2.3584480">
        <ele>123.4</ele>
        <time>2020-01-02T09:19:09Z</time>
      </trkpt>
      <trkpt lat="39.5935410" lon="2.3586480">
        <ele>124.6</ele>
        <time>2020-01-02T09:21:37Z</time>
      </trkpt>
      <trkpt lat="39.5936620" lon="2.3588070">
        <ele>125.6</ele>
        <time>2020-01-02T09:21:54Z</time>
      </trkpt>
      <trkpt lat="39.5937030" lon="2.3588460">
        <ele>126.8</ele>
        <time>2020-01-02T09:22:01Z</time>
      </trkpt>
      <trkpt lat="39.5937940" lon="2.3589010">
        <ele>127.8</ele>
        <time>2020-01-02T09:22:12Z</time>
      </trkpt>
      <trkpt lat="39.5938290" lon="2.3589140">
        <ele>128.8</ele>
        <time>2020-01-02T09:22:17Z</time>
      </trkpt>
      <trkpt lat="39.5938850" lon="2.3589270">
        <ele>129.8</ele>
        <time>2020-01-02T09:22:24Z</time>
      </trkpt>
      <trkpt lat="39.5939360" lon="2.3589240">
        <ele>130.2</ele>
        <time>2020-01-02T09:22:29Z</time>
      </trkpt>
      <trkpt lat="39.5939820" lon="2.3589470">
        <ele>131.0</ele>
        <time>2020-01-02T09:22:37Z</time>
      </trkpt>
      <trkpt lat="39.5939980" lon="2.3589780">
        <ele>132.2</ele>
        <time>2020-01-02T09:22:42Z</time>
      </trkpt>
      <trkpt lat="39.5940060" lon="2.3590010">
        <ele>133.6</ele>
        <time>2020-01-02T09:22:46Z</time>
      </trkpt>
      <trkpt lat="39.5940260" lon="2.3590210">
        <ele>134.6</ele>
        <time>2020-01-02T09:22:50Z</time>
      </trkpt>
      <trkpt lat="39.5940570" lon="2.3590500">
        <ele>135.6</ele>
        <time>2020-01-02T09:22:56Z</time>
      </trkpt>
      <trkpt lat="39.5940950" lon="2.3590830">
        <ele>136.4</ele>
        <time>2020-01-02T09:23:01Z</time>
      </trkpt>
      <trkpt lat="39.5941650" lon="2.3590710">
        <ele>137.2</ele>
        <time>2020-01-02T09:23:07Z</time>
      </trkpt>
      <trkpt lat="39.5942080" lon="2.3590650">
        <ele>137.6</ele>
        <time>2020-01-02T09:23:11Z</time>
      </trkpt>
      <trkpt lat="39.5942520" lon="2.3590860">
        <ele>138.8</ele>
        <time>2020-01-02T09:23:15Z</time>
      </trkpt>
      <trkpt lat="39.5942780" lon="2.3591000">
        <ele>140.0</ele>
        <time>2020-01-02T09:23:18Z</time>
      </trkpt>
      <trkpt lat="39.5942930" lon="2.3590860">
        <ele>140.4</ele>
        <time>2020-01-02T09:23:20Z</time>
      </trkpt>
      <trkpt lat="39.5944180" lon="2.3590850">
        <ele>141.0</ele>
        <time>2020-01-02T09:23:31Z</time>
      </trkpt>
      <trkpt lat="39.5944260" lon="2.3590790">
        <ele>141.2</ele>
        <time>2020-01-02T09:23:32Z</time>
      </trkpt>
      <trkpt lat="39.5944640" lon="2.3590530">
        <ele>142.0</ele>
        <time>2020-01-02T09:23:36Z</time>
      </trkpt>
      <trkpt lat="39.5945040" lon="2.3590140">
        <ele>143.2</ele>
        <time>2020-01-02T09:23:41Z</time>
      </trkpt>
      <trkpt lat="39.5945420" lon="2.3589810">
        <ele>144.4</ele>
        <time>2020-01-02T09:23:46Z</time>
      </trkpt>
      <trkpt lat="39.5945480" lon="2.3589710">
        <ele>144.8</ele>
        <time>2020-01-02T09:23:47Z</time>
      </trkpt>
      <trkpt lat="39.5945710" lon="2.3589590">
        <ele>145.8</ele>
        <time>2020-01-02T09:23:50Z</time>
      </trkpt>
      <trkpt lat="39.5945900" lon="2.3589500">
        <ele>146.4</ele>
        <time>2020-01-02T09:23:53Z</time>
      </trkpt>
      <trkpt lat="39.5945970" lon="2.3589470">
        <ele>146.8</ele>
        <time>2020-01-02T09:23:54Z</time>
      </trkpt>
      <trkpt lat="39.5946190" lon="2.3589270">
        <ele>148.0</ele>
        <time>2020-01-02T09:23:58Z</time>
      </trkpt>
      <trkpt lat="39.5946430" lon="2.3589210">
        <ele>149.0</ele>
        <time>2020-01-02T09:24:02Z</time>
      </trkpt>
      <trkpt lat="39.5946630" lon="2.3589120">
        <ele>150.0</ele>
        <time>2020-01-02T09:24:06Z</time>
      </trkpt>
      <trkpt lat="39.5946820" lon="2.3588830">
        <ele>151.2</ele>
        <time>2020-01-02T09:24:11Z</time>
      </trkpt>
      <trkpt lat="39.5947060" lon="2.3588460">
        <ele>152.2</ele>
        <time>2020-01-02T09:24:17Z</time>
      </trkpt>
      <trkpt lat="39.5947300" lon="2.3588200">
        <ele>153.4</ele>
        <time>2020-01-02T09:24:22Z</time>
      </trkpt>
      <trkpt lat="39.5947560" lon="2.3587750">
        <ele>154.4</ele>
        <time>2020-01-02T09:24:28Z</time>
      </trkpt>
      <trkpt lat="39.5947930" lon="2.3587490">
        <ele>155.4</ele>
        <time>2020-01-02T09:24:34Z</time>
      </trkpt>
      <trkpt lat="39.5948330" lon="2.3587280">
        <ele>156.6</ele>
        <time>2020-01-02T09:24:41Z</time>
      </trkpt>
      <trkpt lat="39.5948640" lon="2.3587180">
        <ele>157.8</ele>
        <time>2020-01-02T09:24:48Z</time>
      </trkpt>
      <trkpt lat="39.5948980" lon="2.3587070">
        <ele>159.0</ele>
        <time>2020-01-02T09:24:54Z</time>
      </trkpt>
      <trkpt lat="39.5949250" lon="2.3587000">
        <ele>160.0</ele>
        <time>2020-01-02T09:25:00Z</time>
      </trkpt>
      <trkpt lat="39.5949430" lon="2.3586780">
        <ele>161.2</ele>
        <time>2020-01-02T09:25:05Z</time>
      </trkpt>
      <trkpt lat="39.5949690" lon="2.3586520">
        <ele>162.4</ele>
        <time>2020-01-02T09:25:10Z</time>
      </trkpt>
      <trkpt lat="39.5950170" lon="2.3586530">
        <ele>163.4</ele>
        <time>2020-01-02T09:25:16Z</time>
      </trkpt>
      <trkpt lat="39.5950820" lon="2.3586710">
        <ele>164.6</ele>
        <time>2020-01-02T09:25:25Z</time>
      </trkpt>
      <trkpt lat="39.5951020" lon="2.3586820">
        <ele>165.8</ele>
        <time>2020-01-02T09:25:29Z</time>
      </trkpt>
      <trkpt lat="39.5951770" lon="2.3587260">
        <ele>166.8</ele>
        <time>2020-01-02T09:25:46Z</time>
      </trkpt>
      <trkpt lat="39.5952330" lon="2.3587500">
        <ele>167.0</ele>
        <time>2020-01-02T09:25:52Z</time>
      </trkpt>
      <trkpt lat="39.5952990" lon="2.3587590">
        <ele>166.8</ele>
        <time>2020-01-02T09:25:59Z</time>
      </trkpt>
      <trkpt lat="39.5953220" lon="2.3587800">
        <ele>166.8</ele>
        <time>2020-01-02T09:26:02Z</time>
      </trkpt>
      <trkpt lat="39.5953280" lon="2.3587970">
        <ele>167.0</ele>
        <time>2020-01-02T09:26:04Z</time>
      </trkpt>
      <trkpt lat="39.5953700" lon="2.3588190">
        <ele>166.8</ele>
        <time>2020-01-02T09:26:09Z</time>
      </trkpt>
      <trkpt lat="39.5954400" lon="2.3589280">
        <ele>167.8</ele>
        <time>2020-01-02T09:26:19Z</time>
      </trkpt>
      <trkpt lat="39.5955050" lon="2.3590260">
        <ele>168.8</ele>
        <time>2020-01-02T09:26:29Z</time>
      </trkpt>
      <trkpt lat="39.5955210" lon="2.3590630">
        <ele>169.4</ele>
        <time>2020-01-02T09:26:33Z</time>
      </trkpt>
      <trkpt lat="39.5955890" lon="2.3591280">
        <ele>169.8</ele>
        <time>2020-01-02T09:26:41Z</time>
      </trkpt>
      <trkpt lat="39.5955870" lon="2.3591360">
        <ele>170.0</ele>
        <time>2020-01-02T09:26:42Z</time>
      </trkpt>
      <trkpt lat="39.5955830" lon="2.3591380">
        <ele>170.4</ele>
        <time>2020-01-02T09:26:43Z</time>
      </trkpt>
      <trkpt lat="39.5955750" lon="2.3591450">
        <ele>171.0</ele>
        <time>2020-01-02T09:26:46Z</time>
      </trkpt>
      <trkpt lat="39.5955830" lon="2.3591880">
        <ele>172.2</ele>
        <time>2020-01-02T09:26:52Z</time>
      </trkpt>
      <trkpt lat="39.5956260" lon="2.3592270">
        <ele>172.8</ele>
        <time>2020-01-02T09:26:57Z</time>
      </trkpt>
      <trkpt lat="39.5956950" lon="2.3592680">
        <ele>173.2</ele>
        <time>2020-01-02T09:27:03Z</time>
      </trkpt>
      <trkpt lat="39.5958800" lon="2.3593480">
        <ele>172.2</ele>
        <time>2020-01-02T09:27:19Z</time>
      </trkpt>
      <trkpt lat="39.5958900" lon="2.3593560">
        <ele>172.0</ele>
        <time>2020-01-02T09:27:20Z</time>
      </trkpt>
      <trkpt lat="39.5959190" lon="2.3593790">
        <ele>170.8</ele>
        <time>2020-01-02T09:27:23Z</time>
      </trkpt>
      <trkpt lat="39.5959770" lon="2.3594160">
        <ele>170.4</ele>
        <time>2020-01-02T09:27:29Z</time>
      </trkpt>
      <trkpt lat="39.5960220" lon="2.3594340">
        <ele>170.4</ele>
        <time>2020-01-02T09:27:33Z</time>
      </trkpt>
      <trkpt lat="39.5960290" lon="2.3594470">
        <ele>170.8</ele>
        <time>2020-01-02T09:27:35Z</time>
      </trkpt>
      <trkpt lat="39.5960520" lon="2.3594690">
        <ele>171.6</ele>
        <time>2020-01-02T09:27:39Z</time>
      </trkpt>
      <trkpt lat="39.5960620" lon="2.3594850">
        <ele>172.0</ele>
        <time>2020-01-02T09:27:41Z</time>
      </trkpt>
      <trkpt lat="39.5961000" lon="2.3594910">
        <ele>173.0</ele>
        <time>2020-01-02T09:27:47Z</time>
      </trkpt>
      <trkpt lat="39.5961340" lon="2.3595100">
        <ele>174.2</ele>
        <time>2020-01-02T09:27:53Z</time>
      </trkpt>
      <trkpt lat="39.5961650" lon="2.3595030">
        <ele>175.2</ele>
        <time>2020-01-02T09:28:05Z</time>
      </trkpt>
      <trkpt lat="39.5964170" lon="2.3595050">
        <ele>174.2</ele>
        <time>2020-01-02T09:28:30Z</time>
      </trkpt>
      <trkpt lat="39.5964850" lon="2.3595020">
        <ele>172.8</ele>
        <time>2020-01-02T09:28:36Z</time>
      </trkpt>
      <trkpt lat="39.5965660" lon="2.3595120">
        <ele>172.6</ele>
        <time>2020-01-02T09:28:46Z</time>
      </trkpt>
      <trkpt lat="39.5966070" lon="2.3595290">
        <ele>172.2</ele>
        <time>2020-01-02T09:28:50Z</time>
      </trkpt>
      <trkpt lat="39.5966400" lon="2.3595350">
        <ele>172.0</ele>
        <time>2020-01-02T09:28:52Z</time>
      </trkpt>
      <trkpt lat="39.5968720" lon="2.3595540">
        <ele>173.8</ele>
        <time>2020-01-02T09:29:12Z</time>
      </trkpt>
      <trkpt lat="39.5968860" lon="2.3595430">
        <ele>174.0</ele>
        <time>2020-01-02T09:29:14Z</time>
      </trkpt>
      <trkpt lat="39.5969180" lon="2.3595210">
        <ele>174.6</ele>
        <time>2020-01-02T09:29:18Z</time>
      </trkpt>
      <trkpt lat="39.5969340" lon="2.3595080">
        <ele>175.0</ele>
        <time>2020-01-02T09:29:21Z</time>
      </trkpt>
      <trkpt lat="39.5969600" lon="2.3594550">
        <ele>176.2</ele>
        <time>2020-01-02T09:29:28Z</time>
      </trkpt>
      <trkpt lat="39.5969880" lon="2.3594240">
        <ele>177.2</ele>
        <time>2020-01-02T09:29:34Z</time>
      </trkpt>
      <trkpt lat="39.5970100" lon="2.3593960">
        <ele>178.2</ele>
        <time>2020-01-02T09:29:40Z</time>
      </trkpt>
      <trkpt lat="39.5970160" lon="2.3593490">
        <ele>179.8</ele>
        <time>2020-01-02T09:30:03Z</time>
      </trkpt>
      <trkpt lat="39.5970310" lon="2.3593210">
        <ele>180.8</ele>
        <time>2020-01-02T09:30:18Z</time>
      </trkpt>
      <trkpt lat="39.5970290" lon="2.3593170">
        <ele>179.8</ele>
        <time>2020-01-02T09:30:35Z</time>
      </trkpt>
      <trkpt lat="39.5970330" lon="2.3592530">
        <ele>180.8</ele>
        <time>2020-01-02T09:30:42Z</time>
      </trkpt>
      <trkpt lat="39.5970240" lon="2.3591870">
        <ele>182.0</ele>
        <time>2020-01-02T09:30:49Z</time>
      </trkpt>
      <trkpt lat="39.5970390" lon="2.3591360">
        <ele>183.0</ele>
        <time>2020-01-02T09:30:55Z</time>
      </trkpt>
      <trkpt lat="39.5970770" lon="2.3590620">
        <ele>184.2</ele>
        <time>2020-01-02T09:31:07Z</time>
      </trkpt>
      <trkpt lat="39.5971000" lon="2.3590230">
        <ele>185.4</ele>
        <time>2020-01-02T09:31:13Z</time>
      </trkpt>
      <trkpt lat="39.5971090" lon="2.3589560">
        <ele>186.6</ele>
        <time>2020-01-02T09:31:20Z</time>
      </trkpt>
      <trkpt lat="39.5971190" lon="2.3589070">
        <ele>187.6</ele>
        <time>2020-01-02T09:31:25Z</time>
      </trkpt>
      <trkpt lat="39.5971370" lon="2.3588860">
        <ele>188.6</ele>
        <time>2020-01-02T09:31:29Z</time>
      </trkpt>
      <trkpt lat="39.5971600" lon="2.3588610">
        <ele>189.8</ele>
        <time>2020-01-02T09:31:34Z</time>
      </trkpt>
      <trkpt lat="39.5971810" lon="2.3588610">
        <ele>190.8</ele>
        <time>2020-01-02T09:31:39Z</time>
      </trkpt>
      <trkpt lat="39.5972080" lon="2.3588290">
        <ele>192.0</ele>
        <time>2020-01-02T09:31:45Z</time>
      </trkpt>
      <trkpt lat="39.5972330" lon="2.3588300">
        <ele>193.2</ele>
        <time>2020-01-02T09:31:50Z</time>
      </trkpt>
      <trkpt lat="39.5972570" lon="2.3588280">
        <ele>194.2</ele>
        <time>2020-01-02T09:31:55Z</time>
      </trkpt>
      <trkpt lat="39.5972740" lon="2.3588190">
        <ele>195.4</ele>
        <time>2020-01-02T09:32:00Z</time>
      </trkpt>
      <trkpt lat="39.5972960" lon="2.3588060">
        <ele>196.6</ele>
        <time>2020-01-02T09:32:06Z</time>
      </trkpt>
      <trkpt lat="39.5973140" lon="2.3587940">
        <ele>197.6</ele>
        <time>2020-01-02T09:32:11Z</time>
      </trkpt>
      <trkpt lat="39.5973340" lon="2.3587800">
        <ele>198.6</ele>
        <time>2020-01-02T09:32:16Z</time>
      </trkpt>
      <trkpt lat="39.5973550" lon="2.3587800">
        <ele>199.8</ele>
        <time>2020-01-02T09:32:22Z</time>
      </trkpt>
      <trkpt lat="39.5973780" lon="2.3587530">
        <ele>201.0</ele>
        <time>2020-01-02T09:32:27Z</time>
      </trkpt>
      <trkpt lat="39.5974270" lon="2.3587570">
        <ele>202.0</ele>
        <time>2020-01-02T09:32:40Z</time>
      </trkpt>
      <trkpt lat="39.5974180" lon="2.3587680">
        <ele>203.2</ele>
        <time>2020-01-02T09:32:45Z</time>
      </trkpt>
      <trkpt lat="39.5974180" lon="2.3587710">
        <ele>204.4</ele>
        <time>2020-01-02T09:32:54Z</time>
      </trkpt>
      <trkpt lat="39.5974180" lon="2.3587690">
        <ele>203.0</ele>
        <time>2020-01-02T09:33:17Z</time>
      </trkpt>
      <trkpt lat="39.5974190" lon="2.3587690">
        <ele>202.0</ele>
        <time>2020-01-02T09:33:43Z</time>
      </trkpt>
      <trkpt lat="39.5974490" lon="2.3587750">
        <ele>203.4</ele>
        <time>2020-01-02T09:33:53Z</time>
      </trkpt>
      <trkpt lat="39.5974690" lon="2.3587740">
        <ele>204.4</ele>
        <time>2020-01-02T09:33:58Z</time>
      </trkpt>
      <trkpt lat="39.5974850" lon="2.3587730">
        <ele>205.8</ele>
        <time>2020-01-02T09:34:05Z</time>
      </trkpt>
      <trkpt lat="39.5974950" lon="2.3587850">
        <ele>207.0</ele>
        <time>2020-01-02T09:34:09Z</time>
      </trkpt>
      <trkpt lat="39.5974990" lon="2.3588080">
        <ele>208.0</ele>
        <time>2020-01-02T09:34:15Z</time>
      </trkpt>
      <trkpt lat="39.5974980" lon="2.3588350">
        <ele>209.2</ele>
        <time>2020-01-02T09:34:24Z</time>
      </trkpt>
      <trkpt lat="39.5974910" lon="2.3588480">
        <ele>210.2</ele>
        <time>2020-01-02T09:34:27Z</time>
      </trkpt>
      <trkpt lat="39.5975050" lon="2.3588600">
        <ele>211.2</ele>
        <time>2020-01-02T09:34:34Z</time>
      </trkpt>
      <trkpt lat="39.5975230" lon="2.3588560">
        <ele>213.0</ele>
        <time>2020-01-02T09:34:44Z</time>
      </trkpt>
      <trkpt lat="39.5975310" lon="2.3588670">
        <ele>214.2</ele>
        <time>2020-01-02T09:34:51Z</time>
      </trkpt>
      <trkpt lat="39.5975220" lon="2.3588860">
        <ele>215.2</ele>
        <time>2020-01-02T09:34:56Z</time>
      </trkpt>
      <trkpt lat="39.5975240" lon="2.3589190">
        <ele>216.2</ele>
        <time>2020-01-02T09:35:02Z</time>
      </trkpt>
      <trkpt lat="39.5975080" lon="2.3589470">
        <ele>217.2</ele>
        <time>2020-01-02T09:35:09Z</time>
      </trkpt>
      <trkpt lat="39.5975240" lon="2.3589830">
        <ele>218.0</ele>
        <time>2020-01-02T09:35:27Z</time>
      </trkpt>
      <trkpt lat="39.5975130" lon="2.3589980">
        <ele>219.2</ele>
        <time>2020-01-02T09:35:31Z</time>
      </trkpt>
      <trkpt lat="39.5975150" lon="2.3590010">
        <ele>220.4</ele>
        <time>2020-01-02T09:35:38Z</time>
      </trkpt>
      <trkpt lat="39.5975370" lon="2.3590130">
        <ele>221.6</ele>
        <time>2020-01-02T09:36:10Z</time>
      </trkpt>
      <trkpt lat="39.5975600" lon="2.3590400">
        <ele>222.6</ele>
        <time>2020-01-02T09:36:17Z</time>
      </trkpt>
      <trkpt lat="39.5975780" lon="2.3590640">
        <ele>223.8</ele>
        <time>2020-01-02T09:36:22Z</time>
      </trkpt>
      <trkpt lat="39.5975990" lon="2.3590810">
        <ele>224.8</ele>
        <time>2020-01-02T09:36:26Z</time>
      </trkpt>
      <trkpt lat="39.5976410" lon="2.3590760">
        <ele>225.8</ele>
        <time>2020-01-02T09:36:31Z</time>
      </trkpt>
      <trkpt lat="39.5976470" lon="2.3590820">
        <ele>226.0</ele>
        <time>2020-01-02T09:36:32Z</time>
      </trkpt>
      <trkpt lat="39.5976500" lon="2.3590860">
        <ele>226.2</ele>
        <time>2020-01-02T09:36:33Z</time>
      </trkpt>
      <trkpt lat="39.5976610" lon="2.3591020">
        <ele>227.0</ele>
        <time>2020-01-02T09:36:36Z</time>
      </trkpt>
      <trkpt lat="39.5976810" lon="2.3591230">
        <ele>228.2</ele>
        <time>2020-01-02T09:36:41Z</time>
      </trkpt>
      <trkpt lat="39.5977460" lon="2.3590690">
        <ele>228.4</ele>
        <time>2020-01-02T09:36:49Z</time>
      </trkpt>
      <trkpt lat="39.5977640" lon="2.3590620">
        <ele>228.4</ele>
        <time>2020-01-02T09:36:51Z</time>
      </trkpt>
      <trkpt lat="39.5978140" lon="2.3590490">
        <ele>228.0</ele>
        <time>2020-01-02T09:36:57Z</time>
      </trkpt>
      <trkpt lat="39.5978280" lon="2.3590490">
        <ele>227.6</ele>
        <time>2020-01-02T09:36:59Z</time>
      </trkpt>
      <trkpt lat="39.5978600" lon="2.3590740">
        <ele>227.0</ele>
        <time>2020-01-02T09:37:21Z</time>
      </trkpt>
      <trkpt lat="39.5979110" lon="2.3591530">
        <ele>226.2</ele>
        <time>2020-01-02T09:37:30Z</time>
      </trkpt>
      <trkpt lat="39.5979130" lon="2.3591570">
        <ele>226.0</ele>
        <time>2020-01-02T09:37:31Z</time>
      </trkpt>
      <trkpt lat="39.5979500" lon="2.3592020">
        <ele>225.0</ele>
        <time>2020-01-02T09:37:39Z</time>
      </trkpt>
      <trkpt lat="39.5979810" lon="2.3592200">
        <ele>223.8</ele>
        <time>2020-01-02T09:37:45Z</time>
      </trkpt>
      <trkpt lat="39.5980230" lon="2.3592750">
        <ele>222.6</ele>
        <time>2020-01-02T09:37:52Z</time>
      </trkpt>
      <trkpt lat="39.5980400" lon="2.3593180">
        <ele>221.6</ele>
        <time>2020-01-02T09:38:01Z</time>
      </trkpt>
      <trkpt lat="39.5980820" lon="2.3593260">
        <ele>220.4</ele>
        <time>2020-01-02T09:38:07Z</time>
      </trkpt>
      <trkpt lat="39.5981210" lon="2.3593550">
        <ele>219.2</ele>
        <time>2020-01-02T09:38:14Z</time>
      </trkpt>
      <trkpt lat="39.5981580" lon="2.3593730">
        <ele>218.2</ele>
        <time>2020-01-02T09:38:19Z</time>
      </trkpt>
      <trkpt lat="39.5981840" lon="2.3594220">
        <ele>217.0</ele>
        <time>2020-01-02T09:38:26Z</time>
      </trkpt>
      <trkpt lat="39.5982000" lon="2.3594470">
        <ele>216.0</ele>
        <time>2020-01-02T09:38:31Z</time>
      </trkpt>
      <trkpt lat="39.5982290" lon="2.3594860">
        <ele>215.2</ele>
        <time>2020-01-02T09:38:37Z</time>
      </trkpt>
      <trkpt lat="39.5982660" lon="2.3595120">
        <ele>214.0</ele>
        <time>2020-01-02T09:38:41Z</time>
      </trkpt>
      <trkpt lat="39.5982990" lon="2.3595690">
        <ele>213.2</ele>
        <time>2020-01-02T09:38:47Z</time>
      </trkpt>
      <trkpt lat="39.5983030" lon="2.3595790">
        <ele>212.8</ele>
        <time>2020-01-02T09:38:48Z</time>
      </trkpt>
      <trkpt lat="39.5983300" lon="2.3596350">
        <ele>211.8</ele>
        <time>2020-01-02T09:38:54Z</time>
      </trkpt>
      <trkpt lat="39.5983800" lon="2.3597610">
        <ele>211.8</ele>
        <time>2020-01-02T09:39:04Z</time>
      </trkpt>
      <trkpt lat="39.5983800" lon="2.3597810">
        <ele>212.0</ele>
        <time>2020-01-02T09:39:06Z</time>
      </trkpt>
      <trkpt lat="39.5983900" lon="2.3598300">
        <ele>213.0</ele>
        <time>2020-01-02T09:39:11Z</time>
      </trkpt>
      <trkpt lat="39.5984050" lon="2.3598980">
        <ele>214.0</ele>
        <time>2020-01-02T09:39:18Z</time>
      </trkpt>
      <trkpt lat="39.5984380" lon="2.3599870">
        <ele>215.0</ele>
        <time>2020-01-02T09:39:26Z</time>
      </trkpt>
      <trkpt lat="39.5984510" lon="2.3600190">
        <ele>215.8</ele>
        <time>2020-01-02T09:39:29Z</time>
      </trkpt>
      <trkpt lat="39.5985430" lon="2.3601350">
        <ele>214.4</ele>
        <time>2020-01-02T09:39:43Z</time>
      </trkpt>
      <trkpt lat="39.5985590" lon="2.3601590">
        <ele>214.0</ele>
        <time>2020-01-02T09:39:46Z</time>
      </trkpt>
      <trkpt lat="39.5985960" lon="2.3602830">
        <ele>212.6</ele>
        <time>2020-01-02T09:39:57Z</time>
      </trkpt>
      <trkpt lat="39.5986370" lon="2.3603680">
        <ele>211.4</ele>
        <time>2020-01-02T09:40:05Z</time>
      </trkpt>
      <trkpt lat="39.5986430" lon="2.3603730">
        <ele>211.0</ele>
        <time>2020-01-02T09:40:06Z</time>
      </trkpt>
      <trkpt lat="39.5986570" lon="2.3604140">
        <ele>210.6</ele>
        <time>2020-01-02T09:40:09Z</time>
      </trkpt>
      <trkpt lat="39.5986840" lon="2.3604990">
        <ele>210.4</ele>
        <time>2020-01-02T09:40:15Z</time>
      </trkpt>
      <trkpt lat="39.5987140" lon="2.3605860">
        <ele>210.6</ele>
        <time>2020-01-02T09:40:21Z</time>
      </trkpt>
      <trkpt lat="39.5987500" lon="2.3606720">
        <ele>211.4</ele>
        <time>2020-01-02T09:40:28Z</time>
      </trkpt>
      <trkpt lat="39.5987860" lon="2.3607080">
        <ele>211.8</ele>
        <time>2020-01-02T09:40:32Z</time>
      </trkpt>
      <trkpt lat="39.5988240" lon="2.3607480">
        <ele>212.4</ele>
        <time>2020-01-02T09:40:37Z</time>
      </trkpt>
      <trkpt lat="39.5989040" lon="2.3607720">
        <ele>212.0</ele>
        <time>2020-01-02T09:40:45Z</time>
      </trkpt>
      <trkpt lat="39.5989550" lon="2.3608250">
        <ele>211.4</ele>
        <time>2020-01-02T09:40:53Z</time>
      </trkpt>
      <trkpt lat="39.5989670" lon="2.3608330">
        <ele>211.2</ele>
        <time>2020-01-02T09:40:55Z</time>
      </trkpt>
      <trkpt lat="39.5990030" lon="2.3608510">
        <ele>210.0</ele>
        <time>2020-01-02T09:41:01Z</time>
      </trkpt>
      <trkpt lat="39.5990320" lon="2.3608890">
        <ele>208.6</ele>
        <time>2020-01-02T09:41:09Z</time>
      </trkpt>
      <trkpt lat="39.5990540" lon="2.3609140">
        <ele>207.8</ele>
        <time>2020-01-02T09:41:15Z</time>
      </trkpt>
      <trkpt lat="39.5990880" lon="2.3609230">
        <ele>206.6</ele>
        <time>2020-01-02T09:41:21Z</time>
      </trkpt>
      <trkpt lat="39.5991110" lon="2.3609330">
        <ele>205.6</ele>
        <time>2020-01-02T09:41:24Z</time>
      </trkpt>
      <trkpt lat="39.5991890" lon="2.3609850">
        <ele>204.4</ele>
        <time>2020-01-02T09:41:48Z</time>
      </trkpt>
      <trkpt lat="39.5992670" lon="2.3610280">
        <ele>204.6</ele>
        <time>2020-01-02T09:41:55Z</time>
      </trkpt>
      <trkpt lat="39.5994820" lon="2.3609400">
        <ele>203.4</ele>
        <time>2020-01-02T09:42:15Z</time>
      </trkpt>
      <trkpt lat="39.5995250" lon="2.3609310">
        <ele>202.4</ele>
        <time>2020-01-02T09:42:19Z</time>
      </trkpt>
      <trkpt lat="39.5995460" lon="2.3609380">
        <ele>202.0</ele>
        <time>2020-01-02T09:42:22Z</time>
      </trkpt>
      <trkpt lat="39.5995820" lon="2.3609730">
        <ele>201.2</ele>
        <time>2020-01-02T09:42:27Z</time>
      </trkpt>
      <trkpt lat="39.5996070" lon="2.3609980">
        <ele>200.8</ele>
        <time>2020-01-02T09:42:30Z</time>
      </trkpt>
      <trkpt lat="39.5996280" lon="2.3610070">
        <ele>200.0</ele>
        <time>2020-01-02T09:42:33Z</time>
      </trkpt>
      <trkpt lat="39.5996660" lon="2.3610430">
        <ele>199.0</ele>
        <time>2020-01-02T09:42:38Z</time>
      </trkpt>
      <trkpt lat="39.5997750" lon="2.3611080">
        <ele>197.8</ele>
        <time>2020-01-02T09:42:50Z</time>
      </trkpt>
      <trkpt lat="39.5998440" lon="2.3610990">
        <ele>196.6</ele>
        <time>2020-01-02T09:42:57Z</time>
      </trkpt>
      <trkpt lat="39.5998620" lon="2.3610920">
        <ele>196.4</ele>
        <time>2020-01-02T09:42:59Z</time>
      </trkpt>
      <trkpt lat="39.5998970" lon="2.3610710">
        <ele>195.6</ele>
        <time>2020-01-02T09:43:03Z</time>
      </trkpt>
      <trkpt lat="39.5999350" lon="2.3610400">
        <ele>194.4</ele>
        <time>2020-01-02T09:43:08Z</time>
      </trkpt>
      <trkpt lat="39.5999440" lon="2.3610210">
        <ele>194.2</ele>
        <time>2020-01-02T09:43:10Z</time>
      </trkpt>
      <trkpt lat="39.5999450" lon="2.3609970">
        <ele>193.8</ele>
        <time>2020-01-02T09:43:12Z</time>
      </trkpt>
      <trkpt lat="39.5999270" lon="2.3609650">
        <ele>193.2</ele>
        <time>2020-01-02T09:43:15Z</time>
      </trkpt>
      <trkpt lat="39.5998850" lon="2.3609250">
        <ele>192.2</ele>
        <time>2020-01-02T09:43:20Z</time>
      </trkpt>
      <trkpt lat="39.5998630" lon="2.3608990">
        <ele>191.6</ele>
        <time>2020-01-02T09:43:23Z</time>
      </trkpt>
      <trkpt lat="39.5998610" lon="2.3608850">
        <ele>191.4</ele>
        <time>2020-01-02T09:43:25Z</time>
      </trkpt>
      <trkpt lat="39.5998600" lon="2.3608520">
        <ele>191.0</ele>
        <time>2020-01-02T09:43:28Z</time>
      </trkpt>
      <trkpt lat="39.5998680" lon="2.3607950">
        <ele>190.0</ele>
        <time>2020-01-02T09:44:10Z</time>
      </trkpt>
      <trkpt lat="39.5999770" lon="2.3607620">
        <ele>189.2</ele>
        <time>2020-01-02T09:44:22Z</time>
      </trkpt>
      <trkpt lat="39.6000360" lon="2.3608000">
        <ele>189.2</ele>
        <time>2020-01-02T09:44:29Z</time>
      </trkpt>
      <trkpt lat="39.6000480" lon="2.3608090">
        <ele>189.4</ele>
        <time>2020-01-02T09:44:31Z</time>
      </trkpt>
      <trkpt lat="39.6000810" lon="2.3608070">
        <ele>188.8</ele>
        <time>2020-01-02T09:44:36Z</time>
      </trkpt>
      <trkpt lat="39.6001480" lon="2.3607690">
        <ele>189.2</ele>
        <time>2020-01-02T09:44:44Z</time>
      </trkpt>
      <trkpt lat="39.6002060" lon="2.3607310">
        <ele>188.8</ele>
        <time>2020-01-02T09:44:51Z</time>
      </trkpt>
      <trkpt lat="39.6002420" lon="2.3606990">
        <ele>189.0</ele>
        <time>2020-01-02T09:44:55Z</time>
      </trkpt>
      <trkpt lat="39.6002720" lon="2.3605900">
        <ele>188.4</ele>
        <time>2020-01-02T09:45:05Z</time>
      </trkpt>
      <trkpt lat="39.6002710" lon="2.3605220">
        <ele>190.0</ele>
        <time>2020-01-02T09:45:11Z</time>
      </trkpt>
      <trkpt lat="39.6002570" lon="2.3604360">
        <ele>191.2</ele>
        <time>2020-01-02T09:45:18Z</time>
      </trkpt>
      <trkpt lat="39.6002270" lon="2.3603700">
        <ele>192.4</ele>
        <time>2020-01-02T09:45:24Z</time>
      </trkpt>
      <trkpt lat="39.6002200" lon="2.3603480">
        <ele>193.2</ele>
        <time>2020-01-02T09:45:27Z</time>
      </trkpt>
      <trkpt lat="39.6002240" lon="2.3603510">
        <ele>193.4</ele>
        <time>2020-01-02T09:45:28Z</time>
      </trkpt>
      <trkpt lat="39.6002850" lon="2.3603090">
        <ele>194.6</ele>
        <time>2020-01-02T09:46:02Z</time>
      </trkpt>
      <trkpt lat="39.6002700" lon="2.3602890">
        <ele>193.4</ele>
        <time>2020-01-02T09:46:39Z</time>
      </trkpt>
      <trkpt lat="39.6002170" lon="2.3602860">
        <ele>194.6</ele>
        <time>2020-01-02T09:46:44Z</time>
      </trkpt>
      <trkpt lat="39.6001870" lon="2.3602240">
        <ele>195.8</ele>
        <time>2020-01-02T09:46:50Z</time>
      </trkpt>
      <trkpt lat="39.6001570" lon="2.3601480">
        <ele>197.0</ele>
        <time>2020-01-02T09:46:56Z</time>
      </trkpt>
      <trkpt lat="39.6001280" lon="2.3600920">
        <ele>196.6</ele>
        <time>2020-01-02T09:47:01Z</time>
      </trkpt>
      <trkpt lat="39.6001100" lon="2.3600120">
        <ele>196.0</ele>
        <time>2020-01-02T09:47:06Z</time>
      </trkpt>
      <trkpt lat="39.6000870" lon="2.3599040">
        <ele>194.4</ele>
        <time>2020-01-02T09:47:14Z</time>
      </trkpt>
      <trkpt lat="39.6000950" lon="2.3598070">
        <ele>193.0</ele>
        <time>2020-01-02T09:47:21Z</time>
      </trkpt>
      <trkpt lat="39.6001180" lon="2.3597160">
        <ele>192.0</ele>
        <time>2020-01-02T09:47:28Z</time>
      </trkpt>
      <trkpt lat="39.6001130" lon="2.3596470">
        <ele>190.8</ele>
        <time>2020-01-02T09:47:33Z</time>
      </trkpt>
      <trkpt lat="39.6000780" lon="2.3595890">
        <ele>189.8</ele>
        <time>2020-01-02T09:47:39Z</time>
      </trkpt>
      <trkpt lat="39.6000360" lon="2.3595510">
        <ele>188.6</ele>
        <time>2020-01-02T09:47:44Z</time>
      </trkpt>
      <trkpt lat="39.6000180" lon="2.3594760">
        <ele>187.2</ele>
        <time>2020-01-02T09:47:50Z</time>
      </trkpt>
      <trkpt lat="39.6000040" lon="2.3593980">
        <ele>186.0</ele>
        <time>2020-01-02T09:47:56Z</time>
      </trkpt>
      <trkpt lat="39.5999940" lon="2.3592710">
        <ele>185.0</ele>
        <time>2020-01-02T09:48:05Z</time>
      </trkpt>
      <trkpt lat="39.5999820" lon="2.3591730">
        <ele>183.8</ele>
        <time>2020-01-02T09:48:12Z</time>
      </trkpt>
      <trkpt lat="39.5999840" lon="2.3591540">
        <ele>183.2</ele>
        <time>2020-01-02T09:48:14Z</time>
      </trkpt>
      <trkpt lat="39.5999870" lon="2.3591140">
        <ele>182.8</ele>
        <time>2020-01-02T09:48:20Z</time>
      </trkpt>
      <trkpt lat="39.5999900" lon="2.3590390">
        <ele>181.6</ele>
        <time>2020-01-02T09:48:26Z</time>
      </trkpt>
      <trkpt lat="39.5999760" lon="2.3589740">
        <ele>180.6</ele>
        <time>2020-01-02T09:48:31Z</time>
      </trkpt>
      <trkpt lat="39.5999620" lon="2.3589160">
        <ele>179.4</ele>
        <time>2020-01-02T09:48:36Z</time>
      </trkpt>
      <trkpt lat="39.5999540" lon="2.3588780">
        <ele>178.4</ele>
        <time>2020-01-02T09:48:40Z</time>
      </trkpt>
      <trkpt lat="39.5999500" lon="2.3588680">
        <ele>178.2</ele>
        <time>2020-01-02T09:48:41Z</time>
      </trkpt>
      <trkpt lat="39.5999110" lon="2.3587520">
        <ele>177.6</ele>
        <time>2020-01-02T09:48:53Z</time>
      </trkpt>
      <trkpt lat="39.5998950" lon="2.3587340">
        <ele>178.2</ele>
        <time>2020-01-02T09:48:55Z</time>
      </trkpt>
      <trkpt lat="39.5998560" lon="2.3587230">
        <ele>179.2</ele>
        <time>2020-01-02T09:49:03Z</time>
      </trkpt>
      <trkpt lat="39.5998380" lon="2.3586910">
        <ele>178.2</ele>
        <time>2020-01-02T09:50:58Z</time>
      </trkpt>
      <trkpt lat="39.5998380" lon="2.3586900">
        <ele>177.2</ele>
        <time>2020-01-02T09:51:18Z</time>
      </trkpt>
      <trkpt lat="39.5998120" lon="2.3586830">
        <ele>178.2</ele>
        <time>2020-01-02T09:51:34Z</time>
      </trkpt>
      <trkpt lat="39.5998430" lon="2.3589010">
        <ele>178.4</ele>
        <time>2020-01-02T09:52:29Z</time>
      </trkpt>
      <trkpt lat="39.5998440" lon="2.3589230">
        <ele>178.6</ele>
        <time>2020-01-02T09:52:31Z</time>
      </trkpt>
      <trkpt lat="39.5998460" lon="2.3589380">
        <ele>179.0</ele>
        <time>2020-01-02T09:52:33Z</time>
      </trkpt>
      <trkpt lat="39.5998530" lon="2.3589520">
        <ele>179.4</ele>
        <time>2020-01-02T09:52:35Z</time>
      </trkpt>
      <trkpt lat="39.5998960" lon="2.3589880">
        <ele>180.6</ele>
        <time>2020-01-02T09:52:42Z</time>
      </trkpt>
      <trkpt lat="39.5998450" lon="2.3589880">
        <ele>181.6</ele>
        <time>2020-01-02T09:53:01Z</time>
      </trkpt>
      <trkpt lat="39.5998830" lon="2.3590070">
        <ele>182.6</ele>
        <time>2020-01-02T09:53:37Z</time>
      </trkpt>
      <trkpt lat="39.5999150" lon="2.3590420">
        <ele>183.8</ele>
        <time>2020-01-02T09:53:44Z</time>
      </trkpt>
      <trkpt lat="39.5999580" lon="2.3591300">
        <ele>184.8</ele>
        <time>2020-01-02T09:53:58Z</time>
      </trkpt>
      <trkpt lat="39.5999730" lon="2.3592910">
        <ele>186.0</ele>
        <time>2020-01-02T09:54:26Z</time>
      </trkpt>
      <trkpt lat="39.5999750" lon="2.3593820">
        <ele>187.0</ele>
        <time>2020-01-02T09:54:35Z</time>
      </trkpt>
      <trkpt lat="39.5999940" lon="2.3594630">
        <ele>188.0</ele>
        <time>2020-01-02T09:54:44Z</time>
      </trkpt>
      <trkpt lat="39.6000350" lon="2.3595510">
        <ele>189.2</ele>
        <time>2020-01-02T09:54:54Z</time>
      </trkpt>
      <trkpt lat="39.6001010" lon="2.3596100">
        <ele>190.4</ele>
        <time>2020-01-02T09:55:04Z</time>
      </trkpt>
      <trkpt lat="39.6001140" lon="2.3597120">
        <ele>191.4</ele>
        <time>2020-01-02T09:55:15Z</time>
      </trkpt>
      <trkpt lat="39.6000950" lon="2.3597990">
        <ele>192.6</ele>
        <time>2020-01-02T09:55:27Z</time>
      </trkpt>
      <trkpt lat="39.6000910" lon="2.3598880">
        <ele>193.6</ele>
        <time>2020-01-02T09:55:38Z</time>
      </trkpt>
      <trkpt lat="39.6000990" lon="2.3599710">
        <ele>194.6</ele>
        <time>2020-01-02T09:55:48Z</time>
      </trkpt>
      <trkpt lat="39.6001340" lon="2.3600850">
        <ele>195.6</ele>
        <time>2020-01-02T09:56:02Z</time>
      </trkpt>
      <trkpt lat="39.6002160" lon="2.3602850">
        <ele>194.6</ele>
        <time>2020-01-02T09:56:25Z</time>
      </trkpt>
      <trkpt lat="39.6002500" lon="2.3604640">
        <ele>193.4</ele>
        <time>2020-01-02T09:56:42Z</time>
      </trkpt>
      <trkpt lat="39.6002480" lon="2.3604870">
        <ele>193.4</ele>
        <time>2020-01-02T09:56:44Z</time>
      </trkpt>
      <trkpt lat="39.6002060" lon="2.3607230">
        <ele>192.4</ele>
        <time>2020-01-02T09:56:56Z</time>
      </trkpt>
      <trkpt lat="39.5998300" lon="2.3608490">
        <ele>193.6</ele>
        <time>2020-01-02T09:57:54Z</time>
      </trkpt>
      <trkpt lat="39.5998570" lon="2.3609460">
        <ele>194.6</ele>
        <time>2020-01-02T09:58:12Z</time>
      </trkpt>
      <trkpt lat="39.5999040" lon="2.3609700">
        <ele>195.0</ele>
        <time>2020-01-02T09:58:17Z</time>
      </trkpt>
      <trkpt lat="39.5999180" lon="2.3609950">
        <ele>195.4</ele>
        <time>2020-01-02T09:58:20Z</time>
      </trkpt>
      <trkpt lat="39.5999180" lon="2.3610050">
        <ele>195.6</ele>
        <time>2020-01-02T09:58:21Z</time>
      </trkpt>
      <trkpt lat="39.5999170" lon="2.3610110">
        <ele>195.8</ele>
        <time>2020-01-02T09:58:22Z</time>
      </trkpt>
      <trkpt lat="39.5999110" lon="2.3610370">
        <ele>196.8</ele>
        <time>2020-01-02T09:58:26Z</time>
      </trkpt>
      <trkpt lat="39.5998960" lon="2.3610650">
        <ele>197.8</ele>
        <time>2020-01-02T09:58:29Z</time>
      </trkpt>
      <trkpt lat="39.5998420" lon="2.3611160">
        <ele>199.0</ele>
        <time>2020-01-02T09:58:39Z</time>
      </trkpt>
      <trkpt lat="39.5997230" lon="2.3610800">
        <ele>200.0</ele>
        <time>2020-01-02T09:58:52Z</time>
      </trkpt>
      <trkpt lat="39.5996340" lon="2.3610020">
        <ele>201.0</ele>
        <time>2020-01-02T09:59:03Z</time>
      </trkpt>
      <trkpt lat="39.5995820" lon="2.3609520">
        <ele>202.0</ele>
        <time>2020-01-02T09:59:10Z</time>
      </trkpt>
      <trkpt lat="39.5995110" lon="2.3609550">
        <ele>203.2</ele>
        <time>2020-01-02T09:59:18Z</time>
      </trkpt>
      <trkpt lat="39.5994750" lon="2.3610290">
        <ele>204.4</ele>
        <time>2020-01-02T09:59:25Z</time>
      </trkpt>
      <trkpt lat="39.5994720" lon="2.3610360">
        <ele>204.6</ele>
        <time>2020-01-02T09:59:27Z</time>
      </trkpt>
      <trkpt lat="39.5995220" lon="2.3610970">
        <ele>205.0</ele>
        <time>2020-01-02T09:59:40Z</time>
      </trkpt>
      <trkpt lat="39.5995500" lon="2.3611560">
        <ele>205.4</ele>
        <time>2020-01-02T09:59:45Z</time>
      </trkpt>
      <trkpt lat="39.5995930" lon="2.3612160">
        <ele>206.0</ele>
        <time>2020-01-02T09:59:50Z</time>
      </trkpt>
      <trkpt lat="39.5996480" lon="2.3612710">
        <ele>206.6</ele>
        <time>2020-01-02T09:59:56Z</time>
      </trkpt>
      <trkpt lat="39.5997040" lon="2.3613240">
        <ele>207.8</ele>
        <time>2020-01-02T10:00:02Z</time>
      </trkpt>
      <trkpt lat="39.5998040" lon="2.3614000">
        <ele>208.8</ele>
        <time>2020-01-02T10:00:12Z</time>
      </trkpt>
      <trkpt lat="39.5998730" lon="2.3614380">
        <ele>210.0</ele>
        <time>2020-01-02T10:00:19Z</time>
      </trkpt>
      <trkpt lat="39.5999250" lon="2.3614800">
        <ele>211.2</ele>
        <time>2020-01-02T10:00:25Z</time>
      </trkpt>
      <trkpt lat="39.5999660" lon="2.3615060">
        <ele>212.4</ele>
        <time>2020-01-02T10:00:30Z</time>
      </trkpt>
      <trkpt lat="39.6000090" lon="2.3615420">
        <ele>213.4</ele>
        <time>2020-01-02T10:00:35Z</time>
      </trkpt>
      <trkpt lat="39.6000330" lon="2.3615720">
        <ele>214.4</ele>
        <time>2020-01-02T10:00:39Z</time>
      </trkpt>
      <trkpt lat="39.6000580" lon="2.3616140">
        <ele>215.4</ele>
        <time>2020-01-02T10:00:43Z</time>
      </trkpt>
      <trkpt lat="39.6000600" lon="2.3616260">
        <ele>215.8</ele>
        <time>2020-01-02T10:00:44Z</time>
      </trkpt>
      <trkpt lat="39.6000530" lon="2.3616570">
        <ele>216.4</ele>
        <time>2020-01-02T10:00:47Z</time>
      </trkpt>
      <trkpt lat="39.6000430" lon="2.3616700">
        <ele>216.4</ele>
        <time>2020-01-02T10:00:49Z</time>
      </trkpt>
      <trkpt lat="39.5999790" lon="2.3616730">
        <ele>217.6</ele>
        <time>2020-01-02T10:00:55Z</time>
      </trkpt>
      <trkpt lat="39.5998860" lon="2.3616520">
        <ele>218.6</ele>
        <time>2020-01-02T10:01:04Z</time>
      </trkpt>
      <trkpt lat="39.5998170" lon="2.3616480">
        <ele>220.0</ele>
        <time>2020-01-02T10:01:11Z</time>
      </trkpt>
      <trkpt lat="39.5997700" lon="2.3616490">
        <ele>221.0</ele>
        <time>2020-01-02T10:01:16Z</time>
      </trkpt>
      <trkpt lat="39.5997160" lon="2.3616530">
        <ele>222.0</ele>
        <time>2020-01-02T10:01:21Z</time>
      </trkpt>
      <trkpt lat="39.5996490" lon="2.3616500">
        <ele>223.2</ele>
        <time>2020-01-02T10:01:28Z</time>
      </trkpt>
      <trkpt lat="39.5995720" lon="2.3616750">
        <ele>224.4</ele>
        <time>2020-01-02T10:01:36Z</time>
      </trkpt>
      <trkpt lat="39.5995160" lon="2.3617190">
        <ele>225.4</ele>
        <time>2020-01-02T10:01:43Z</time>
      </trkpt>
      <trkpt lat="39.5995010" lon="2.3617440">
        <ele>226.2</ele>
        <time>2020-01-02T10:01:46Z</time>
      </trkpt>
      <trkpt lat="39.5994840" lon="2.3617660">
        <ele>226.6</ele>
        <time>2020-01-02T10:01:49Z</time>
      </trkpt>
      <trkpt lat="39.5994770" lon="2.3617720">
        <ele>226.8</ele>
        <time>2020-01-02T10:01:50Z</time>
      </trkpt>
      <trkpt lat="39.5994520" lon="2.3618020">
        <ele>227.4</ele>
        <time>2020-01-02T10:01:54Z</time>
      </trkpt>
      <trkpt lat="39.5994360" lon="2.3618180">
        <ele>227.8</ele>
        <time>2020-01-02T10:01:56Z</time>
      </trkpt>
      <trkpt lat="39.5993970" lon="2.3618610">
        <ele>228.8</ele>
        <time>2020-01-02T10:02:02Z</time>
      </trkpt>
      <trkpt lat="39.5993590" lon="2.3619000">
        <ele>230.0</ele>
        <time>2020-01-02T10:02:08Z</time>
      </trkpt>
      <trkpt lat="39.5993240" lon="2.3619320">
        <ele>231.0</ele>
        <time>2020-01-02T10:02:14Z</time>
      </trkpt>
      <trkpt lat="39.5992900" lon="2.3619800">
        <ele>232.2</ele>
        <time>2020-01-02T10:02:21Z</time>
      </trkpt>
      <trkpt lat="39.5992800" lon="2.3620280">
        <ele>233.2</ele>
        <time>2020-01-02T10:02:27Z</time>
      </trkpt>
      <trkpt lat="39.5992850" lon="2.3620750">
        <ele>234.2</ele>
        <time>2020-01-02T10:02:33Z</time>
      </trkpt>
      <trkpt lat="39.5992860" lon="2.3621340">
        <ele>235.4</ele>
        <time>2020-01-02T10:02:39Z</time>
      </trkpt>
      <trkpt lat="39.5992870" lon="2.3621820">
        <ele>236.6</ele>
        <time>2020-01-02T10:02:45Z</time>
      </trkpt>
      <trkpt lat="39.5992880" lon="2.3622200">
        <ele>237.8</ele>
        <time>2020-01-02T10:02:50Z</time>
      </trkpt>
      <trkpt lat="39.5992950" lon="2.3622670">
        <ele>238.8</ele>
        <time>2020-01-02T10:02:55Z</time>
      </trkpt>
      <trkpt lat="39.5993050" lon="2.3623070">
        <ele>239.8</ele>
        <time>2020-01-02T10:03:00Z</time>
      </trkpt>
      <trkpt lat="39.5993190" lon="2.3623510">
        <ele>241.0</ele>
        <time>2020-01-02T10:03:05Z</time>
      </trkpt>
      <trkpt lat="39.5993440" lon="2.3624010">
        <ele>242.2</ele>
        <time>2020-01-02T10:03:11Z</time>
      </trkpt>
      <trkpt lat="39.5993780" lon="2.3624460">
        <ele>243.4</ele>
        <time>2020-01-02T10:03:17Z</time>
      </trkpt>
      <trkpt lat="39.5994270" lon="2.3625200">
        <ele>244.4</ele>
        <time>2020-01-02T10:03:25Z</time>
      </trkpt>
      <trkpt lat="39.5994520" lon="2.3625580">
        <ele>245.4</ele>
        <time>2020-01-02T10:03:30Z</time>
      </trkpt>
      <trkpt lat="39.5994790" lon="2.3625980">
        <ele>246.6</ele>
        <time>2020-01-02T10:03:36Z</time>
      </trkpt>
      <trkpt lat="39.5995050" lon="2.3626340">
        <ele>247.8</ele>
        <time>2020-01-02T10:03:41Z</time>
      </trkpt>
      <trkpt lat="39.5995300" lon="2.3626670">
        <ele>248.8</ele>
        <time>2020-01-02T10:03:46Z</time>
      </trkpt>
      <trkpt lat="39.5995790" lon="2.3627300">
        <ele>250.0</ele>
        <time>2020-01-02T10:03:53Z</time>
      </trkpt>
      <trkpt lat="39.5996130" lon="2.3627750">
        <ele>251.0</ele>
        <time>2020-01-02T10:03:58Z</time>
      </trkpt>
      <trkpt lat="39.5996550" lon="2.3628320">
        <ele>252.2</ele>
        <time>2020-01-02T10:04:05Z</time>
      </trkpt>
      <trkpt lat="39.5996970" lon="2.3628770">
        <ele>253.2</ele>
        <time>2020-01-02T10:04:11Z</time>
      </trkpt>
      <trkpt lat="39.5997030" lon="2.3628870">
        <ele>253.2</ele>
        <time>2020-01-02T10:04:12Z</time>
      </trkpt>
      <trkpt lat="39.5997670" lon="2.3629610">
        <ele>254.4</ele>
        <time>2020-01-02T10:04:20Z</time>
      </trkpt>
      <trkpt lat="39.5998180" lon="2.3630280">
        <ele>255.6</ele>
        <time>2020-01-02T10:04:27Z</time>
      </trkpt>
      <trkpt lat="39.5998310" lon="2.3630490">
        <ele>256.0</ele>
        <time>2020-01-02T10:04:29Z</time>
      </trkpt>
      <trkpt lat="39.5998400" lon="2.3630750">
        <ele>256.4</ele>
        <time>2020-01-02T10:04:31Z</time>
      </trkpt>
      <trkpt lat="39.5998500" lon="2.3630950">
        <ele>256.6</ele>
        <time>2020-01-02T10:04:33Z</time>
      </trkpt>
      <trkpt lat="39.5999180" lon="2.3632260">
        <ele>257.8</ele>
        <time>2020-01-02T10:04:44Z</time>
      </trkpt>
      <trkpt lat="39.5999570" lon="2.3633030">
        <ele>258.0</ele>
        <time>2020-01-02T10:04:50Z</time>
      </trkpt>
      <trkpt lat="39.6000030" lon="2.3633960">
        <ele>258.8</ele>
        <time>2020-01-02T10:04:58Z</time>
      </trkpt>
      <trkpt lat="39.6000260" lon="2.3634600">
        <ele>260.0</ele>
        <time>2020-01-02T10:05:04Z</time>
      </trkpt>
      <trkpt lat="39.6000540" lon="2.3635030">
        <ele>261.2</ele>
        <time>2020-01-02T10:05:09Z</time>
      </trkpt>
      <trkpt lat="39.6000830" lon="2.3635430">
        <ele>262.2</ele>
        <time>2020-01-02T10:05:14Z</time>
      </trkpt>
      <trkpt lat="39.6000920" lon="2.3635570">
        <ele>262.6</ele>
        <time>2020-01-02T10:05:16Z</time>
      </trkpt>
      <trkpt lat="39.6001100" lon="2.3635830">
        <ele>263.2</ele>
        <time>2020-01-02T10:05:19Z</time>
      </trkpt>
      <trkpt lat="39.6001150" lon="2.3635900">
        <ele>263.6</ele>
        <time>2020-01-02T10:05:20Z</time>
      </trkpt>
      <trkpt lat="39.6001490" lon="2.3636280">
        <ele>264.6</ele>
        <time>2020-01-02T10:05:25Z</time>
      </trkpt>
      <trkpt lat="39.6001530" lon="2.3636360">
        <ele>264.6</ele>
        <time>2020-01-02T10:05:26Z</time>
      </trkpt>
      <trkpt lat="39.6001760" lon="2.3636540">
        <ele>265.2</ele>
        <time>2020-01-02T10:05:29Z</time>
      </trkpt>
      <trkpt lat="39.6001930" lon="2.3636710">
        <ele>265.4</ele>
        <time>2020-01-02T10:05:31Z</time>
      </trkpt>
      <trkpt lat="39.6002010" lon="2.3636810">
        <ele>265.6</ele>
        <time>2020-01-02T10:05:32Z</time>
      </trkpt>
      <trkpt lat="39.6002390" lon="2.3637270">
        <ele>266.6</ele>
        <time>2020-01-02T10:05:37Z</time>
      </trkpt>
      <trkpt lat="39.6003110" lon="2.3638250">
        <ele>267.8</ele>
        <time>2020-01-02T10:05:47Z</time>
      </trkpt>
      <trkpt lat="39.6003620" lon="2.3639230">
        <ele>268.8</ele>
        <time>2020-01-02T10:05:55Z</time>
      </trkpt>
      <trkpt lat="39.6003720" lon="2.3639560">
        <ele>269.2</ele>
        <time>2020-01-02T10:05:58Z</time>
      </trkpt>
      <trkpt lat="39.6003820" lon="2.3639730">
        <ele>269.6</ele>
        <time>2020-01-02T10:06:00Z</time>
      </trkpt>
      <trkpt lat="39.6003950" lon="2.3639780">
        <ele>269.6</ele>
        <time>2020-01-02T10:06:02Z</time>
      </trkpt>
      <trkpt lat="39.6004060" lon="2.3639830">
        <ele>270.0</ele>
        <time>2020-01-02T10:06:07Z</time>
      </trkpt>
      <trkpt lat="39.6004120" lon="2.3640100">
        <ele>269.0</ele>
        <time>2020-01-02T10:06:21Z</time>
      </trkpt>
      <trkpt lat="39.6004840" lon="2.3641250">
        <ele>269.2</ele>
        <time>2020-01-02T10:06:33Z</time>
      </trkpt>
      <trkpt lat="39.6005850" lon="2.3642300">
        <ele>269.8</ele>
        <time>2020-01-02T10:06:46Z</time>
      </trkpt>
      <trkpt lat="39.6005920" lon="2.3642360">
        <ele>269.8</ele>
        <time>2020-01-02T10:06:48Z</time>
      </trkpt>
      <trkpt lat="39.6006640" lon="2.3643400">
        <ele>270.0</ele>
        <time>2020-01-02T10:07:04Z</time>
      </trkpt>
      <trkpt lat="39.6006760" lon="2.3643540">
        <ele>270.2</ele>
        <time>2020-01-02T10:07:06Z</time>
      </trkpt>
      <trkpt lat="39.6007080" lon="2.3644010">
        <ele>271.0</ele>
        <time>2020-01-02T10:07:11Z</time>
      </trkpt>
      <trkpt lat="39.6007550" lon="2.3644650">
        <ele>272.0</ele>
        <time>2020-01-02T10:07:18Z</time>
      </trkpt>
      <trkpt lat="39.6007700" lon="2.3644950">
        <ele>272.6</ele>
        <time>2020-01-02T10:07:21Z</time>
      </trkpt>
      <trkpt lat="39.6007770" lon="2.3645270">
        <ele>273.0</ele>
        <time>2020-01-02T10:07:24Z</time>
      </trkpt>
      <trkpt lat="39.6007800" lon="2.3645360">
        <ele>273.2</ele>
        <time>2020-01-02T10:07:25Z</time>
      </trkpt>
      <trkpt lat="39.6007840" lon="2.3645460">
        <ele>273.2</ele>
        <time>2020-01-02T10:07:26Z</time>
      </trkpt>
      <trkpt lat="39.6008030" lon="2.3646010">
        <ele>274.2</ele>
        <time>2020-01-02T10:07:31Z</time>
      </trkpt>
      <trkpt lat="39.6008160" lon="2.3646270">
        <ele>274.8</ele>
        <time>2020-01-02T10:07:34Z</time>
      </trkpt>
      <trkpt lat="39.6008300" lon="2.3646420">
        <ele>275.4</ele>
        <time>2020-01-02T10:07:36Z</time>
      </trkpt>
      <trkpt lat="39.6008800" lon="2.3647320">
        <ele>276.4</ele>
        <time>2020-01-02T10:07:44Z</time>
      </trkpt>
      <trkpt lat="39.6009030" lon="2.3647890">
        <ele>276.8</ele>
        <time>2020-01-02T10:07:49Z</time>
      </trkpt>
      <trkpt lat="39.6009320" lon="2.3648300">
        <ele>277.4</ele>
        <time>2020-01-02T10:07:53Z</time>
      </trkpt>
      <trkpt lat="39.6009800" lon="2.3649250">
        <ele>278.4</ele>
        <time>2020-01-02T10:08:01Z</time>
      </trkpt>
      <trkpt lat="39.6009830" lon="2.3649390">
        <ele>278.6</ele>
        <time>2020-01-02T10:08:02Z</time>
      </trkpt>
      <trkpt lat="39.6010230" lon="2.3650690">
        <ele>279.6</ele>
        <time>2020-01-02T10:08:12Z</time>
      </trkpt>
      <trkpt lat="39.6010460" lon="2.3651610">
        <ele>280.0</ele>
        <time>2020-01-02T10:08:19Z</time>
      </trkpt>
      <trkpt lat="39.6010890" lon="2.3652440">
        <ele>280.2</ele>
        <time>2020-01-02T10:08:26Z</time>
      </trkpt>
      <trkpt lat="39.6011270" lon="2.3653030">
        <ele>280.4</ele>
        <time>2020-01-02T10:08:32Z</time>
      </trkpt>
      <trkpt lat="39.6011430" lon="2.3653190">
        <ele>280.6</ele>
        <time>2020-01-02T10:08:34Z</time>
      </trkpt>
      <trkpt lat="39.6011700" lon="2.3653490">
        <ele>280.8</ele>
        <time>2020-01-02T10:08:37Z</time>
      </trkpt>
      <trkpt lat="39.6011950" lon="2.3653890">
        <ele>281.2</ele>
        <time>2020-01-02T10:08:41Z</time>
      </trkpt>
      <trkpt lat="39.6012100" lon="2.3654100">
        <ele>281.6</ele>
        <time>2020-01-02T10:08:43Z</time>
      </trkpt>
      <trkpt lat="39.6012290" lon="2.3654520">
        <ele>282.2</ele>
        <time>2020-01-02T10:08:47Z</time>
      </trkpt>
      <trkpt lat="39.6012450" lon="2.3654840">
        <ele>282.6</ele>
        <time>2020-01-02T10:08:50Z</time>
      </trkpt>
      <trkpt lat="39.6012640" lon="2.3655370">
        <ele>283.8</ele>
        <time>2020-01-02T10:08:55Z</time>
      </trkpt>
      <trkpt lat="39.6012840" lon="2.3656020">
        <ele>284.8</ele>
        <time>2020-01-02T10:09:01Z</time>
      </trkpt>
      <trkpt lat="39.6015570" lon="2.3660430">
        <ele>284.0</ele>
        <time>2020-01-02T10:09:40Z</time>
      </trkpt>
      <trkpt lat="39.6015740" lon="2.3660620">
        <ele>283.8</ele>
        <time>2020-01-02T10:09:42Z</time>
      </trkpt>
      <trkpt lat="39.6017480" lon="2.3663600">
        <ele>284.6</ele>
        <time>2020-01-02T10:10:08Z</time>
      </trkpt>
      <trkpt lat="39.6017620" lon="2.3663790">
        <ele>284.8</ele>
        <time>2020-01-02T10:10:10Z</time>
      </trkpt>
      <trkpt lat="39.6019340" lon="2.3666740">
        <ele>285.2</ele>
        <time>2020-01-02T10:10:34Z</time>
      </trkpt>
      <trkpt lat="39.6019520" lon="2.3668150">
        <ele>286.0</ele>
        <time>2020-01-02T10:10:44Z</time>
      </trkpt>
      <trkpt lat="39.6019960" lon="2.3669480">
        <ele>287.0</ele>
        <time>2020-01-02T10:10:55Z</time>
      </trkpt>
      <trkpt lat="39.6020720" lon="2.3671160">
        <ele>287.6</ele>
        <time>2020-01-02T10:11:09Z</time>
      </trkpt>
      <trkpt lat="39.6020990" lon="2.3671590">
        <ele>288.2</ele>
        <time>2020-01-02T10:11:13Z</time>
      </trkpt>
      <trkpt lat="39.6021320" lon="2.3672420">
        <ele>289.2</ele>
        <time>2020-01-02T10:11:21Z</time>
      </trkpt>
      <trkpt lat="39.6021630" lon="2.3672960">
        <ele>290.2</ele>
        <time>2020-01-02T10:11:27Z</time>
      </trkpt>
      <trkpt lat="39.6021760" lon="2.3673260">
        <ele>290.8</ele>
        <time>2020-01-02T10:11:30Z</time>
      </trkpt>
      <trkpt lat="39.6021920" lon="2.3673510">
        <ele>291.4</ele>
        <time>2020-01-02T10:11:33Z</time>
      </trkpt>
      <trkpt lat="39.6022190" lon="2.3674130">
        <ele>292.6</ele>
        <time>2020-01-02T10:11:39Z</time>
      </trkpt>
      <trkpt lat="39.6024160" lon="2.3677220">
        <ele>293.6</ele>
        <time>2020-01-02T10:12:07Z</time>
      </trkpt>
      <trkpt lat="39.6024210" lon="2.3677310">
        <ele>293.8</ele>
        <time>2020-01-02T10:12:08Z</time>
      </trkpt>
      <trkpt lat="39.6024540" lon="2.3677750">
        <ele>294.6</ele>
        <time>2020-01-02T10:12:13Z</time>
      </trkpt>
      <trkpt lat="39.6024890" lon="2.3678230">
        <ele>295.4</ele>
        <time>2020-01-02T10:12:18Z</time>
      </trkpt>
      <trkpt lat="39.6024980" lon="2.3678320">
        <ele>295.6</ele>
        <time>2020-01-02T10:12:19Z</time>
      </trkpt>
      <trkpt lat="39.6025390" lon="2.3678890">
        <ele>296.6</ele>
        <time>2020-01-02T10:12:25Z</time>
      </trkpt>
      <trkpt lat="39.6027740" lon="2.3681710">
        <ele>295.4</ele>
        <time>2020-01-02T10:12:51Z</time>
      </trkpt>
      <trkpt lat="39.6029140" lon="2.3684090">
        <ele>296.4</ele>
        <time>2020-01-02T10:13:10Z</time>
      </trkpt>
      <trkpt lat="39.6029510" lon="2.3684680">
        <ele>297.4</ele>
        <time>2020-01-02T10:13:16Z</time>
      </trkpt>
      <trkpt lat="39.6029860" lon="2.3685050">
        <ele>298.6</ele>
        <time>2020-01-02T10:13:21Z</time>
      </trkpt>
      <trkpt lat="39.6030310" lon="2.3685280">
        <ele>299.6</ele>
        <time>2020-01-02T10:13:26Z</time>
      </trkpt>
      <trkpt lat="39.6034660" lon="2.3687040">
        <ele>299.4</ele>
        <time>2020-01-02T10:14:04Z</time>
      </trkpt>
      <trkpt lat="39.6035070" lon="2.3687060">
        <ele>298.6</ele>
        <time>2020-01-02T10:14:09Z</time>
      </trkpt>
      <trkpt lat="39.6035070" lon="2.3687060">
        <ele>298.6</ele>
        <time>2020-01-02T10:14:10Z</time>
      </trkpt>
      <trkpt lat="39.6036180" lon="2.3687160">
        <ele>297.8</ele>
        <time>2020-01-02T10:14:23Z</time>
      </trkpt>
      <trkpt lat="39.6036420" lon="2.3687040">
        <ele>298.0</ele>
        <time>2020-01-02T10:14:25Z</time>
      </trkpt>
      <trkpt lat="39.6036660" lon="2.3687000">
        <ele>298.2</ele>
        <time>2020-01-02T10:14:27Z</time>
      </trkpt>
      <trkpt lat="39.6037270" lon="2.3687060">
        <ele>297.2</ele>
        <time>2020-01-02T10:14:32Z</time>
      </trkpt>
      <trkpt lat="39.6038200" lon="2.3687030">
        <ele>296.6</ele>
        <time>2020-01-02T10:14:39Z</time>
      </trkpt>
      <trkpt lat="39.6040530" lon="2.3688010">
        <ele>298.4</ele>
        <time>2020-01-02T10:15:03Z</time>
      </trkpt>
      <trkpt lat="39.6041430" lon="2.3688790">
        <ele>299.0</ele>
        <time>2020-01-02T10:15:15Z</time>
      </trkpt>
      <trkpt lat="39.6041680" lon="2.3688890">
        <ele>299.0</ele>
        <time>2020-01-02T10:15:18Z</time>
      </trkpt>
      <trkpt lat="39.6042470" lon="2.3689390">
        <ele>299.4</ele>
        <time>2020-01-02T10:15:26Z</time>
      </trkpt>
      <trkpt lat="39.6042850" lon="2.3689880">
        <ele>300.4</ele>
        <time>2020-01-02T10:15:32Z</time>
      </trkpt>
      <trkpt lat="39.6043040" lon="2.3689930">
        <ele>300.6</ele>
        <time>2020-01-02T10:15:34Z</time>
      </trkpt>
      <trkpt lat="39.6044000" lon="2.3690430">
        <ele>301.6</ele>
        <time>2020-01-02T10:15:43Z</time>
      </trkpt>
      <trkpt lat="39.6044170" lon="2.3690410">
        <ele>301.4</ele>
        <time>2020-01-02T10:15:45Z</time>
      </trkpt>
      <trkpt lat="39.6044340" lon="2.3690290">
        <ele>301.4</ele>
        <time>2020-01-02T10:15:47Z</time>
      </trkpt>
      <trkpt lat="39.6044530" lon="2.3690150">
        <ele>301.4</ele>
        <time>2020-01-02T10:15:49Z</time>
      </trkpt>
      <trkpt lat="39.6044950" lon="2.3689830">
        <ele>302.0</ele>
        <time>2020-01-02T10:15:53Z</time>
      </trkpt>
      <trkpt lat="39.6045250" lon="2.3689710">
        <ele>302.6</ele>
        <time>2020-01-02T10:15:56Z</time>
      </trkpt>
      <trkpt lat="39.6045450" lon="2.3689410">
        <ele>302.6</ele>
        <time>2020-01-02T10:15:59Z</time>
      </trkpt>
      <trkpt lat="39.6045760" lon="2.3689170">
        <ele>303.8</ele>
        <time>2020-01-02T10:16:04Z</time>
      </trkpt>
      <trkpt lat="39.6045920" lon="2.3688840">
        <ele>304.8</ele>
        <time>2020-01-02T10:16:09Z</time>
      </trkpt>
      <trkpt lat="39.6046420" lon="2.3688240">
        <ele>305.4</ele>
        <time>2020-01-02T10:16:16Z</time>
      </trkpt>
      <trkpt lat="39.6046480" lon="2.3688230">
        <ele>305.8</ele>
        <time>2020-01-02T10:16:17Z</time>
      </trkpt>
      <trkpt lat="39.6046550" lon="2.3688210">
        <ele>306.0</ele>
        <time>2020-01-02T10:16:18Z</time>
      </trkpt>
      <trkpt lat="39.6046740" lon="2.3688090">
        <ele>306.8</ele>
        <time>2020-01-02T10:16:22Z</time>
      </trkpt>
      <trkpt lat="39.6047060" lon="2.3687500">
        <ele>307.8</ele>
        <time>2020-01-02T10:16:30Z</time>
      </trkpt>
      <trkpt lat="39.6047360" lon="2.3687100">
        <ele>309.2</ele>
        <time>2020-01-02T10:16:36Z</time>
      </trkpt>
      <trkpt lat="39.6047600" lon="2.3686890">
        <ele>310.2</ele>
        <time>2020-01-02T10:16:40Z</time>
      </trkpt>
      <trkpt lat="39.6047960" lon="2.3686300">
        <ele>311.2</ele>
        <time>2020-01-02T10:16:46Z</time>
      </trkpt>
      <trkpt lat="39.6048320" lon="2.3686010">
        <ele>312.2</ele>
        <time>2020-01-02T10:16:51Z</time>
      </trkpt>
      <trkpt lat="39.6048450" lon="2.3685970">
        <ele>312.6</ele>
        <time>2020-01-02T10:16:53Z</time>
      </trkpt>
      <trkpt lat="39.6048560" lon="2.3686010">
        <ele>313.4</ele>
        <time>2020-01-02T10:16:55Z</time>
      </trkpt>
      <trkpt lat="39.6048850" lon="2.3685980">
        <ele>314.6</ele>
        <time>2020-01-02T10:17:00Z</time>
      </trkpt>
      <trkpt lat="39.6049270" lon="2.3685880">
        <ele>315.6</ele>
        <time>2020-01-02T10:17:06Z</time>
      </trkpt>
      <trkpt lat="39.6049630" lon="2.3686050">
        <ele>316.8</ele>
        <time>2020-01-02T10:17:12Z</time>
      </trkpt>
      <trkpt lat="39.6049780" lon="2.3686280">
        <ele>317.8</ele>
        <time>2020-01-02T10:17:16Z</time>
      </trkpt>
      <trkpt lat="39.6049930" lon="2.3686640">
        <ele>319.0</ele>
        <time>2020-01-02T10:17:21Z</time>
      </trkpt>
      <trkpt lat="39.6050130" lon="2.3687050">
        <ele>320.2</ele>
        <time>2020-01-02T10:17:27Z</time>
      </trkpt>
      <trkpt lat="39.6050420" lon="2.3687520">
        <ele>321.2</ele>
        <time>2020-01-02T10:17:33Z</time>
      </trkpt>
      <trkpt lat="39.6050510" lon="2.3687620">
        <ele>321.6</ele>
        <time>2020-01-02T10:17:35Z</time>
      </trkpt>
      <trkpt lat="39.6050630" lon="2.3687930">
        <ele>322.2</ele>
        <time>2020-01-02T10:17:39Z</time>
      </trkpt>
      <trkpt lat="39.6050700" lon="2.3688340">
        <ele>323.6</ele>
        <time>2020-01-02T10:17:44Z</time>
      </trkpt>
      <trkpt lat="39.6050770" lon="2.3688640">
        <ele>324.4</ele>
        <time>2020-01-02T10:17:48Z</time>
      </trkpt>
      <trkpt lat="39.6050720" lon="2.3689020">
        <ele>325.8</ele>
        <time>2020-01-02T10:17:52Z</time>
      </trkpt>
      <trkpt lat="39.6050670" lon="2.3689280">
        <ele>326.8</ele>
        <time>2020-01-02T10:17:55Z</time>
      </trkpt>
      <trkpt lat="39.6050670" lon="2.3689600">
        <ele>328.2</ele>
        <time>2020-01-02T10:17:59Z</time>
      </trkpt>
      <trkpt lat="39.6050800" lon="2.3689910">
        <ele>329.0</ele>
        <time>2020-01-02T10:18:03Z</time>
      </trkpt>
      <trkpt lat="39.6051060" lon="2.3690350">
        <ele>330.2</ele>
        <time>2020-01-02T10:18:08Z</time>
      </trkpt>
      <trkpt lat="39.6051160" lon="2.3690650">
        <ele>331.4</ele>
        <time>2020-01-02T10:18:12Z</time>
      </trkpt>
      <trkpt lat="39.6051520" lon="2.3691080">
        <ele>332.4</ele>
        <time>2020-01-02T10:18:18Z</time>
      </trkpt>
      <trkpt lat="39.6051820" lon="2.3691370">
        <ele>333.0</ele>
        <time>2020-01-02T10:18:22Z</time>
      </trkpt>
      <trkpt lat="39.6052050" lon="2.3691790">
        <ele>333.4</ele>
        <time>2020-01-02T10:18:26Z</time>
      </trkpt>
      <trkpt lat="39.6053010" lon="2.3692310">
        <ele>334.6</ele>
        <time>2020-01-02T10:18:37Z</time>
      </trkpt>
      <trkpt lat="39.6053570" lon="2.3692350">
        <ele>335.6</ele>
        <time>2020-01-02T10:18:43Z</time>
      </trkpt>
      <trkpt lat="39.6054250" lon="2.3692380">
        <ele>336.6</ele>
        <time>2020-01-02T10:18:50Z</time>
      </trkpt>
      <trkpt lat="39.6054840" lon="2.3692640">
        <ele>337.4</ele>
        <time>2020-01-02T10:18:57Z</time>
      </trkpt>
      <trkpt lat="39.6055440" lon="2.3692380">
        <ele>337.8</ele>
        <time>2020-01-02T10:19:04Z</time>
      </trkpt>
      <trkpt lat="39.6055820" lon="2.3692340">
        <ele>338.8</ele>
        <time>2020-01-02T10:19:08Z</time>
      </trkpt>
      <trkpt lat="39.6056350" lon="2.3692700">
        <ele>340.0</ele>
        <time>2020-01-02T10:19:16Z</time>
      </trkpt>
      <trkpt lat="39.6056540" lon="2.3692840">
        <ele>340.8</ele>
        <time>2020-01-02T10:19:19Z</time>
      </trkpt>
      <trkpt lat="39.6056650" lon="2.3692970">
        <ele>341.0</ele>
        <time>2020-01-02T10:19:21Z</time>
      </trkpt>
      <trkpt lat="39.6056840" lon="2.3693630">
        <ele>342.2</ele>
        <time>2020-01-02T10:19:27Z</time>
      </trkpt>
      <trkpt lat="39.6056920" lon="2.3693830">
        <ele>342.4</ele>
        <time>2020-01-02T10:19:29Z</time>
      </trkpt>
      <trkpt lat="39.6056980" lon="2.3694100">
        <ele>343.2</ele>
        <time>2020-01-02T10:19:32Z</time>
      </trkpt>
      <trkpt lat="39.6057020" lon="2.3694140">
        <ele>343.4</ele>
        <time>2020-01-02T10:19:33Z</time>
      </trkpt>
      <trkpt lat="39.6057430" lon="2.3694860">
        <ele>344.6</ele>
        <time>2020-01-02T10:19:41Z</time>
      </trkpt>
      <trkpt lat="39.6058690" lon="2.3696350">
        <ele>345.6</ele>
        <time>2020-01-02T10:19:57Z</time>
      </trkpt>
      <trkpt lat="39.6058970" lon="2.3696990">
        <ele>346.6</ele>
        <time>2020-01-02T10:20:03Z</time>
      </trkpt>
      <trkpt lat="39.6059310" lon="2.3697740">
        <ele>347.6</ele>
        <time>2020-01-02T10:20:10Z</time>
      </trkpt>
      <trkpt lat="39.6059330" lon="2.3697810">
        <ele>347.8</ele>
        <time>2020-01-02T10:20:11Z</time>
      </trkpt>
      <trkpt lat="39.6059470" lon="2.3698340">
        <ele>348.6</ele>
        <time>2020-01-02T10:20:16Z</time>
      </trkpt>
      <trkpt lat="39.6059510" lon="2.3698470">
        <ele>348.8</ele>
        <time>2020-01-02T10:20:17Z</time>
      </trkpt>
      <trkpt lat="39.6059570" lon="2.3698580">
        <ele>349.0</ele>
        <time>2020-01-02T10:20:18Z</time>
      </trkpt>
      <trkpt lat="39.6060020" lon="2.3699110">
        <ele>349.8</ele>
        <time>2020-01-02T10:20:24Z</time>
      </trkpt>
      <trkpt lat="39.6060640" lon="2.3699830">
        <ele>350.8</ele>
        <time>2020-01-02T10:20:32Z</time>
      </trkpt>
      <trkpt lat="39.6061300" lon="2.3701220">
        <ele>351.4</ele>
        <time>2020-01-02T10:20:45Z</time>
      </trkpt>
      <trkpt lat="39.6061550" lon="2.3701500">
        <ele>351.8</ele>
        <time>2020-01-02T10:20:48Z</time>
      </trkpt>
      <trkpt lat="39.6061620" lon="2.3701580">
        <ele>352.0</ele>
        <time>2020-01-02T10:20:49Z</time>
      </trkpt>
      <trkpt lat="39.6061980" lon="2.3702130">
        <ele>353.0</ele>
        <time>2020-01-02T10:20:55Z</time>
      </trkpt>
      <trkpt lat="39.6062200" lon="2.3702470">
        <ele>354.0</ele>
        <time>2020-01-02T10:21:00Z</time>
      </trkpt>
      <trkpt lat="39.6062320" lon="2.3702760">
        <ele>355.2</ele>
        <time>2020-01-02T10:21:05Z</time>
      </trkpt>
      <trkpt lat="39.6062670" lon="2.3702810">
        <ele>356.4</ele>
        <time>2020-01-02T10:21:09Z</time>
      </trkpt>
      <trkpt lat="39.6062980" lon="2.3703180">
        <ele>357.6</ele>
        <time>2020-01-02T10:21:14Z</time>
      </trkpt>
      <trkpt lat="39.6062870" lon="2.3703540">
        <ele>358.6</ele>
        <time>2020-01-02T10:21:18Z</time>
      </trkpt>
      <trkpt lat="39.6062870" lon="2.3703730">
        <ele>359.8</ele>
        <time>2020-01-02T10:21:22Z</time>
      </trkpt>
      <trkpt lat="39.6062980" lon="2.3703960">
        <ele>361.0</ele>
        <time>2020-01-02T10:21:27Z</time>
      </trkpt>
      <trkpt lat="39.6063050" lon="2.3704280">
        <ele>362.0</ele>
        <time>2020-01-02T10:21:31Z</time>
      </trkpt>
      <trkpt lat="39.6063140" lon="2.3704570">
        <ele>363.0</ele>
        <time>2020-01-02T10:21:35Z</time>
      </trkpt>
      <trkpt lat="39.6063320" lon="2.3704970">
        <ele>364.4</ele>
        <time>2020-01-02T10:21:40Z</time>
      </trkpt>
      <trkpt lat="39.6063730" lon="2.3705200">
        <ele>365.4</ele>
        <time>2020-01-02T10:21:45Z</time>
      </trkpt>
      <trkpt lat="39.6065760" lon="2.3706190">
        <ele>365.8</ele>
        <time>2020-01-02T10:22:24Z</time>
      </trkpt>
      <trkpt lat="39.6065840" lon="2.3706380">
        <ele>366.0</ele>
        <time>2020-01-02T10:22:26Z</time>
      </trkpt>
      <trkpt lat="39.6066030" lon="2.3706870">
        <ele>366.8</ele>
        <time>2020-01-02T10:22:33Z</time>
      </trkpt>
      <trkpt lat="39.6066150" lon="2.3707230">
        <ele>367.8</ele>
        <time>2020-01-02T10:22:39Z</time>
      </trkpt>
      <trkpt lat="39.6066130" lon="2.3707560">
        <ele>368.8</ele>
        <time>2020-01-02T10:22:45Z</time>
      </trkpt>
      <trkpt lat="39.6066320" lon="2.3707820">
        <ele>370.0</ele>
        <time>2020-01-02T10:22:51Z</time>
      </trkpt>
      <trkpt lat="39.6066960" lon="2.3708570">
        <ele>371.0</ele>
        <time>2020-01-02T10:23:00Z</time>
      </trkpt>
      <trkpt lat="39.6067170" lon="2.3709150">
        <ele>372.0</ele>
        <time>2020-01-02T10:23:06Z</time>
      </trkpt>
      <trkpt lat="39.6067190" lon="2.3709230">
        <ele>372.2</ele>
        <time>2020-01-02T10:23:07Z</time>
      </trkpt>
      <trkpt lat="39.6067280" lon="2.3709610">
        <ele>373.2</ele>
        <time>2020-01-02T10:23:12Z</time>
      </trkpt>
      <trkpt lat="39.6067540" lon="2.3710090">
        <ele>374.2</ele>
        <time>2020-01-02T10:23:18Z</time>
      </trkpt>
      <trkpt lat="39.6067530" lon="2.3710350">
        <ele>375.6</ele>
        <time>2020-01-02T10:23:22Z</time>
      </trkpt>
      <trkpt lat="39.6067550" lon="2.3710780">
        <ele>376.6</ele>
        <time>2020-01-02T10:23:27Z</time>
      </trkpt>
      <trkpt lat="39.6067570" lon="2.3711140">
        <ele>377.8</ele>
        <time>2020-01-02T10:23:31Z</time>
      </trkpt>
      <trkpt lat="39.6067690" lon="2.3711450">
        <ele>378.8</ele>
        <time>2020-01-02T10:23:35Z</time>
      </trkpt>
      <trkpt lat="39.6068100" lon="2.3711620">
        <ele>379.8</ele>
        <time>2020-01-02T10:23:40Z</time>
      </trkpt>
      <trkpt lat="39.6068580" lon="2.3711870">
        <ele>381.2</ele>
        <time>2020-01-02T10:23:46Z</time>
      </trkpt>
      <trkpt lat="39.6068980" lon="2.3711930">
        <ele>382.2</ele>
        <time>2020-01-02T10:23:51Z</time>
      </trkpt>
      <trkpt lat="39.6069330" lon="2.3712040">
        <ele>383.4</ele>
        <time>2020-01-02T10:23:55Z</time>
      </trkpt>
      <trkpt lat="39.6071040" lon="2.3711730">
        <ele>384.4</ele>
        <time>2020-01-02T10:24:13Z</time>
      </trkpt>
      <trkpt lat="39.6071630" lon="2.3711640">
        <ele>385.6</ele>
        <time>2020-01-02T10:24:19Z</time>
      </trkpt>
      <trkpt lat="39.6072100" lon="2.3711720">
        <ele>386.4</ele>
        <time>2020-01-02T10:24:25Z</time>
      </trkpt>
      <trkpt lat="39.6072260" lon="2.3711580">
        <ele>386.6</ele>
        <time>2020-01-02T10:24:27Z</time>
      </trkpt>
      <trkpt lat="39.6073000" lon="2.3711330">
        <ele>387.8</ele>
        <time>2020-01-02T10:24:34Z</time>
      </trkpt>
      <trkpt lat="39.6073480" lon="2.3711170">
        <ele>387.4</ele>
        <time>2020-01-02T10:24:39Z</time>
      </trkpt>
      <trkpt lat="39.6074210" lon="2.3710580">
        <ele>387.2</ele>
        <time>2020-01-02T10:24:47Z</time>
      </trkpt>
      <trkpt lat="39.6074450" lon="2.3710390">
        <ele>386.8</ele>
        <time>2020-01-02T10:24:50Z</time>
      </trkpt>
      <trkpt lat="39.6075310" lon="2.3709590">
        <ele>385.6</ele>
        <time>2020-01-02T10:24:59Z</time>
      </trkpt>
      <trkpt lat="39.6076060" lon="2.3709290">
        <ele>385.4</ele>
        <time>2020-01-02T10:25:06Z</time>
      </trkpt>
      <trkpt lat="39.6076350" lon="2.3709120">
        <ele>385.8</ele>
        <time>2020-01-02T10:25:09Z</time>
      </trkpt>
      <trkpt lat="39.6076910" lon="2.3708600">
        <ele>384.4</ele>
        <time>2020-01-02T10:25:15Z</time>
      </trkpt>
      <trkpt lat="39.6077300" lon="2.3708450">
        <ele>383.8</ele>
        <time>2020-01-02T10:25:19Z</time>
      </trkpt>
      <trkpt lat="39.6077450" lon="2.3708250">
        <ele>383.6</ele>
        <time>2020-01-02T10:25:21Z</time>
      </trkpt>
      <trkpt lat="39.6077730" lon="2.3708140">
        <ele>383.4</ele>
        <time>2020-01-02T10:25:24Z</time>
      </trkpt>
      <trkpt lat="39.6078090" lon="2.3707870">
        <ele>382.8</ele>
        <time>2020-01-02T10:25:28Z</time>
      </trkpt>
      <trkpt lat="39.6078250" lon="2.3707660">
        <ele>382.0</ele>
        <time>2020-01-02T10:25:31Z</time>
      </trkpt>
      <trkpt lat="39.6078480" lon="2.3707370">
        <ele>381.8</ele>
        <time>2020-01-02T10:25:34Z</time>
      </trkpt>
      <trkpt lat="39.6079640" lon="2.3707010">
        <ele>381.2</ele>
        <time>2020-01-02T10:25:45Z</time>
      </trkpt>
      <trkpt lat="39.6080080" lon="2.3707100">
        <ele>381.4</ele>
        <time>2020-01-02T10:25:49Z</time>
      </trkpt>
      <trkpt lat="39.6080660" lon="2.3706850">
        <ele>381.6</ele>
        <time>2020-01-02T10:25:56Z</time>
      </trkpt>
      <trkpt lat="39.6081310" lon="2.3706920">
        <ele>381.0</ele>
        <time>2020-01-02T10:26:03Z</time>
      </trkpt>
      <trkpt lat="39.6081520" lon="2.3706910">
        <ele>380.8</ele>
        <time>2020-01-02T10:26:05Z</time>
      </trkpt>
      <trkpt lat="39.6082700" lon="2.3707140">
        <ele>379.8</ele>
        <time>2020-01-02T10:26:18Z</time>
      </trkpt>
      <trkpt lat="39.6083000" lon="2.3707080">
        <ele>380.0</ele>
        <time>2020-01-02T10:26:21Z</time>
      </trkpt>
      <trkpt lat="39.6083210" lon="2.3707260">
        <ele>380.0</ele>
        <time>2020-01-02T10:26:24Z</time>
      </trkpt>
      <trkpt lat="39.6083550" lon="2.3707220">
        <ele>381.0</ele>
        <time>2020-01-02T10:26:38Z</time>
      </trkpt>
      <trkpt lat="39.6085200" lon="2.3707160">
        <ele>379.8</ele>
        <time>2020-01-02T10:27:06Z</time>
      </trkpt>
      <trkpt lat="39.6086140" lon="2.3707400">
        <ele>379.2</ele>
        <time>2020-01-02T10:27:20Z</time>
      </trkpt>
      <trkpt lat="39.6086400" lon="2.3707190">
        <ele>378.6</ele>
        <time>2020-01-02T10:27:24Z</time>
      </trkpt>
      <trkpt lat="39.6086500" lon="2.3707020">
        <ele>378.4</ele>
        <time>2020-01-02T10:27:26Z</time>
      </trkpt>
      <trkpt lat="39.6086650" lon="2.3706930">
        <ele>378.0</ele>
        <time>2020-01-02T10:27:28Z</time>
      </trkpt>
      <trkpt lat="39.6086910" lon="2.3706730">
        <ele>377.6</ele>
        <time>2020-01-02T10:27:32Z</time>
      </trkpt>
      <trkpt lat="39.6087090" lon="2.3706700">
        <ele>377.2</ele>
        <time>2020-01-02T10:27:34Z</time>
      </trkpt>
      <trkpt lat="39.6087800" lon="2.3707050">
        <ele>376.8</ele>
        <time>2020-01-02T10:27:42Z</time>
      </trkpt>
      <trkpt lat="39.6088090" lon="2.3707160">
        <ele>376.6</ele>
        <time>2020-01-02T10:27:45Z</time>
      </trkpt>
      <trkpt lat="39.6088180" lon="2.3707140">
        <ele>376.4</ele>
        <time>2020-01-02T10:27:46Z</time>
      </trkpt>
      <trkpt lat="39.6091680" lon="2.3707260">
        <ele>377.4</ele>
        <time>2020-01-02T10:28:19Z</time>
      </trkpt>
      <trkpt lat="39.6091970" lon="2.3707230">
        <ele>377.6</ele>
        <time>2020-01-02T10:28:22Z</time>
      </trkpt>
      <trkpt lat="39.6092730" lon="2.3707600">
        <ele>378.0</ele>
        <time>2020-01-02T10:28:30Z</time>
      </trkpt>
      <trkpt lat="39.6093060" lon="2.3707350">
        <ele>378.0</ele>
        <time>2020-01-02T10:28:35Z</time>
      </trkpt>
      <trkpt lat="39.6093190" lon="2.3707330">
        <ele>378.0</ele>
        <time>2020-01-02T10:28:37Z</time>
      </trkpt>
      <trkpt lat="39.6094500" lon="2.3706570">
        <ele>377.6</ele>
        <time>2020-01-02T10:28:55Z</time>
      </trkpt>
      <trkpt lat="39.6095340" lon="2.3706380">
        <ele>378.0</ele>
        <time>2020-01-02T10:29:05Z</time>
      </trkpt>
      <trkpt lat="39.6095580" lon="2.3705990">
        <ele>377.4</ele>
        <time>2020-01-02T10:29:09Z</time>
      </trkpt>
      <trkpt lat="39.6095960" lon="2.3705230">
        <ele>376.2</ele>
        <time>2020-01-02T10:29:17Z</time>
      </trkpt>
      <trkpt lat="39.6095950" lon="2.3705110">
        <ele>375.8</ele>
        <time>2020-01-02T10:29:18Z</time>
      </trkpt>
      <trkpt lat="39.6095920" lon="2.3704880">
        <ele>375.8</ele>
        <time>2020-01-02T10:29:20Z</time>
      </trkpt>
      <trkpt lat="39.6095950" lon="2.3704690">
        <ele>375.6</ele>
        <time>2020-01-02T10:29:22Z</time>
      </trkpt>
      <trkpt lat="39.6095990" lon="2.3704270">
        <ele>375.2</ele>
        <time>2020-01-02T10:29:26Z</time>
      </trkpt>
      <trkpt lat="39.6095930" lon="2.3703420">
        <ele>374.2</ele>
        <time>2020-01-02T10:29:33Z</time>
      </trkpt>
      <trkpt lat="39.6095870" lon="2.3702910">
        <ele>374.0</ele>
        <time>2020-01-02T10:29:37Z</time>
      </trkpt>
      <trkpt lat="39.6096210" lon="2.3701970">
        <ele>374.0</ele>
        <time>2020-01-02T10:29:45Z</time>
      </trkpt>
      <trkpt lat="39.6096360" lon="2.3701760">
        <ele>373.4</ele>
        <time>2020-01-02T10:29:48Z</time>
      </trkpt>
      <trkpt lat="39.6096910" lon="2.3700990">
        <ele>373.8</ele>
        <time>2020-01-02T10:29:57Z</time>
      </trkpt>
      <trkpt lat="39.6097050" lon="2.3700680">
        <ele>373.2</ele>
        <time>2020-01-02T10:30:01Z</time>
      </trkpt>
      <trkpt lat="39.6097510" lon="2.3700320">
        <ele>372.0</ele>
        <time>2020-01-02T10:30:12Z</time>
      </trkpt>
      <trkpt lat="39.6098710" lon="2.3699750">
        <ele>371.2</ele>
        <time>2020-01-02T10:30:28Z</time>
      </trkpt>
      <trkpt lat="39.6098890" lon="2.3699700">
        <ele>371.0</ele>
        <time>2020-01-02T10:30:30Z</time>
      </trkpt>
      <trkpt lat="39.6098970" lon="2.3699670">
        <ele>370.8</ele>
        <time>2020-01-02T10:30:31Z</time>
      </trkpt>
      <trkpt lat="39.6099000" lon="2.3699660">
        <ele>370.6</ele>
        <time>2020-01-02T10:30:33Z</time>
      </trkpt>
      <trkpt lat="39.6100060" lon="2.3699850">
        <ele>372.0</ele>
        <time>2020-01-02T10:31:25Z</time>
      </trkpt>
      <trkpt lat="39.6099970" lon="2.3699900">
        <ele>373.4</ele>
        <time>2020-01-02T10:31:35Z</time>
      </trkpt>
      <trkpt lat="39.6100010" lon="2.3699960">
        <ele>374.4</ele>
        <time>2020-01-02T10:32:02Z</time>
      </trkpt>
      <trkpt lat="39.6100020" lon="2.3699930">
        <ele>375.6</ele>
        <time>2020-01-02T10:32:20Z</time>
      </trkpt>
      <trkpt lat="39.6100460" lon="2.3700680">
        <ele>374.6</ele>
        <time>2020-01-02T10:32:46Z</time>
      </trkpt>
      <trkpt lat="39.6100600" lon="2.3700850">
        <ele>374.4</ele>
        <time>2020-01-02T10:32:48Z</time>
      </trkpt>
      <trkpt lat="39.6100640" lon="2.3700950">
        <ele>374.6</ele>
        <time>2020-01-02T10:32:49Z</time>
      </trkpt>
      <trkpt lat="39.6101890" lon="2.3701850">
        <ele>373.6</ele>
        <time>2020-01-02T10:33:04Z</time>
      </trkpt>
      <trkpt lat="39.6102070" lon="2.3701990">
        <ele>373.2</ele>
        <time>2020-01-02T10:33:06Z</time>
      </trkpt>
      <trkpt lat="39.6102410" lon="2.3702350">
        <ele>373.2</ele>
        <time>2020-01-02T10:33:11Z</time>
      </trkpt>
      <trkpt lat="39.6102730" lon="2.3702540">
        <ele>372.6</ele>
        <time>2020-01-02T10:33:15Z</time>
      </trkpt>
      <trkpt lat="39.6102940" lon="2.3702640">
        <ele>372.4</ele>
        <time>2020-01-02T10:33:18Z</time>
      </trkpt>
      <trkpt lat="39.6103300" lon="2.3702710">
        <ele>372.2</ele>
        <time>2020-01-02T10:33:22Z</time>
      </trkpt>
      <trkpt lat="39.6103630" lon="2.3702940">
        <ele>371.4</ele>
        <time>2020-01-02T10:33:27Z</time>
      </trkpt>
      <trkpt lat="39.6103690" lon="2.3703010">
        <ele>371.4</ele>
        <time>2020-01-02T10:33:28Z</time>
      </trkpt>
      <trkpt lat="39.6104910" lon="2.3703990">
        <ele>370.2</ele>
        <time>2020-01-02T10:33:42Z</time>
      </trkpt>
      <trkpt lat="39.6105290" lon="2.3704600">
        <ele>369.6</ele>
        <time>2020-01-02T10:33:48Z</time>
      </trkpt>
      <trkpt lat="39.6105500" lon="2.3705110">
        <ele>369.0</ele>
        <time>2020-01-02T10:33:53Z</time>
      </trkpt>
      <trkpt lat="39.6105570" lon="2.3705210">
        <ele>369.0</ele>
        <time>2020-01-02T10:33:54Z</time>
      </trkpt>
      <trkpt lat="39.6105930" lon="2.3706210">
        <ele>368.2</ele>
        <time>2020-01-02T10:34:03Z</time>
      </trkpt>
      <trkpt lat="39.6106150" lon="2.3706420">
        <ele>368.0</ele>
        <time>2020-01-02T10:34:06Z</time>
      </trkpt>
      <trkpt lat="39.6106380" lon="2.3706790">
        <ele>367.6</ele>
        <time>2020-01-02T10:34:11Z</time>
      </trkpt>
      <trkpt lat="39.6106750" lon="2.3707340">
        <ele>367.0</ele>
        <time>2020-01-02T10:34:17Z</time>
      </trkpt>
      <trkpt lat="39.6106570" lon="2.3708530">
        <ele>366.4</ele>
        <time>2020-01-02T10:34:26Z</time>
      </trkpt>
      <trkpt lat="39.6106590" lon="2.3709670">
        <ele>366.0</ele>
        <time>2020-01-02T10:34:36Z</time>
      </trkpt>
      <trkpt lat="39.6106670" lon="2.3709860">
        <ele>365.6</ele>
        <time>2020-01-02T10:34:38Z</time>
      </trkpt>
      <trkpt lat="39.6106760" lon="2.3710510">
        <ele>364.8</ele>
        <time>2020-01-02T10:34:45Z</time>
      </trkpt>
      <trkpt lat="39.6107300" lon="2.3711610">
        <ele>363.6</ele>
        <time>2020-01-02T10:34:55Z</time>
      </trkpt>
      <trkpt lat="39.6107830" lon="2.3712560">
        <ele>362.8</ele>
        <time>2020-01-02T10:35:04Z</time>
      </trkpt>
      <trkpt lat="39.6107900" lon="2.3712630">
        <ele>362.6</ele>
        <time>2020-01-02T10:35:05Z</time>
      </trkpt>
      <trkpt lat="39.6108000" lon="2.3712800">
        <ele>362.2</ele>
        <time>2020-01-02T10:35:07Z</time>
      </trkpt>
      <trkpt lat="39.6108040" lon="2.3713370">
        <ele>361.8</ele>
        <time>2020-01-02T10:35:12Z</time>
      </trkpt>
      <trkpt lat="39.6108120" lon="2.3713730">
        <ele>361.4</ele>
        <time>2020-01-02T10:35:16Z</time>
      </trkpt>
      <trkpt lat="39.6108280" lon="2.3713950">
        <ele>360.4</ele>
        <time>2020-01-02T10:35:49Z</time>
      </trkpt>
      <trkpt lat="39.6108120" lon="2.3714260">
        <ele>359.2</ele>
        <time>2020-01-02T10:35:53Z</time>
      </trkpt>
      <trkpt lat="39.6107940" lon="2.3714680">
        <ele>359.0</ele>
        <time>2020-01-02T10:35:56Z</time>
      </trkpt>
      <trkpt lat="39.6107900" lon="2.3715170">
        <ele>358.2</ele>
        <time>2020-01-02T10:36:00Z</time>
      </trkpt>
      <trkpt lat="39.6107910" lon="2.3715260">
        <ele>358.0</ele>
        <time>2020-01-02T10:36:01Z</time>
      </trkpt>
      <trkpt lat="39.6108030" lon="2.3715640">
        <ele>357.6</ele>
        <time>2020-01-02T10:36:04Z</time>
      </trkpt>
      <trkpt lat="39.6107940" lon="2.3716010">
        <ele>357.6</ele>
        <time>2020-01-02T10:36:07Z</time>
      </trkpt>
      <trkpt lat="39.6107960" lon="2.3716200">
        <ele>357.6</ele>
        <time>2020-01-02T10:36:10Z</time>
      </trkpt>
      <trkpt lat="39.6107980" lon="2.3716430">
        <ele>359.4</ele>
        <time>2020-01-02T10:37:10Z</time>
      </trkpt>
      <trkpt lat="39.6108090" lon="2.3717460">
        <ele>358.4</ele>
        <time>2020-01-02T10:37:25Z</time>
      </trkpt>
      <trkpt lat="39.6108190" lon="2.3717910">
        <ele>357.2</ele>
        <time>2020-01-02T10:37:31Z</time>
      </trkpt>
      <trkpt lat="39.6108250" lon="2.3718360">
        <ele>356.0</ele>
        <time>2020-01-02T10:37:37Z</time>
      </trkpt>
      <trkpt lat="39.6108180" lon="2.3719150">
        <ele>355.0</ele>
        <time>2020-01-02T10:37:45Z</time>
      </trkpt>
      <trkpt lat="39.6108190" lon="2.3719580">
        <ele>353.6</ele>
        <time>2020-01-02T10:37:51Z</time>
      </trkpt>
      <trkpt lat="39.6108270" lon="2.3720200">
        <ele>352.6</ele>
        <time>2020-01-02T10:37:56Z</time>
      </trkpt>
      <trkpt lat="39.6108120" lon="2.3720900">
        <ele>351.6</ele>
        <time>2020-01-02T10:38:02Z</time>
      </trkpt>
      <trkpt lat="39.6108060" lon="2.3721960">
        <ele>350.4</ele>
        <time>2020-01-02T10:38:12Z</time>
      </trkpt>
      <trkpt lat="39.6107470" lon="2.3722840">
        <ele>349.4</ele>
        <time>2020-01-02T10:38:23Z</time>
      </trkpt>
      <trkpt lat="39.6107390" lon="2.3723000">
        <ele>349.2</ele>
        <time>2020-01-02T10:38:25Z</time>
      </trkpt>
      <trkpt lat="39.6107110" lon="2.3723590">
        <ele>348.6</ele>
        <time>2020-01-02T10:38:31Z</time>
      </trkpt>
      <trkpt lat="39.6107020" lon="2.3723780">
        <ele>348.2</ele>
        <time>2020-01-02T10:38:33Z</time>
      </trkpt>
      <trkpt lat="39.6106650" lon="2.3724340">
        <ele>348.2</ele>
        <time>2020-01-02T10:38:38Z</time>
      </trkpt>
      <trkpt lat="39.6106630" lon="2.3724410">
        <ele>348.0</ele>
        <time>2020-01-02T10:38:39Z</time>
      </trkpt>
      <trkpt lat="39.6106560" lon="2.3724880">
        <ele>347.8</ele>
        <time>2020-01-02T10:38:43Z</time>
      </trkpt>
      <trkpt lat="39.6106430" lon="2.3725450">
        <ele>347.6</ele>
        <time>2020-01-02T10:38:48Z</time>
      </trkpt>
      <trkpt lat="39.6106170" lon="2.3725920">
        <ele>348.0</ele>
        <time>2020-01-02T10:38:53Z</time>
      </trkpt>
      <trkpt lat="39.6106090" lon="2.3726300">
        <ele>348.2</ele>
        <time>2020-01-02T10:38:56Z</time>
      </trkpt>
      <trkpt lat="39.6106030" lon="2.3726450">
        <ele>348.0</ele>
        <time>2020-01-02T10:38:58Z</time>
      </trkpt>
      <trkpt lat="39.6106050" lon="2.3726960">
        <ele>347.2</ele>
        <time>2020-01-02T10:39:03Z</time>
      </trkpt>
      <trkpt lat="39.6105930" lon="2.3728720">
        <ele>347.4</ele>
        <time>2020-01-02T10:39:16Z</time>
      </trkpt>
      <trkpt lat="39.6105790" lon="2.3729180">
        <ele>347.8</ele>
        <time>2020-01-02T10:39:20Z</time>
      </trkpt>
      <trkpt lat="39.6105660" lon="2.3729920">
        <ele>347.6</ele>
        <time>2020-01-02T10:39:28Z</time>
      </trkpt>
      <trkpt lat="39.6105580" lon="2.3730530">
        <ele>346.8</ele>
        <time>2020-01-02T10:39:33Z</time>
      </trkpt>
      <trkpt lat="39.6105560" lon="2.3730880">
        <ele>346.8</ele>
        <time>2020-01-02T10:39:36Z</time>
      </trkpt>
      <trkpt lat="39.6105450" lon="2.3731090">
        <ele>346.8</ele>
        <time>2020-01-02T10:39:38Z</time>
      </trkpt>
      <trkpt lat="39.6105400" lon="2.3731620">
        <ele>346.4</ele>
        <time>2020-01-02T10:39:44Z</time>
      </trkpt>
      <trkpt lat="39.6105470" lon="2.3731930">
        <ele>346.0</ele>
        <time>2020-01-02T10:39:47Z</time>
      </trkpt>
      <trkpt lat="39.6105550" lon="2.3732720">
        <ele>345.0</ele>
        <time>2020-01-02T10:39:54Z</time>
      </trkpt>
      <trkpt lat="39.6105460" lon="2.3732950">
        <ele>344.8</ele>
        <time>2020-01-02T10:39:56Z</time>
      </trkpt>
      <trkpt lat="39.6105510" lon="2.3733090">
        <ele>344.6</ele>
        <time>2020-01-02T10:39:58Z</time>
      </trkpt>
      <trkpt lat="39.6105490" lon="2.3733360">
        <ele>344.0</ele>
        <time>2020-01-02T10:40:03Z</time>
      </trkpt>
      <trkpt lat="39.6105520" lon="2.3734190">
        <ele>343.0</ele>
        <time>2020-01-02T10:40:10Z</time>
      </trkpt>
      <trkpt lat="39.6105540" lon="2.3734470">
        <ele>342.6</ele>
        <time>2020-01-02T10:40:12Z</time>
      </trkpt>
      <trkpt lat="39.6105480" lon="2.3734850">
        <ele>342.2</ele>
        <time>2020-01-02T10:40:15Z</time>
      </trkpt>
      <trkpt lat="39.6105500" lon="2.3735080">
        <ele>342.4</ele>
        <time>2020-01-02T10:40:17Z</time>
      </trkpt>
      <trkpt lat="39.6105360" lon="2.3735310">
        <ele>342.8</ele>
        <time>2020-01-02T10:40:20Z</time>
      </trkpt>
      <trkpt lat="39.6105010" lon="2.3736270">
        <ele>342.4</ele>
        <time>2020-01-02T10:40:29Z</time>
      </trkpt>
      <trkpt lat="39.6105050" lon="2.3736550">
        <ele>341.8</ele>
        <time>2020-01-02T10:40:32Z</time>
      </trkpt>
      <trkpt lat="39.6104950" lon="2.3737130">
        <ele>340.8</ele>
        <time>2020-01-02T10:40:37Z</time>
      </trkpt>
      <trkpt lat="39.6104840" lon="2.3737730">
        <ele>339.4</ele>
        <time>2020-01-02T10:40:43Z</time>
      </trkpt>
      <trkpt lat="39.6104940" lon="2.3737990">
        <ele>338.4</ele>
        <time>2020-01-02T10:40:47Z</time>
      </trkpt>
      <trkpt lat="39.6105080" lon="2.3738310">
        <ele>337.4</ele>
        <time>2020-01-02T10:40:51Z</time>
      </trkpt>
      <trkpt lat="39.6104880" lon="2.3738910">
        <ele>336.2</ele>
        <time>2020-01-02T10:40:57Z</time>
      </trkpt>
      <trkpt lat="39.6104500" lon="2.3739860">
        <ele>335.6</ele>
        <time>2020-01-02T10:41:06Z</time>
      </trkpt>
      <trkpt lat="39.6104450" lon="2.3740060">
        <ele>335.2</ele>
        <time>2020-01-02T10:41:08Z</time>
      </trkpt>
      <trkpt lat="39.6103970" lon="2.3740490">
        <ele>334.8</ele>
        <time>2020-01-02T10:41:15Z</time>
      </trkpt>
      <trkpt lat="39.6103770" lon="2.3740870">
        <ele>334.2</ele>
        <time>2020-01-02T10:41:19Z</time>
      </trkpt>
      <trkpt lat="39.6103570" lon="2.3741300">
        <ele>333.2</ele>
        <time>2020-01-02T10:41:24Z</time>
      </trkpt>
      <trkpt lat="39.6103360" lon="2.3741750">
        <ele>332.2</ele>
        <time>2020-01-02T10:41:30Z</time>
      </trkpt>
      <trkpt lat="39.6102850" lon="2.3742780">
        <ele>331.2</ele>
        <time>2020-01-02T10:41:39Z</time>
      </trkpt>
      <trkpt lat="39.6102750" lon="2.3743000">
        <ele>331.0</ele>
        <time>2020-01-02T10:41:41Z</time>
      </trkpt>
      <trkpt lat="39.6102710" lon="2.3743220">
        <ele>330.8</ele>
        <time>2020-01-02T10:41:43Z</time>
      </trkpt>
      <trkpt lat="39.6102840" lon="2.3743640">
        <ele>330.0</ele>
        <time>2020-01-02T10:41:47Z</time>
      </trkpt>
      <trkpt lat="39.6102980" lon="2.3744320">
        <ele>330.0</ele>
        <time>2020-01-02T10:41:52Z</time>
      </trkpt>
      <trkpt lat="39.6103060" lon="2.3744580">
        <ele>329.8</ele>
        <time>2020-01-02T10:41:54Z</time>
      </trkpt>
      <trkpt lat="39.6103000" lon="2.3745180">
        <ele>329.8</ele>
        <time>2020-01-02T10:41:59Z</time>
      </trkpt>
      <trkpt lat="39.6103220" lon="2.3746300">
        <ele>329.2</ele>
        <time>2020-01-02T10:42:09Z</time>
      </trkpt>
      <trkpt lat="39.6103260" lon="2.3746380">
        <ele>328.8</ele>
        <time>2020-01-02T10:42:10Z</time>
      </trkpt>
      <trkpt lat="39.6103350" lon="2.3746570">
        <ele>328.6</ele>
        <time>2020-01-02T10:42:12Z</time>
      </trkpt>
      <trkpt lat="39.6103580" lon="2.3747020">
        <ele>327.8</ele>
        <time>2020-01-02T10:42:16Z</time>
      </trkpt>
      <trkpt lat="39.6103700" lon="2.3748090">
        <ele>326.8</ele>
        <time>2020-01-02T10:42:26Z</time>
      </trkpt>
      <trkpt lat="39.6103790" lon="2.3748540">
        <ele>325.8</ele>
        <time>2020-01-02T10:42:30Z</time>
      </trkpt>
      <trkpt lat="39.6103790" lon="2.3748630">
        <ele>325.6</ele>
        <time>2020-01-02T10:42:31Z</time>
      </trkpt>
      <trkpt lat="39.6103810" lon="2.3749320">
        <ele>324.4</ele>
        <time>2020-01-02T10:42:37Z</time>
      </trkpt>
      <trkpt lat="39.6103660" lon="2.3750220">
        <ele>323.4</ele>
        <time>2020-01-02T10:42:45Z</time>
      </trkpt>
      <trkpt lat="39.6103710" lon="2.3750870">
        <ele>322.4</ele>
        <time>2020-01-02T10:42:50Z</time>
      </trkpt>
      <trkpt lat="39.6103700" lon="2.3751980">
        <ele>321.8</ele>
        <time>2020-01-02T10:42:58Z</time>
      </trkpt>
      <trkpt lat="39.6103570" lon="2.3752410">
        <ele>322.0</ele>
        <time>2020-01-02T10:43:02Z</time>
      </trkpt>
      <trkpt lat="39.6103120" lon="2.3753670">
        <ele>323.4</ele>
        <time>2020-01-02T10:43:14Z</time>
      </trkpt>
      <trkpt lat="39.6103230" lon="2.3755480">
        <ele>324.2</ele>
        <time>2020-01-02T10:43:27Z</time>
      </trkpt>
      <trkpt lat="39.6103220" lon="2.3755860">
        <ele>324.4</ele>
        <time>2020-01-02T10:43:30Z</time>
      </trkpt>
      <trkpt lat="39.6103200" lon="2.3756260">
        <ele>324.6</ele>
        <time>2020-01-02T10:43:33Z</time>
      </trkpt>
      <trkpt lat="39.6103660" lon="2.3758530">
        <ele>323.8</ele>
        <time>2020-01-02T10:43:49Z</time>
      </trkpt>
      <trkpt lat="39.6103830" lon="2.3759280">
        <ele>323.4</ele>
        <time>2020-01-02T10:43:55Z</time>
      </trkpt>
      <trkpt lat="39.6103720" lon="2.3759990">
        <ele>323.2</ele>
        <time>2020-01-02T10:44:00Z</time>
      </trkpt>
      <trkpt lat="39.6103760" lon="2.3760240">
        <ele>323.2</ele>
        <time>2020-01-02T10:44:02Z</time>
      </trkpt>
      <trkpt lat="39.6103870" lon="2.3760630">
        <ele>323.2</ele>
        <time>2020-01-02T10:44:05Z</time>
      </trkpt>
      <trkpt lat="39.6103800" lon="2.3761250">
        <ele>323.4</ele>
        <time>2020-01-02T10:44:09Z</time>
      </trkpt>
      <trkpt lat="39.6103640" lon="2.3762130">
        <ele>324.4</ele>
        <time>2020-01-02T10:44:17Z</time>
      </trkpt>
      <trkpt lat="39.6103610" lon="2.3762790">
        <ele>325.6</ele>
        <time>2020-01-02T10:44:23Z</time>
      </trkpt>
      <trkpt lat="39.6103420" lon="2.3763430">
        <ele>326.6</ele>
        <time>2020-01-02T10:44:29Z</time>
      </trkpt>
      <trkpt lat="39.6103370" lon="2.3763530">
        <ele>326.8</ele>
        <time>2020-01-02T10:44:30Z</time>
      </trkpt>
      <trkpt lat="39.6103330" lon="2.3763680">
        <ele>327.2</ele>
        <time>2020-01-02T10:44:32Z</time>
      </trkpt>
      <trkpt lat="39.6103300" lon="2.3764030">
        <ele>327.6</ele>
        <time>2020-01-02T10:44:35Z</time>
      </trkpt>
      <trkpt lat="39.6103310" lon="2.3764160">
        <ele>327.6</ele>
        <time>2020-01-02T10:44:36Z</time>
      </trkpt>
      <trkpt lat="39.6103080" lon="2.3764900">
        <ele>328.0</ele>
        <time>2020-01-02T10:44:42Z</time>
      </trkpt>
      <trkpt lat="39.6103070" lon="2.3765170">
        <ele>328.2</ele>
        <time>2020-01-02T10:44:44Z</time>
      </trkpt>
      <trkpt lat="39.6102920" lon="2.3765720">
        <ele>328.8</ele>
        <time>2020-01-02T10:44:48Z</time>
      </trkpt>
      <trkpt lat="39.6102910" lon="2.3765840">
        <ele>329.0</ele>
        <time>2020-01-02T10:44:49Z</time>
      </trkpt>
      <trkpt lat="39.6102910" lon="2.3766230">
        <ele>329.2</ele>
        <time>2020-01-02T10:44:52Z</time>
      </trkpt>
      <trkpt lat="39.6102870" lon="2.3766600">
        <ele>329.4</ele>
        <time>2020-01-02T10:44:55Z</time>
      </trkpt>
      <trkpt lat="39.6102890" lon="2.3766690">
        <ele>329.4</ele>
        <time>2020-01-02T10:44:57Z</time>
      </trkpt>
      <trkpt lat="39.6103140" lon="2.3768010">
        <ele>329.8</ele>
        <time>2020-01-02T10:45:08Z</time>
      </trkpt>
      <trkpt lat="39.6103530" lon="2.3769140">
        <ele>329.4</ele>
        <time>2020-01-02T10:45:19Z</time>
      </trkpt>
      <trkpt lat="39.6103710" lon="2.3769510">
        <ele>329.2</ele>
        <time>2020-01-02T10:45:23Z</time>
      </trkpt>
      <trkpt lat="39.6103720" lon="2.3769760">
        <ele>328.8</ele>
        <time>2020-01-02T10:45:25Z</time>
      </trkpt>
      <trkpt lat="39.6103680" lon="2.3769870">
        <ele>328.8</ele>
        <time>2020-01-02T10:45:26Z</time>
      </trkpt>
      <trkpt lat="39.6103610" lon="2.3770240">
        <ele>328.6</ele>
        <time>2020-01-02T10:45:29Z</time>
      </trkpt>
      <trkpt lat="39.6103310" lon="2.3770920">
        <ele>328.8</ele>
        <time>2020-01-02T10:45:34Z</time>
      </trkpt>
      <trkpt lat="39.6103020" lon="2.3771590">
        <ele>329.4</ele>
        <time>2020-01-02T10:45:40Z</time>
      </trkpt>
      <trkpt lat="39.6102920" lon="2.3772280">
        <ele>328.6</ele>
        <time>2020-01-02T10:45:46Z</time>
      </trkpt>
      <trkpt lat="39.6102460" lon="2.3773950">
        <ele>327.6</ele>
        <time>2020-01-02T10:45:59Z</time>
      </trkpt>
      <trkpt lat="39.6102440" lon="2.3774390">
        <ele>327.6</ele>
        <time>2020-01-02T10:46:02Z</time>
      </trkpt>
      <trkpt lat="39.6102460" lon="2.3774570">
        <ele>327.4</ele>
        <time>2020-01-02T10:46:04Z</time>
      </trkpt>
      <trkpt lat="39.6102400" lon="2.3774890">
        <ele>327.2</ele>
        <time>2020-01-02T10:46:07Z</time>
      </trkpt>
      <trkpt lat="39.6102190" lon="2.3776330">
        <ele>326.6</ele>
        <time>2020-01-02T10:46:25Z</time>
      </trkpt>
      <trkpt lat="39.6102190" lon="2.3776460">
        <ele>326.6</ele>
        <time>2020-01-02T10:46:26Z</time>
      </trkpt>
      <trkpt lat="39.6102130" lon="2.3776810">
        <ele>326.4</ele>
        <time>2020-01-02T10:46:29Z</time>
      </trkpt>
      <trkpt lat="39.6102010" lon="2.3777830">
        <ele>325.4</ele>
        <time>2020-01-02T10:46:37Z</time>
      </trkpt>
      <trkpt lat="39.6101530" lon="2.3779720">
        <ele>324.4</ele>
        <time>2020-01-02T10:46:51Z</time>
      </trkpt>
      <trkpt lat="39.6101500" lon="2.3780180">
        <ele>324.2</ele>
        <time>2020-01-02T10:46:55Z</time>
      </trkpt>
      <trkpt lat="39.6101360" lon="2.3781080">
        <ele>323.6</ele>
        <time>2020-01-02T10:47:02Z</time>
      </trkpt>
      <trkpt lat="39.6101380" lon="2.3781630">
        <ele>323.4</ele>
        <time>2020-01-02T10:47:14Z</time>
      </trkpt>
      <trkpt lat="39.6101760" lon="2.3782280">
        <ele>322.4</ele>
        <time>2020-01-02T10:47:20Z</time>
      </trkpt>
      <trkpt lat="39.6101900" lon="2.3782610">
        <ele>322.0</ele>
        <time>2020-01-02T10:47:23Z</time>
      </trkpt>
      <trkpt lat="39.6101560" lon="2.3783340">
        <ele>323.0</ele>
        <time>2020-01-02T10:47:29Z</time>
      </trkpt>
      <trkpt lat="39.6101630" lon="2.3783550">
        <ele>323.4</ele>
        <time>2020-01-02T10:47:31Z</time>
      </trkpt>
      <trkpt lat="39.6101620" lon="2.3783670">
        <ele>323.6</ele>
        <time>2020-01-02T10:47:32Z</time>
      </trkpt>
      <trkpt lat="39.6101540" lon="2.3785070">
        <ele>323.4</ele>
        <time>2020-01-02T10:47:43Z</time>
      </trkpt>
      <trkpt lat="39.6101300" lon="2.3785410">
        <ele>322.8</ele>
        <time>2020-01-02T10:47:47Z</time>
      </trkpt>
      <trkpt lat="39.6101160" lon="2.3785720">
        <ele>322.2</ele>
        <time>2020-01-02T10:47:50Z</time>
      </trkpt>
      <trkpt lat="39.6100350" lon="2.3786810">
        <ele>321.0</ele>
        <time>2020-01-02T10:48:00Z</time>
      </trkpt>
      <trkpt lat="39.6099800" lon="2.3787020">
        <ele>319.8</ele>
        <time>2020-01-02T10:48:05Z</time>
      </trkpt>
      <trkpt lat="39.6099140" lon="2.3787150">
        <ele>321.2</ele>
        <time>2020-01-02T10:48:10Z</time>
      </trkpt>
      <trkpt lat="39.6098910" lon="2.3787290">
        <ele>319.8</ele>
        <time>2020-01-02T10:48:12Z</time>
      </trkpt>
      <trkpt lat="39.6098300" lon="2.3787720">
        <ele>318.8</ele>
        <time>2020-01-02T10:48:19Z</time>
      </trkpt>
      <trkpt lat="39.6097550" lon="2.3788560">
        <ele>317.6</ele>
        <time>2020-01-02T10:48:28Z</time>
      </trkpt>
      <trkpt lat="39.6097270" lon="2.3788960">
        <ele>316.6</ele>
        <time>2020-01-02T10:48:32Z</time>
      </trkpt>
      <trkpt lat="39.6096810" lon="2.3789770">
        <ele>315.6</ele>
        <time>2020-01-02T10:48:39Z</time>
      </trkpt>
      <trkpt lat="39.6096660" lon="2.3790480">
        <ele>314.8</ele>
        <time>2020-01-02T10:48:44Z</time>
      </trkpt>
      <trkpt lat="39.6096660" lon="2.3790540">
        <ele>314.6</ele>
        <time>2020-01-02T10:48:45Z</time>
      </trkpt>
      <trkpt lat="39.6096430" lon="2.3791340">
        <ele>313.2</ele>
        <time>2020-01-02T10:48:53Z</time>
      </trkpt>
      <trkpt lat="39.6096020" lon="2.3792420">
        <ele>312.0</ele>
        <time>2020-01-02T10:49:01Z</time>
      </trkpt>
      <trkpt lat="39.6095760" lon="2.3793370">
        <ele>311.0</ele>
        <time>2020-01-02T10:49:08Z</time>
      </trkpt>
      <trkpt lat="39.6094370" lon="2.3795410">
        <ele>310.8</ele>
        <time>2020-01-02T10:49:23Z</time>
      </trkpt>
      <trkpt lat="39.6093390" lon="2.3797160">
        <ele>309.4</ele>
        <time>2020-01-02T10:49:37Z</time>
      </trkpt>
      <trkpt lat="39.6090330" lon="2.3801470">
        <ele>309.6</ele>
        <time>2020-01-02T10:50:12Z</time>
      </trkpt>
      <trkpt lat="39.6089600" lon="2.3802830">
        <ele>310.6</ele>
        <time>2020-01-02T10:50:23Z</time>
      </trkpt>
      <trkpt lat="39.6089500" lon="2.3803080">
        <ele>310.6</ele>
        <time>2020-01-02T10:50:25Z</time>
      </trkpt>
      <trkpt lat="39.6089280" lon="2.3804520">
        <ele>311.4</ele>
        <time>2020-01-02T10:50:35Z</time>
      </trkpt>
      <trkpt lat="39.6089240" lon="2.3804680">
        <ele>311.8</ele>
        <time>2020-01-02T10:50:36Z</time>
      </trkpt>
      <trkpt lat="39.6089120" lon="2.3805040">
        <ele>311.8</ele>
        <time>2020-01-02T10:50:39Z</time>
      </trkpt>
      <trkpt lat="39.6088830" lon="2.3805610">
        <ele>310.6</ele>
        <time>2020-01-02T10:50:44Z</time>
      </trkpt>
      <trkpt lat="39.6088320" lon="2.3806510">
        <ele>309.4</ele>
        <time>2020-01-02T10:50:52Z</time>
      </trkpt>
      <trkpt lat="39.6088190" lon="2.3806600">
        <ele>308.4</ele>
        <time>2020-01-02T10:50:54Z</time>
      </trkpt>
      <trkpt lat="39.6088100" lon="2.3806640">
        <ele>308.0</ele>
        <time>2020-01-02T10:50:55Z</time>
      </trkpt>
      <trkpt lat="39.6087840" lon="2.3806780">
        <ele>306.8</ele>
        <time>2020-01-02T10:50:58Z</time>
      </trkpt>
      <trkpt lat="39.6087350" lon="2.3807000">
        <ele>305.8</ele>
        <time>2020-01-02T10:51:04Z</time>
      </trkpt>
      <trkpt lat="39.6086890" lon="2.3807580">
        <ele>304.6</ele>
        <time>2020-01-02T10:51:12Z</time>
      </trkpt>
      <trkpt lat="39.6086490" lon="2.3808380">
        <ele>303.4</ele>
        <time>2020-01-02T10:51:19Z</time>
      </trkpt>
      <trkpt lat="39.6086380" lon="2.3808730">
        <ele>303.2</ele>
        <time>2020-01-02T10:51:22Z</time>
      </trkpt>
      <trkpt lat="39.6086380" lon="2.3808960">
        <ele>303.0</ele>
        <time>2020-01-02T10:51:24Z</time>
      </trkpt>
      <trkpt lat="39.6086230" lon="2.3809410">
        <ele>302.4</ele>
        <time>2020-01-02T10:51:28Z</time>
      </trkpt>
      <trkpt lat="39.6085760" lon="2.3810500">
        <ele>301.4</ele>
        <time>2020-01-02T10:51:38Z</time>
      </trkpt>
      <trkpt lat="39.6085530" lon="2.3810810">
        <ele>300.0</ele>
        <time>2020-01-02T10:51:42Z</time>
      </trkpt>
      <trkpt lat="39.6085310" lon="2.3811080">
        <ele>299.0</ele>
        <time>2020-01-02T10:51:45Z</time>
      </trkpt>
      <trkpt lat="39.6085210" lon="2.3812030">
        <ele>298.4</ele>
        <time>2020-01-02T10:51:52Z</time>
      </trkpt>
      <trkpt lat="39.6085230" lon="2.3812230">
        <ele>298.0</ele>
        <time>2020-01-02T10:51:55Z</time>
      </trkpt>
      <trkpt lat="39.6085520" lon="2.3813710">
        <ele>297.0</ele>
        <time>2020-01-02T10:52:07Z</time>
      </trkpt>
      <trkpt lat="39.6085390" lon="2.3814890">
        <ele>296.0</ele>
        <time>2020-01-02T10:52:16Z</time>
      </trkpt>
      <trkpt lat="39.6085390" lon="2.3815020">
        <ele>295.8</ele>
        <time>2020-01-02T10:52:17Z</time>
      </trkpt>
      <trkpt lat="39.6085100" lon="2.3816630">
        <ele>295.8</ele>
        <time>2020-01-02T10:52:28Z</time>
      </trkpt>
      <trkpt lat="39.6083120" lon="2.3818570">
        <ele>295.0</ele>
        <time>2020-01-02T10:52:49Z</time>
      </trkpt>
      <trkpt lat="39.6082170" lon="2.3819260">
        <ele>293.8</ele>
        <time>2020-01-02T10:52:58Z</time>
      </trkpt>
      <trkpt lat="39.6081600" lon="2.3819380">
        <ele>292.8</ele>
        <time>2020-01-02T10:53:05Z</time>
      </trkpt>
      <trkpt lat="39.6081570" lon="2.3819380">
        <ele>292.6</ele>
        <time>2020-01-02T10:53:06Z</time>
      </trkpt>
      <trkpt lat="39.6081510" lon="2.3819110">
        <ele>291.8</ele>
        <time>2020-01-02T10:53:17Z</time>
      </trkpt>
      <trkpt lat="39.6081500" lon="2.3819070">
        <ele>290.8</ele>
        <time>2020-01-02T10:53:52Z</time>
      </trkpt>
      <trkpt lat="39.6081620" lon="2.3818390">
        <ele>290.4</ele>
        <time>2020-01-02T10:54:36Z</time>
      </trkpt>
      <trkpt lat="39.6081590" lon="2.3817680">
        <ele>289.6</ele>
        <time>2020-01-02T10:54:42Z</time>
      </trkpt>
      <trkpt lat="39.6081560" lon="2.3816960">
        <ele>288.4</ele>
        <time>2020-01-02T10:54:48Z</time>
      </trkpt>
      <trkpt lat="39.6080880" lon="2.3816110">
        <ele>287.4</ele>
        <time>2020-01-02T10:54:57Z</time>
      </trkpt>
      <trkpt lat="39.6080670" lon="2.3816150">
        <ele>287.0</ele>
        <time>2020-01-02T10:54:59Z</time>
      </trkpt>
      <trkpt lat="39.6080030" lon="2.3816900">
        <ele>286.4</ele>
        <time>2020-01-02T10:55:07Z</time>
      </trkpt>
      <trkpt lat="39.6079700" lon="2.3817580">
        <ele>285.4</ele>
        <time>2020-01-02T10:55:12Z</time>
      </trkpt>
      <trkpt lat="39.6077710" lon="2.3822490">
        <ele>284.2</ele>
        <time>2020-01-02T10:55:48Z</time>
      </trkpt>
      <trkpt lat="39.6077660" lon="2.3823820">
        <ele>283.2</ele>
        <time>2020-01-02T10:55:58Z</time>
      </trkpt>
      <trkpt lat="39.6077690" lon="2.3825580">
        <ele>282.0</ele>
        <time>2020-01-02T10:56:10Z</time>
      </trkpt>
      <trkpt lat="39.6077650" lon="2.3827090">
        <ele>280.8</ele>
        <time>2020-01-02T10:56:20Z</time>
      </trkpt>
      <trkpt lat="39.6077570" lon="2.3828220">
        <ele>279.8</ele>
        <time>2020-01-02T10:56:28Z</time>
      </trkpt>
      <trkpt lat="39.6077200" lon="2.3829260">
        <ele>278.6</ele>
        <time>2020-01-02T10:56:36Z</time>
      </trkpt>
      <trkpt lat="39.6076910" lon="2.3830440">
        <ele>277.4</ele>
        <time>2020-01-02T10:56:44Z</time>
      </trkpt>
      <trkpt lat="39.6076780" lon="2.3830800">
        <ele>277.4</ele>
        <time>2020-01-02T10:56:47Z</time>
      </trkpt>
      <trkpt lat="39.6076670" lon="2.3831520">
        <ele>276.2</ele>
        <time>2020-01-02T10:57:32Z</time>
      </trkpt>
      <trkpt lat="39.6075970" lon="2.3832430">
        <ele>275.2</ele>
        <time>2020-01-02T10:57:40Z</time>
      </trkpt>
      <trkpt lat="39.6075400" lon="2.3833150">
        <ele>274.0</ele>
        <time>2020-01-02T10:57:47Z</time>
      </trkpt>
      <trkpt lat="39.6074910" lon="2.3833930">
        <ele>273.8</ele>
        <time>2020-01-02T10:57:56Z</time>
      </trkpt>
      <trkpt lat="39.6073280" lon="2.3836070">
        <ele>275.0</ele>
        <time>2020-01-02T10:58:57Z</time>
      </trkpt>
      <trkpt lat="39.6073650" lon="2.3837220">
        <ele>274.8</ele>
        <time>2020-01-02T10:59:07Z</time>
      </trkpt>
      <trkpt lat="39.6077890" lon="2.3837390">
        <ele>274.6</ele>
        <time>2020-01-02T10:59:46Z</time>
      </trkpt>
      <trkpt lat="39.6079350" lon="2.3838860">
        <ele>274.0</ele>
        <time>2020-01-02T11:00:03Z</time>
      </trkpt>
      <trkpt lat="39.6081440" lon="2.3843840">
        <ele>273.8</ele>
        <time>2020-01-02T11:00:41Z</time>
      </trkpt>
      <trkpt lat="39.6081250" lon="2.3848320">
        <ele>275.2</ele>
        <time>2020-01-02T11:01:10Z</time>
      </trkpt>
      <trkpt lat="39.6081280" lon="2.3848450">
        <ele>275.2</ele>
        <time>2020-01-02T11:01:11Z</time>
      </trkpt>
      <trkpt lat="39.6081240" lon="2.3851100">
        <ele>276.2</ele>
        <time>2020-01-02T11:01:28Z</time>
      </trkpt>
      <trkpt lat="39.6081170" lon="2.3851540">
        <ele>276.4</ele>
        <time>2020-01-02T11:01:31Z</time>
      </trkpt>
      <trkpt lat="39.6081230" lon="2.3852750">
        <ele>277.2</ele>
        <time>2020-01-02T11:01:39Z</time>
      </trkpt>
      <trkpt lat="39.6081510" lon="2.3854390">
        <ele>278.4</ele>
        <time>2020-01-02T11:01:50Z</time>
      </trkpt>
      <trkpt lat="39.6081600" lon="2.3860100">
        <ele>278.0</ele>
        <time>2020-01-02T11:02:24Z</time>
      </trkpt>
      <trkpt lat="39.6078590" lon="2.3864500">
        <ele>278.8</ele>
        <time>2020-01-02T11:02:59Z</time>
      </trkpt>
      <trkpt lat="39.6078260" lon="2.3865030">
        <ele>279.4</ele>
        <time>2020-01-02T11:03:03Z</time>
      </trkpt>
      <trkpt lat="39.6077390" lon="2.3866120">
        <ele>280.4</ele>
        <time>2020-01-02T11:03:13Z</time>
      </trkpt>
      <trkpt lat="39.6077170" lon="2.3867450">
        <ele>281.4</ele>
        <time>2020-01-02T11:03:23Z</time>
      </trkpt>
      <trkpt lat="39.6077310" lon="2.3868300">
        <ele>282.6</ele>
        <time>2020-01-02T11:03:30Z</time>
      </trkpt>
      <trkpt lat="39.6078630" lon="2.3871300">
        <ele>283.2</ele>
        <time>2020-01-02T11:03:54Z</time>
      </trkpt>
      <trkpt lat="39.6078990" lon="2.3871760">
        <ele>283.6</ele>
        <time>2020-01-02T11:03:58Z</time>
      </trkpt>
      <trkpt lat="39.6080330" lon="2.3873160">
        <ele>284.6</ele>
        <time>2020-01-02T11:04:12Z</time>
      </trkpt>
      <trkpt lat="39.6081010" lon="2.3878520">
        <ele>285.8</ele>
        <time>2020-01-02T11:04:46Z</time>
      </trkpt>
      <trkpt lat="39.6077490" lon="2.3881130">
        <ele>285.6</ele>
        <time>2020-01-02T11:05:19Z</time>
      </trkpt>
      <trkpt lat="39.6076320" lon="2.3881120">
        <ele>286.0</ele>
        <time>2020-01-02T11:05:29Z</time>
      </trkpt>
      <trkpt lat="39.6074220" lon="2.3883020">
        <ele>286.8</ele>
        <time>2020-01-02T11:06:02Z</time>
      </trkpt>
      <trkpt lat="39.6072890" lon="2.3884460">
        <ele>287.8</ele>
        <time>2020-01-02T11:06:15Z</time>
      </trkpt>
      <trkpt lat="39.6070990" lon="2.3884360">
        <ele>289.0</ele>
        <time>2020-01-02T11:06:30Z</time>
      </trkpt>
      <trkpt lat="39.6069670" lon="2.3884150">
        <ele>290.2</ele>
        <time>2020-01-02T11:06:40Z</time>
      </trkpt>
      <trkpt lat="39.6068550" lon="2.3883940">
        <ele>291.4</ele>
        <time>2020-01-02T11:06:48Z</time>
      </trkpt>
      <trkpt lat="39.6067550" lon="2.3884100">
        <ele>292.4</ele>
        <time>2020-01-02T11:06:56Z</time>
      </trkpt>
      <trkpt lat="39.6066330" lon="2.3884660">
        <ele>293.6</ele>
        <time>2020-01-02T11:07:06Z</time>
      </trkpt>
      <trkpt lat="39.6065070" lon="2.3884840">
        <ele>294.4</ele>
        <time>2020-01-02T11:07:17Z</time>
      </trkpt>
      <trkpt lat="39.6063670" lon="2.3884360">
        <ele>295.6</ele>
        <time>2020-01-02T11:07:31Z</time>
      </trkpt>
      <trkpt lat="39.6062100" lon="2.3884000">
        <ele>296.8</ele>
        <time>2020-01-02T11:07:44Z</time>
      </trkpt>
      <trkpt lat="39.6059900" lon="2.3884020">
        <ele>297.8</ele>
        <time>2020-01-02T11:08:01Z</time>
      </trkpt>
      <trkpt lat="39.6057330" lon="2.3885680">
        <ele>298.8</ele>
        <time>2020-01-02T11:08:23Z</time>
      </trkpt>
      <trkpt lat="39.6056690" lon="2.3888390">
        <ele>299.0</ele>
        <time>2020-01-02T11:08:41Z</time>
      </trkpt>
      <trkpt lat="39.6056760" lon="2.3888640">
        <ele>299.2</ele>
        <time>2020-01-02T11:08:43Z</time>
      </trkpt>
      <trkpt lat="39.6056830" lon="2.3890020">
        <ele>299.8</ele>
        <time>2020-01-02T11:08:51Z</time>
      </trkpt>
      <trkpt lat="39.6056940" lon="2.3890760">
        <ele>299.8</ele>
        <time>2020-01-02T11:08:56Z</time>
      </trkpt>
      <trkpt lat="39.6057640" lon="2.3894240">
        <ele>300.4</ele>
        <time>2020-01-02T11:09:19Z</time>
      </trkpt>
      <trkpt lat="39.6057680" lon="2.3894070">
        <ele>300.8</ele>
        <time>2020-01-02T11:09:40Z</time>
      </trkpt>
      <trkpt lat="39.6059150" lon="2.3899570">
        <ele>300.4</ele>
        <time>2020-01-02T11:10:20Z</time>
      </trkpt>
      <trkpt lat="39.6060870" lon="2.3905130">
        <ele>300.6</ele>
        <time>2020-01-02T11:10:55Z</time>
      </trkpt>
      <trkpt lat="39.6061440" lon="2.3906540">
        <ele>299.8</ele>
        <time>2020-01-02T11:11:05Z</time>
      </trkpt>
      <trkpt lat="39.6061980" lon="2.3908640">
        <ele>298.8</ele>
        <time>2020-01-02T11:11:18Z</time>
      </trkpt>
      <trkpt lat="39.6062310" lon="2.3911970">
        <ele>298.2</ele>
        <time>2020-01-02T11:11:37Z</time>
      </trkpt>
      <trkpt lat="39.6061510" lon="2.3916720">
        <ele>300.0</ele>
        <time>2020-01-02T11:12:06Z</time>
      </trkpt>
      <trkpt lat="39.6061390" lon="2.3918330">
        <ele>300.8</ele>
        <time>2020-01-02T11:12:16Z</time>
      </trkpt>
      <trkpt lat="39.6060670" lon="2.3923330">
        <ele>302.0</ele>
        <time>2020-01-02T11:12:46Z</time>
      </trkpt>
      <trkpt lat="39.6060390" lon="2.3924410">
        <ele>303.0</ele>
        <time>2020-01-02T11:12:53Z</time>
      </trkpt>
      <trkpt lat="39.6059670" lon="2.3925290">
        <ele>304.4</ele>
        <time>2020-01-02T11:13:01Z</time>
      </trkpt>
      <trkpt lat="39.6058920" lon="2.3925640">
        <ele>305.6</ele>
        <time>2020-01-02T11:13:07Z</time>
      </trkpt>
      <trkpt lat="39.6058280" lon="2.3925940">
        <ele>307.0</ele>
        <time>2020-01-02T11:13:12Z</time>
      </trkpt>
      <trkpt lat="39.6057290" lon="2.3926280">
        <ele>308.0</ele>
        <time>2020-01-02T11:13:20Z</time>
      </trkpt>
      <trkpt lat="39.6056500" lon="2.3926360">
        <ele>309.2</ele>
        <time>2020-01-02T11:13:26Z</time>
      </trkpt>
      <trkpt lat="39.6055910" lon="2.3926190">
        <ele>310.2</ele>
        <time>2020-01-02T11:13:31Z</time>
      </trkpt>
      <trkpt lat="39.6055540" lon="2.3925940">
        <ele>311.2</ele>
        <time>2020-01-02T11:13:34Z</time>
      </trkpt>
      <trkpt lat="39.6055260" lon="2.3925800">
        <ele>312.4</ele>
        <time>2020-01-02T11:13:36Z</time>
      </trkpt>
      <trkpt lat="39.6054260" lon="2.3925270">
        <ele>313.4</ele>
        <time>2020-01-02T11:13:45Z</time>
      </trkpt>
      <trkpt lat="39.6052870" lon="2.3924360">
        <ele>314.6</ele>
        <time>2020-01-02T11:13:57Z</time>
      </trkpt>
      <trkpt lat="39.6051590" lon="2.3923570">
        <ele>315.6</ele>
        <time>2020-01-02T11:14:08Z</time>
      </trkpt>
      <trkpt lat="39.6051180" lon="2.3923400">
        <ele>316.4</ele>
        <time>2020-01-02T11:14:12Z</time>
      </trkpt>
      <trkpt lat="39.6050780" lon="2.3923540">
        <ele>316.6</ele>
        <time>2020-01-02T11:14:17Z</time>
      </trkpt>
      <trkpt lat="39.6051020" lon="2.3924450">
        <ele>317.6</ele>
        <time>2020-01-02T11:14:28Z</time>
      </trkpt>
      <trkpt lat="39.6051590" lon="2.3925180">
        <ele>318.6</ele>
        <time>2020-01-02T11:14:35Z</time>
      </trkpt>
      <trkpt lat="39.6052280" lon="2.3926450">
        <ele>319.8</ele>
        <time>2020-01-02T11:14:46Z</time>
      </trkpt>
      <trkpt lat="39.6053400" lon="2.3928640">
        <ele>320.6</ele>
        <time>2020-01-02T11:15:04Z</time>
      </trkpt>
      <trkpt lat="39.6054940" lon="2.3931630">
        <ele>321.6</ele>
        <time>2020-01-02T11:15:28Z</time>
      </trkpt>
      <trkpt lat="39.6055590" lon="2.3932660">
        <ele>323.0</ele>
        <time>2020-01-02T11:15:37Z</time>
      </trkpt>
      <trkpt lat="39.6055800" lon="2.3932880">
        <ele>323.0</ele>
        <time>2020-01-02T11:15:40Z</time>
      </trkpt>
      <trkpt lat="39.6055940" lon="2.3933050">
        <ele>323.4</ele>
        <time>2020-01-02T11:15:42Z</time>
      </trkpt>
      <trkpt lat="39.6056260" lon="2.3933510">
        <ele>324.0</ele>
        <time>2020-01-02T11:15:47Z</time>
      </trkpt>
      <trkpt lat="39.6056850" lon="2.3934240">
        <ele>325.4</ele>
        <time>2020-01-02T11:15:55Z</time>
      </trkpt>
      <trkpt lat="39.6057120" lon="2.3934670">
        <ele>325.8</ele>
        <time>2020-01-02T11:15:59Z</time>
      </trkpt>
      <trkpt lat="39.6057350" lon="2.3935110">
        <ele>326.4</ele>
        <time>2020-01-02T11:16:03Z</time>
      </trkpt>
      <trkpt lat="39.6058100" lon="2.3936110">
        <ele>327.6</ele>
        <time>2020-01-02T11:16:13Z</time>
      </trkpt>
      <trkpt lat="39.6058360" lon="2.3936420">
        <ele>327.8</ele>
        <time>2020-01-02T11:16:16Z</time>
      </trkpt>
      <trkpt lat="39.6058750" lon="2.3937110">
        <ele>328.6</ele>
        <time>2020-01-02T11:16:22Z</time>
      </trkpt>
      <trkpt lat="39.6058710" lon="2.3938060">
        <ele>329.6</ele>
        <time>2020-01-02T11:16:29Z</time>
      </trkpt>
      <trkpt lat="39.6058040" lon="2.3939660">
        <ele>330.6</ele>
        <time>2020-01-02T11:16:41Z</time>
      </trkpt>
      <trkpt lat="39.6057550" lon="2.3940640">
        <ele>331.4</ele>
        <time>2020-01-02T11:16:49Z</time>
      </trkpt>
      <trkpt lat="39.6057440" lon="2.3941090">
        <ele>331.8</ele>
        <time>2020-01-02T11:16:52Z</time>
      </trkpt>
      <trkpt lat="39.6058600" lon="2.3943520">
        <ele>330.6</ele>
        <time>2020-01-02T11:17:11Z</time>
      </trkpt>
      <trkpt lat="39.6059180" lon="2.3944440">
        <ele>329.6</ele>
        <time>2020-01-02T11:17:18Z</time>
      </trkpt>
      <trkpt lat="39.6059500" lon="2.3945440">
        <ele>328.6</ele>
        <time>2020-01-02T11:17:25Z</time>
      </trkpt>
      <trkpt lat="39.6059660" lon="2.3946640">
        <ele>327.4</ele>
        <time>2020-01-02T11:17:33Z</time>
      </trkpt>
      <trkpt lat="39.6059560" lon="2.3947350">
        <ele>326.8</ele>
        <time>2020-01-02T11:17:38Z</time>
      </trkpt>
      <trkpt lat="39.6059420" lon="2.3947700">
        <ele>326.4</ele>
        <time>2020-01-02T11:17:40Z</time>
      </trkpt>
      <trkpt lat="39.6058870" lon="2.3949130">
        <ele>325.2</ele>
        <time>2020-01-02T11:17:49Z</time>
      </trkpt>
      <trkpt lat="39.6057850" lon="2.3951360">
        <ele>324.6</ele>
        <time>2020-01-02T11:18:04Z</time>
      </trkpt>
      <trkpt lat="39.6057330" lon="2.3952410">
        <ele>324.2</ele>
        <time>2020-01-02T11:18:12Z</time>
      </trkpt>
      <trkpt lat="39.6056830" lon="2.3953460">
        <ele>324.0</ele>
        <time>2020-01-02T11:18:20Z</time>
      </trkpt>
      <trkpt lat="39.6055880" lon="2.3954710">
        <ele>323.0</ele>
        <time>2020-01-02T11:18:31Z</time>
      </trkpt>
      <trkpt lat="39.6055300" lon="2.3955440">
        <ele>321.8</ele>
        <time>2020-01-02T11:18:38Z</time>
      </trkpt>
      <trkpt lat="39.6054780" lon="2.3956010">
        <ele>320.8</ele>
        <time>2020-01-02T11:18:43Z</time>
      </trkpt>
      <trkpt lat="39.6054050" lon="2.3956690">
        <ele>319.8</ele>
        <time>2020-01-02T11:18:50Z</time>
      </trkpt>
      <trkpt lat="39.6053290" lon="2.3957210">
        <ele>318.6</ele>
        <time>2020-01-02T11:18:57Z</time>
      </trkpt>
      <trkpt lat="39.6052500" lon="2.3957750">
        <ele>317.4</ele>
        <time>2020-01-02T11:19:05Z</time>
      </trkpt>
      <trkpt lat="39.6051920" lon="2.3958290">
        <ele>316.4</ele>
        <time>2020-01-02T11:19:11Z</time>
      </trkpt>
      <trkpt lat="39.6050910" lon="2.3959340">
        <ele>315.4</ele>
        <time>2020-01-02T11:19:23Z</time>
      </trkpt>
      <trkpt lat="39.6050890" lon="2.3959470">
        <ele>315.4</ele>
        <time>2020-01-02T11:19:24Z</time>
      </trkpt>
      <trkpt lat="39.6051050" lon="2.3959950">
        <ele>314.8</ele>
        <time>2020-01-02T11:19:28Z</time>
      </trkpt>
      <trkpt lat="39.6051300" lon="2.3960220">
        <ele>314.2</ele>
        <time>2020-01-02T11:19:31Z</time>
      </trkpt>
      <trkpt lat="39.6051790" lon="2.3960630">
        <ele>313.2</ele>
        <time>2020-01-02T11:19:37Z</time>
      </trkpt>
      <trkpt lat="39.6051870" lon="2.3960650">
        <ele>313.0</ele>
        <time>2020-01-02T11:19:38Z</time>
      </trkpt>
      <trkpt lat="39.6052150" lon="2.3960710">
        <ele>312.4</ele>
        <time>2020-01-02T11:19:41Z</time>
      </trkpt>
      <trkpt lat="39.6052400" lon="2.3960780">
        <ele>312.0</ele>
        <time>2020-01-02T11:19:43Z</time>
      </trkpt>
      <trkpt lat="39.6053120" lon="2.3960970">
        <ele>310.8</ele>
        <time>2020-01-02T11:19:49Z</time>
      </trkpt>
      <trkpt lat="39.6053620" lon="2.3961100">
        <ele>309.8</ele>
        <time>2020-01-02T11:19:54Z</time>
      </trkpt>
      <trkpt lat="39.6054000" lon="2.3961690">
        <ele>309.2</ele>
        <time>2020-01-02T11:19:58Z</time>
      </trkpt>
      <trkpt lat="39.6053860" lon="2.3962290">
        <ele>308.8</ele>
        <time>2020-01-02T11:20:02Z</time>
      </trkpt>
      <trkpt lat="39.6052710" lon="2.3963400">
        <ele>307.8</ele>
        <time>2020-01-02T11:20:15Z</time>
      </trkpt>
      <trkpt lat="39.6052020" lon="2.3963960">
        <ele>306.6</ele>
        <time>2020-01-02T11:20:23Z</time>
      </trkpt>
      <trkpt lat="39.6050990" lon="2.3965130">
        <ele>305.6</ele>
        <time>2020-01-02T11:20:34Z</time>
      </trkpt>
      <trkpt lat="39.6050400" lon="2.3965780">
        <ele>304.4</ele>
        <time>2020-01-02T11:20:40Z</time>
      </trkpt>
      <trkpt lat="39.6049640" lon="2.3966910">
        <ele>303.4</ele>
        <time>2020-01-02T11:20:48Z</time>
      </trkpt>
      <trkpt lat="39.6049370" lon="2.3967820">
        <ele>302.2</ele>
        <time>2020-01-02T11:20:54Z</time>
      </trkpt>
      <trkpt lat="39.6048760" lon="2.3969980">
        <ele>301.4</ele>
        <time>2020-01-02T11:21:09Z</time>
      </trkpt>
      <trkpt lat="39.6048410" lon="2.3972000">
        <ele>300.0</ele>
        <time>2020-01-02T11:21:22Z</time>
      </trkpt>
      <trkpt lat="39.6048720" lon="2.3974160">
        <ele>299.0</ele>
        <time>2020-01-02T11:21:36Z</time>
      </trkpt>
      <trkpt lat="39.6049330" lon="2.3976000">
        <ele>297.8</ele>
        <time>2020-01-02T11:21:49Z</time>
      </trkpt>
      <trkpt lat="39.6049800" lon="2.3976950">
        <ele>297.2</ele>
        <time>2020-01-02T11:21:57Z</time>
      </trkpt>
      <trkpt lat="39.6049970" lon="2.3977790">
        <ele>296.8</ele>
        <time>2020-01-02T11:22:07Z</time>
      </trkpt>
      <trkpt lat="39.6050890" lon="2.3979350">
        <ele>296.2</ele>
        <time>2020-01-02T11:22:20Z</time>
      </trkpt>
      <trkpt lat="39.6051650" lon="2.3980660">
        <ele>295.8</ele>
        <time>2020-01-02T11:22:30Z</time>
      </trkpt>
      <trkpt lat="39.6054070" lon="2.3985650">
        <ele>296.6</ele>
        <time>2020-01-02T11:23:06Z</time>
      </trkpt>
      <trkpt lat="39.6055700" lon="2.3988660">
        <ele>296.8</ele>
        <time>2020-01-02T11:23:28Z</time>
      </trkpt>
      <trkpt lat="39.6058170" lon="2.3993530">
        <ele>296.6</ele>
        <time>2020-01-02T11:24:02Z</time>
      </trkpt>
      <trkpt lat="39.6058470" lon="2.3994300">
        <ele>295.8</ele>
        <time>2020-01-02T11:24:08Z</time>
      </trkpt>
      <trkpt lat="39.6059350" lon="2.3995810">
        <ele>295.4</ele>
        <time>2020-01-02T11:24:19Z</time>
      </trkpt>
      <trkpt lat="39.6060640" lon="2.3998130">
        <ele>295.0</ele>
        <time>2020-01-02T11:24:37Z</time>
      </trkpt>
      <trkpt lat="39.6060600" lon="2.3998150">
        <ele>294.8</ele>
        <time>2020-01-02T11:24:46Z</time>
      </trkpt>
      <trkpt lat="39.6061120" lon="2.3998810">
        <ele>294.2</ele>
        <time>2020-01-02T11:25:28Z</time>
      </trkpt>
      <trkpt lat="39.6061480" lon="2.3999510">
        <ele>293.8</ele>
        <time>2020-01-02T11:25:34Z</time>
      </trkpt>
      <trkpt lat="39.6062120" lon="2.4000870">
        <ele>293.2</ele>
        <time>2020-01-02T11:25:44Z</time>
      </trkpt>
      <trkpt lat="39.6062260" lon="2.4001140">
        <ele>292.8</ele>
        <time>2020-01-02T11:25:46Z</time>
      </trkpt>
      <trkpt lat="39.6063180" lon="2.4002390">
        <ele>291.6</ele>
        <time>2020-01-02T11:25:56Z</time>
      </trkpt>
      <trkpt lat="39.6063740" lon="2.4003580">
        <ele>290.6</ele>
        <time>2020-01-02T11:26:05Z</time>
      </trkpt>
      <trkpt lat="39.6064090" lon="2.4004130">
        <ele>289.6</ele>
        <time>2020-01-02T11:26:11Z</time>
      </trkpt>
      <trkpt lat="39.6064090" lon="2.4004240">
        <ele>289.4</ele>
        <time>2020-01-02T11:26:12Z</time>
      </trkpt>
      <trkpt lat="39.6064840" lon="2.4005540">
        <ele>288.4</ele>
        <time>2020-01-02T11:26:22Z</time>
      </trkpt>
      <trkpt lat="39.6066830" lon="2.4009780">
        <ele>289.2</ele>
        <time>2020-01-02T11:26:51Z</time>
      </trkpt>
      <trkpt lat="39.6067350" lon="2.4010820">
        <ele>289.4</ele>
        <time>2020-01-02T11:26:58Z</time>
      </trkpt>
      <trkpt lat="39.6069580" lon="2.4014500">
        <ele>289.6</ele>
        <time>2020-01-02T11:27:26Z</time>
      </trkpt>
      <trkpt lat="39.6071380" lon="2.4019800">
        <ele>290.0</ele>
        <time>2020-01-02T11:28:05Z</time>
      </trkpt>
      <trkpt lat="39.6071200" lon="2.4022600">
        <ele>290.6</ele>
        <time>2020-01-02T11:28:23Z</time>
      </trkpt>
      <trkpt lat="39.6070970" lon="2.4024530">
        <ele>291.6</ele>
        <time>2020-01-02T11:28:34Z</time>
      </trkpt>
      <trkpt lat="39.6070900" lon="2.4025730">
        <ele>292.6</ele>
        <time>2020-01-02T11:28:41Z</time>
      </trkpt>
      <trkpt lat="39.6070750" lon="2.4027360">
        <ele>293.6</ele>
        <time>2020-01-02T11:28:51Z</time>
      </trkpt>
      <trkpt lat="39.6070720" lon="2.4027690">
        <ele>294.0</ele>
        <time>2020-01-02T11:28:53Z</time>
      </trkpt>
      <trkpt lat="39.6070420" lon="2.4028850">
        <ele>295.2</ele>
        <time>2020-01-02T11:29:00Z</time>
      </trkpt>
      <trkpt lat="39.6070250" lon="2.4029640">
        <ele>295.2</ele>
        <time>2020-01-02T11:29:05Z</time>
      </trkpt>
      <trkpt lat="39.6070220" lon="2.4030180">
        <ele>295.4</ele>
        <time>2020-01-02T11:29:08Z</time>
      </trkpt>
      <trkpt lat="39.6069850" lon="2.4031060">
        <ele>296.0</ele>
        <time>2020-01-02T11:29:14Z</time>
      </trkpt>
      <trkpt lat="39.6069550" lon="2.4032100">
        <ele>297.0</ele>
        <time>2020-01-02T11:29:21Z</time>
      </trkpt>
      <trkpt lat="39.6069400" lon="2.4033170">
        <ele>298.0</ele>
        <time>2020-01-02T11:29:28Z</time>
      </trkpt>
      <trkpt lat="39.6069370" lon="2.4033330">
        <ele>298.0</ele>
        <time>2020-01-02T11:29:29Z</time>
      </trkpt>
      <trkpt lat="39.6069190" lon="2.4034540">
        <ele>299.2</ele>
        <time>2020-01-02T11:29:37Z</time>
      </trkpt>
      <trkpt lat="39.6069270" lon="2.4035830">
        <ele>300.4</ele>
        <time>2020-01-02T11:29:45Z</time>
      </trkpt>
      <trkpt lat="39.6069680" lon="2.4038500">
        <ele>301.4</ele>
        <time>2020-01-02T11:30:01Z</time>
      </trkpt>
      <trkpt lat="39.6070070" lon="2.4040540">
        <ele>302.4</ele>
        <time>2020-01-02T11:30:14Z</time>
      </trkpt>
      <trkpt lat="39.6070150" lon="2.4040860">
        <ele>302.6</ele>
        <time>2020-01-02T11:30:16Z</time>
      </trkpt>
      <trkpt lat="39.6070560" lon="2.4042250">
        <ele>303.2</ele>
        <time>2020-01-02T11:30:25Z</time>
      </trkpt>
      <trkpt lat="39.6072410" lon="2.4044200">
        <ele>301.4</ele>
        <time>2020-01-02T11:30:44Z</time>
      </trkpt>
      <trkpt lat="39.6073080" lon="2.4044630">
        <ele>300.8</ele>
        <time>2020-01-02T11:30:50Z</time>
      </trkpt>
      <trkpt lat="39.6073220" lon="2.4044820">
        <ele>300.4</ele>
        <time>2020-01-02T11:30:52Z</time>
      </trkpt>
      <trkpt lat="39.6073360" lon="2.4044960">
        <ele>299.0</ele>
        <time>2020-01-02T11:30:54Z</time>
      </trkpt>
      <trkpt lat="39.6074240" lon="2.4045780">
        <ele>298.0</ele>
        <time>2020-01-02T11:31:03Z</time>
      </trkpt>
      <trkpt lat="39.6074460" lon="2.4046040">
        <ele>297.8</ele>
        <time>2020-01-02T11:31:06Z</time>
      </trkpt>
      <trkpt lat="39.6075990" lon="2.4048470">
        <ele>296.8</ele>
        <time>2020-01-02T11:31:25Z</time>
      </trkpt>
      <trkpt lat="39.6076740" lon="2.4051190">
        <ele>295.8</ele>
        <time>2020-01-02T11:31:45Z</time>
      </trkpt>
      <trkpt lat="39.6076630" lon="2.4051950">
        <ele>295.4</ele>
        <time>2020-01-02T11:31:50Z</time>
      </trkpt>
      <trkpt lat="39.6076620" lon="2.4052300">
        <ele>295.4</ele>
        <time>2020-01-02T11:31:53Z</time>
      </trkpt>
      <trkpt lat="39.6074930" lon="2.4055910">
        <ele>296.8</ele>
        <time>2020-01-02T11:32:18Z</time>
      </trkpt>
      <trkpt lat="39.6073760" lon="2.4057770">
        <ele>298.0</ele>
        <time>2020-01-02T11:32:32Z</time>
      </trkpt>
      <trkpt lat="39.6070650" lon="2.4059380">
        <ele>296.8</ele>
        <time>2020-01-02T11:32:59Z</time>
      </trkpt>
      <trkpt lat="39.6067220" lon="2.4060630">
        <ele>295.6</ele>
        <time>2020-01-02T11:33:25Z</time>
      </trkpt>
      <trkpt lat="39.6066540" lon="2.4060840">
        <ele>294.4</ele>
        <time>2020-01-02T11:33:31Z</time>
      </trkpt>
      <trkpt lat="39.6066110" lon="2.4060930">
        <ele>293.8</ele>
        <time>2020-01-02T11:33:35Z</time>
      </trkpt>
      <trkpt lat="39.6065870" lon="2.4061000">
        <ele>293.4</ele>
        <time>2020-01-02T11:33:37Z</time>
      </trkpt>
      <trkpt lat="39.6065190" lon="2.4061220">
        <ele>292.2</ele>
        <time>2020-01-02T11:33:42Z</time>
      </trkpt>
      <trkpt lat="39.6064490" lon="2.4061360">
        <ele>291.2</ele>
        <time>2020-01-02T11:33:47Z</time>
      </trkpt>
      <trkpt lat="39.6063830" lon="2.4061530">
        <ele>290.0</ele>
        <time>2020-01-02T11:33:52Z</time>
      </trkpt>
      <trkpt lat="39.6063080" lon="2.4061630">
        <ele>288.6</ele>
        <time>2020-01-02T11:33:57Z</time>
      </trkpt>
      <trkpt lat="39.6062340" lon="2.4061540">
        <ele>287.4</ele>
        <time>2020-01-02T11:34:03Z</time>
      </trkpt>
      <trkpt lat="39.6061850" lon="2.4061460">
        <ele>286.4</ele>
        <time>2020-01-02T11:34:08Z</time>
      </trkpt>
      <trkpt lat="39.6061280" lon="2.4061300">
        <ele>285.2</ele>
        <time>2020-01-02T11:34:13Z</time>
      </trkpt>
      <trkpt lat="39.6060030" lon="2.4060920">
        <ele>284.2</ele>
        <time>2020-01-02T11:34:23Z</time>
      </trkpt>
      <trkpt lat="39.6056360" lon="2.4061610">
        <ele>284.4</ele>
        <time>2020-01-02T11:34:53Z</time>
      </trkpt>
      <trkpt lat="39.6055530" lon="2.4062120">
        <ele>285.0</ele>
        <time>2020-01-02T11:35:01Z</time>
      </trkpt>
      <trkpt lat="39.6054950" lon="2.4062520">
        <ele>285.2</ele>
        <time>2020-01-02T11:35:07Z</time>
      </trkpt>
      <trkpt lat="39.6053010" lon="2.4065260">
        <ele>286.4</ele>
        <time>2020-01-02T11:35:26Z</time>
      </trkpt>
      <trkpt lat="39.6051660" lon="2.4067870">
        <ele>287.4</ele>
        <time>2020-01-02T11:35:42Z</time>
      </trkpt>
      <trkpt lat="39.6050250" lon="2.4070920">
        <ele>286.4</ele>
        <time>2020-01-02T11:36:04Z</time>
      </trkpt>
      <trkpt lat="39.6049120" lon="2.4072870">
        <ele>286.8</ele>
        <time>2020-01-02T11:36:17Z</time>
      </trkpt>
      <trkpt lat="39.6047310" lon="2.4076970">
        <ele>287.4</ele>
        <time>2020-01-02T11:36:42Z</time>
      </trkpt>
      <trkpt lat="39.6048140" lon="2.4082630">
        <ele>288.2</ele>
        <time>2020-01-02T11:37:17Z</time>
      </trkpt>
      <trkpt lat="39.6048040" lon="2.4083920">
        <ele>288.4</ele>
        <time>2020-01-02T11:37:25Z</time>
      </trkpt>
      <trkpt lat="39.6047530" lon="2.4087630">
        <ele>289.2</ele>
        <time>2020-01-02T11:37:49Z</time>
      </trkpt>
      <trkpt lat="39.6047160" lon="2.4087730">
        <ele>289.4</ele>
        <time>2020-01-02T11:37:53Z</time>
      </trkpt>
      <trkpt lat="39.6047110" lon="2.4087730">
        <ele>289.4</ele>
        <time>2020-01-02T11:37:54Z</time>
      </trkpt>
      <trkpt lat="39.6047060" lon="2.4087720">
        <ele>289.6</ele>
        <time>2020-01-02T11:37:55Z</time>
      </trkpt>
      <trkpt lat="39.6047160" lon="2.4087560">
        <ele>288.4</ele>
        <time>2020-01-02T11:38:24Z</time>
      </trkpt>
      <trkpt lat="39.6047920" lon="2.4088430">
        <ele>288.4</ele>
        <time>2020-01-02T11:38:33Z</time>
      </trkpt>
      <trkpt lat="39.6049520" lon="2.4087520">
        <ele>288.4</ele>
        <time>2020-01-02T11:38:49Z</time>
      </trkpt>
      <trkpt lat="39.6049710" lon="2.4087500">
        <ele>288.4</ele>
        <time>2020-01-02T11:38:52Z</time>
      </trkpt>
      <trkpt lat="39.6049780" lon="2.4087440">
        <ele>287.2</ele>
        <time>2020-01-02T11:39:20Z</time>
      </trkpt>
      <trkpt lat="39.6049770" lon="2.4087430">
        <ele>288.6</ele>
        <time>2020-01-02T11:39:28Z</time>
      </trkpt>
      <trkpt lat="39.6050740" lon="2.4087020">
        <ele>289.2</ele>
        <time>2020-01-02T11:40:22Z</time>
      </trkpt>
      <trkpt lat="39.6050880" lon="2.4087110">
        <ele>289.6</ele>
        <time>2020-01-02T11:40:24Z</time>
      </trkpt>
      <trkpt lat="39.6051110" lon="2.4087070">
        <ele>289.6</ele>
        <time>2020-01-02T11:40:27Z</time>
      </trkpt>
      <trkpt lat="39.6051180" lon="2.4087040">
        <ele>289.6</ele>
        <time>2020-01-02T11:40:36Z</time>
      </trkpt>
      <trkpt lat="39.6051180" lon="2.4087080">
        <ele>290.8</ele>
        <time>2020-01-02T11:41:06Z</time>
      </trkpt>
      <trkpt lat="39.6051140" lon="2.4087080">
        <ele>292.2</ele>
        <time>2020-01-02T11:41:19Z</time>
      </trkpt>
      <trkpt lat="39.6050090" lon="2.4087310">
        <ele>291.4</ele>
        <time>2020-01-02T11:41:33Z</time>
      </trkpt>
      <trkpt lat="39.6049640" lon="2.4087620">
        <ele>292.0</ele>
        <time>2020-01-02T11:41:38Z</time>
      </trkpt>
      <trkpt lat="39.6049550" lon="2.4087640">
        <ele>293.4</ele>
        <time>2020-01-02T11:42:15Z</time>
      </trkpt>
      <trkpt lat="39.6049530" lon="2.4087620">
        <ele>294.4</ele>
        <time>2020-01-02T11:42:34Z</time>
      </trkpt>
      <trkpt lat="39.6049530" lon="2.4087600">
        <ele>295.4</ele>
        <time>2020-01-02T11:42:46Z</time>
      </trkpt>
      <trkpt lat="39.6049540" lon="2.4087480">
        <ele>296.2</ele>
        <time>2020-01-02T11:43:01Z</time>
      </trkpt>
      <trkpt lat="39.6049500" lon="2.4087500">
        <ele>310.0</ele>
        <time>2020-01-02T11:47:56Z</time>
      </trkpt>
      <trkpt lat="39.6049500" lon="2.4087490">
        <ele>310.6</ele>
        <time>2020-01-02T11:48:00Z</time>
      </trkpt>
      <trkpt lat="39.6049500" lon="2.4087490">
        <ele>306.6</ele>
        <time>2020-01-02T11:54:27Z</time>
      </trkpt>
      <trkpt lat="39.6049690" lon="2.4086610">
        <ele>301.2</ele>
        <time>2020-01-02T11:54:28Z</time>
      </trkpt>
      <trkpt lat="39.6049680" lon="2.4086820">
        <ele>299.2</ele>
        <time>2020-01-02T11:54:29Z</time>
      </trkpt>
      <trkpt lat="39.6049630" lon="2.4087060">
        <ele>298.0</ele>
        <time>2020-01-02T11:54:32Z</time>
      </trkpt>
      <trkpt lat="39.6049800" lon="2.4087190">
        <ele>297.8</ele>
        <time>2020-01-02T11:54:37Z</time>
      </trkpt>
      <trkpt lat="39.6049850" lon="2.4086770">
        <ele>296.8</ele>
        <time>2020-01-02T11:54:44Z</time>
      </trkpt>
      <trkpt lat="39.6049840" lon="2.4086540">
        <ele>295.8</ele>
        <time>2020-01-02T11:54:47Z</time>
      </trkpt>
      <trkpt lat="39.6049800" lon="2.4086300">
        <ele>295.0</ele>
        <time>2020-01-02T11:54:51Z</time>
      </trkpt>
      <trkpt lat="39.6049670" lon="2.4086040">
        <ele>293.8</ele>
        <time>2020-01-02T11:54:54Z</time>
      </trkpt>
      <trkpt lat="39.6049560" lon="2.4085820">
        <ele>293.2</ele>
        <time>2020-01-02T11:54:56Z</time>
      </trkpt>
      <trkpt lat="39.6048530" lon="2.4085090">
        <ele>292.6</ele>
        <time>2020-01-02T11:55:08Z</time>
      </trkpt>
      <trkpt lat="39.6048160" lon="2.4084700">
        <ele>291.4</ele>
        <time>2020-01-02T11:55:36Z</time>
      </trkpt>
      <trkpt lat="39.6048130" lon="2.4084710">
        <ele>290.6</ele>
        <time>2020-01-02T11:55:47Z</time>
      </trkpt>
      <trkpt lat="39.6047880" lon="2.4082230">
        <ele>289.6</ele>
        <time>2020-01-02T11:56:16Z</time>
      </trkpt>
      <trkpt lat="39.6047560" lon="2.4080810">
        <ele>288.4</ele>
        <time>2020-01-02T11:56:27Z</time>
      </trkpt>
      <trkpt lat="39.6047140" lon="2.4078890">
        <ele>287.4</ele>
        <time>2020-01-02T11:56:42Z</time>
      </trkpt>
      <trkpt lat="39.6047390" lon="2.4076480">
        <ele>286.2</ele>
        <time>2020-01-02T11:56:59Z</time>
      </trkpt>
      <trkpt lat="39.6047440" lon="2.4076460">
        <ele>286.4</ele>
        <time>2020-01-02T11:57:01Z</time>
      </trkpt>
      <trkpt lat="39.6047890" lon="2.4077110">
        <ele>285.0</ele>
        <time>2020-01-02T11:57:12Z</time>
      </trkpt>
      <trkpt lat="39.6048180" lon="2.4077280">
        <ele>283.8</ele>
        <time>2020-01-02T11:57:15Z</time>
      </trkpt>
      <trkpt lat="39.6048470" lon="2.4077390">
        <ele>282.8</ele>
        <time>2020-01-02T11:57:19Z</time>
      </trkpt>
      <trkpt lat="39.6048600" lon="2.4077520">
        <ele>282.4</ele>
        <time>2020-01-02T11:57:21Z</time>
      </trkpt>
      <trkpt lat="39.6048690" lon="2.4077920">
        <ele>281.8</ele>
        <time>2020-01-02T11:57:24Z</time>
      </trkpt>
      <trkpt lat="39.6048780" lon="2.4078560">
        <ele>281.4</ele>
        <time>2020-01-02T11:57:29Z</time>
      </trkpt>
      <trkpt lat="39.6049220" lon="2.4079370">
        <ele>280.6</ele>
        <time>2020-01-02T11:57:48Z</time>
      </trkpt>
      <trkpt lat="39.6049580" lon="2.4080310">
        <ele>280.0</ele>
        <time>2020-01-02T11:57:57Z</time>
      </trkpt>
      <trkpt lat="39.6050050" lon="2.4081450">
        <ele>279.6</ele>
        <time>2020-01-02T11:58:09Z</time>
      </trkpt>
      <trkpt lat="39.6050480" lon="2.4082110">
        <ele>278.4</ele>
        <time>2020-01-02T11:58:15Z</time>
      </trkpt>
      <trkpt lat="39.6050980" lon="2.4082560">
        <ele>277.4</ele>
        <time>2020-01-02T11:58:21Z</time>
      </trkpt>
      <trkpt lat="39.6051760" lon="2.4083020">
        <ele>276.2</ele>
        <time>2020-01-02T11:58:29Z</time>
      </trkpt>
      <trkpt lat="39.6052420" lon="2.4083650">
        <ele>275.2</ele>
        <time>2020-01-02T11:58:36Z</time>
      </trkpt>
      <trkpt lat="39.6053560" lon="2.4084560">
        <ele>274.0</ele>
        <time>2020-01-02T11:58:48Z</time>
      </trkpt>
      <trkpt lat="39.6054000" lon="2.4084940">
        <ele>272.8</ele>
        <time>2020-01-02T11:58:53Z</time>
      </trkpt>
      <trkpt lat="39.6054410" lon="2.4085300">
        <ele>271.8</ele>
        <time>2020-01-02T11:58:57Z</time>
      </trkpt>
      <trkpt lat="39.6054500" lon="2.4085520">
        <ele>271.4</ele>
        <time>2020-01-02T11:58:59Z</time>
      </trkpt>
      <trkpt lat="39.6054660" lon="2.4085740">
        <ele>270.6</ele>
        <time>2020-01-02T11:59:02Z</time>
      </trkpt>
      <trkpt lat="39.6055030" lon="2.4086050">
        <ele>269.4</ele>
        <time>2020-01-02T11:59:06Z</time>
      </trkpt>
      <trkpt lat="39.6056020" lon="2.4086690">
        <ele>268.2</ele>
        <time>2020-01-02T11:59:15Z</time>
      </trkpt>
      <trkpt lat="39.6056750" lon="2.4086940">
        <ele>267.0</ele>
        <time>2020-01-02T11:59:21Z</time>
      </trkpt>
      <trkpt lat="39.6057460" lon="2.4086710">
        <ele>266.0</ele>
        <time>2020-01-02T11:59:27Z</time>
      </trkpt>
      <trkpt lat="39.6057530" lon="2.4086600">
        <ele>265.8</ele>
        <time>2020-01-02T11:59:28Z</time>
      </trkpt>
      <trkpt lat="39.6057570" lon="2.4086360">
        <ele>265.6</ele>
        <time>2020-01-02T11:59:30Z</time>
      </trkpt>
      <trkpt lat="39.6057280" lon="2.4085890">
        <ele>264.8</ele>
        <time>2020-01-02T11:59:34Z</time>
      </trkpt>
      <trkpt lat="39.6056750" lon="2.4085280">
        <ele>263.6</ele>
        <time>2020-01-02T11:59:40Z</time>
      </trkpt>
      <trkpt lat="39.6056200" lon="2.4084600">
        <ele>262.6</ele>
        <time>2020-01-02T11:59:46Z</time>
      </trkpt>
      <trkpt lat="39.6055870" lon="2.4084090">
        <ele>261.4</ele>
        <time>2020-01-02T11:59:50Z</time>
      </trkpt>
      <trkpt lat="39.6055580" lon="2.4083450">
        <ele>260.2</ele>
        <time>2020-01-02T11:59:55Z</time>
      </trkpt>
      <trkpt lat="39.6055640" lon="2.4083250">
        <ele>259.8</ele>
        <time>2020-01-02T11:59:57Z</time>
      </trkpt>
      <trkpt lat="39.6055790" lon="2.4083200">
        <ele>259.2</ele>
        <time>2020-01-02T11:59:59Z</time>
      </trkpt>
      <trkpt lat="39.6056280" lon="2.4083530">
        <ele>258.2</ele>
        <time>2020-01-02T12:00:04Z</time>
      </trkpt>
      <trkpt lat="39.6056680" lon="2.4083670">
        <ele>257.0</ele>
        <time>2020-01-02T12:00:08Z</time>
      </trkpt>
      <trkpt lat="39.6056840" lon="2.4083580">
        <ele>256.6</ele>
        <time>2020-01-02T12:00:10Z</time>
      </trkpt>
      <trkpt lat="39.6057040" lon="2.4083200">
        <ele>256.0</ele>
        <time>2020-01-02T12:00:13Z</time>
      </trkpt>
      <trkpt lat="39.6057300" lon="2.4082480">
        <ele>254.8</ele>
        <time>2020-01-02T12:00:18Z</time>
      </trkpt>
      <trkpt lat="39.6057590" lon="2.4082280">
        <ele>254.2</ele>
        <time>2020-01-02T12:00:21Z</time>
      </trkpt>
      <trkpt lat="39.6057820" lon="2.4082260">
        <ele>253.6</ele>
        <time>2020-01-02T12:00:23Z</time>
      </trkpt>
      <trkpt lat="39.6058580" lon="2.4082370">
        <ele>252.6</ele>
        <time>2020-01-02T12:00:30Z</time>
      </trkpt>
      <trkpt lat="39.6059250" lon="2.4081970">
        <ele>251.6</ele>
        <time>2020-01-02T12:00:37Z</time>
      </trkpt>
      <trkpt lat="39.6059350" lon="2.4081930">
        <ele>251.6</ele>
        <time>2020-01-02T12:00:39Z</time>
      </trkpt>
      <trkpt lat="39.6059710" lon="2.4081700">
        <ele>250.6</ele>
        <time>2020-01-02T12:00:52Z</time>
      </trkpt>
      <trkpt lat="39.6059790" lon="2.4081480">
        <ele>249.6</ele>
        <time>2020-01-02T12:01:07Z</time>
      </trkpt>
      <trkpt lat="39.6060020" lon="2.4080690">
        <ele>248.6</ele>
        <time>2020-01-02T12:01:18Z</time>
      </trkpt>
      <trkpt lat="39.6060340" lon="2.4079940">
        <ele>247.4</ele>
        <time>2020-01-02T12:01:24Z</time>
      </trkpt>
      <trkpt lat="39.6060640" lon="2.4079120">
        <ele>246.2</ele>
        <time>2020-01-02T12:01:30Z</time>
      </trkpt>
      <trkpt lat="39.6061000" lon="2.4078310">
        <ele>245.2</ele>
        <time>2020-01-02T12:01:36Z</time>
      </trkpt>
      <trkpt lat="39.6061410" lon="2.4077800">
        <ele>244.0</ele>
        <time>2020-01-02T12:01:41Z</time>
      </trkpt>
      <trkpt lat="39.6062190" lon="2.4077300">
        <ele>243.0</ele>
        <time>2020-01-02T12:01:49Z</time>
      </trkpt>
      <trkpt lat="39.6063030" lon="2.4077140">
        <ele>241.8</ele>
        <time>2020-01-02T12:01:57Z</time>
      </trkpt>
      <trkpt lat="39.6065000" lon="2.4077060">
        <ele>240.8</ele>
        <time>2020-01-02T12:02:13Z</time>
      </trkpt>
      <trkpt lat="39.6066710" lon="2.4077060">
        <ele>240.2</ele>
        <time>2020-01-02T12:02:25Z</time>
      </trkpt>
      <trkpt lat="39.6067470" lon="2.4077250">
        <ele>239.8</ele>
        <time>2020-01-02T12:02:31Z</time>
      </trkpt>
      <trkpt lat="39.6068160" lon="2.4077420">
        <ele>238.6</ele>
        <time>2020-01-02T12:02:36Z</time>
      </trkpt>
      <trkpt lat="39.6069120" lon="2.4077470">
        <ele>237.4</ele>
        <time>2020-01-02T12:02:43Z</time>
      </trkpt>
      <trkpt lat="39.6069860" lon="2.4077440">
        <ele>236.4</ele>
        <time>2020-01-02T12:02:50Z</time>
      </trkpt>
      <trkpt lat="39.6070970" lon="2.4077610">
        <ele>235.4</ele>
        <time>2020-01-02T12:03:00Z</time>
      </trkpt>
      <trkpt lat="39.6071790" lon="2.4077880">
        <ele>234.2</ele>
        <time>2020-01-02T12:03:06Z</time>
      </trkpt>
      <trkpt lat="39.6072530" lon="2.4078130">
        <ele>233.0</ele>
        <time>2020-01-02T12:03:12Z</time>
      </trkpt>
      <trkpt lat="39.6073180" lon="2.4078430">
        <ele>232.0</ele>
        <time>2020-01-02T12:03:17Z</time>
      </trkpt>
      <trkpt lat="39.6073790" lon="2.4078510">
        <ele>230.8</ele>
        <time>2020-01-02T12:03:22Z</time>
      </trkpt>
      <trkpt lat="39.6074410" lon="2.4078380">
        <ele>229.6</ele>
        <time>2020-01-02T12:03:28Z</time>
      </trkpt>
      <trkpt lat="39.6075200" lon="2.4077970">
        <ele>228.6</ele>
        <time>2020-01-02T12:03:35Z</time>
      </trkpt>
      <trkpt lat="39.6075350" lon="2.4077950">
        <ele>228.4</ele>
        <time>2020-01-02T12:03:36Z</time>
      </trkpt>
      <trkpt lat="39.6075570" lon="2.4078170">
        <ele>227.4</ele>
        <time>2020-01-02T12:03:39Z</time>
      </trkpt>
      <trkpt lat="39.6075200" lon="2.4078610">
        <ele>226.4</ele>
        <time>2020-01-02T12:03:46Z</time>
      </trkpt>
      <trkpt lat="39.6075400" lon="2.4079000">
        <ele>225.4</ele>
        <time>2020-01-02T12:03:55Z</time>
      </trkpt>
      <trkpt lat="39.6076000" lon="2.4078730">
        <ele>224.0</ele>
        <time>2020-01-02T12:04:03Z</time>
      </trkpt>
      <trkpt lat="39.6076740" lon="2.4078650">
        <ele>223.0</ele>
        <time>2020-01-02T12:04:10Z</time>
      </trkpt>
      <trkpt lat="39.6077410" lon="2.4078620">
        <ele>222.0</ele>
        <time>2020-01-02T12:04:16Z</time>
      </trkpt>
      <trkpt lat="39.6078190" lon="2.4078670">
        <ele>220.8</ele>
        <time>2020-01-02T12:04:23Z</time>
      </trkpt>
      <trkpt lat="39.6079110" lon="2.4078670">
        <ele>219.8</ele>
        <time>2020-01-02T12:04:34Z</time>
      </trkpt>
      <trkpt lat="39.6079590" lon="2.4078590">
        <ele>218.8</ele>
        <time>2020-01-02T12:04:40Z</time>
      </trkpt>
      <trkpt lat="39.6080330" lon="2.4078430">
        <ele>217.8</ele>
        <time>2020-01-02T12:04:50Z</time>
      </trkpt>
      <trkpt lat="39.6080500" lon="2.4078400">
        <ele>217.6</ele>
        <time>2020-01-02T12:04:51Z</time>
      </trkpt>
      <trkpt lat="39.6081200" lon="2.4078590">
        <ele>216.6</ele>
        <time>2020-01-02T12:04:58Z</time>
      </trkpt>
      <trkpt lat="39.6081190" lon="2.4078710">
        <ele>216.4</ele>
        <time>2020-01-02T12:04:59Z</time>
      </trkpt>
      <trkpt lat="39.6081090" lon="2.4078810">
        <ele>216.4</ele>
        <time>2020-01-02T12:05:00Z</time>
      </trkpt>
      <trkpt lat="39.6079910" lon="2.4079820">
        <ele>217.4</ele>
        <time>2020-01-02T12:05:12Z</time>
      </trkpt>
      <trkpt lat="39.6079490" lon="2.4080100">
        <ele>218.6</ele>
        <time>2020-01-02T12:05:16Z</time>
      </trkpt>
      <trkpt lat="39.6077770" lon="2.4081390">
        <ele>219.6</ele>
        <time>2020-01-02T12:05:32Z</time>
      </trkpt>
      <trkpt lat="39.6077720" lon="2.4081630">
        <ele>219.8</ele>
        <time>2020-01-02T12:05:34Z</time>
      </trkpt>
      <trkpt lat="39.6077750" lon="2.4081820">
        <ele>220.2</ele>
        <time>2020-01-02T12:05:36Z</time>
      </trkpt>
      <trkpt lat="39.6079950" lon="2.4082380">
        <ele>218.4</ele>
        <time>2020-01-02T12:06:02Z</time>
      </trkpt>
      <trkpt lat="39.6081440" lon="2.4081950">
        <ele>217.4</ele>
        <time>2020-01-02T12:06:14Z</time>
      </trkpt>
      <trkpt lat="39.6083210" lon="2.4081870">
        <ele>216.4</ele>
        <time>2020-01-02T12:06:29Z</time>
      </trkpt>
      <trkpt lat="39.6084430" lon="2.4081320">
        <ele>215.2</ele>
        <time>2020-01-02T12:06:38Z</time>
      </trkpt>
      <trkpt lat="39.6088130" lon="2.4081560">
        <ele>216.4</ele>
        <time>2020-01-02T12:07:09Z</time>
      </trkpt>
      <trkpt lat="39.6088910" lon="2.4082200">
        <ele>217.8</ele>
        <time>2020-01-02T12:07:17Z</time>
      </trkpt>
      <trkpt lat="39.6089640" lon="2.4082770">
        <ele>218.8</ele>
        <time>2020-01-02T12:07:25Z</time>
      </trkpt>
      <trkpt lat="39.6090250" lon="2.4083180">
        <ele>219.8</ele>
        <time>2020-01-02T12:07:31Z</time>
      </trkpt>
      <trkpt lat="39.6094040" lon="2.4085240">
        <ele>218.8</ele>
        <time>2020-01-02T12:08:05Z</time>
      </trkpt>
      <trkpt lat="39.6094660" lon="2.4085870">
        <ele>219.2</ele>
        <time>2020-01-02T12:08:11Z</time>
      </trkpt>
      <trkpt lat="39.6094920" lon="2.4085990">
        <ele>219.8</ele>
        <time>2020-01-02T12:08:14Z</time>
      </trkpt>
      <trkpt lat="39.6095090" lon="2.4086060">
        <ele>220.0</ele>
        <time>2020-01-02T12:08:15Z</time>
      </trkpt>
      <trkpt lat="39.6096300" lon="2.4087340">
        <ele>221.0</ele>
        <time>2020-01-02T12:08:28Z</time>
      </trkpt>
      <trkpt lat="39.6096650" lon="2.4088130">
        <ele>222.0</ele>
        <time>2020-01-02T12:08:34Z</time>
      </trkpt>
      <trkpt lat="39.6097310" lon="2.4090810">
        <ele>220.8</ele>
        <time>2020-01-02T12:08:51Z</time>
      </trkpt>
      <trkpt lat="39.6097450" lon="2.4091480">
        <ele>219.6</ele>
        <time>2020-01-02T12:08:55Z</time>
      </trkpt>
      <trkpt lat="39.6097640" lon="2.4092040">
        <ele>218.6</ele>
        <time>2020-01-02T12:08:59Z</time>
      </trkpt>
      <trkpt lat="39.6097960" lon="2.4092660">
        <ele>217.4</ele>
        <time>2020-01-02T12:09:03Z</time>
      </trkpt>
      <trkpt lat="39.6098520" lon="2.4093620">
        <ele>216.4</ele>
        <time>2020-01-02T12:09:11Z</time>
      </trkpt>
      <trkpt lat="39.6099070" lon="2.4094950">
        <ele>216.6</ele>
        <time>2020-01-02T12:09:22Z</time>
      </trkpt>
      <trkpt lat="39.6101750" lon="2.4098550">
        <ele>215.2</ele>
        <time>2020-01-02T12:10:03Z</time>
      </trkpt>
      <trkpt lat="39.6102170" lon="2.4099110">
        <ele>214.2</ele>
        <time>2020-01-02T12:10:08Z</time>
      </trkpt>
      <trkpt lat="39.6102920" lon="2.4099880">
        <ele>213.0</ele>
        <time>2020-01-02T12:10:15Z</time>
      </trkpt>
      <trkpt lat="39.6103320" lon="2.4100400">
        <ele>212.0</ele>
        <time>2020-01-02T12:10:20Z</time>
      </trkpt>
      <trkpt lat="39.6103940" lon="2.4102790">
        <ele>212.8</ele>
        <time>2020-01-02T12:10:37Z</time>
      </trkpt>
      <trkpt lat="39.6104230" lon="2.4102990">
        <ele>213.0</ele>
        <time>2020-01-02T12:10:40Z</time>
      </trkpt>
      <trkpt lat="39.6106970" lon="2.4104620">
        <ele>214.4</ele>
        <time>2020-01-02T12:11:03Z</time>
      </trkpt>
      <trkpt lat="39.6108520" lon="2.4106290">
        <ele>214.8</ele>
        <time>2020-01-02T12:11:19Z</time>
      </trkpt>
      <trkpt lat="39.6109480" lon="2.4107430">
        <ele>215.4</ele>
        <time>2020-01-02T12:11:29Z</time>
      </trkpt>
      <trkpt lat="39.6110940" lon="2.4111430">
        <ele>216.4</ele>
        <time>2020-01-02T12:11:56Z</time>
      </trkpt>
      <trkpt lat="39.6111300" lon="2.4113130">
        <ele>217.4</ele>
        <time>2020-01-02T12:12:06Z</time>
      </trkpt>
      <trkpt lat="39.6112480" lon="2.4114630">
        <ele>218.4</ele>
        <time>2020-01-02T12:12:18Z</time>
      </trkpt>
      <trkpt lat="39.6113090" lon="2.4115520">
        <ele>219.6</ele>
        <time>2020-01-02T12:12:25Z</time>
      </trkpt>
      <trkpt lat="39.6113640" lon="2.4116310">
        <ele>220.6</ele>
        <time>2020-01-02T12:12:31Z</time>
      </trkpt>
      <trkpt lat="39.6114150" lon="2.4117120">
        <ele>221.6</ele>
        <time>2020-01-02T12:12:38Z</time>
      </trkpt>
      <trkpt lat="39.6114830" lon="2.4117870">
        <ele>223.0</ele>
        <time>2020-01-02T12:12:45Z</time>
      </trkpt>
      <trkpt lat="39.6115500" lon="2.4118680">
        <ele>223.8</ele>
        <time>2020-01-02T12:12:52Z</time>
      </trkpt>
      <trkpt lat="39.6116110" lon="2.4119400">
        <ele>225.0</ele>
        <time>2020-01-02T12:12:59Z</time>
      </trkpt>
      <trkpt lat="39.6116690" lon="2.4119920">
        <ele>226.4</ele>
        <time>2020-01-02T12:13:05Z</time>
      </trkpt>
      <trkpt lat="39.6118740" lon="2.4124550">
        <ele>226.0</ele>
        <time>2020-01-02T12:13:38Z</time>
      </trkpt>
      <trkpt lat="39.6118720" lon="2.4127040">
        <ele>227.2</ele>
        <time>2020-01-02T12:13:52Z</time>
      </trkpt>
      <trkpt lat="39.6119080" lon="2.4128580">
        <ele>228.0</ele>
        <time>2020-01-02T12:14:03Z</time>
      </trkpt>
      <trkpt lat="39.6118830" lon="2.4129300">
        <ele>228.4</ele>
        <time>2020-01-02T12:14:09Z</time>
      </trkpt>
      <trkpt lat="39.6119000" lon="2.4130680">
        <ele>228.8</ele>
        <time>2020-01-02T12:14:18Z</time>
      </trkpt>
      <trkpt lat="39.6118940" lon="2.4130710">
        <ele>229.6</ele>
        <time>2020-01-02T12:14:36Z</time>
      </trkpt>
      <trkpt lat="39.6119070" lon="2.4131380">
        <ele>230.6</ele>
        <time>2020-01-02T12:15:27Z</time>
      </trkpt>
      <trkpt lat="39.6119090" lon="2.4131520">
        <ele>230.6</ele>
        <time>2020-01-02T12:15:28Z</time>
      </trkpt>
      <trkpt lat="39.6119260" lon="2.4133400">
        <ele>231.6</ele>
        <time>2020-01-02T12:15:40Z</time>
      </trkpt>
      <trkpt lat="39.6119500" lon="2.4135220">
        <ele>232.8</ele>
        <time>2020-01-02T12:15:51Z</time>
      </trkpt>
      <trkpt lat="39.6119970" lon="2.4138060">
        <ele>234.0</ele>
        <time>2020-01-02T12:16:07Z</time>
      </trkpt>
      <trkpt lat="39.6120220" lon="2.4140720">
        <ele>234.8</ele>
        <time>2020-01-02T12:16:23Z</time>
      </trkpt>
      <trkpt lat="39.6120390" lon="2.4142940">
        <ele>235.8</ele>
        <time>2020-01-02T12:16:36Z</time>
      </trkpt>
      <trkpt lat="39.6120370" lon="2.4144690">
        <ele>237.0</ele>
        <time>2020-01-02T12:16:46Z</time>
      </trkpt>
      <trkpt lat="39.6120350" lon="2.4145780">
        <ele>238.0</ele>
        <time>2020-01-02T12:16:53Z</time>
      </trkpt>
      <trkpt lat="39.6120180" lon="2.4147040">
        <ele>239.0</ele>
        <time>2020-01-02T12:17:01Z</time>
      </trkpt>
      <trkpt lat="39.6120130" lon="2.4147810">
        <ele>240.0</ele>
        <time>2020-01-02T12:17:06Z</time>
      </trkpt>
      <trkpt lat="39.6120110" lon="2.4148570">
        <ele>241.0</ele>
        <time>2020-01-02T12:17:11Z</time>
      </trkpt>
      <trkpt lat="39.6120150" lon="2.4149430">
        <ele>242.2</ele>
        <time>2020-01-02T12:17:16Z</time>
      </trkpt>
      <trkpt lat="39.6119980" lon="2.4150520">
        <ele>243.4</ele>
        <time>2020-01-02T12:17:23Z</time>
      </trkpt>
      <trkpt lat="39.6120610" lon="2.4152550">
        <ele>244.4</ele>
        <time>2020-01-02T12:17:37Z</time>
      </trkpt>
      <trkpt lat="39.6121480" lon="2.4153360">
        <ele>245.6</ele>
        <time>2020-01-02T12:17:45Z</time>
      </trkpt>
      <trkpt lat="39.6122120" lon="2.4153800">
        <ele>246.6</ele>
        <time>2020-01-02T12:17:51Z</time>
      </trkpt>
      <trkpt lat="39.6122560" lon="2.4156800">
        <ele>247.6</ele>
        <time>2020-01-02T12:18:11Z</time>
      </trkpt>
      <trkpt lat="39.6122240" lon="2.4157170">
        <ele>248.8</ele>
        <time>2020-01-02T12:18:15Z</time>
      </trkpt>
      <trkpt lat="39.6121850" lon="2.4159450">
        <ele>247.8</ele>
        <time>2020-01-02T12:18:32Z</time>
      </trkpt>
      <trkpt lat="39.6121950" lon="2.4161120">
        <ele>246.6</ele>
        <time>2020-01-02T12:18:42Z</time>
      </trkpt>
      <trkpt lat="39.6121980" lon="2.4163350">
        <ele>245.6</ele>
        <time>2020-01-02T12:18:55Z</time>
      </trkpt>
      <trkpt lat="39.6122770" lon="2.4165100">
        <ele>244.6</ele>
        <time>2020-01-02T12:19:06Z</time>
      </trkpt>
      <trkpt lat="39.6123380" lon="2.4166530">
        <ele>243.4</ele>
        <time>2020-01-02T12:19:16Z</time>
      </trkpt>
      <trkpt lat="39.6124010" lon="2.4168160">
        <ele>242.4</ele>
        <time>2020-01-02T12:19:28Z</time>
      </trkpt>
      <trkpt lat="39.6124820" lon="2.4169750">
        <ele>241.2</ele>
        <time>2020-01-02T12:19:39Z</time>
      </trkpt>
      <trkpt lat="39.6125350" lon="2.4170440">
        <ele>240.6</ele>
        <time>2020-01-02T12:19:45Z</time>
      </trkpt>
      <trkpt lat="39.6125760" lon="2.4171030">
        <ele>240.2</ele>
        <time>2020-01-02T12:19:50Z</time>
      </trkpt>
      <trkpt lat="39.6126670" lon="2.4172200">
        <ele>239.4</ele>
        <time>2020-01-02T12:20:02Z</time>
      </trkpt>
      <trkpt lat="39.6126820" lon="2.4172350">
        <ele>239.2</ele>
        <time>2020-01-02T12:20:04Z</time>
      </trkpt>
      <trkpt lat="39.6127760" lon="2.4173410">
        <ele>238.0</ele>
        <time>2020-01-02T12:20:15Z</time>
      </trkpt>
      <trkpt lat="39.6128370" lon="2.4173920">
        <ele>237.4</ele>
        <time>2020-01-02T12:20:21Z</time>
      </trkpt>
      <trkpt lat="39.6129170" lon="2.4174420">
        <ele>237.0</ele>
        <time>2020-01-02T12:20:27Z</time>
      </trkpt>
      <trkpt lat="39.6130740" lon="2.4175480">
        <ele>235.8</ele>
        <time>2020-01-02T12:20:39Z</time>
      </trkpt>
      <trkpt lat="39.6132240" lon="2.4176820">
        <ele>234.8</ele>
        <time>2020-01-02T12:20:54Z</time>
      </trkpt>
      <trkpt lat="39.6133480" lon="2.4177850">
        <ele>233.8</ele>
        <time>2020-01-02T12:21:05Z</time>
      </trkpt>
      <trkpt lat="39.6133800" lon="2.4178180">
        <ele>233.8</ele>
        <time>2020-01-02T12:21:08Z</time>
      </trkpt>
      <trkpt lat="39.6134520" lon="2.4178680">
        <ele>233.4</ele>
        <time>2020-01-02T12:21:15Z</time>
      </trkpt>
      <trkpt lat="39.6134840" lon="2.4178920">
        <ele>233.2</ele>
        <time>2020-01-02T12:21:18Z</time>
      </trkpt>
      <trkpt lat="39.6135350" lon="2.4179190">
        <ele>232.8</ele>
        <time>2020-01-02T12:21:23Z</time>
      </trkpt>
      <trkpt lat="39.6138270" lon="2.4181570">
        <ele>231.6</ele>
        <time>2020-01-02T12:21:51Z</time>
      </trkpt>
      <trkpt lat="39.6138970" lon="2.4182330">
        <ele>231.4</ele>
        <time>2020-01-02T12:21:59Z</time>
      </trkpt>
      <trkpt lat="39.6139070" lon="2.4182620">
        <ele>231.2</ele>
        <time>2020-01-02T12:22:01Z</time>
      </trkpt>
      <trkpt lat="39.6139800" lon="2.4183180">
        <ele>230.6</ele>
        <time>2020-01-02T12:22:08Z</time>
      </trkpt>
      <trkpt lat="39.6141390" lon="2.4184370">
        <ele>229.8</ele>
        <time>2020-01-02T12:22:22Z</time>
      </trkpt>
      <trkpt lat="39.6141530" lon="2.4184450">
        <ele>229.6</ele>
        <time>2020-01-02T12:22:23Z</time>
      </trkpt>
      <trkpt lat="39.6142260" lon="2.4185050">
        <ele>229.0</ele>
        <time>2020-01-02T12:22:31Z</time>
      </trkpt>
      <trkpt lat="39.6143010" lon="2.4185630">
        <ele>228.6</ele>
        <time>2020-01-02T12:22:37Z</time>
      </trkpt>
      <trkpt lat="39.6144550" lon="2.4186740">
        <ele>227.8</ele>
        <time>2020-01-02T12:22:52Z</time>
      </trkpt>
      <trkpt lat="39.6144810" lon="2.4186950">
        <ele>228.0</ele>
        <time>2020-01-02T12:22:54Z</time>
      </trkpt>
      <trkpt lat="39.6145570" lon="2.4187550">
        <ele>227.4</ele>
        <time>2020-01-02T12:23:00Z</time>
      </trkpt>
      <trkpt lat="39.6148260" lon="2.4189720">
        <ele>226.4</ele>
        <time>2020-01-02T12:23:24Z</time>
      </trkpt>
      <trkpt lat="39.6151420" lon="2.4192410">
        <ele>225.4</ele>
        <time>2020-01-02T12:23:53Z</time>
      </trkpt>
      <trkpt lat="39.6153250" lon="2.4193680">
        <ele>225.0</ele>
        <time>2020-01-02T12:24:09Z</time>
      </trkpt>
      <trkpt lat="39.6153440" lon="2.4193790">
        <ele>224.8</ele>
        <time>2020-01-02T12:24:11Z</time>
      </trkpt>
      <trkpt lat="39.6156170" lon="2.4195920">
        <ele>224.6</ele>
        <time>2020-01-02T12:24:35Z</time>
      </trkpt>
      <trkpt lat="39.6156510" lon="2.4196190">
        <ele>224.6</ele>
        <time>2020-01-02T12:24:38Z</time>
      </trkpt>
      <trkpt lat="39.6157760" lon="2.4197790">
        <ele>224.4</ele>
        <time>2020-01-02T12:25:18Z</time>
      </trkpt>
      <trkpt lat="39.6160740" lon="2.4198690">
        <ele>223.4</ele>
        <time>2020-01-02T12:25:46Z</time>
      </trkpt>
      <trkpt lat="39.6164310" lon="2.4198600">
        <ele>222.4</ele>
        <time>2020-01-02T12:26:12Z</time>
      </trkpt>
      <trkpt lat="39.6165620" lon="2.4198530">
        <ele>222.2</ele>
        <time>2020-01-02T12:26:22Z</time>
      </trkpt>
      <trkpt lat="39.6167520" lon="2.4198440">
        <ele>221.2</ele>
        <time>2020-01-02T12:26:35Z</time>
      </trkpt>
      <trkpt lat="39.6167630" lon="2.4198420">
        <ele>221.0</ele>
        <time>2020-01-02T12:26:36Z</time>
      </trkpt>
      <trkpt lat="39.6168140" lon="2.4198470">
        <ele>220.8</ele>
        <time>2020-01-02T12:26:40Z</time>
      </trkpt>
      <trkpt lat="39.6169390" lon="2.4198580">
        <ele>220.2</ele>
        <time>2020-01-02T12:26:48Z</time>
      </trkpt>
      <trkpt lat="39.6169710" lon="2.4198530">
        <ele>219.8</ele>
        <time>2020-01-02T12:26:51Z</time>
      </trkpt>
      <trkpt lat="39.6171070" lon="2.4198580">
        <ele>219.2</ele>
        <time>2020-01-02T12:27:01Z</time>
      </trkpt>
      <trkpt lat="39.6173080" lon="2.4198700">
        <ele>218.0</ele>
        <time>2020-01-02T12:27:15Z</time>
      </trkpt>
      <trkpt lat="39.6175840" lon="2.4198620">
        <ele>217.0</ele>
        <time>2020-01-02T12:27:36Z</time>
      </trkpt>
      <trkpt lat="39.6177190" lon="2.4199020">
        <ele>216.0</ele>
        <time>2020-01-02T12:27:47Z</time>
      </trkpt>
      <trkpt lat="39.6178470" lon="2.4200160">
        <ele>215.2</ele>
        <time>2020-01-02T12:27:59Z</time>
      </trkpt>
      <trkpt lat="39.6179580" lon="2.4201570">
        <ele>214.0</ele>
        <time>2020-01-02T12:28:12Z</time>
      </trkpt>
      <trkpt lat="39.6181340" lon="2.4203760">
        <ele>212.8</ele>
        <time>2020-01-02T12:28:29Z</time>
      </trkpt>
      <trkpt lat="39.6182490" lon="2.4205360">
        <ele>212.0</ele>
        <time>2020-01-02T12:28:42Z</time>
      </trkpt>
      <trkpt lat="39.6182610" lon="2.4205580">
        <ele>212.0</ele>
        <time>2020-01-02T12:28:44Z</time>
      </trkpt>
      <trkpt lat="39.6182350" lon="2.4206170">
        <ele>212.2</ele>
        <time>2020-01-02T12:28:50Z</time>
      </trkpt>
      <trkpt lat="39.6184460" lon="2.4209000">
        <ele>210.8</ele>
        <time>2020-01-02T12:29:29Z</time>
      </trkpt>
      <trkpt lat="39.6184900" lon="2.4209980">
        <ele>210.8</ele>
        <time>2020-01-02T12:29:35Z</time>
      </trkpt>
      <trkpt lat="39.6185910" lon="2.4212110">
        <ele>210.4</ele>
        <time>2020-01-02T12:29:48Z</time>
      </trkpt>
      <trkpt lat="39.6186180" lon="2.4212850">
        <ele>209.8</ele>
        <time>2020-01-02T12:29:52Z</time>
      </trkpt>
      <trkpt lat="39.6186780" lon="2.4214170">
        <ele>208.6</ele>
        <time>2020-01-02T12:30:01Z</time>
      </trkpt>
      <trkpt lat="39.6188320" lon="2.4216680">
        <ele>207.8</ele>
        <time>2020-01-02T12:30:19Z</time>
      </trkpt>
      <trkpt lat="39.6188470" lon="2.4217230">
        <ele>207.6</ele>
        <time>2020-01-02T12:30:22Z</time>
      </trkpt>
      <trkpt lat="39.6189610" lon="2.4219050">
        <ele>207.0</ele>
        <time>2020-01-02T12:30:35Z</time>
      </trkpt>
      <trkpt lat="39.6189560" lon="2.4219390">
        <ele>206.6</ele>
        <time>2020-01-02T12:30:37Z</time>
      </trkpt>
      <trkpt lat="39.6188720" lon="2.4219920">
        <ele>205.4</ele>
        <time>2020-01-02T12:30:44Z</time>
      </trkpt>
      <trkpt lat="39.6187970" lon="2.4220160">
        <ele>204.2</ele>
        <time>2020-01-02T12:30:50Z</time>
      </trkpt>
      <trkpt lat="39.6186230" lon="2.4219330">
        <ele>203.2</ele>
        <time>2020-01-02T12:31:04Z</time>
      </trkpt>
      <trkpt lat="39.6184310" lon="2.4217030">
        <ele>204.2</ele>
        <time>2020-01-02T12:31:26Z</time>
      </trkpt>
      <trkpt lat="39.6184210" lon="2.4216640">
        <ele>203.2</ele>
        <time>2020-01-02T12:31:29Z</time>
      </trkpt>
      <trkpt lat="39.6183210" lon="2.4215400">
        <ele>202.8</ele>
        <time>2020-01-02T12:31:41Z</time>
      </trkpt>
      <trkpt lat="39.6182750" lon="2.4215710">
        <ele>202.8</ele>
        <time>2020-01-02T12:31:45Z</time>
      </trkpt>
      <trkpt lat="39.6181410" lon="2.4216950">
        <ele>204.4</ele>
        <time>2020-01-02T12:31:56Z</time>
      </trkpt>
      <trkpt lat="39.6179940" lon="2.4218000">
        <ele>205.4</ele>
        <time>2020-01-02T12:32:08Z</time>
      </trkpt>
      <trkpt lat="39.6179330" lon="2.4218750">
        <ele>206.4</ele>
        <time>2020-01-02T12:32:14Z</time>
      </trkpt>
      <trkpt lat="39.6178940" lon="2.4219520">
        <ele>207.6</ele>
        <time>2020-01-02T12:32:21Z</time>
      </trkpt>
      <trkpt lat="39.6178770" lon="2.4220200">
        <ele>208.6</ele>
        <time>2020-01-02T12:32:28Z</time>
      </trkpt>
      <trkpt lat="39.6178770" lon="2.4220190">
        <ele>207.6</ele>
        <time>2020-01-02T12:33:23Z</time>
      </trkpt>
      <trkpt lat="39.6178840" lon="2.4220420">
        <ele>206.6</ele>
        <time>2020-01-02T12:34:15Z</time>
      </trkpt>
      <trkpt lat="39.6179300" lon="2.4220550">
        <ele>206.2</ele>
        <time>2020-01-02T12:34:22Z</time>
      </trkpt>
      <trkpt lat="39.6179360" lon="2.4220770">
        <ele>206.2</ele>
        <time>2020-01-02T12:34:24Z</time>
      </trkpt>
      <trkpt lat="39.6179450" lon="2.4221010">
        <ele>206.4</ele>
        <time>2020-01-02T12:34:26Z</time>
      </trkpt>
      <trkpt lat="39.6179280" lon="2.4222090">
        <ele>207.6</ele>
        <time>2020-01-02T12:34:35Z</time>
      </trkpt>
      <trkpt lat="39.6178950" lon="2.4223030">
        <ele>208.6</ele>
        <time>2020-01-02T12:34:43Z</time>
      </trkpt>
      <trkpt lat="39.6178440" lon="2.4224260">
        <ele>209.6</ele>
        <time>2020-01-02T12:34:54Z</time>
      </trkpt>
      <trkpt lat="39.6178160" lon="2.4225260">
        <ele>210.6</ele>
        <time>2020-01-02T12:35:02Z</time>
      </trkpt>
      <trkpt lat="39.6177780" lon="2.4226330">
        <ele>211.8</ele>
        <time>2020-01-02T12:35:11Z</time>
      </trkpt>
      <trkpt lat="39.6177160" lon="2.4226800">
        <ele>213.0</ele>
        <time>2020-01-02T12:35:36Z</time>
      </trkpt>
      <trkpt lat="39.6176800" lon="2.4226680">
        <ele>214.0</ele>
        <time>2020-01-02T12:36:37Z</time>
      </trkpt>
      <trkpt lat="39.6176500" lon="2.4226280">
        <ele>215.2</ele>
        <time>2020-01-02T12:37:00Z</time>
      </trkpt>
      <trkpt lat="39.6176970" lon="2.4226540">
        <ele>216.0</ele>
        <time>2020-01-02T12:37:08Z</time>
      </trkpt>
      <trkpt lat="39.6176960" lon="2.4226440">
        <ele>217.0</ele>
        <time>2020-01-02T12:37:26Z</time>
      </trkpt>
      <trkpt lat="39.6176820" lon="2.4226250">
        <ele>218.2</ele>
        <time>2020-01-02T12:37:47Z</time>
      </trkpt>
      <trkpt lat="39.6176630" lon="2.4226280">
        <ele>216.8</ele>
        <time>2020-01-02T12:38:18Z</time>
      </trkpt>
      <trkpt lat="39.6176980" lon="2.4226610">
        <ele>217.8</ele>
        <time>2020-01-02T12:38:50Z</time>
      </trkpt>
      <trkpt lat="39.6176830" lon="2.4226230">
        <ele>219.0</ele>
        <time>2020-01-02T12:39:29Z</time>
      </trkpt>
      <trkpt lat="39.6176830" lon="2.4226240">
        <ele>220.0</ele>
        <time>2020-01-02T12:39:47Z</time>
      </trkpt>
      <trkpt lat="39.6177260" lon="2.4226800">
        <ele>221.0</ele>
        <time>2020-01-02T12:40:07Z</time>
      </trkpt>
      <trkpt lat="39.6177350" lon="2.4227490">
        <ele>222.0</ele>
        <time>2020-01-02T12:40:14Z</time>
      </trkpt>
      <trkpt lat="39.6178040" lon="2.4229100">
        <ele>223.2</ele>
        <time>2020-01-02T12:40:27Z</time>
      </trkpt>
      <trkpt lat="39.6178720" lon="2.4230550">
        <ele>224.2</ele>
        <time>2020-01-02T12:40:40Z</time>
      </trkpt>
      <trkpt lat="39.6178010" lon="2.4228890">
        <ele>225.4</ele>
        <time>2020-01-02T12:41:07Z</time>
      </trkpt>
      <trkpt lat="39.6178060" lon="2.4228690">
        <ele>226.6</ele>
        <time>2020-01-02T12:41:10Z</time>
      </trkpt>
      <trkpt lat="39.6178110" lon="2.4228360">
        <ele>227.8</ele>
        <time>2020-01-02T12:41:14Z</time>
      </trkpt>
      <trkpt lat="39.6178360" lon="2.4228210">
        <ele>229.0</ele>
        <time>2020-01-02T12:41:18Z</time>
      </trkpt>
      <trkpt lat="39.6178400" lon="2.4228160">
        <ele>229.2</ele>
        <time>2020-01-02T12:41:19Z</time>
      </trkpt>
      <trkpt lat="39.6178400" lon="2.4228160">
        <ele>235.6</ele>
        <time>2020-01-02T13:13:07Z</time>
      </trkpt>
      <trkpt lat="39.6181950" lon="2.4236750">
        <ele>236.8</ele>
        <time>2020-01-02T13:13:08Z</time>
      </trkpt>
      <trkpt lat="39.6181620" lon="2.4232680">
        <ele>237.6</ele>
        <time>2020-01-02T13:13:10Z</time>
      </trkpt>
      <trkpt lat="39.6181620" lon="2.4232680">
        <ele>238.0</ele>
        <time>2020-01-02T13:13:12Z</time>
      </trkpt>
      <trkpt lat="39.6178350" lon="2.4227560">
        <ele>238.2</ele>
        <time>2020-01-02T13:13:14Z</time>
      </trkpt>
      <trkpt lat="39.6178810" lon="2.4231690">
        <ele>278.6</ele>
        <time>2020-01-03T07:46:30Z</time>
      </trkpt>
      <trkpt lat="39.6179860" lon="2.4233120">
        <ele>279.8</ele>
        <time>2020-01-03T07:46:47Z</time>
      </trkpt>
      <trkpt lat="39.6180500" lon="2.4233560">
        <ele>281.0</ele>
        <time>2020-01-03T07:46:55Z</time>
      </trkpt>
      <trkpt lat="39.6181060" lon="2.4234350">
        <ele>282.2</ele>
        <time>2020-01-03T07:47:06Z</time>
      </trkpt>
      <trkpt lat="39.6181600" lon="2.4235930">
        <ele>283.2</ele>
        <time>2020-01-03T07:47:21Z</time>
      </trkpt>
      <trkpt lat="39.6181960" lon="2.4237300">
        <ele>284.2</ele>
        <time>2020-01-03T07:47:36Z</time>
      </trkpt>
      <trkpt lat="39.6181940" lon="2.4237660">
        <ele>284.4</ele>
        <time>2020-01-03T07:47:39Z</time>
      </trkpt>
      <trkpt lat="39.6181900" lon="2.4237910">
        <ele>284.6</ele>
        <time>2020-01-03T07:47:41Z</time>
      </trkpt>
      <trkpt lat="39.6181560" lon="2.4238750">
        <ele>285.2</ele>
        <time>2020-01-03T07:47:47Z</time>
      </trkpt>
      <trkpt lat="39.6181580" lon="2.4238910">
        <ele>285.2</ele>
        <time>2020-01-03T07:47:48Z</time>
      </trkpt>
      <trkpt lat="39.6181380" lon="2.4240010">
        <ele>286.4</ele>
        <time>2020-01-03T07:47:57Z</time>
      </trkpt>
      <trkpt lat="39.6181380" lon="2.4240630">
        <ele>287.8</ele>
        <time>2020-01-03T07:48:03Z</time>
      </trkpt>
      <trkpt lat="39.6181250" lon="2.4241460">
        <ele>288.8</ele>
        <time>2020-01-03T07:48:11Z</time>
      </trkpt>
      <trkpt lat="39.6181210" lon="2.4241990">
        <ele>290.0</ele>
        <time>2020-01-03T07:48:17Z</time>
      </trkpt>
      <trkpt lat="39.6181040" lon="2.4242500">
        <ele>291.2</ele>
        <time>2020-01-03T07:48:23Z</time>
      </trkpt>
      <trkpt lat="39.6180970" lon="2.4242960">
        <ele>292.2</ele>
        <time>2020-01-03T07:48:28Z</time>
      </trkpt>
      <trkpt lat="39.6181040" lon="2.4243340">
        <ele>293.2</ele>
        <time>2020-01-03T07:48:34Z</time>
      </trkpt>
      <trkpt lat="39.6180970" lon="2.4243640">
        <ele>294.4</ele>
        <time>2020-01-03T07:48:38Z</time>
      </trkpt>
      <trkpt lat="39.6180940" lon="2.4244170">
        <ele>295.6</ele>
        <time>2020-01-03T07:48:44Z</time>
      </trkpt>
      <trkpt lat="39.6180850" lon="2.4244610">
        <ele>296.6</ele>
        <time>2020-01-03T07:48:50Z</time>
      </trkpt>
      <trkpt lat="39.6180770" lon="2.4245210">
        <ele>297.6</ele>
        <time>2020-01-03T07:48:56Z</time>
      </trkpt>
      <trkpt lat="39.6180850" lon="2.4245900">
        <ele>298.6</ele>
        <time>2020-01-03T07:49:03Z</time>
      </trkpt>
      <trkpt lat="39.6180870" lon="2.4246080">
        <ele>299.0</ele>
        <time>2020-01-03T07:49:05Z</time>
      </trkpt>
      <trkpt lat="39.6180960" lon="2.4246450">
        <ele>300.2</ele>
        <time>2020-01-03T07:49:11Z</time>
      </trkpt>
      <trkpt lat="39.6181100" lon="2.4247050">
        <ele>301.2</ele>
        <time>2020-01-03T07:49:17Z</time>
      </trkpt>
      <trkpt lat="39.6181080" lon="2.4247180">
        <ele>301.4</ele>
        <time>2020-01-03T07:49:18Z</time>
      </trkpt>
      <trkpt lat="39.6181140" lon="2.4247700">
        <ele>302.2</ele>
        <time>2020-01-03T07:49:22Z</time>
      </trkpt>
      <trkpt lat="39.6181160" lon="2.4247810">
        <ele>302.4</ele>
        <time>2020-01-03T07:49:23Z</time>
      </trkpt>
      <trkpt lat="39.6181200" lon="2.4248870">
        <ele>303.6</ele>
        <time>2020-01-03T07:49:31Z</time>
      </trkpt>
      <trkpt lat="39.6181440" lon="2.4249500">
        <ele>304.6</ele>
        <time>2020-01-03T07:49:37Z</time>
      </trkpt>
      <trkpt lat="39.6182010" lon="2.4250190">
        <ele>305.8</ele>
        <time>2020-01-03T07:49:45Z</time>
      </trkpt>
      <trkpt lat="39.6182050" lon="2.4250730">
        <ele>307.0</ele>
        <time>2020-01-03T07:49:52Z</time>
      </trkpt>
      <trkpt lat="39.6182200" lon="2.4251130">
        <ele>308.0</ele>
        <time>2020-01-03T07:49:57Z</time>
      </trkpt>
      <trkpt lat="39.6182230" lon="2.4251370">
        <ele>308.4</ele>
        <time>2020-01-03T07:49:59Z</time>
      </trkpt>
      <trkpt lat="39.6182270" lon="2.4251610">
        <ele>309.2</ele>
        <time>2020-01-03T07:50:02Z</time>
      </trkpt>
      <trkpt lat="39.6181970" lon="2.4251800">
        <ele>310.2</ele>
        <time>2020-01-03T07:50:08Z</time>
      </trkpt>
      <trkpt lat="39.6181850" lon="2.4251650">
        <ele>311.4</ele>
        <time>2020-01-03T07:50:14Z</time>
      </trkpt>
      <trkpt lat="39.6181430" lon="2.4251590">
        <ele>312.4</ele>
        <time>2020-01-03T07:50:20Z</time>
      </trkpt>
      <trkpt lat="39.6181260" lon="2.4252230">
        <ele>313.6</ele>
        <time>2020-01-03T07:50:26Z</time>
      </trkpt>
      <trkpt lat="39.6181130" lon="2.4252550">
        <ele>314.2</ele>
        <time>2020-01-03T07:50:29Z</time>
      </trkpt>
      <trkpt lat="39.6181150" lon="2.4252710">
        <ele>314.8</ele>
        <time>2020-01-03T07:50:31Z</time>
      </trkpt>
      <trkpt lat="39.6181270" lon="2.4253560">
        <ele>315.8</ele>
        <time>2020-01-03T07:50:41Z</time>
      </trkpt>
      <trkpt lat="39.6181470" lon="2.4254270">
        <ele>317.2</ele>
        <time>2020-01-03T07:50:48Z</time>
      </trkpt>
      <trkpt lat="39.6181550" lon="2.4254640">
        <ele>318.2</ele>
        <time>2020-01-03T07:50:53Z</time>
      </trkpt>
      <trkpt lat="39.6181630" lon="2.4255150">
        <ele>319.4</ele>
        <time>2020-01-03T07:50:59Z</time>
      </trkpt>
      <trkpt lat="39.6182330" lon="2.4256320">
        <ele>320.0</ele>
        <time>2020-01-03T07:51:11Z</time>
      </trkpt>
      <trkpt lat="39.6182530" lon="2.4256850">
        <ele>320.4</ele>
        <time>2020-01-03T07:51:15Z</time>
      </trkpt>
      <trkpt lat="39.6182730" lon="2.4258420">
        <ele>321.6</ele>
        <time>2020-01-03T07:51:27Z</time>
      </trkpt>
      <trkpt lat="39.6182760" lon="2.4259500">
        <ele>322.8</ele>
        <time>2020-01-03T07:51:36Z</time>
      </trkpt>
      <trkpt lat="39.6182980" lon="2.4260260">
        <ele>324.0</ele>
        <time>2020-01-03T07:51:42Z</time>
      </trkpt>
      <trkpt lat="39.6183260" lon="2.4260990">
        <ele>325.2</ele>
        <time>2020-01-03T07:51:49Z</time>
      </trkpt>
      <trkpt lat="39.6183400" lon="2.4261710">
        <ele>326.4</ele>
        <time>2020-01-03T07:51:56Z</time>
      </trkpt>
      <trkpt lat="39.6183680" lon="2.4262770">
        <ele>327.4</ele>
        <time>2020-01-03T07:52:04Z</time>
      </trkpt>
      <trkpt lat="39.6183740" lon="2.4263610">
        <ele>328.6</ele>
        <time>2020-01-03T07:52:12Z</time>
      </trkpt>
      <trkpt lat="39.6183600" lon="2.4264390">
        <ele>329.6</ele>
        <time>2020-01-03T07:52:19Z</time>
      </trkpt>
      <trkpt lat="39.6183490" lon="2.4264930">
        <ele>330.8</ele>
        <time>2020-01-03T07:52:25Z</time>
      </trkpt>
      <trkpt lat="39.6183370" lon="2.4265420">
        <ele>331.8</ele>
        <time>2020-01-03T07:52:30Z</time>
      </trkpt>
      <trkpt lat="39.6183620" lon="2.4265880">
        <ele>332.6</ele>
        <time>2020-01-03T07:52:34Z</time>
      </trkpt>
      <trkpt lat="39.6183850" lon="2.4265940">
        <ele>332.8</ele>
        <time>2020-01-03T07:52:36Z</time>
      </trkpt>
      <trkpt lat="39.6183950" lon="2.4265930">
        <ele>333.0</ele>
        <time>2020-01-03T07:52:37Z</time>
      </trkpt>
      <trkpt lat="39.6184470" lon="2.4265840">
        <ele>334.4</ele>
        <time>2020-01-03T07:52:44Z</time>
      </trkpt>
      <trkpt lat="39.6184630" lon="2.4265730">
        <ele>334.6</ele>
        <time>2020-01-03T07:52:46Z</time>
      </trkpt>
      <trkpt lat="39.6184980" lon="2.4265380">
        <ele>335.4</ele>
        <time>2020-01-03T07:52:52Z</time>
      </trkpt>
      <trkpt lat="39.6185420" lon="2.4264920">
        <ele>336.6</ele>
        <time>2020-01-03T07:52:58Z</time>
      </trkpt>
      <trkpt lat="39.6186370" lon="2.4262770">
        <ele>337.6</ele>
        <time>2020-01-03T07:53:15Z</time>
      </trkpt>
      <trkpt lat="39.6187170" lon="2.4261380">
        <ele>338.6</ele>
        <time>2020-01-03T07:53:28Z</time>
      </trkpt>
      <trkpt lat="39.6187720" lon="2.4260930">
        <ele>339.6</ele>
        <time>2020-01-03T07:53:35Z</time>
      </trkpt>
      <trkpt lat="39.6188250" lon="2.4259750">
        <ele>340.8</ele>
        <time>2020-01-03T07:53:46Z</time>
      </trkpt>
      <trkpt lat="39.6188270" lon="2.4259540">
        <ele>341.2</ele>
        <time>2020-01-03T07:53:48Z</time>
      </trkpt>
      <trkpt lat="39.6188240" lon="2.4259300">
        <ele>341.4</ele>
        <time>2020-01-03T07:53:50Z</time>
      </trkpt>
      <trkpt lat="39.6188260" lon="2.4259130">
        <ele>341.6</ele>
        <time>2020-01-03T07:53:52Z</time>
      </trkpt>
      <trkpt lat="39.6188290" lon="2.4258940">
        <ele>341.8</ele>
        <time>2020-01-03T07:53:54Z</time>
      </trkpt>
      <trkpt lat="39.6188340" lon="2.4258860">
        <ele>342.0</ele>
        <time>2020-01-03T07:53:55Z</time>
      </trkpt>
      <trkpt lat="39.6188780" lon="2.4258190">
        <ele>343.2</ele>
        <time>2020-01-03T07:54:01Z</time>
      </trkpt>
      <trkpt lat="39.6188870" lon="2.4258030">
        <ele>343.4</ele>
        <time>2020-01-03T07:54:03Z</time>
      </trkpt>
      <trkpt lat="39.6189230" lon="2.4257920">
        <ele>344.2</ele>
        <time>2020-01-03T07:54:07Z</time>
      </trkpt>
      <trkpt lat="39.6189260" lon="2.4257950">
        <ele>344.4</ele>
        <time>2020-01-03T07:54:08Z</time>
      </trkpt>
      <trkpt lat="39.6189730" lon="2.4258200">
        <ele>345.4</ele>
        <time>2020-01-03T07:54:13Z</time>
      </trkpt>
      <trkpt lat="39.6189970" lon="2.4258210">
        <ele>345.6</ele>
        <time>2020-01-03T07:54:14Z</time>
      </trkpt>
      <trkpt lat="39.6190130" lon="2.4258380">
        <ele>346.0</ele>
        <time>2020-01-03T07:54:16Z</time>
      </trkpt>
      <trkpt lat="39.6190340" lon="2.4258550">
        <ele>346.6</ele>
        <time>2020-01-03T07:54:18Z</time>
      </trkpt>
      <trkpt lat="39.6190240" lon="2.4258720">
        <ele>346.8</ele>
        <time>2020-01-03T07:54:19Z</time>
      </trkpt>
      <trkpt lat="39.6190120" lon="2.4259070">
        <ele>347.2</ele>
        <time>2020-01-03T07:54:21Z</time>
      </trkpt>
      <trkpt lat="39.6190100" lon="2.4259290">
        <ele>347.6</ele>
        <time>2020-01-03T07:54:23Z</time>
      </trkpt>
      <trkpt lat="39.6190190" lon="2.4259370">
        <ele>348.0</ele>
        <time>2020-01-03T07:54:24Z</time>
      </trkpt>
      <trkpt lat="39.6190040" lon="2.4259820">
        <ele>348.6</ele>
        <time>2020-01-03T07:54:27Z</time>
      </trkpt>
      <trkpt lat="39.6190060" lon="2.4259930">
        <ele>348.8</ele>
        <time>2020-01-03T07:54:28Z</time>
      </trkpt>
      <trkpt lat="39.6190080" lon="2.4260030">
        <ele>349.0</ele>
        <time>2020-01-03T07:54:29Z</time>
      </trkpt>
      <trkpt lat="39.6189980" lon="2.4260500">
        <ele>350.0</ele>
        <time>2020-01-03T07:54:33Z</time>
      </trkpt>
      <trkpt lat="39.6189800" lon="2.4260930">
        <ele>350.8</ele>
        <time>2020-01-03T07:54:36Z</time>
      </trkpt>
      <trkpt lat="39.6189750" lon="2.4261160">
        <ele>351.0</ele>
        <time>2020-01-03T07:54:38Z</time>
      </trkpt>
      <trkpt lat="39.6189800" lon="2.4261480">
        <ele>351.6</ele>
        <time>2020-01-03T07:54:40Z</time>
      </trkpt>
      <trkpt lat="39.6189870" lon="2.4261730">
        <ele>351.8</ele>
        <time>2020-01-03T07:54:42Z</time>
      </trkpt>
      <trkpt lat="39.6190000" lon="2.4261850">
        <ele>352.2</ele>
        <time>2020-01-03T07:54:43Z</time>
      </trkpt>
      <trkpt lat="39.6190120" lon="2.4262670">
        <ele>353.2</ele>
        <time>2020-01-03T07:54:50Z</time>
      </trkpt>
      <trkpt lat="39.6190490" lon="2.4263230">
        <ele>354.4</ele>
        <time>2020-01-03T07:54:55Z</time>
      </trkpt>
      <trkpt lat="39.6190530" lon="2.4263830">
        <ele>355.8</ele>
        <time>2020-01-03T07:55:01Z</time>
      </trkpt>
      <trkpt lat="39.6190620" lon="2.4264510">
        <ele>357.0</ele>
        <time>2020-01-03T07:55:08Z</time>
      </trkpt>
      <trkpt lat="39.6190860" lon="2.4264960">
        <ele>358.2</ele>
        <time>2020-01-03T07:55:14Z</time>
      </trkpt>
      <trkpt lat="39.6191010" lon="2.4265510">
        <ele>359.4</ele>
        <time>2020-01-03T07:55:20Z</time>
      </trkpt>
      <trkpt lat="39.6190850" lon="2.4265950">
        <ele>360.0</ele>
        <time>2020-01-03T07:55:24Z</time>
      </trkpt>
      <trkpt lat="39.6190790" lon="2.4266250">
        <ele>360.6</ele>
        <time>2020-01-03T07:55:26Z</time>
      </trkpt>
      <trkpt lat="39.6191280" lon="2.4269260">
        <ele>361.6</ele>
        <time>2020-01-03T07:55:48Z</time>
      </trkpt>
      <trkpt lat="39.6191120" lon="2.4270110">
        <ele>361.8</ele>
        <time>2020-01-03T07:55:54Z</time>
      </trkpt>
      <trkpt lat="39.6190470" lon="2.4271290">
        <ele>361.2</ele>
        <time>2020-01-03T07:56:14Z</time>
      </trkpt>
      <trkpt lat="39.6190130" lon="2.4272340">
        <ele>361.8</ele>
        <time>2020-01-03T07:56:23Z</time>
      </trkpt>
      <trkpt lat="39.6190130" lon="2.4272630">
        <ele>362.4</ele>
        <time>2020-01-03T07:56:27Z</time>
      </trkpt>
      <trkpt lat="39.6190040" lon="2.4273050">
        <ele>362.8</ele>
        <time>2020-01-03T07:56:30Z</time>
      </trkpt>
      <trkpt lat="39.6189790" lon="2.4273650">
        <ele>364.0</ele>
        <time>2020-01-03T07:56:36Z</time>
      </trkpt>
      <trkpt lat="39.6189650" lon="2.4274270">
        <ele>365.2</ele>
        <time>2020-01-03T07:56:42Z</time>
      </trkpt>
      <trkpt lat="39.6189560" lon="2.4274850">
        <ele>366.4</ele>
        <time>2020-01-03T07:56:48Z</time>
      </trkpt>
      <trkpt lat="39.6189440" lon="2.4275600">
        <ele>367.6</ele>
        <time>2020-01-03T07:56:56Z</time>
      </trkpt>
      <trkpt lat="39.6189290" lon="2.4276120">
        <ele>368.8</ele>
        <time>2020-01-03T07:57:03Z</time>
      </trkpt>
      <trkpt lat="39.6189230" lon="2.4276500">
        <ele>370.0</ele>
        <time>2020-01-03T07:57:08Z</time>
      </trkpt>
      <trkpt lat="39.6189190" lon="2.4276910">
        <ele>371.0</ele>
        <time>2020-01-03T07:57:13Z</time>
      </trkpt>
      <trkpt lat="39.6189090" lon="2.4277480">
        <ele>372.2</ele>
        <time>2020-01-03T07:57:19Z</time>
      </trkpt>
      <trkpt lat="39.6189210" lon="2.4278090">
        <ele>373.4</ele>
        <time>2020-01-03T07:57:26Z</time>
      </trkpt>
      <trkpt lat="39.6189530" lon="2.4278380">
        <ele>374.2</ele>
        <time>2020-01-03T07:57:31Z</time>
      </trkpt>
      <trkpt lat="39.6189640" lon="2.4278360">
        <ele>374.6</ele>
        <time>2020-01-03T07:57:40Z</time>
      </trkpt>
      <trkpt lat="39.6189490" lon="2.4278400">
        <ele>375.6</ele>
        <time>2020-01-03T07:58:44Z</time>
      </trkpt>
      <trkpt lat="39.6189400" lon="2.4278420">
        <ele>374.6</ele>
        <time>2020-01-03T07:58:58Z</time>
      </trkpt>
      <trkpt lat="39.6189670" lon="2.4278400">
        <ele>375.8</ele>
        <time>2020-01-03T08:00:07Z</time>
      </trkpt>
      <trkpt lat="39.6189960" lon="2.4278810">
        <ele>375.4</ele>
        <time>2020-01-03T08:00:26Z</time>
      </trkpt>
      <trkpt lat="39.6190650" lon="2.4279600">
        <ele>376.8</ele>
        <time>2020-01-03T08:00:35Z</time>
      </trkpt>
      <trkpt lat="39.6191270" lon="2.4280190">
        <ele>378.0</ele>
        <time>2020-01-03T08:00:44Z</time>
      </trkpt>
      <trkpt lat="39.6191710" lon="2.4280700">
        <ele>378.6</ele>
        <time>2020-01-03T08:00:50Z</time>
      </trkpt>
      <trkpt lat="39.6191860" lon="2.4280890">
        <ele>379.0</ele>
        <time>2020-01-03T08:00:53Z</time>
      </trkpt>
      <trkpt lat="39.6192210" lon="2.4281300">
        <ele>380.2</ele>
        <time>2020-01-03T08:00:59Z</time>
      </trkpt>
      <trkpt lat="39.6192360" lon="2.4281470">
        <ele>380.6</ele>
        <time>2020-01-03T08:01:01Z</time>
      </trkpt>
      <trkpt lat="39.6192710" lon="2.4281830">
        <ele>381.2</ele>
        <time>2020-01-03T08:01:05Z</time>
      </trkpt>
      <trkpt lat="39.6192750" lon="2.4281920">
        <ele>381.4</ele>
        <time>2020-01-03T08:01:06Z</time>
      </trkpt>
      <trkpt lat="39.6192830" lon="2.4282070">
        <ele>381.6</ele>
        <time>2020-01-03T08:01:08Z</time>
      </trkpt>
      <trkpt lat="39.6193160" lon="2.4282150">
        <ele>382.4</ele>
        <time>2020-01-03T08:01:11Z</time>
      </trkpt>
      <trkpt lat="39.6193240" lon="2.4282180">
        <ele>382.8</ele>
        <time>2020-01-03T08:01:12Z</time>
      </trkpt>
      <trkpt lat="39.6193280" lon="2.4282210">
        <ele>383.0</ele>
        <time>2020-01-03T08:01:13Z</time>
      </trkpt>
      <trkpt lat="39.6193880" lon="2.4282920">
        <ele>383.4</ele>
        <time>2020-01-03T08:01:30Z</time>
      </trkpt>
      <trkpt lat="39.6194240" lon="2.4283010">
        <ele>384.4</ele>
        <time>2020-01-03T08:01:37Z</time>
      </trkpt>
      <trkpt lat="39.6194420" lon="2.4282970">
        <ele>385.6</ele>
        <time>2020-01-03T08:01:40Z</time>
      </trkpt>
      <trkpt lat="39.6194730" lon="2.4283280">
        <ele>387.2</ele>
        <time>2020-01-03T08:01:57Z</time>
      </trkpt>
      <trkpt lat="39.6195080" lon="2.4283590">
        <ele>388.4</ele>
        <time>2020-01-03T08:02:04Z</time>
      </trkpt>
      <trkpt lat="39.6195350" lon="2.4283900">
        <ele>389.4</ele>
        <time>2020-01-03T08:02:09Z</time>
      </trkpt>
      <trkpt lat="39.6195600" lon="2.4284230">
        <ele>390.4</ele>
        <time>2020-01-03T08:02:15Z</time>
      </trkpt>
      <trkpt lat="39.6195890" lon="2.4284340">
        <ele>391.6</ele>
        <time>2020-01-03T08:02:19Z</time>
      </trkpt>
      <trkpt lat="39.6196310" lon="2.4284420">
        <ele>392.8</ele>
        <time>2020-01-03T08:02:25Z</time>
      </trkpt>
      <trkpt lat="39.6196440" lon="2.4284500">
        <ele>394.0</ele>
        <time>2020-01-03T08:02:29Z</time>
      </trkpt>
      <trkpt lat="39.6196830" lon="2.4284190">
        <ele>395.0</ele>
        <time>2020-01-03T08:02:36Z</time>
      </trkpt>
      <trkpt lat="39.6197030" lon="2.4283940">
        <ele>395.8</ele>
        <time>2020-01-03T08:02:39Z</time>
      </trkpt>
      <trkpt lat="39.6197100" lon="2.4283820">
        <ele>395.8</ele>
        <time>2020-01-03T08:02:41Z</time>
      </trkpt>
      <trkpt lat="39.6197380" lon="2.4283670">
        <ele>396.2</ele>
        <time>2020-01-03T08:02:44Z</time>
      </trkpt>
      <trkpt lat="39.6197780" lon="2.4283530">
        <ele>397.2</ele>
        <time>2020-01-03T08:02:49Z</time>
      </trkpt>
      <trkpt lat="39.6197930" lon="2.4283370">
        <ele>397.6</ele>
        <time>2020-01-03T08:02:51Z</time>
      </trkpt>
      <trkpt lat="39.6198070" lon="2.4283260">
        <ele>398.0</ele>
        <time>2020-01-03T08:02:53Z</time>
      </trkpt>
      <trkpt lat="39.6198170" lon="2.4283240">
        <ele>398.2</ele>
        <time>2020-01-03T08:02:54Z</time>
      </trkpt>
      <trkpt lat="39.6198240" lon="2.4283210">
        <ele>398.4</ele>
        <time>2020-01-03T08:02:55Z</time>
      </trkpt>
      <trkpt lat="39.6198380" lon="2.4282940">
        <ele>399.4</ele>
        <time>2020-01-03T08:02:59Z</time>
      </trkpt>
      <trkpt lat="39.6198610" lon="2.4282650">
        <ele>400.4</ele>
        <time>2020-01-03T08:03:04Z</time>
      </trkpt>
      <trkpt lat="39.6198850" lon="2.4282390">
        <ele>401.0</ele>
        <time>2020-01-03T08:03:07Z</time>
      </trkpt>
      <trkpt lat="39.6198880" lon="2.4282240">
        <ele>401.4</ele>
        <time>2020-01-03T08:03:09Z</time>
      </trkpt>
      <trkpt lat="39.6199230" lon="2.4282030">
        <ele>402.6</ele>
        <time>2020-01-03T08:03:15Z</time>
      </trkpt>
      <trkpt lat="39.6199350" lon="2.4281540">
        <ele>403.6</ele>
        <time>2020-01-03T08:03:24Z</time>
      </trkpt>
      <trkpt lat="39.6199520" lon="2.4280570">
        <ele>404.6</ele>
        <time>2020-01-03T08:03:36Z</time>
      </trkpt>
      <trkpt lat="39.6199730" lon="2.4279870">
        <ele>406.0</ele>
        <time>2020-01-03T08:03:45Z</time>
      </trkpt>
      <trkpt lat="39.6199730" lon="2.4279380">
        <ele>407.0</ele>
        <time>2020-01-03T08:03:49Z</time>
      </trkpt>
      <trkpt lat="39.6199780" lon="2.4278900">
        <ele>408.0</ele>
        <time>2020-01-03T08:03:54Z</time>
      </trkpt>
      <trkpt lat="39.6199840" lon="2.4278050">
        <ele>409.4</ele>
        <time>2020-01-03T08:04:03Z</time>
      </trkpt>
      <trkpt lat="39.6200130" lon="2.4277640">
        <ele>410.6</ele>
        <time>2020-01-03T08:04:10Z</time>
      </trkpt>
      <trkpt lat="39.6200450" lon="2.4277000">
        <ele>411.8</ele>
        <time>2020-01-03T08:04:19Z</time>
      </trkpt>
      <trkpt lat="39.6200540" lon="2.4276570">
        <ele>413.0</ele>
        <time>2020-01-03T08:04:27Z</time>
      </trkpt>
      <trkpt lat="39.6200640" lon="2.4276150">
        <ele>414.0</ele>
        <time>2020-01-03T08:04:35Z</time>
      </trkpt>
      <trkpt lat="39.6200620" lon="2.4275480">
        <ele>415.2</ele>
        <time>2020-01-03T08:04:45Z</time>
      </trkpt>
      <trkpt lat="39.6200630" lon="2.4275150">
        <ele>416.4</ele>
        <time>2020-01-03T08:04:50Z</time>
      </trkpt>
      <trkpt lat="39.6200670" lon="2.4274750">
        <ele>417.6</ele>
        <time>2020-01-03T08:04:57Z</time>
      </trkpt>
      <trkpt lat="39.6200870" lon="2.4274040">
        <ele>419.0</ele>
        <time>2020-01-03T08:05:09Z</time>
      </trkpt>
      <trkpt lat="39.6201190" lon="2.4274500">
        <ele>420.2</ele>
        <time>2020-01-03T08:05:16Z</time>
      </trkpt>
      <trkpt lat="39.6201380" lon="2.4274850">
        <ele>421.4</ele>
        <time>2020-01-03T08:05:23Z</time>
      </trkpt>
      <trkpt lat="39.6201560" lon="2.4274630">
        <ele>422.4</ele>
        <time>2020-01-03T08:05:31Z</time>
      </trkpt>
      <trkpt lat="39.6201550" lon="2.4274280">
        <ele>423.8</ele>
        <time>2020-01-03T08:05:36Z</time>
      </trkpt>
      <trkpt lat="39.6201720" lon="2.4273930">
        <ele>425.0</ele>
        <time>2020-01-03T08:05:42Z</time>
      </trkpt>
      <trkpt lat="39.6201750" lon="2.4273600">
        <ele>426.0</ele>
        <time>2020-01-03T08:05:47Z</time>
      </trkpt>
      <trkpt lat="39.6201820" lon="2.4273090">
        <ele>427.2</ele>
        <time>2020-01-03T08:05:56Z</time>
      </trkpt>
      <trkpt lat="39.6201990" lon="2.4272820">
        <ele>428.4</ele>
        <time>2020-01-03T08:06:02Z</time>
      </trkpt>
      <trkpt lat="39.6202200" lon="2.4272830">
        <ele>429.8</ele>
        <time>2020-01-03T08:06:09Z</time>
      </trkpt>
      <trkpt lat="39.6202390" lon="2.4272850">
        <ele>431.2</ele>
        <time>2020-01-03T08:06:18Z</time>
      </trkpt>
      <trkpt lat="39.6202440" lon="2.4272230">
        <ele>432.2</ele>
        <time>2020-01-03T08:06:26Z</time>
      </trkpt>
      <trkpt lat="39.6202650" lon="2.4271670">
        <ele>433.4</ele>
        <time>2020-01-03T08:06:40Z</time>
      </trkpt>
      <trkpt lat="39.6202690" lon="2.4271500">
        <ele>434.4</ele>
        <time>2020-01-03T08:06:44Z</time>
      </trkpt>
      <trkpt lat="39.6202970" lon="2.4271280">
        <ele>435.6</ele>
        <time>2020-01-03T08:06:55Z</time>
      </trkpt>
      <trkpt lat="39.6203230" lon="2.4271220">
        <ele>436.6</ele>
        <time>2020-01-03T08:07:00Z</time>
      </trkpt>
      <trkpt lat="39.6203490" lon="2.4271150">
        <ele>437.6</ele>
        <time>2020-01-03T08:07:07Z</time>
      </trkpt>
      <trkpt lat="39.6203510" lon="2.4270700">
        <ele>438.6</ele>
        <time>2020-01-03T08:07:13Z</time>
      </trkpt>
      <trkpt lat="39.6203550" lon="2.4270100">
        <ele>439.8</ele>
        <time>2020-01-03T08:07:21Z</time>
      </trkpt>
      <trkpt lat="39.6203540" lon="2.4269380">
        <ele>441.0</ele>
        <time>2020-01-03T08:07:30Z</time>
      </trkpt>
      <trkpt lat="39.6203500" lon="2.4268830">
        <ele>442.0</ele>
        <time>2020-01-03T08:07:38Z</time>
      </trkpt>
      <trkpt lat="39.6203370" lon="2.4268440">
        <ele>443.4</ele>
        <time>2020-01-03T08:07:45Z</time>
      </trkpt>
      <trkpt lat="39.6202140" lon="2.4267440">
        <ele>444.8</ele>
        <time>2020-01-03T08:08:15Z</time>
      </trkpt>
      <trkpt lat="39.6202260" lon="2.4266960">
        <ele>445.8</ele>
        <time>2020-01-03T08:08:25Z</time>
      </trkpt>
      <trkpt lat="39.6202460" lon="2.4266710">
        <ele>446.8</ele>
        <time>2020-01-03T08:08:30Z</time>
      </trkpt>
      <trkpt lat="39.6202590" lon="2.4266260">
        <ele>448.2</ele>
        <time>2020-01-03T08:08:38Z</time>
      </trkpt>
      <trkpt lat="39.6203160" lon="2.4265300">
        <ele>449.2</ele>
        <time>2020-01-03T08:08:52Z</time>
      </trkpt>
      <trkpt lat="39.6203610" lon="2.4264930">
        <ele>450.6</ele>
        <time>2020-01-03T08:09:02Z</time>
      </trkpt>
      <trkpt lat="39.6203970" lon="2.4265150">
        <ele>452.2</ele>
        <time>2020-01-03T08:09:08Z</time>
      </trkpt>
      <trkpt lat="39.6204270" lon="2.4265640">
        <ele>453.2</ele>
        <time>2020-01-03T08:09:16Z</time>
      </trkpt>
      <trkpt lat="39.6204500" lon="2.4265850">
        <ele>454.2</ele>
        <time>2020-01-03T08:09:21Z</time>
      </trkpt>
      <trkpt lat="39.6204540" lon="2.4265900">
        <ele>454.4</ele>
        <time>2020-01-03T08:09:22Z</time>
      </trkpt>
      <trkpt lat="39.6204840" lon="2.4266030">
        <ele>455.4</ele>
        <time>2020-01-03T08:09:29Z</time>
      </trkpt>
      <trkpt lat="39.6205120" lon="2.4266150">
        <ele>456.4</ele>
        <time>2020-01-03T08:09:34Z</time>
      </trkpt>
      <trkpt lat="39.6205380" lon="2.4266400">
        <ele>457.6</ele>
        <time>2020-01-03T08:09:40Z</time>
      </trkpt>
      <trkpt lat="39.6205610" lon="2.4266850">
        <ele>458.8</ele>
        <time>2020-01-03T08:09:47Z</time>
      </trkpt>
      <trkpt lat="39.6205980" lon="2.4267090">
        <ele>459.8</ele>
        <time>2020-01-03T08:09:57Z</time>
      </trkpt>
      <trkpt lat="39.6206220" lon="2.4267180">
        <ele>461.2</ele>
        <time>2020-01-03T08:10:02Z</time>
      </trkpt>
      <trkpt lat="39.6206550" lon="2.4266970">
        <ele>462.2</ele>
        <time>2020-01-03T08:10:09Z</time>
      </trkpt>
      <trkpt lat="39.6207630" lon="2.4266990">
        <ele>463.6</ele>
        <time>2020-01-03T08:10:27Z</time>
      </trkpt>
      <trkpt lat="39.6207920" lon="2.4267410">
        <ele>464.8</ele>
        <time>2020-01-03T08:10:34Z</time>
      </trkpt>
      <trkpt lat="39.6208220" lon="2.4267590">
        <ele>465.8</ele>
        <time>2020-01-03T08:10:39Z</time>
      </trkpt>
      <trkpt lat="39.6208610" lon="2.4268100">
        <ele>467.0</ele>
        <time>2020-01-03T08:10:46Z</time>
      </trkpt>
      <trkpt lat="39.6209080" lon="2.4268600">
        <ele>468.2</ele>
        <time>2020-01-03T08:10:55Z</time>
      </trkpt>
      <trkpt lat="39.6209570" lon="2.4268860">
        <ele>469.2</ele>
        <time>2020-01-03T08:11:05Z</time>
      </trkpt>
      <trkpt lat="39.6209890" lon="2.4269200">
        <ele>470.4</ele>
        <time>2020-01-03T08:11:11Z</time>
      </trkpt>
      <trkpt lat="39.6210040" lon="2.4269430">
        <ele>471.4</ele>
        <time>2020-01-03T08:11:16Z</time>
      </trkpt>
      <trkpt lat="39.6210270" lon="2.4269910">
        <ele>472.6</ele>
        <time>2020-01-03T08:11:23Z</time>
      </trkpt>
      <trkpt lat="39.6211560" lon="2.4270520">
        <ele>473.6</ele>
        <time>2020-01-03T08:11:42Z</time>
      </trkpt>
      <trkpt lat="39.6212020" lon="2.4270860">
        <ele>474.8</ele>
        <time>2020-01-03T08:11:49Z</time>
      </trkpt>
      <trkpt lat="39.6212530" lon="2.4271200">
        <ele>475.8</ele>
        <time>2020-01-03T08:11:57Z</time>
      </trkpt>
      <trkpt lat="39.6212910" lon="2.4271490">
        <ele>476.8</ele>
        <time>2020-01-03T08:12:03Z</time>
      </trkpt>
      <trkpt lat="39.6213280" lon="2.4271830">
        <ele>478.0</ele>
        <time>2020-01-03T08:12:12Z</time>
      </trkpt>
      <trkpt lat="39.6213250" lon="2.4272260">
        <ele>479.2</ele>
        <time>2020-01-03T08:12:21Z</time>
      </trkpt>
      <trkpt lat="39.6213350" lon="2.4272590">
        <ele>480.2</ele>
        <time>2020-01-03T08:12:27Z</time>
      </trkpt>
      <trkpt lat="39.6213520" lon="2.4272860">
        <ele>481.4</ele>
        <time>2020-01-03T08:12:34Z</time>
      </trkpt>
      <trkpt lat="39.6213630" lon="2.4273300">
        <ele>482.6</ele>
        <time>2020-01-03T08:12:41Z</time>
      </trkpt>
      <trkpt lat="39.6213730" lon="2.4273740">
        <ele>483.6</ele>
        <time>2020-01-03T08:12:47Z</time>
      </trkpt>
      <trkpt lat="39.6214040" lon="2.4274170">
        <ele>484.8</ele>
        <time>2020-01-03T08:12:55Z</time>
      </trkpt>
      <trkpt lat="39.6214240" lon="2.4274470">
        <ele>485.8</ele>
        <time>2020-01-03T08:13:01Z</time>
      </trkpt>
      <trkpt lat="39.6214580" lon="2.4274810">
        <ele>487.0</ele>
        <time>2020-01-03T08:13:09Z</time>
      </trkpt>
      <trkpt lat="39.6214890" lon="2.4275130">
        <ele>488.0</ele>
        <time>2020-01-03T08:13:16Z</time>
      </trkpt>
      <trkpt lat="39.6215150" lon="2.4275440">
        <ele>489.2</ele>
        <time>2020-01-03T08:13:23Z</time>
      </trkpt>
      <trkpt lat="39.6215170" lon="2.4275820">
        <ele>490.4</ele>
        <time>2020-01-03T08:13:30Z</time>
      </trkpt>
      <trkpt lat="39.6215300" lon="2.4276160">
        <ele>491.4</ele>
        <time>2020-01-03T08:13:36Z</time>
      </trkpt>
      <trkpt lat="39.6215190" lon="2.4276480">
        <ele>492.4</ele>
        <time>2020-01-03T08:13:41Z</time>
      </trkpt>
      <trkpt lat="39.6215430" lon="2.4276890">
        <ele>493.6</ele>
        <time>2020-01-03T08:13:48Z</time>
      </trkpt>
      <trkpt lat="39.6215700" lon="2.4277330">
        <ele>494.8</ele>
        <time>2020-01-03T08:13:54Z</time>
      </trkpt>
      <trkpt lat="39.6215850" lon="2.4277870">
        <ele>495.8</ele>
        <time>2020-01-03T08:14:01Z</time>
      </trkpt>
      <trkpt lat="39.6215920" lon="2.4278200">
        <ele>497.0</ele>
        <time>2020-01-03T08:14:05Z</time>
      </trkpt>
      <trkpt lat="39.6215800" lon="2.4278540">
        <ele>496.8</ele>
        <time>2020-01-03T08:14:08Z</time>
      </trkpt>
      <trkpt lat="39.6215730" lon="2.4278630">
        <ele>496.4</ele>
        <time>2020-01-03T08:14:10Z</time>
      </trkpt>
      <trkpt lat="39.6215610" lon="2.4278730">
        <ele>495.8</ele>
        <time>2020-01-03T08:14:12Z</time>
      </trkpt>
      <trkpt lat="39.6215530" lon="2.4279950">
        <ele>497.0</ele>
        <time>2020-01-03T08:14:37Z</time>
      </trkpt>
      <trkpt lat="39.6215460" lon="2.4280940">
        <ele>498.2</ele>
        <time>2020-01-03T08:14:52Z</time>
      </trkpt>
      <trkpt lat="39.6215800" lon="2.4282110">
        <ele>499.2</ele>
        <time>2020-01-03T08:15:10Z</time>
      </trkpt>
      <trkpt lat="39.6215890" lon="2.4282310">
        <ele>499.4</ele>
        <time>2020-01-03T08:15:12Z</time>
      </trkpt>
      <trkpt lat="39.6216830" lon="2.4283300">
        <ele>500.2</ele>
        <time>2020-01-03T08:15:28Z</time>
      </trkpt>
      <trkpt lat="39.6218030" lon="2.4285010">
        <ele>501.4</ele>
        <time>2020-01-03T08:16:03Z</time>
      </trkpt>
      <trkpt lat="39.6217790" lon="2.4285610">
        <ele>502.6</ele>
        <time>2020-01-03T08:16:12Z</time>
      </trkpt>
      <trkpt lat="39.6217350" lon="2.4286310">
        <ele>503.6</ele>
        <time>2020-01-03T08:16:25Z</time>
      </trkpt>
      <trkpt lat="39.6217590" lon="2.4286850">
        <ele>504.6</ele>
        <time>2020-01-03T08:16:35Z</time>
      </trkpt>
      <trkpt lat="39.6217600" lon="2.4287150">
        <ele>506.0</ele>
        <time>2020-01-03T08:16:48Z</time>
      </trkpt>
      <trkpt lat="39.6216520" lon="2.4287710">
        <ele>507.2</ele>
        <time>2020-01-03T08:17:18Z</time>
      </trkpt>
      <trkpt lat="39.6216370" lon="2.4288200">
        <ele>508.4</ele>
        <time>2020-01-03T08:17:26Z</time>
      </trkpt>
      <trkpt lat="39.6216260" lon="2.4288770">
        <ele>509.6</ele>
        <time>2020-01-03T08:17:34Z</time>
      </trkpt>
      <trkpt lat="39.6216300" lon="2.4289150">
        <ele>510.6</ele>
        <time>2020-01-03T08:17:40Z</time>
      </trkpt>
      <trkpt lat="39.6216320" lon="2.4289450">
        <ele>511.8</ele>
        <time>2020-01-03T08:17:45Z</time>
      </trkpt>
      <trkpt lat="39.6216510" lon="2.4290100">
        <ele>512.8</ele>
        <time>2020-01-03T08:17:54Z</time>
      </trkpt>
      <trkpt lat="39.6216720" lon="2.4290350">
        <ele>513.8</ele>
        <time>2020-01-03T08:17:59Z</time>
      </trkpt>
      <trkpt lat="39.6217150" lon="2.4290720">
        <ele>515.0</ele>
        <time>2020-01-03T08:18:07Z</time>
      </trkpt>
      <trkpt lat="39.6217320" lon="2.4291180">
        <ele>516.0</ele>
        <time>2020-01-03T08:18:14Z</time>
      </trkpt>
      <trkpt lat="39.6217250" lon="2.4291590">
        <ele>517.2</ele>
        <time>2020-01-03T08:18:29Z</time>
      </trkpt>
      <trkpt lat="39.6217470" lon="2.4291990">
        <ele>518.2</ele>
        <time>2020-01-03T08:18:36Z</time>
      </trkpt>
      <trkpt lat="39.6217570" lon="2.4292530">
        <ele>519.4</ele>
        <time>2020-01-03T08:18:43Z</time>
      </trkpt>
      <trkpt lat="39.6217600" lon="2.4292980">
        <ele>520.4</ele>
        <time>2020-01-03T08:18:49Z</time>
      </trkpt>
      <trkpt lat="39.6217660" lon="2.4293280">
        <ele>521.4</ele>
        <time>2020-01-03T08:18:54Z</time>
      </trkpt>
      <trkpt lat="39.6217890" lon="2.4293740">
        <ele>522.6</ele>
        <time>2020-01-03T08:18:59Z</time>
      </trkpt>
      <trkpt lat="39.6217950" lon="2.4294330">
        <ele>523.6</ele>
        <time>2020-01-03T08:19:07Z</time>
      </trkpt>
      <trkpt lat="39.6217890" lon="2.4294790">
        <ele>524.8</ele>
        <time>2020-01-03T08:19:15Z</time>
      </trkpt>
      <trkpt lat="39.6217570" lon="2.4295250">
        <ele>526.0</ele>
        <time>2020-01-03T08:19:23Z</time>
      </trkpt>
      <trkpt lat="39.6217130" lon="2.4295700">
        <ele>527.0</ele>
        <time>2020-01-03T08:19:31Z</time>
      </trkpt>
      <trkpt lat="39.6216940" lon="2.4295870">
        <ele>528.2</ele>
        <time>2020-01-03T08:19:37Z</time>
      </trkpt>
      <trkpt lat="39.6216970" lon="2.4296060">
        <ele>529.4</ele>
        <time>2020-01-03T08:19:40Z</time>
      </trkpt>
      <trkpt lat="39.6217610" lon="2.4296540">
        <ele>530.4</ele>
        <time>2020-01-03T08:19:53Z</time>
      </trkpt>
      <trkpt lat="39.6217990" lon="2.4297010">
        <ele>531.4</ele>
        <time>2020-01-03T08:20:02Z</time>
      </trkpt>
      <trkpt lat="39.6218770" lon="2.4298130">
        <ele>532.6</ele>
        <time>2020-01-03T08:20:17Z</time>
      </trkpt>
      <trkpt lat="39.6219150" lon="2.4298630">
        <ele>533.6</ele>
        <time>2020-01-03T08:20:25Z</time>
      </trkpt>
      <trkpt lat="39.6219270" lon="2.4298930">
        <ele>534.8</ele>
        <time>2020-01-03T08:20:30Z</time>
      </trkpt>
      <trkpt lat="39.6219730" lon="2.4299200">
        <ele>536.0</ele>
        <time>2020-01-03T08:20:37Z</time>
      </trkpt>
      <trkpt lat="39.6219810" lon="2.4299240">
        <ele>536.0</ele>
        <time>2020-01-03T08:20:38Z</time>
      </trkpt>
      <trkpt lat="39.6220070" lon="2.4299460">
        <ele>536.6</ele>
        <time>2020-01-03T08:20:42Z</time>
      </trkpt>
      <trkpt lat="39.6220180" lon="2.4299570">
        <ele>537.2</ele>
        <time>2020-01-03T08:20:44Z</time>
      </trkpt>
      <trkpt lat="39.6220510" lon="2.4299740">
        <ele>538.2</ele>
        <time>2020-01-03T08:20:50Z</time>
      </trkpt>
      <trkpt lat="39.6220650" lon="2.4300120">
        <ele>539.2</ele>
        <time>2020-01-03T08:20:55Z</time>
      </trkpt>
      <trkpt lat="39.6220890" lon="2.4300290">
        <ele>540.4</ele>
        <time>2020-01-03T08:21:00Z</time>
      </trkpt>
      <trkpt lat="39.6221180" lon="2.4300530">
        <ele>541.6</ele>
        <time>2020-01-03T08:21:06Z</time>
      </trkpt>
      <trkpt lat="39.6221340" lon="2.4300950">
        <ele>542.6</ele>
        <time>2020-01-03T08:21:12Z</time>
      </trkpt>
      <trkpt lat="39.6221490" lon="2.4301540">
        <ele>543.6</ele>
        <time>2020-01-03T08:21:19Z</time>
      </trkpt>
      <trkpt lat="39.6221510" lon="2.4301990">
        <ele>544.6</ele>
        <time>2020-01-03T08:21:26Z</time>
      </trkpt>
      <trkpt lat="39.6221980" lon="2.4302520">
        <ele>545.8</ele>
        <time>2020-01-03T08:21:36Z</time>
      </trkpt>
      <trkpt lat="39.6222320" lon="2.4302750">
        <ele>547.0</ele>
        <time>2020-01-03T08:21:43Z</time>
      </trkpt>
      <trkpt lat="39.6222620" lon="2.4302990">
        <ele>548.2</ele>
        <time>2020-01-03T08:21:51Z</time>
      </trkpt>
      <trkpt lat="39.6222880" lon="2.4303210">
        <ele>549.4</ele>
        <time>2020-01-03T08:21:57Z</time>
      </trkpt>
      <trkpt lat="39.6223130" lon="2.4303670">
        <ele>550.4</ele>
        <time>2020-01-03T08:22:04Z</time>
      </trkpt>
      <trkpt lat="39.6223280" lon="2.4304240">
        <ele>551.4</ele>
        <time>2020-01-03T08:22:13Z</time>
      </trkpt>
      <trkpt lat="39.6223610" lon="2.4304390">
        <ele>552.6</ele>
        <time>2020-01-03T08:22:20Z</time>
      </trkpt>
      <trkpt lat="39.6223650" lon="2.4304570">
        <ele>553.6</ele>
        <time>2020-01-03T08:22:23Z</time>
      </trkpt>
      <trkpt lat="39.6223930" lon="2.4305080">
        <ele>554.8</ele>
        <time>2020-01-03T08:22:34Z</time>
      </trkpt>
      <trkpt lat="39.6223660" lon="2.4305810">
        <ele>556.0</ele>
        <time>2020-01-03T08:22:44Z</time>
      </trkpt>
      <trkpt lat="39.6223800" lon="2.4305960">
        <ele>557.2</ele>
        <time>2020-01-03T08:22:53Z</time>
      </trkpt>
      <trkpt lat="39.6223800" lon="2.4306280">
        <ele>558.4</ele>
        <time>2020-01-03T08:22:57Z</time>
      </trkpt>
      <trkpt lat="39.6224220" lon="2.4306300">
        <ele>559.4</ele>
        <time>2020-01-03T08:23:08Z</time>
      </trkpt>
      <trkpt lat="39.6224440" lon="2.4306570">
        <ele>560.4</ele>
        <time>2020-01-03T08:23:15Z</time>
      </trkpt>
      <trkpt lat="39.6224430" lon="2.4306850">
        <ele>561.6</ele>
        <time>2020-01-03T08:23:20Z</time>
      </trkpt>
      <trkpt lat="39.6224390" lon="2.4307650">
        <ele>562.6</ele>
        <time>2020-01-03T08:23:32Z</time>
      </trkpt>
      <trkpt lat="39.6223540" lon="2.4310850">
        <ele>563.4</ele>
        <time>2020-01-03T08:24:08Z</time>
      </trkpt>
      <trkpt lat="39.6223500" lon="2.4311040">
        <ele>563.4</ele>
        <time>2020-01-03T08:24:10Z</time>
      </trkpt>
      <trkpt lat="39.6223430" lon="2.4311500">
        <ele>563.6</ele>
        <time>2020-01-03T08:24:14Z</time>
      </trkpt>
      <trkpt lat="39.6223870" lon="2.4312760">
        <ele>563.0</ele>
        <time>2020-01-03T08:24:25Z</time>
      </trkpt>
      <trkpt lat="39.6223800" lon="2.4313100">
        <ele>563.2</ele>
        <time>2020-01-03T08:24:28Z</time>
      </trkpt>
      <trkpt lat="39.6223740" lon="2.4313630">
        <ele>563.0</ele>
        <time>2020-01-03T08:24:33Z</time>
      </trkpt>
      <trkpt lat="39.6223860" lon="2.4314450">
        <ele>563.0</ele>
        <time>2020-01-03T08:24:40Z</time>
      </trkpt>
      <trkpt lat="39.6223980" lon="2.4314610">
        <ele>563.0</ele>
        <time>2020-01-03T08:24:42Z</time>
      </trkpt>
      <trkpt lat="39.6223880" lon="2.4315230">
        <ele>563.0</ele>
        <time>2020-01-03T08:24:47Z</time>
      </trkpt>
      <trkpt lat="39.6223860" lon="2.4315470">
        <ele>563.0</ele>
        <time>2020-01-03T08:24:50Z</time>
      </trkpt>
      <trkpt lat="39.6224180" lon="2.4316190">
        <ele>562.8</ele>
        <time>2020-01-03T08:24:57Z</time>
      </trkpt>
      <trkpt lat="39.6224400" lon="2.4317810">
        <ele>563.0</ele>
        <time>2020-01-03T08:25:11Z</time>
      </trkpt>
      <trkpt lat="39.6224560" lon="2.4318110">
        <ele>563.2</ele>
        <time>2020-01-03T08:25:14Z</time>
      </trkpt>
      <trkpt lat="39.6224610" lon="2.4318460">
        <ele>564.0</ele>
        <time>2020-01-03T08:25:17Z</time>
      </trkpt>
      <trkpt lat="39.6224340" lon="2.4319340">
        <ele>564.0</ele>
        <time>2020-01-03T08:25:25Z</time>
      </trkpt>
      <trkpt lat="39.6224320" lon="2.4319510">
        <ele>564.0</ele>
        <time>2020-01-03T08:25:27Z</time>
      </trkpt>
      <trkpt lat="39.6223970" lon="2.4320350">
        <ele>564.4</ele>
        <time>2020-01-03T08:25:35Z</time>
      </trkpt>
      <trkpt lat="39.6223710" lon="2.4321130">
        <ele>565.0</ele>
        <time>2020-01-03T08:25:42Z</time>
      </trkpt>
      <trkpt lat="39.6223630" lon="2.4321550">
        <ele>565.4</ele>
        <time>2020-01-03T08:25:46Z</time>
      </trkpt>
      <trkpt lat="39.6223550" lon="2.4321750">
        <ele>565.6</ele>
        <time>2020-01-03T08:25:48Z</time>
      </trkpt>
      <trkpt lat="39.6223240" lon="2.4322370">
        <ele>566.2</ele>
        <time>2020-01-03T08:25:56Z</time>
      </trkpt>
      <trkpt lat="39.6223400" lon="2.4323480">
        <ele>567.2</ele>
        <time>2020-01-03T08:26:09Z</time>
      </trkpt>
      <trkpt lat="39.6223600" lon="2.4323900">
        <ele>568.4</ele>
        <time>2020-01-03T08:26:18Z</time>
      </trkpt>
      <trkpt lat="39.6223680" lon="2.4324360">
        <ele>569.4</ele>
        <time>2020-01-03T08:26:23Z</time>
      </trkpt>
      <trkpt lat="39.6223020" lon="2.4325260">
        <ele>570.4</ele>
        <time>2020-01-03T08:26:36Z</time>
      </trkpt>
      <trkpt lat="39.6222790" lon="2.4325750">
        <ele>571.6</ele>
        <time>2020-01-03T08:26:44Z</time>
      </trkpt>
      <trkpt lat="39.6222770" lon="2.4326460">
        <ele>572.8</ele>
        <time>2020-01-03T08:26:54Z</time>
      </trkpt>
      <trkpt lat="39.6222790" lon="2.4326910">
        <ele>574.0</ele>
        <time>2020-01-03T08:27:01Z</time>
      </trkpt>
      <trkpt lat="39.6222750" lon="2.4327470">
        <ele>575.0</ele>
        <time>2020-01-03T08:27:08Z</time>
      </trkpt>
      <trkpt lat="39.6222710" lon="2.4327860">
        <ele>576.2</ele>
        <time>2020-01-03T08:27:14Z</time>
      </trkpt>
      <trkpt lat="39.6222670" lon="2.4328330">
        <ele>577.2</ele>
        <time>2020-01-03T08:27:22Z</time>
      </trkpt>
      <trkpt lat="39.6222570" lon="2.4328720">
        <ele>578.4</ele>
        <time>2020-01-03T08:27:28Z</time>
      </trkpt>
      <trkpt lat="39.6222640" lon="2.4329120">
        <ele>579.4</ele>
        <time>2020-01-03T08:27:35Z</time>
      </trkpt>
      <trkpt lat="39.6222640" lon="2.4329450">
        <ele>580.6</ele>
        <time>2020-01-03T08:27:42Z</time>
      </trkpt>
      <trkpt lat="39.6222560" lon="2.4329560">
        <ele>581.8</ele>
        <time>2020-01-03T08:27:46Z</time>
      </trkpt>
      <trkpt lat="39.6222640" lon="2.4329940">
        <ele>582.8</ele>
        <time>2020-01-03T08:27:51Z</time>
      </trkpt>
      <trkpt lat="39.6222680" lon="2.4330190">
        <ele>584.0</ele>
        <time>2020-01-03T08:27:55Z</time>
      </trkpt>
      <trkpt lat="39.6222770" lon="2.4330600">
        <ele>585.0</ele>
        <time>2020-01-03T08:28:00Z</time>
      </trkpt>
      <trkpt lat="39.6222810" lon="2.4331500">
        <ele>586.0</ele>
        <time>2020-01-03T08:28:09Z</time>
      </trkpt>
      <trkpt lat="39.6222730" lon="2.4331990">
        <ele>587.2</ele>
        <time>2020-01-03T08:28:15Z</time>
      </trkpt>
      <trkpt lat="39.6222600" lon="2.4332450">
        <ele>588.4</ele>
        <time>2020-01-03T08:28:21Z</time>
      </trkpt>
      <trkpt lat="39.6222590" lon="2.4332940">
        <ele>589.4</ele>
        <time>2020-01-03T08:28:29Z</time>
      </trkpt>
      <trkpt lat="39.6222560" lon="2.4333350">
        <ele>590.4</ele>
        <time>2020-01-03T08:28:41Z</time>
      </trkpt>
      <trkpt lat="39.6222530" lon="2.4333650">
        <ele>591.6</ele>
        <time>2020-01-03T08:29:38Z</time>
      </trkpt>
      <trkpt lat="39.6222490" lon="2.4333670">
        <ele>592.8</ele>
        <time>2020-01-03T08:30:02Z</time>
      </trkpt>
      <trkpt lat="39.6222470" lon="2.4333700">
        <ele>593.8</ele>
        <time>2020-01-03T08:30:07Z</time>
      </trkpt>
      <trkpt lat="39.6222510" lon="2.4333680">
        <ele>595.4</ele>
        <time>2020-01-03T08:30:14Z</time>
      </trkpt>
      <trkpt lat="39.6222510" lon="2.4333700">
        <ele>593.8</ele>
        <time>2020-01-03T08:30:18Z</time>
      </trkpt>
      <trkpt lat="39.6222440" lon="2.4334230">
        <ele>592.8</ele>
        <time>2020-01-03T08:30:31Z</time>
      </trkpt>
      <trkpt lat="39.6222390" lon="2.4334240">
        <ele>591.8</ele>
        <time>2020-01-03T08:30:37Z</time>
      </trkpt>
      <trkpt lat="39.6222390" lon="2.4334220">
        <ele>593.0</ele>
        <time>2020-01-03T08:30:45Z</time>
      </trkpt>
      <trkpt lat="39.6222430" lon="2.4334220">
        <ele>594.0</ele>
        <time>2020-01-03T08:30:51Z</time>
      </trkpt>
      <trkpt lat="39.6223210" lon="2.4336410">
        <ele>592.6</ele>
        <time>2020-01-03T08:31:38Z</time>
      </trkpt>
      <trkpt lat="39.6223500" lon="2.4338020">
        <ele>591.6</ele>
        <time>2020-01-03T08:31:54Z</time>
      </trkpt>
      <trkpt lat="39.6223550" lon="2.4338360">
        <ele>591.4</ele>
        <time>2020-01-03T08:31:57Z</time>
      </trkpt>
      <trkpt lat="39.6223660" lon="2.4338590">
        <ele>591.4</ele>
        <time>2020-01-03T08:32:00Z</time>
      </trkpt>
      <trkpt lat="39.6223740" lon="2.4338770">
        <ele>591.4</ele>
        <time>2020-01-03T08:32:02Z</time>
      </trkpt>
      <trkpt lat="39.6223970" lon="2.4342680">
        <ele>592.8</ele>
        <time>2020-01-03T08:32:47Z</time>
      </trkpt>
      <trkpt lat="39.6224310" lon="2.4343720">
        <ele>593.6</ele>
        <time>2020-01-03T08:32:59Z</time>
      </trkpt>
      <trkpt lat="39.6224300" lon="2.4343880">
        <ele>594.0</ele>
        <time>2020-01-03T08:33:01Z</time>
      </trkpt>
      <trkpt lat="39.6224050" lon="2.4344620">
        <ele>595.2</ele>
        <time>2020-01-03T08:33:15Z</time>
      </trkpt>
      <trkpt lat="39.6223970" lon="2.4345630">
        <ele>596.2</ele>
        <time>2020-01-03T08:33:30Z</time>
      </trkpt>
      <trkpt lat="39.6223960" lon="2.4346280">
        <ele>597.2</ele>
        <time>2020-01-03T08:33:39Z</time>
      </trkpt>
      <trkpt lat="39.6223740" lon="2.4347310">
        <ele>598.4</ele>
        <time>2020-01-03T08:33:53Z</time>
      </trkpt>
      <trkpt lat="39.6223860" lon="2.4347810">
        <ele>599.4</ele>
        <time>2020-01-03T08:34:02Z</time>
      </trkpt>
      <trkpt lat="39.6224160" lon="2.4348400">
        <ele>600.4</ele>
        <time>2020-01-03T08:34:13Z</time>
      </trkpt>
      <trkpt lat="39.6224190" lon="2.4349160">
        <ele>601.4</ele>
        <time>2020-01-03T08:34:27Z</time>
      </trkpt>
      <trkpt lat="39.6224180" lon="2.4349860">
        <ele>602.6</ele>
        <time>2020-01-03T08:34:37Z</time>
      </trkpt>
      <trkpt lat="39.6224050" lon="2.4350570">
        <ele>603.6</ele>
        <time>2020-01-03T08:34:45Z</time>
      </trkpt>
      <trkpt lat="39.6222680" lon="2.4351790">
        <ele>604.6</ele>
        <time>2020-01-03T08:35:05Z</time>
      </trkpt>
      <trkpt lat="39.6222630" lon="2.4351940">
        <ele>604.6</ele>
        <time>2020-01-03T08:35:07Z</time>
      </trkpt>
      <trkpt lat="39.6222350" lon="2.4352880">
        <ele>605.4</ele>
        <time>2020-01-03T08:35:16Z</time>
      </trkpt>
      <trkpt lat="39.6222420" lon="2.4353590">
        <ele>605.6</ele>
        <time>2020-01-03T08:35:22Z</time>
      </trkpt>
      <trkpt lat="39.6222430" lon="2.4353730">
        <ele>605.8</ele>
        <time>2020-01-03T08:35:23Z</time>
      </trkpt>
      <trkpt lat="39.6222420" lon="2.4353960">
        <ele>606.0</ele>
        <time>2020-01-03T08:35:25Z</time>
      </trkpt>
      <trkpt lat="39.6223280" lon="2.4355820">
        <ele>604.6</ele>
        <time>2020-01-03T08:35:49Z</time>
      </trkpt>
      <trkpt lat="39.6223540" lon="2.4356250">
        <ele>603.6</ele>
        <time>2020-01-03T08:35:56Z</time>
      </trkpt>
      <trkpt lat="39.6223830" lon="2.4357240">
        <ele>602.6</ele>
        <time>2020-01-03T08:36:06Z</time>
      </trkpt>
      <trkpt lat="39.6223770" lon="2.4357920">
        <ele>601.4</ele>
        <time>2020-01-03T08:36:13Z</time>
      </trkpt>
      <trkpt lat="39.6224110" lon="2.4359370">
        <ele>600.2</ele>
        <time>2020-01-03T08:36:27Z</time>
      </trkpt>
      <trkpt lat="39.6224020" lon="2.4360300">
        <ele>599.2</ele>
        <time>2020-01-03T08:36:35Z</time>
      </trkpt>
      <trkpt lat="39.6223890" lon="2.4361160">
        <ele>598.4</ele>
        <time>2020-01-03T08:36:42Z</time>
      </trkpt>
      <trkpt lat="39.6223850" lon="2.4361510">
        <ele>598.4</ele>
        <time>2020-01-03T08:36:45Z</time>
      </trkpt>
      <trkpt lat="39.6223800" lon="2.4361560">
        <ele>598.2</ele>
        <time>2020-01-03T08:36:46Z</time>
      </trkpt>
      <trkpt lat="39.6223660" lon="2.4361710">
        <ele>598.0</ele>
        <time>2020-01-03T08:36:48Z</time>
      </trkpt>
      <trkpt lat="39.6223320" lon="2.4362870">
        <ele>598.0</ele>
        <time>2020-01-03T08:36:59Z</time>
      </trkpt>
      <trkpt lat="39.6223200" lon="2.4363500">
        <ele>598.2</ele>
        <time>2020-01-03T08:37:05Z</time>
      </trkpt>
      <trkpt lat="39.6223150" lon="2.4363620">
        <ele>598.4</ele>
        <time>2020-01-03T08:37:08Z</time>
      </trkpt>
      <trkpt lat="39.6222660" lon="2.4364100">
        <ele>599.2</ele>
        <time>2020-01-03T08:37:19Z</time>
      </trkpt>
      <trkpt lat="39.6222360" lon="2.4364430">
        <ele>600.6</ele>
        <time>2020-01-03T08:37:26Z</time>
      </trkpt>
      <trkpt lat="39.6222300" lon="2.4364810">
        <ele>601.6</ele>
        <time>2020-01-03T08:37:33Z</time>
      </trkpt>
      <trkpt lat="39.6222800" lon="2.4365720">
        <ele>602.6</ele>
        <time>2020-01-03T08:37:51Z</time>
      </trkpt>
      <trkpt lat="39.6222450" lon="2.4365940">
        <ele>603.6</ele>
        <time>2020-01-03T08:37:58Z</time>
      </trkpt>
      <trkpt lat="39.6222070" lon="2.4366450">
        <ele>604.8</ele>
        <time>2020-01-03T08:38:06Z</time>
      </trkpt>
      <trkpt lat="39.6222270" lon="2.4368370">
        <ele>605.8</ele>
        <time>2020-01-03T08:38:27Z</time>
      </trkpt>
      <trkpt lat="39.6222430" lon="2.4369420">
        <ele>606.8</ele>
        <time>2020-01-03T08:38:38Z</time>
      </trkpt>
      <trkpt lat="39.6222420" lon="2.4370400">
        <ele>607.8</ele>
        <time>2020-01-03T08:38:50Z</time>
      </trkpt>
      <trkpt lat="39.6222400" lon="2.4371400">
        <ele>608.8</ele>
        <time>2020-01-03T08:39:00Z</time>
      </trkpt>
      <trkpt lat="39.6222460" lon="2.4371880">
        <ele>610.0</ele>
        <time>2020-01-03T08:39:07Z</time>
      </trkpt>
      <trkpt lat="39.6222600" lon="2.4372750">
        <ele>611.2</ele>
        <time>2020-01-03T08:39:16Z</time>
      </trkpt>
      <trkpt lat="39.6222360" lon="2.4373620">
        <ele>612.2</ele>
        <time>2020-01-03T08:39:26Z</time>
      </trkpt>
      <trkpt lat="39.6222260" lon="2.4374160">
        <ele>613.2</ele>
        <time>2020-01-03T08:39:32Z</time>
      </trkpt>
      <trkpt lat="39.6222190" lon="2.4375110">
        <ele>614.2</ele>
        <time>2020-01-03T08:39:43Z</time>
      </trkpt>
      <trkpt lat="39.6222250" lon="2.4375910">
        <ele>615.4</ele>
        <time>2020-01-03T08:39:53Z</time>
      </trkpt>
      <trkpt lat="39.6222600" lon="2.4376800">
        <ele>616.4</ele>
        <time>2020-01-03T08:40:05Z</time>
      </trkpt>
      <trkpt lat="39.6222690" lon="2.4378040">
        <ele>617.2</ele>
        <time>2020-01-03T08:40:17Z</time>
      </trkpt>
      <trkpt lat="39.6222770" lon="2.4378440">
        <ele>617.4</ele>
        <time>2020-01-03T08:40:21Z</time>
      </trkpt>
      <trkpt lat="39.6223230" lon="2.4379110">
        <ele>616.4</ele>
        <time>2020-01-03T08:40:29Z</time>
      </trkpt>
      <trkpt lat="39.6227180" lon="2.4381800">
        <ele>617.4</ele>
        <time>2020-01-03T08:41:22Z</time>
      </trkpt>
      <trkpt lat="39.6227340" lon="2.4382460">
        <ele>618.0</ele>
        <time>2020-01-03T08:41:30Z</time>
      </trkpt>
      <trkpt lat="39.6227820" lon="2.4383070">
        <ele>618.6</ele>
        <time>2020-01-03T08:41:42Z</time>
      </trkpt>
      <trkpt lat="39.6227950" lon="2.4383240">
        <ele>618.6</ele>
        <time>2020-01-03T08:41:44Z</time>
      </trkpt>
      <trkpt lat="39.6228020" lon="2.4383320">
        <ele>618.6</ele>
        <time>2020-01-03T08:41:45Z</time>
      </trkpt>
      <trkpt lat="39.6230050" lon="2.4384360">
        <ele>617.8</ele>
        <time>2020-01-03T08:42:10Z</time>
      </trkpt>
      <trkpt lat="39.6230140" lon="2.4384420">
        <ele>617.6</ele>
        <time>2020-01-03T08:42:11Z</time>
      </trkpt>
      <trkpt lat="39.6230680" lon="2.4384410">
        <ele>616.4</ele>
        <time>2020-01-03T08:42:17Z</time>
      </trkpt>
      <trkpt lat="39.6230870" lon="2.4383980">
        <ele>615.4</ele>
        <time>2020-01-03T08:42:22Z</time>
      </trkpt>
      <trkpt lat="39.6231230" lon="2.4383160">
        <ele>614.2</ele>
        <time>2020-01-03T08:42:30Z</time>
      </trkpt>
      <trkpt lat="39.6231450" lon="2.4382910">
        <ele>613.8</ele>
        <time>2020-01-03T08:42:33Z</time>
      </trkpt>
      <trkpt lat="39.6231820" lon="2.4382740">
        <ele>613.0</ele>
        <time>2020-01-03T08:42:37Z</time>
      </trkpt>
      <trkpt lat="39.6232670" lon="2.4382840">
        <ele>612.0</ele>
        <time>2020-01-03T08:42:46Z</time>
      </trkpt>
      <trkpt lat="39.6234290" lon="2.4383280">
        <ele>612.6</ele>
        <time>2020-01-03T08:43:01Z</time>
      </trkpt>
      <trkpt lat="39.6234920" lon="2.4382960">
        <ele>613.2</ele>
        <time>2020-01-03T08:43:08Z</time>
      </trkpt>
      <trkpt lat="39.6235030" lon="2.4382880">
        <ele>613.4</ele>
        <time>2020-01-03T08:43:10Z</time>
      </trkpt>
      <trkpt lat="39.6235200" lon="2.4382660">
        <ele>614.2</ele>
        <time>2020-01-03T08:43:14Z</time>
      </trkpt>
      <trkpt lat="39.6235400" lon="2.4382370">
        <ele>615.2</ele>
        <time>2020-01-03T08:43:20Z</time>
      </trkpt>
      <trkpt lat="39.6235420" lon="2.4381650">
        <ele>616.4</ele>
        <time>2020-01-03T08:43:30Z</time>
      </trkpt>
      <trkpt lat="39.6235630" lon="2.4381300">
        <ele>617.6</ele>
        <time>2020-01-03T08:43:36Z</time>
      </trkpt>
      <trkpt lat="39.6236480" lon="2.4380780">
        <ele>618.6</ele>
        <time>2020-01-03T08:43:48Z</time>
      </trkpt>
      <trkpt lat="39.6236520" lon="2.4380590">
        <ele>618.6</ele>
        <time>2020-01-03T08:43:50Z</time>
      </trkpt>
      <trkpt lat="39.6236600" lon="2.4380390">
        <ele>618.8</ele>
        <time>2020-01-03T08:43:52Z</time>
      </trkpt>
      <trkpt lat="39.6237180" lon="2.4379460">
        <ele>619.6</ele>
        <time>2020-01-03T08:44:04Z</time>
      </trkpt>
      <trkpt lat="39.6240100" lon="2.4377080">
        <ele>620.0</ele>
        <time>2020-01-03T08:44:48Z</time>
      </trkpt>
      <trkpt lat="39.6242070" lon="2.4375830">
        <ele>618.8</ele>
        <time>2020-01-03T08:45:14Z</time>
      </trkpt>
      <trkpt lat="39.6242370" lon="2.4375330">
        <ele>618.8</ele>
        <time>2020-01-03T08:45:19Z</time>
      </trkpt>
      <trkpt lat="39.6243470" lon="2.4374070">
        <ele>620.8</ele>
        <time>2020-01-03T08:45:42Z</time>
      </trkpt>
      <trkpt lat="39.6243930" lon="2.4373240">
        <ele>621.4</ele>
        <time>2020-01-03T08:45:51Z</time>
      </trkpt>
      <trkpt lat="39.6244230" lon="2.4373160">
        <ele>621.8</ele>
        <time>2020-01-03T08:45:54Z</time>
      </trkpt>
      <trkpt lat="39.6244870" lon="2.4372570">
        <ele>622.8</ele>
        <time>2020-01-03T08:46:03Z</time>
      </trkpt>
      <trkpt lat="39.6245070" lon="2.4372310">
        <ele>623.2</ele>
        <time>2020-01-03T08:46:06Z</time>
      </trkpt>
      <trkpt lat="39.6245730" lon="2.4372010">
        <ele>623.8</ele>
        <time>2020-01-03T08:46:14Z</time>
      </trkpt>
      <trkpt lat="39.6245790" lon="2.4371950">
        <ele>623.8</ele>
        <time>2020-01-03T08:46:15Z</time>
      </trkpt>
      <trkpt lat="39.6246120" lon="2.4371680">
        <ele>624.6</ele>
        <time>2020-01-03T08:46:20Z</time>
      </trkpt>
      <trkpt lat="39.6246230" lon="2.4371530">
        <ele>625.0</ele>
        <time>2020-01-03T08:46:22Z</time>
      </trkpt>
      <trkpt lat="39.6246720" lon="2.4371090">
        <ele>625.0</ele>
        <time>2020-01-03T08:46:29Z</time>
      </trkpt>
      <trkpt lat="39.6247010" lon="2.4371010">
        <ele>625.2</ele>
        <time>2020-01-03T08:46:34Z</time>
      </trkpt>
      <trkpt lat="39.6247620" lon="2.4370590">
        <ele>624.8</ele>
        <time>2020-01-03T08:46:45Z</time>
      </trkpt>
      <trkpt lat="39.6249030" lon="2.4369580">
        <ele>623.8</ele>
        <time>2020-01-03T08:47:03Z</time>
      </trkpt>
      <trkpt lat="39.6249150" lon="2.4369450">
        <ele>623.0</ele>
        <time>2020-01-03T08:47:05Z</time>
      </trkpt>
      <trkpt lat="39.6250630" lon="2.4369570">
        <ele>624.4</ele>
        <time>2020-01-03T08:47:23Z</time>
      </trkpt>
      <trkpt lat="39.6250950" lon="2.4369600">
        <ele>624.8</ele>
        <time>2020-01-03T08:47:26Z</time>
      </trkpt>
      <trkpt lat="39.6251020" lon="2.4369660">
        <ele>625.0</ele>
        <time>2020-01-03T08:47:27Z</time>
      </trkpt>
      <trkpt lat="39.6251710" lon="2.4369980">
        <ele>626.0</ele>
        <time>2020-01-03T08:47:35Z</time>
      </trkpt>
      <trkpt lat="39.6252490" lon="2.4369960">
        <ele>627.0</ele>
        <time>2020-01-03T08:47:43Z</time>
      </trkpt>
      <trkpt lat="39.6253050" lon="2.4369570">
        <ele>628.0</ele>
        <time>2020-01-03T08:47:50Z</time>
      </trkpt>
      <trkpt lat="39.6253500" lon="2.4369380">
        <ele>629.0</ele>
        <time>2020-01-03T08:47:57Z</time>
      </trkpt>
      <trkpt lat="39.6253630" lon="2.4369320">
        <ele>629.2</ele>
        <time>2020-01-03T08:47:59Z</time>
      </trkpt>
      <trkpt lat="39.6253960" lon="2.4369290">
        <ele>630.2</ele>
        <time>2020-01-03T08:48:04Z</time>
      </trkpt>
      <trkpt lat="39.6254290" lon="2.4369380">
        <ele>631.4</ele>
        <time>2020-01-03T08:48:10Z</time>
      </trkpt>
      <trkpt lat="39.6254580" lon="2.4369380">
        <ele>632.8</ele>
        <time>2020-01-03T08:48:15Z</time>
      </trkpt>
      <trkpt lat="39.6255020" lon="2.4369700">
        <ele>633.8</ele>
        <time>2020-01-03T08:48:22Z</time>
      </trkpt>
      <trkpt lat="39.6255490" lon="2.4369870">
        <ele>634.8</ele>
        <time>2020-01-03T08:48:28Z</time>
      </trkpt>
      <trkpt lat="39.6255990" lon="2.4370220">
        <ele>636.0</ele>
        <time>2020-01-03T08:48:35Z</time>
      </trkpt>
      <trkpt lat="39.6256300" lon="2.4370130">
        <ele>636.2</ele>
        <time>2020-01-03T08:48:38Z</time>
      </trkpt>
      <trkpt lat="39.6258010" lon="2.4370790">
        <ele>636.2</ele>
        <time>2020-01-03T08:49:01Z</time>
      </trkpt>
      <trkpt lat="39.6258010" lon="2.4370860">
        <ele>637.0</ele>
        <time>2020-01-03T08:49:46Z</time>
      </trkpt>
      <trkpt lat="39.6258000" lon="2.4370910">
        <ele>638.2</ele>
        <time>2020-01-03T08:49:54Z</time>
      </trkpt>
      <trkpt lat="39.6257970" lon="2.4370910">
        <ele>639.2</ele>
        <time>2020-01-03T08:50:10Z</time>
      </trkpt>
      <trkpt lat="39.6258000" lon="2.4370920">
        <ele>640.2</ele>
        <time>2020-01-03T08:50:23Z</time>
      </trkpt>
      <trkpt lat="39.6258960" lon="2.4370820">
        <ele>641.4</ele>
        <time>2020-01-03T08:51:08Z</time>
      </trkpt>
      <trkpt lat="39.6259430" lon="2.4370670">
        <ele>642.6</ele>
        <time>2020-01-03T08:51:17Z</time>
      </trkpt>
      <trkpt lat="39.6260090" lon="2.4370430">
        <ele>643.6</ele>
        <time>2020-01-03T08:51:25Z</time>
      </trkpt>
      <trkpt lat="39.6260170" lon="2.4370420">
        <ele>643.8</ele>
        <time>2020-01-03T08:51:26Z</time>
      </trkpt>
      <trkpt lat="39.6260700" lon="2.4370120">
        <ele>644.4</ele>
        <time>2020-01-03T08:51:33Z</time>
      </trkpt>
      <trkpt lat="39.6260990" lon="2.4370030">
        <ele>644.6</ele>
        <time>2020-01-03T08:51:36Z</time>
      </trkpt>
      <trkpt lat="39.6261460" lon="2.4369880">
        <ele>644.8</ele>
        <time>2020-01-03T08:51:40Z</time>
      </trkpt>
      <trkpt lat="39.6262340" lon="2.4369510">
        <ele>646.0</ele>
        <time>2020-01-03T08:51:48Z</time>
      </trkpt>
      <trkpt lat="39.6263530" lon="2.4369100">
        <ele>647.2</ele>
        <time>2020-01-03T08:51:59Z</time>
      </trkpt>
      <trkpt lat="39.6264120" lon="2.4368890">
        <ele>647.8</ele>
        <time>2020-01-03T08:52:05Z</time>
      </trkpt>
      <trkpt lat="39.6264210" lon="2.4368720">
        <ele>648.2</ele>
        <time>2020-01-03T08:52:07Z</time>
      </trkpt>
      <trkpt lat="39.6264270" lon="2.4368660">
        <ele>648.4</ele>
        <time>2020-01-03T08:52:08Z</time>
      </trkpt>
      <trkpt lat="39.6264390" lon="2.4368530">
        <ele>648.8</ele>
        <time>2020-01-03T08:52:10Z</time>
      </trkpt>
      <trkpt lat="39.6264590" lon="2.4368430">
        <ele>649.4</ele>
        <time>2020-01-03T08:52:13Z</time>
      </trkpt>
      <trkpt lat="39.6265100" lon="2.4368240">
        <ele>650.4</ele>
        <time>2020-01-03T08:52:20Z</time>
      </trkpt>
      <trkpt lat="39.6265340" lon="2.4368040">
        <ele>650.6</ele>
        <time>2020-01-03T08:52:23Z</time>
      </trkpt>
      <trkpt lat="39.6265760" lon="2.4367470">
        <ele>651.4</ele>
        <time>2020-01-03T08:52:35Z</time>
      </trkpt>
      <trkpt lat="39.6266300" lon="2.4367540">
        <ele>650.4</ele>
        <time>2020-01-03T08:53:43Z</time>
      </trkpt>
      <trkpt lat="39.6267590" lon="2.4368510">
        <ele>649.4</ele>
        <time>2020-01-03T08:54:02Z</time>
      </trkpt>
      <trkpt lat="39.6267630" lon="2.4368620">
        <ele>649.4</ele>
        <time>2020-01-03T08:54:03Z</time>
      </trkpt>
      <trkpt lat="39.6267460" lon="2.4371110">
        <ele>649.4</ele>
        <time>2020-01-03T08:54:23Z</time>
      </trkpt>
      <trkpt lat="39.6267460" lon="2.4371340">
        <ele>649.2</ele>
        <time>2020-01-03T08:54:25Z</time>
      </trkpt>
      <trkpt lat="39.6267660" lon="2.4371990">
        <ele>649.2</ele>
        <time>2020-01-03T08:54:30Z</time>
      </trkpt>
      <trkpt lat="39.6267850" lon="2.4372070">
        <ele>649.6</ele>
        <time>2020-01-03T08:54:32Z</time>
      </trkpt>
      <trkpt lat="39.6268220" lon="2.4372170">
        <ele>649.4</ele>
        <time>2020-01-03T08:54:36Z</time>
      </trkpt>
      <trkpt lat="39.6269010" lon="2.4372730">
        <ele>649.6</ele>
        <time>2020-01-03T08:54:44Z</time>
      </trkpt>
      <trkpt lat="39.6269200" lon="2.4372740">
        <ele>649.4</ele>
        <time>2020-01-03T08:54:46Z</time>
      </trkpt>
      <trkpt lat="39.6269620" lon="2.4372640">
        <ele>649.0</ele>
        <time>2020-01-03T08:54:52Z</time>
      </trkpt>
      <trkpt lat="39.6269760" lon="2.4373400">
        <ele>649.8</ele>
        <time>2020-01-03T08:55:06Z</time>
      </trkpt>
      <trkpt lat="39.6270200" lon="2.4373430">
        <ele>650.0</ele>
        <time>2020-01-03T08:55:10Z</time>
      </trkpt>
      <trkpt lat="39.6270640" lon="2.4373770">
        <ele>650.2</ele>
        <time>2020-01-03T08:55:15Z</time>
      </trkpt>
      <trkpt lat="39.6270950" lon="2.4374220">
        <ele>650.4</ele>
        <time>2020-01-03T08:55:19Z</time>
      </trkpt>
      <trkpt lat="39.6271140" lon="2.4374770">
        <ele>650.8</ele>
        <time>2020-01-03T08:55:23Z</time>
      </trkpt>
      <trkpt lat="39.6271070" lon="2.4375040">
        <ele>651.2</ele>
        <time>2020-01-03T08:55:25Z</time>
      </trkpt>
      <trkpt lat="39.6271070" lon="2.4375130">
        <ele>651.4</ele>
        <time>2020-01-03T08:55:26Z</time>
      </trkpt>
      <trkpt lat="39.6271040" lon="2.4375340">
        <ele>652.2</ele>
        <time>2020-01-03T08:55:28Z</time>
      </trkpt>
      <trkpt lat="39.6270980" lon="2.4375520">
        <ele>652.4</ele>
        <time>2020-01-03T08:55:30Z</time>
      </trkpt>
      <trkpt lat="39.6270940" lon="2.4375570">
        <ele>652.8</ele>
        <time>2020-01-03T08:55:31Z</time>
      </trkpt>
      <trkpt lat="39.6270860" lon="2.4375600">
        <ele>653.0</ele>
        <time>2020-01-03T08:55:32Z</time>
      </trkpt>
      <trkpt lat="39.6270720" lon="2.4375710">
        <ele>653.4</ele>
        <time>2020-01-03T08:55:34Z</time>
      </trkpt>
      <trkpt lat="39.6270650" lon="2.4375750">
        <ele>654.0</ele>
        <time>2020-01-03T08:56:00Z</time>
      </trkpt>
      <trkpt lat="39.6270350" lon="2.4375870">
        <ele>655.4</ele>
        <time>2020-01-03T08:56:05Z</time>
      </trkpt>
      <trkpt lat="39.6270120" lon="2.4376500">
        <ele>656.4</ele>
        <time>2020-01-03T08:56:13Z</time>
      </trkpt>
      <trkpt lat="39.6270090" lon="2.4376550">
        <ele>656.6</ele>
        <time>2020-01-03T08:56:14Z</time>
      </trkpt>
      <trkpt lat="39.6270230" lon="2.4377230">
        <ele>657.6</ele>
        <time>2020-01-03T08:56:21Z</time>
      </trkpt>
      <trkpt lat="39.6270240" lon="2.4378400">
        <ele>658.6</ele>
        <time>2020-01-03T08:56:33Z</time>
      </trkpt>
      <trkpt lat="39.6270370" lon="2.4378720">
        <ele>659.6</ele>
        <time>2020-01-03T08:56:38Z</time>
      </trkpt>
      <trkpt lat="39.6270530" lon="2.4378860">
        <ele>660.8</ele>
        <time>2020-01-03T08:56:42Z</time>
      </trkpt>
      <trkpt lat="39.6270910" lon="2.4378950">
        <ele>661.0</ele>
        <time>2020-01-03T08:56:46Z</time>
      </trkpt>
      <trkpt lat="39.6271020" lon="2.4379000">
        <ele>661.2</ele>
        <time>2020-01-03T08:56:48Z</time>
      </trkpt>
      <trkpt lat="39.6271220" lon="2.4379050">
        <ele>661.6</ele>
        <time>2020-01-03T08:56:51Z</time>
      </trkpt>
      <trkpt lat="39.6271550" lon="2.4379120">
        <ele>661.8</ele>
        <time>2020-01-03T08:56:54Z</time>
      </trkpt>
      <trkpt lat="39.6272280" lon="2.4379290">
        <ele>661.6</ele>
        <time>2020-01-03T08:57:03Z</time>
      </trkpt>
      <trkpt lat="39.6272500" lon="2.4379220">
        <ele>661.6</ele>
        <time>2020-01-03T08:57:05Z</time>
      </trkpt>
      <trkpt lat="39.6272570" lon="2.4379220">
        <ele>661.6</ele>
        <time>2020-01-03T08:57:06Z</time>
      </trkpt>
      <trkpt lat="39.6273200" lon="2.4379850">
        <ele>663.0</ele>
        <time>2020-01-03T08:57:23Z</time>
      </trkpt>
      <trkpt lat="39.6273030" lon="2.4380150">
        <ele>664.2</ele>
        <time>2020-01-03T08:57:28Z</time>
      </trkpt>
      <trkpt lat="39.6272970" lon="2.4380540">
        <ele>665.4</ele>
        <time>2020-01-03T08:57:33Z</time>
      </trkpt>
      <trkpt lat="39.6272950" lon="2.4380870">
        <ele>666.6</ele>
        <time>2020-01-03T08:57:38Z</time>
      </trkpt>
      <trkpt lat="39.6273070" lon="2.4381240">
        <ele>667.6</ele>
        <time>2020-01-03T08:57:44Z</time>
      </trkpt>
      <trkpt lat="39.6273530" lon="2.4381240">
        <ele>668.8</ele>
        <time>2020-01-03T08:58:09Z</time>
      </trkpt>
      <trkpt lat="39.6274100" lon="2.4381670">
        <ele>669.8</ele>
        <time>2020-01-03T08:58:21Z</time>
      </trkpt>
      <trkpt lat="39.6274100" lon="2.4381890">
        <ele>671.0</ele>
        <time>2020-01-03T08:58:24Z</time>
      </trkpt>
      <trkpt lat="39.6274020" lon="2.4382270">
        <ele>672.2</ele>
        <time>2020-01-03T08:58:30Z</time>
      </trkpt>
      <trkpt lat="39.6274100" lon="2.4382580">
        <ele>673.4</ele>
        <time>2020-01-03T08:58:36Z</time>
      </trkpt>
      <trkpt lat="39.6274530" lon="2.4383110">
        <ele>674.4</ele>
        <time>2020-01-03T08:58:48Z</time>
      </trkpt>
      <trkpt lat="39.6274600" lon="2.4383250">
        <ele>675.4</ele>
        <time>2020-01-03T08:58:52Z</time>
      </trkpt>
      <trkpt lat="39.6274640" lon="2.4383460">
        <ele>676.8</ele>
        <time>2020-01-03T08:58:57Z</time>
      </trkpt>
      <trkpt lat="39.6274550" lon="2.4383540">
        <ele>677.8</ele>
        <time>2020-01-03T08:59:02Z</time>
      </trkpt>
      <trkpt lat="39.6274560" lon="2.4383760">
        <ele>678.8</ele>
        <time>2020-01-03T08:59:06Z</time>
      </trkpt>
      <trkpt lat="39.6274440" lon="2.4383930">
        <ele>679.8</ele>
        <time>2020-01-03T08:59:13Z</time>
      </trkpt>
      <trkpt lat="39.6274510" lon="2.4384070">
        <ele>681.0</ele>
        <time>2020-01-03T08:59:23Z</time>
      </trkpt>
      <trkpt lat="39.6274600" lon="2.4384240">
        <ele>682.0</ele>
        <time>2020-01-03T08:59:31Z</time>
      </trkpt>
      <trkpt lat="39.6274410" lon="2.4384310">
        <ele>683.4</ele>
        <time>2020-01-03T08:59:35Z</time>
      </trkpt>
      <trkpt lat="39.6274360" lon="2.4384430">
        <ele>684.6</ele>
        <time>2020-01-03T08:59:40Z</time>
      </trkpt>
      <trkpt lat="39.6274380" lon="2.4384750">
        <ele>685.8</ele>
        <time>2020-01-03T08:59:45Z</time>
      </trkpt>
      <trkpt lat="39.6275140" lon="2.4384940">
        <ele>687.0</ele>
        <time>2020-01-03T09:00:06Z</time>
      </trkpt>
      <trkpt lat="39.6275780" lon="2.4385060">
        <ele>688.4</ele>
        <time>2020-01-03T09:00:15Z</time>
      </trkpt>
      <trkpt lat="39.6276120" lon="2.4385080">
        <ele>689.0</ele>
        <time>2020-01-03T09:00:19Z</time>
      </trkpt>
      <trkpt lat="39.6276180" lon="2.4385100">
        <ele>689.6</ele>
        <time>2020-01-03T09:00:21Z</time>
      </trkpt>
      <trkpt lat="39.6277440" lon="2.4384860">
        <ele>689.2</ele>
        <time>2020-01-03T09:00:55Z</time>
      </trkpt>
      <trkpt lat="39.6277620" lon="2.4384740">
        <ele>688.4</ele>
        <time>2020-01-03T09:01:00Z</time>
      </trkpt>
      <trkpt lat="39.6277830" lon="2.4384620">
        <ele>687.4</ele>
        <time>2020-01-03T09:01:08Z</time>
      </trkpt>
      <trkpt lat="39.6279850" lon="2.4384510">
        <ele>688.6</ele>
        <time>2020-01-03T09:01:49Z</time>
      </trkpt>
      <trkpt lat="39.6280900" lon="2.4385030">
        <ele>689.6</ele>
        <time>2020-01-03T09:02:52Z</time>
      </trkpt>
      <trkpt lat="39.6281200" lon="2.4385150">
        <ele>690.8</ele>
        <time>2020-01-03T09:03:00Z</time>
      </trkpt>
      <trkpt lat="39.6281580" lon="2.4385320">
        <ele>691.8</ele>
        <time>2020-01-03T09:03:10Z</time>
      </trkpt>
      <trkpt lat="39.6281760" lon="2.4385420">
        <ele>693.0</ele>
        <time>2020-01-03T09:03:16Z</time>
      </trkpt>
      <trkpt lat="39.6282130" lon="2.4385380">
        <ele>694.0</ele>
        <time>2020-01-03T09:03:23Z</time>
      </trkpt>
      <trkpt lat="39.6282420" lon="2.4385430">
        <ele>695.2</ele>
        <time>2020-01-03T09:04:33Z</time>
      </trkpt>
      <trkpt lat="39.6282510" lon="2.4385380">
        <ele>696.4</ele>
        <time>2020-01-03T09:04:40Z</time>
      </trkpt>
      <trkpt lat="39.6282570" lon="2.4385330">
        <ele>697.6</ele>
        <time>2020-01-03T09:04:43Z</time>
      </trkpt>
      <trkpt lat="39.6282610" lon="2.4385370">
        <ele>698.8</ele>
        <time>2020-01-03T09:04:47Z</time>
      </trkpt>
      <trkpt lat="39.6283720" lon="2.4386540">
        <ele>697.6</ele>
        <time>2020-01-03T09:05:34Z</time>
      </trkpt>
      <trkpt lat="39.6283920" lon="2.4387020">
        <ele>697.4</ele>
        <time>2020-01-03T09:05:38Z</time>
      </trkpt>
      <trkpt lat="39.6283960" lon="2.4387220">
        <ele>697.4</ele>
        <time>2020-01-03T09:05:40Z</time>
      </trkpt>
      <trkpt lat="39.6284130" lon="2.4387970">
        <ele>696.4</ele>
        <time>2020-01-03T09:06:07Z</time>
      </trkpt>
      <trkpt lat="39.6284070" lon="2.4387920">
        <ele>697.6</ele>
        <time>2020-01-03T09:06:21Z</time>
      </trkpt>
      <trkpt lat="39.6284160" lon="2.4388190">
        <ele>696.6</ele>
        <time>2020-01-03T09:06:53Z</time>
      </trkpt>
      <trkpt lat="39.6284190" lon="2.4387920">
        <ele>697.6</ele>
        <time>2020-01-03T09:07:10Z</time>
      </trkpt>
      <trkpt lat="39.6283480" lon="2.4388580">
        <ele>698.6</ele>
        <time>2020-01-03T09:07:25Z</time>
      </trkpt>
      <trkpt lat="39.6283400" lon="2.4388660">
        <ele>699.0</ele>
        <time>2020-01-03T09:07:26Z</time>
      </trkpt>
      <trkpt lat="39.6283280" lon="2.4388790">
        <ele>699.2</ele>
        <time>2020-01-03T09:07:28Z</time>
      </trkpt>
      <trkpt lat="39.6283140" lon="2.4388890">
        <ele>700.0</ele>
        <time>2020-01-03T09:07:30Z</time>
      </trkpt>
      <trkpt lat="39.6283070" lon="2.4388960">
        <ele>700.0</ele>
        <time>2020-01-03T09:07:31Z</time>
      </trkpt>
      <trkpt lat="39.6282960" lon="2.4388980">
        <ele>700.4</ele>
        <time>2020-01-03T09:07:33Z</time>
      </trkpt>
      <trkpt lat="39.6282880" lon="2.4389020">
        <ele>701.0</ele>
        <time>2020-01-03T09:07:35Z</time>
      </trkpt>
      <trkpt lat="39.6282640" lon="2.4389230">
        <ele>702.2</ele>
        <time>2020-01-03T09:07:41Z</time>
      </trkpt>
      <trkpt lat="39.6282380" lon="2.4389510">
        <ele>703.6</ele>
        <time>2020-01-03T09:07:49Z</time>
      </trkpt>
      <trkpt lat="39.6282110" lon="2.4389650">
        <ele>704.8</ele>
        <time>2020-01-03T09:07:55Z</time>
      </trkpt>
      <trkpt lat="39.6281520" lon="2.4389840">
        <ele>706.0</ele>
        <time>2020-01-03T09:08:08Z</time>
      </trkpt>
      <trkpt lat="39.6281140" lon="2.4389870">
        <ele>707.2</ele>
        <time>2020-01-03T09:08:52Z</time>
      </trkpt>
      <trkpt lat="39.6280900" lon="2.4390080">
        <ele>708.4</ele>
        <time>2020-01-03T09:08:56Z</time>
      </trkpt>
      <trkpt lat="39.6280720" lon="2.4390400">
        <ele>709.6</ele>
        <time>2020-01-03T09:09:01Z</time>
      </trkpt>
      <trkpt lat="39.6280470" lon="2.4390540">
        <ele>711.0</ele>
        <time>2020-01-03T09:09:30Z</time>
      </trkpt>
      <trkpt lat="39.6279920" lon="2.4390920">
        <ele>712.0</ele>
        <time>2020-01-03T09:09:40Z</time>
      </trkpt>
      <trkpt lat="39.6279630" lon="2.4390840">
        <ele>713.0</ele>
        <time>2020-01-03T09:09:46Z</time>
      </trkpt>
      <trkpt lat="39.6279010" lon="2.4390720">
        <ele>714.2</ele>
        <time>2020-01-03T09:09:54Z</time>
      </trkpt>
      <trkpt lat="39.6278490" lon="2.4390880">
        <ele>715.4</ele>
        <time>2020-01-03T09:10:03Z</time>
      </trkpt>
      <trkpt lat="39.6277910" lon="2.4390960">
        <ele>716.4</ele>
        <time>2020-01-03T09:10:15Z</time>
      </trkpt>
      <trkpt lat="39.6277440" lon="2.4390950">
        <ele>717.6</ele>
        <time>2020-01-03T09:10:21Z</time>
      </trkpt>
      <trkpt lat="39.6277160" lon="2.4391250">
        <ele>718.6</ele>
        <time>2020-01-03T09:10:25Z</time>
      </trkpt>
      <trkpt lat="39.6276980" lon="2.4391430">
        <ele>719.0</ele>
        <time>2020-01-03T09:10:28Z</time>
      </trkpt>
      <trkpt lat="39.6276520" lon="2.4391520">
        <ele>719.8</ele>
        <time>2020-01-03T09:10:33Z</time>
      </trkpt>
      <trkpt lat="39.6276030" lon="2.4392070">
        <ele>720.8</ele>
        <time>2020-01-03T09:10:41Z</time>
      </trkpt>
      <trkpt lat="39.6275820" lon="2.4392720">
        <ele>722.0</ele>
        <time>2020-01-03T09:10:48Z</time>
      </trkpt>
      <trkpt lat="39.6275490" lon="2.4393380">
        <ele>723.2</ele>
        <time>2020-01-03T09:10:57Z</time>
      </trkpt>
      <trkpt lat="39.6275380" lon="2.4393730">
        <ele>724.4</ele>
        <time>2020-01-03T09:11:02Z</time>
      </trkpt>
      <trkpt lat="39.6275270" lon="2.4394170">
        <ele>725.4</ele>
        <time>2020-01-03T09:11:07Z</time>
      </trkpt>
      <trkpt lat="39.6275290" lon="2.4394570">
        <ele>726.4</ele>
        <time>2020-01-03T09:11:12Z</time>
      </trkpt>
      <trkpt lat="39.6275160" lon="2.4394990">
        <ele>727.6</ele>
        <time>2020-01-03T09:11:17Z</time>
      </trkpt>
      <trkpt lat="39.6275000" lon="2.4395270">
        <ele>728.8</ele>
        <time>2020-01-03T09:11:21Z</time>
      </trkpt>
      <trkpt lat="39.6274670" lon="2.4395570">
        <ele>729.8</ele>
        <time>2020-01-03T09:11:27Z</time>
      </trkpt>
      <trkpt lat="39.6274500" lon="2.4395870">
        <ele>730.8</ele>
        <time>2020-01-03T09:11:32Z</time>
      </trkpt>
      <trkpt lat="39.6274590" lon="2.4396260">
        <ele>732.0</ele>
        <time>2020-01-03T09:11:36Z</time>
      </trkpt>
      <trkpt lat="39.6274650" lon="2.4396600">
        <ele>733.0</ele>
        <time>2020-01-03T09:11:39Z</time>
      </trkpt>
      <trkpt lat="39.6274670" lon="2.4396720">
        <ele>733.0</ele>
        <time>2020-01-03T09:11:40Z</time>
      </trkpt>
      <trkpt lat="39.6274710" lon="2.4396910">
        <ele>733.2</ele>
        <time>2020-01-03T09:11:42Z</time>
      </trkpt>
      <trkpt lat="39.6275060" lon="2.4397560">
        <ele>733.4</ele>
        <time>2020-01-03T09:11:49Z</time>
      </trkpt>
      <trkpt lat="39.6275040" lon="2.4397730">
        <ele>734.0</ele>
        <time>2020-01-03T09:11:52Z</time>
      </trkpt>
      <trkpt lat="39.6275050" lon="2.4398030">
        <ele>735.2</ele>
        <time>2020-01-03T09:11:57Z</time>
      </trkpt>
      <trkpt lat="39.6274770" lon="2.4398400">
        <ele>736.4</ele>
        <time>2020-01-03T09:12:03Z</time>
      </trkpt>
      <trkpt lat="39.6274420" lon="2.4398670">
        <ele>737.6</ele>
        <time>2020-01-03T09:12:09Z</time>
      </trkpt>
      <trkpt lat="39.6274280" lon="2.4398940">
        <ele>738.6</ele>
        <time>2020-01-03T09:12:13Z</time>
      </trkpt>
      <trkpt lat="39.6274200" lon="2.4399370">
        <ele>739.8</ele>
        <time>2020-01-03T09:12:19Z</time>
      </trkpt>
      <trkpt lat="39.6274130" lon="2.4399670">
        <ele>740.8</ele>
        <time>2020-01-03T09:12:25Z</time>
      </trkpt>
      <trkpt lat="39.6274210" lon="2.4399980">
        <ele>742.0</ele>
        <time>2020-01-03T09:12:29Z</time>
      </trkpt>
      <trkpt lat="39.6274210" lon="2.4400380">
        <ele>743.0</ele>
        <time>2020-01-03T09:12:33Z</time>
      </trkpt>
      <trkpt lat="39.6274320" lon="2.4400910">
        <ele>744.0</ele>
        <time>2020-01-03T09:12:39Z</time>
      </trkpt>
      <trkpt lat="39.6274400" lon="2.4401330">
        <ele>745.4</ele>
        <time>2020-01-03T09:12:44Z</time>
      </trkpt>
      <trkpt lat="39.6274410" lon="2.4401760">
        <ele>746.6</ele>
        <time>2020-01-03T09:12:49Z</time>
      </trkpt>
      <trkpt lat="39.6274390" lon="2.4402230">
        <ele>747.6</ele>
        <time>2020-01-03T09:12:56Z</time>
      </trkpt>
      <trkpt lat="39.6274680" lon="2.4402670">
        <ele>748.8</ele>
        <time>2020-01-03T09:13:05Z</time>
      </trkpt>
      <trkpt lat="39.6274780" lon="2.4402950">
        <ele>749.8</ele>
        <time>2020-01-03T09:13:10Z</time>
      </trkpt>
      <trkpt lat="39.6274960" lon="2.4403580">
        <ele>751.0</ele>
        <time>2020-01-03T09:13:19Z</time>
      </trkpt>
      <trkpt lat="39.6275180" lon="2.4403950">
        <ele>752.0</ele>
        <time>2020-01-03T09:13:25Z</time>
      </trkpt>
      <trkpt lat="39.6275570" lon="2.4404010">
        <ele>753.0</ele>
        <time>2020-01-03T09:13:31Z</time>
      </trkpt>
      <trkpt lat="39.6277000" lon="2.4404640">
        <ele>754.2</ele>
        <time>2020-01-03T09:13:53Z</time>
      </trkpt>
      <trkpt lat="39.6277250" lon="2.4405640">
        <ele>755.2</ele>
        <time>2020-01-03T09:14:15Z</time>
      </trkpt>
      <trkpt lat="39.6276930" lon="2.4405880">
        <ele>756.2</ele>
        <time>2020-01-03T09:14:30Z</time>
      </trkpt>
      <trkpt lat="39.6276540" lon="2.4406170">
        <ele>757.4</ele>
        <time>2020-01-03T09:14:36Z</time>
      </trkpt>
      <trkpt lat="39.6276240" lon="2.4406380">
        <ele>758.4</ele>
        <time>2020-01-03T09:14:41Z</time>
      </trkpt>
      <trkpt lat="39.6275970" lon="2.4406580">
        <ele>759.6</ele>
        <time>2020-01-03T09:14:46Z</time>
      </trkpt>
      <trkpt lat="39.6275870" lon="2.4406980">
        <ele>760.8</ele>
        <time>2020-01-03T09:14:53Z</time>
      </trkpt>
      <trkpt lat="39.6275750" lon="2.4407530">
        <ele>762.0</ele>
        <time>2020-01-03T09:15:01Z</time>
      </trkpt>
      <trkpt lat="39.6275590" lon="2.4407890">
        <ele>763.0</ele>
        <time>2020-01-03T09:15:06Z</time>
      </trkpt>
      <trkpt lat="39.6275400" lon="2.4408060">
        <ele>764.2</ele>
        <time>2020-01-03T09:15:11Z</time>
      </trkpt>
      <trkpt lat="39.6275070" lon="2.4408360">
        <ele>765.2</ele>
        <time>2020-01-03T09:15:18Z</time>
      </trkpt>
      <trkpt lat="39.6274820" lon="2.4408500">
        <ele>766.4</ele>
        <time>2020-01-03T09:15:23Z</time>
      </trkpt>
      <trkpt lat="39.6274520" lon="2.4408890">
        <ele>767.6</ele>
        <time>2020-01-03T09:15:30Z</time>
      </trkpt>
      <trkpt lat="39.6274320" lon="2.4409280">
        <ele>769.0</ele>
        <time>2020-01-03T09:15:35Z</time>
      </trkpt>
      <trkpt lat="39.6274160" lon="2.4409640">
        <ele>770.0</ele>
        <time>2020-01-03T09:15:41Z</time>
      </trkpt>
      <trkpt lat="39.6273860" lon="2.4410070">
        <ele>771.0</ele>
        <time>2020-01-03T09:15:47Z</time>
      </trkpt>
      <trkpt lat="39.6273590" lon="2.4410270">
        <ele>772.2</ele>
        <time>2020-01-03T09:15:52Z</time>
      </trkpt>
      <trkpt lat="39.6273380" lon="2.4410400">
        <ele>773.4</ele>
        <time>2020-01-03T09:15:56Z</time>
      </trkpt>
      <trkpt lat="39.6273120" lon="2.4410560">
        <ele>774.6</ele>
        <time>2020-01-03T09:16:01Z</time>
      </trkpt>
      <trkpt lat="39.6272510" lon="2.4411340">
        <ele>775.6</ele>
        <time>2020-01-03T09:16:13Z</time>
      </trkpt>
      <trkpt lat="39.6272480" lon="2.4411400">
        <ele>775.8</ele>
        <time>2020-01-03T09:16:14Z</time>
      </trkpt>
      <trkpt lat="39.6272290" lon="2.4412170">
        <ele>776.6</ele>
        <time>2020-01-03T09:16:22Z</time>
      </trkpt>
      <trkpt lat="39.6272080" lon="2.4412790">
        <ele>777.6</ele>
        <time>2020-01-03T09:16:29Z</time>
      </trkpt>
      <trkpt lat="39.6271800" lon="2.4413260">
        <ele>778.8</ele>
        <time>2020-01-03T09:16:35Z</time>
      </trkpt>
      <trkpt lat="39.6271390" lon="2.4413470">
        <ele>780.0</ele>
        <time>2020-01-03T09:16:41Z</time>
      </trkpt>
      <trkpt lat="39.6270960" lon="2.4413700">
        <ele>781.0</ele>
        <time>2020-01-03T09:16:48Z</time>
      </trkpt>
      <trkpt lat="39.6270750" lon="2.4414050">
        <ele>782.2</ele>
        <time>2020-01-03T09:16:53Z</time>
      </trkpt>
      <trkpt lat="39.6270570" lon="2.4414210">
        <ele>783.2</ele>
        <time>2020-01-03T09:16:57Z</time>
      </trkpt>
      <trkpt lat="39.6270260" lon="2.4414460">
        <ele>784.4</ele>
        <time>2020-01-03T09:17:03Z</time>
      </trkpt>
      <trkpt lat="39.6270090" lon="2.4414680">
        <ele>785.4</ele>
        <time>2020-01-03T09:17:07Z</time>
      </trkpt>
      <trkpt lat="39.6269910" lon="2.4415080">
        <ele>786.4</ele>
        <time>2020-01-03T09:17:13Z</time>
      </trkpt>
      <trkpt lat="39.6269760" lon="2.4415360">
        <ele>787.8</ele>
        <time>2020-01-03T09:17:17Z</time>
      </trkpt>
      <trkpt lat="39.6269640" lon="2.4415690">
        <ele>788.8</ele>
        <time>2020-01-03T09:17:21Z</time>
      </trkpt>
      <trkpt lat="39.6269620" lon="2.4416320">
        <ele>790.0</ele>
        <time>2020-01-03T09:17:29Z</time>
      </trkpt>
      <trkpt lat="39.6269410" lon="2.4416840">
        <ele>791.0</ele>
        <time>2020-01-03T09:17:36Z</time>
      </trkpt>
      <trkpt lat="39.6269390" lon="2.4417180">
        <ele>792.2</ele>
        <time>2020-01-03T09:17:41Z</time>
      </trkpt>
      <trkpt lat="39.6269190" lon="2.4417760">
        <ele>793.4</ele>
        <time>2020-01-03T09:17:48Z</time>
      </trkpt>
      <trkpt lat="39.6269050" lon="2.4418760">
        <ele>794.6</ele>
        <time>2020-01-03T09:17:58Z</time>
      </trkpt>
      <trkpt lat="39.6268820" lon="2.4419200">
        <ele>795.8</ele>
        <time>2020-01-03T09:18:04Z</time>
      </trkpt>
      <trkpt lat="39.6268880" lon="2.4419820">
        <ele>797.2</ele>
        <time>2020-01-03T09:18:11Z</time>
      </trkpt>
      <trkpt lat="39.6268810" lon="2.4420390">
        <ele>798.4</ele>
        <time>2020-01-03T09:18:18Z</time>
      </trkpt>
      <trkpt lat="39.6268720" lon="2.4420970">
        <ele>799.6</ele>
        <time>2020-01-03T09:18:25Z</time>
      </trkpt>
      <trkpt lat="39.6268550" lon="2.4421360">
        <ele>800.8</ele>
        <time>2020-01-03T09:18:30Z</time>
      </trkpt>
      <trkpt lat="39.6268700" lon="2.4421760">
        <ele>802.2</ele>
        <time>2020-01-03T09:18:37Z</time>
      </trkpt>
      <trkpt lat="39.6268790" lon="2.4422010">
        <ele>803.2</ele>
        <time>2020-01-03T09:18:41Z</time>
      </trkpt>
      <trkpt lat="39.6268940" lon="2.4422370">
        <ele>804.4</ele>
        <time>2020-01-03T09:18:46Z</time>
      </trkpt>
      <trkpt lat="39.6268820" lon="2.4422970">
        <ele>805.6</ele>
        <time>2020-01-03T09:18:53Z</time>
      </trkpt>
      <trkpt lat="39.6268510" lon="2.4423640">
        <ele>806.6</ele>
        <time>2020-01-03T09:19:01Z</time>
      </trkpt>
      <trkpt lat="39.6267780" lon="2.4424590">
        <ele>807.8</ele>
        <time>2020-01-03T09:19:14Z</time>
      </trkpt>
      <trkpt lat="39.6266340" lon="2.4425560">
        <ele>808.8</ele>
        <time>2020-01-03T09:19:37Z</time>
      </trkpt>
      <trkpt lat="39.6266320" lon="2.4425740">
        <ele>809.8</ele>
        <time>2020-01-03T09:19:43Z</time>
      </trkpt>
      <trkpt lat="39.6266370" lon="2.4425960">
        <ele>811.0</ele>
        <time>2020-01-03T09:19:48Z</time>
      </trkpt>
      <trkpt lat="39.6266490" lon="2.4426040">
        <ele>812.2</ele>
        <time>2020-01-03T09:19:52Z</time>
      </trkpt>
      <trkpt lat="39.6266680" lon="2.4426050">
        <ele>813.4</ele>
        <time>2020-01-03T09:19:56Z</time>
      </trkpt>
      <trkpt lat="39.6266830" lon="2.4425970">
        <ele>814.6</ele>
        <time>2020-01-03T09:19:59Z</time>
      </trkpt>
      <trkpt lat="39.6267280" lon="2.4426010">
        <ele>816.0</ele>
        <time>2020-01-03T09:20:06Z</time>
      </trkpt>
      <trkpt lat="39.6267510" lon="2.4426050">
        <ele>817.2</ele>
        <time>2020-01-03T09:20:11Z</time>
      </trkpt>
      <trkpt lat="39.6267900" lon="2.4426170">
        <ele>818.4</ele>
        <time>2020-01-03T09:20:17Z</time>
      </trkpt>
      <trkpt lat="39.6266710" lon="2.4427650">
        <ele>819.6</ele>
        <time>2020-01-03T09:21:01Z</time>
      </trkpt>
      <trkpt lat="39.6265810" lon="2.4428810">
        <ele>820.6</ele>
        <time>2020-01-03T09:21:16Z</time>
      </trkpt>
      <trkpt lat="39.6265780" lon="2.4428890">
        <ele>820.6</ele>
        <time>2020-01-03T09:21:17Z</time>
      </trkpt>
      <trkpt lat="39.6265630" lon="2.4429260">
        <ele>821.8</ele>
        <time>2020-01-03T09:21:22Z</time>
      </trkpt>
      <trkpt lat="39.6265440" lon="2.4429700">
        <ele>823.0</ele>
        <time>2020-01-03T09:21:29Z</time>
      </trkpt>
      <trkpt lat="39.6265340" lon="2.4430230">
        <ele>824.2</ele>
        <time>2020-01-03T09:21:36Z</time>
      </trkpt>
      <trkpt lat="39.6265260" lon="2.4430480">
        <ele>825.4</ele>
        <time>2020-01-03T09:21:40Z</time>
      </trkpt>
      <trkpt lat="39.6265160" lon="2.4431420">
        <ele>826.4</ele>
        <time>2020-01-03T09:22:39Z</time>
      </trkpt>
      <trkpt lat="39.6264960" lon="2.4432160">
        <ele>827.4</ele>
        <time>2020-01-03T09:22:47Z</time>
      </trkpt>
      <trkpt lat="39.6264830" lon="2.4432920">
        <ele>828.6</ele>
        <time>2020-01-03T09:22:55Z</time>
      </trkpt>
      <trkpt lat="39.6264630" lon="2.4433760">
        <ele>829.6</ele>
        <time>2020-01-03T09:23:04Z</time>
      </trkpt>
      <trkpt lat="39.6264560" lon="2.4434350">
        <ele>830.6</ele>
        <time>2020-01-03T09:23:10Z</time>
      </trkpt>
      <trkpt lat="39.6264700" lon="2.4435020">
        <ele>831.8</ele>
        <time>2020-01-03T09:23:17Z</time>
      </trkpt>
      <trkpt lat="39.6264770" lon="2.4435700">
        <ele>833.0</ele>
        <time>2020-01-03T09:23:24Z</time>
      </trkpt>
      <trkpt lat="39.6265030" lon="2.4436920">
        <ele>834.2</ele>
        <time>2020-01-03T09:23:36Z</time>
      </trkpt>
      <trkpt lat="39.6265280" lon="2.4437620">
        <ele>835.2</ele>
        <time>2020-01-03T09:23:43Z</time>
      </trkpt>
      <trkpt lat="39.6265480" lon="2.4438250">
        <ele>836.2</ele>
        <time>2020-01-03T09:23:50Z</time>
      </trkpt>
      <trkpt lat="39.6265640" lon="2.4438890">
        <ele>837.4</ele>
        <time>2020-01-03T09:23:57Z</time>
      </trkpt>
      <trkpt lat="39.6265700" lon="2.4439600">
        <ele>838.6</ele>
        <time>2020-01-03T09:24:05Z</time>
      </trkpt>
      <trkpt lat="39.6265690" lon="2.4440050">
        <ele>839.6</ele>
        <time>2020-01-03T09:24:10Z</time>
      </trkpt>
      <trkpt lat="39.6265630" lon="2.4440540">
        <ele>840.6</ele>
        <time>2020-01-03T09:24:15Z</time>
      </trkpt>
      <trkpt lat="39.6265430" lon="2.4441170">
        <ele>841.8</ele>
        <time>2020-01-03T09:24:21Z</time>
      </trkpt>
      <trkpt lat="39.6265390" lon="2.4441410">
        <ele>842.2</ele>
        <time>2020-01-03T09:24:23Z</time>
      </trkpt>
      <trkpt lat="39.6265350" lon="2.4441630">
        <ele>842.2</ele>
        <time>2020-01-03T09:24:25Z</time>
      </trkpt>
      <trkpt lat="39.6265310" lon="2.4441890">
        <ele>842.2</ele>
        <time>2020-01-03T09:24:27Z</time>
      </trkpt>
      <trkpt lat="39.6265440" lon="2.4442470">
        <ele>843.0</ele>
        <time>2020-01-03T09:24:32Z</time>
      </trkpt>
      <trkpt lat="39.6265650" lon="2.4442970">
        <ele>844.0</ele>
        <time>2020-01-03T09:24:37Z</time>
      </trkpt>
      <trkpt lat="39.6265710" lon="2.4443040">
        <ele>844.2</ele>
        <time>2020-01-03T09:24:38Z</time>
      </trkpt>
      <trkpt lat="39.6265940" lon="2.4443270">
        <ele>844.6</ele>
        <time>2020-01-03T09:24:41Z</time>
      </trkpt>
      <trkpt lat="39.6266070" lon="2.4443410">
        <ele>845.0</ele>
        <time>2020-01-03T09:24:43Z</time>
      </trkpt>
      <trkpt lat="39.6266220" lon="2.4443530">
        <ele>845.4</ele>
        <time>2020-01-03T09:24:45Z</time>
      </trkpt>
      <trkpt lat="39.6266710" lon="2.4444170">
        <ele>846.6</ele>
        <time>2020-01-03T09:24:53Z</time>
      </trkpt>
      <trkpt lat="39.6267040" lon="2.4444370">
        <ele>847.2</ele>
        <time>2020-01-03T09:24:58Z</time>
      </trkpt>
      <trkpt lat="39.6267120" lon="2.4444340">
        <ele>847.8</ele>
        <time>2020-01-03T09:24:59Z</time>
      </trkpt>
      <trkpt lat="39.6267370" lon="2.4443740">
        <ele>846.6</ele>
        <time>2020-01-03T09:25:08Z</time>
      </trkpt>
      <trkpt lat="39.6267710" lon="2.4443250">
        <ele>845.6</ele>
        <time>2020-01-03T09:25:15Z</time>
      </trkpt>
      <trkpt lat="39.6267740" lon="2.4443280">
        <ele>846.6</ele>
        <time>2020-01-03T09:25:46Z</time>
      </trkpt>
      <trkpt lat="39.6267730" lon="2.4443380">
        <ele>845.4</ele>
        <time>2020-01-03T09:25:59Z</time>
      </trkpt>
      <trkpt lat="39.6267770" lon="2.4443430">
        <ele>846.4</ele>
        <time>2020-01-03T09:26:11Z</time>
      </trkpt>
      <trkpt lat="39.6267810" lon="2.4443400">
        <ele>845.4</ele>
        <time>2020-01-03T09:26:14Z</time>
      </trkpt>
      <trkpt lat="39.6267820" lon="2.4443240">
        <ele>846.4</ele>
        <time>2020-01-03T09:26:46Z</time>
      </trkpt>
      <trkpt lat="39.6267630" lon="2.4443700">
        <ele>847.6</ele>
        <time>2020-01-03T09:27:01Z</time>
      </trkpt>
      <trkpt lat="39.6267730" lon="2.4443650">
        <ele>848.6</ele>
        <time>2020-01-03T09:27:49Z</time>
      </trkpt>
      <trkpt lat="39.6267440" lon="2.4443670">
        <ele>847.4</ele>
        <time>2020-01-03T09:27:52Z</time>
      </trkpt>
      <trkpt lat="39.6267750" lon="2.4443300">
        <ele>846.2</ele>
        <time>2020-01-03T09:29:31Z</time>
      </trkpt>
      <trkpt lat="39.6267650" lon="2.4443390">
        <ele>847.2</ele>
        <time>2020-01-03T09:30:08Z</time>
      </trkpt>
      <trkpt lat="39.6267160" lon="2.4443880">
        <ele>848.0</ele>
        <time>2020-01-03T09:35:04Z</time>
      </trkpt>
      <trkpt lat="39.6266780" lon="2.4444530">
        <ele>848.4</ele>
        <time>2020-01-03T09:35:12Z</time>
      </trkpt>
      <trkpt lat="39.6266700" lon="2.4445090">
        <ele>849.0</ele>
        <time>2020-01-03T09:35:17Z</time>
      </trkpt>
      <trkpt lat="39.6266560" lon="2.4445400">
        <ele>849.2</ele>
        <time>2020-01-03T09:35:20Z</time>
      </trkpt>
      <trkpt lat="39.6266500" lon="2.4445510">
        <ele>849.6</ele>
        <time>2020-01-03T09:35:21Z</time>
      </trkpt>
      <trkpt lat="39.6266020" lon="2.4446420">
        <ele>850.6</ele>
        <time>2020-01-03T09:35:29Z</time>
      </trkpt>
      <trkpt lat="39.6265530" lon="2.4446940">
        <ele>851.8</ele>
        <time>2020-01-03T09:35:35Z</time>
      </trkpt>
      <trkpt lat="39.6261370" lon="2.4447640">
        <ele>853.0</ele>
        <time>2020-01-03T09:36:15Z</time>
      </trkpt>
      <trkpt lat="39.6260960" lon="2.4447820">
        <ele>854.0</ele>
        <time>2020-01-03T09:36:20Z</time>
      </trkpt>
      <trkpt lat="39.6260540" lon="2.4448010">
        <ele>855.2</ele>
        <time>2020-01-03T09:36:25Z</time>
      </trkpt>
      <trkpt lat="39.6260210" lon="2.4448240">
        <ele>856.4</ele>
        <time>2020-01-03T09:36:30Z</time>
      </trkpt>
      <trkpt lat="39.6259880" lon="2.4448510">
        <ele>857.4</ele>
        <time>2020-01-03T09:36:36Z</time>
      </trkpt>
      <trkpt lat="39.6259790" lon="2.4448840">
        <ele>858.6</ele>
        <time>2020-01-03T09:36:40Z</time>
      </trkpt>
      <trkpt lat="39.6259550" lon="2.4449220">
        <ele>859.8</ele>
        <time>2020-01-03T09:36:46Z</time>
      </trkpt>
      <trkpt lat="39.6258800" lon="2.4449260">
        <ele>860.2</ele>
        <time>2020-01-03T09:36:56Z</time>
      </trkpt>
      <trkpt lat="39.6257160" lon="2.4449270">
        <ele>860.8</ele>
        <time>2020-01-03T09:37:09Z</time>
      </trkpt>
      <trkpt lat="39.6256520" lon="2.4449430">
        <ele>862.0</ele>
        <time>2020-01-03T09:37:14Z</time>
      </trkpt>
      <trkpt lat="39.6255030" lon="2.4449520">
        <ele>863.2</ele>
        <time>2020-01-03T09:37:26Z</time>
      </trkpt>
      <trkpt lat="39.6254470" lon="2.4449590">
        <ele>864.4</ele>
        <time>2020-01-03T09:37:31Z</time>
      </trkpt>
      <trkpt lat="39.6253310" lon="2.4449850">
        <ele>865.4</ele>
        <time>2020-01-03T09:37:42Z</time>
      </trkpt>
      <trkpt lat="39.6252290" lon="2.4450160">
        <ele>866.6</ele>
        <time>2020-01-03T09:37:52Z</time>
      </trkpt>
      <trkpt lat="39.6251940" lon="2.4450370">
        <ele>867.6</ele>
        <time>2020-01-03T09:37:56Z</time>
      </trkpt>
      <trkpt lat="39.6251770" lon="2.4450510">
        <ele>868.6</ele>
        <time>2020-01-03T09:37:59Z</time>
      </trkpt>
      <trkpt lat="39.6251540" lon="2.4450700">
        <ele>869.8</ele>
        <time>2020-01-03T09:38:04Z</time>
      </trkpt>
      <trkpt lat="39.6251460" lon="2.4450900">
        <ele>870.8</ele>
        <time>2020-01-03T09:38:09Z</time>
      </trkpt>
      <trkpt lat="39.6251490" lon="2.4451050">
        <ele>872.0</ele>
        <time>2020-01-03T09:38:13Z</time>
      </trkpt>
      <trkpt lat="39.6251500" lon="2.4451230">
        <ele>873.0</ele>
        <time>2020-01-03T09:38:17Z</time>
      </trkpt>
      <trkpt lat="39.6251430" lon="2.4451310">
        <ele>874.2</ele>
        <time>2020-01-03T09:38:21Z</time>
      </trkpt>
      <trkpt lat="39.6251600" lon="2.4451680">
        <ele>875.4</ele>
        <time>2020-01-03T09:38:27Z</time>
      </trkpt>
      <trkpt lat="39.6251680" lon="2.4451990">
        <ele>876.8</ele>
        <time>2020-01-03T09:38:31Z</time>
      </trkpt>
      <trkpt lat="39.6251490" lon="2.4452060">
        <ele>877.8</ele>
        <time>2020-01-03T09:38:39Z</time>
      </trkpt>
      <trkpt lat="39.6251370" lon="2.4452180">
        <ele>879.0</ele>
        <time>2020-01-03T09:38:45Z</time>
      </trkpt>
      <trkpt lat="39.6251370" lon="2.4452330">
        <ele>880.0</ele>
        <time>2020-01-03T09:38:49Z</time>
      </trkpt>
      <trkpt lat="39.6251280" lon="2.4452330">
        <ele>881.2</ele>
        <time>2020-01-03T09:38:52Z</time>
      </trkpt>
      <trkpt lat="39.6251010" lon="2.4452420">
        <ele>882.4</ele>
        <time>2020-01-03T09:38:58Z</time>
      </trkpt>
      <trkpt lat="39.6250920" lon="2.4452560">
        <ele>883.6</ele>
        <time>2020-01-03T09:39:02Z</time>
      </trkpt>
      <trkpt lat="39.6250840" lon="2.4452820">
        <ele>884.6</ele>
        <time>2020-01-03T09:39:06Z</time>
      </trkpt>
      <trkpt lat="39.6250630" lon="2.4452910">
        <ele>885.8</ele>
        <time>2020-01-03T09:39:11Z</time>
      </trkpt>
      <trkpt lat="39.6250540" lon="2.4453180">
        <ele>887.0</ele>
        <time>2020-01-03T09:39:16Z</time>
      </trkpt>
      <trkpt lat="39.6250580" lon="2.4453400">
        <ele>888.2</ele>
        <time>2020-01-03T09:39:20Z</time>
      </trkpt>
      <trkpt lat="39.6250690" lon="2.4453630">
        <ele>889.2</ele>
        <time>2020-01-03T09:39:25Z</time>
      </trkpt>
      <trkpt lat="39.6250670" lon="2.4453710">
        <ele>890.4</ele>
        <time>2020-01-03T09:39:28Z</time>
      </trkpt>
      <trkpt lat="39.6250740" lon="2.4453910">
        <ele>891.6</ele>
        <time>2020-01-03T09:39:33Z</time>
      </trkpt>
      <trkpt lat="39.6250950" lon="2.4454160">
        <ele>893.0</ele>
        <time>2020-01-03T09:39:38Z</time>
      </trkpt>
      <trkpt lat="39.6251010" lon="2.4454370">
        <ele>894.0</ele>
        <time>2020-01-03T09:39:42Z</time>
      </trkpt>
      <trkpt lat="39.6250980" lon="2.4454580">
        <ele>895.2</ele>
        <time>2020-01-03T09:39:46Z</time>
      </trkpt>
      <trkpt lat="39.6251130" lon="2.4454780">
        <ele>896.4</ele>
        <time>2020-01-03T09:39:51Z</time>
      </trkpt>
      <trkpt lat="39.6251220" lon="2.4454890">
        <ele>897.4</ele>
        <time>2020-01-03T09:39:55Z</time>
      </trkpt>
      <trkpt lat="39.6251190" lon="2.4455250">
        <ele>899.0</ele>
        <time>2020-01-03T09:40:01Z</time>
      </trkpt>
      <trkpt lat="39.6251260" lon="2.4455420">
        <ele>900.0</ele>
        <time>2020-01-03T09:40:04Z</time>
      </trkpt>
      <trkpt lat="39.6251290" lon="2.4455630">
        <ele>901.2</ele>
        <time>2020-01-03T09:40:08Z</time>
      </trkpt>
      <trkpt lat="39.6251250" lon="2.4455940">
        <ele>902.4</ele>
        <time>2020-01-03T09:40:13Z</time>
      </trkpt>
      <trkpt lat="39.6251140" lon="2.4456380">
        <ele>903.4</ele>
        <time>2020-01-03T09:40:18Z</time>
      </trkpt>
      <trkpt lat="39.6250910" lon="2.4456780">
        <ele>904.4</ele>
        <time>2020-01-03T09:40:23Z</time>
      </trkpt>
      <trkpt lat="39.6250850" lon="2.4456970">
        <ele>905.8</ele>
        <time>2020-01-03T09:40:27Z</time>
      </trkpt>
      <trkpt lat="39.6250910" lon="2.4457380">
        <ele>907.0</ele>
        <time>2020-01-03T09:40:33Z</time>
      </trkpt>
      <trkpt lat="39.6250910" lon="2.4457590">
        <ele>908.2</ele>
        <time>2020-01-03T09:40:36Z</time>
      </trkpt>
      <trkpt lat="39.6250970" lon="2.4457800">
        <ele>909.2</ele>
        <time>2020-01-03T09:40:40Z</time>
      </trkpt>
      <trkpt lat="39.6251030" lon="2.4458110">
        <ele>910.2</ele>
        <time>2020-01-03T09:40:45Z</time>
      </trkpt>
      <trkpt lat="39.6251000" lon="2.4458410">
        <ele>911.2</ele>
        <time>2020-01-03T09:40:50Z</time>
      </trkpt>
      <trkpt lat="39.6250970" lon="2.4458830">
        <ele>912.6</ele>
        <time>2020-01-03T09:40:55Z</time>
      </trkpt>
      <trkpt lat="39.6250950" lon="2.4459100">
        <ele>913.8</ele>
        <time>2020-01-03T09:40:59Z</time>
      </trkpt>
      <trkpt lat="39.6250950" lon="2.4459330">
        <ele>914.8</ele>
        <time>2020-01-03T09:41:03Z</time>
      </trkpt>
      <trkpt lat="39.6250800" lon="2.4459630">
        <ele>916.2</ele>
        <time>2020-01-03T09:41:08Z</time>
      </trkpt>
      <trkpt lat="39.6250830" lon="2.4459940">
        <ele>917.4</ele>
        <time>2020-01-03T09:41:12Z</time>
      </trkpt>
      <trkpt lat="39.6250880" lon="2.4460150">
        <ele>918.4</ele>
        <time>2020-01-03T09:41:15Z</time>
      </trkpt>
      <trkpt lat="39.6250890" lon="2.4460480">
        <ele>919.6</ele>
        <time>2020-01-03T09:41:19Z</time>
      </trkpt>
      <trkpt lat="39.6250980" lon="2.4460970">
        <ele>920.6</ele>
        <time>2020-01-03T09:41:24Z</time>
      </trkpt>
      <trkpt lat="39.6251240" lon="2.4461230">
        <ele>921.8</ele>
        <time>2020-01-03T09:41:28Z</time>
      </trkpt>
      <trkpt lat="39.6251410" lon="2.4461370">
        <ele>923.0</ele>
        <time>2020-01-03T09:41:31Z</time>
      </trkpt>
      <trkpt lat="39.6251460" lon="2.4461340">
        <ele>924.2</ele>
        <time>2020-01-03T09:41:35Z</time>
      </trkpt>
      <trkpt lat="39.6252130" lon="2.4461230">
        <ele>925.4</ele>
        <time>2020-01-03T09:41:43Z</time>
      </trkpt>
      <trkpt lat="39.6252760" lon="2.4461200">
        <ele>926.6</ele>
        <time>2020-01-03T09:41:49Z</time>
      </trkpt>
      <trkpt lat="39.6253370" lon="2.4461090">
        <ele>927.6</ele>
        <time>2020-01-03T09:41:56Z</time>
      </trkpt>
      <trkpt lat="39.6253870" lon="2.4460970">
        <ele>928.6</ele>
        <time>2020-01-03T09:42:02Z</time>
      </trkpt>
      <trkpt lat="39.6254000" lon="2.4461020">
        <ele>930.0</ele>
        <time>2020-01-03T09:42:05Z</time>
      </trkpt>
      <trkpt lat="39.6253990" lon="2.4461040">
        <ele>928.6</ele>
        <time>2020-01-03T09:42:08Z</time>
      </trkpt>
      <trkpt lat="39.6254060" lon="2.4460980">
        <ele>927.6</ele>
        <time>2020-01-03T09:42:13Z</time>
      </trkpt>
      <trkpt lat="39.6253960" lon="2.4461040">
        <ele>928.6</ele>
        <time>2020-01-03T09:42:51Z</time>
      </trkpt>
      <trkpt lat="39.6253950" lon="2.4461020">
        <ele>927.6</ele>
        <time>2020-01-03T09:42:55Z</time>
      </trkpt>
      <trkpt lat="39.6253980" lon="2.4461060">
        <ele>928.8</ele>
        <time>2020-01-03T09:43:04Z</time>
      </trkpt>
      <trkpt lat="39.6253710" lon="2.4461190">
        <ele>927.6</ele>
        <time>2020-01-03T09:43:29Z</time>
      </trkpt>
      <trkpt lat="39.6253630" lon="2.4461180">
        <ele>926.0</ele>
        <time>2020-01-03T09:43:31Z</time>
      </trkpt>
      <trkpt lat="39.6253640" lon="2.4461180">
        <ele>924.8</ele>
        <time>2020-01-03T09:43:48Z</time>
      </trkpt>
      <trkpt lat="39.6253650" lon="2.4461180">
        <ele>926.6</ele>
        <time>2020-01-03T09:43:52Z</time>
      </trkpt>
      <trkpt lat="39.6253650" lon="2.4461170">
        <ele>925.0</ele>
        <time>2020-01-03T09:43:56Z</time>
      </trkpt>
      <trkpt lat="39.6253670" lon="2.4461200">
        <ele>926.0</ele>
        <time>2020-01-03T09:44:14Z</time>
      </trkpt>
      <trkpt lat="39.6253390" lon="2.4461290">
        <ele>927.2</ele>
        <time>2020-01-03T09:44:17Z</time>
      </trkpt>
      <trkpt lat="39.6253060" lon="2.4461380">
        <ele>926.2</ele>
        <time>2020-01-03T09:44:20Z</time>
      </trkpt>
      <trkpt lat="39.6252820" lon="2.4461390">
        <ele>925.0</ele>
        <time>2020-01-03T09:44:22Z</time>
      </trkpt>
      <trkpt lat="39.6252340" lon="2.4461500">
        <ele>925.4</ele>
        <time>2020-01-03T09:44:27Z</time>
      </trkpt>
      <trkpt lat="39.6251850" lon="2.4461680">
        <ele>923.8</ele>
        <time>2020-01-03T09:44:37Z</time>
      </trkpt>
      <trkpt lat="39.6251150" lon="2.4461750">
        <ele>923.2</ele>
        <time>2020-01-03T09:44:43Z</time>
      </trkpt>
      <trkpt lat="39.6250090" lon="2.4461500">
        <ele>923.6</ele>
        <time>2020-01-03T09:44:52Z</time>
      </trkpt>
      <trkpt lat="39.6247490" lon="2.4461980">
        <ele>924.4</ele>
        <time>2020-01-03T09:45:11Z</time>
      </trkpt>
      <trkpt lat="39.6247300" lon="2.4462080">
        <ele>924.0</ele>
        <time>2020-01-03T09:45:14Z</time>
      </trkpt>
      <trkpt lat="39.6246580" lon="2.4462610">
        <ele>923.6</ele>
        <time>2020-01-03T09:45:24Z</time>
      </trkpt>
      <trkpt lat="39.6246140" lon="2.4462500">
        <ele>921.8</ele>
        <time>2020-01-03T09:45:30Z</time>
      </trkpt>
      <trkpt lat="39.6245980" lon="2.4462260">
        <ele>922.2</ele>
        <time>2020-01-03T09:45:32Z</time>
      </trkpt>
      <trkpt lat="39.6245970" lon="2.4461880">
        <ele>923.4</ele>
        <time>2020-01-03T09:45:37Z</time>
      </trkpt>
      <trkpt lat="39.6246100" lon="2.4461880">
        <ele>924.6</ele>
        <time>2020-01-03T09:45:43Z</time>
      </trkpt>
      <trkpt lat="39.6246230" lon="2.4461930">
        <ele>923.6</ele>
        <time>2020-01-03T09:47:11Z</time>
      </trkpt>
      <trkpt lat="39.6245900" lon="2.4461760">
        <ele>922.4</ele>
        <time>2020-01-03T09:47:21Z</time>
      </trkpt>
      <trkpt lat="39.6246060" lon="2.4461420">
        <ele>923.8</ele>
        <time>2020-01-03T09:47:25Z</time>
      </trkpt>
      <trkpt lat="39.6246260" lon="2.4461350">
        <ele>925.2</ele>
        <time>2020-01-03T09:47:28Z</time>
      </trkpt>
      <trkpt lat="39.6247140" lon="2.4461640">
        <ele>924.8</ele>
        <time>2020-01-03T09:47:39Z</time>
      </trkpt>
      <trkpt lat="39.6247320" lon="2.4461560">
        <ele>924.2</ele>
        <time>2020-01-03T09:47:41Z</time>
      </trkpt>
      <trkpt lat="39.6247440" lon="2.4461560">
        <ele>924.0</ele>
        <time>2020-01-03T09:47:42Z</time>
      </trkpt>
      <trkpt lat="39.6248450" lon="2.4461540">
        <ele>923.4</ele>
        <time>2020-01-03T09:47:51Z</time>
      </trkpt>
      <trkpt lat="39.6248890" lon="2.4461550">
        <ele>923.8</ele>
        <time>2020-01-03T09:47:55Z</time>
      </trkpt>
      <trkpt lat="39.6249060" lon="2.4461630">
        <ele>923.0</ele>
        <time>2020-01-03T09:47:57Z</time>
      </trkpt>
      <trkpt lat="39.6249170" lon="2.4461630">
        <ele>922.8</ele>
        <time>2020-01-03T09:47:58Z</time>
      </trkpt>
      <trkpt lat="39.6249350" lon="2.4461670">
        <ele>922.8</ele>
        <time>2020-01-03T09:48:00Z</time>
      </trkpt>
      <trkpt lat="39.6250730" lon="2.4461320">
        <ele>921.6</ele>
        <time>2020-01-03T09:48:16Z</time>
      </trkpt>
      <trkpt lat="39.6251010" lon="2.4460880">
        <ele>920.4</ele>
        <time>2020-01-03T09:48:23Z</time>
      </trkpt>
      <trkpt lat="39.6251030" lon="2.4460550">
        <ele>919.0</ele>
        <time>2020-01-03T09:48:27Z</time>
      </trkpt>
      <trkpt lat="39.6251060" lon="2.4460300">
        <ele>917.8</ele>
        <time>2020-01-03T09:48:30Z</time>
      </trkpt>
      <trkpt lat="39.6251080" lon="2.4459960">
        <ele>916.8</ele>
        <time>2020-01-03T09:48:34Z</time>
      </trkpt>
      <trkpt lat="39.6251000" lon="2.4459690">
        <ele>915.6</ele>
        <time>2020-01-03T09:48:37Z</time>
      </trkpt>
      <trkpt lat="39.6251020" lon="2.4459370">
        <ele>914.4</ele>
        <time>2020-01-03T09:48:40Z</time>
      </trkpt>
      <trkpt lat="39.6251050" lon="2.4459120">
        <ele>913.2</ele>
        <time>2020-01-03T09:48:43Z</time>
      </trkpt>
      <trkpt lat="39.6250990" lon="2.4458860">
        <ele>911.8</ele>
        <time>2020-01-03T09:48:46Z</time>
      </trkpt>
      <trkpt lat="39.6251080" lon="2.4458460">
        <ele>910.6</ele>
        <time>2020-01-03T09:48:49Z</time>
      </trkpt>
      <trkpt lat="39.6251120" lon="2.4458270">
        <ele>909.8</ele>
        <time>2020-01-03T09:48:51Z</time>
      </trkpt>
      <trkpt lat="39.6251160" lon="2.4458180">
        <ele>909.6</ele>
        <time>2020-01-03T09:48:52Z</time>
      </trkpt>
      <trkpt lat="39.6250910" lon="2.4457730">
        <ele>908.2</ele>
        <time>2020-01-03T09:49:03Z</time>
      </trkpt>
      <trkpt lat="39.6250900" lon="2.4457480">
        <ele>907.2</ele>
        <time>2020-01-03T09:49:06Z</time>
      </trkpt>
      <trkpt lat="39.6250890" lon="2.4457220">
        <ele>906.0</ele>
        <time>2020-01-03T09:49:09Z</time>
      </trkpt>
      <trkpt lat="39.6250880" lon="2.4456850">
        <ele>904.4</ele>
        <time>2020-01-03T09:49:12Z</time>
      </trkpt>
      <trkpt lat="39.6250990" lon="2.4456660">
        <ele>903.6</ele>
        <time>2020-01-03T09:49:14Z</time>
      </trkpt>
      <trkpt lat="39.6251120" lon="2.4456540">
        <ele>903.0</ele>
        <time>2020-01-03T09:49:16Z</time>
      </trkpt>
      <trkpt lat="39.6251140" lon="2.4456430">
        <ele>902.4</ele>
        <time>2020-01-03T09:49:17Z</time>
      </trkpt>
      <trkpt lat="39.6251130" lon="2.4456170">
        <ele>901.8</ele>
        <time>2020-01-03T09:49:20Z</time>
      </trkpt>
      <trkpt lat="39.6250910" lon="2.4456010">
        <ele>900.6</ele>
        <time>2020-01-03T09:49:24Z</time>
      </trkpt>
      <trkpt lat="39.6250990" lon="2.4455590">
        <ele>899.4</ele>
        <time>2020-01-03T09:49:30Z</time>
      </trkpt>
      <trkpt lat="39.6251190" lon="2.4455460">
        <ele>898.2</ele>
        <time>2020-01-03T09:49:33Z</time>
      </trkpt>
      <trkpt lat="39.6251140" lon="2.4455170">
        <ele>897.2</ele>
        <time>2020-01-03T09:49:38Z</time>
      </trkpt>
      <trkpt lat="39.6251170" lon="2.4455000">
        <ele>896.0</ele>
        <time>2020-01-03T09:49:41Z</time>
      </trkpt>
      <trkpt lat="39.6251060" lon="2.4454620">
        <ele>894.6</ele>
        <time>2020-01-03T09:49:45Z</time>
      </trkpt>
      <trkpt lat="39.6251040" lon="2.4454350">
        <ele>893.6</ele>
        <time>2020-01-03T09:49:48Z</time>
      </trkpt>
      <trkpt lat="39.6250960" lon="2.4454160">
        <ele>892.4</ele>
        <time>2020-01-03T09:49:51Z</time>
      </trkpt>
      <trkpt lat="39.6250850" lon="2.4454010">
        <ele>891.4</ele>
        <time>2020-01-03T09:49:53Z</time>
      </trkpt>
      <trkpt lat="39.6250690" lon="2.4453800">
        <ele>890.0</ele>
        <time>2020-01-03T09:49:56Z</time>
      </trkpt>
      <trkpt lat="39.6250690" lon="2.4453610">
        <ele>888.8</ele>
        <time>2020-01-03T09:50:00Z</time>
      </trkpt>
      <trkpt lat="39.6250670" lon="2.4453470">
        <ele>887.8</ele>
        <time>2020-01-03T09:50:03Z</time>
      </trkpt>
      <trkpt lat="39.6250620" lon="2.4453210">
        <ele>886.6</ele>
        <time>2020-01-03T09:50:05Z</time>
      </trkpt>
      <trkpt lat="39.6250700" lon="2.4452990">
        <ele>885.4</ele>
        <time>2020-01-03T09:50:08Z</time>
      </trkpt>
      <trkpt lat="39.6250800" lon="2.4452830">
        <ele>884.2</ele>
        <time>2020-01-03T09:50:12Z</time>
      </trkpt>
      <trkpt lat="39.6250830" lon="2.4452500">
        <ele>882.8</ele>
        <time>2020-01-03T09:50:15Z</time>
      </trkpt>
      <trkpt lat="39.6251050" lon="2.4452510">
        <ele>881.8</ele>
        <time>2020-01-03T09:50:23Z</time>
      </trkpt>
      <trkpt lat="39.6251120" lon="2.4452430">
        <ele>880.6</ele>
        <time>2020-01-03T09:50:27Z</time>
      </trkpt>
      <trkpt lat="39.6251130" lon="2.4452360">
        <ele>879.2</ele>
        <time>2020-01-03T09:50:31Z</time>
      </trkpt>
      <trkpt lat="39.6251210" lon="2.4452230">
        <ele>878.0</ele>
        <time>2020-01-03T09:50:34Z</time>
      </trkpt>
      <trkpt lat="39.6251340" lon="2.4452240">
        <ele>877.0</ele>
        <time>2020-01-03T09:50:38Z</time>
      </trkpt>
      <trkpt lat="39.6251550" lon="2.4452210">
        <ele>875.8</ele>
        <time>2020-01-03T09:50:43Z</time>
      </trkpt>
      <trkpt lat="39.6251690" lon="2.4452150">
        <ele>874.6</ele>
        <time>2020-01-03T09:50:46Z</time>
      </trkpt>
      <trkpt lat="39.6251740" lon="2.4452150">
        <ele>875.6</ele>
        <time>2020-01-03T09:50:58Z</time>
      </trkpt>
      <trkpt lat="39.6251610" lon="2.4451940">
        <ele>874.6</ele>
        <time>2020-01-03T09:51:28Z</time>
      </trkpt>
      <trkpt lat="39.6251670" lon="2.4451820">
        <ele>873.4</ele>
        <time>2020-01-03T09:51:33Z</time>
      </trkpt>
      <trkpt lat="39.6251680" lon="2.4451670">
        <ele>872.2</ele>
        <time>2020-01-03T09:51:36Z</time>
      </trkpt>
      <trkpt lat="39.6251660" lon="2.4451340">
        <ele>871.0</ele>
        <time>2020-01-03T09:51:42Z</time>
      </trkpt>
      <trkpt lat="39.6251720" lon="2.4450950">
        <ele>869.8</ele>
        <time>2020-01-03T09:51:46Z</time>
      </trkpt>
      <trkpt lat="39.6251950" lon="2.4450590">
        <ele>868.4</ele>
        <time>2020-01-03T09:51:50Z</time>
      </trkpt>
      <trkpt lat="39.6252110" lon="2.4450410">
        <ele>867.6</ele>
        <time>2020-01-03T09:51:52Z</time>
      </trkpt>
      <trkpt lat="39.6252300" lon="2.4450300">
        <ele>867.4</ele>
        <time>2020-01-03T09:51:54Z</time>
      </trkpt>
      <trkpt lat="39.6252820" lon="2.4449980">
        <ele>866.4</ele>
        <time>2020-01-03T09:52:00Z</time>
      </trkpt>
      <trkpt lat="39.6254330" lon="2.4449430">
        <ele>865.2</ele>
        <time>2020-01-03T09:52:16Z</time>
      </trkpt>
      <trkpt lat="39.6255440" lon="2.4449220">
        <ele>864.2</ele>
        <time>2020-01-03T09:52:26Z</time>
      </trkpt>
      <trkpt lat="39.6255680" lon="2.4449240">
        <ele>864.2</ele>
        <time>2020-01-03T09:52:29Z</time>
      </trkpt>
      <trkpt lat="39.6255860" lon="2.4449250">
        <ele>864.2</ele>
        <time>2020-01-03T09:52:31Z</time>
      </trkpt>
      <trkpt lat="39.6256140" lon="2.4449330">
        <ele>864.0</ele>
        <time>2020-01-03T09:52:34Z</time>
      </trkpt>
      <trkpt lat="39.6256750" lon="2.4449200">
        <ele>862.6</ele>
        <time>2020-01-03T09:52:39Z</time>
      </trkpt>
      <trkpt lat="39.6257680" lon="2.4449160">
        <ele>861.6</ele>
        <time>2020-01-03T09:52:42Z</time>
      </trkpt>
      <trkpt lat="39.6259300" lon="2.4449250">
        <ele>860.2</ele>
        <time>2020-01-03T09:52:47Z</time>
      </trkpt>
      <trkpt lat="39.6260060" lon="2.4448760">
        <ele>859.2</ele>
        <time>2020-01-03T09:52:50Z</time>
      </trkpt>
      <trkpt lat="39.6260360" lon="2.4448220">
        <ele>857.4</ele>
        <time>2020-01-03T09:52:52Z</time>
      </trkpt>
      <trkpt lat="39.6260750" lon="2.4447760">
        <ele>855.8</ele>
        <time>2020-01-03T09:52:54Z</time>
      </trkpt>
      <trkpt lat="39.6261260" lon="2.4447370">
        <ele>854.2</ele>
        <time>2020-01-03T09:52:56Z</time>
      </trkpt>
      <trkpt lat="39.6261820" lon="2.4447010">
        <ele>853.0</ele>
        <time>2020-01-03T09:52:58Z</time>
      </trkpt>
      <trkpt lat="39.6262420" lon="2.4446640">
        <ele>851.8</ele>
        <time>2020-01-03T09:53:00Z</time>
      </trkpt>
      <trkpt lat="39.6266100" lon="2.4445790">
        <ele>850.4</ele>
        <time>2020-01-03T09:53:13Z</time>
      </trkpt>
      <trkpt lat="39.6266310" lon="2.4445540">
        <ele>849.4</ele>
        <time>2020-01-03T09:53:14Z</time>
      </trkpt>
      <trkpt lat="39.6267050" lon="2.4444500">
        <ele>848.2</ele>
        <time>2020-01-03T09:53:18Z</time>
      </trkpt>
      <trkpt lat="39.6267210" lon="2.4444270">
        <ele>847.0</ele>
        <time>2020-01-03T09:53:19Z</time>
      </trkpt>
      <trkpt lat="39.6267280" lon="2.4444040">
        <ele>846.4</ele>
        <time>2020-01-03T09:53:20Z</time>
      </trkpt>
      <trkpt lat="39.6267370" lon="2.4443360">
        <ele>847.8</ele>
        <time>2020-01-03T09:53:25Z</time>
      </trkpt>
      <trkpt lat="39.6267770" lon="2.4443010">
        <ele>846.0</ele>
        <time>2020-01-03T09:53:48Z</time>
      </trkpt>
      <trkpt lat="39.6267860" lon="2.4442970">
        <ele>847.2</ele>
        <time>2020-01-03T09:54:32Z</time>
      </trkpt>
      <trkpt lat="39.6267750" lon="2.4443270">
        <ele>848.4</ele>
        <time>2020-01-03T10:04:35Z</time>
      </trkpt>
      <trkpt lat="39.6269430" lon="2.4445360">
        <ele>847.2</ele>
        <time>2020-01-03T10:05:16Z</time>
      </trkpt>
      <trkpt lat="39.6269880" lon="2.4445820">
        <ele>846.2</ele>
        <time>2020-01-03T10:05:23Z</time>
      </trkpt>
      <trkpt lat="39.6270350" lon="2.4446040">
        <ele>845.0</ele>
        <time>2020-01-03T10:05:29Z</time>
      </trkpt>
      <trkpt lat="39.6270700" lon="2.4446050">
        <ele>844.0</ele>
        <time>2020-01-03T10:05:33Z</time>
      </trkpt>
      <trkpt lat="39.6271150" lon="2.4446090">
        <ele>843.0</ele>
        <time>2020-01-03T10:05:39Z</time>
      </trkpt>
      <trkpt lat="39.6271650" lon="2.4446420">
        <ele>841.6</ele>
        <time>2020-01-03T10:06:14Z</time>
      </trkpt>
      <trkpt lat="39.6271830" lon="2.4446750">
        <ele>840.2</ele>
        <time>2020-01-03T10:06:18Z</time>
      </trkpt>
      <trkpt lat="39.6272000" lon="2.4447050">
        <ele>839.2</ele>
        <time>2020-01-03T10:06:21Z</time>
      </trkpt>
      <trkpt lat="39.6272300" lon="2.4447630">
        <ele>838.0</ele>
        <time>2020-01-03T10:06:25Z</time>
      </trkpt>
      <trkpt lat="39.6272720" lon="2.4447610">
        <ele>837.0</ele>
        <time>2020-01-03T10:06:28Z</time>
      </trkpt>
      <trkpt lat="39.6273300" lon="2.4448220">
        <ele>835.6</ele>
        <time>2020-01-03T10:06:33Z</time>
      </trkpt>
      <trkpt lat="39.6273420" lon="2.4448280">
        <ele>835.2</ele>
        <time>2020-01-03T10:06:34Z</time>
      </trkpt>
      <trkpt lat="39.6273710" lon="2.4448270">
        <ele>834.6</ele>
        <time>2020-01-03T10:06:36Z</time>
      </trkpt>
      <trkpt lat="39.6274200" lon="2.4447880">
        <ele>833.6</ele>
        <time>2020-01-03T10:06:41Z</time>
      </trkpt>
      <trkpt lat="39.6274150" lon="2.4447510">
        <ele>832.4</ele>
        <time>2020-01-03T10:06:44Z</time>
      </trkpt>
      <trkpt lat="39.6274360" lon="2.4447110">
        <ele>831.4</ele>
        <time>2020-01-03T10:06:47Z</time>
      </trkpt>
      <trkpt lat="39.6274480" lon="2.4447030">
        <ele>831.2</ele>
        <time>2020-01-03T10:06:48Z</time>
      </trkpt>
      <trkpt lat="39.6274750" lon="2.4446780">
        <ele>830.6</ele>
        <time>2020-01-03T10:06:51Z</time>
      </trkpt>
      <trkpt lat="39.6274990" lon="2.4446800">
        <ele>830.2</ele>
        <time>2020-01-03T10:06:54Z</time>
      </trkpt>
      <trkpt lat="39.6275060" lon="2.4446790">
        <ele>830.0</ele>
        <time>2020-01-03T10:06:55Z</time>
      </trkpt>
      <trkpt lat="39.6275100" lon="2.4446640">
        <ele>829.4</ele>
        <time>2020-01-03T10:06:57Z</time>
      </trkpt>
      <trkpt lat="39.6275110" lon="2.4446580">
        <ele>829.2</ele>
        <time>2020-01-03T10:06:58Z</time>
      </trkpt>
      <trkpt lat="39.6275220" lon="2.4446260">
        <ele>828.2</ele>
        <time>2020-01-03T10:07:02Z</time>
      </trkpt>
      <trkpt lat="39.6275780" lon="2.4445980">
        <ele>827.2</ele>
        <time>2020-01-03T10:07:09Z</time>
      </trkpt>
      <trkpt lat="39.6275920" lon="2.4445960">
        <ele>826.8</ele>
        <time>2020-01-03T10:07:11Z</time>
      </trkpt>
      <trkpt lat="39.6276000" lon="2.4446120">
        <ele>826.6</ele>
        <time>2020-01-03T10:07:13Z</time>
      </trkpt>
      <trkpt lat="39.6276030" lon="2.4446280">
        <ele>826.2</ele>
        <time>2020-01-03T10:07:15Z</time>
      </trkpt>
      <trkpt lat="39.6276100" lon="2.4446350">
        <ele>826.0</ele>
        <time>2020-01-03T10:07:17Z</time>
      </trkpt>
      <trkpt lat="39.6276400" lon="2.4446170">
        <ele>824.8</ele>
        <time>2020-01-03T10:07:24Z</time>
      </trkpt>
      <trkpt lat="39.6276930" lon="2.4445790">
        <ele>824.0</ele>
        <time>2020-01-03T10:07:31Z</time>
      </trkpt>
      <trkpt lat="39.6277090" lon="2.4445800">
        <ele>823.8</ele>
        <time>2020-01-03T10:07:33Z</time>
      </trkpt>
      <trkpt lat="39.6277330" lon="2.4445950">
        <ele>823.4</ele>
        <time>2020-01-03T10:07:36Z</time>
      </trkpt>
      <trkpt lat="39.6277840" lon="2.4446010">
        <ele>822.6</ele>
        <time>2020-01-03T10:07:41Z</time>
      </trkpt>
      <trkpt lat="39.6277950" lon="2.4445990">
        <ele>822.4</ele>
        <time>2020-01-03T10:07:43Z</time>
      </trkpt>
      <trkpt lat="39.6278010" lon="2.4445800">
        <ele>821.6</ele>
        <time>2020-01-03T10:07:47Z</time>
      </trkpt>
      <trkpt lat="39.6278350" lon="2.4445440">
        <ele>820.4</ele>
        <time>2020-01-03T10:07:54Z</time>
      </trkpt>
      <trkpt lat="39.6278520" lon="2.4446060">
        <ele>819.4</ele>
        <time>2020-01-03T10:08:11Z</time>
      </trkpt>
      <trkpt lat="39.6278800" lon="2.4446490">
        <ele>818.4</ele>
        <time>2020-01-03T10:08:16Z</time>
      </trkpt>
      <trkpt lat="39.6278880" lon="2.4446540">
        <ele>818.2</ele>
        <time>2020-01-03T10:08:17Z</time>
      </trkpt>
      <trkpt lat="39.6279080" lon="2.4446520">
        <ele>817.6</ele>
        <time>2020-01-03T10:08:19Z</time>
      </trkpt>
      <trkpt lat="39.6279260" lon="2.4446450">
        <ele>817.0</ele>
        <time>2020-01-03T10:08:21Z</time>
      </trkpt>
      <trkpt lat="39.6279660" lon="2.4446570">
        <ele>815.8</ele>
        <time>2020-01-03T10:08:25Z</time>
      </trkpt>
      <trkpt lat="39.6280180" lon="2.4446770">
        <ele>814.8</ele>
        <time>2020-01-03T10:08:31Z</time>
      </trkpt>
      <trkpt lat="39.6280260" lon="2.4446730">
        <ele>814.6</ele>
        <time>2020-01-03T10:08:32Z</time>
      </trkpt>
      <trkpt lat="39.6280340" lon="2.4446580">
        <ele>814.6</ele>
        <time>2020-01-03T10:08:34Z</time>
      </trkpt>
      <trkpt lat="39.6280620" lon="2.4446320">
        <ele>813.6</ele>
        <time>2020-01-03T10:08:40Z</time>
      </trkpt>
      <trkpt lat="39.6280880" lon="2.4446500">
        <ele>812.6</ele>
        <time>2020-01-03T10:08:45Z</time>
      </trkpt>
      <trkpt lat="39.6281180" lon="2.4446690">
        <ele>811.4</ele>
        <time>2020-01-03T10:08:49Z</time>
      </trkpt>
      <trkpt lat="39.6281340" lon="2.4446340">
        <ele>810.2</ele>
        <time>2020-01-03T10:08:54Z</time>
      </trkpt>
      <trkpt lat="39.6281590" lon="2.4445940">
        <ele>809.2</ele>
        <time>2020-01-03T10:09:00Z</time>
      </trkpt>
      <trkpt lat="39.6281690" lon="2.4445740">
        <ele>808.2</ele>
        <time>2020-01-03T10:09:03Z</time>
      </trkpt>
      <trkpt lat="39.6282110" lon="2.4445480">
        <ele>807.2</ele>
        <time>2020-01-03T10:09:10Z</time>
      </trkpt>
      <trkpt lat="39.6282460" lon="2.4445700">
        <ele>806.2</ele>
        <time>2020-01-03T10:09:17Z</time>
      </trkpt>
      <trkpt lat="39.6282770" lon="2.4445980">
        <ele>805.0</ele>
        <time>2020-01-03T10:09:22Z</time>
      </trkpt>
      <trkpt lat="39.6282870" lon="2.4446140">
        <ele>804.8</ele>
        <time>2020-01-03T10:09:24Z</time>
      </trkpt>
      <trkpt lat="39.6283540" lon="2.4446590">
        <ele>804.2</ele>
        <time>2020-01-03T10:09:32Z</time>
      </trkpt>
      <trkpt lat="39.6283610" lon="2.4446640">
        <ele>804.0</ele>
        <time>2020-01-03T10:09:33Z</time>
      </trkpt>
      <trkpt lat="39.6283860" lon="2.4446730">
        <ele>802.8</ele>
        <time>2020-01-03T10:09:37Z</time>
      </trkpt>
      <trkpt lat="39.6284120" lon="2.4446660">
        <ele>801.6</ele>
        <time>2020-01-03T10:09:41Z</time>
      </trkpt>
      <trkpt lat="39.6284520" lon="2.4446810">
        <ele>800.4</ele>
        <time>2020-01-03T10:09:52Z</time>
      </trkpt>
      <trkpt lat="39.6284780" lon="2.4446700">
        <ele>799.2</ele>
        <time>2020-01-03T10:09:56Z</time>
      </trkpt>
      <trkpt lat="39.6285110" lon="2.4446780">
        <ele>798.2</ele>
        <time>2020-01-03T10:10:00Z</time>
      </trkpt>
      <trkpt lat="39.6285450" lon="2.4446770">
        <ele>797.0</ele>
        <time>2020-01-03T10:10:05Z</time>
      </trkpt>
      <trkpt lat="39.6285650" lon="2.4446700">
        <ele>796.0</ele>
        <time>2020-01-03T10:10:09Z</time>
      </trkpt>
      <trkpt lat="39.6285970" lon="2.4446720">
        <ele>794.8</ele>
        <time>2020-01-03T10:10:14Z</time>
      </trkpt>
      <trkpt lat="39.6286360" lon="2.4446860">
        <ele>793.8</ele>
        <time>2020-01-03T10:10:19Z</time>
      </trkpt>
      <trkpt lat="39.6286590" lon="2.4446940">
        <ele>792.8</ele>
        <time>2020-01-03T10:10:22Z</time>
      </trkpt>
      <trkpt lat="39.6286940" lon="2.4447400">
        <ele>791.6</ele>
        <time>2020-01-03T10:10:30Z</time>
      </trkpt>
      <trkpt lat="39.6287160" lon="2.4447810">
        <ele>790.4</ele>
        <time>2020-01-03T10:10:35Z</time>
      </trkpt>
      <trkpt lat="39.6287420" lon="2.4447940">
        <ele>789.2</ele>
        <time>2020-01-03T10:10:39Z</time>
      </trkpt>
      <trkpt lat="39.6287720" lon="2.4447770">
        <ele>788.2</ele>
        <time>2020-01-03T10:10:43Z</time>
      </trkpt>
      <trkpt lat="39.6288150" lon="2.4448190">
        <ele>787.0</ele>
        <time>2020-01-03T10:10:49Z</time>
      </trkpt>
      <trkpt lat="39.6288580" lon="2.4448330">
        <ele>785.8</ele>
        <time>2020-01-03T10:10:55Z</time>
      </trkpt>
      <trkpt lat="39.6288710" lon="2.4448360">
        <ele>785.4</ele>
        <time>2020-01-03T10:10:57Z</time>
      </trkpt>
      <trkpt lat="39.6288850" lon="2.4448200">
        <ele>784.6</ele>
        <time>2020-01-03T10:11:01Z</time>
      </trkpt>
      <trkpt lat="39.6289030" lon="2.4448050">
        <ele>783.6</ele>
        <time>2020-01-03T10:11:05Z</time>
      </trkpt>
      <trkpt lat="39.6289170" lon="2.4447560">
        <ele>782.4</ele>
        <time>2020-01-03T10:11:10Z</time>
      </trkpt>
      <trkpt lat="39.6289430" lon="2.4447280">
        <ele>781.2</ele>
        <time>2020-01-03T10:11:14Z</time>
      </trkpt>
      <trkpt lat="39.6289830" lon="2.4447530">
        <ele>780.0</ele>
        <time>2020-01-03T10:11:19Z</time>
      </trkpt>
      <trkpt lat="39.6289950" lon="2.4447680">
        <ele>779.6</ele>
        <time>2020-01-03T10:11:21Z</time>
      </trkpt>
      <trkpt lat="39.6290150" lon="2.4447650">
        <ele>779.0</ele>
        <time>2020-01-03T10:11:24Z</time>
      </trkpt>
      <trkpt lat="39.6290470" lon="2.4447880">
        <ele>777.6</ele>
        <time>2020-01-03T10:11:30Z</time>
      </trkpt>
      <trkpt lat="39.6290760" lon="2.4448100">
        <ele>776.4</ele>
        <time>2020-01-03T10:11:35Z</time>
      </trkpt>
      <trkpt lat="39.6291040" lon="2.4448130">
        <ele>775.2</ele>
        <time>2020-01-03T10:11:39Z</time>
      </trkpt>
      <trkpt lat="39.6291400" lon="2.4448340">
        <ele>774.2</ele>
        <time>2020-01-03T10:11:44Z</time>
      </trkpt>
      <trkpt lat="39.6291640" lon="2.4448870">
        <ele>773.8</ele>
        <time>2020-01-03T10:11:49Z</time>
      </trkpt>
      <trkpt lat="39.6292010" lon="2.4449090">
        <ele>772.8</ele>
        <time>2020-01-03T10:11:54Z</time>
      </trkpt>
      <trkpt lat="39.6292560" lon="2.4449550">
        <ele>771.6</ele>
        <time>2020-01-03T10:12:01Z</time>
      </trkpt>
      <trkpt lat="39.6292890" lon="2.4449780">
        <ele>770.6</ele>
        <time>2020-01-03T10:12:06Z</time>
      </trkpt>
      <trkpt lat="39.6293080" lon="2.4450130">
        <ele>769.4</ele>
        <time>2020-01-03T10:12:11Z</time>
      </trkpt>
      <trkpt lat="39.6293390" lon="2.4450330">
        <ele>768.4</ele>
        <time>2020-01-03T10:12:16Z</time>
      </trkpt>
      <trkpt lat="39.6293670" lon="2.4450770">
        <ele>767.4</ele>
        <time>2020-01-03T10:12:22Z</time>
      </trkpt>
      <trkpt lat="39.6294160" lon="2.4450990">
        <ele>766.2</ele>
        <time>2020-01-03T10:12:27Z</time>
      </trkpt>
      <trkpt lat="39.6294430" lon="2.4451300">
        <ele>765.4</ele>
        <time>2020-01-03T10:12:31Z</time>
      </trkpt>
      <trkpt lat="39.6294470" lon="2.4451440">
        <ele>765.2</ele>
        <time>2020-01-03T10:12:32Z</time>
      </trkpt>
      <trkpt lat="39.6294890" lon="2.4453710">
        <ele>764.4</ele>
        <time>2020-01-03T10:12:49Z</time>
      </trkpt>
      <trkpt lat="39.6294990" lon="2.4453790">
        <ele>764.0</ele>
        <time>2020-01-03T10:12:50Z</time>
      </trkpt>
      <trkpt lat="39.6295330" lon="2.4454290">
        <ele>763.0</ele>
        <time>2020-01-03T10:12:55Z</time>
      </trkpt>
      <trkpt lat="39.6295440" lon="2.4454430">
        <ele>762.8</ele>
        <time>2020-01-03T10:12:58Z</time>
      </trkpt>
      <trkpt lat="39.6295910" lon="2.4455030">
        <ele>761.6</ele>
        <time>2020-01-03T10:13:04Z</time>
      </trkpt>
      <trkpt lat="39.6296130" lon="2.4455510">
        <ele>761.2</ele>
        <time>2020-01-03T10:13:08Z</time>
      </trkpt>
      <trkpt lat="39.6296190" lon="2.4455740">
        <ele>760.8</ele>
        <time>2020-01-03T10:13:10Z</time>
      </trkpt>
      <trkpt lat="39.6296260" lon="2.4455810">
        <ele>760.6</ele>
        <time>2020-01-03T10:13:11Z</time>
      </trkpt>
      <trkpt lat="39.6296570" lon="2.4456060">
        <ele>759.4</ele>
        <time>2020-01-03T10:13:15Z</time>
      </trkpt>
      <trkpt lat="39.6297080" lon="2.4456980">
        <ele>758.2</ele>
        <time>2020-01-03T10:13:23Z</time>
      </trkpt>
      <trkpt lat="39.6297140" lon="2.4457040">
        <ele>758.0</ele>
        <time>2020-01-03T10:13:24Z</time>
      </trkpt>
      <trkpt lat="39.6297440" lon="2.4457220">
        <ele>757.2</ele>
        <time>2020-01-03T10:13:28Z</time>
      </trkpt>
      <trkpt lat="39.6297920" lon="2.4458160">
        <ele>756.2</ele>
        <time>2020-01-03T10:13:37Z</time>
      </trkpt>
      <trkpt lat="39.6297970" lon="2.4458260">
        <ele>756.0</ele>
        <time>2020-01-03T10:13:38Z</time>
      </trkpt>
      <trkpt lat="39.6298320" lon="2.4458540">
        <ele>755.2</ele>
        <time>2020-01-03T10:13:42Z</time>
      </trkpt>
      <trkpt lat="39.6298760" lon="2.4459690">
        <ele>755.2</ele>
        <time>2020-01-03T10:13:51Z</time>
      </trkpt>
      <trkpt lat="39.6298780" lon="2.4459960">
        <ele>755.0</ele>
        <time>2020-01-03T10:13:54Z</time>
      </trkpt>
      <trkpt lat="39.6299070" lon="2.4460250">
        <ele>753.8</ele>
        <time>2020-01-03T10:14:04Z</time>
      </trkpt>
      <trkpt lat="39.6299390" lon="2.4460710">
        <ele>752.8</ele>
        <time>2020-01-03T10:14:12Z</time>
      </trkpt>
      <trkpt lat="39.6299590" lon="2.4461340">
        <ele>751.6</ele>
        <time>2020-01-03T10:14:17Z</time>
      </trkpt>
      <trkpt lat="39.6299620" lon="2.4461480">
        <ele>751.4</ele>
        <time>2020-01-03T10:14:18Z</time>
      </trkpt>
      <trkpt lat="39.6299800" lon="2.4461950">
        <ele>751.2</ele>
        <time>2020-01-03T10:14:22Z</time>
      </trkpt>
      <trkpt lat="39.6299830" lon="2.4462150">
        <ele>750.8</ele>
        <time>2020-01-03T10:14:24Z</time>
      </trkpt>
      <trkpt lat="39.6299860" lon="2.4462260">
        <ele>750.4</ele>
        <time>2020-01-03T10:14:25Z</time>
      </trkpt>
      <trkpt lat="39.6299990" lon="2.4463210">
        <ele>749.8</ele>
        <time>2020-01-03T10:14:31Z</time>
      </trkpt>
      <trkpt lat="39.6300220" lon="2.4463940">
        <ele>749.4</ele>
        <time>2020-01-03T10:14:36Z</time>
      </trkpt>
      <trkpt lat="39.6300360" lon="2.4464590">
        <ele>749.4</ele>
        <time>2020-01-03T10:14:40Z</time>
      </trkpt>
      <trkpt lat="39.6301010" lon="2.4466300">
        <ele>748.4</ele>
        <time>2020-01-03T10:14:52Z</time>
      </trkpt>
      <trkpt lat="39.6301180" lon="2.4467120">
        <ele>748.8</ele>
        <time>2020-01-03T10:14:58Z</time>
      </trkpt>
      <trkpt lat="39.6301470" lon="2.4467390">
        <ele>748.4</ele>
        <time>2020-01-03T10:15:01Z</time>
      </trkpt>
      <trkpt lat="39.6301630" lon="2.4467780">
        <ele>748.0</ele>
        <time>2020-01-03T10:15:04Z</time>
      </trkpt>
      <trkpt lat="39.6301840" lon="2.4468220">
        <ele>748.0</ele>
        <time>2020-01-03T10:15:08Z</time>
      </trkpt>
      <trkpt lat="39.6302340" lon="2.4468690">
        <ele>747.4</ele>
        <time>2020-01-03T10:15:14Z</time>
      </trkpt>
      <trkpt lat="39.6302450" lon="2.4470200">
        <ele>747.6</ele>
        <time>2020-01-03T10:15:25Z</time>
      </trkpt>
      <trkpt lat="39.6302570" lon="2.4470460">
        <ele>747.8</ele>
        <time>2020-01-03T10:15:28Z</time>
      </trkpt>
      <trkpt lat="39.6302670" lon="2.4470850">
        <ele>747.8</ele>
        <time>2020-01-03T10:15:31Z</time>
      </trkpt>
      <trkpt lat="39.6302750" lon="2.4471290">
        <ele>747.8</ele>
        <time>2020-01-03T10:15:35Z</time>
      </trkpt>
      <trkpt lat="39.6303000" lon="2.4471620">
        <ele>747.2</ele>
        <time>2020-01-03T10:15:39Z</time>
      </trkpt>
      <trkpt lat="39.6302980" lon="2.4471730">
        <ele>747.2</ele>
        <time>2020-01-03T10:15:40Z</time>
      </trkpt>
      <trkpt lat="39.6302940" lon="2.4471990">
        <ele>746.6</ele>
        <time>2020-01-03T10:15:43Z</time>
      </trkpt>
      <trkpt lat="39.6302900" lon="2.4472200">
        <ele>746.0</ele>
        <time>2020-01-03T10:15:45Z</time>
      </trkpt>
      <trkpt lat="39.6302960" lon="2.4472820">
        <ele>745.0</ele>
        <time>2020-01-03T10:15:50Z</time>
      </trkpt>
      <trkpt lat="39.6302810" lon="2.4473810">
        <ele>744.0</ele>
        <time>2020-01-03T10:15:58Z</time>
      </trkpt>
      <trkpt lat="39.6302680" lon="2.4474680">
        <ele>744.2</ele>
        <time>2020-01-03T10:16:04Z</time>
      </trkpt>
      <trkpt lat="39.6302660" lon="2.4474990">
        <ele>744.4</ele>
        <time>2020-01-03T10:16:07Z</time>
      </trkpt>
      <trkpt lat="39.6301170" lon="2.4476300">
        <ele>744.6</ele>
        <time>2020-01-03T10:16:40Z</time>
      </trkpt>
      <trkpt lat="39.6301000" lon="2.4476390">
        <ele>744.6</ele>
        <time>2020-01-03T10:16:42Z</time>
      </trkpt>
      <trkpt lat="39.6300880" lon="2.4476680">
        <ele>743.8</ele>
        <time>2020-01-03T10:16:47Z</time>
      </trkpt>
      <trkpt lat="39.6300650" lon="2.4477230">
        <ele>742.6</ele>
        <time>2020-01-03T10:16:52Z</time>
      </trkpt>
      <trkpt lat="39.6300470" lon="2.4477940">
        <ele>741.4</ele>
        <time>2020-01-03T10:16:58Z</time>
      </trkpt>
      <trkpt lat="39.6300530" lon="2.4478520">
        <ele>740.4</ele>
        <time>2020-01-03T10:17:03Z</time>
      </trkpt>
      <trkpt lat="39.6300230" lon="2.4479120">
        <ele>740.4</ele>
        <time>2020-01-03T10:17:08Z</time>
      </trkpt>
      <trkpt lat="39.6299780" lon="2.4479840">
        <ele>739.4</ele>
        <time>2020-01-03T10:17:16Z</time>
      </trkpt>
      <trkpt lat="39.6299760" lon="2.4479900">
        <ele>739.4</ele>
        <time>2020-01-03T10:17:17Z</time>
      </trkpt>
      <trkpt lat="39.6299740" lon="2.4480450">
        <ele>738.0</ele>
        <time>2020-01-03T10:17:34Z</time>
      </trkpt>
      <trkpt lat="39.6299300" lon="2.4481180">
        <ele>737.0</ele>
        <time>2020-01-03T10:17:44Z</time>
      </trkpt>
      <trkpt lat="39.6298530" lon="2.4481850">
        <ele>736.8</ele>
        <time>2020-01-03T10:17:56Z</time>
      </trkpt>
      <trkpt lat="39.6298210" lon="2.4482360">
        <ele>735.8</ele>
        <time>2020-01-03T10:18:04Z</time>
      </trkpt>
      <trkpt lat="39.6298250" lon="2.4482490">
        <ele>735.4</ele>
        <time>2020-01-03T10:18:06Z</time>
      </trkpt>
      <trkpt lat="39.6298170" lon="2.4482800">
        <ele>735.0</ele>
        <time>2020-01-03T10:18:10Z</time>
      </trkpt>
      <trkpt lat="39.6297070" lon="2.4483210">
        <ele>736.8</ele>
        <time>2020-01-03T10:18:29Z</time>
      </trkpt>
      <trkpt lat="39.6296690" lon="2.4483390">
        <ele>738.2</ele>
        <time>2020-01-03T10:18:34Z</time>
      </trkpt>
      <trkpt lat="39.6296390" lon="2.4483690">
        <ele>739.2</ele>
        <time>2020-01-03T10:18:39Z</time>
      </trkpt>
      <trkpt lat="39.6295760" lon="2.4484840">
        <ele>739.0</ele>
        <time>2020-01-03T10:18:51Z</time>
      </trkpt>
      <trkpt lat="39.6295020" lon="2.4485850">
        <ele>740.4</ele>
        <time>2020-01-03T10:19:20Z</time>
      </trkpt>
      <trkpt lat="39.6294570" lon="2.4486110">
        <ele>741.6</ele>
        <time>2020-01-03T10:19:27Z</time>
      </trkpt>
      <trkpt lat="39.6294180" lon="2.4486480">
        <ele>742.8</ele>
        <time>2020-01-03T10:19:35Z</time>
      </trkpt>
      <trkpt lat="39.6293360" lon="2.4487200">
        <ele>743.4</ele>
        <time>2020-01-03T10:19:45Z</time>
      </trkpt>
      <trkpt lat="39.6293060" lon="2.4487510">
        <ele>744.0</ele>
        <time>2020-01-03T10:19:49Z</time>
      </trkpt>
      <trkpt lat="39.6292860" lon="2.4487590">
        <ele>744.2</ele>
        <time>2020-01-03T10:19:51Z</time>
      </trkpt>
      <trkpt lat="39.6292400" lon="2.4488120">
        <ele>744.8</ele>
        <time>2020-01-03T10:19:58Z</time>
      </trkpt>
      <trkpt lat="39.6292140" lon="2.4488610">
        <ele>745.0</ele>
        <time>2020-01-03T10:20:02Z</time>
      </trkpt>
      <trkpt lat="39.6291370" lon="2.4490060">
        <ele>746.2</ele>
        <time>2020-01-03T10:20:14Z</time>
      </trkpt>
      <trkpt lat="39.6291430" lon="2.4490150">
        <ele>746.0</ele>
        <time>2020-01-03T10:20:15Z</time>
      </trkpt>
      <trkpt lat="39.6291540" lon="2.4490570">
        <ele>745.8</ele>
        <time>2020-01-03T10:20:18Z</time>
      </trkpt>
      <trkpt lat="39.6291630" lon="2.4492440">
        <ele>745.8</ele>
        <time>2020-01-03T10:20:33Z</time>
      </trkpt>
      <trkpt lat="39.6291640" lon="2.4492910">
        <ele>746.2</ele>
        <time>2020-01-03T10:20:37Z</time>
      </trkpt>
      <trkpt lat="39.6291710" lon="2.4493520">
        <ele>747.2</ele>
        <time>2020-01-03T10:20:42Z</time>
      </trkpt>
      <trkpt lat="39.6291650" lon="2.4494000">
        <ele>747.4</ele>
        <time>2020-01-03T10:20:46Z</time>
      </trkpt>
      <trkpt lat="39.6291830" lon="2.4494980">
        <ele>746.2</ele>
        <time>2020-01-03T10:20:55Z</time>
      </trkpt>
      <trkpt lat="39.6291860" lon="2.4495200">
        <ele>746.2</ele>
        <time>2020-01-03T10:21:00Z</time>
      </trkpt>
      <trkpt lat="39.6291820" lon="2.4495930">
        <ele>745.0</ele>
        <time>2020-01-03T10:21:06Z</time>
      </trkpt>
      <trkpt lat="39.6291760" lon="2.4496780">
        <ele>745.0</ele>
        <time>2020-01-03T10:21:12Z</time>
      </trkpt>
      <trkpt lat="39.6291720" lon="2.4496980">
        <ele>745.0</ele>
        <time>2020-01-03T10:21:14Z</time>
      </trkpt>
      <trkpt lat="39.6291670" lon="2.4497170">
        <ele>744.8</ele>
        <time>2020-01-03T10:21:16Z</time>
      </trkpt>
      <trkpt lat="39.6291830" lon="2.4497810">
        <ele>744.0</ele>
        <time>2020-01-03T10:21:22Z</time>
      </trkpt>
      <trkpt lat="39.6292060" lon="2.4498390">
        <ele>743.4</ele>
        <time>2020-01-03T10:21:28Z</time>
      </trkpt>
      <trkpt lat="39.6292330" lon="2.4498840">
        <ele>742.8</ele>
        <time>2020-01-03T10:21:34Z</time>
      </trkpt>
      <trkpt lat="39.6292830" lon="2.4499700">
        <ele>741.6</ele>
        <time>2020-01-03T10:21:58Z</time>
      </trkpt>
      <trkpt lat="39.6293210" lon="2.4500500">
        <ele>740.6</ele>
        <time>2020-01-03T10:22:11Z</time>
      </trkpt>
      <trkpt lat="39.6293510" lon="2.4501640">
        <ele>739.6</ele>
        <time>2020-01-03T10:22:41Z</time>
      </trkpt>
      <trkpt lat="39.6293630" lon="2.4502340">
        <ele>738.4</ele>
        <time>2020-01-03T10:22:47Z</time>
      </trkpt>
      <trkpt lat="39.6293670" lon="2.4502700">
        <ele>737.8</ele>
        <time>2020-01-03T10:22:50Z</time>
      </trkpt>
      <trkpt lat="39.6294050" lon="2.4503410">
        <ele>737.4</ele>
        <time>2020-01-03T10:23:00Z</time>
      </trkpt>
      <trkpt lat="39.6294340" lon="2.4504760">
        <ele>736.2</ele>
        <time>2020-01-03T10:23:08Z</time>
      </trkpt>
      <trkpt lat="39.6294290" lon="2.4506330">
        <ele>735.8</ele>
        <time>2020-01-03T10:23:18Z</time>
      </trkpt>
      <trkpt lat="39.6293960" lon="2.4508020">
        <ele>735.2</ele>
        <time>2020-01-03T10:23:29Z</time>
      </trkpt>
      <trkpt lat="39.6293420" lon="2.4512300">
        <ele>734.2</ele>
        <time>2020-01-03T10:23:55Z</time>
      </trkpt>
      <trkpt lat="39.6293010" lon="2.4514900">
        <ele>733.2</ele>
        <time>2020-01-03T10:24:11Z</time>
      </trkpt>
      <trkpt lat="39.6293050" lon="2.4517730">
        <ele>732.0</ele>
        <time>2020-01-03T10:24:29Z</time>
      </trkpt>
      <trkpt lat="39.6292970" lon="2.4518980">
        <ele>730.8</ele>
        <time>2020-01-03T10:24:37Z</time>
      </trkpt>
      <trkpt lat="39.6292970" lon="2.4519120">
        <ele>730.6</ele>
        <time>2020-01-03T10:24:38Z</time>
      </trkpt>
      <trkpt lat="39.6293010" lon="2.4519420">
        <ele>730.6</ele>
        <time>2020-01-03T10:24:40Z</time>
      </trkpt>
      <trkpt lat="39.6293510" lon="2.4521000">
        <ele>729.8</ele>
        <time>2020-01-03T10:24:51Z</time>
      </trkpt>
      <trkpt lat="39.6293650" lon="2.4521720">
        <ele>729.2</ele>
        <time>2020-01-03T10:24:56Z</time>
      </trkpt>
      <trkpt lat="39.6293870" lon="2.4522250">
        <ele>728.8</ele>
        <time>2020-01-03T10:25:00Z</time>
      </trkpt>
      <trkpt lat="39.6293950" lon="2.4522420">
        <ele>728.6</ele>
        <time>2020-01-03T10:25:02Z</time>
      </trkpt>
      <trkpt lat="39.6294340" lon="2.4523060">
        <ele>727.8</ele>
        <time>2020-01-03T10:25:08Z</time>
      </trkpt>
      <trkpt lat="39.6294720" lon="2.4524320">
        <ele>726.6</ele>
        <time>2020-01-03T10:25:19Z</time>
      </trkpt>
      <trkpt lat="39.6294910" lon="2.4525590">
        <ele>725.8</ele>
        <time>2020-01-03T10:25:28Z</time>
      </trkpt>
      <trkpt lat="39.6295020" lon="2.4525820">
        <ele>725.6</ele>
        <time>2020-01-03T10:25:30Z</time>
      </trkpt>
      <trkpt lat="39.6295150" lon="2.4526110">
        <ele>725.2</ele>
        <time>2020-01-03T10:25:32Z</time>
      </trkpt>
      <trkpt lat="39.6295530" lon="2.4527200">
        <ele>725.0</ele>
        <time>2020-01-03T10:25:41Z</time>
      </trkpt>
      <trkpt lat="39.6295530" lon="2.4527850">
        <ele>724.8</ele>
        <time>2020-01-03T10:25:46Z</time>
      </trkpt>
      <trkpt lat="39.6295620" lon="2.4528100">
        <ele>724.6</ele>
        <time>2020-01-03T10:25:48Z</time>
      </trkpt>
      <trkpt lat="39.6295740" lon="2.4529310">
        <ele>723.6</ele>
        <time>2020-01-03T10:25:57Z</time>
      </trkpt>
      <trkpt lat="39.6295760" lon="2.4529450">
        <ele>723.4</ele>
        <time>2020-01-03T10:25:59Z</time>
      </trkpt>
      <trkpt lat="39.6296100" lon="2.4530840">
        <ele>723.8</ele>
        <time>2020-01-03T10:26:35Z</time>
      </trkpt>
      <trkpt lat="39.6296180" lon="2.4531070">
        <ele>723.4</ele>
        <time>2020-01-03T10:26:37Z</time>
      </trkpt>
      <trkpt lat="39.6297050" lon="2.4532820">
        <ele>723.8</ele>
        <time>2020-01-03T10:26:52Z</time>
      </trkpt>
      <trkpt lat="39.6297400" lon="2.4534000">
        <ele>723.4</ele>
        <time>2020-01-03T10:27:01Z</time>
      </trkpt>
      <trkpt lat="39.6297680" lon="2.4534690">
        <ele>722.8</ele>
        <time>2020-01-03T10:27:08Z</time>
      </trkpt>
      <trkpt lat="39.6298000" lon="2.4535090">
        <ele>723.0</ele>
        <time>2020-01-03T10:27:14Z</time>
      </trkpt>
      <trkpt lat="39.6298760" lon="2.4535790">
        <ele>722.6</ele>
        <time>2020-01-03T10:29:26Z</time>
      </trkpt>
      <trkpt lat="39.6299230" lon="2.4536050">
        <ele>721.4</ele>
        <time>2020-01-03T10:29:31Z</time>
      </trkpt>
      <trkpt lat="39.6299340" lon="2.4536270">
        <ele>721.2</ele>
        <time>2020-01-03T10:29:33Z</time>
      </trkpt>
      <trkpt lat="39.6299440" lon="2.4536580">
        <ele>721.0</ele>
        <time>2020-01-03T10:29:36Z</time>
      </trkpt>
      <trkpt lat="39.6299670" lon="2.4536810">
        <ele>720.4</ele>
        <time>2020-01-03T10:29:39Z</time>
      </trkpt>
      <trkpt lat="39.6300320" lon="2.4537460">
        <ele>719.4</ele>
        <time>2020-01-03T10:29:47Z</time>
      </trkpt>
      <trkpt lat="39.6300370" lon="2.4537580">
        <ele>719.2</ele>
        <time>2020-01-03T10:29:48Z</time>
      </trkpt>
      <trkpt lat="39.6300690" lon="2.4537980">
        <ele>718.2</ele>
        <time>2020-01-03T10:29:53Z</time>
      </trkpt>
      <trkpt lat="39.6300870" lon="2.4538280">
        <ele>717.6</ele>
        <time>2020-01-03T10:29:56Z</time>
      </trkpt>
      <trkpt lat="39.6300940" lon="2.4538420">
        <ele>717.2</ele>
        <time>2020-01-03T10:29:58Z</time>
      </trkpt>
      <trkpt lat="39.6301360" lon="2.4538820">
        <ele>716.2</ele>
        <time>2020-01-03T10:30:03Z</time>
      </trkpt>
      <trkpt lat="39.6301800" lon="2.4539400">
        <ele>715.0</ele>
        <time>2020-01-03T10:30:09Z</time>
      </trkpt>
      <trkpt lat="39.6302220" lon="2.4539910">
        <ele>714.0</ele>
        <time>2020-01-03T10:30:14Z</time>
      </trkpt>
      <trkpt lat="39.6302520" lon="2.4540260">
        <ele>713.0</ele>
        <time>2020-01-03T10:30:18Z</time>
      </trkpt>
      <trkpt lat="39.6302770" lon="2.4540810">
        <ele>711.8</ele>
        <time>2020-01-03T10:30:23Z</time>
      </trkpt>
      <trkpt lat="39.6302920" lon="2.4541640">
        <ele>710.6</ele>
        <time>2020-01-03T10:30:30Z</time>
      </trkpt>
      <trkpt lat="39.6302990" lon="2.4541890">
        <ele>710.4</ele>
        <time>2020-01-03T10:30:32Z</time>
      </trkpt>
      <trkpt lat="39.6303190" lon="2.4542360">
        <ele>709.6</ele>
        <time>2020-01-03T10:30:36Z</time>
      </trkpt>
      <trkpt lat="39.6303710" lon="2.4542990">
        <ele>708.4</ele>
        <time>2020-01-03T10:30:43Z</time>
      </trkpt>
      <trkpt lat="39.6303870" lon="2.4543270">
        <ele>707.8</ele>
        <time>2020-01-03T10:30:47Z</time>
      </trkpt>
      <trkpt lat="39.6303890" lon="2.4543380">
        <ele>707.2</ele>
        <time>2020-01-03T10:30:49Z</time>
      </trkpt>
      <trkpt lat="39.6303990" lon="2.4543830">
        <ele>706.2</ele>
        <time>2020-01-03T10:30:54Z</time>
      </trkpt>
      <trkpt lat="39.6304200" lon="2.4544440">
        <ele>705.8</ele>
        <time>2020-01-03T10:30:59Z</time>
      </trkpt>
      <trkpt lat="39.6304250" lon="2.4544650">
        <ele>705.6</ele>
        <time>2020-01-03T10:31:01Z</time>
      </trkpt>
      <trkpt lat="39.6304410" lon="2.4544770">
        <ele>705.2</ele>
        <time>2020-01-03T10:31:03Z</time>
      </trkpt>
      <trkpt lat="39.6304740" lon="2.4544880">
        <ele>704.4</ele>
        <time>2020-01-03T10:31:06Z</time>
      </trkpt>
      <trkpt lat="39.6304890" lon="2.4545070">
        <ele>704.0</ele>
        <time>2020-01-03T10:31:08Z</time>
      </trkpt>
      <trkpt lat="39.6304980" lon="2.4545200">
        <ele>703.8</ele>
        <time>2020-01-03T10:31:10Z</time>
      </trkpt>
      <trkpt lat="39.6305270" lon="2.4545460">
        <ele>702.8</ele>
        <time>2020-01-03T10:31:15Z</time>
      </trkpt>
      <trkpt lat="39.6305630" lon="2.4546150">
        <ele>701.8</ele>
        <time>2020-01-03T10:31:22Z</time>
      </trkpt>
      <trkpt lat="39.6305860" lon="2.4546210">
        <ele>701.4</ele>
        <time>2020-01-03T10:31:25Z</time>
      </trkpt>
      <trkpt lat="39.6306040" lon="2.4546220">
        <ele>700.6</ele>
        <time>2020-01-03T10:31:28Z</time>
      </trkpt>
      <trkpt lat="39.6306360" lon="2.4546410">
        <ele>699.6</ele>
        <time>2020-01-03T10:31:33Z</time>
      </trkpt>
      <trkpt lat="39.6306630" lon="2.4546820">
        <ele>699.0</ele>
        <time>2020-01-03T10:31:37Z</time>
      </trkpt>
      <trkpt lat="39.6306550" lon="2.4547490">
        <ele>698.8</ele>
        <time>2020-01-03T10:31:43Z</time>
      </trkpt>
      <trkpt lat="39.6306610" lon="2.4547560">
        <ele>698.6</ele>
        <time>2020-01-03T10:31:44Z</time>
      </trkpt>
      <trkpt lat="39.6306870" lon="2.4548110">
        <ele>697.8</ele>
        <time>2020-01-03T10:31:49Z</time>
      </trkpt>
      <trkpt lat="39.6306920" lon="2.4548170">
        <ele>697.6</ele>
        <time>2020-01-03T10:31:50Z</time>
      </trkpt>
      <trkpt lat="39.6307290" lon="2.4548630">
        <ele>696.4</ele>
        <time>2020-01-03T10:31:56Z</time>
      </trkpt>
      <trkpt lat="39.6307310" lon="2.4548690">
        <ele>696.2</ele>
        <time>2020-01-03T10:31:57Z</time>
      </trkpt>
      <trkpt lat="39.6307680" lon="2.4548940">
        <ele>695.2</ele>
        <time>2020-01-03T10:32:02Z</time>
      </trkpt>
      <trkpt lat="39.6308000" lon="2.4549190">
        <ele>694.2</ele>
        <time>2020-01-03T10:32:07Z</time>
      </trkpt>
      <trkpt lat="39.6308200" lon="2.4549900">
        <ele>693.0</ele>
        <time>2020-01-03T10:32:14Z</time>
      </trkpt>
      <trkpt lat="39.6308200" lon="2.4550150">
        <ele>692.6</ele>
        <time>2020-01-03T10:32:16Z</time>
      </trkpt>
      <trkpt lat="39.6308330" lon="2.4550470">
        <ele>692.2</ele>
        <time>2020-01-03T10:32:19Z</time>
      </trkpt>
      <trkpt lat="39.6308280" lon="2.4550800">
        <ele>692.0</ele>
        <time>2020-01-03T10:32:22Z</time>
      </trkpt>
      <trkpt lat="39.6308280" lon="2.4550890">
        <ele>692.0</ele>
        <time>2020-01-03T10:32:23Z</time>
      </trkpt>
      <trkpt lat="39.6308270" lon="2.4551000">
        <ele>692.0</ele>
        <time>2020-01-03T10:32:24Z</time>
      </trkpt>
      <trkpt lat="39.6308440" lon="2.4551470">
        <ele>690.8</ele>
        <time>2020-01-03T10:32:29Z</time>
      </trkpt>
      <trkpt lat="39.6308850" lon="2.4551700">
        <ele>689.8</ele>
        <time>2020-01-03T10:32:33Z</time>
      </trkpt>
      <trkpt lat="39.6309210" lon="2.4551820">
        <ele>689.0</ele>
        <time>2020-01-03T10:32:37Z</time>
      </trkpt>
      <trkpt lat="39.6309300" lon="2.4551890">
        <ele>688.6</ele>
        <time>2020-01-03T10:32:38Z</time>
      </trkpt>
      <trkpt lat="39.6309400" lon="2.4552050">
        <ele>688.0</ele>
        <time>2020-01-03T10:32:40Z</time>
      </trkpt>
      <trkpt lat="39.6309410" lon="2.4552260">
        <ele>687.6</ele>
        <time>2020-01-03T10:32:42Z</time>
      </trkpt>
      <trkpt lat="39.6309790" lon="2.4553200">
        <ele>686.4</ele>
        <time>2020-01-03T10:32:51Z</time>
      </trkpt>
      <trkpt lat="39.6309940" lon="2.4553340">
        <ele>686.0</ele>
        <time>2020-01-03T10:32:53Z</time>
      </trkpt>
      <trkpt lat="39.6310190" lon="2.4553470">
        <ele>685.2</ele>
        <time>2020-01-03T10:32:56Z</time>
      </trkpt>
      <trkpt lat="39.6310270" lon="2.4553500">
        <ele>685.0</ele>
        <time>2020-01-03T10:32:57Z</time>
      </trkpt>
      <trkpt lat="39.6310550" lon="2.4553340">
        <ele>684.2</ele>
        <time>2020-01-03T10:33:01Z</time>
      </trkpt>
      <trkpt lat="39.6310870" lon="2.4553440">
        <ele>683.2</ele>
        <time>2020-01-03T10:33:05Z</time>
      </trkpt>
      <trkpt lat="39.6310920" lon="2.4553530">
        <ele>683.0</ele>
        <time>2020-01-03T10:33:06Z</time>
      </trkpt>
      <trkpt lat="39.6310990" lon="2.4553770">
        <ele>682.4</ele>
        <time>2020-01-03T10:33:09Z</time>
      </trkpt>
      <trkpt lat="39.6311130" lon="2.4553900">
        <ele>681.8</ele>
        <time>2020-01-03T10:33:11Z</time>
      </trkpt>
      <trkpt lat="39.6311400" lon="2.4554290">
        <ele>680.6</ele>
        <time>2020-01-03T10:33:16Z</time>
      </trkpt>
      <trkpt lat="39.6311590" lon="2.4555170">
        <ele>679.6</ele>
        <time>2020-01-03T10:33:24Z</time>
      </trkpt>
      <trkpt lat="39.6311880" lon="2.4555370">
        <ele>678.4</ele>
        <time>2020-01-03T10:33:28Z</time>
      </trkpt>
      <trkpt lat="39.6312200" lon="2.4555770">
        <ele>677.2</ele>
        <time>2020-01-03T10:33:33Z</time>
      </trkpt>
      <trkpt lat="39.6312630" lon="2.4556000">
        <ele>676.0</ele>
        <time>2020-01-03T10:33:38Z</time>
      </trkpt>
      <trkpt lat="39.6313110" lon="2.4556280">
        <ele>675.0</ele>
        <time>2020-01-03T10:33:44Z</time>
      </trkpt>
      <trkpt lat="39.6313160" lon="2.4556360">
        <ele>674.8</ele>
        <time>2020-01-03T10:33:45Z</time>
      </trkpt>
      <trkpt lat="39.6313560" lon="2.4556850">
        <ele>673.8</ele>
        <time>2020-01-03T10:33:51Z</time>
      </trkpt>
      <trkpt lat="39.6313700" lon="2.4556890">
        <ele>673.2</ele>
        <time>2020-01-03T10:33:53Z</time>
      </trkpt>
      <trkpt lat="39.6313950" lon="2.4556960">
        <ele>672.6</ele>
        <time>2020-01-03T10:33:56Z</time>
      </trkpt>
      <trkpt lat="39.6314030" lon="2.4556950">
        <ele>672.4</ele>
        <time>2020-01-03T10:33:57Z</time>
      </trkpt>
      <trkpt lat="39.6314170" lon="2.4556900">
        <ele>671.6</ele>
        <time>2020-01-03T10:33:59Z</time>
      </trkpt>
      <trkpt lat="39.6314800" lon="2.4557010">
        <ele>670.4</ele>
        <time>2020-01-03T10:34:06Z</time>
      </trkpt>
      <trkpt lat="39.6315140" lon="2.4557020">
        <ele>669.4</ele>
        <time>2020-01-03T10:34:10Z</time>
      </trkpt>
      <trkpt lat="39.6315380" lon="2.4557020">
        <ele>668.6</ele>
        <time>2020-01-03T10:34:13Z</time>
      </trkpt>
      <trkpt lat="39.6315460" lon="2.4557000">
        <ele>668.4</ele>
        <time>2020-01-03T10:34:14Z</time>
      </trkpt>
      <trkpt lat="39.6315550" lon="2.4556950">
        <ele>668.0</ele>
        <time>2020-01-03T10:34:15Z</time>
      </trkpt>
      <trkpt lat="39.6315760" lon="2.4556850">
        <ele>667.4</ele>
        <time>2020-01-03T10:34:18Z</time>
      </trkpt>
      <trkpt lat="39.6315870" lon="2.4556810">
        <ele>666.8</ele>
        <time>2020-01-03T10:34:20Z</time>
      </trkpt>
      <trkpt lat="39.6316050" lon="2.4556740">
        <ele>666.2</ele>
        <time>2020-01-03T10:34:23Z</time>
      </trkpt>
      <trkpt lat="39.6316370" lon="2.4556640">
        <ele>665.0</ele>
        <time>2020-01-03T10:34:27Z</time>
      </trkpt>
      <trkpt lat="39.6316770" lon="2.4556850">
        <ele>663.8</ele>
        <time>2020-01-03T10:34:32Z</time>
      </trkpt>
      <trkpt lat="39.6317120" lon="2.4557160">
        <ele>662.8</ele>
        <time>2020-01-03T10:34:37Z</time>
      </trkpt>
      <trkpt lat="39.6317270" lon="2.4557610">
        <ele>661.6</ele>
        <time>2020-01-03T10:34:42Z</time>
      </trkpt>
      <trkpt lat="39.6317330" lon="2.4558210">
        <ele>660.6</ele>
        <time>2020-01-03T10:34:47Z</time>
      </trkpt>
      <trkpt lat="39.6317310" lon="2.4558990">
        <ele>659.6</ele>
        <time>2020-01-03T10:34:54Z</time>
      </trkpt>
      <trkpt lat="39.6317370" lon="2.4559660">
        <ele>658.4</ele>
        <time>2020-01-03T10:34:59Z</time>
      </trkpt>
      <trkpt lat="39.6317560" lon="2.4560410">
        <ele>657.4</ele>
        <time>2020-01-03T10:35:05Z</time>
      </trkpt>
      <trkpt lat="39.6317740" lon="2.4560830">
        <ele>656.2</ele>
        <time>2020-01-03T10:35:09Z</time>
      </trkpt>
      <trkpt lat="39.6317800" lon="2.4560930">
        <ele>655.8</ele>
        <time>2020-01-03T10:35:10Z</time>
      </trkpt>
      <trkpt lat="39.6318020" lon="2.4561080">
        <ele>654.8</ele>
        <time>2020-01-03T10:35:13Z</time>
      </trkpt>
      <trkpt lat="39.6318440" lon="2.4561330">
        <ele>653.6</ele>
        <time>2020-01-03T10:35:18Z</time>
      </trkpt>
      <trkpt lat="39.6318530" lon="2.4561380">
        <ele>653.4</ele>
        <time>2020-01-03T10:35:19Z</time>
      </trkpt>
      <trkpt lat="39.6318780" lon="2.4561610">
        <ele>653.0</ele>
        <time>2020-01-03T10:35:22Z</time>
      </trkpt>
      <trkpt lat="39.6319040" lon="2.4561670">
        <ele>652.4</ele>
        <time>2020-01-03T10:35:25Z</time>
      </trkpt>
      <trkpt lat="39.6319530" lon="2.4561840">
        <ele>651.4</ele>
        <time>2020-01-03T10:35:30Z</time>
      </trkpt>
      <trkpt lat="39.6319720" lon="2.4562000">
        <ele>651.0</ele>
        <time>2020-01-03T10:35:32Z</time>
      </trkpt>
      <trkpt lat="39.6320060" lon="2.4562130">
        <ele>650.4</ele>
        <time>2020-01-03T10:35:35Z</time>
      </trkpt>
      <trkpt lat="39.6320830" lon="2.4562800">
        <ele>649.4</ele>
        <time>2020-01-03T10:35:43Z</time>
      </trkpt>
      <trkpt lat="39.6320980" lon="2.4562880">
        <ele>649.4</ele>
        <time>2020-01-03T10:35:45Z</time>
      </trkpt>
      <trkpt lat="39.6321200" lon="2.4563060">
        <ele>649.0</ele>
        <time>2020-01-03T10:35:48Z</time>
      </trkpt>
      <trkpt lat="39.6321360" lon="2.4563150">
        <ele>648.6</ele>
        <time>2020-01-03T10:35:50Z</time>
      </trkpt>
      <trkpt lat="39.6321520" lon="2.4563290">
        <ele>648.4</ele>
        <time>2020-01-03T10:35:52Z</time>
      </trkpt>
      <trkpt lat="39.6321950" lon="2.4564530">
        <ele>647.6</ele>
        <time>2020-01-03T10:36:01Z</time>
      </trkpt>
      <trkpt lat="39.6321940" lon="2.4564890">
        <ele>647.2</ele>
        <time>2020-01-03T10:36:04Z</time>
      </trkpt>
      <trkpt lat="39.6321940" lon="2.4565700">
        <ele>646.2</ele>
        <time>2020-01-03T10:36:11Z</time>
      </trkpt>
      <trkpt lat="39.6322480" lon="2.4566860">
        <ele>645.8</ele>
        <time>2020-01-03T10:39:56Z</time>
      </trkpt>
      <trkpt lat="39.6322710" lon="2.4567790">
        <ele>645.0</ele>
        <time>2020-01-03T10:40:09Z</time>
      </trkpt>
      <trkpt lat="39.6322900" lon="2.4568830">
        <ele>644.0</ele>
        <time>2020-01-03T10:40:20Z</time>
      </trkpt>
      <trkpt lat="39.6322920" lon="2.4569050">
        <ele>643.0</ele>
        <time>2020-01-03T10:40:23Z</time>
      </trkpt>
      <trkpt lat="39.6322850" lon="2.4570130">
        <ele>641.8</ele>
        <time>2020-01-03T10:40:33Z</time>
      </trkpt>
      <trkpt lat="39.6322710" lon="2.4570970">
        <ele>640.6</ele>
        <time>2020-01-03T10:40:40Z</time>
      </trkpt>
      <trkpt lat="39.6322920" lon="2.4571800">
        <ele>639.6</ele>
        <time>2020-01-03T10:40:46Z</time>
      </trkpt>
      <trkpt lat="39.6323300" lon="2.4572620">
        <ele>638.4</ele>
        <time>2020-01-03T10:40:53Z</time>
      </trkpt>
      <trkpt lat="39.6324130" lon="2.4573170">
        <ele>637.4</ele>
        <time>2020-01-03T10:41:01Z</time>
      </trkpt>
      <trkpt lat="39.6324430" lon="2.4573320">
        <ele>636.6</ele>
        <time>2020-01-03T10:41:05Z</time>
      </trkpt>
      <trkpt lat="39.6324670" lon="2.4573480">
        <ele>636.2</ele>
        <time>2020-01-03T10:41:08Z</time>
      </trkpt>
      <trkpt lat="39.6325150" lon="2.4573840">
        <ele>635.2</ele>
        <time>2020-01-03T10:41:13Z</time>
      </trkpt>
      <trkpt lat="39.6325190" lon="2.4573970">
        <ele>634.6</ele>
        <time>2020-01-03T10:41:14Z</time>
      </trkpt>
      <trkpt lat="39.6325420" lon="2.4574620">
        <ele>634.0</ele>
        <time>2020-01-03T10:41:19Z</time>
      </trkpt>
      <trkpt lat="39.6326110" lon="2.4575390">
        <ele>632.8</ele>
        <time>2020-01-03T10:41:27Z</time>
      </trkpt>
      <trkpt lat="39.6326750" lon="2.4576290">
        <ele>631.8</ele>
        <time>2020-01-03T10:41:35Z</time>
      </trkpt>
      <trkpt lat="39.6327930" lon="2.4577930">
        <ele>630.8</ele>
        <time>2020-01-03T10:41:48Z</time>
      </trkpt>
      <trkpt lat="39.6328090" lon="2.4578410">
        <ele>629.4</ele>
        <time>2020-01-03T10:41:51Z</time>
      </trkpt>
      <trkpt lat="39.6328120" lon="2.4578690">
        <ele>629.2</ele>
        <time>2020-01-03T10:41:53Z</time>
      </trkpt>
      <trkpt lat="39.6328270" lon="2.4579030">
        <ele>628.2</ele>
        <time>2020-01-03T10:41:56Z</time>
      </trkpt>
      <trkpt lat="39.6328300" lon="2.4579380">
        <ele>626.8</ele>
        <time>2020-01-03T10:41:59Z</time>
      </trkpt>
      <trkpt lat="39.6328260" lon="2.4579960">
        <ele>625.6</ele>
        <time>2020-01-03T10:42:04Z</time>
      </trkpt>
      <trkpt lat="39.6328340" lon="2.4580550">
        <ele>624.2</ele>
        <time>2020-01-03T10:42:08Z</time>
      </trkpt>
      <trkpt lat="39.6328460" lon="2.4581070">
        <ele>623.2</ele>
        <time>2020-01-03T10:42:12Z</time>
      </trkpt>
      <trkpt lat="39.6328770" lon="2.4581480">
        <ele>621.8</ele>
        <time>2020-01-03T10:42:16Z</time>
      </trkpt>
      <trkpt lat="39.6328920" lon="2.4581820">
        <ele>620.8</ele>
        <time>2020-01-03T10:42:19Z</time>
      </trkpt>
      <trkpt lat="39.6328870" lon="2.4582510">
        <ele>619.4</ele>
        <time>2020-01-03T10:42:24Z</time>
      </trkpt>
      <trkpt lat="39.6328860" lon="2.4582920">
        <ele>618.4</ele>
        <time>2020-01-03T10:42:27Z</time>
      </trkpt>
      <trkpt lat="39.6328820" lon="2.4583010">
        <ele>618.4</ele>
        <time>2020-01-03T10:42:28Z</time>
      </trkpt>
      <trkpt lat="39.6328810" lon="2.4583100">
        <ele>618.2</ele>
        <time>2020-01-03T10:42:29Z</time>
      </trkpt>
      <trkpt lat="39.6328950" lon="2.4583250">
        <ele>617.4</ele>
        <time>2020-01-03T10:42:31Z</time>
      </trkpt>
      <trkpt lat="39.6329040" lon="2.4583330">
        <ele>617.2</ele>
        <time>2020-01-03T10:42:32Z</time>
      </trkpt>
      <trkpt lat="39.6329240" lon="2.4583960">
        <ele>616.0</ele>
        <time>2020-01-03T10:42:37Z</time>
      </trkpt>
      <trkpt lat="39.6329330" lon="2.4584020">
        <ele>615.8</ele>
        <time>2020-01-03T10:42:38Z</time>
      </trkpt>
      <trkpt lat="39.6329680" lon="2.4584140">
        <ele>614.8</ele>
        <time>2020-01-03T10:42:41Z</time>
      </trkpt>
      <trkpt lat="39.6330120" lon="2.4584570">
        <ele>613.4</ele>
        <time>2020-01-03T10:42:46Z</time>
      </trkpt>
      <trkpt lat="39.6330660" lon="2.4584740">
        <ele>612.4</ele>
        <time>2020-01-03T10:42:51Z</time>
      </trkpt>
      <trkpt lat="39.6331050" lon="2.4585060">
        <ele>611.0</ele>
        <time>2020-01-03T10:42:55Z</time>
      </trkpt>
      <trkpt lat="39.6331650" lon="2.4585450">
        <ele>610.0</ele>
        <time>2020-01-03T10:43:01Z</time>
      </trkpt>
      <trkpt lat="39.6332420" lon="2.4585570">
        <ele>608.8</ele>
        <time>2020-01-03T10:43:08Z</time>
      </trkpt>
      <trkpt lat="39.6332490" lon="2.4585640">
        <ele>608.6</ele>
        <time>2020-01-03T10:43:09Z</time>
      </trkpt>
      <trkpt lat="39.6332360" lon="2.4586110">
        <ele>607.6</ele>
        <time>2020-01-03T10:43:13Z</time>
      </trkpt>
      <trkpt lat="39.6331900" lon="2.4586500">
        <ele>606.6</ele>
        <time>2020-01-03T10:43:18Z</time>
      </trkpt>
      <trkpt lat="39.6331340" lon="2.4587030">
        <ele>606.0</ele>
        <time>2020-01-03T10:43:23Z</time>
      </trkpt>
      <trkpt lat="39.6331160" lon="2.4587120">
        <ele>605.6</ele>
        <time>2020-01-03T10:43:25Z</time>
      </trkpt>
      <trkpt lat="39.6331140" lon="2.4587320">
        <ele>605.0</ele>
        <time>2020-01-03T10:43:27Z</time>
      </trkpt>
      <trkpt lat="39.6331230" lon="2.4587560">
        <ele>604.6</ele>
        <time>2020-01-03T10:43:29Z</time>
      </trkpt>
      <trkpt lat="39.6331260" lon="2.4587710">
        <ele>604.2</ele>
        <time>2020-01-03T10:43:30Z</time>
      </trkpt>
      <trkpt lat="39.6331250" lon="2.4587980">
        <ele>603.8</ele>
        <time>2020-01-03T10:43:32Z</time>
      </trkpt>
      <trkpt lat="39.6331150" lon="2.4588070">
        <ele>603.2</ele>
        <time>2020-01-03T10:43:34Z</time>
      </trkpt>
      <trkpt lat="39.6330700" lon="2.4588320">
        <ele>602.2</ele>
        <time>2020-01-03T10:43:38Z</time>
      </trkpt>
      <trkpt lat="39.6330180" lon="2.4588470">
        <ele>601.0</ele>
        <time>2020-01-03T10:43:43Z</time>
      </trkpt>
      <trkpt lat="39.6330100" lon="2.4588470">
        <ele>600.8</ele>
        <time>2020-01-03T10:43:44Z</time>
      </trkpt>
      <trkpt lat="39.6329800" lon="2.4588560">
        <ele>600.6</ele>
        <time>2020-01-03T10:43:46Z</time>
      </trkpt>
      <trkpt lat="39.6329420" lon="2.4588540">
        <ele>599.8</ele>
        <time>2020-01-03T10:43:50Z</time>
      </trkpt>
      <trkpt lat="39.6329020" lon="2.4588510">
        <ele>598.8</ele>
        <time>2020-01-03T10:43:54Z</time>
      </trkpt>
      <trkpt lat="39.6328180" lon="2.4588770">
        <ele>597.8</ele>
        <time>2020-01-03T10:44:03Z</time>
      </trkpt>
      <trkpt lat="39.6327820" lon="2.4588940">
        <ele>596.6</ele>
        <time>2020-01-03T10:44:07Z</time>
      </trkpt>
      <trkpt lat="39.6327280" lon="2.4589000">
        <ele>595.8</ele>
        <time>2020-01-03T10:44:12Z</time>
      </trkpt>
      <trkpt lat="39.6327190" lon="2.4589060">
        <ele>595.6</ele>
        <time>2020-01-03T10:44:13Z</time>
      </trkpt>
      <trkpt lat="39.6326920" lon="2.4589160">
        <ele>594.6</ele>
        <time>2020-01-03T10:44:16Z</time>
      </trkpt>
      <trkpt lat="39.6326380" lon="2.4589430">
        <ele>594.0</ele>
        <time>2020-01-03T10:44:21Z</time>
      </trkpt>
      <trkpt lat="39.6326300" lon="2.4589700">
        <ele>593.4</ele>
        <time>2020-01-03T10:44:25Z</time>
      </trkpt>
      <trkpt lat="39.6326570" lon="2.4589950">
        <ele>592.2</ele>
        <time>2020-01-03T10:44:30Z</time>
      </trkpt>
      <trkpt lat="39.6326960" lon="2.4590150">
        <ele>591.2</ele>
        <time>2020-01-03T10:44:35Z</time>
      </trkpt>
      <trkpt lat="39.6327320" lon="2.4590400">
        <ele>590.0</ele>
        <time>2020-01-03T10:44:40Z</time>
      </trkpt>
      <trkpt lat="39.6327540" lon="2.4590870">
        <ele>589.0</ele>
        <time>2020-01-03T10:44:46Z</time>
      </trkpt>
      <trkpt lat="39.6327490" lon="2.4591370">
        <ele>587.8</ele>
        <time>2020-01-03T10:44:51Z</time>
      </trkpt>
      <trkpt lat="39.6327210" lon="2.4591600">
        <ele>586.8</ele>
        <time>2020-01-03T10:44:56Z</time>
      </trkpt>
      <trkpt lat="39.6326760" lon="2.4591810">
        <ele>585.6</ele>
        <time>2020-01-03T10:45:02Z</time>
      </trkpt>
      <trkpt lat="39.6325840" lon="2.4592130">
        <ele>584.6</ele>
        <time>2020-01-03T10:45:11Z</time>
      </trkpt>
      <trkpt lat="39.6324850" lon="2.4591990">
        <ele>583.6</ele>
        <time>2020-01-03T10:45:21Z</time>
      </trkpt>
      <trkpt lat="39.6324430" lon="2.4591980">
        <ele>583.4</ele>
        <time>2020-01-03T10:45:25Z</time>
      </trkpt>
      <trkpt lat="39.6324310" lon="2.4591940">
        <ele>583.2</ele>
        <time>2020-01-03T10:45:27Z</time>
      </trkpt>
      <trkpt lat="39.6324330" lon="2.4592030">
        <ele>582.4</ele>
        <time>2020-01-03T10:45:30Z</time>
      </trkpt>
      <trkpt lat="39.6324610" lon="2.4592270">
        <ele>582.0</ele>
        <time>2020-01-03T10:45:33Z</time>
      </trkpt>
      <trkpt lat="39.6324860" lon="2.4592480">
        <ele>581.2</ele>
        <time>2020-01-03T10:45:37Z</time>
      </trkpt>
      <trkpt lat="39.6325250" lon="2.4592730">
        <ele>580.0</ele>
        <time>2020-01-03T10:45:42Z</time>
      </trkpt>
      <trkpt lat="39.6325520" lon="2.4592850">
        <ele>579.8</ele>
        <time>2020-01-03T10:45:45Z</time>
      </trkpt>
      <trkpt lat="39.6325690" lon="2.4592960">
        <ele>579.6</ele>
        <time>2020-01-03T10:45:47Z</time>
      </trkpt>
      <trkpt lat="39.6325910" lon="2.4593230">
        <ele>579.0</ele>
        <time>2020-01-03T10:45:50Z</time>
      </trkpt>
      <trkpt lat="39.6326500" lon="2.4593560">
        <ele>577.8</ele>
        <time>2020-01-03T10:45:56Z</time>
      </trkpt>
      <trkpt lat="39.6327120" lon="2.4593880">
        <ele>576.8</ele>
        <time>2020-01-03T10:46:02Z</time>
      </trkpt>
      <trkpt lat="39.6327260" lon="2.4593940">
        <ele>576.4</ele>
        <time>2020-01-03T10:46:04Z</time>
      </trkpt>
      <trkpt lat="39.6327380" lon="2.4594090">
        <ele>575.8</ele>
        <time>2020-01-03T10:46:06Z</time>
      </trkpt>
      <trkpt lat="39.6327580" lon="2.4594180">
        <ele>575.6</ele>
        <time>2020-01-03T10:46:08Z</time>
      </trkpt>
      <trkpt lat="39.6327670" lon="2.4594200">
        <ele>575.4</ele>
        <time>2020-01-03T10:46:09Z</time>
      </trkpt>
      <trkpt lat="39.6327900" lon="2.4594220">
        <ele>574.8</ele>
        <time>2020-01-03T10:46:12Z</time>
      </trkpt>
      <trkpt lat="39.6327920" lon="2.4594290">
        <ele>574.4</ele>
        <time>2020-01-03T10:46:13Z</time>
      </trkpt>
      <trkpt lat="39.6328230" lon="2.4594510">
        <ele>573.2</ele>
        <time>2020-01-03T10:46:18Z</time>
      </trkpt>
      <trkpt lat="39.6328650" lon="2.4594760">
        <ele>572.0</ele>
        <time>2020-01-03T10:46:23Z</time>
      </trkpt>
      <trkpt lat="39.6329240" lon="2.4594920">
        <ele>571.0</ele>
        <time>2020-01-03T10:46:29Z</time>
      </trkpt>
      <trkpt lat="39.6330210" lon="2.4595040">
        <ele>569.8</ele>
        <time>2020-01-03T10:46:37Z</time>
      </trkpt>
      <trkpt lat="39.6330830" lon="2.4595240">
        <ele>568.8</ele>
        <time>2020-01-03T10:46:44Z</time>
      </trkpt>
      <trkpt lat="39.6331440" lon="2.4595350">
        <ele>567.6</ele>
        <time>2020-01-03T10:46:51Z</time>
      </trkpt>
      <trkpt lat="39.6331520" lon="2.4595380">
        <ele>567.2</ele>
        <time>2020-01-03T10:46:52Z</time>
      </trkpt>
      <trkpt lat="39.6331720" lon="2.4595390">
        <ele>567.0</ele>
        <time>2020-01-03T10:46:54Z</time>
      </trkpt>
      <trkpt lat="39.6331980" lon="2.4595390">
        <ele>566.6</ele>
        <time>2020-01-03T10:46:57Z</time>
      </trkpt>
      <trkpt lat="39.6332310" lon="2.4595460">
        <ele>565.8</ele>
        <time>2020-01-03T10:47:00Z</time>
      </trkpt>
      <trkpt lat="39.6332540" lon="2.4595540">
        <ele>565.4</ele>
        <time>2020-01-03T10:47:02Z</time>
      </trkpt>
      <trkpt lat="39.6332680" lon="2.4595580">
        <ele>565.0</ele>
        <time>2020-01-03T10:47:04Z</time>
      </trkpt>
      <trkpt lat="39.6333020" lon="2.4595590">
        <ele>564.4</ele>
        <time>2020-01-03T10:47:07Z</time>
      </trkpt>
      <trkpt lat="39.6333140" lon="2.4595570">
        <ele>564.2</ele>
        <time>2020-01-03T10:47:08Z</time>
      </trkpt>
      <trkpt lat="39.6333590" lon="2.4595530">
        <ele>563.4</ele>
        <time>2020-01-03T10:47:12Z</time>
      </trkpt>
      <trkpt lat="39.6334610" lon="2.4595540">
        <ele>562.2</ele>
        <time>2020-01-03T10:47:20Z</time>
      </trkpt>
      <trkpt lat="39.6335020" lon="2.4595910">
        <ele>561.0</ele>
        <time>2020-01-03T10:47:25Z</time>
      </trkpt>
      <trkpt lat="39.6334920" lon="2.4596440">
        <ele>559.8</ele>
        <time>2020-01-03T10:47:29Z</time>
      </trkpt>
      <trkpt lat="39.6334720" lon="2.4596720">
        <ele>558.8</ele>
        <time>2020-01-03T10:47:32Z</time>
      </trkpt>
      <trkpt lat="39.6334640" lon="2.4596750">
        <ele>558.6</ele>
        <time>2020-01-03T10:47:33Z</time>
      </trkpt>
      <trkpt lat="39.6334220" lon="2.4596700">
        <ele>557.4</ele>
        <time>2020-01-03T10:47:38Z</time>
      </trkpt>
      <trkpt lat="39.6333800" lon="2.4597150">
        <ele>556.2</ele>
        <time>2020-01-03T10:47:43Z</time>
      </trkpt>
      <trkpt lat="39.6333660" lon="2.4597350">
        <ele>555.6</ele>
        <time>2020-01-03T10:47:45Z</time>
      </trkpt>
      <trkpt lat="39.6333490" lon="2.4597530">
        <ele>555.0</ele>
        <time>2020-01-03T10:47:47Z</time>
      </trkpt>
      <trkpt lat="39.6333310" lon="2.4597970">
        <ele>554.0</ele>
        <time>2020-01-03T10:47:51Z</time>
      </trkpt>
      <trkpt lat="39.6333550" lon="2.4598130">
        <ele>553.4</ele>
        <time>2020-01-03T10:47:54Z</time>
      </trkpt>
      <trkpt lat="39.6333780" lon="2.4598160">
        <ele>552.8</ele>
        <time>2020-01-03T10:47:56Z</time>
      </trkpt>
      <trkpt lat="39.6334470" lon="2.4598340">
        <ele>551.8</ele>
        <time>2020-01-03T10:48:02Z</time>
      </trkpt>
      <trkpt lat="39.6334540" lon="2.4598390">
        <ele>551.6</ele>
        <time>2020-01-03T10:48:03Z</time>
      </trkpt>
      <trkpt lat="39.6334700" lon="2.4598700">
        <ele>550.6</ele>
        <time>2020-01-03T10:48:07Z</time>
      </trkpt>
      <trkpt lat="39.6334780" lon="2.4598860">
        <ele>550.2</ele>
        <time>2020-01-03T10:48:09Z</time>
      </trkpt>
      <trkpt lat="39.6334900" lon="2.4599020">
        <ele>549.8</ele>
        <time>2020-01-03T10:48:11Z</time>
      </trkpt>
      <trkpt lat="39.6335000" lon="2.4599110">
        <ele>549.4</ele>
        <time>2020-01-03T10:48:12Z</time>
      </trkpt>
      <trkpt lat="39.6335350" lon="2.4599540">
        <ele>548.4</ele>
        <time>2020-01-03T10:48:16Z</time>
      </trkpt>
      <trkpt lat="39.6335610" lon="2.4599970">
        <ele>547.6</ele>
        <time>2020-01-03T10:48:20Z</time>
      </trkpt>
      <trkpt lat="39.6335750" lon="2.4600350">
        <ele>547.2</ele>
        <time>2020-01-03T10:48:23Z</time>
      </trkpt>
      <trkpt lat="39.6335960" lon="2.4600850">
        <ele>546.0</ele>
        <time>2020-01-03T10:48:27Z</time>
      </trkpt>
      <trkpt lat="39.6336070" lon="2.4601120">
        <ele>545.8</ele>
        <time>2020-01-03T10:48:30Z</time>
      </trkpt>
      <trkpt lat="39.6336120" lon="2.4602470">
        <ele>547.2</ele>
        <time>2020-01-03T10:51:00Z</time>
      </trkpt>
      <trkpt lat="39.6336150" lon="2.4603070">
        <ele>548.2</ele>
        <time>2020-01-03T10:51:08Z</time>
      </trkpt>
      <trkpt lat="39.6335890" lon="2.4604420">
        <ele>547.6</ele>
        <time>2020-01-03T10:51:26Z</time>
      </trkpt>
      <trkpt lat="39.6335920" lon="2.4604670">
        <ele>547.6</ele>
        <time>2020-01-03T10:51:28Z</time>
      </trkpt>
      <trkpt lat="39.6335860" lon="2.4605490">
        <ele>549.2</ele>
        <time>2020-01-03T10:51:38Z</time>
      </trkpt>
      <trkpt lat="39.6335960" lon="2.4606180">
        <ele>550.4</ele>
        <time>2020-01-03T10:51:45Z</time>
      </trkpt>
      <trkpt lat="39.6336230" lon="2.4606470">
        <ele>551.4</ele>
        <time>2020-01-03T10:51:51Z</time>
      </trkpt>
      <trkpt lat="39.6336220" lon="2.4606950">
        <ele>552.6</ele>
        <time>2020-01-03T10:51:58Z</time>
      </trkpt>
      <trkpt lat="39.6336620" lon="2.4607280">
        <ele>554.0</ele>
        <time>2020-01-03T10:52:04Z</time>
      </trkpt>
      <trkpt lat="39.6336710" lon="2.4607560">
        <ele>555.0</ele>
        <time>2020-01-03T10:52:09Z</time>
      </trkpt>
      <trkpt lat="39.6336630" lon="2.4607980">
        <ele>556.2</ele>
        <time>2020-01-03T10:52:15Z</time>
      </trkpt>
      <trkpt lat="39.6336560" lon="2.4608630">
        <ele>557.2</ele>
        <time>2020-01-03T10:52:22Z</time>
      </trkpt>
      <trkpt lat="39.6336420" lon="2.4610440">
        <ele>558.2</ele>
        <time>2020-01-03T10:52:37Z</time>
      </trkpt>
      <trkpt lat="39.6336090" lon="2.4614120">
        <ele>556.2</ele>
        <time>2020-01-03T10:53:09Z</time>
      </trkpt>
      <trkpt lat="39.6336090" lon="2.4614590">
        <ele>554.8</ele>
        <time>2020-01-03T10:53:13Z</time>
      </trkpt>
      <trkpt lat="39.6336090" lon="2.4614820">
        <ele>554.6</ele>
        <time>2020-01-03T10:53:15Z</time>
      </trkpt>
      <trkpt lat="39.6336310" lon="2.4615570">
        <ele>553.8</ele>
        <time>2020-01-03T10:53:23Z</time>
      </trkpt>
      <trkpt lat="39.6336630" lon="2.4616290">
        <ele>553.2</ele>
        <time>2020-01-03T10:53:30Z</time>
      </trkpt>
      <trkpt lat="39.6337220" lon="2.4616700">
        <ele>553.4</ele>
        <time>2020-01-03T10:53:36Z</time>
      </trkpt>
      <trkpt lat="39.6337600" lon="2.4617090">
        <ele>553.2</ele>
        <time>2020-01-03T10:53:41Z</time>
      </trkpt>
      <trkpt lat="39.6337780" lon="2.4617460">
        <ele>552.8</ele>
        <time>2020-01-03T10:53:45Z</time>
      </trkpt>
      <trkpt lat="39.6338290" lon="2.4617700">
        <ele>552.8</ele>
        <time>2020-01-03T10:53:51Z</time>
      </trkpt>
      <trkpt lat="39.6338650" lon="2.4617650">
        <ele>552.6</ele>
        <time>2020-01-03T10:53:57Z</time>
      </trkpt>
      <trkpt lat="39.6338820" lon="2.4617710">
        <ele>552.4</ele>
        <time>2020-01-03T10:53:59Z</time>
      </trkpt>
      <trkpt lat="39.6339070" lon="2.4617930">
        <ele>551.8</ele>
        <time>2020-01-03T10:54:06Z</time>
      </trkpt>
      <trkpt lat="39.6339600" lon="2.4618440">
        <ele>550.6</ele>
        <time>2020-01-03T10:54:21Z</time>
      </trkpt>
      <trkpt lat="39.6339860" lon="2.4618860">
        <ele>549.6</ele>
        <time>2020-01-03T10:54:27Z</time>
      </trkpt>
      <trkpt lat="39.6341010" lon="2.4619050">
        <ele>549.6</ele>
        <time>2020-01-03T10:54:46Z</time>
      </trkpt>
      <trkpt lat="39.6341260" lon="2.4619140">
        <ele>549.6</ele>
        <time>2020-01-03T10:54:49Z</time>
      </trkpt>
      <trkpt lat="39.6341360" lon="2.4619240">
        <ele>549.4</ele>
        <time>2020-01-03T10:54:51Z</time>
      </trkpt>
      <trkpt lat="39.6341500" lon="2.4619590">
        <ele>548.6</ele>
        <time>2020-01-03T10:54:56Z</time>
      </trkpt>
      <trkpt lat="39.6341940" lon="2.4620090">
        <ele>547.4</ele>
        <time>2020-01-03T10:55:04Z</time>
      </trkpt>
      <trkpt lat="39.6342680" lon="2.4620530">
        <ele>547.2</ele>
        <time>2020-01-03T10:55:13Z</time>
      </trkpt>
      <trkpt lat="39.6343460" lon="2.4621400">
        <ele>547.4</ele>
        <time>2020-01-03T10:55:23Z</time>
      </trkpt>
      <trkpt lat="39.6343640" lon="2.4621550">
        <ele>547.4</ele>
        <time>2020-01-03T10:55:25Z</time>
      </trkpt>
      <trkpt lat="39.6344120" lon="2.4622540">
        <ele>546.2</ele>
        <time>2020-01-03T10:55:34Z</time>
      </trkpt>
      <trkpt lat="39.6344390" lon="2.4623130">
        <ele>546.0</ele>
        <time>2020-01-03T10:55:39Z</time>
      </trkpt>
      <trkpt lat="39.6344780" lon="2.4623470">
        <ele>545.8</ele>
        <time>2020-01-03T10:55:44Z</time>
      </trkpt>
      <trkpt lat="39.6345140" lon="2.4623910">
        <ele>545.4</ele>
        <time>2020-01-03T10:55:50Z</time>
      </trkpt>
      <trkpt lat="39.6345430" lon="2.4624020">
        <ele>545.2</ele>
        <time>2020-01-03T10:55:53Z</time>
      </trkpt>
      <trkpt lat="39.6348010" lon="2.4625970">
        <ele>544.0</ele>
        <time>2020-01-03T10:56:27Z</time>
      </trkpt>
      <trkpt lat="39.6348330" lon="2.4626410">
        <ele>542.8</ele>
        <time>2020-01-03T10:56:32Z</time>
      </trkpt>
      <trkpt lat="39.6348610" lon="2.4626790">
        <ele>541.8</ele>
        <time>2020-01-03T10:56:36Z</time>
      </trkpt>
      <trkpt lat="39.6349180" lon="2.4627500">
        <ele>540.6</ele>
        <time>2020-01-03T10:56:45Z</time>
      </trkpt>
      <trkpt lat="39.6349610" lon="2.4627900">
        <ele>539.4</ele>
        <time>2020-01-03T10:56:51Z</time>
      </trkpt>
      <trkpt lat="39.6350080" lon="2.4628470">
        <ele>538.4</ele>
        <time>2020-01-03T10:56:58Z</time>
      </trkpt>
      <trkpt lat="39.6350370" lon="2.4628910">
        <ele>537.2</ele>
        <time>2020-01-03T10:57:03Z</time>
      </trkpt>
      <trkpt lat="39.6351280" lon="2.4630360">
        <ele>538.2</ele>
        <time>2020-01-03T10:57:17Z</time>
      </trkpt>
      <trkpt lat="39.6351330" lon="2.4630420">
        <ele>538.4</ele>
        <time>2020-01-03T10:57:18Z</time>
      </trkpt>
      <trkpt lat="39.6351380" lon="2.4630470">
        <ele>538.4</ele>
        <time>2020-01-03T10:57:19Z</time>
      </trkpt>
      <trkpt lat="39.6351730" lon="2.4630850">
        <ele>539.2</ele>
        <time>2020-01-03T10:57:25Z</time>
      </trkpt>
      <trkpt lat="39.6351770" lon="2.4630940">
        <ele>539.4</ele>
        <time>2020-01-03T10:57:26Z</time>
      </trkpt>
      <trkpt lat="39.6352070" lon="2.4630940">
        <ele>540.4</ele>
        <time>2020-01-03T10:57:31Z</time>
      </trkpt>
      <trkpt lat="39.6352490" lon="2.4630920">
        <ele>541.4</ele>
        <time>2020-01-03T10:57:37Z</time>
      </trkpt>
      <trkpt lat="39.6352770" lon="2.4631080">
        <ele>542.6</ele>
        <time>2020-01-03T10:57:43Z</time>
      </trkpt>
      <trkpt lat="39.6353150" lon="2.4631040">
        <ele>543.8</ele>
        <time>2020-01-03T10:57:49Z</time>
      </trkpt>
      <trkpt lat="39.6353510" lon="2.4631090">
        <ele>544.8</ele>
        <time>2020-01-03T10:57:54Z</time>
      </trkpt>
      <trkpt lat="39.6353680" lon="2.4631310">
        <ele>546.0</ele>
        <time>2020-01-03T10:58:00Z</time>
      </trkpt>
      <trkpt lat="39.6354050" lon="2.4631530">
        <ele>547.0</ele>
        <time>2020-01-03T10:58:07Z</time>
      </trkpt>
      <trkpt lat="39.6354390" lon="2.4631540">
        <ele>548.2</ele>
        <time>2020-01-03T10:58:13Z</time>
      </trkpt>
      <trkpt lat="39.6354630" lon="2.4631470">
        <ele>549.4</ele>
        <time>2020-01-03T10:58:19Z</time>
      </trkpt>
      <trkpt lat="39.6354770" lon="2.4631370">
        <ele>550.4</ele>
        <time>2020-01-03T10:58:24Z</time>
      </trkpt>
      <trkpt lat="39.6354990" lon="2.4631090">
        <ele>551.4</ele>
        <time>2020-01-03T10:58:30Z</time>
      </trkpt>
      <trkpt lat="39.6355060" lon="2.4630980">
        <ele>552.6</ele>
        <time>2020-01-03T10:58:34Z</time>
      </trkpt>
      <trkpt lat="39.6355090" lon="2.4630780">
        <ele>553.8</ele>
        <time>2020-01-03T10:58:40Z</time>
      </trkpt>
      <trkpt lat="39.6355190" lon="2.4630580">
        <ele>554.8</ele>
        <time>2020-01-03T10:58:45Z</time>
      </trkpt>
      <trkpt lat="39.6355410" lon="2.4630530">
        <ele>555.8</ele>
        <time>2020-01-03T10:58:50Z</time>
      </trkpt>
      <trkpt lat="39.6355700" lon="2.4630480">
        <ele>557.0</ele>
        <time>2020-01-03T10:58:55Z</time>
      </trkpt>
      <trkpt lat="39.6355910" lon="2.4630670">
        <ele>558.0</ele>
        <time>2020-01-03T10:59:00Z</time>
      </trkpt>
      <trkpt lat="39.6355850" lon="2.4631250">
        <ele>559.2</ele>
        <time>2020-01-03T10:59:07Z</time>
      </trkpt>
      <trkpt lat="39.6355860" lon="2.4631920">
        <ele>560.2</ele>
        <time>2020-01-03T10:59:14Z</time>
      </trkpt>
      <trkpt lat="39.6356320" lon="2.4633270">
        <ele>561.0</ele>
        <time>2020-01-03T10:59:31Z</time>
      </trkpt>
      <trkpt lat="39.6356340" lon="2.4633800">
        <ele>560.6</ele>
        <time>2020-01-03T10:59:35Z</time>
      </trkpt>
      <trkpt lat="39.6356340" lon="2.4635430">
        <ele>559.2</ele>
        <time>2020-01-03T10:59:49Z</time>
      </trkpt>
      <trkpt lat="39.6356840" lon="2.4635840">
        <ele>560.4</ele>
        <time>2020-01-03T10:59:59Z</time>
      </trkpt>
      <trkpt lat="39.6357240" lon="2.4635940">
        <ele>561.4</ele>
        <time>2020-01-03T11:00:05Z</time>
      </trkpt>
      <trkpt lat="39.6357620" lon="2.4636230">
        <ele>562.6</ele>
        <time>2020-01-03T11:00:11Z</time>
      </trkpt>
      <trkpt lat="39.6357830" lon="2.4636860">
        <ele>563.6</ele>
        <time>2020-01-03T11:00:18Z</time>
      </trkpt>
      <trkpt lat="39.6357840" lon="2.4637130">
        <ele>564.0</ele>
        <time>2020-01-03T11:00:21Z</time>
      </trkpt>
      <trkpt lat="39.6358040" lon="2.4637210">
        <ele>564.6</ele>
        <time>2020-01-03T11:00:25Z</time>
      </trkpt>
      <trkpt lat="39.6358220" lon="2.4636880">
        <ele>565.8</ele>
        <time>2020-01-03T11:00:30Z</time>
      </trkpt>
      <trkpt lat="39.6358680" lon="2.4636850">
        <ele>566.8</ele>
        <time>2020-01-03T11:00:37Z</time>
      </trkpt>
      <trkpt lat="39.6358970" lon="2.4636970">
        <ele>567.8</ele>
        <time>2020-01-03T11:00:42Z</time>
      </trkpt>
      <trkpt lat="39.6359320" lon="2.4637070">
        <ele>569.0</ele>
        <time>2020-01-03T11:00:49Z</time>
      </trkpt>
      <trkpt lat="39.6359520" lon="2.4636880">
        <ele>570.0</ele>
        <time>2020-01-03T11:00:54Z</time>
      </trkpt>
      <trkpt lat="39.6359860" lon="2.4636720">
        <ele>571.0</ele>
        <time>2020-01-03T11:01:00Z</time>
      </trkpt>
      <trkpt lat="39.6360080" lon="2.4636560">
        <ele>572.2</ele>
        <time>2020-01-03T11:01:07Z</time>
      </trkpt>
      <trkpt lat="39.6360420" lon="2.4636530">
        <ele>573.4</ele>
        <time>2020-01-03T11:01:13Z</time>
      </trkpt>
      <trkpt lat="39.6360760" lon="2.4636680">
        <ele>574.4</ele>
        <time>2020-01-03T11:01:20Z</time>
      </trkpt>
      <trkpt lat="39.6361120" lon="2.4636650">
        <ele>575.8</ele>
        <time>2020-01-03T11:01:26Z</time>
      </trkpt>
      <trkpt lat="39.6361620" lon="2.4636740">
        <ele>576.8</ele>
        <time>2020-01-03T11:01:35Z</time>
      </trkpt>
      <trkpt lat="39.6363070" lon="2.4638390">
        <ele>578.2</ele>
        <time>2020-01-03T11:02:01Z</time>
      </trkpt>
      <trkpt lat="39.6364260" lon="2.4639560">
        <ele>579.0</ele>
        <time>2020-01-03T11:02:20Z</time>
      </trkpt>
      <trkpt lat="39.6364980" lon="2.4640730">
        <ele>578.8</ele>
        <time>2020-01-03T11:02:31Z</time>
      </trkpt>
      <trkpt lat="39.6365760" lon="2.4640800">
        <ele>579.8</ele>
        <time>2020-01-03T11:02:39Z</time>
      </trkpt>
      <trkpt lat="39.6365930" lon="2.4640840">
        <ele>580.0</ele>
        <time>2020-01-03T11:02:41Z</time>
      </trkpt>
      <trkpt lat="39.6366040" lon="2.4640850">
        <ele>580.2</ele>
        <time>2020-01-03T11:02:42Z</time>
      </trkpt>
      <trkpt lat="39.6366490" lon="2.4640840">
        <ele>581.2</ele>
        <time>2020-01-03T11:02:48Z</time>
      </trkpt>
      <trkpt lat="39.6366910" lon="2.4640580">
        <ele>582.2</ele>
        <time>2020-01-03T11:02:54Z</time>
      </trkpt>
      <trkpt lat="39.6367400" lon="2.4640550">
        <ele>583.2</ele>
        <time>2020-01-03T11:03:01Z</time>
      </trkpt>
      <trkpt lat="39.6367710" lon="2.4640350">
        <ele>584.4</ele>
        <time>2020-01-03T11:03:08Z</time>
      </trkpt>
      <trkpt lat="39.6368140" lon="2.4640360">
        <ele>585.6</ele>
        <time>2020-01-03T11:03:16Z</time>
      </trkpt>
      <trkpt lat="39.6368540" lon="2.4640270">
        <ele>586.6</ele>
        <time>2020-01-03T11:03:22Z</time>
      </trkpt>
      <trkpt lat="39.6369170" lon="2.4640120">
        <ele>587.6</ele>
        <time>2020-01-03T11:03:30Z</time>
      </trkpt>
      <trkpt lat="39.6369910" lon="2.4640180">
        <ele>588.8</ele>
        <time>2020-01-03T11:03:38Z</time>
      </trkpt>
      <trkpt lat="39.6370200" lon="2.4640110">
        <ele>589.2</ele>
        <time>2020-01-03T11:03:41Z</time>
      </trkpt>
      <trkpt lat="39.6370440" lon="2.4639970">
        <ele>589.6</ele>
        <time>2020-01-03T11:03:44Z</time>
      </trkpt>
      <trkpt lat="39.6370570" lon="2.4639950">
        <ele>589.8</ele>
        <time>2020-01-03T11:03:45Z</time>
      </trkpt>
      <trkpt lat="39.6370670" lon="2.4639950">
        <ele>589.8</ele>
        <time>2020-01-03T11:03:46Z</time>
      </trkpt>
      <trkpt lat="39.6370830" lon="2.4640030">
        <ele>590.2</ele>
        <time>2020-01-03T11:03:48Z</time>
      </trkpt>
      <trkpt lat="39.6371620" lon="2.4640600">
        <ele>589.4</ele>
        <time>2020-01-03T11:03:58Z</time>
      </trkpt>
      <trkpt lat="39.6371870" lon="2.4640880">
        <ele>588.6</ele>
        <time>2020-01-03T11:04:02Z</time>
      </trkpt>
      <trkpt lat="39.6372120" lon="2.4641020">
        <ele>588.2</ele>
        <time>2020-01-03T11:04:05Z</time>
      </trkpt>
      <trkpt lat="39.6372310" lon="2.4641130">
        <ele>587.6</ele>
        <time>2020-01-03T11:04:08Z</time>
      </trkpt>
      <trkpt lat="39.6372790" lon="2.4641510">
        <ele>586.6</ele>
        <time>2020-01-03T11:04:16Z</time>
      </trkpt>
      <trkpt lat="39.6373640" lon="2.4641450">
        <ele>585.4</ele>
        <time>2020-01-03T11:04:29Z</time>
      </trkpt>
      <trkpt lat="39.6373820" lon="2.4641820">
        <ele>584.4</ele>
        <time>2020-01-03T11:04:34Z</time>
      </trkpt>
      <trkpt lat="39.6374660" lon="2.4642920">
        <ele>583.4</ele>
        <time>2020-01-03T11:04:48Z</time>
      </trkpt>
      <trkpt lat="39.6374800" lon="2.4642980">
        <ele>583.4</ele>
        <time>2020-01-03T11:04:50Z</time>
      </trkpt>
      <trkpt lat="39.6375270" lon="2.4643190">
        <ele>582.2</ele>
        <time>2020-01-03T11:04:57Z</time>
      </trkpt>
      <trkpt lat="39.6375820" lon="2.4643580">
        <ele>581.2</ele>
        <time>2020-01-03T11:05:06Z</time>
      </trkpt>
      <trkpt lat="39.6376450" lon="2.4644820">
        <ele>580.0</ele>
        <time>2020-01-03T11:05:21Z</time>
      </trkpt>
      <trkpt lat="39.6376950" lon="2.4645350">
        <ele>579.6</ele>
        <time>2020-01-03T11:05:28Z</time>
      </trkpt>
      <trkpt lat="39.6377100" lon="2.4645450">
        <ele>580.0</ele>
        <time>2020-01-03T11:05:31Z</time>
      </trkpt>
      <trkpt lat="39.6377580" lon="2.4646210">
        <ele>581.2</ele>
        <time>2020-01-03T11:05:40Z</time>
      </trkpt>
      <trkpt lat="39.6377830" lon="2.4646670">
        <ele>582.2</ele>
        <time>2020-01-03T11:05:46Z</time>
      </trkpt>
      <trkpt lat="39.6378350" lon="2.4647310">
        <ele>583.2</ele>
        <time>2020-01-03T11:05:54Z</time>
      </trkpt>
      <trkpt lat="39.6378410" lon="2.4647500">
        <ele>583.2</ele>
        <time>2020-01-03T11:05:56Z</time>
      </trkpt>
      <trkpt lat="39.6378440" lon="2.4647670">
        <ele>583.6</ele>
        <time>2020-01-03T11:05:58Z</time>
      </trkpt>
      <trkpt lat="39.6379680" lon="2.4650640">
        <ele>584.4</ele>
        <time>2020-01-03T11:06:34Z</time>
      </trkpt>
      <trkpt lat="39.6381430" lon="2.4654170">
        <ele>583.2</ele>
        <time>2020-01-03T11:07:21Z</time>
      </trkpt>
      <trkpt lat="39.6381950" lon="2.4655140">
        <ele>582.0</ele>
        <time>2020-01-03T11:07:31Z</time>
      </trkpt>
      <trkpt lat="39.6382360" lon="2.4655400">
        <ele>580.8</ele>
        <time>2020-01-03T11:07:37Z</time>
      </trkpt>
      <trkpt lat="39.6382580" lon="2.4655640">
        <ele>580.6</ele>
        <time>2020-01-03T11:07:40Z</time>
      </trkpt>
      <trkpt lat="39.6382740" lon="2.4655890">
        <ele>580.0</ele>
        <time>2020-01-03T11:07:43Z</time>
      </trkpt>
      <trkpt lat="39.6382800" lon="2.4655980">
        <ele>579.8</ele>
        <time>2020-01-03T11:07:44Z</time>
      </trkpt>
      <trkpt lat="39.6382920" lon="2.4656380">
        <ele>579.4</ele>
        <time>2020-01-03T11:07:48Z</time>
      </trkpt>
      <trkpt lat="39.6383180" lon="2.4656980">
        <ele>578.8</ele>
        <time>2020-01-03T11:07:54Z</time>
      </trkpt>
      <trkpt lat="39.6383400" lon="2.4657330">
        <ele>578.6</ele>
        <time>2020-01-03T11:07:58Z</time>
      </trkpt>
      <trkpt lat="39.6383480" lon="2.4657550">
        <ele>578.6</ele>
        <time>2020-01-03T11:08:00Z</time>
      </trkpt>
      <trkpt lat="39.6383710" lon="2.4658230">
        <ele>577.6</ele>
        <time>2020-01-03T11:08:07Z</time>
      </trkpt>
      <trkpt lat="39.6383840" lon="2.4658360">
        <ele>577.4</ele>
        <time>2020-01-03T11:08:09Z</time>
      </trkpt>
      <trkpt lat="39.6383930" lon="2.4658440">
        <ele>577.4</ele>
        <time>2020-01-03T11:08:11Z</time>
      </trkpt>
      <trkpt lat="39.6384050" lon="2.4658570">
        <ele>577.0</ele>
        <time>2020-01-03T11:08:13Z</time>
      </trkpt>
      <trkpt lat="39.6384460" lon="2.4658990">
        <ele>576.6</ele>
        <time>2020-01-03T11:08:21Z</time>
      </trkpt>
      <trkpt lat="39.6384550" lon="2.4659180">
        <ele>576.6</ele>
        <time>2020-01-03T11:08:23Z</time>
      </trkpt>
      <trkpt lat="39.6385640" lon="2.4663060">
        <ele>575.8</ele>
        <time>2020-01-03T11:09:03Z</time>
      </trkpt>
      <trkpt lat="39.6385730" lon="2.4663650">
        <ele>576.0</ele>
        <time>2020-01-03T11:09:08Z</time>
      </trkpt>
      <trkpt lat="39.6385880" lon="2.4663880">
        <ele>576.0</ele>
        <time>2020-01-03T11:09:11Z</time>
      </trkpt>
      <trkpt lat="39.6386530" lon="2.4664640">
        <ele>575.6</ele>
        <time>2020-01-03T11:09:21Z</time>
      </trkpt>
      <trkpt lat="39.6387020" lon="2.4664900">
        <ele>575.0</ele>
        <time>2020-01-03T11:09:27Z</time>
      </trkpt>
      <trkpt lat="39.6387200" lon="2.4664940">
        <ele>574.8</ele>
        <time>2020-01-03T11:09:29Z</time>
      </trkpt>
      <trkpt lat="39.6387570" lon="2.4665080">
        <ele>574.4</ele>
        <time>2020-01-03T11:09:34Z</time>
      </trkpt>
      <trkpt lat="39.6388190" lon="2.4665660">
        <ele>574.0</ele>
        <time>2020-01-03T11:09:42Z</time>
      </trkpt>
      <trkpt lat="39.6388540" lon="2.4666030">
        <ele>573.8</ele>
        <time>2020-01-03T11:09:47Z</time>
      </trkpt>
      <trkpt lat="39.6388890" lon="2.4666380">
        <ele>573.4</ele>
        <time>2020-01-03T11:09:51Z</time>
      </trkpt>
      <trkpt lat="39.6388970" lon="2.4666430">
        <ele>573.4</ele>
        <time>2020-01-03T11:09:52Z</time>
      </trkpt>
      <trkpt lat="39.6389530" lon="2.4667180">
        <ele>572.2</ele>
        <time>2020-01-03T11:10:09Z</time>
      </trkpt>
      <trkpt lat="39.6390330" lon="2.4668980">
        <ele>571.0</ele>
        <time>2020-01-03T11:10:28Z</time>
      </trkpt>
      <trkpt lat="39.6390340" lon="2.4669080">
        <ele>571.0</ele>
        <time>2020-01-03T11:10:29Z</time>
      </trkpt>
      <trkpt lat="39.6390340" lon="2.4669470">
        <ele>571.0</ele>
        <time>2020-01-03T11:10:33Z</time>
      </trkpt>
      <trkpt lat="39.6390450" lon="2.4669620">
        <ele>570.6</ele>
        <time>2020-01-03T11:10:35Z</time>
      </trkpt>
      <trkpt lat="39.6390860" lon="2.4670270">
        <ele>570.0</ele>
        <time>2020-01-03T11:10:43Z</time>
      </trkpt>
      <trkpt lat="39.6391270" lon="2.4670450">
        <ele>569.6</ele>
        <time>2020-01-03T11:10:47Z</time>
      </trkpt>
      <trkpt lat="39.6391680" lon="2.4670610">
        <ele>568.8</ele>
        <time>2020-01-03T11:10:53Z</time>
      </trkpt>
      <trkpt lat="39.6391870" lon="2.4670710">
        <ele>568.6</ele>
        <time>2020-01-03T11:10:55Z</time>
      </trkpt>
      <trkpt lat="39.6392370" lon="2.4670810">
        <ele>567.6</ele>
        <time>2020-01-03T11:11:01Z</time>
      </trkpt>
      <trkpt lat="39.6393240" lon="2.4671330">
        <ele>566.6</ele>
        <time>2020-01-03T11:11:11Z</time>
      </trkpt>
      <trkpt lat="39.6393390" lon="2.4671460">
        <ele>566.4</ele>
        <time>2020-01-03T11:11:13Z</time>
      </trkpt>
      <trkpt lat="39.6393530" lon="2.4671620">
        <ele>566.2</ele>
        <time>2020-01-03T11:11:15Z</time>
      </trkpt>
      <trkpt lat="39.6393740" lon="2.4671980">
        <ele>565.8</ele>
        <time>2020-01-03T11:11:19Z</time>
      </trkpt>
      <trkpt lat="39.6393970" lon="2.4672020">
        <ele>565.6</ele>
        <time>2020-01-03T11:11:22Z</time>
      </trkpt>
      <trkpt lat="39.6394740" lon="2.4672210">
        <ele>564.8</ele>
        <time>2020-01-03T11:11:31Z</time>
      </trkpt>
      <trkpt lat="39.6395460" lon="2.4672340">
        <ele>564.6</ele>
        <time>2020-01-03T11:11:41Z</time>
      </trkpt>
      <trkpt lat="39.6395530" lon="2.4672410">
        <ele>564.4</ele>
        <time>2020-01-03T11:11:42Z</time>
      </trkpt>
      <trkpt lat="39.6397040" lon="2.4673300">
        <ele>563.6</ele>
        <time>2020-01-03T11:12:06Z</time>
      </trkpt>
      <trkpt lat="39.6398130" lon="2.4673560">
        <ele>563.2</ele>
        <time>2020-01-03T11:12:19Z</time>
      </trkpt>
      <trkpt lat="39.6399600" lon="2.4674580">
        <ele>562.6</ele>
        <time>2020-01-03T11:12:38Z</time>
      </trkpt>
      <trkpt lat="39.6400000" lon="2.4676120">
        <ele>563.2</ele>
        <time>2020-01-03T11:12:51Z</time>
      </trkpt>
      <trkpt lat="39.6399960" lon="2.4676540">
        <ele>563.2</ele>
        <time>2020-01-03T11:12:54Z</time>
      </trkpt>
      <trkpt lat="39.6400010" lon="2.4676780">
        <ele>563.4</ele>
        <time>2020-01-03T11:12:56Z</time>
      </trkpt>
      <trkpt lat="39.6399760" lon="2.4678590">
        <ele>563.8</ele>
        <time>2020-01-03T11:13:10Z</time>
      </trkpt>
      <trkpt lat="39.6399760" lon="2.4678960">
        <ele>564.4</ele>
        <time>2020-01-03T11:13:13Z</time>
      </trkpt>
      <trkpt lat="39.6399770" lon="2.4679040">
        <ele>564.6</ele>
        <time>2020-01-03T11:13:14Z</time>
      </trkpt>
      <trkpt lat="39.6400190" lon="2.4679740">
        <ele>565.6</ele>
        <time>2020-01-03T11:13:22Z</time>
      </trkpt>
      <trkpt lat="39.6400260" lon="2.4680470">
        <ele>566.6</ele>
        <time>2020-01-03T11:13:29Z</time>
      </trkpt>
      <trkpt lat="39.6400310" lon="2.4681180">
        <ele>567.8</ele>
        <time>2020-01-03T11:13:36Z</time>
      </trkpt>
      <trkpt lat="39.6400470" lon="2.4680670">
        <ele>566.4</ele>
        <time>2020-01-03T11:14:13Z</time>
      </trkpt>
      <trkpt lat="39.6400290" lon="2.4679590">
        <ele>565.4</ele>
        <time>2020-01-03T11:14:22Z</time>
      </trkpt>
      <trkpt lat="39.6400260" lon="2.4679500">
        <ele>565.4</ele>
        <time>2020-01-03T11:14:23Z</time>
      </trkpt>
      <trkpt lat="39.6400070" lon="2.4679160">
        <ele>565.0</ele>
        <time>2020-01-03T11:14:26Z</time>
      </trkpt>
      <trkpt lat="39.6399900" lon="2.4678920">
        <ele>564.2</ele>
        <time>2020-01-03T11:14:29Z</time>
      </trkpt>
      <trkpt lat="39.6399900" lon="2.4678490">
        <ele>564.0</ele>
        <time>2020-01-03T11:14:33Z</time>
      </trkpt>
      <trkpt lat="39.6399900" lon="2.4678150">
        <ele>563.4</ele>
        <time>2020-01-03T11:14:36Z</time>
      </trkpt>
      <trkpt lat="39.6399910" lon="2.4677970">
        <ele>563.2</ele>
        <time>2020-01-03T11:14:38Z</time>
      </trkpt>
      <trkpt lat="39.6398980" lon="2.4676930">
        <ele>562.6</ele>
        <time>2020-01-03T11:15:03Z</time>
      </trkpt>
      <trkpt lat="39.6398370" lon="2.4675420">
        <ele>563.0</ele>
        <time>2020-01-03T11:15:15Z</time>
      </trkpt>
      <trkpt lat="39.6398420" lon="2.4675020">
        <ele>563.4</ele>
        <time>2020-01-03T11:15:19Z</time>
      </trkpt>
      <trkpt lat="39.6398430" lon="2.4674660">
        <ele>563.4</ele>
        <time>2020-01-03T11:15:23Z</time>
      </trkpt>
      <trkpt lat="39.6399760" lon="2.4673960">
        <ele>562.2</ele>
        <time>2020-01-03T11:15:58Z</time>
      </trkpt>
      <trkpt lat="39.6400500" lon="2.4673910">
        <ele>561.0</ele>
        <time>2020-01-03T11:16:07Z</time>
      </trkpt>
      <trkpt lat="39.6401040" lon="2.4674220">
        <ele>559.8</ele>
        <time>2020-01-03T11:16:16Z</time>
      </trkpt>
      <trkpt lat="39.6401400" lon="2.4674170">
        <ele>558.8</ele>
        <time>2020-01-03T11:16:26Z</time>
      </trkpt>
      <trkpt lat="39.6401760" lon="2.4673980">
        <ele>557.6</ele>
        <time>2020-01-03T11:16:31Z</time>
      </trkpt>
      <trkpt lat="39.6402080" lon="2.4674020">
        <ele>556.2</ele>
        <time>2020-01-03T11:16:36Z</time>
      </trkpt>
      <trkpt lat="39.6402490" lon="2.4674500">
        <ele>555.0</ele>
        <time>2020-01-03T11:16:44Z</time>
      </trkpt>
      <trkpt lat="39.6402750" lon="2.4674880">
        <ele>554.0</ele>
        <time>2020-01-03T11:16:50Z</time>
      </trkpt>
      <trkpt lat="39.6402970" lon="2.4674870">
        <ele>553.0</ele>
        <time>2020-01-03T11:16:54Z</time>
      </trkpt>
      <trkpt lat="39.6403360" lon="2.4674800">
        <ele>551.8</ele>
        <time>2020-01-03T11:16:58Z</time>
      </trkpt>
      <trkpt lat="39.6403580" lon="2.4674820">
        <ele>550.8</ele>
        <time>2020-01-03T11:17:03Z</time>
      </trkpt>
      <trkpt lat="39.6403810" lon="2.4675140">
        <ele>549.6</ele>
        <time>2020-01-03T11:17:08Z</time>
      </trkpt>
      <trkpt lat="39.6404180" lon="2.4675460">
        <ele>548.6</ele>
        <time>2020-01-03T11:17:15Z</time>
      </trkpt>
      <trkpt lat="39.6404620" lon="2.4676040">
        <ele>547.6</ele>
        <time>2020-01-03T11:17:27Z</time>
      </trkpt>
      <trkpt lat="39.6404980" lon="2.4676550">
        <ele>546.0</ele>
        <time>2020-01-03T11:17:34Z</time>
      </trkpt>
      <trkpt lat="39.6405370" lon="2.4676700">
        <ele>544.8</ele>
        <time>2020-01-03T11:17:39Z</time>
      </trkpt>
      <trkpt lat="39.6405650" lon="2.4676930">
        <ele>544.4</ele>
        <time>2020-01-03T11:17:43Z</time>
      </trkpt>
      <trkpt lat="39.6405730" lon="2.4677250">
        <ele>544.4</ele>
        <time>2020-01-03T11:17:46Z</time>
      </trkpt>
      <trkpt lat="39.6406240" lon="2.4677750">
        <ele>543.6</ele>
        <time>2020-01-03T11:17:53Z</time>
      </trkpt>
      <trkpt lat="39.6406570" lon="2.4677810">
        <ele>542.6</ele>
        <time>2020-01-03T11:17:58Z</time>
      </trkpt>
      <trkpt lat="39.6407040" lon="2.4677830">
        <ele>541.2</ele>
        <time>2020-01-03T11:18:03Z</time>
      </trkpt>
      <trkpt lat="39.6407470" lon="2.4678000">
        <ele>540.2</ele>
        <time>2020-01-03T11:18:09Z</time>
      </trkpt>
      <trkpt lat="39.6407840" lon="2.4678130">
        <ele>538.8</ele>
        <time>2020-01-03T11:18:14Z</time>
      </trkpt>
      <trkpt lat="39.6408090" lon="2.4678090">
        <ele>538.2</ele>
        <time>2020-01-03T11:18:16Z</time>
      </trkpt>
      <trkpt lat="39.6408290" lon="2.4678070">
        <ele>537.8</ele>
        <time>2020-01-03T11:18:18Z</time>
      </trkpt>
      <trkpt lat="39.6408370" lon="2.4678080">
        <ele>537.6</ele>
        <time>2020-01-03T11:18:19Z</time>
      </trkpt>
      <trkpt lat="39.6408640" lon="2.4678150">
        <ele>536.6</ele>
        <time>2020-01-03T11:18:23Z</time>
      </trkpt>
      <trkpt lat="39.6408880" lon="2.4678140">
        <ele>536.2</ele>
        <time>2020-01-03T11:18:25Z</time>
      </trkpt>
      <trkpt lat="39.6409190" lon="2.4678190">
        <ele>535.6</ele>
        <time>2020-01-03T11:18:28Z</time>
      </trkpt>
      <trkpt lat="39.6409570" lon="2.4678410">
        <ele>534.4</ele>
        <time>2020-01-03T11:18:33Z</time>
      </trkpt>
      <trkpt lat="39.6410010" lon="2.4678470">
        <ele>533.4</ele>
        <time>2020-01-03T11:18:38Z</time>
      </trkpt>
      <trkpt lat="39.6410500" lon="2.4678720">
        <ele>532.2</ele>
        <time>2020-01-03T11:18:44Z</time>
      </trkpt>
      <trkpt lat="39.6410930" lon="2.4679240">
        <ele>532.4</ele>
        <time>2020-01-03T11:18:51Z</time>
      </trkpt>
      <trkpt lat="39.6411130" lon="2.4679260">
        <ele>532.2</ele>
        <time>2020-01-03T11:18:53Z</time>
      </trkpt>
      <trkpt lat="39.6411400" lon="2.4679240">
        <ele>531.6</ele>
        <time>2020-01-03T11:18:55Z</time>
      </trkpt>
      <trkpt lat="39.6411480" lon="2.4679210">
        <ele>531.2</ele>
        <time>2020-01-03T11:18:56Z</time>
      </trkpt>
      <trkpt lat="39.6411630" lon="2.4679180">
        <ele>530.6</ele>
        <time>2020-01-03T11:18:58Z</time>
      </trkpt>
      <trkpt lat="39.6411910" lon="2.4679230">
        <ele>530.2</ele>
        <time>2020-01-03T11:19:01Z</time>
      </trkpt>
      <trkpt lat="39.6412320" lon="2.4679440">
        <ele>529.2</ele>
        <time>2020-01-03T11:19:06Z</time>
      </trkpt>
      <trkpt lat="39.6412670" lon="2.4679730">
        <ele>529.0</ele>
        <time>2020-01-03T11:19:11Z</time>
      </trkpt>
      <trkpt lat="39.6413060" lon="2.4679770">
        <ele>527.8</ele>
        <time>2020-01-03T11:19:16Z</time>
      </trkpt>
      <trkpt lat="39.6413210" lon="2.4679820">
        <ele>527.6</ele>
        <time>2020-01-03T11:19:18Z</time>
      </trkpt>
      <trkpt lat="39.6413560" lon="2.4680070">
        <ele>527.4</ele>
        <time>2020-01-03T11:19:23Z</time>
      </trkpt>
      <trkpt lat="39.6413660" lon="2.4680270">
        <ele>526.6</ele>
        <time>2020-01-03T11:19:25Z</time>
      </trkpt>
      <trkpt lat="39.6413690" lon="2.4680350">
        <ele>526.2</ele>
        <time>2020-01-03T11:19:26Z</time>
      </trkpt>
      <trkpt lat="39.6413960" lon="2.4680490">
        <ele>525.6</ele>
        <time>2020-01-03T11:19:32Z</time>
      </trkpt>
      <trkpt lat="39.6414420" lon="2.4680680">
        <ele>524.4</ele>
        <time>2020-01-03T11:19:38Z</time>
      </trkpt>
      <trkpt lat="39.6414700" lon="2.4680740">
        <ele>523.4</ele>
        <time>2020-01-03T11:19:41Z</time>
      </trkpt>
      <trkpt lat="39.6414890" lon="2.4680770">
        <ele>522.8</ele>
        <time>2020-01-03T11:19:43Z</time>
      </trkpt>
      <trkpt lat="39.6415130" lon="2.4680760">
        <ele>522.2</ele>
        <time>2020-01-03T11:19:46Z</time>
      </trkpt>
      <trkpt lat="39.6415450" lon="2.4680610">
        <ele>521.2</ele>
        <time>2020-01-03T11:19:50Z</time>
      </trkpt>
      <trkpt lat="39.6415530" lon="2.4680580">
        <ele>520.8</ele>
        <time>2020-01-03T11:19:51Z</time>
      </trkpt>
      <trkpt lat="39.6415720" lon="2.4680590">
        <ele>520.4</ele>
        <time>2020-01-03T11:19:53Z</time>
      </trkpt>
      <trkpt lat="39.6415810" lon="2.4680600">
        <ele>520.0</ele>
        <time>2020-01-03T11:19:54Z</time>
      </trkpt>
      <trkpt lat="39.6416030" lon="2.4681180">
        <ele>518.8</ele>
        <time>2020-01-03T11:20:01Z</time>
      </trkpt>
      <trkpt lat="39.6416120" lon="2.4681710">
        <ele>517.6</ele>
        <time>2020-01-03T11:20:06Z</time>
      </trkpt>
      <trkpt lat="39.6415930" lon="2.4682570">
        <ele>517.0</ele>
        <time>2020-01-03T11:20:14Z</time>
      </trkpt>
      <trkpt lat="39.6415970" lon="2.4682790">
        <ele>516.6</ele>
        <time>2020-01-03T11:20:16Z</time>
      </trkpt>
      <trkpt lat="39.6415980" lon="2.4683000">
        <ele>516.2</ele>
        <time>2020-01-03T11:20:18Z</time>
      </trkpt>
      <trkpt lat="39.6415730" lon="2.4684320">
        <ele>515.8</ele>
        <time>2020-01-03T11:20:28Z</time>
      </trkpt>
      <trkpt lat="39.6415720" lon="2.4685730">
        <ele>516.4</ele>
        <time>2020-01-03T11:20:39Z</time>
      </trkpt>
      <trkpt lat="39.6415660" lon="2.4685950">
        <ele>516.8</ele>
        <time>2020-01-03T11:20:41Z</time>
      </trkpt>
      <trkpt lat="39.6415590" lon="2.4686270">
        <ele>517.2</ele>
        <time>2020-01-03T11:20:44Z</time>
      </trkpt>
      <trkpt lat="39.6415530" lon="2.4686650">
        <ele>517.6</ele>
        <time>2020-01-03T11:20:48Z</time>
      </trkpt>
      <trkpt lat="39.6415880" lon="2.4687670">
        <ele>518.8</ele>
        <time>2020-01-03T11:27:47Z</time>
      </trkpt>
      <trkpt lat="39.6415720" lon="2.4688330">
        <ele>519.8</ele>
        <time>2020-01-03T11:27:56Z</time>
      </trkpt>
      <trkpt lat="39.6415540" lon="2.4688760">
        <ele>521.0</ele>
        <time>2020-01-03T11:28:02Z</time>
      </trkpt>
      <trkpt lat="39.6415280" lon="2.4689310">
        <ele>522.0</ele>
        <time>2020-01-03T11:28:10Z</time>
      </trkpt>
      <trkpt lat="39.6414750" lon="2.4690090">
        <ele>523.2</ele>
        <time>2020-01-03T11:28:19Z</time>
      </trkpt>
      <trkpt lat="39.6414610" lon="2.4690230">
        <ele>523.4</ele>
        <time>2020-01-03T11:28:21Z</time>
      </trkpt>
      <trkpt lat="39.6414330" lon="2.4690500">
        <ele>524.2</ele>
        <time>2020-01-03T11:28:25Z</time>
      </trkpt>
      <trkpt lat="39.6414170" lon="2.4690660">
        <ele>524.4</ele>
        <time>2020-01-03T11:28:27Z</time>
      </trkpt>
      <trkpt lat="39.6413700" lon="2.4691430">
        <ele>525.2</ele>
        <time>2020-01-03T11:28:34Z</time>
      </trkpt>
      <trkpt lat="39.6413270" lon="2.4692180">
        <ele>526.4</ele>
        <time>2020-01-03T11:28:42Z</time>
      </trkpt>
      <trkpt lat="39.6412510" lon="2.4693360">
        <ele>527.4</ele>
        <time>2020-01-03T11:28:54Z</time>
      </trkpt>
      <trkpt lat="39.6412080" lon="2.4694100">
        <ele>528.4</ele>
        <time>2020-01-03T11:29:01Z</time>
      </trkpt>
      <trkpt lat="39.6411870" lon="2.4694600">
        <ele>529.6</ele>
        <time>2020-01-03T11:29:07Z</time>
      </trkpt>
      <trkpt lat="39.6411540" lon="2.4695040">
        <ele>530.8</ele>
        <time>2020-01-03T11:29:13Z</time>
      </trkpt>
      <trkpt lat="39.6410490" lon="2.4696100">
        <ele>531.8</ele>
        <time>2020-01-03T11:29:25Z</time>
      </trkpt>
      <trkpt lat="39.6409490" lon="2.4696580">
        <ele>533.4</ele>
        <time>2020-01-03T11:29:33Z</time>
      </trkpt>
      <trkpt lat="39.6408670" lon="2.4698420">
        <ele>534.4</ele>
        <time>2020-01-03T11:29:47Z</time>
      </trkpt>
      <trkpt lat="39.6408690" lon="2.4699400">
        <ele>535.6</ele>
        <time>2020-01-03T11:29:55Z</time>
      </trkpt>
      <trkpt lat="39.6408860" lon="2.4700120">
        <ele>536.8</ele>
        <time>2020-01-03T11:30:03Z</time>
      </trkpt>
      <trkpt lat="39.6408840" lon="2.4700550">
        <ele>538.0</ele>
        <time>2020-01-03T11:30:08Z</time>
      </trkpt>
      <trkpt lat="39.6408590" lon="2.4701010">
        <ele>539.0</ele>
        <time>2020-01-03T11:30:13Z</time>
      </trkpt>
      <trkpt lat="39.6408390" lon="2.4701480">
        <ele>540.2</ele>
        <time>2020-01-03T11:30:18Z</time>
      </trkpt>
      <trkpt lat="39.6408090" lon="2.4702270">
        <ele>541.2</ele>
        <time>2020-01-03T11:30:24Z</time>
      </trkpt>
      <trkpt lat="39.6407870" lon="2.4703540">
        <ele>542.2</ele>
        <time>2020-01-03T11:30:32Z</time>
      </trkpt>
      <trkpt lat="39.6407640" lon="2.4704370">
        <ele>543.2</ele>
        <time>2020-01-03T11:30:39Z</time>
      </trkpt>
      <trkpt lat="39.6407450" lon="2.4705000">
        <ele>544.4</ele>
        <time>2020-01-03T11:30:45Z</time>
      </trkpt>
      <trkpt lat="39.6407190" lon="2.4706170">
        <ele>545.4</ele>
        <time>2020-01-03T11:30:53Z</time>
      </trkpt>
      <trkpt lat="39.6406950" lon="2.4707550">
        <ele>546.4</ele>
        <time>2020-01-03T11:31:03Z</time>
      </trkpt>
      <trkpt lat="39.6406440" lon="2.4708600">
        <ele>547.4</ele>
        <time>2020-01-03T11:31:12Z</time>
      </trkpt>
      <trkpt lat="39.6406330" lon="2.4708850">
        <ele>547.8</ele>
        <time>2020-01-03T11:31:14Z</time>
      </trkpt>
      <trkpt lat="39.6406150" lon="2.4709590">
        <ele>548.6</ele>
        <time>2020-01-03T11:31:20Z</time>
      </trkpt>
      <trkpt lat="39.6405890" lon="2.4710240">
        <ele>549.8</ele>
        <time>2020-01-03T11:31:26Z</time>
      </trkpt>
      <trkpt lat="39.6405690" lon="2.4710540">
        <ele>550.4</ele>
        <time>2020-01-03T11:31:29Z</time>
      </trkpt>
      <trkpt lat="39.6405560" lon="2.4710720">
        <ele>550.8</ele>
        <time>2020-01-03T11:31:31Z</time>
      </trkpt>
      <trkpt lat="39.6405300" lon="2.4711170">
        <ele>552.0</ele>
        <time>2020-01-03T11:31:36Z</time>
      </trkpt>
      <trkpt lat="39.6404960" lon="2.4711750">
        <ele>553.0</ele>
        <time>2020-01-03T11:31:41Z</time>
      </trkpt>
      <trkpt lat="39.6404640" lon="2.4712260">
        <ele>554.4</ele>
        <time>2020-01-03T11:31:47Z</time>
      </trkpt>
      <trkpt lat="39.6404490" lon="2.4712740">
        <ele>555.6</ele>
        <time>2020-01-03T11:31:52Z</time>
      </trkpt>
      <trkpt lat="39.6404320" lon="2.4713390">
        <ele>556.6</ele>
        <time>2020-01-03T11:31:57Z</time>
      </trkpt>
      <trkpt lat="39.6404210" lon="2.4713920">
        <ele>557.8</ele>
        <time>2020-01-03T11:32:02Z</time>
      </trkpt>
      <trkpt lat="39.6404250" lon="2.4714400">
        <ele>558.8</ele>
        <time>2020-01-03T11:32:07Z</time>
      </trkpt>
      <trkpt lat="39.6404590" lon="2.4715060">
        <ele>560.0</ele>
        <time>2020-01-03T11:32:15Z</time>
      </trkpt>
      <trkpt lat="39.6404800" lon="2.4715550">
        <ele>561.0</ele>
        <time>2020-01-03T11:32:21Z</time>
      </trkpt>
      <trkpt lat="39.6404950" lon="2.4715880">
        <ele>561.6</ele>
        <time>2020-01-03T11:32:24Z</time>
      </trkpt>
      <trkpt lat="39.6405030" lon="2.4716130">
        <ele>562.4</ele>
        <time>2020-01-03T11:32:27Z</time>
      </trkpt>
      <trkpt lat="39.6405110" lon="2.4716560">
        <ele>563.2</ele>
        <time>2020-01-03T11:32:31Z</time>
      </trkpt>
      <trkpt lat="39.6405160" lon="2.4716670">
        <ele>563.4</ele>
        <time>2020-01-03T11:32:32Z</time>
      </trkpt>
      <trkpt lat="39.6405520" lon="2.4717200">
        <ele>564.6</ele>
        <time>2020-01-03T11:32:38Z</time>
      </trkpt>
      <trkpt lat="39.6405650" lon="2.4717310">
        <ele>565.0</ele>
        <time>2020-01-03T11:32:39Z</time>
      </trkpt>
      <trkpt lat="39.6406060" lon="2.4717510">
        <ele>566.0</ele>
        <time>2020-01-03T11:32:43Z</time>
      </trkpt>
      <trkpt lat="39.6406370" lon="2.4717700">
        <ele>566.4</ele>
        <time>2020-01-03T11:32:46Z</time>
      </trkpt>
      <trkpt lat="39.6406480" lon="2.4717780">
        <ele>566.4</ele>
        <time>2020-01-03T11:32:47Z</time>
      </trkpt>
      <trkpt lat="39.6406890" lon="2.4718140">
        <ele>567.0</ele>
        <time>2020-01-03T11:32:51Z</time>
      </trkpt>
      <trkpt lat="39.6407760" lon="2.4719490">
        <ele>568.0</ele>
        <time>2020-01-03T11:33:04Z</time>
      </trkpt>
      <trkpt lat="39.6407800" lon="2.4719810">
        <ele>568.4</ele>
        <time>2020-01-03T11:33:07Z</time>
      </trkpt>
      <trkpt lat="39.6408050" lon="2.4720520">
        <ele>569.0</ele>
        <time>2020-01-03T11:33:14Z</time>
      </trkpt>
      <trkpt lat="39.6408030" lon="2.4720600">
        <ele>569.2</ele>
        <time>2020-01-03T11:33:15Z</time>
      </trkpt>
      <trkpt lat="39.6408280" lon="2.4720970">
        <ele>569.6</ele>
        <time>2020-01-03T11:33:19Z</time>
      </trkpt>
      <trkpt lat="39.6408380" lon="2.4721210">
        <ele>570.2</ele>
        <time>2020-01-03T11:33:21Z</time>
      </trkpt>
      <trkpt lat="39.6408600" lon="2.4721490">
        <ele>570.8</ele>
        <time>2020-01-03T11:33:24Z</time>
      </trkpt>
      <trkpt lat="39.6408940" lon="2.4722160">
        <ele>571.4</ele>
        <time>2020-01-03T11:33:32Z</time>
      </trkpt>
      <trkpt lat="39.6409510" lon="2.4723280">
        <ele>571.8</ele>
        <time>2020-01-03T11:33:43Z</time>
      </trkpt>
      <trkpt lat="39.6409670" lon="2.4723550">
        <ele>572.4</ele>
        <time>2020-01-03T11:33:47Z</time>
      </trkpt>
      <trkpt lat="39.6413280" lon="2.4722750">
        <ele>573.4</ele>
        <time>2020-01-03T11:34:21Z</time>
      </trkpt>
      <trkpt lat="39.6413630" lon="2.4722410">
        <ele>574.0</ele>
        <time>2020-01-03T11:34:25Z</time>
      </trkpt>
      <trkpt lat="39.6416560" lon="2.4719320">
        <ele>574.2</ele>
        <time>2020-01-03T11:34:59Z</time>
      </trkpt>
      <trkpt lat="39.6416840" lon="2.4719480">
        <ele>574.6</ele>
        <time>2020-01-03T11:35:02Z</time>
      </trkpt>
      <trkpt lat="39.6417300" lon="2.4720020">
        <ele>575.6</ele>
        <time>2020-01-03T11:35:09Z</time>
      </trkpt>
      <trkpt lat="39.6417420" lon="2.4720230">
        <ele>576.0</ele>
        <time>2020-01-03T11:35:11Z</time>
      </trkpt>
      <trkpt lat="39.6417810" lon="2.4720620">
        <ele>576.8</ele>
        <time>2020-01-03T11:35:16Z</time>
      </trkpt>
      <trkpt lat="39.6418590" lon="2.4721220">
        <ele>578.0</ele>
        <time>2020-01-03T11:35:24Z</time>
      </trkpt>
      <trkpt lat="39.6418740" lon="2.4721360">
        <ele>578.4</ele>
        <time>2020-01-03T11:35:26Z</time>
      </trkpt>
      <trkpt lat="39.6418970" lon="2.4721580">
        <ele>579.0</ele>
        <time>2020-01-03T11:35:29Z</time>
      </trkpt>
      <trkpt lat="39.6419040" lon="2.4721690">
        <ele>579.4</ele>
        <time>2020-01-03T11:35:30Z</time>
      </trkpt>
      <trkpt lat="39.6419540" lon="2.4722290">
        <ele>580.2</ele>
        <time>2020-01-03T11:35:36Z</time>
      </trkpt>
      <trkpt lat="39.6419740" lon="2.4722510">
        <ele>581.0</ele>
        <time>2020-01-03T11:35:39Z</time>
      </trkpt>
      <trkpt lat="39.6419840" lon="2.4722660">
        <ele>581.2</ele>
        <time>2020-01-03T11:35:41Z</time>
      </trkpt>
      <trkpt lat="39.6419970" lon="2.4722780">
        <ele>581.4</ele>
        <time>2020-01-03T11:35:43Z</time>
      </trkpt>
      <trkpt lat="39.6420320" lon="2.4722920">
        <ele>582.4</ele>
        <time>2020-01-03T11:35:47Z</time>
      </trkpt>
      <trkpt lat="39.6420400" lon="2.4722930">
        <ele>582.8</ele>
        <time>2020-01-03T11:35:48Z</time>
      </trkpt>
      <trkpt lat="39.6420530" lon="2.4723030">
        <ele>583.6</ele>
        <time>2020-01-03T11:35:50Z</time>
      </trkpt>
      <trkpt lat="39.6420610" lon="2.4723050">
        <ele>583.8</ele>
        <time>2020-01-03T11:35:51Z</time>
      </trkpt>
      <trkpt lat="39.6420770" lon="2.4723030">
        <ele>584.2</ele>
        <time>2020-01-03T11:35:53Z</time>
      </trkpt>
      <trkpt lat="39.6420900" lon="2.4723040">
        <ele>585.0</ele>
        <time>2020-01-03T11:35:55Z</time>
      </trkpt>
      <trkpt lat="39.6421400" lon="2.4722980">
        <ele>586.2</ele>
        <time>2020-01-03T11:36:02Z</time>
      </trkpt>
      <trkpt lat="39.6421850" lon="2.4722720">
        <ele>587.4</ele>
        <time>2020-01-03T11:36:08Z</time>
      </trkpt>
      <trkpt lat="39.6422180" lon="2.4722520">
        <ele>588.4</ele>
        <time>2020-01-03T11:36:12Z</time>
      </trkpt>
      <trkpt lat="39.6422530" lon="2.4722330">
        <ele>589.4</ele>
        <time>2020-01-03T11:36:16Z</time>
      </trkpt>
      <trkpt lat="39.6422680" lon="2.4722330">
        <ele>590.0</ele>
        <time>2020-01-03T11:36:18Z</time>
      </trkpt>
      <trkpt lat="39.6423010" lon="2.4722190">
        <ele>590.8</ele>
        <time>2020-01-03T11:36:22Z</time>
      </trkpt>
      <trkpt lat="39.6423230" lon="2.4722130">
        <ele>592.0</ele>
        <time>2020-01-03T11:36:25Z</time>
      </trkpt>
      <trkpt lat="39.6423440" lon="2.4722560">
        <ele>593.0</ele>
        <time>2020-01-03T11:36:33Z</time>
      </trkpt>
      <trkpt lat="39.6423500" lon="2.4723170">
        <ele>594.2</ele>
        <time>2020-01-03T11:36:39Z</time>
      </trkpt>
      <trkpt lat="39.6423570" lon="2.4723570">
        <ele>595.2</ele>
        <time>2020-01-03T11:36:43Z</time>
      </trkpt>
      <trkpt lat="39.6423710" lon="2.4723750">
        <ele>596.4</ele>
        <time>2020-01-03T11:36:47Z</time>
      </trkpt>
      <trkpt lat="39.6424030" lon="2.4723700">
        <ele>597.6</ele>
        <time>2020-01-03T11:36:52Z</time>
      </trkpt>
      <trkpt lat="39.6424560" lon="2.4723510">
        <ele>598.6</ele>
        <time>2020-01-03T11:36:59Z</time>
      </trkpt>
      <trkpt lat="39.6424940" lon="2.4723660">
        <ele>599.6</ele>
        <time>2020-01-03T11:37:04Z</time>
      </trkpt>
      <trkpt lat="39.6425220" lon="2.4723860">
        <ele>601.0</ele>
        <time>2020-01-03T11:37:08Z</time>
      </trkpt>
      <trkpt lat="39.6425520" lon="2.4724190">
        <ele>602.0</ele>
        <time>2020-01-03T11:37:13Z</time>
      </trkpt>
      <trkpt lat="39.6425810" lon="2.4724690">
        <ele>603.0</ele>
        <time>2020-01-03T11:37:20Z</time>
      </trkpt>
      <trkpt lat="39.6426060" lon="2.4725060">
        <ele>604.0</ele>
        <time>2020-01-03T11:37:24Z</time>
      </trkpt>
      <trkpt lat="39.6426070" lon="2.4725150">
        <ele>604.2</ele>
        <time>2020-01-03T11:37:25Z</time>
      </trkpt>
      <trkpt lat="39.6426060" lon="2.4725280">
        <ele>604.6</ele>
        <time>2020-01-03T11:37:26Z</time>
      </trkpt>
      <trkpt lat="39.6426230" lon="2.4725700">
        <ele>605.0</ele>
        <time>2020-01-03T11:37:30Z</time>
      </trkpt>
      <trkpt lat="39.6426310" lon="2.4725910">
        <ele>605.2</ele>
        <time>2020-01-03T11:37:32Z</time>
      </trkpt>
      <trkpt lat="39.6426450" lon="2.4726250">
        <ele>605.8</ele>
        <time>2020-01-03T11:37:35Z</time>
      </trkpt>
      <trkpt lat="39.6426690" lon="2.4726730">
        <ele>606.4</ele>
        <time>2020-01-03T11:37:39Z</time>
      </trkpt>
      <trkpt lat="39.6426670" lon="2.4727500">
        <ele>607.2</ele>
        <time>2020-01-03T11:37:45Z</time>
      </trkpt>
      <trkpt lat="39.6426600" lon="2.4727750">
        <ele>607.6</ele>
        <time>2020-01-03T11:37:47Z</time>
      </trkpt>
      <trkpt lat="39.6426180" lon="2.4728670">
        <ele>608.6</ele>
        <time>2020-01-03T11:37:55Z</time>
      </trkpt>
      <trkpt lat="39.6425160" lon="2.4729080">
        <ele>609.6</ele>
        <time>2020-01-03T11:38:05Z</time>
      </trkpt>
      <trkpt lat="39.6424150" lon="2.4729440">
        <ele>610.0</ele>
        <time>2020-01-03T11:38:16Z</time>
      </trkpt>
      <trkpt lat="39.6424060" lon="2.4729340">
        <ele>610.0</ele>
        <time>2020-01-03T11:38:18Z</time>
      </trkpt>
      <trkpt lat="39.6424060" lon="2.4729320">
        <ele>611.0</ele>
        <time>2020-01-03T11:38:20Z</time>
      </trkpt>
      <trkpt lat="39.6422970" lon="2.4730390">
        <ele>611.0</ele>
        <time>2020-01-03T11:39:08Z</time>
      </trkpt>
      <trkpt lat="39.6422890" lon="2.4730630">
        <ele>611.2</ele>
        <time>2020-01-03T11:39:10Z</time>
      </trkpt>
      <trkpt lat="39.6422750" lon="2.4731160">
        <ele>612.0</ele>
        <time>2020-01-03T11:39:14Z</time>
      </trkpt>
      <trkpt lat="39.6421810" lon="2.4733850">
        <ele>613.2</ele>
        <time>2020-01-03T11:39:34Z</time>
      </trkpt>
      <trkpt lat="39.6420670" lon="2.4737010">
        <ele>612.0</ele>
        <time>2020-01-03T11:39:59Z</time>
      </trkpt>
      <trkpt lat="39.6420770" lon="2.4741730">
        <ele>611.4</ele>
        <time>2020-01-03T11:40:33Z</time>
      </trkpt>
      <trkpt lat="39.6420770" lon="2.4742070">
        <ele>611.0</ele>
        <time>2020-01-03T11:40:36Z</time>
      </trkpt>
      <trkpt lat="39.6420710" lon="2.4742770">
        <ele>610.2</ele>
        <time>2020-01-03T11:40:41Z</time>
      </trkpt>
      <trkpt lat="39.6420530" lon="2.4742970">
        <ele>610.0</ele>
        <time>2020-01-03T11:40:43Z</time>
      </trkpt>
      <trkpt lat="39.6420470" lon="2.4743070">
        <ele>610.0</ele>
        <time>2020-01-03T11:40:44Z</time>
      </trkpt>
      <trkpt lat="39.6419990" lon="2.4743670">
        <ele>609.0</ele>
        <time>2020-01-03T11:40:50Z</time>
      </trkpt>
      <trkpt lat="39.6418970" lon="2.4745960">
        <ele>608.8</ele>
        <time>2020-01-03T11:41:09Z</time>
      </trkpt>
      <trkpt lat="39.6417220" lon="2.4749200">
        <ele>608.2</ele>
        <time>2020-01-03T11:41:37Z</time>
      </trkpt>
      <trkpt lat="39.6417270" lon="2.4749500">
        <ele>608.4</ele>
        <time>2020-01-03T11:41:39Z</time>
      </trkpt>
      <trkpt lat="39.6417350" lon="2.4750370">
        <ele>608.0</ele>
        <time>2020-01-03T11:41:45Z</time>
      </trkpt>
      <trkpt lat="39.6417240" lon="2.4751810">
        <ele>608.8</ele>
        <time>2020-01-03T11:41:56Z</time>
      </trkpt>
      <trkpt lat="39.6417200" lon="2.4751910">
        <ele>609.2</ele>
        <time>2020-01-03T11:41:57Z</time>
      </trkpt>
      <trkpt lat="39.6417150" lon="2.4751970">
        <ele>609.4</ele>
        <time>2020-01-03T11:41:58Z</time>
      </trkpt>
      <trkpt lat="39.6416800" lon="2.4752600">
        <ele>610.2</ele>
        <time>2020-01-03T11:42:06Z</time>
      </trkpt>
      <trkpt lat="39.6416050" lon="2.4754130">
        <ele>611.4</ele>
        <time>2020-01-03T11:42:19Z</time>
      </trkpt>
      <trkpt lat="39.6415860" lon="2.4754520">
        <ele>612.0</ele>
        <time>2020-01-03T11:42:22Z</time>
      </trkpt>
      <trkpt lat="39.6415760" lon="2.4754650">
        <ele>612.8</ele>
        <time>2020-01-03T11:42:23Z</time>
      </trkpt>
      <trkpt lat="39.6415530" lon="2.4754850">
        <ele>612.0</ele>
        <time>2020-01-03T11:42:25Z</time>
      </trkpt>
      <trkpt lat="39.6415400" lon="2.4755010">
        <ele>611.8</ele>
        <time>2020-01-03T11:42:27Z</time>
      </trkpt>
      <trkpt lat="39.6414600" lon="2.4755660">
        <ele>610.6</ele>
        <time>2020-01-03T11:42:36Z</time>
      </trkpt>
      <trkpt lat="39.6413760" lon="2.4756470">
        <ele>610.0</ele>
        <time>2020-01-03T11:42:46Z</time>
      </trkpt>
      <trkpt lat="39.6413630" lon="2.4756630">
        <ele>609.6</ele>
        <time>2020-01-03T11:42:48Z</time>
      </trkpt>
      <trkpt lat="39.6412990" lon="2.4757330">
        <ele>608.6</ele>
        <time>2020-01-03T11:42:55Z</time>
      </trkpt>
      <trkpt lat="39.6412840" lon="2.4757410">
        <ele>608.6</ele>
        <time>2020-01-03T11:42:56Z</time>
      </trkpt>
      <trkpt lat="39.6412710" lon="2.4757440">
        <ele>608.4</ele>
        <time>2020-01-03T11:42:57Z</time>
      </trkpt>
      <trkpt lat="39.6411680" lon="2.4757640">
        <ele>609.6</ele>
        <time>2020-01-03T11:43:06Z</time>
      </trkpt>
      <trkpt lat="39.6407250" lon="2.4758070">
        <ele>610.0</ele>
        <time>2020-01-03T11:43:45Z</time>
      </trkpt>
      <trkpt lat="39.6405500" lon="2.4757490">
        <ele>610.4</ele>
        <time>2020-01-03T11:44:02Z</time>
      </trkpt>
      <trkpt lat="39.6405150" lon="2.4757480">
        <ele>610.8</ele>
        <time>2020-01-03T11:44:05Z</time>
      </trkpt>
      <trkpt lat="39.6404670" lon="2.4757500">
        <ele>610.4</ele>
        <time>2020-01-03T11:44:09Z</time>
      </trkpt>
      <trkpt lat="39.6403830" lon="2.4757520">
        <ele>610.0</ele>
        <time>2020-01-03T11:44:16Z</time>
      </trkpt>
      <trkpt lat="39.6401970" lon="2.4757260">
        <ele>609.8</ele>
        <time>2020-01-03T11:44:33Z</time>
      </trkpt>
      <trkpt lat="39.6401540" lon="2.4757550">
        <ele>609.6</ele>
        <time>2020-01-03T11:44:37Z</time>
      </trkpt>
      <trkpt lat="39.6401330" lon="2.4757510">
        <ele>609.6</ele>
        <time>2020-01-03T11:44:39Z</time>
      </trkpt>
      <trkpt lat="39.6400440" lon="2.4758480">
        <ele>609.2</ele>
        <time>2020-01-03T11:44:52Z</time>
      </trkpt>
      <trkpt lat="39.6399610" lon="2.4759280">
        <ele>609.0</ele>
        <time>2020-01-03T11:45:02Z</time>
      </trkpt>
      <trkpt lat="39.6399370" lon="2.4759530">
        <ele>609.0</ele>
        <time>2020-01-03T11:45:05Z</time>
      </trkpt>
      <trkpt lat="39.6399240" lon="2.4759580">
        <ele>609.0</ele>
        <time>2020-01-03T11:45:07Z</time>
      </trkpt>
      <trkpt lat="39.6399120" lon="2.4759650">
        <ele>608.8</ele>
        <time>2020-01-03T11:45:09Z</time>
      </trkpt>
      <trkpt lat="39.6397780" lon="2.4760580">
        <ele>607.8</ele>
        <time>2020-01-03T11:45:57Z</time>
      </trkpt>
      <trkpt lat="39.6397670" lon="2.4760710">
        <ele>607.6</ele>
        <time>2020-01-03T11:45:59Z</time>
      </trkpt>
      <trkpt lat="39.6397410" lon="2.4760970">
        <ele>607.4</ele>
        <time>2020-01-03T11:46:03Z</time>
      </trkpt>
      <trkpt lat="39.6396760" lon="2.4761990">
        <ele>606.6</ele>
        <time>2020-01-03T11:46:15Z</time>
      </trkpt>
      <trkpt lat="39.6396700" lon="2.4762530">
        <ele>605.4</ele>
        <time>2020-01-03T11:46:20Z</time>
      </trkpt>
      <trkpt lat="39.6396530" lon="2.4763230">
        <ele>604.4</ele>
        <time>2020-01-03T11:46:27Z</time>
      </trkpt>
      <trkpt lat="39.6396450" lon="2.4763700">
        <ele>603.4</ele>
        <time>2020-01-03T11:46:32Z</time>
      </trkpt>
      <trkpt lat="39.6396480" lon="2.4764270">
        <ele>602.4</ele>
        <time>2020-01-03T11:46:38Z</time>
      </trkpt>
      <trkpt lat="39.6395770" lon="2.4765110">
        <ele>602.4</ele>
        <time>2020-01-03T11:46:50Z</time>
      </trkpt>
      <trkpt lat="39.6395780" lon="2.4766170">
        <ele>603.6</ele>
        <time>2020-01-03T11:47:00Z</time>
      </trkpt>
      <trkpt lat="39.6395780" lon="2.4766250">
        <ele>603.8</ele>
        <time>2020-01-03T11:47:01Z</time>
      </trkpt>
      <trkpt lat="39.6395710" lon="2.4766890">
        <ele>604.6</ele>
        <time>2020-01-03T11:47:07Z</time>
      </trkpt>
      <trkpt lat="39.6395690" lon="2.4766990">
        <ele>604.6</ele>
        <time>2020-01-03T11:47:08Z</time>
      </trkpt>
      <trkpt lat="39.6395990" lon="2.4770680">
        <ele>603.4</ele>
        <time>2020-01-03T11:47:40Z</time>
      </trkpt>
      <trkpt lat="39.6396050" lon="2.4771780">
        <ele>604.6</ele>
        <time>2020-01-03T11:47:50Z</time>
      </trkpt>
      <trkpt lat="39.6396090" lon="2.4772450">
        <ele>605.6</ele>
        <time>2020-01-03T11:47:56Z</time>
      </trkpt>
      <trkpt lat="39.6396340" lon="2.4774700">
        <ele>606.6</ele>
        <time>2020-01-03T11:48:13Z</time>
      </trkpt>
      <trkpt lat="39.6396670" lon="2.4775360">
        <ele>606.6</ele>
        <time>2020-01-03T11:48:19Z</time>
      </trkpt>
      <trkpt lat="39.6396890" lon="2.4775800">
        <ele>606.8</ele>
        <time>2020-01-03T11:48:23Z</time>
      </trkpt>
      <trkpt lat="39.6397010" lon="2.4776000">
        <ele>607.0</ele>
        <time>2020-01-03T11:48:25Z</time>
      </trkpt>
      <trkpt lat="39.6397070" lon="2.4776210">
        <ele>607.2</ele>
        <time>2020-01-03T11:48:27Z</time>
      </trkpt>
      <trkpt lat="39.6397240" lon="2.4777160">
        <ele>607.6</ele>
        <time>2020-01-03T11:48:35Z</time>
      </trkpt>
      <trkpt lat="39.6397560" lon="2.4777940">
        <ele>607.8</ele>
        <time>2020-01-03T11:48:41Z</time>
      </trkpt>
      <trkpt lat="39.6397940" lon="2.4778370">
        <ele>607.4</ele>
        <time>2020-01-03T11:48:45Z</time>
      </trkpt>
      <trkpt lat="39.6398910" lon="2.4781390">
        <ele>608.8</ele>
        <time>2020-01-03T11:49:10Z</time>
      </trkpt>
      <trkpt lat="39.6399180" lon="2.4782200">
        <ele>609.8</ele>
        <time>2020-01-03T11:49:16Z</time>
      </trkpt>
      <trkpt lat="39.6399510" lon="2.4783980">
        <ele>609.6</ele>
        <time>2020-01-03T11:49:30Z</time>
      </trkpt>
      <trkpt lat="39.6399570" lon="2.4784150">
        <ele>610.0</ele>
        <time>2020-01-03T11:49:32Z</time>
      </trkpt>
      <trkpt lat="39.6399700" lon="2.4785870">
        <ele>608.8</ele>
        <time>2020-01-03T11:49:46Z</time>
      </trkpt>
      <trkpt lat="39.6399250" lon="2.4787920">
        <ele>609.2</ele>
        <time>2020-01-03T11:50:03Z</time>
      </trkpt>
      <trkpt lat="39.6399040" lon="2.4788620">
        <ele>609.2</ele>
        <time>2020-01-03T11:50:08Z</time>
      </trkpt>
      <trkpt lat="39.6398630" lon="2.4790060">
        <ele>609.2</ele>
        <time>2020-01-03T11:50:19Z</time>
      </trkpt>
      <trkpt lat="39.6398620" lon="2.4790690">
        <ele>610.0</ele>
        <time>2020-01-03T11:50:28Z</time>
      </trkpt>
      <trkpt lat="39.6398450" lon="2.4791190">
        <ele>611.0</ele>
        <time>2020-01-03T11:50:33Z</time>
      </trkpt>
      <trkpt lat="39.6398460" lon="2.4791280">
        <ele>611.2</ele>
        <time>2020-01-03T11:50:34Z</time>
      </trkpt>
      <trkpt lat="39.6398600" lon="2.4792010">
        <ele>612.2</ele>
        <time>2020-01-03T11:50:42Z</time>
      </trkpt>
      <trkpt lat="39.6398770" lon="2.4792600">
        <ele>613.4</ele>
        <time>2020-01-03T11:50:48Z</time>
      </trkpt>
      <trkpt lat="39.6398750" lon="2.4793000">
        <ele>614.4</ele>
        <time>2020-01-03T11:50:52Z</time>
      </trkpt>
      <trkpt lat="39.6398710" lon="2.4793360">
        <ele>615.4</ele>
        <time>2020-01-03T11:50:56Z</time>
      </trkpt>
      <trkpt lat="39.6398440" lon="2.4793580">
        <ele>616.6</ele>
        <time>2020-01-03T11:51:02Z</time>
      </trkpt>
      <trkpt lat="39.6398310" lon="2.4793700">
        <ele>617.8</ele>
        <time>2020-01-03T11:51:06Z</time>
      </trkpt>
      <trkpt lat="39.6398370" lon="2.4794380">
        <ele>618.8</ele>
        <time>2020-01-03T11:51:13Z</time>
      </trkpt>
      <trkpt lat="39.6398540" lon="2.4795430">
        <ele>620.0</ele>
        <time>2020-01-03T11:51:23Z</time>
      </trkpt>
      <trkpt lat="39.6398620" lon="2.4796210">
        <ele>621.2</ele>
        <time>2020-01-03T11:51:30Z</time>
      </trkpt>
      <trkpt lat="39.6398640" lon="2.4796320">
        <ele>621.2</ele>
        <time>2020-01-03T11:51:31Z</time>
      </trkpt>
      <trkpt lat="39.6398660" lon="2.4796720">
        <ele>621.8</ele>
        <time>2020-01-03T11:51:34Z</time>
      </trkpt>
      <trkpt lat="39.6398600" lon="2.4796890">
        <ele>622.2</ele>
        <time>2020-01-03T11:51:36Z</time>
      </trkpt>
      <trkpt lat="39.6398570" lon="2.4797340">
        <ele>623.2</ele>
        <time>2020-01-03T11:51:41Z</time>
      </trkpt>
      <trkpt lat="39.6398620" lon="2.4797900">
        <ele>624.2</ele>
        <time>2020-01-03T11:51:47Z</time>
      </trkpt>
      <trkpt lat="39.6398840" lon="2.4798800">
        <ele>625.4</ele>
        <time>2020-01-03T11:51:55Z</time>
      </trkpt>
      <trkpt lat="39.6398890" lon="2.4799260">
        <ele>626.0</ele>
        <time>2020-01-03T11:51:59Z</time>
      </trkpt>
      <trkpt lat="39.6398880" lon="2.4799430">
        <ele>626.4</ele>
        <time>2020-01-03T11:52:01Z</time>
      </trkpt>
      <trkpt lat="39.6398820" lon="2.4799890">
        <ele>627.4</ele>
        <time>2020-01-03T11:52:06Z</time>
      </trkpt>
      <trkpt lat="39.6399080" lon="2.4800560">
        <ele>628.6</ele>
        <time>2020-01-03T11:52:14Z</time>
      </trkpt>
      <trkpt lat="39.6399520" lon="2.4800420">
        <ele>629.8</ele>
        <time>2020-01-03T11:52:20Z</time>
      </trkpt>
      <trkpt lat="39.6399680" lon="2.4800310">
        <ele>630.0</ele>
        <time>2020-01-03T11:52:22Z</time>
      </trkpt>
      <trkpt lat="39.6399840" lon="2.4800240">
        <ele>630.4</ele>
        <time>2020-01-03T11:52:24Z</time>
      </trkpt>
      <trkpt lat="39.6399990" lon="2.4800280">
        <ele>630.8</ele>
        <time>2020-01-03T11:52:27Z</time>
      </trkpt>
      <trkpt lat="39.6399340" lon="2.4801440">
        <ele>632.0</ele>
        <time>2020-01-03T11:52:40Z</time>
      </trkpt>
      <trkpt lat="39.6399010" lon="2.4801860">
        <ele>633.2</ele>
        <time>2020-01-03T11:52:46Z</time>
      </trkpt>
      <trkpt lat="39.6399010" lon="2.4801960">
        <ele>633.4</ele>
        <time>2020-01-03T11:52:47Z</time>
      </trkpt>
      <trkpt lat="39.6399110" lon="2.4802180">
        <ele>634.2</ele>
        <time>2020-01-03T11:52:50Z</time>
      </trkpt>
      <trkpt lat="39.6399380" lon="2.4802240">
        <ele>635.2</ele>
        <time>2020-01-03T11:52:55Z</time>
      </trkpt>
      <trkpt lat="39.6399440" lon="2.4802650">
        <ele>636.4</ele>
        <time>2020-01-03T11:53:03Z</time>
      </trkpt>
      <trkpt lat="39.6399130" lon="2.4803400">
        <ele>637.4</ele>
        <time>2020-01-03T11:53:11Z</time>
      </trkpt>
      <trkpt lat="39.6398660" lon="2.4803960">
        <ele>638.4</ele>
        <time>2020-01-03T11:53:18Z</time>
      </trkpt>
      <trkpt lat="39.6398390" lon="2.4804530">
        <ele>639.6</ele>
        <time>2020-01-03T11:53:24Z</time>
      </trkpt>
      <trkpt lat="39.6398310" lon="2.4805050">
        <ele>640.8</ele>
        <time>2020-01-03T11:53:30Z</time>
      </trkpt>
      <trkpt lat="39.6398190" lon="2.4805410">
        <ele>642.0</ele>
        <time>2020-01-03T11:53:36Z</time>
      </trkpt>
      <trkpt lat="39.6398020" lon="2.4805650">
        <ele>643.2</ele>
        <time>2020-01-03T11:53:41Z</time>
      </trkpt>
      <trkpt lat="39.6397670" lon="2.4805690">
        <ele>644.2</ele>
        <time>2020-01-03T11:53:46Z</time>
      </trkpt>
      <trkpt lat="39.6397630" lon="2.4806100">
        <ele>645.4</ele>
        <time>2020-01-03T11:53:51Z</time>
      </trkpt>
      <trkpt lat="39.6397790" lon="2.4806950">
        <ele>646.4</ele>
        <time>2020-01-03T11:53:59Z</time>
      </trkpt>
      <trkpt lat="39.6397730" lon="2.4807330">
        <ele>647.8</ele>
        <time>2020-01-03T11:54:03Z</time>
      </trkpt>
      <trkpt lat="39.6397680" lon="2.4807690">
        <ele>648.8</ele>
        <time>2020-01-03T11:54:07Z</time>
      </trkpt>
      <trkpt lat="39.6397540" lon="2.4808110">
        <ele>649.8</ele>
        <time>2020-01-03T11:54:12Z</time>
      </trkpt>
      <trkpt lat="39.6397360" lon="2.4808660">
        <ele>651.0</ele>
        <time>2020-01-03T11:54:18Z</time>
      </trkpt>
      <trkpt lat="39.6397320" lon="2.4809130">
        <ele>652.2</ele>
        <time>2020-01-03T11:54:23Z</time>
      </trkpt>
      <trkpt lat="39.6397360" lon="2.4809640">
        <ele>653.2</ele>
        <time>2020-01-03T11:54:28Z</time>
      </trkpt>
      <trkpt lat="39.6397400" lon="2.4810310">
        <ele>654.6</ele>
        <time>2020-01-03T11:54:35Z</time>
      </trkpt>
      <trkpt lat="39.6397180" lon="2.4810670">
        <ele>654.8</ele>
        <time>2020-01-03T11:54:39Z</time>
      </trkpt>
      <trkpt lat="39.6397010" lon="2.4810920">
        <ele>655.8</ele>
        <time>2020-01-03T11:54:43Z</time>
      </trkpt>
      <trkpt lat="39.6396920" lon="2.4811280">
        <ele>657.0</ele>
        <time>2020-01-03T11:54:48Z</time>
      </trkpt>
      <trkpt lat="39.6396870" lon="2.4811710">
        <ele>658.4</ele>
        <time>2020-01-03T11:54:53Z</time>
      </trkpt>
      <trkpt lat="39.6396790" lon="2.4812240">
        <ele>659.4</ele>
        <time>2020-01-03T11:54:58Z</time>
      </trkpt>
      <trkpt lat="39.6396460" lon="2.4812950">
        <ele>660.6</ele>
        <time>2020-01-03T11:55:05Z</time>
      </trkpt>
      <trkpt lat="39.6396050" lon="2.4813190">
        <ele>661.6</ele>
        <time>2020-01-03T11:55:10Z</time>
      </trkpt>
      <trkpt lat="39.6396010" lon="2.4813260">
        <ele>661.8</ele>
        <time>2020-01-03T11:55:11Z</time>
      </trkpt>
      <trkpt lat="39.6395980" lon="2.4813660">
        <ele>662.6</ele>
        <time>2020-01-03T11:55:15Z</time>
      </trkpt>
      <trkpt lat="39.6396010" lon="2.4814330">
        <ele>663.8</ele>
        <time>2020-01-03T11:55:21Z</time>
      </trkpt>
      <trkpt lat="39.6395740" lon="2.4814850">
        <ele>664.8</ele>
        <time>2020-01-03T11:55:27Z</time>
      </trkpt>
      <trkpt lat="39.6395700" lon="2.4815490">
        <ele>666.0</ele>
        <time>2020-01-03T11:55:33Z</time>
      </trkpt>
      <trkpt lat="39.6395530" lon="2.4815600">
        <ele>666.4</ele>
        <time>2020-01-03T11:55:35Z</time>
      </trkpt>
      <trkpt lat="39.6395210" lon="2.4815580">
        <ele>667.0</ele>
        <time>2020-01-03T11:55:39Z</time>
      </trkpt>
      <trkpt lat="39.6394980" lon="2.4815740">
        <ele>667.8</ele>
        <time>2020-01-03T11:55:42Z</time>
      </trkpt>
      <trkpt lat="39.6394860" lon="2.4815850">
        <ele>668.2</ele>
        <time>2020-01-03T11:55:44Z</time>
      </trkpt>
      <trkpt lat="39.6394480" lon="2.4815990">
        <ele>669.2</ele>
        <time>2020-01-03T11:55:49Z</time>
      </trkpt>
      <trkpt lat="39.6394260" lon="2.4816420">
        <ele>670.4</ele>
        <time>2020-01-03T11:55:55Z</time>
      </trkpt>
      <trkpt lat="39.6393900" lon="2.4816360">
        <ele>671.4</ele>
        <time>2020-01-03T11:56:02Z</time>
      </trkpt>
      <trkpt lat="39.6393930" lon="2.4817200">
        <ele>672.8</ele>
        <time>2020-01-03T11:56:09Z</time>
      </trkpt>
      <trkpt lat="39.6393970" lon="2.4817410">
        <ele>673.0</ele>
        <time>2020-01-03T11:56:11Z</time>
      </trkpt>
      <trkpt lat="39.6394070" lon="2.4817710">
        <ele>672.6</ele>
        <time>2020-01-03T11:56:14Z</time>
      </trkpt>
      <trkpt lat="39.6394700" lon="2.4818980">
        <ele>673.6</ele>
        <time>2020-01-03T11:56:26Z</time>
      </trkpt>
      <trkpt lat="39.6394780" lon="2.4819070">
        <ele>673.8</ele>
        <time>2020-01-03T11:56:27Z</time>
      </trkpt>
      <trkpt lat="39.6394980" lon="2.4819270">
        <ele>674.0</ele>
        <time>2020-01-03T11:56:30Z</time>
      </trkpt>
      <trkpt lat="39.6395120" lon="2.4819360">
        <ele>674.0</ele>
        <time>2020-01-03T11:56:32Z</time>
      </trkpt>
      <trkpt lat="39.6395360" lon="2.4820070">
        <ele>675.0</ele>
        <time>2020-01-03T11:56:38Z</time>
      </trkpt>
      <trkpt lat="39.6395570" lon="2.4820360">
        <ele>676.2</ele>
        <time>2020-01-03T11:56:44Z</time>
      </trkpt>
      <trkpt lat="39.6395850" lon="2.4821050">
        <ele>677.2</ele>
        <time>2020-01-03T11:56:52Z</time>
      </trkpt>
      <trkpt lat="39.6395880" lon="2.4821130">
        <ele>677.4</ele>
        <time>2020-01-03T11:56:53Z</time>
      </trkpt>
      <trkpt lat="39.6396100" lon="2.4821630">
        <ele>678.2</ele>
        <time>2020-01-03T11:56:58Z</time>
      </trkpt>
      <trkpt lat="39.6396210" lon="2.4822170">
        <ele>679.4</ele>
        <time>2020-01-03T11:57:03Z</time>
      </trkpt>
      <trkpt lat="39.6396450" lon="2.4822660">
        <ele>680.4</ele>
        <time>2020-01-03T11:57:08Z</time>
      </trkpt>
      <trkpt lat="39.6396510" lon="2.4822760">
        <ele>680.8</ele>
        <time>2020-01-03T11:57:09Z</time>
      </trkpt>
      <trkpt lat="39.6396660" lon="2.4823120">
        <ele>680.8</ele>
        <time>2020-01-03T11:57:12Z</time>
      </trkpt>
      <trkpt lat="39.6396650" lon="2.4823570">
        <ele>681.4</ele>
        <time>2020-01-03T11:57:16Z</time>
      </trkpt>
      <trkpt lat="39.6396780" lon="2.4824330">
        <ele>682.6</ele>
        <time>2020-01-03T11:57:23Z</time>
      </trkpt>
      <trkpt lat="39.6396810" lon="2.4824430">
        <ele>682.8</ele>
        <time>2020-01-03T11:57:24Z</time>
      </trkpt>
      <trkpt lat="39.6397070" lon="2.4825110">
        <ele>683.2</ele>
        <time>2020-01-03T11:57:30Z</time>
      </trkpt>
      <trkpt lat="39.6397060" lon="2.4825630">
        <ele>683.8</ele>
        <time>2020-01-03T11:57:35Z</time>
      </trkpt>
      <trkpt lat="39.6397010" lon="2.4825790">
        <ele>684.4</ele>
        <time>2020-01-03T11:57:37Z</time>
      </trkpt>
      <trkpt lat="39.6397010" lon="2.4825840">
        <ele>684.8</ele>
        <time>2020-01-03T11:57:38Z</time>
      </trkpt>
      <trkpt lat="39.6397100" lon="2.4826650">
        <ele>685.8</ele>
        <time>2020-01-03T11:57:45Z</time>
      </trkpt>
      <trkpt lat="39.6397080" lon="2.4826780">
        <ele>686.0</ele>
        <time>2020-01-03T11:57:46Z</time>
      </trkpt>
      <trkpt lat="39.6397010" lon="2.4826960">
        <ele>686.2</ele>
        <time>2020-01-03T11:57:48Z</time>
      </trkpt>
      <trkpt lat="39.6396830" lon="2.4826880">
        <ele>686.8</ele>
        <time>2020-01-03T11:57:51Z</time>
      </trkpt>
      <trkpt lat="39.6396560" lon="2.4826700">
        <ele>688.0</ele>
        <time>2020-01-03T11:57:56Z</time>
      </trkpt>
      <trkpt lat="39.6396350" lon="2.4826480">
        <ele>689.0</ele>
        <time>2020-01-03T11:58:01Z</time>
      </trkpt>
      <trkpt lat="39.6396090" lon="2.4826120">
        <ele>690.2</ele>
        <time>2020-01-03T11:58:07Z</time>
      </trkpt>
      <trkpt lat="39.6395760" lon="2.4826080">
        <ele>691.4</ele>
        <time>2020-01-03T11:58:17Z</time>
      </trkpt>
      <trkpt lat="39.6395500" lon="2.4825970">
        <ele>692.6</ele>
        <time>2020-01-03T11:58:22Z</time>
      </trkpt>
      <trkpt lat="39.6395320" lon="2.4826140">
        <ele>693.8</ele>
        <time>2020-01-03T11:58:26Z</time>
      </trkpt>
      <trkpt lat="39.6394950" lon="2.4825990">
        <ele>694.8</ele>
        <time>2020-01-03T11:58:35Z</time>
      </trkpt>
      <trkpt lat="39.6394850" lon="2.4825370">
        <ele>695.8</ele>
        <time>2020-01-03T11:59:17Z</time>
      </trkpt>
      <trkpt lat="39.6394990" lon="2.4825430">
        <ele>697.2</ele>
        <time>2020-01-03T12:00:20Z</time>
      </trkpt>
      <trkpt lat="39.6395220" lon="2.4825590">
        <ele>696.2</ele>
        <time>2020-01-03T12:01:03Z</time>
      </trkpt>
      <trkpt lat="39.6395480" lon="2.4826070">
        <ele>695.4</ele>
        <time>2020-01-03T12:01:09Z</time>
      </trkpt>
      <trkpt lat="39.6395580" lon="2.4826210">
        <ele>695.2</ele>
        <time>2020-01-03T12:01:11Z</time>
      </trkpt>
      <trkpt lat="39.6395650" lon="2.4826350">
        <ele>694.8</ele>
        <time>2020-01-03T12:01:13Z</time>
      </trkpt>
      <trkpt lat="39.6395860" lon="2.4827700">
        <ele>696.0</ele>
        <time>2020-01-03T12:01:44Z</time>
      </trkpt>
      <trkpt lat="39.6395870" lon="2.4827720">
        <ele>697.0</ele>
        <time>2020-01-03T12:02:35Z</time>
      </trkpt>
      <trkpt lat="39.6396170" lon="2.4828760">
        <ele>696.6</ele>
        <time>2020-01-03T12:04:00Z</time>
      </trkpt>
      <trkpt lat="39.6396230" lon="2.4828960">
        <ele>696.0</ele>
        <time>2020-01-03T12:04:03Z</time>
      </trkpt>
      <trkpt lat="39.6396490" lon="2.4829390">
        <ele>695.0</ele>
        <time>2020-01-03T12:04:07Z</time>
      </trkpt>
      <trkpt lat="39.6396510" lon="2.4829540">
        <ele>694.8</ele>
        <time>2020-01-03T12:04:08Z</time>
      </trkpt>
      <trkpt lat="39.6396370" lon="2.4830180">
        <ele>694.8</ele>
        <time>2020-01-03T12:04:13Z</time>
      </trkpt>
      <trkpt lat="39.6396520" lon="2.4831140">
        <ele>694.4</ele>
        <time>2020-01-03T12:04:20Z</time>
      </trkpt>
      <trkpt lat="39.6396660" lon="2.4831540">
        <ele>693.8</ele>
        <time>2020-01-03T12:04:23Z</time>
      </trkpt>
      <trkpt lat="39.6396730" lon="2.4831970">
        <ele>693.4</ele>
        <time>2020-01-03T12:04:26Z</time>
      </trkpt>
      <trkpt lat="39.6396890" lon="2.4832290">
        <ele>692.8</ele>
        <time>2020-01-03T12:04:29Z</time>
      </trkpt>
      <trkpt lat="39.6397210" lon="2.4833010">
        <ele>691.6</ele>
        <time>2020-01-03T12:04:35Z</time>
      </trkpt>
      <trkpt lat="39.6397250" lon="2.4833160">
        <ele>691.6</ele>
        <time>2020-01-03T12:04:36Z</time>
      </trkpt>
      <trkpt lat="39.6397630" lon="2.4834550">
        <ele>691.8</ele>
        <time>2020-01-03T12:04:46Z</time>
      </trkpt>
      <trkpt lat="39.6397700" lon="2.4835240">
        <ele>692.6</ele>
        <time>2020-01-03T12:04:52Z</time>
      </trkpt>
      <trkpt lat="39.6397490" lon="2.4835670">
        <ele>693.8</ele>
        <time>2020-01-03T12:04:57Z</time>
      </trkpt>
      <trkpt lat="39.6397390" lon="2.4836000">
        <ele>695.0</ele>
        <time>2020-01-03T12:05:02Z</time>
      </trkpt>
      <trkpt lat="39.6397390" lon="2.4836490">
        <ele>696.0</ele>
        <time>2020-01-03T12:05:07Z</time>
      </trkpt>
      <trkpt lat="39.6397040" lon="2.4836960">
        <ele>697.0</ele>
        <time>2020-01-03T12:05:15Z</time>
      </trkpt>
      <trkpt lat="39.6396730" lon="2.4837320">
        <ele>698.0</ele>
        <time>2020-01-03T12:05:21Z</time>
      </trkpt>
      <trkpt lat="39.6396710" lon="2.4838030">
        <ele>699.2</ele>
        <time>2020-01-03T12:05:28Z</time>
      </trkpt>
      <trkpt lat="39.6396530" lon="2.4838620">
        <ele>700.2</ele>
        <time>2020-01-03T12:05:34Z</time>
      </trkpt>
      <trkpt lat="39.6396330" lon="2.4838810">
        <ele>701.4</ele>
        <time>2020-01-03T12:05:38Z</time>
      </trkpt>
      <trkpt lat="39.6396040" lon="2.4839300">
        <ele>702.6</ele>
        <time>2020-01-03T12:05:45Z</time>
      </trkpt>
      <trkpt lat="39.6396060" lon="2.4839480">
        <ele>702.4</ele>
        <time>2020-01-03T12:05:47Z</time>
      </trkpt>
      <trkpt lat="39.6395740" lon="2.4839960">
        <ele>703.6</ele>
        <time>2020-01-03T12:05:54Z</time>
      </trkpt>
      <trkpt lat="39.6395230" lon="2.4840390">
        <ele>704.8</ele>
        <time>2020-01-03T12:06:09Z</time>
      </trkpt>
      <trkpt lat="39.6394970" lon="2.4840800">
        <ele>706.0</ele>
        <time>2020-01-03T12:06:14Z</time>
      </trkpt>
      <trkpt lat="39.6394660" lon="2.4841060">
        <ele>707.0</ele>
        <time>2020-01-03T12:06:18Z</time>
      </trkpt>
      <trkpt lat="39.6394440" lon="2.4841280">
        <ele>708.0</ele>
        <time>2020-01-03T12:06:22Z</time>
      </trkpt>
      <trkpt lat="39.6394430" lon="2.4841380">
        <ele>708.0</ele>
        <time>2020-01-03T12:06:23Z</time>
      </trkpt>
      <trkpt lat="39.6394420" lon="2.4841730">
        <ele>708.6</ele>
        <time>2020-01-03T12:06:26Z</time>
      </trkpt>
      <trkpt lat="39.6394540" lon="2.4842180">
        <ele>709.0</ele>
        <time>2020-01-03T12:06:30Z</time>
      </trkpt>
      <trkpt lat="39.6394520" lon="2.4842270">
        <ele>709.2</ele>
        <time>2020-01-03T12:06:31Z</time>
      </trkpt>
      <trkpt lat="39.6394430" lon="2.4842430">
        <ele>709.6</ele>
        <time>2020-01-03T12:06:33Z</time>
      </trkpt>
      <trkpt lat="39.6394350" lon="2.4842730">
        <ele>710.2</ele>
        <time>2020-01-03T12:06:36Z</time>
      </trkpt>
      <trkpt lat="39.6394050" lon="2.4843350">
        <ele>711.4</ele>
        <time>2020-01-03T12:06:44Z</time>
      </trkpt>
      <trkpt lat="39.6393830" lon="2.4843810">
        <ele>712.6</ele>
        <time>2020-01-03T12:06:50Z</time>
      </trkpt>
      <trkpt lat="39.6393660" lon="2.4844410">
        <ele>713.8</ele>
        <time>2020-01-03T12:06:56Z</time>
      </trkpt>
      <trkpt lat="39.6393570" lon="2.4844800">
        <ele>715.0</ele>
        <time>2020-01-03T12:07:00Z</time>
      </trkpt>
      <trkpt lat="39.6393410" lon="2.4845210">
        <ele>716.0</ele>
        <time>2020-01-03T12:07:05Z</time>
      </trkpt>
      <trkpt lat="39.6393220" lon="2.4845850">
        <ele>717.2</ele>
        <time>2020-01-03T12:07:11Z</time>
      </trkpt>
      <trkpt lat="39.6393000" lon="2.4846480">
        <ele>718.4</ele>
        <time>2020-01-03T12:07:18Z</time>
      </trkpt>
      <trkpt lat="39.6392780" lon="2.4846980">
        <ele>719.4</ele>
        <time>2020-01-03T12:07:23Z</time>
      </trkpt>
      <trkpt lat="39.6392770" lon="2.4847190">
        <ele>719.8</ele>
        <time>2020-01-03T12:07:25Z</time>
      </trkpt>
      <trkpt lat="39.6392710" lon="2.4847460">
        <ele>720.6</ele>
        <time>2020-01-03T12:07:28Z</time>
      </trkpt>
      <trkpt lat="39.6392570" lon="2.4847800">
        <ele>721.8</ele>
        <time>2020-01-03T12:07:34Z</time>
      </trkpt>
      <trkpt lat="39.6392400" lon="2.4848160">
        <ele>723.0</ele>
        <time>2020-01-03T12:07:38Z</time>
      </trkpt>
      <trkpt lat="39.6392350" lon="2.4848520">
        <ele>724.2</ele>
        <time>2020-01-03T12:07:42Z</time>
      </trkpt>
      <trkpt lat="39.6392280" lon="2.4848790">
        <ele>724.4</ele>
        <time>2020-01-03T12:07:44Z</time>
      </trkpt>
      <trkpt lat="39.6392120" lon="2.4849060">
        <ele>724.4</ele>
        <time>2020-01-03T12:07:48Z</time>
      </trkpt>
      <trkpt lat="39.6391760" lon="2.4849460">
        <ele>723.2</ele>
        <time>2020-01-03T12:07:54Z</time>
      </trkpt>
      <trkpt lat="39.6390960" lon="2.4849640">
        <ele>724.2</ele>
        <time>2020-01-03T12:10:06Z</time>
      </trkpt>
      <trkpt lat="39.6391000" lon="2.4849120">
        <ele>725.2</ele>
        <time>2020-01-03T12:11:17Z</time>
      </trkpt>
      <trkpt lat="39.6391400" lon="2.4850630">
        <ele>722.8</ele>
        <time>2020-01-03T12:13:45Z</time>
      </trkpt>
      <trkpt lat="39.6391410" lon="2.4850680">
        <ele>724.2</ele>
        <time>2020-01-03T12:13:46Z</time>
      </trkpt>
      <trkpt lat="39.6391400" lon="2.4850680">
        <ele>725.2</ele>
        <time>2020-01-03T12:13:47Z</time>
      </trkpt>
      <trkpt lat="39.6391070" lon="2.4850790">
        <ele>726.4</ele>
        <time>2020-01-03T12:15:23Z</time>
      </trkpt>
      <trkpt lat="39.6391010" lon="2.4851010">
        <ele>727.4</ele>
        <time>2020-01-03T12:15:26Z</time>
      </trkpt>
      <trkpt lat="39.6390900" lon="2.4851370">
        <ele>728.6</ele>
        <time>2020-01-03T12:15:30Z</time>
      </trkpt>
      <trkpt lat="39.6390700" lon="2.4851680">
        <ele>729.8</ele>
        <time>2020-01-03T12:15:34Z</time>
      </trkpt>
      <trkpt lat="39.6390490" lon="2.4851770">
        <ele>730.8</ele>
        <time>2020-01-03T12:15:39Z</time>
      </trkpt>
      <trkpt lat="39.6390250" lon="2.4851660">
        <ele>732.0</ele>
        <time>2020-01-03T12:15:44Z</time>
      </trkpt>
      <trkpt lat="39.6390090" lon="2.4852050">
        <ele>732.8</ele>
        <time>2020-01-03T12:15:48Z</time>
      </trkpt>
      <trkpt lat="39.6390050" lon="2.4852170">
        <ele>733.2</ele>
        <time>2020-01-03T12:15:49Z</time>
      </trkpt>
      <trkpt lat="39.6389980" lon="2.4852360">
        <ele>733.4</ele>
        <time>2020-01-03T12:15:51Z</time>
      </trkpt>
      <trkpt lat="39.6389680" lon="2.4852540">
        <ele>734.4</ele>
        <time>2020-01-03T12:15:55Z</time>
      </trkpt>
      <trkpt lat="39.6389430" lon="2.4852680">
        <ele>735.4</ele>
        <time>2020-01-03T12:15:59Z</time>
      </trkpt>
      <trkpt lat="39.6389010" lon="2.4852290">
        <ele>736.6</ele>
        <time>2020-01-03T12:16:06Z</time>
      </trkpt>
      <trkpt lat="39.6388640" lon="2.4851960">
        <ele>737.6</ele>
        <time>2020-01-03T12:16:19Z</time>
      </trkpt>
      <trkpt lat="39.6388550" lon="2.4851600">
        <ele>738.6</ele>
        <time>2020-01-03T12:16:24Z</time>
      </trkpt>
      <trkpt lat="39.6388390" lon="2.4851600">
        <ele>739.8</ele>
        <time>2020-01-03T12:16:28Z</time>
      </trkpt>
      <trkpt lat="39.6388210" lon="2.4851930">
        <ele>741.0</ele>
        <time>2020-01-03T12:16:33Z</time>
      </trkpt>
      <trkpt lat="39.6388140" lon="2.4852420">
        <ele>742.2</ele>
        <time>2020-01-03T12:16:39Z</time>
      </trkpt>
      <trkpt lat="39.6388110" lon="2.4852820">
        <ele>743.2</ele>
        <time>2020-01-03T12:16:43Z</time>
      </trkpt>
      <trkpt lat="39.6388090" lon="2.4853110">
        <ele>744.4</ele>
        <time>2020-01-03T12:16:46Z</time>
      </trkpt>
      <trkpt lat="39.6387790" lon="2.4853140">
        <ele>745.6</ele>
        <time>2020-01-03T12:16:51Z</time>
      </trkpt>
      <trkpt lat="39.6387350" lon="2.4852620">
        <ele>746.6</ele>
        <time>2020-01-03T12:16:57Z</time>
      </trkpt>
      <trkpt lat="39.6387130" lon="2.4852340">
        <ele>747.4</ele>
        <time>2020-01-03T12:17:02Z</time>
      </trkpt>
      <trkpt lat="39.6387150" lon="2.4852510">
        <ele>747.8</ele>
        <time>2020-01-03T12:17:04Z</time>
      </trkpt>
      <trkpt lat="39.6386970" lon="2.4853150">
        <ele>749.0</ele>
        <time>2020-01-03T12:17:11Z</time>
      </trkpt>
      <trkpt lat="39.6386930" lon="2.4853740">
        <ele>750.2</ele>
        <time>2020-01-03T12:17:17Z</time>
      </trkpt>
      <trkpt lat="39.6386730" lon="2.4854000">
        <ele>751.4</ele>
        <time>2020-01-03T12:17:21Z</time>
      </trkpt>
      <trkpt lat="39.6386540" lon="2.4854260">
        <ele>752.4</ele>
        <time>2020-01-03T12:17:25Z</time>
      </trkpt>
      <trkpt lat="39.6386430" lon="2.4854560">
        <ele>753.4</ele>
        <time>2020-01-03T12:17:29Z</time>
      </trkpt>
      <trkpt lat="39.6386220" lon="2.4855130">
        <ele>754.6</ele>
        <time>2020-01-03T12:17:35Z</time>
      </trkpt>
      <trkpt lat="39.6386040" lon="2.4855180">
        <ele>755.6</ele>
        <time>2020-01-03T12:17:38Z</time>
      </trkpt>
      <trkpt lat="39.6385680" lon="2.4855350">
        <ele>756.6</ele>
        <time>2020-01-03T12:17:44Z</time>
      </trkpt>
      <trkpt lat="39.6385550" lon="2.4855560">
        <ele>757.2</ele>
        <time>2020-01-03T12:17:48Z</time>
      </trkpt>
      <trkpt lat="39.6385450" lon="2.4855650">
        <ele>757.8</ele>
        <time>2020-01-03T12:17:50Z</time>
      </trkpt>
      <trkpt lat="39.6385010" lon="2.4856040">
        <ele>759.0</ele>
        <time>2020-01-03T12:17:56Z</time>
      </trkpt>
      <trkpt lat="39.6384600" lon="2.4856240">
        <ele>760.2</ele>
        <time>2020-01-03T12:18:01Z</time>
      </trkpt>
      <trkpt lat="39.6384460" lon="2.4856170">
        <ele>760.8</ele>
        <time>2020-01-03T12:18:03Z</time>
      </trkpt>
      <trkpt lat="39.6384300" lon="2.4855880">
        <ele>761.2</ele>
        <time>2020-01-03T12:18:06Z</time>
      </trkpt>
      <trkpt lat="39.6384210" lon="2.4855670">
        <ele>761.6</ele>
        <time>2020-01-03T12:18:08Z</time>
      </trkpt>
      <trkpt lat="39.6383950" lon="2.4855410">
        <ele>762.4</ele>
        <time>2020-01-03T12:18:12Z</time>
      </trkpt>
      <trkpt lat="39.6383650" lon="2.4854880">
        <ele>763.6</ele>
        <time>2020-01-03T12:18:18Z</time>
      </trkpt>
      <trkpt lat="39.6383560" lon="2.4854660">
        <ele>764.0</ele>
        <time>2020-01-03T12:18:20Z</time>
      </trkpt>
      <trkpt lat="39.6383340" lon="2.4854500">
        <ele>764.6</ele>
        <time>2020-01-03T12:18:23Z</time>
      </trkpt>
      <trkpt lat="39.6383090" lon="2.4854040">
        <ele>765.8</ele>
        <time>2020-01-03T12:18:28Z</time>
      </trkpt>
      <trkpt lat="39.6382810" lon="2.4853680">
        <ele>766.8</ele>
        <time>2020-01-03T12:18:34Z</time>
      </trkpt>
      <trkpt lat="39.6382540" lon="2.4853140">
        <ele>768.0</ele>
        <time>2020-01-03T12:18:40Z</time>
      </trkpt>
      <trkpt lat="39.6382340" lon="2.4852580">
        <ele>769.2</ele>
        <time>2020-01-03T12:18:45Z</time>
      </trkpt>
      <trkpt lat="39.6382120" lon="2.4852200">
        <ele>770.4</ele>
        <time>2020-01-03T12:18:49Z</time>
      </trkpt>
      <trkpt lat="39.6382120" lon="2.4851530">
        <ele>771.6</ele>
        <time>2020-01-03T12:18:54Z</time>
      </trkpt>
      <trkpt lat="39.6382080" lon="2.4850700">
        <ele>772.8</ele>
        <time>2020-01-03T12:19:00Z</time>
      </trkpt>
      <trkpt lat="39.6382160" lon="2.4849980">
        <ele>773.8</ele>
        <time>2020-01-03T12:19:05Z</time>
      </trkpt>
      <trkpt lat="39.6382550" lon="2.4849240">
        <ele>773.6</ele>
        <time>2020-01-03T12:19:12Z</time>
      </trkpt>
      <trkpt lat="39.6382920" lon="2.4848990">
        <ele>773.6</ele>
        <time>2020-01-03T12:19:15Z</time>
      </trkpt>
      <trkpt lat="39.6383000" lon="2.4848780">
        <ele>773.0</ele>
        <time>2020-01-03T12:19:17Z</time>
      </trkpt>
      <trkpt lat="39.6383050" lon="2.4848680">
        <ele>772.8</ele>
        <time>2020-01-03T12:19:18Z</time>
      </trkpt>
      <trkpt lat="39.6383140" lon="2.4848380">
        <ele>774.0</ele>
        <time>2020-01-03T12:19:21Z</time>
      </trkpt>
      <trkpt lat="39.6383150" lon="2.4847500">
        <ele>775.0</ele>
        <time>2020-01-03T12:19:28Z</time>
      </trkpt>
      <trkpt lat="39.6382920" lon="2.4845710">
        <ele>776.0</ele>
        <time>2020-01-03T12:19:40Z</time>
      </trkpt>
      <trkpt lat="39.6382880" lon="2.4845590">
        <ele>776.2</ele>
        <time>2020-01-03T12:19:41Z</time>
      </trkpt>
      <trkpt lat="39.6382710" lon="2.4845150">
        <ele>777.4</ele>
        <time>2020-01-03T12:19:45Z</time>
      </trkpt>
      <trkpt lat="39.6382600" lon="2.4844840">
        <ele>777.8</ele>
        <time>2020-01-03T12:19:48Z</time>
      </trkpt>
      <trkpt lat="39.6382360" lon="2.4843870">
        <ele>778.6</ele>
        <time>2020-01-03T12:19:55Z</time>
      </trkpt>
      <trkpt lat="39.6382380" lon="2.4842510">
        <ele>777.4</ele>
        <time>2020-01-03T12:20:04Z</time>
      </trkpt>
      <trkpt lat="39.6381610" lon="2.4840590">
        <ele>777.0</ele>
        <time>2020-01-03T12:20:19Z</time>
      </trkpt>
      <trkpt lat="39.6380900" lon="2.4840330">
        <ele>778.6</ele>
        <time>2020-01-03T12:20:29Z</time>
      </trkpt>
      <trkpt lat="39.6380550" lon="2.4840450">
        <ele>779.6</ele>
        <time>2020-01-03T12:20:33Z</time>
      </trkpt>
      <trkpt lat="39.6380130" lon="2.4840370">
        <ele>780.8</ele>
        <time>2020-01-03T12:20:38Z</time>
      </trkpt>
      <trkpt lat="39.6379900" lon="2.4840480">
        <ele>781.8</ele>
        <time>2020-01-03T12:20:42Z</time>
      </trkpt>
      <trkpt lat="39.6379710" lon="2.4840640">
        <ele>783.4</ele>
        <time>2020-01-03T12:20:46Z</time>
      </trkpt>
      <trkpt lat="39.6379210" lon="2.4840490">
        <ele>784.6</ele>
        <time>2020-01-03T12:20:54Z</time>
      </trkpt>
      <trkpt lat="39.6378990" lon="2.4840740">
        <ele>785.2</ele>
        <time>2020-01-03T12:20:57Z</time>
      </trkpt>
      <trkpt lat="39.6378940" lon="2.4840810">
        <ele>785.6</ele>
        <time>2020-01-03T12:20:58Z</time>
      </trkpt>
      <trkpt lat="39.6378890" lon="2.4840880">
        <ele>786.0</ele>
        <time>2020-01-03T12:20:59Z</time>
      </trkpt>
      <trkpt lat="39.6378590" lon="2.4840970">
        <ele>786.8</ele>
        <time>2020-01-03T12:21:03Z</time>
      </trkpt>
      <trkpt lat="39.6378310" lon="2.4841010">
        <ele>787.8</ele>
        <time>2020-01-03T12:21:07Z</time>
      </trkpt>
      <trkpt lat="39.6378060" lon="2.4841290">
        <ele>789.2</ele>
        <time>2020-01-03T12:21:12Z</time>
      </trkpt>
      <trkpt lat="39.6377780" lon="2.4841400">
        <ele>790.2</ele>
        <time>2020-01-03T12:21:16Z</time>
      </trkpt>
      <trkpt lat="39.6377490" lon="2.4841240">
        <ele>791.2</ele>
        <time>2020-01-03T12:21:20Z</time>
      </trkpt>
      <trkpt lat="39.6377020" lon="2.4840680">
        <ele>792.2</ele>
        <time>2020-01-03T12:21:26Z</time>
      </trkpt>
      <trkpt lat="39.6376670" lon="2.4840240">
        <ele>793.2</ele>
        <time>2020-01-03T12:21:31Z</time>
      </trkpt>
      <trkpt lat="39.6376590" lon="2.4840310">
        <ele>793.4</ele>
        <time>2020-01-03T12:21:32Z</time>
      </trkpt>
      <trkpt lat="39.6376160" lon="2.4840650">
        <ele>794.4</ele>
        <time>2020-01-03T12:21:38Z</time>
      </trkpt>
      <trkpt lat="39.6376050" lon="2.4840490">
        <ele>794.8</ele>
        <time>2020-01-03T12:21:40Z</time>
      </trkpt>
      <trkpt lat="39.6375920" lon="2.4840150">
        <ele>795.4</ele>
        <time>2020-01-03T12:21:43Z</time>
      </trkpt>
      <trkpt lat="39.6375720" lon="2.4839760">
        <ele>796.6</ele>
        <time>2020-01-03T12:21:47Z</time>
      </trkpt>
      <trkpt lat="39.6375280" lon="2.4839330">
        <ele>797.8</ele>
        <time>2020-01-03T12:21:53Z</time>
      </trkpt>
      <trkpt lat="39.6375070" lon="2.4838990">
        <ele>798.8</ele>
        <time>2020-01-03T12:21:57Z</time>
      </trkpt>
      <trkpt lat="39.6374820" lon="2.4838670">
        <ele>799.8</ele>
        <time>2020-01-03T12:22:01Z</time>
      </trkpt>
      <trkpt lat="39.6374640" lon="2.4838560">
        <ele>801.2</ele>
        <time>2020-01-03T12:22:06Z</time>
      </trkpt>
      <trkpt lat="39.6374590" lon="2.4838930">
        <ele>802.2</ele>
        <time>2020-01-03T12:22:10Z</time>
      </trkpt>
      <trkpt lat="39.6374380" lon="2.4839290">
        <ele>803.4</ele>
        <time>2020-01-03T12:22:15Z</time>
      </trkpt>
      <trkpt lat="39.6374260" lon="2.4839540">
        <ele>804.4</ele>
        <time>2020-01-03T12:22:20Z</time>
      </trkpt>
      <trkpt lat="39.6374090" lon="2.4839760">
        <ele>805.6</ele>
        <time>2020-01-03T12:22:24Z</time>
      </trkpt>
      <trkpt lat="39.6373920" lon="2.4839900">
        <ele>806.8</ele>
        <time>2020-01-03T12:22:28Z</time>
      </trkpt>
      <trkpt lat="39.6373770" lon="2.4840170">
        <ele>807.8</ele>
        <time>2020-01-03T12:22:32Z</time>
      </trkpt>
      <trkpt lat="39.6373840" lon="2.4840560">
        <ele>809.0</ele>
        <time>2020-01-03T12:22:36Z</time>
      </trkpt>
      <trkpt lat="39.6373710" lon="2.4840980">
        <ele>810.2</ele>
        <time>2020-01-03T12:22:41Z</time>
      </trkpt>
      <trkpt lat="39.6373680" lon="2.4841320">
        <ele>811.2</ele>
        <time>2020-01-03T12:22:45Z</time>
      </trkpt>
      <trkpt lat="39.6373570" lon="2.4841670">
        <ele>812.4</ele>
        <time>2020-01-03T12:22:48Z</time>
      </trkpt>
      <trkpt lat="39.6373210" lon="2.4842510">
        <ele>813.6</ele>
        <time>2020-01-03T12:22:56Z</time>
      </trkpt>
      <trkpt lat="39.6373040" lon="2.4843150">
        <ele>814.6</ele>
        <time>2020-01-03T12:23:01Z</time>
      </trkpt>
      <trkpt lat="39.6372880" lon="2.4843500">
        <ele>815.0</ele>
        <time>2020-01-03T12:23:04Z</time>
      </trkpt>
      <trkpt lat="39.6372920" lon="2.4844050">
        <ele>815.6</ele>
        <time>2020-01-03T12:23:08Z</time>
      </trkpt>
      <trkpt lat="39.6373310" lon="2.4845970">
        <ele>816.6</ele>
        <time>2020-01-03T12:23:21Z</time>
      </trkpt>
      <trkpt lat="39.6373320" lon="2.4846280">
        <ele>816.6</ele>
        <time>2020-01-03T12:23:23Z</time>
      </trkpt>
      <trkpt lat="39.6373270" lon="2.4847430">
        <ele>817.6</ele>
        <time>2020-01-03T12:23:30Z</time>
      </trkpt>
      <trkpt lat="39.6373310" lon="2.4847580">
        <ele>817.8</ele>
        <time>2020-01-03T12:23:31Z</time>
      </trkpt>
      <trkpt lat="39.6373230" lon="2.4848190">
        <ele>818.4</ele>
        <time>2020-01-03T12:23:35Z</time>
      </trkpt>
      <trkpt lat="39.6373300" lon="2.4848610">
        <ele>818.8</ele>
        <time>2020-01-03T12:23:38Z</time>
      </trkpt>
      <trkpt lat="39.6373320" lon="2.4849700">
        <ele>819.8</ele>
        <time>2020-01-03T12:23:45Z</time>
      </trkpt>
      <trkpt lat="39.6373430" lon="2.4850570">
        <ele>821.0</ele>
        <time>2020-01-03T12:23:51Z</time>
      </trkpt>
      <trkpt lat="39.6373170" lon="2.4851180">
        <ele>821.8</ele>
        <time>2020-01-03T12:23:56Z</time>
      </trkpt>
      <trkpt lat="39.6373170" lon="2.4851300">
        <ele>822.0</ele>
        <time>2020-01-03T12:23:57Z</time>
      </trkpt>
      <trkpt lat="39.6372610" lon="2.4853530">
        <ele>823.2</ele>
        <time>2020-01-03T12:24:11Z</time>
      </trkpt>
      <trkpt lat="39.6371040" lon="2.4855750">
        <ele>824.2</ele>
        <time>2020-01-03T12:24:36Z</time>
      </trkpt>
      <trkpt lat="39.6370770" lon="2.4855540">
        <ele>825.2</ele>
        <time>2020-01-03T12:24:42Z</time>
      </trkpt>
      <trkpt lat="39.6370710" lon="2.4855020">
        <ele>826.4</ele>
        <time>2020-01-03T12:24:47Z</time>
      </trkpt>
      <trkpt lat="39.6370440" lon="2.4854580">
        <ele>827.4</ele>
        <time>2020-01-03T12:24:59Z</time>
      </trkpt>
      <trkpt lat="39.6370230" lon="2.4854300">
        <ele>828.6</ele>
        <time>2020-01-03T12:25:03Z</time>
      </trkpt>
      <trkpt lat="39.6370060" lon="2.4853990">
        <ele>829.8</ele>
        <time>2020-01-03T12:25:08Z</time>
      </trkpt>
      <trkpt lat="39.6369920" lon="2.4853740">
        <ele>831.0</ele>
        <time>2020-01-03T12:25:12Z</time>
      </trkpt>
      <trkpt lat="39.6369850" lon="2.4853590">
        <ele>832.0</ele>
        <time>2020-01-03T12:25:16Z</time>
      </trkpt>
      <trkpt lat="39.6369700" lon="2.4853290">
        <ele>833.2</ele>
        <time>2020-01-03T12:25:20Z</time>
      </trkpt>
      <trkpt lat="39.6369680" lon="2.4853000">
        <ele>834.4</ele>
        <time>2020-01-03T12:25:26Z</time>
      </trkpt>
      <trkpt lat="39.6369560" lon="2.4852990">
        <ele>835.6</ele>
        <time>2020-01-03T12:25:31Z</time>
      </trkpt>
      <trkpt lat="39.6369360" lon="2.4852840">
        <ele>836.6</ele>
        <time>2020-01-03T12:25:37Z</time>
      </trkpt>
      <trkpt lat="39.6369250" lon="2.4853030">
        <ele>838.0</ele>
        <time>2020-01-03T12:25:41Z</time>
      </trkpt>
      <trkpt lat="39.6368960" lon="2.4853730">
        <ele>838.6</ele>
        <time>2020-01-03T12:25:50Z</time>
      </trkpt>
      <trkpt lat="39.6368880" lon="2.4853790">
        <ele>839.0</ele>
        <time>2020-01-03T12:25:51Z</time>
      </trkpt>
      <trkpt lat="39.6368870" lon="2.4853850">
        <ele>839.8</ele>
        <time>2020-01-03T12:25:53Z</time>
      </trkpt>
      <trkpt lat="39.6368830" lon="2.4853840">
        <ele>840.0</ele>
        <time>2020-01-03T12:25:54Z</time>
      </trkpt>
      <trkpt lat="39.6368650" lon="2.4853640">
        <ele>841.0</ele>
        <time>2020-01-03T12:25:58Z</time>
      </trkpt>
      <trkpt lat="39.6368590" lon="2.4853320">
        <ele>842.4</ele>
        <time>2020-01-03T12:26:02Z</time>
      </trkpt>
      <trkpt lat="39.6368480" lon="2.4852870">
        <ele>843.4</ele>
        <time>2020-01-03T12:26:08Z</time>
      </trkpt>
      <trkpt lat="39.6368530" lon="2.4852480">
        <ele>844.4</ele>
        <time>2020-01-03T12:26:12Z</time>
      </trkpt>
      <trkpt lat="39.6368520" lon="2.4851910">
        <ele>845.6</ele>
        <time>2020-01-03T12:26:18Z</time>
      </trkpt>
      <trkpt lat="39.6368580" lon="2.4851060">
        <ele>846.8</ele>
        <time>2020-01-03T12:26:26Z</time>
      </trkpt>
      <trkpt lat="39.6368560" lon="2.4850560">
        <ele>847.8</ele>
        <time>2020-01-03T12:26:31Z</time>
      </trkpt>
      <trkpt lat="39.6368570" lon="2.4850220">
        <ele>848.8</ele>
        <time>2020-01-03T12:26:35Z</time>
      </trkpt>
      <trkpt lat="39.6368630" lon="2.4850060">
        <ele>850.0</ele>
        <time>2020-01-03T12:26:39Z</time>
      </trkpt>
      <trkpt lat="39.6368470" lon="2.4850020">
        <ele>851.2</ele>
        <time>2020-01-03T12:26:44Z</time>
      </trkpt>
      <trkpt lat="39.6368300" lon="2.4850000">
        <ele>852.4</ele>
        <time>2020-01-03T12:26:48Z</time>
      </trkpt>
      <trkpt lat="39.6368100" lon="2.4850020">
        <ele>853.4</ele>
        <time>2020-01-03T12:26:52Z</time>
      </trkpt>
      <trkpt lat="39.6368020" lon="2.4850000">
        <ele>854.6</ele>
        <time>2020-01-03T12:26:56Z</time>
      </trkpt>
      <trkpt lat="39.6367940" lon="2.4849900">
        <ele>855.8</ele>
        <time>2020-01-03T12:26:59Z</time>
      </trkpt>
      <trkpt lat="39.6367820" lon="2.4849880">
        <ele>857.0</ele>
        <time>2020-01-03T12:27:03Z</time>
      </trkpt>
      <trkpt lat="39.6367640" lon="2.4850010">
        <ele>858.0</ele>
        <time>2020-01-03T12:27:07Z</time>
      </trkpt>
      <trkpt lat="39.6367490" lon="2.4849860">
        <ele>859.4</ele>
        <time>2020-01-03T12:27:11Z</time>
      </trkpt>
      <trkpt lat="39.6367320" lon="2.4849720">
        <ele>860.6</ele>
        <time>2020-01-03T12:27:15Z</time>
      </trkpt>
      <trkpt lat="39.6367260" lon="2.4849440">
        <ele>861.6</ele>
        <time>2020-01-03T12:27:20Z</time>
      </trkpt>
      <trkpt lat="39.6367130" lon="2.4849380">
        <ele>862.8</ele>
        <time>2020-01-03T12:27:24Z</time>
      </trkpt>
      <trkpt lat="39.6366850" lon="2.4849310">
        <ele>864.2</ele>
        <time>2020-01-03T12:27:30Z</time>
      </trkpt>
      <trkpt lat="39.6366510" lon="2.4848270">
        <ele>863.0</ele>
        <time>2020-01-03T12:27:42Z</time>
      </trkpt>
      <trkpt lat="39.6365030" lon="2.4846360">
        <ele>863.6</ele>
        <time>2020-01-03T12:28:01Z</time>
      </trkpt>
      <trkpt lat="39.6364810" lon="2.4846300">
        <ele>864.2</ele>
        <time>2020-01-03T12:28:03Z</time>
      </trkpt>
      <trkpt lat="39.6364170" lon="2.4845530">
        <ele>865.4</ele>
        <time>2020-01-03T12:28:10Z</time>
      </trkpt>
      <trkpt lat="39.6363790" lon="2.4845010">
        <ele>866.2</ele>
        <time>2020-01-03T12:28:15Z</time>
      </trkpt>
      <trkpt lat="39.6363720" lon="2.4844930">
        <ele>866.4</ele>
        <time>2020-01-03T12:28:16Z</time>
      </trkpt>
      <trkpt lat="39.6363410" lon="2.4844710">
        <ele>867.4</ele>
        <time>2020-01-03T12:28:20Z</time>
      </trkpt>
      <trkpt lat="39.6362900" lon="2.4844670">
        <ele>868.6</ele>
        <time>2020-01-03T12:28:24Z</time>
      </trkpt>
      <trkpt lat="39.6362660" lon="2.4844680">
        <ele>869.0</ele>
        <time>2020-01-03T12:28:26Z</time>
      </trkpt>
      <trkpt lat="39.6362470" lon="2.4844710">
        <ele>869.4</ele>
        <time>2020-01-03T12:28:28Z</time>
      </trkpt>
      <trkpt lat="39.6362270" lon="2.4844680">
        <ele>869.8</ele>
        <time>2020-01-03T12:28:30Z</time>
      </trkpt>
      <trkpt lat="39.6361730" lon="2.4844420">
        <ele>870.8</ele>
        <time>2020-01-03T12:28:35Z</time>
      </trkpt>
      <trkpt lat="39.6361320" lon="2.4844190">
        <ele>872.0</ele>
        <time>2020-01-03T12:28:40Z</time>
      </trkpt>
      <trkpt lat="39.6361110" lon="2.4844240">
        <ele>872.6</ele>
        <time>2020-01-03T12:28:42Z</time>
      </trkpt>
      <trkpt lat="39.6360880" lon="2.4844220">
        <ele>873.2</ele>
        <time>2020-01-03T12:28:44Z</time>
      </trkpt>
      <trkpt lat="39.6360520" lon="2.4844250">
        <ele>874.4</ele>
        <time>2020-01-03T12:28:48Z</time>
      </trkpt>
      <trkpt lat="39.6360100" lon="2.4844100">
        <ele>875.4</ele>
        <time>2020-01-03T12:28:52Z</time>
      </trkpt>
      <trkpt lat="39.6359950" lon="2.4844030">
        <ele>876.2</ele>
        <time>2020-01-03T12:28:54Z</time>
      </trkpt>
      <trkpt lat="39.6359830" lon="2.4844070">
        <ele>876.8</ele>
        <time>2020-01-03T12:28:56Z</time>
      </trkpt>
      <trkpt lat="39.6359790" lon="2.4844280">
        <ele>877.8</ele>
        <time>2020-01-03T12:29:01Z</time>
      </trkpt>
      <trkpt lat="39.6359790" lon="2.4844590">
        <ele>879.0</ele>
        <time>2020-01-03T12:29:07Z</time>
      </trkpt>
      <trkpt lat="39.6359800" lon="2.4844680">
        <ele>880.2</ele>
        <time>2020-01-03T12:29:10Z</time>
      </trkpt>
      <trkpt lat="39.6359670" lon="2.4844910">
        <ele>881.2</ele>
        <time>2020-01-03T12:29:14Z</time>
      </trkpt>
      <trkpt lat="39.6359530" lon="2.4844940">
        <ele>882.2</ele>
        <time>2020-01-03T12:29:17Z</time>
      </trkpt>
      <trkpt lat="39.6359290" lon="2.4844910">
        <ele>883.6</ele>
        <time>2020-01-03T12:29:22Z</time>
      </trkpt>
      <trkpt lat="39.6359170" lon="2.4844960">
        <ele>884.6</ele>
        <time>2020-01-03T12:29:24Z</time>
      </trkpt>
      <trkpt lat="39.6359170" lon="2.4845060">
        <ele>885.6</ele>
        <time>2020-01-03T12:29:28Z</time>
      </trkpt>
      <trkpt lat="39.6359090" lon="2.4845460">
        <ele>886.8</ele>
        <time>2020-01-03T12:29:33Z</time>
      </trkpt>
      <trkpt lat="39.6359040" lon="2.4845660">
        <ele>888.0</ele>
        <time>2020-01-03T12:29:38Z</time>
      </trkpt>
      <trkpt lat="39.6359070" lon="2.4845870">
        <ele>889.0</ele>
        <time>2020-01-03T12:29:41Z</time>
      </trkpt>
      <trkpt lat="39.6359120" lon="2.4846280">
        <ele>890.2</ele>
        <time>2020-01-03T12:29:46Z</time>
      </trkpt>
      <trkpt lat="39.6359130" lon="2.4846630">
        <ele>891.4</ele>
        <time>2020-01-03T12:29:50Z</time>
      </trkpt>
      <trkpt lat="39.6358860" lon="2.4847040">
        <ele>892.6</ele>
        <time>2020-01-03T12:29:55Z</time>
      </trkpt>
      <trkpt lat="39.6358750" lon="2.4847300">
        <ele>894.0</ele>
        <time>2020-01-03T12:30:00Z</time>
      </trkpt>
      <trkpt lat="39.6358670" lon="2.4847510">
        <ele>894.6</ele>
        <time>2020-01-03T12:30:02Z</time>
      </trkpt>
      <trkpt lat="39.6358670" lon="2.4847690">
        <ele>895.2</ele>
        <time>2020-01-03T12:30:04Z</time>
      </trkpt>
      <trkpt lat="39.6358660" lon="2.4847890">
        <ele>896.0</ele>
        <time>2020-01-03T12:30:06Z</time>
      </trkpt>
      <trkpt lat="39.6358590" lon="2.4848000">
        <ele>896.4</ele>
        <time>2020-01-03T12:30:08Z</time>
      </trkpt>
      <trkpt lat="39.6358530" lon="2.4848190">
        <ele>897.6</ele>
        <time>2020-01-03T12:30:11Z</time>
      </trkpt>
      <trkpt lat="39.6358490" lon="2.4848560">
        <ele>898.8</ele>
        <time>2020-01-03T12:30:15Z</time>
      </trkpt>
      <trkpt lat="39.6358420" lon="2.4848870">
        <ele>900.2</ele>
        <time>2020-01-03T12:30:19Z</time>
      </trkpt>
      <trkpt lat="39.6358240" lon="2.4849300">
        <ele>901.2</ele>
        <time>2020-01-03T12:30:23Z</time>
      </trkpt>
      <trkpt lat="39.6358300" lon="2.4849670">
        <ele>902.4</ele>
        <time>2020-01-03T12:30:27Z</time>
      </trkpt>
      <trkpt lat="39.6358100" lon="2.4850020">
        <ele>903.8</ele>
        <time>2020-01-03T12:30:33Z</time>
      </trkpt>
      <trkpt lat="39.6357880" lon="2.4850020">
        <ele>905.0</ele>
        <time>2020-01-03T12:30:39Z</time>
      </trkpt>
      <trkpt lat="39.6357710" lon="2.4850090">
        <ele>906.2</ele>
        <time>2020-01-03T12:30:42Z</time>
      </trkpt>
      <trkpt lat="39.6357500" lon="2.4850400">
        <ele>907.4</ele>
        <time>2020-01-03T12:30:47Z</time>
      </trkpt>
      <trkpt lat="39.6357450" lon="2.4850710">
        <ele>909.0</ele>
        <time>2020-01-03T12:30:51Z</time>
      </trkpt>
      <trkpt lat="39.6357220" lon="2.4851050">
        <ele>910.0</ele>
        <time>2020-01-03T12:30:56Z</time>
      </trkpt>
      <trkpt lat="39.6357020" lon="2.4851330">
        <ele>911.2</ele>
        <time>2020-01-03T12:31:00Z</time>
      </trkpt>
      <trkpt lat="39.6356860" lon="2.4851560">
        <ele>912.2</ele>
        <time>2020-01-03T12:31:04Z</time>
      </trkpt>
      <trkpt lat="39.6356660" lon="2.4851730">
        <ele>913.6</ele>
        <time>2020-01-03T12:31:08Z</time>
      </trkpt>
      <trkpt lat="39.6356550" lon="2.4852030">
        <ele>914.8</ele>
        <time>2020-01-03T12:31:12Z</time>
      </trkpt>
      <trkpt lat="39.6356430" lon="2.4852130">
        <ele>916.0</ele>
        <time>2020-01-03T12:31:16Z</time>
      </trkpt>
      <trkpt lat="39.6356420" lon="2.4852160">
        <ele>917.0</ele>
        <time>2020-01-03T12:31:21Z</time>
      </trkpt>
      <trkpt lat="39.6356420" lon="2.4852430">
        <ele>918.2</ele>
        <time>2020-01-03T12:31:27Z</time>
      </trkpt>
      <trkpt lat="39.6356240" lon="2.4852510">
        <ele>919.4</ele>
        <time>2020-01-03T12:31:31Z</time>
      </trkpt>
      <trkpt lat="39.6356020" lon="2.4852530">
        <ele>920.8</ele>
        <time>2020-01-03T12:31:38Z</time>
      </trkpt>
      <trkpt lat="39.6355920" lon="2.4852480">
        <ele>921.8</ele>
        <time>2020-01-03T12:31:42Z</time>
      </trkpt>
      <trkpt lat="39.6355310" lon="2.4852590">
        <ele>923.0</ele>
        <time>2020-01-03T12:31:54Z</time>
      </trkpt>
      <trkpt lat="39.6355050" lon="2.4852710">
        <ele>923.6</ele>
        <time>2020-01-03T12:31:57Z</time>
      </trkpt>
      <trkpt lat="39.6354980" lon="2.4852770">
        <ele>924.2</ele>
        <time>2020-01-03T12:31:59Z</time>
      </trkpt>
      <trkpt lat="39.6354910" lon="2.4853200">
        <ele>925.4</ele>
        <time>2020-01-03T12:32:03Z</time>
      </trkpt>
      <trkpt lat="39.6355050" lon="2.4853680">
        <ele>926.4</ele>
        <time>2020-01-03T12:32:08Z</time>
      </trkpt>
      <trkpt lat="39.6354910" lon="2.4854120">
        <ele>927.4</ele>
        <time>2020-01-03T12:32:13Z</time>
      </trkpt>
      <trkpt lat="39.6354780" lon="2.4854380">
        <ele>928.6</ele>
        <time>2020-01-03T12:32:18Z</time>
      </trkpt>
      <trkpt lat="39.6354700" lon="2.4854890">
        <ele>930.0</ele>
        <time>2020-01-03T12:32:23Z</time>
      </trkpt>
      <trkpt lat="39.6354480" lon="2.4855120">
        <ele>931.0</ele>
        <time>2020-01-03T12:32:27Z</time>
      </trkpt>
      <trkpt lat="39.6354290" lon="2.4855140">
        <ele>932.0</ele>
        <time>2020-01-03T12:32:30Z</time>
      </trkpt>
      <trkpt lat="39.6354010" lon="2.4855200">
        <ele>933.2</ele>
        <time>2020-01-03T12:32:34Z</time>
      </trkpt>
      <trkpt lat="39.6353760" lon="2.4855350">
        <ele>934.4</ele>
        <time>2020-01-03T12:32:39Z</time>
      </trkpt>
      <trkpt lat="39.6353540" lon="2.4855460">
        <ele>935.8</ele>
        <time>2020-01-03T12:32:43Z</time>
      </trkpt>
      <trkpt lat="39.6353450" lon="2.4855540">
        <ele>936.8</ele>
        <time>2020-01-03T12:32:46Z</time>
      </trkpt>
      <trkpt lat="39.6353260" lon="2.4855790">
        <ele>938.2</ele>
        <time>2020-01-03T12:32:51Z</time>
      </trkpt>
      <trkpt lat="39.6353170" lon="2.4855860">
        <ele>939.6</ele>
        <time>2020-01-03T12:32:55Z</time>
      </trkpt>
      <trkpt lat="39.6352920" lon="2.4855890">
        <ele>941.0</ele>
        <time>2020-01-03T12:32:59Z</time>
      </trkpt>
      <trkpt lat="39.6352680" lon="2.4855950">
        <ele>942.2</ele>
        <time>2020-01-03T12:33:03Z</time>
      </trkpt>
      <trkpt lat="39.6352160" lon="2.4855670">
        <ele>943.2</ele>
        <time>2020-01-03T12:33:10Z</time>
      </trkpt>
      <trkpt lat="39.6352030" lon="2.4855650">
        <ele>943.8</ele>
        <time>2020-01-03T12:33:12Z</time>
      </trkpt>
      <trkpt lat="39.6351920" lon="2.4855860">
        <ele>944.6</ele>
        <time>2020-01-03T12:33:15Z</time>
      </trkpt>
      <trkpt lat="39.6351640" lon="2.4856130">
        <ele>945.6</ele>
        <time>2020-01-03T12:33:19Z</time>
      </trkpt>
      <trkpt lat="39.6351410" lon="2.4856380">
        <ele>946.6</ele>
        <time>2020-01-03T12:33:23Z</time>
      </trkpt>
      <trkpt lat="39.6351240" lon="2.4856670">
        <ele>947.6</ele>
        <time>2020-01-03T12:33:27Z</time>
      </trkpt>
      <trkpt lat="39.6351050" lon="2.4856830">
        <ele>948.6</ele>
        <time>2020-01-03T12:33:31Z</time>
      </trkpt>
      <trkpt lat="39.6350930" lon="2.4857030">
        <ele>950.0</ele>
        <time>2020-01-03T12:33:35Z</time>
      </trkpt>
      <trkpt lat="39.6350740" lon="2.4857150">
        <ele>951.2</ele>
        <time>2020-01-03T12:33:40Z</time>
      </trkpt>
      <trkpt lat="39.6350450" lon="2.4857430">
        <ele>952.6</ele>
        <time>2020-01-03T12:33:46Z</time>
      </trkpt>
      <trkpt lat="39.6350250" lon="2.4857490">
        <ele>954.0</ele>
        <time>2020-01-03T12:33:50Z</time>
      </trkpt>
      <trkpt lat="39.6350010" lon="2.4857810">
        <ele>955.2</ele>
        <time>2020-01-03T12:33:55Z</time>
      </trkpt>
      <trkpt lat="39.6349790" lon="2.4857990">
        <ele>956.2</ele>
        <time>2020-01-03T12:33:59Z</time>
      </trkpt>
      <trkpt lat="39.6349500" lon="2.4858220">
        <ele>957.4</ele>
        <time>2020-01-03T12:34:04Z</time>
      </trkpt>
      <trkpt lat="39.6349280" lon="2.4858360">
        <ele>958.8</ele>
        <time>2020-01-03T12:34:08Z</time>
      </trkpt>
      <trkpt lat="39.6349120" lon="2.4858610">
        <ele>959.8</ele>
        <time>2020-01-03T12:34:12Z</time>
      </trkpt>
      <trkpt lat="39.6349300" lon="2.4859260">
        <ele>960.8</ele>
        <time>2020-01-03T12:34:17Z</time>
      </trkpt>
      <trkpt lat="39.6349280" lon="2.4859560">
        <ele>961.6</ele>
        <time>2020-01-03T12:34:20Z</time>
      </trkpt>
      <trkpt lat="39.6349140" lon="2.4859820">
        <ele>962.0</ele>
        <time>2020-01-03T12:34:23Z</time>
      </trkpt>
      <trkpt lat="39.6349000" lon="2.4859890">
        <ele>962.8</ele>
        <time>2020-01-03T12:34:25Z</time>
      </trkpt>
      <trkpt lat="39.6348830" lon="2.4859950">
        <ele>963.2</ele>
        <time>2020-01-03T12:34:27Z</time>
      </trkpt>
      <trkpt lat="39.6348780" lon="2.4859990">
        <ele>963.4</ele>
        <time>2020-01-03T12:34:28Z</time>
      </trkpt>
      <trkpt lat="39.6348620" lon="2.4860160">
        <ele>964.2</ele>
        <time>2020-01-03T12:34:31Z</time>
      </trkpt>
      <trkpt lat="39.6348470" lon="2.4860460">
        <ele>965.4</ele>
        <time>2020-01-03T12:34:35Z</time>
      </trkpt>
      <trkpt lat="39.6348270" lon="2.4860710">
        <ele>966.4</ele>
        <time>2020-01-03T12:34:39Z</time>
      </trkpt>
      <trkpt lat="39.6348340" lon="2.4861060">
        <ele>967.4</ele>
        <time>2020-01-03T12:34:43Z</time>
      </trkpt>
      <trkpt lat="39.6348260" lon="2.4861370">
        <ele>968.6</ele>
        <time>2020-01-03T12:34:47Z</time>
      </trkpt>
      <trkpt lat="39.6348190" lon="2.4861750">
        <ele>969.6</ele>
        <time>2020-01-03T12:34:51Z</time>
      </trkpt>
      <trkpt lat="39.6347900" lon="2.4861920">
        <ele>970.6</ele>
        <time>2020-01-03T12:34:55Z</time>
      </trkpt>
      <trkpt lat="39.6347610" lon="2.4862110">
        <ele>971.6</ele>
        <time>2020-01-03T12:35:00Z</time>
      </trkpt>
      <trkpt lat="39.6347540" lon="2.4862440">
        <ele>972.8</ele>
        <time>2020-01-03T12:35:05Z</time>
      </trkpt>
      <trkpt lat="39.6347300" lon="2.4862500">
        <ele>974.0</ele>
        <time>2020-01-03T12:35:10Z</time>
      </trkpt>
      <trkpt lat="39.6347140" lon="2.4862740">
        <ele>975.2</ele>
        <time>2020-01-03T12:35:15Z</time>
      </trkpt>
      <trkpt lat="39.6346940" lon="2.4863060">
        <ele>976.4</ele>
        <time>2020-01-03T12:35:20Z</time>
      </trkpt>
      <trkpt lat="39.6346620" lon="2.4863280">
        <ele>977.6</ele>
        <time>2020-01-03T12:35:25Z</time>
      </trkpt>
      <trkpt lat="39.6346310" lon="2.4863350">
        <ele>978.6</ele>
        <time>2020-01-03T12:35:30Z</time>
      </trkpt>
      <trkpt lat="39.6345980" lon="2.4863240">
        <ele>979.8</ele>
        <time>2020-01-03T12:35:35Z</time>
      </trkpt>
      <trkpt lat="39.6345660" lon="2.4863250">
        <ele>981.0</ele>
        <time>2020-01-03T12:35:40Z</time>
      </trkpt>
      <trkpt lat="39.6345500" lon="2.4863330">
        <ele>982.2</ele>
        <time>2020-01-03T12:35:44Z</time>
      </trkpt>
      <trkpt lat="39.6345500" lon="2.4863510">
        <ele>983.4</ele>
        <time>2020-01-03T12:35:50Z</time>
      </trkpt>
      <trkpt lat="39.6345340" lon="2.4863450">
        <ele>984.6</ele>
        <time>2020-01-03T12:35:55Z</time>
      </trkpt>
      <trkpt lat="39.6345250" lon="2.4863440">
        <ele>985.6</ele>
        <time>2020-01-03T12:35:58Z</time>
      </trkpt>
      <trkpt lat="39.6345020" lon="2.4863690">
        <ele>986.8</ele>
        <time>2020-01-03T12:36:04Z</time>
      </trkpt>
      <trkpt lat="39.6344790" lon="2.4863820">
        <ele>988.0</ele>
        <time>2020-01-03T12:36:09Z</time>
      </trkpt>
      <trkpt lat="39.6344690" lon="2.4863950">
        <ele>989.2</ele>
        <time>2020-01-03T12:36:13Z</time>
      </trkpt>
      <trkpt lat="39.6344560" lon="2.4864180">
        <ele>990.2</ele>
        <time>2020-01-03T12:36:17Z</time>
      </trkpt>
      <trkpt lat="39.6344580" lon="2.4864560">
        <ele>991.2</ele>
        <time>2020-01-03T12:36:23Z</time>
      </trkpt>
      <trkpt lat="39.6344410" lon="2.4864590">
        <ele>992.6</ele>
        <time>2020-01-03T12:36:27Z</time>
      </trkpt>
      <trkpt lat="39.6344130" lon="2.4864580">
        <ele>993.8</ele>
        <time>2020-01-03T12:36:33Z</time>
      </trkpt>
      <trkpt lat="39.6343980" lon="2.4864480">
        <ele>995.2</ele>
        <time>2020-01-03T12:36:38Z</time>
      </trkpt>
      <trkpt lat="39.6343890" lon="2.4864290">
        <ele>996.4</ele>
        <time>2020-01-03T12:36:45Z</time>
      </trkpt>
      <trkpt lat="39.6343820" lon="2.4864110">
        <ele>997.4</ele>
        <time>2020-01-03T12:36:49Z</time>
      </trkpt>
      <trkpt lat="39.6343770" lon="2.4864540">
        <ele>998.4</ele>
        <time>2020-01-03T12:36:57Z</time>
      </trkpt>
      <trkpt lat="39.6343860" lon="2.4864920">
        <ele>999.2</ele>
        <time>2020-01-03T12:36:59Z</time>
      </trkpt>
      <trkpt lat="39.6343850" lon="2.4865210">
        <ele>999.8</ele>
        <time>2020-01-03T12:37:01Z</time>
      </trkpt>
      <trkpt lat="39.6343750" lon="2.4865700">
        <ele>1001.0</ele>
        <time>2020-01-03T12:37:05Z</time>
      </trkpt>
      <trkpt lat="39.6343680" lon="2.4865860">
        <ele>1002.0</ele>
        <time>2020-01-03T12:37:09Z</time>
      </trkpt>
      <trkpt lat="39.6343570" lon="2.4865690">
        <ele>1003.0</ele>
        <time>2020-01-03T12:37:12Z</time>
      </trkpt>
      <trkpt lat="39.6343460" lon="2.4865490">
        <ele>1003.4</ele>
        <time>2020-01-03T12:37:14Z</time>
      </trkpt>
      <trkpt lat="39.6343320" lon="2.4865450">
        <ele>1004.2</ele>
        <time>2020-01-03T12:37:16Z</time>
      </trkpt>
      <trkpt lat="39.6343080" lon="2.4865160">
        <ele>1005.4</ele>
        <time>2020-01-03T12:37:21Z</time>
      </trkpt>
      <trkpt lat="39.6342770" lon="2.4864970">
        <ele>1006.6</ele>
        <time>2020-01-03T12:37:26Z</time>
      </trkpt>
      <trkpt lat="39.6342610" lon="2.4865090">
        <ele>1007.8</ele>
        <time>2020-01-03T12:37:29Z</time>
      </trkpt>
      <trkpt lat="39.6342430" lon="2.4865180">
        <ele>1008.8</ele>
        <time>2020-01-03T12:37:33Z</time>
      </trkpt>
      <trkpt lat="39.6342120" lon="2.4865380">
        <ele>1010.0</ele>
        <time>2020-01-03T12:37:38Z</time>
      </trkpt>
      <trkpt lat="39.6342000" lon="2.4865710">
        <ele>1011.0</ele>
        <time>2020-01-03T12:37:43Z</time>
      </trkpt>
      <trkpt lat="39.6341690" lon="2.4866090">
        <ele>1012.2</ele>
        <time>2020-01-03T12:37:49Z</time>
      </trkpt>
      <trkpt lat="39.6341010" lon="2.4866320">
        <ele>1013.2</ele>
        <time>2020-01-03T12:38:01Z</time>
      </trkpt>
      <trkpt lat="39.6340850" lon="2.4866250">
        <ele>1014.4</ele>
        <time>2020-01-03T12:38:08Z</time>
      </trkpt>
      <trkpt lat="39.6340820" lon="2.4866420">
        <ele>1014.6</ele>
        <time>2020-01-03T12:38:22Z</time>
      </trkpt>
      <trkpt lat="39.6340710" lon="2.4866610">
        <ele>1015.6</ele>
        <time>2020-01-03T12:38:25Z</time>
      </trkpt>
      <trkpt lat="39.6340710" lon="2.4866700">
        <ele>1016.8</ele>
        <time>2020-01-03T12:38:32Z</time>
      </trkpt>
      <trkpt lat="39.6340670" lon="2.4867230">
        <ele>1015.6</ele>
        <time>2020-01-03T12:38:49Z</time>
      </trkpt>
      <trkpt lat="39.6340610" lon="2.4867710">
        <ele>1017.0</ele>
        <time>2020-01-03T12:39:00Z</time>
      </trkpt>
      <trkpt lat="39.6340490" lon="2.4867950">
        <ele>1018.2</ele>
        <time>2020-01-03T12:39:06Z</time>
      </trkpt>
      <trkpt lat="39.6340320" lon="2.4868060">
        <ele>1019.2</ele>
        <time>2020-01-03T12:39:09Z</time>
      </trkpt>
      <trkpt lat="39.6340050" lon="2.4868060">
        <ele>1020.8</ele>
        <time>2020-01-03T12:39:13Z</time>
      </trkpt>
      <trkpt lat="39.6339910" lon="2.4867890">
        <ele>1022.4</ele>
        <time>2020-01-03T12:39:19Z</time>
      </trkpt>
      <trkpt lat="39.6339830" lon="2.4867830">
        <ele>1023.4</ele>
        <time>2020-01-03T12:39:23Z</time>
      </trkpt>
      <trkpt lat="39.6339740" lon="2.4867800">
        <ele>1024.6</ele>
        <time>2020-01-03T12:39:27Z</time>
      </trkpt>
      <trkpt lat="39.6339660" lon="2.4867450">
        <ele>1025.6</ele>
        <time>2020-01-03T12:39:36Z</time>
      </trkpt>
      <trkpt lat="39.6339490" lon="2.4867390">
        <ele>1026.6</ele>
        <time>2020-01-03T12:39:41Z</time>
      </trkpt>
      <trkpt lat="39.6339430" lon="2.4867380">
        <ele>1027.6</ele>
        <time>2020-01-03T12:39:43Z</time>
      </trkpt>
      <trkpt lat="39.6339290" lon="2.4867300">
        <ele>1028.8</ele>
        <time>2020-01-03T12:39:47Z</time>
      </trkpt>
      <trkpt lat="39.6339240" lon="2.4867140">
        <ele>1029.8</ele>
        <time>2020-01-03T12:39:52Z</time>
      </trkpt>
      <trkpt lat="39.6339170" lon="2.4867050">
        <ele>1031.0</ele>
        <time>2020-01-03T12:39:55Z</time>
      </trkpt>
      <trkpt lat="39.6339000" lon="2.4866880">
        <ele>1032.0</ele>
        <time>2020-01-03T12:40:00Z</time>
      </trkpt>
      <trkpt lat="39.6338950" lon="2.4866750">
        <ele>1033.2</ele>
        <time>2020-01-03T12:40:42Z</time>
      </trkpt>
      <trkpt lat="39.6338970" lon="2.4866720">
        <ele>1034.4</ele>
        <time>2020-01-03T12:41:41Z</time>
      </trkpt>
      <trkpt lat="39.6338950" lon="2.4866690">
        <ele>1035.4</ele>
        <time>2020-01-03T12:41:51Z</time>
      </trkpt>
      <trkpt lat="39.6338990" lon="2.4866510">
        <ele>1036.4</ele>
        <time>2020-01-03T12:44:12Z</time>
      </trkpt>
      <trkpt lat="39.6339400" lon="2.4866200">
        <ele>1035.2</ele>
        <time>2020-01-03T12:45:20Z</time>
      </trkpt>
      <trkpt lat="39.6339390" lon="2.4865920">
        <ele>1033.8</ele>
        <time>2020-01-03T12:45:24Z</time>
      </trkpt>
      <trkpt lat="39.6339620" lon="2.4865350">
        <ele>1032.8</ele>
        <time>2020-01-03T12:45:35Z</time>
      </trkpt>
      <trkpt lat="39.6339900" lon="2.4865270">
        <ele>1031.6</ele>
        <time>2020-01-03T12:45:43Z</time>
      </trkpt>
      <trkpt lat="39.6340270" lon="2.4865200">
        <ele>1030.4</ele>
        <time>2020-01-03T12:45:48Z</time>
      </trkpt>
      <trkpt lat="39.6340350" lon="2.4864900">
        <ele>1029.2</ele>
        <time>2020-01-03T12:45:53Z</time>
      </trkpt>
      <trkpt lat="39.6340550" lon="2.4864560">
        <ele>1028.2</ele>
        <time>2020-01-03T12:46:03Z</time>
      </trkpt>
      <trkpt lat="39.6340740" lon="2.4864310">
        <ele>1027.2</ele>
        <time>2020-01-03T12:46:10Z</time>
      </trkpt>
      <trkpt lat="39.6340810" lon="2.4864090">
        <ele>1026.0</ele>
        <time>2020-01-03T12:46:14Z</time>
      </trkpt>
      <trkpt lat="39.6341070" lon="2.4863910">
        <ele>1024.8</ele>
        <time>2020-01-03T12:46:19Z</time>
      </trkpt>
      <trkpt lat="39.6341550" lon="2.4863730">
        <ele>1023.8</ele>
        <time>2020-01-03T12:46:24Z</time>
      </trkpt>
      <trkpt lat="39.6341870" lon="2.4863670">
        <ele>1023.0</ele>
        <time>2020-01-03T12:46:28Z</time>
      </trkpt>
      <trkpt lat="39.6341940" lon="2.4863530">
        <ele>1022.6</ele>
        <time>2020-01-03T12:46:30Z</time>
      </trkpt>
      <trkpt lat="39.6342150" lon="2.4863410">
        <ele>1021.2</ele>
        <time>2020-01-03T12:46:34Z</time>
      </trkpt>
      <trkpt lat="39.6342210" lon="2.4863670">
        <ele>1021.2</ele>
        <time>2020-01-03T12:46:36Z</time>
      </trkpt>
      <trkpt lat="39.6342190" lon="2.4863840">
        <ele>1021.0</ele>
        <time>2020-01-03T12:46:38Z</time>
      </trkpt>
      <trkpt lat="39.6342000" lon="2.4863980">
        <ele>1019.8</ele>
        <time>2020-01-03T12:46:44Z</time>
      </trkpt>
      <trkpt lat="39.6341930" lon="2.4863980">
        <ele>1018.8</ele>
        <time>2020-01-03T12:46:49Z</time>
      </trkpt>
      <trkpt lat="39.6342030" lon="2.4864350">
        <ele>1017.8</ele>
        <time>2020-01-03T12:46:55Z</time>
      </trkpt>
      <trkpt lat="39.6342030" lon="2.4864530">
        <ele>1016.8</ele>
        <time>2020-01-03T12:47:00Z</time>
      </trkpt>
      <trkpt lat="39.6342220" lon="2.4864900">
        <ele>1015.6</ele>
        <time>2020-01-03T12:47:04Z</time>
      </trkpt>
      <trkpt lat="39.6342380" lon="2.4864800">
        <ele>1014.6</ele>
        <time>2020-01-03T12:47:26Z</time>
      </trkpt>
      <trkpt lat="39.6342600" lon="2.4864710">
        <ele>1013.4</ele>
        <time>2020-01-03T12:47:30Z</time>
      </trkpt>
      <trkpt lat="39.6342880" lon="2.4864690">
        <ele>1012.0</ele>
        <time>2020-01-03T12:47:34Z</time>
      </trkpt>
      <trkpt lat="39.6343100" lon="2.4864940">
        <ele>1011.0</ele>
        <time>2020-01-03T12:47:37Z</time>
      </trkpt>
      <trkpt lat="39.6343390" lon="2.4865210">
        <ele>1009.8</ele>
        <time>2020-01-03T12:47:41Z</time>
      </trkpt>
      <trkpt lat="39.6343440" lon="2.4865270">
        <ele>1009.0</ele>
        <time>2020-01-03T12:47:42Z</time>
      </trkpt>
      <trkpt lat="39.6343470" lon="2.4865320">
        <ele>1008.6</ele>
        <time>2020-01-03T12:47:43Z</time>
      </trkpt>
      <trkpt lat="39.6343620" lon="2.4865350">
        <ele>1007.0</ele>
        <time>2020-01-03T12:47:49Z</time>
      </trkpt>
      <trkpt lat="39.6343700" lon="2.4865080">
        <ele>1005.8</ele>
        <time>2020-01-03T12:47:53Z</time>
      </trkpt>
      <trkpt lat="39.6343680" lon="2.4864730">
        <ele>1004.8</ele>
        <time>2020-01-03T12:48:00Z</time>
      </trkpt>
      <trkpt lat="39.6343710" lon="2.4864640">
        <ele>1003.8</ele>
        <time>2020-01-03T12:48:05Z</time>
      </trkpt>
      <trkpt lat="39.6343690" lon="2.4864380">
        <ele>1002.6</ele>
        <time>2020-01-03T12:48:10Z</time>
      </trkpt>
      <trkpt lat="39.6343960" lon="2.4864380">
        <ele>1001.4</ele>
        <time>2020-01-03T12:48:16Z</time>
      </trkpt>
      <trkpt lat="39.6344160" lon="2.4864710">
        <ele>1000.4</ele>
        <time>2020-01-03T12:48:20Z</time>
      </trkpt>
      <trkpt lat="39.6344480" lon="2.4864920">
        <ele>999.4</ele>
        <time>2020-01-03T12:48:26Z</time>
      </trkpt>
      <trkpt lat="39.6344550" lon="2.4864690">
        <ele>998.4</ele>
        <time>2020-01-03T12:48:31Z</time>
      </trkpt>
      <trkpt lat="39.6344600" lon="2.4864560">
        <ele>997.0</ele>
        <time>2020-01-03T12:48:35Z</time>
      </trkpt>
      <trkpt lat="39.6344830" lon="2.4864350">
        <ele>995.8</ele>
        <time>2020-01-03T12:48:41Z</time>
      </trkpt>
      <trkpt lat="39.6345020" lon="2.4864260">
        <ele>994.8</ele>
        <time>2020-01-03T12:48:45Z</time>
      </trkpt>
      <trkpt lat="39.6345050" lon="2.4863990">
        <ele>993.2</ele>
        <time>2020-01-03T12:48:50Z</time>
      </trkpt>
      <trkpt lat="39.6345150" lon="2.4863700">
        <ele>992.2</ele>
        <time>2020-01-03T12:48:55Z</time>
      </trkpt>
      <trkpt lat="39.6345130" lon="2.4863720">
        <ele>991.2</ele>
        <time>2020-01-03T12:48:59Z</time>
      </trkpt>
      <trkpt lat="39.6345240" lon="2.4863650">
        <ele>990.2</ele>
        <time>2020-01-03T12:49:02Z</time>
      </trkpt>
      <trkpt lat="39.6345500" lon="2.4863390">
        <ele>989.0</ele>
        <time>2020-01-03T12:49:06Z</time>
      </trkpt>
      <trkpt lat="39.6345780" lon="2.4863280">
        <ele>987.8</ele>
        <time>2020-01-03T12:49:10Z</time>
      </trkpt>
      <trkpt lat="39.6345920" lon="2.4863070">
        <ele>986.6</ele>
        <time>2020-01-03T12:49:16Z</time>
      </trkpt>
      <trkpt lat="39.6346010" lon="2.4862940">
        <ele>985.4</ele>
        <time>2020-01-03T12:49:21Z</time>
      </trkpt>
      <trkpt lat="39.6346040" lon="2.4862750">
        <ele>984.2</ele>
        <time>2020-01-03T12:49:24Z</time>
      </trkpt>
      <trkpt lat="39.6346290" lon="2.4862650">
        <ele>983.4</ele>
        <time>2020-01-03T12:49:27Z</time>
      </trkpt>
      <trkpt lat="39.6346360" lon="2.4862580">
        <ele>983.2</ele>
        <time>2020-01-03T12:49:28Z</time>
      </trkpt>
      <trkpt lat="39.6346560" lon="2.4862410">
        <ele>982.2</ele>
        <time>2020-01-03T12:49:31Z</time>
      </trkpt>
      <trkpt lat="39.6346600" lon="2.4862350">
        <ele>981.8</ele>
        <time>2020-01-03T12:49:32Z</time>
      </trkpt>
      <trkpt lat="39.6346710" lon="2.4862030">
        <ele>980.8</ele>
        <time>2020-01-03T12:49:35Z</time>
      </trkpt>
      <trkpt lat="39.6346780" lon="2.4861900">
        <ele>980.2</ele>
        <time>2020-01-03T12:49:36Z</time>
      </trkpt>
      <trkpt lat="39.6346930" lon="2.4861810">
        <ele>979.6</ele>
        <time>2020-01-03T12:49:38Z</time>
      </trkpt>
      <trkpt lat="39.6347040" lon="2.4861730">
        <ele>979.2</ele>
        <time>2020-01-03T12:49:40Z</time>
      </trkpt>
      <trkpt lat="39.6347120" lon="2.4861580">
        <ele>978.4</ele>
        <time>2020-01-03T12:49:42Z</time>
      </trkpt>
      <trkpt lat="39.6347450" lon="2.4861320">
        <ele>977.2</ele>
        <time>2020-01-03T12:49:47Z</time>
      </trkpt>
      <trkpt lat="39.6347570" lon="2.4861290">
        <ele>977.0</ele>
        <time>2020-01-03T12:49:48Z</time>
      </trkpt>
      <trkpt lat="39.6347830" lon="2.4861190">
        <ele>976.2</ele>
        <time>2020-01-03T12:49:51Z</time>
      </trkpt>
      <trkpt lat="39.6347970" lon="2.4860860">
        <ele>975.0</ele>
        <time>2020-01-03T12:49:54Z</time>
      </trkpt>
      <trkpt lat="39.6348000" lon="2.4860650">
        <ele>974.6</ele>
        <time>2020-01-03T12:49:56Z</time>
      </trkpt>
      <trkpt lat="39.6348090" lon="2.4860540">
        <ele>973.8</ele>
        <time>2020-01-03T12:49:58Z</time>
      </trkpt>
      <trkpt lat="39.6347990" lon="2.4860030">
        <ele>972.6</ele>
        <time>2020-01-03T12:50:02Z</time>
      </trkpt>
      <trkpt lat="39.6348180" lon="2.4859850">
        <ele>971.6</ele>
        <time>2020-01-03T12:50:05Z</time>
      </trkpt>
      <trkpt lat="39.6348320" lon="2.4859680">
        <ele>970.8</ele>
        <time>2020-01-03T12:50:07Z</time>
      </trkpt>
      <trkpt lat="39.6348390" lon="2.4859580">
        <ele>970.4</ele>
        <time>2020-01-03T12:50:08Z</time>
      </trkpt>
      <trkpt lat="39.6348700" lon="2.4859440">
        <ele>969.4</ele>
        <time>2020-01-03T12:50:11Z</time>
      </trkpt>
      <trkpt lat="39.6348860" lon="2.4859460">
        <ele>969.2</ele>
        <time>2020-01-03T12:50:12Z</time>
      </trkpt>
      <trkpt lat="39.6348950" lon="2.4859450">
        <ele>969.0</ele>
        <time>2020-01-03T12:50:13Z</time>
      </trkpt>
      <trkpt lat="39.6349130" lon="2.4859170">
        <ele>968.2</ele>
        <time>2020-01-03T12:50:17Z</time>
      </trkpt>
      <trkpt lat="39.6349160" lon="2.4858540">
        <ele>966.8</ele>
        <time>2020-01-03T12:50:22Z</time>
      </trkpt>
      <trkpt lat="39.6349130" lon="2.4858280">
        <ele>966.2</ele>
        <time>2020-01-03T12:50:24Z</time>
      </trkpt>
      <trkpt lat="39.6349300" lon="2.4858100">
        <ele>965.6</ele>
        <time>2020-01-03T12:50:26Z</time>
      </trkpt>
      <trkpt lat="39.6349510" lon="2.4857940">
        <ele>964.4</ele>
        <time>2020-01-03T12:50:28Z</time>
      </trkpt>
      <trkpt lat="39.6349770" lon="2.4857760">
        <ele>963.4</ele>
        <time>2020-01-03T12:50:30Z</time>
      </trkpt>
      <trkpt lat="39.6349860" lon="2.4857660">
        <ele>963.0</ele>
        <time>2020-01-03T12:50:31Z</time>
      </trkpt>
      <trkpt lat="39.6350030" lon="2.4857380">
        <ele>962.2</ele>
        <time>2020-01-03T12:50:33Z</time>
      </trkpt>
      <trkpt lat="39.6350110" lon="2.4857310">
        <ele>961.6</ele>
        <time>2020-01-03T12:50:34Z</time>
      </trkpt>
      <trkpt lat="39.6350200" lon="2.4857250">
        <ele>961.2</ele>
        <time>2020-01-03T12:50:35Z</time>
      </trkpt>
      <trkpt lat="39.6350500" lon="2.4857100">
        <ele>960.0</ele>
        <time>2020-01-03T12:50:38Z</time>
      </trkpt>
      <trkpt lat="39.6350840" lon="2.4856920">
        <ele>958.6</ele>
        <time>2020-01-03T12:50:41Z</time>
      </trkpt>
      <trkpt lat="39.6351020" lon="2.4856740">
        <ele>957.4</ele>
        <time>2020-01-03T12:50:43Z</time>
      </trkpt>
      <trkpt lat="39.6351230" lon="2.4856600">
        <ele>956.2</ele>
        <time>2020-01-03T12:50:45Z</time>
      </trkpt>
      <trkpt lat="39.6351400" lon="2.4856440">
        <ele>954.8</ele>
        <time>2020-01-03T12:50:47Z</time>
      </trkpt>
      <trkpt lat="39.6351600" lon="2.4856330">
        <ele>953.6</ele>
        <time>2020-01-03T12:50:49Z</time>
      </trkpt>
      <trkpt lat="39.6351980" lon="2.4856240">
        <ele>952.4</ele>
        <time>2020-01-03T12:50:52Z</time>
      </trkpt>
      <trkpt lat="39.6352330" lon="2.4856020">
        <ele>951.4</ele>
        <time>2020-01-03T12:50:55Z</time>
      </trkpt>
      <trkpt lat="39.6352480" lon="2.4855870">
        <ele>950.8</ele>
        <time>2020-01-03T12:50:57Z</time>
      </trkpt>
      <trkpt lat="39.6352510" lon="2.4855760">
        <ele>950.2</ele>
        <time>2020-01-03T12:50:58Z</time>
      </trkpt>
      <trkpt lat="39.6352610" lon="2.4855640">
        <ele>949.8</ele>
        <time>2020-01-03T12:50:59Z</time>
      </trkpt>
      <trkpt lat="39.6352800" lon="2.4855490">
        <ele>948.8</ele>
        <time>2020-01-03T12:51:01Z</time>
      </trkpt>
      <trkpt lat="39.6353060" lon="2.4855320">
        <ele>947.6</ele>
        <time>2020-01-03T12:51:03Z</time>
      </trkpt>
      <trkpt lat="39.6353240" lon="2.4855460">
        <ele>947.0</ele>
        <time>2020-01-03T12:51:05Z</time>
      </trkpt>
      <trkpt lat="39.6353440" lon="2.4855470">
        <ele>946.6</ele>
        <time>2020-01-03T12:51:07Z</time>
      </trkpt>
      <trkpt lat="39.6353620" lon="2.4855350">
        <ele>945.2</ele>
        <time>2020-01-03T12:51:10Z</time>
      </trkpt>
      <trkpt lat="39.6353810" lon="2.4855240">
        <ele>944.2</ele>
        <time>2020-01-03T12:51:12Z</time>
      </trkpt>
      <trkpt lat="39.6354050" lon="2.4855370">
        <ele>942.8</ele>
        <time>2020-01-03T12:51:17Z</time>
      </trkpt>
      <trkpt lat="39.6354140" lon="2.4855330">
        <ele>941.6</ele>
        <time>2020-01-03T12:51:19Z</time>
      </trkpt>
      <trkpt lat="39.6354360" lon="2.4855310">
        <ele>940.6</ele>
        <time>2020-01-03T12:51:22Z</time>
      </trkpt>
      <trkpt lat="39.6354600" lon="2.4855160">
        <ele>939.2</ele>
        <time>2020-01-03T12:51:25Z</time>
      </trkpt>
      <trkpt lat="39.6354790" lon="2.4854770">
        <ele>938.0</ele>
        <time>2020-01-03T12:51:29Z</time>
      </trkpt>
      <trkpt lat="39.6354930" lon="2.4854520">
        <ele>936.8</ele>
        <time>2020-01-03T12:51:31Z</time>
      </trkpt>
      <trkpt lat="39.6355030" lon="2.4854250">
        <ele>935.4</ele>
        <time>2020-01-03T12:51:33Z</time>
      </trkpt>
      <trkpt lat="39.6355170" lon="2.4853910">
        <ele>934.4</ele>
        <time>2020-01-03T12:51:35Z</time>
      </trkpt>
      <trkpt lat="39.6355210" lon="2.4853300">
        <ele>933.2</ele>
        <time>2020-01-03T12:51:39Z</time>
      </trkpt>
      <trkpt lat="39.6355160" lon="2.4852980">
        <ele>932.0</ele>
        <time>2020-01-03T12:51:41Z</time>
      </trkpt>
      <trkpt lat="39.6355180" lon="2.4852630">
        <ele>931.2</ele>
        <time>2020-01-03T12:51:43Z</time>
      </trkpt>
      <trkpt lat="39.6355230" lon="2.4852470">
        <ele>930.8</ele>
        <time>2020-01-03T12:51:44Z</time>
      </trkpt>
      <trkpt lat="39.6355450" lon="2.4852280">
        <ele>929.8</ele>
        <time>2020-01-03T12:51:46Z</time>
      </trkpt>
      <trkpt lat="39.6355570" lon="2.4852270">
        <ele>929.6</ele>
        <time>2020-01-03T12:51:47Z</time>
      </trkpt>
      <trkpt lat="39.6355860" lon="2.4852460">
        <ele>929.0</ele>
        <time>2020-01-03T12:51:51Z</time>
      </trkpt>
      <trkpt lat="39.6356070" lon="2.4852440">
        <ele>928.4</ele>
        <time>2020-01-03T12:51:53Z</time>
      </trkpt>
      <trkpt lat="39.6356370" lon="2.4852480">
        <ele>927.0</ele>
        <time>2020-01-03T12:51:58Z</time>
      </trkpt>
      <trkpt lat="39.6356610" lon="2.4852380">
        <ele>925.6</ele>
        <time>2020-01-03T12:52:03Z</time>
      </trkpt>
      <trkpt lat="39.6356650" lon="2.4852210">
        <ele>924.4</ele>
        <time>2020-01-03T12:52:07Z</time>
      </trkpt>
      <trkpt lat="39.6356580" lon="2.4851920">
        <ele>922.6</ele>
        <time>2020-01-03T12:52:13Z</time>
      </trkpt>
      <trkpt lat="39.6356710" lon="2.4851570">
        <ele>921.4</ele>
        <time>2020-01-03T12:52:17Z</time>
      </trkpt>
      <trkpt lat="39.6356820" lon="2.4851380">
        <ele>920.0</ele>
        <time>2020-01-03T12:52:20Z</time>
      </trkpt>
      <trkpt lat="39.6357050" lon="2.4851210">
        <ele>918.6</ele>
        <time>2020-01-03T12:52:23Z</time>
      </trkpt>
      <trkpt lat="39.6357260" lon="2.4850800">
        <ele>917.6</ele>
        <time>2020-01-03T12:52:27Z</time>
      </trkpt>
      <trkpt lat="39.6357320" lon="2.4850740">
        <ele>917.6</ele>
        <time>2020-01-03T12:52:28Z</time>
      </trkpt>
      <trkpt lat="39.6357390" lon="2.4850640">
        <ele>916.2</ele>
        <time>2020-01-03T12:52:31Z</time>
      </trkpt>
      <trkpt lat="39.6357300" lon="2.4850320">
        <ele>915.0</ele>
        <time>2020-01-03T12:52:36Z</time>
      </trkpt>
      <trkpt lat="39.6357390" lon="2.4849820">
        <ele>913.6</ele>
        <time>2020-01-03T12:52:39Z</time>
      </trkpt>
      <trkpt lat="39.6357560" lon="2.4849800">
        <ele>912.6</ele>
        <time>2020-01-03T12:52:41Z</time>
      </trkpt>
      <trkpt lat="39.6357650" lon="2.4849750">
        <ele>912.2</ele>
        <time>2020-01-03T12:52:42Z</time>
      </trkpt>
      <trkpt lat="39.6357970" lon="2.4849570">
        <ele>911.0</ele>
        <time>2020-01-03T12:52:45Z</time>
      </trkpt>
      <trkpt lat="39.6358140" lon="2.4849390">
        <ele>909.8</ele>
        <time>2020-01-03T12:52:47Z</time>
      </trkpt>
      <trkpt lat="39.6358170" lon="2.4849280">
        <ele>909.2</ele>
        <time>2020-01-03T12:52:48Z</time>
      </trkpt>
      <trkpt lat="39.6358210" lon="2.4849110">
        <ele>908.8</ele>
        <time>2020-01-03T12:52:49Z</time>
      </trkpt>
      <trkpt lat="39.6358420" lon="2.4848840">
        <ele>907.6</ele>
        <time>2020-01-03T12:52:51Z</time>
      </trkpt>
      <trkpt lat="39.6358590" lon="2.4848520">
        <ele>906.2</ele>
        <time>2020-01-03T12:52:53Z</time>
      </trkpt>
      <trkpt lat="39.6358670" lon="2.4848160">
        <ele>904.6</ele>
        <time>2020-01-03T12:52:55Z</time>
      </trkpt>
      <trkpt lat="39.6358750" lon="2.4847790">
        <ele>903.4</ele>
        <time>2020-01-03T12:52:57Z</time>
      </trkpt>
      <trkpt lat="39.6358820" lon="2.4847450">
        <ele>902.2</ele>
        <time>2020-01-03T12:52:59Z</time>
      </trkpt>
      <trkpt lat="39.6358920" lon="2.4847320">
        <ele>901.6</ele>
        <time>2020-01-03T12:53:00Z</time>
      </trkpt>
      <trkpt lat="39.6359010" lon="2.4847230">
        <ele>901.0</ele>
        <time>2020-01-03T12:53:01Z</time>
      </trkpt>
      <trkpt lat="39.6359110" lon="2.4846890">
        <ele>899.8</ele>
        <time>2020-01-03T12:53:03Z</time>
      </trkpt>
      <trkpt lat="39.6359170" lon="2.4846470">
        <ele>898.4</ele>
        <time>2020-01-03T12:53:05Z</time>
      </trkpt>
      <trkpt lat="39.6359120" lon="2.4846010">
        <ele>897.4</ele>
        <time>2020-01-03T12:53:07Z</time>
      </trkpt>
      <trkpt lat="39.6359140" lon="2.4845840">
        <ele>897.0</ele>
        <time>2020-01-03T12:53:08Z</time>
      </trkpt>
      <trkpt lat="39.6359190" lon="2.4845680">
        <ele>896.4</ele>
        <time>2020-01-03T12:53:10Z</time>
      </trkpt>
      <trkpt lat="39.6359230" lon="2.4845630">
        <ele>895.6</ele>
        <time>2020-01-03T12:53:11Z</time>
      </trkpt>
      <trkpt lat="39.6359390" lon="2.4845490">
        <ele>894.4</ele>
        <time>2020-01-03T12:53:13Z</time>
      </trkpt>
      <trkpt lat="39.6359420" lon="2.4845350">
        <ele>894.0</ele>
        <time>2020-01-03T12:53:14Z</time>
      </trkpt>
      <trkpt lat="39.6359410" lon="2.4845180">
        <ele>893.2</ele>
        <time>2020-01-03T12:53:15Z</time>
      </trkpt>
      <trkpt lat="39.6359450" lon="2.4844850">
        <ele>892.4</ele>
        <time>2020-01-03T12:53:17Z</time>
      </trkpt>
      <trkpt lat="39.6359540" lon="2.4844810">
        <ele>892.0</ele>
        <time>2020-01-03T12:53:18Z</time>
      </trkpt>
      <trkpt lat="39.6359650" lon="2.4844860">
        <ele>891.8</ele>
        <time>2020-01-03T12:53:20Z</time>
      </trkpt>
      <trkpt lat="39.6359770" lon="2.4844820">
        <ele>890.8</ele>
        <time>2020-01-03T12:53:22Z</time>
      </trkpt>
      <trkpt lat="39.6359930" lon="2.4844700">
        <ele>889.8</ele>
        <time>2020-01-03T12:53:25Z</time>
      </trkpt>
      <trkpt lat="39.6360020" lon="2.4844480">
        <ele>888.6</ele>
        <time>2020-01-03T12:53:28Z</time>
      </trkpt>
      <trkpt lat="39.6360150" lon="2.4844110">
        <ele>887.2</ele>
        <time>2020-01-03T12:53:32Z</time>
      </trkpt>
      <trkpt lat="39.6360120" lon="2.4843860">
        <ele>886.0</ele>
        <time>2020-01-03T12:53:34Z</time>
      </trkpt>
      <trkpt lat="39.6360130" lon="2.4843710">
        <ele>885.4</ele>
        <time>2020-01-03T12:53:35Z</time>
      </trkpt>
      <trkpt lat="39.6360250" lon="2.4843600">
        <ele>884.8</ele>
        <time>2020-01-03T12:53:37Z</time>
      </trkpt>
      <trkpt lat="39.6360540" lon="2.4843670">
        <ele>883.6</ele>
        <time>2020-01-03T12:53:40Z</time>
      </trkpt>
      <trkpt lat="39.6360690" lon="2.4843760">
        <ele>883.0</ele>
        <time>2020-01-03T12:53:41Z</time>
      </trkpt>
      <trkpt lat="39.6360950" lon="2.4843860">
        <ele>882.0</ele>
        <time>2020-01-03T12:53:43Z</time>
      </trkpt>
      <trkpt lat="39.6361230" lon="2.4843730">
        <ele>881.4</ele>
        <time>2020-01-03T12:53:45Z</time>
      </trkpt>
      <trkpt lat="39.6361400" lon="2.4843720">
        <ele>880.8</ele>
        <time>2020-01-03T12:53:46Z</time>
      </trkpt>
      <trkpt lat="39.6361750" lon="2.4843750">
        <ele>879.6</ele>
        <time>2020-01-03T12:53:48Z</time>
      </trkpt>
      <trkpt lat="39.6362290" lon="2.4844300">
        <ele>878.4</ele>
        <time>2020-01-03T12:53:51Z</time>
      </trkpt>
      <trkpt lat="39.6362960" lon="2.4844490">
        <ele>877.0</ele>
        <time>2020-01-03T12:53:54Z</time>
      </trkpt>
      <trkpt lat="39.6363720" lon="2.4844550">
        <ele>875.6</ele>
        <time>2020-01-03T12:53:57Z</time>
      </trkpt>
      <trkpt lat="39.6364220" lon="2.4844770">
        <ele>874.6</ele>
        <time>2020-01-03T12:53:59Z</time>
      </trkpt>
      <trkpt lat="39.6364470" lon="2.4844990">
        <ele>874.0</ele>
        <time>2020-01-03T12:54:00Z</time>
      </trkpt>
      <trkpt lat="39.6364880" lon="2.4845620">
        <ele>873.2</ele>
        <time>2020-01-03T12:54:02Z</time>
      </trkpt>
      <trkpt lat="39.6365570" lon="2.4846240">
        <ele>871.6</ele>
        <time>2020-01-03T12:54:05Z</time>
      </trkpt>
      <trkpt lat="39.6366350" lon="2.4846760">
        <ele>870.0</ele>
        <time>2020-01-03T12:54:08Z</time>
      </trkpt>
      <trkpt lat="39.6366880" lon="2.4847070">
        <ele>869.0</ele>
        <time>2020-01-03T12:54:10Z</time>
      </trkpt>
      <trkpt lat="39.6367710" lon="2.4847430">
        <ele>867.8</ele>
        <time>2020-01-03T12:54:13Z</time>
      </trkpt>
      <trkpt lat="39.6368300" lon="2.4847830">
        <ele>866.8</ele>
        <time>2020-01-03T12:54:16Z</time>
      </trkpt>
      <trkpt lat="39.6368890" lon="2.4848990">
        <ele>865.6</ele>
        <time>2020-01-03T12:54:23Z</time>
      </trkpt>
      <trkpt lat="39.6368940" lon="2.4849270">
        <ele>864.6</ele>
        <time>2020-01-03T12:54:28Z</time>
      </trkpt>
      <trkpt lat="39.6368850" lon="2.4849580">
        <ele>863.6</ele>
        <time>2020-01-03T12:54:33Z</time>
      </trkpt>
      <trkpt lat="39.6368770" lon="2.4849910">
        <ele>862.4</ele>
        <time>2020-01-03T12:54:38Z</time>
      </trkpt>
      <trkpt lat="39.6368900" lon="2.4849920">
        <ele>861.2</ele>
        <time>2020-01-03T12:54:42Z</time>
      </trkpt>
      <trkpt lat="39.6369120" lon="2.4849930">
        <ele>859.8</ele>
        <time>2020-01-03T12:54:45Z</time>
      </trkpt>
      <trkpt lat="39.6369240" lon="2.4849990">
        <ele>859.4</ele>
        <time>2020-01-03T12:54:46Z</time>
      </trkpt>
      <trkpt lat="39.6369430" lon="2.4850160">
        <ele>858.8</ele>
        <time>2020-01-03T12:54:48Z</time>
      </trkpt>
      <trkpt lat="39.6369420" lon="2.4850410">
        <ele>857.6</ele>
        <time>2020-01-03T12:54:51Z</time>
      </trkpt>
      <trkpt lat="39.6369340" lon="2.4850590">
        <ele>856.8</ele>
        <time>2020-01-03T12:54:53Z</time>
      </trkpt>
      <trkpt lat="39.6369340" lon="2.4850790">
        <ele>856.6</ele>
        <time>2020-01-03T12:54:55Z</time>
      </trkpt>
      <trkpt lat="39.6369320" lon="2.4850880">
        <ele>856.2</ele>
        <time>2020-01-03T12:54:56Z</time>
      </trkpt>
      <trkpt lat="39.6369250" lon="2.4851130">
        <ele>855.2</ele>
        <time>2020-01-03T12:54:58Z</time>
      </trkpt>
      <trkpt lat="39.6369160" lon="2.4851530">
        <ele>854.6</ele>
        <time>2020-01-03T12:55:00Z</time>
      </trkpt>
      <trkpt lat="39.6369120" lon="2.4852010">
        <ele>853.8</ele>
        <time>2020-01-03T12:55:02Z</time>
      </trkpt>
      <trkpt lat="39.6369100" lon="2.4852480">
        <ele>853.0</ele>
        <time>2020-01-03T12:55:04Z</time>
      </trkpt>
      <trkpt lat="39.6369140" lon="2.4852620">
        <ele>852.2</ele>
        <time>2020-01-03T12:55:05Z</time>
      </trkpt>
      <trkpt lat="39.6369160" lon="2.4853190">
        <ele>851.2</ele>
        <time>2020-01-03T12:55:09Z</time>
      </trkpt>
      <trkpt lat="39.6369170" lon="2.4853240">
        <ele>850.8</ele>
        <time>2020-01-03T12:55:10Z</time>
      </trkpt>
      <trkpt lat="39.6369190" lon="2.4853490">
        <ele>850.2</ele>
        <time>2020-01-03T12:55:14Z</time>
      </trkpt>
      <trkpt lat="39.6369280" lon="2.4853430">
        <ele>848.8</ele>
        <time>2020-01-03T12:55:17Z</time>
      </trkpt>
      <trkpt lat="39.6369500" lon="2.4853280">
        <ele>847.6</ele>
        <time>2020-01-03T12:55:20Z</time>
      </trkpt>
      <trkpt lat="39.6369680" lon="2.4852920">
        <ele>846.4</ele>
        <time>2020-01-03T12:55:23Z</time>
      </trkpt>
      <trkpt lat="39.6369840" lon="2.4852840">
        <ele>845.4</ele>
        <time>2020-01-03T12:55:25Z</time>
      </trkpt>
      <trkpt lat="39.6369910" lon="2.4852890">
        <ele>844.6</ele>
        <time>2020-01-03T12:55:26Z</time>
      </trkpt>
      <trkpt lat="39.6369950" lon="2.4852920">
        <ele>844.2</ele>
        <time>2020-01-03T12:55:28Z</time>
      </trkpt>
      <trkpt lat="39.6370040" lon="2.4853060">
        <ele>843.2</ele>
        <time>2020-01-03T12:55:30Z</time>
      </trkpt>
      <trkpt lat="39.6370170" lon="2.4853300">
        <ele>841.6</ele>
        <time>2020-01-03T12:55:33Z</time>
      </trkpt>
      <trkpt lat="39.6370180" lon="2.4853630">
        <ele>840.6</ele>
        <time>2020-01-03T12:55:36Z</time>
      </trkpt>
      <trkpt lat="39.6370220" lon="2.4853900">
        <ele>839.4</ele>
        <time>2020-01-03T12:55:38Z</time>
      </trkpt>
      <trkpt lat="39.6370370" lon="2.4854170">
        <ele>838.2</ele>
        <time>2020-01-03T12:55:40Z</time>
      </trkpt>
      <trkpt lat="39.6370390" lon="2.4854610">
        <ele>837.2</ele>
        <time>2020-01-03T12:55:42Z</time>
      </trkpt>
      <trkpt lat="39.6370170" lon="2.4855550">
        <ele>836.0</ele>
        <time>2020-01-03T12:55:46Z</time>
      </trkpt>
      <trkpt lat="39.6370190" lon="2.4855790">
        <ele>835.4</ele>
        <time>2020-01-03T12:55:47Z</time>
      </trkpt>
      <trkpt lat="39.6370290" lon="2.4856000">
        <ele>834.8</ele>
        <time>2020-01-03T12:55:48Z</time>
      </trkpt>
      <trkpt lat="39.6370730" lon="2.4856090">
        <ele>833.8</ele>
        <time>2020-01-03T12:55:50Z</time>
      </trkpt>
      <trkpt lat="39.6371210" lon="2.4855890">
        <ele>832.6</ele>
        <time>2020-01-03T12:55:52Z</time>
      </trkpt>
      <trkpt lat="39.6373160" lon="2.4851140">
        <ele>831.6</ele>
        <time>2020-01-03T12:56:05Z</time>
      </trkpt>
      <trkpt lat="39.6373300" lon="2.4850240">
        <ele>830.2</ele>
        <time>2020-01-03T12:56:07Z</time>
      </trkpt>
      <trkpt lat="39.6373260" lon="2.4849270">
        <ele>829.2</ele>
        <time>2020-01-03T12:56:09Z</time>
      </trkpt>
      <trkpt lat="39.6373180" lon="2.4848260">
        <ele>828.0</ele>
        <time>2020-01-03T12:56:11Z</time>
      </trkpt>
      <trkpt lat="39.6373120" lon="2.4846760">
        <ele>827.0</ele>
        <time>2020-01-03T12:56:14Z</time>
      </trkpt>
      <trkpt lat="39.6373110" lon="2.4845240">
        <ele>825.8</ele>
        <time>2020-01-03T12:56:17Z</time>
      </trkpt>
      <trkpt lat="39.6372830" lon="2.4843340">
        <ele>824.4</ele>
        <time>2020-01-03T12:56:22Z</time>
      </trkpt>
      <trkpt lat="39.6372900" lon="2.4842450">
        <ele>823.2</ele>
        <time>2020-01-03T12:56:25Z</time>
      </trkpt>
      <trkpt lat="39.6373190" lon="2.4841510">
        <ele>821.8</ele>
        <time>2020-01-03T12:56:28Z</time>
      </trkpt>
      <trkpt lat="39.6373340" lon="2.4840980">
        <ele>820.8</ele>
        <time>2020-01-03T12:56:31Z</time>
      </trkpt>
      <trkpt lat="39.6373370" lon="2.4840740">
        <ele>819.8</ele>
        <time>2020-01-03T12:56:33Z</time>
      </trkpt>
      <trkpt lat="39.6373350" lon="2.4840590">
        <ele>819.4</ele>
        <time>2020-01-03T12:56:34Z</time>
      </trkpt>
      <trkpt lat="39.6373380" lon="2.4840430">
        <ele>819.0</ele>
        <time>2020-01-03T12:56:35Z</time>
      </trkpt>
      <trkpt lat="39.6373430" lon="2.4840280">
        <ele>818.4</ele>
        <time>2020-01-03T12:56:36Z</time>
      </trkpt>
      <trkpt lat="39.6373440" lon="2.4839910">
        <ele>817.4</ele>
        <time>2020-01-03T12:56:38Z</time>
      </trkpt>
      <trkpt lat="39.6373420" lon="2.4839730">
        <ele>817.0</ele>
        <time>2020-01-03T12:56:39Z</time>
      </trkpt>
      <trkpt lat="39.6373510" lon="2.4839430">
        <ele>816.2</ele>
        <time>2020-01-03T12:56:41Z</time>
      </trkpt>
      <trkpt lat="39.6373540" lon="2.4839470">
        <ele>815.6</ele>
        <time>2020-01-03T12:56:42Z</time>
      </trkpt>
      <trkpt lat="39.6373730" lon="2.4839450">
        <ele>814.6</ele>
        <time>2020-01-03T12:56:44Z</time>
      </trkpt>
      <trkpt lat="39.6373870" lon="2.4839230">
        <ele>813.6</ele>
        <time>2020-01-03T12:56:46Z</time>
      </trkpt>
      <trkpt lat="39.6374090" lon="2.4838990">
        <ele>812.4</ele>
        <time>2020-01-03T12:56:48Z</time>
      </trkpt>
      <trkpt lat="39.6374250" lon="2.4838700">
        <ele>811.4</ele>
        <time>2020-01-03T12:56:50Z</time>
      </trkpt>
      <trkpt lat="39.6374470" lon="2.4838400">
        <ele>810.4</ele>
        <time>2020-01-03T12:56:52Z</time>
      </trkpt>
      <trkpt lat="39.6374630" lon="2.4838340">
        <ele>809.8</ele>
        <time>2020-01-03T12:56:53Z</time>
      </trkpt>
      <trkpt lat="39.6374790" lon="2.4838390">
        <ele>809.2</ele>
        <time>2020-01-03T12:56:54Z</time>
      </trkpt>
      <trkpt lat="39.6375110" lon="2.4838630">
        <ele>808.0</ele>
        <time>2020-01-03T12:56:56Z</time>
      </trkpt>
      <trkpt lat="39.6375440" lon="2.4839040">
        <ele>807.0</ele>
        <time>2020-01-03T12:56:58Z</time>
      </trkpt>
      <trkpt lat="39.6375910" lon="2.4839420">
        <ele>805.8</ele>
        <time>2020-01-03T12:57:01Z</time>
      </trkpt>
      <trkpt lat="39.6376170" lon="2.4839790">
        <ele>804.0</ele>
        <time>2020-01-03T12:57:05Z</time>
      </trkpt>
      <trkpt lat="39.6376490" lon="2.4839790">
        <ele>802.6</ele>
        <time>2020-01-03T12:57:07Z</time>
      </trkpt>
      <trkpt lat="39.6376830" lon="2.4839910">
        <ele>801.6</ele>
        <time>2020-01-03T12:57:09Z</time>
      </trkpt>
      <trkpt lat="39.6376990" lon="2.4840190">
        <ele>801.4</ele>
        <time>2020-01-03T12:57:10Z</time>
      </trkpt>
      <trkpt lat="39.6377330" lon="2.4840670">
        <ele>800.2</ele>
        <time>2020-01-03T12:57:12Z</time>
      </trkpt>
      <trkpt lat="39.6377690" lon="2.4841050">
        <ele>799.2</ele>
        <time>2020-01-03T12:57:14Z</time>
      </trkpt>
      <trkpt lat="39.6377860" lon="2.4841100">
        <ele>798.6</ele>
        <time>2020-01-03T12:57:15Z</time>
      </trkpt>
      <trkpt lat="39.6377990" lon="2.4841000">
        <ele>798.0</ele>
        <time>2020-01-03T12:57:16Z</time>
      </trkpt>
      <trkpt lat="39.6378510" lon="2.4840690">
        <ele>796.4</ele>
        <time>2020-01-03T12:57:19Z</time>
      </trkpt>
      <trkpt lat="39.6378800" lon="2.4840640">
        <ele>795.2</ele>
        <time>2020-01-03T12:57:21Z</time>
      </trkpt>
      <trkpt lat="39.6379220" lon="2.4840270">
        <ele>794.0</ele>
        <time>2020-01-03T12:57:24Z</time>
      </trkpt>
      <trkpt lat="39.6379460" lon="2.4840210">
        <ele>793.0</ele>
        <time>2020-01-03T12:57:26Z</time>
      </trkpt>
      <trkpt lat="39.6379840" lon="2.4840200">
        <ele>791.6</ele>
        <time>2020-01-03T12:57:29Z</time>
      </trkpt>
      <trkpt lat="39.6380150" lon="2.4840030">
        <ele>790.4</ele>
        <time>2020-01-03T12:57:31Z</time>
      </trkpt>
      <trkpt lat="39.6380530" lon="2.4840040">
        <ele>789.2</ele>
        <time>2020-01-03T12:57:33Z</time>
      </trkpt>
      <trkpt lat="39.6380920" lon="2.4840000">
        <ele>787.8</ele>
        <time>2020-01-03T12:57:35Z</time>
      </trkpt>
      <trkpt lat="39.6381370" lon="2.4839930">
        <ele>787.0</ele>
        <time>2020-01-03T12:57:37Z</time>
      </trkpt>
      <trkpt lat="39.6381630" lon="2.4840050">
        <ele>786.4</ele>
        <time>2020-01-03T12:57:38Z</time>
      </trkpt>
      <trkpt lat="39.6382590" lon="2.4841350">
        <ele>785.4</ele>
        <time>2020-01-03T12:57:43Z</time>
      </trkpt>
      <trkpt lat="39.6382820" lon="2.4842900">
        <ele>786.6</ele>
        <time>2020-01-03T12:57:48Z</time>
      </trkpt>
      <trkpt lat="39.6382900" lon="2.4843600">
        <ele>787.0</ele>
        <time>2020-01-03T12:57:51Z</time>
      </trkpt>
      <trkpt lat="39.6383210" lon="2.4844970">
        <ele>785.4</ele>
        <time>2020-01-03T12:57:56Z</time>
      </trkpt>
      <trkpt lat="39.6383510" lon="2.4845860">
        <ele>784.4</ele>
        <time>2020-01-03T12:57:59Z</time>
      </trkpt>
      <trkpt lat="39.6383820" lon="2.4847540">
        <ele>783.2</ele>
        <time>2020-01-03T12:58:04Z</time>
      </trkpt>
      <trkpt lat="39.6383830" lon="2.4848130">
        <ele>782.2</ele>
        <time>2020-01-03T12:58:06Z</time>
      </trkpt>
      <trkpt lat="39.6383780" lon="2.4848520">
        <ele>782.0</ele>
        <time>2020-01-03T12:58:08Z</time>
      </trkpt>
      <trkpt lat="39.6383710" lon="2.4848810">
        <ele>781.8</ele>
        <time>2020-01-03T12:58:10Z</time>
      </trkpt>
      <trkpt lat="39.6383220" lon="2.4849130">
        <ele>781.0</ele>
        <time>2020-01-03T12:58:15Z</time>
      </trkpt>
      <trkpt lat="39.6383160" lon="2.4849140">
        <ele>781.0</ele>
        <time>2020-01-03T12:58:16Z</time>
      </trkpt>
      <trkpt lat="39.6382430" lon="2.4850050">
        <ele>780.8</ele>
        <time>2020-01-03T12:58:21Z</time>
      </trkpt>
      <trkpt lat="39.6382300" lon="2.4850830">
        <ele>779.8</ele>
        <time>2020-01-03T12:58:24Z</time>
      </trkpt>
      <trkpt lat="39.6382140" lon="2.4851760">
        <ele>778.4</ele>
        <time>2020-01-03T12:58:27Z</time>
      </trkpt>
      <trkpt lat="39.6382260" lon="2.4852320">
        <ele>777.0</ele>
        <time>2020-01-03T12:58:29Z</time>
      </trkpt>
      <trkpt lat="39.6382580" lon="2.4853150">
        <ele>775.2</ele>
        <time>2020-01-03T12:58:32Z</time>
      </trkpt>
      <trkpt lat="39.6382850" lon="2.4853650">
        <ele>774.0</ele>
        <time>2020-01-03T12:58:34Z</time>
      </trkpt>
      <trkpt lat="39.6383380" lon="2.4854040">
        <ele>772.2</ele>
        <time>2020-01-03T12:58:37Z</time>
      </trkpt>
      <trkpt lat="39.6383690" lon="2.4854440">
        <ele>771.2</ele>
        <time>2020-01-03T12:58:39Z</time>
      </trkpt>
      <trkpt lat="39.6383780" lon="2.4854680">
        <ele>770.6</ele>
        <time>2020-01-03T12:58:40Z</time>
      </trkpt>
      <trkpt lat="39.6383920" lon="2.4854870">
        <ele>770.0</ele>
        <time>2020-01-03T12:58:41Z</time>
      </trkpt>
      <trkpt lat="39.6384130" lon="2.4855080">
        <ele>769.6</ele>
        <time>2020-01-03T12:58:42Z</time>
      </trkpt>
      <trkpt lat="39.6384460" lon="2.4855910">
        <ele>768.2</ele>
        <time>2020-01-03T12:58:45Z</time>
      </trkpt>
      <trkpt lat="39.6384580" lon="2.4856050">
        <ele>767.4</ele>
        <time>2020-01-03T12:58:46Z</time>
      </trkpt>
      <trkpt lat="39.6384730" lon="2.4856000">
        <ele>766.6</ele>
        <time>2020-01-03T12:58:47Z</time>
      </trkpt>
      <trkpt lat="39.6385080" lon="2.4855570">
        <ele>765.4</ele>
        <time>2020-01-03T12:58:49Z</time>
      </trkpt>
      <trkpt lat="39.6385500" lon="2.4855030">
        <ele>764.0</ele>
        <time>2020-01-03T12:58:52Z</time>
      </trkpt>
      <trkpt lat="39.6385740" lon="2.4854710">
        <ele>763.0</ele>
        <time>2020-01-03T12:58:54Z</time>
      </trkpt>
      <trkpt lat="39.6385990" lon="2.4854420">
        <ele>761.6</ele>
        <time>2020-01-03T12:58:56Z</time>
      </trkpt>
      <trkpt lat="39.6386150" lon="2.4854120">
        <ele>761.0</ele>
        <time>2020-01-03T12:58:58Z</time>
      </trkpt>
      <trkpt lat="39.6386220" lon="2.4853920">
        <ele>760.6</ele>
        <time>2020-01-03T12:58:59Z</time>
      </trkpt>
      <trkpt lat="39.6386420" lon="2.4853360">
        <ele>759.0</ele>
        <time>2020-01-03T12:59:03Z</time>
      </trkpt>
      <trkpt lat="39.6386480" lon="2.4853150">
        <ele>758.6</ele>
        <time>2020-01-03T12:59:05Z</time>
      </trkpt>
      <trkpt lat="39.6386580" lon="2.4853000">
        <ele>758.0</ele>
        <time>2020-01-03T12:59:07Z</time>
      </trkpt>
      <trkpt lat="39.6386740" lon="2.4852600">
        <ele>756.6</ele>
        <time>2020-01-03T12:59:10Z</time>
      </trkpt>
      <trkpt lat="39.6386910" lon="2.4851920">
        <ele>755.6</ele>
        <time>2020-01-03T12:59:13Z</time>
      </trkpt>
      <trkpt lat="39.6387090" lon="2.4851680">
        <ele>754.6</ele>
        <time>2020-01-03T12:59:15Z</time>
      </trkpt>
      <trkpt lat="39.6387190" lon="2.4851730">
        <ele>754.2</ele>
        <time>2020-01-03T12:59:16Z</time>
      </trkpt>
      <trkpt lat="39.6387450" lon="2.4851830">
        <ele>753.0</ele>
        <time>2020-01-03T12:59:18Z</time>
      </trkpt>
      <trkpt lat="39.6387550" lon="2.4851940">
        <ele>752.6</ele>
        <time>2020-01-03T12:59:19Z</time>
      </trkpt>
      <trkpt lat="39.6387690" lon="2.4852180">
        <ele>752.0</ele>
        <time>2020-01-03T12:59:21Z</time>
      </trkpt>
      <trkpt lat="39.6387750" lon="2.4852230">
        <ele>751.4</ele>
        <time>2020-01-03T12:59:22Z</time>
      </trkpt>
      <trkpt lat="39.6387810" lon="2.4852260">
        <ele>751.0</ele>
        <time>2020-01-03T12:59:23Z</time>
      </trkpt>
      <trkpt lat="39.6387920" lon="2.4852130">
        <ele>749.8</ele>
        <time>2020-01-03T12:59:26Z</time>
      </trkpt>
      <trkpt lat="39.6388070" lon="2.4851860">
        <ele>748.8</ele>
        <time>2020-01-03T12:59:28Z</time>
      </trkpt>
      <trkpt lat="39.6388150" lon="2.4851740">
        <ele>748.6</ele>
        <time>2020-01-03T12:59:29Z</time>
      </trkpt>
      <trkpt lat="39.6388420" lon="2.4851380">
        <ele>747.4</ele>
        <time>2020-01-03T12:59:32Z</time>
      </trkpt>
      <trkpt lat="39.6388650" lon="2.4851370">
        <ele>746.4</ele>
        <time>2020-01-03T12:59:35Z</time>
      </trkpt>
      <trkpt lat="39.6388760" lon="2.4851550">
        <ele>745.2</ele>
        <time>2020-01-03T12:59:37Z</time>
      </trkpt>
      <trkpt lat="39.6388950" lon="2.4851760">
        <ele>744.4</ele>
        <time>2020-01-03T12:59:39Z</time>
      </trkpt>
      <trkpt lat="39.6389060" lon="2.4851920">
        <ele>744.0</ele>
        <time>2020-01-03T12:59:40Z</time>
      </trkpt>
      <trkpt lat="39.6389370" lon="2.4852200">
        <ele>742.8</ele>
        <time>2020-01-03T12:59:43Z</time>
      </trkpt>
      <trkpt lat="39.6389460" lon="2.4852210">
        <ele>742.2</ele>
        <time>2020-01-03T12:59:44Z</time>
      </trkpt>
      <trkpt lat="39.6389590" lon="2.4852160">
        <ele>741.6</ele>
        <time>2020-01-03T12:59:45Z</time>
      </trkpt>
      <trkpt lat="39.6389990" lon="2.4851800">
        <ele>740.2</ele>
        <time>2020-01-03T12:59:48Z</time>
      </trkpt>
      <trkpt lat="39.6390270" lon="2.4851320">
        <ele>739.0</ele>
        <time>2020-01-03T12:59:51Z</time>
      </trkpt>
      <trkpt lat="39.6390420" lon="2.4851500">
        <ele>738.0</ele>
        <time>2020-01-03T12:59:53Z</time>
      </trkpt>
      <trkpt lat="39.6390490" lon="2.4851530">
        <ele>737.4</ele>
        <time>2020-01-03T12:59:54Z</time>
      </trkpt>
      <trkpt lat="39.6390660" lon="2.4851400">
        <ele>736.8</ele>
        <time>2020-01-03T12:59:56Z</time>
      </trkpt>
      <trkpt lat="39.6390840" lon="2.4851140">
        <ele>735.8</ele>
        <time>2020-01-03T12:59:59Z</time>
      </trkpt>
      <trkpt lat="39.6390960" lon="2.4850830">
        <ele>734.6</ele>
        <time>2020-01-03T13:00:02Z</time>
      </trkpt>
      <trkpt lat="39.6391120" lon="2.4850630">
        <ele>733.2</ele>
        <time>2020-01-03T13:00:05Z</time>
      </trkpt>
      <trkpt lat="39.6391280" lon="2.4850480">
        <ele>732.6</ele>
        <time>2020-01-03T13:00:07Z</time>
      </trkpt>
      <trkpt lat="39.6391350" lon="2.4850190">
        <ele>733.2</ele>
        <time>2020-01-03T13:00:10Z</time>
      </trkpt>
      <trkpt lat="39.6391580" lon="2.4851080">
        <ele>732.4</ele>
        <time>2020-01-03T13:00:19Z</time>
      </trkpt>
      <trkpt lat="39.6391500" lon="2.4851250">
        <ele>732.8</ele>
        <time>2020-01-03T13:00:21Z</time>
      </trkpt>
      <trkpt lat="39.6391380" lon="2.4851370">
        <ele>732.8</ele>
        <time>2020-01-03T13:00:24Z</time>
      </trkpt>
      <trkpt lat="39.6391790" lon="2.4851280">
        <ele>732.6</ele>
        <time>2020-01-03T13:00:31Z</time>
      </trkpt>
      <trkpt lat="39.6391370" lon="2.4851400">
        <ele>733.6</ele>
        <time>2020-01-03T13:00:57Z</time>
      </trkpt>
      <trkpt lat="39.6391340" lon="2.4851370">
        <ele>734.6</ele>
        <time>2020-01-03T13:00:59Z</time>
      </trkpt>
      <trkpt lat="39.6391240" lon="2.4851350">
        <ele>735.6</ele>
        <time>2020-01-03T13:01:57Z</time>
      </trkpt>
      <trkpt lat="39.6390930" lon="2.4851540">
        <ele>736.6</ele>
        <time>2020-01-03T13:02:34Z</time>
      </trkpt>
      <trkpt lat="39.6390480" lon="2.4851640">
        <ele>737.8</ele>
        <time>2020-01-03T13:05:40Z</time>
      </trkpt>
      <trkpt lat="39.6391180" lon="2.4851270">
        <ele>739.2</ele>
        <time>2020-01-03T13:10:02Z</time>
      </trkpt>
      <trkpt lat="39.6391210" lon="2.4851230">
        <ele>740.2</ele>
        <time>2020-01-03T13:12:36Z</time>
      </trkpt>
      <trkpt lat="39.6391190" lon="2.4851230">
        <ele>739.2</ele>
        <time>2020-01-03T13:12:46Z</time>
      </trkpt>
      <trkpt lat="39.6391340" lon="2.4851110">
        <ele>740.2</ele>
        <time>2020-01-03T13:13:54Z</time>
      </trkpt>
      <trkpt lat="39.6391570" lon="2.4851380">
        <ele>739.2</ele>
        <time>2020-01-03T13:15:05Z</time>
      </trkpt>
      <trkpt lat="39.6391430" lon="2.4851450">
        <ele>740.2</ele>
        <time>2020-01-03T13:16:17Z</time>
      </trkpt>
      <trkpt lat="39.6391940" lon="2.4852410">
        <ele>739.2</ele>
        <time>2020-01-03T13:18:43Z</time>
      </trkpt>
      <trkpt lat="39.6391730" lon="2.4852640">
        <ele>738.0</ele>
        <time>2020-01-03T13:18:49Z</time>
      </trkpt>
      <trkpt lat="39.6391620" lon="2.4853050">
        <ele>736.8</ele>
        <time>2020-01-03T13:18:55Z</time>
      </trkpt>
      <trkpt lat="39.6391520" lon="2.4853660">
        <ele>736.2</ele>
        <time>2020-01-03T13:19:00Z</time>
      </trkpt>
      <trkpt lat="39.6391230" lon="2.4854310">
        <ele>735.6</ele>
        <time>2020-01-03T13:19:07Z</time>
      </trkpt>
      <trkpt lat="39.6391090" lon="2.4854960">
        <ele>734.4</ele>
        <time>2020-01-03T13:19:13Z</time>
      </trkpt>
      <trkpt lat="39.6390930" lon="2.4855990">
        <ele>733.8</ele>
        <time>2020-01-03T13:19:21Z</time>
      </trkpt>
      <trkpt lat="39.6390710" lon="2.4856610">
        <ele>733.4</ele>
        <time>2020-01-03T13:19:26Z</time>
      </trkpt>
      <trkpt lat="39.6390850" lon="2.4856970">
        <ele>732.2</ele>
        <time>2020-01-03T13:19:32Z</time>
      </trkpt>
      <trkpt lat="39.6391020" lon="2.4857380">
        <ele>731.2</ele>
        <time>2020-01-03T13:19:36Z</time>
      </trkpt>
      <trkpt lat="39.6391040" lon="2.4857500">
        <ele>731.0</ele>
        <time>2020-01-03T13:19:37Z</time>
      </trkpt>
      <trkpt lat="39.6391080" lon="2.4858270">
        <ele>730.0</ele>
        <time>2020-01-03T13:19:43Z</time>
      </trkpt>
      <trkpt lat="39.6391100" lon="2.4858860">
        <ele>728.8</ele>
        <time>2020-01-03T13:19:48Z</time>
      </trkpt>
      <trkpt lat="39.6391360" lon="2.4859450">
        <ele>727.6</ele>
        <time>2020-01-03T13:19:54Z</time>
      </trkpt>
      <trkpt lat="39.6391670" lon="2.4860010">
        <ele>726.4</ele>
        <time>2020-01-03T13:20:00Z</time>
      </trkpt>
      <trkpt lat="39.6391730" lon="2.4860210">
        <ele>726.0</ele>
        <time>2020-01-03T13:20:02Z</time>
      </trkpt>
      <trkpt lat="39.6391860" lon="2.4860360">
        <ele>725.4</ele>
        <time>2020-01-03T13:20:04Z</time>
      </trkpt>
      <trkpt lat="39.6391980" lon="2.4860790">
        <ele>724.4</ele>
        <time>2020-01-03T13:20:08Z</time>
      </trkpt>
      <trkpt lat="39.6391950" lon="2.4861460">
        <ele>723.4</ele>
        <time>2020-01-03T13:20:13Z</time>
      </trkpt>
      <trkpt lat="39.6391810" lon="2.4862420">
        <ele>722.2</ele>
        <time>2020-01-03T13:20:19Z</time>
      </trkpt>
      <trkpt lat="39.6391220" lon="2.4863500">
        <ele>721.2</ele>
        <time>2020-01-03T13:20:28Z</time>
      </trkpt>
      <trkpt lat="39.6390880" lon="2.4863660">
        <ele>720.4</ele>
        <time>2020-01-03T13:20:32Z</time>
      </trkpt>
      <trkpt lat="39.6390840" lon="2.4863740">
        <ele>720.0</ele>
        <time>2020-01-03T13:20:33Z</time>
      </trkpt>
      <trkpt lat="39.6390800" lon="2.4863830">
        <ele>719.6</ele>
        <time>2020-01-03T13:20:34Z</time>
      </trkpt>
      <trkpt lat="39.6390710" lon="2.4864040">
        <ele>719.2</ele>
        <time>2020-01-03T13:20:36Z</time>
      </trkpt>
      <trkpt lat="39.6390700" lon="2.4864120">
        <ele>719.0</ele>
        <time>2020-01-03T13:20:37Z</time>
      </trkpt>
      <trkpt lat="39.6390550" lon="2.4864640">
        <ele>717.8</ele>
        <time>2020-01-03T13:20:41Z</time>
      </trkpt>
      <trkpt lat="39.6390270" lon="2.4865270">
        <ele>716.8</ele>
        <time>2020-01-03T13:20:48Z</time>
      </trkpt>
      <trkpt lat="39.6390210" lon="2.4865300">
        <ele>716.6</ele>
        <time>2020-01-03T13:20:49Z</time>
      </trkpt>
      <trkpt lat="39.6389940" lon="2.4865460">
        <ele>715.6</ele>
        <time>2020-01-03T13:20:54Z</time>
      </trkpt>
      <trkpt lat="39.6389590" lon="2.4865630">
        <ele>714.6</ele>
        <time>2020-01-03T13:20:59Z</time>
      </trkpt>
      <trkpt lat="39.6389500" lon="2.4865700">
        <ele>714.4</ele>
        <time>2020-01-03T13:21:00Z</time>
      </trkpt>
      <trkpt lat="39.6389340" lon="2.4865770">
        <ele>714.0</ele>
        <time>2020-01-03T13:21:02Z</time>
      </trkpt>
      <trkpt lat="39.6389240" lon="2.4865910">
        <ele>713.4</ele>
        <time>2020-01-03T13:21:04Z</time>
      </trkpt>
      <trkpt lat="39.6389160" lon="2.4865980">
        <ele>713.0</ele>
        <time>2020-01-03T13:21:05Z</time>
      </trkpt>
      <trkpt lat="39.6388960" lon="2.4866200">
        <ele>712.0</ele>
        <time>2020-01-03T13:21:08Z</time>
      </trkpt>
      <trkpt lat="39.6388640" lon="2.4866460">
        <ele>710.8</ele>
        <time>2020-01-03T13:21:12Z</time>
      </trkpt>
      <trkpt lat="39.6388420" lon="2.4866760">
        <ele>709.8</ele>
        <time>2020-01-03T13:21:16Z</time>
      </trkpt>
      <trkpt lat="39.6388140" lon="2.4867100">
        <ele>708.6</ele>
        <time>2020-01-03T13:21:22Z</time>
      </trkpt>
      <trkpt lat="39.6387900" lon="2.4867470">
        <ele>707.4</ele>
        <time>2020-01-03T13:21:28Z</time>
      </trkpt>
      <trkpt lat="39.6387690" lon="2.4867770">
        <ele>706.2</ele>
        <time>2020-01-03T13:21:32Z</time>
      </trkpt>
      <trkpt lat="39.6387460" lon="2.4868060">
        <ele>705.2</ele>
        <time>2020-01-03T13:21:36Z</time>
      </trkpt>
      <trkpt lat="39.6387280" lon="2.4868590">
        <ele>704.2</ele>
        <time>2020-01-03T13:21:41Z</time>
      </trkpt>
      <trkpt lat="39.6386640" lon="2.4869270">
        <ele>703.0</ele>
        <time>2020-01-03T13:21:48Z</time>
      </trkpt>
      <trkpt lat="39.6385940" lon="2.4870160">
        <ele>702.2</ele>
        <time>2020-01-03T13:22:01Z</time>
      </trkpt>
      <trkpt lat="39.6385880" lon="2.4870280">
        <ele>702.0</ele>
        <time>2020-01-03T13:22:02Z</time>
      </trkpt>
      <trkpt lat="39.6385660" lon="2.4870590">
        <ele>701.4</ele>
        <time>2020-01-03T13:22:05Z</time>
      </trkpt>
      <trkpt lat="39.6385580" lon="2.4870740">
        <ele>701.0</ele>
        <time>2020-01-03T13:22:06Z</time>
      </trkpt>
      <trkpt lat="39.6385510" lon="2.4870890">
        <ele>700.8</ele>
        <time>2020-01-03T13:22:07Z</time>
      </trkpt>
      <trkpt lat="39.6385320" lon="2.4871540">
        <ele>699.8</ele>
        <time>2020-01-03T13:22:12Z</time>
      </trkpt>
      <trkpt lat="39.6385050" lon="2.4872260">
        <ele>698.6</ele>
        <time>2020-01-03T13:22:17Z</time>
      </trkpt>
      <trkpt lat="39.6384960" lon="2.4872850">
        <ele>697.6</ele>
        <time>2020-01-03T13:22:21Z</time>
      </trkpt>
      <trkpt lat="39.6384920" lon="2.4873560">
        <ele>696.4</ele>
        <time>2020-01-03T13:22:26Z</time>
      </trkpt>
      <trkpt lat="39.6384810" lon="2.4874270">
        <ele>695.4</ele>
        <time>2020-01-03T13:22:31Z</time>
      </trkpt>
      <trkpt lat="39.6384710" lon="2.4874990">
        <ele>694.4</ele>
        <time>2020-01-03T13:22:36Z</time>
      </trkpt>
      <trkpt lat="39.6384670" lon="2.4875790">
        <ele>693.6</ele>
        <time>2020-01-03T13:22:42Z</time>
      </trkpt>
      <trkpt lat="39.6384470" lon="2.4876170">
        <ele>693.2</ele>
        <time>2020-01-03T13:22:45Z</time>
      </trkpt>
      <trkpt lat="39.6383600" lon="2.4877270">
        <ele>692.2</ele>
        <time>2020-01-03T13:22:56Z</time>
      </trkpt>
      <trkpt lat="39.6382700" lon="2.4878350">
        <ele>691.0</ele>
        <time>2020-01-03T13:23:07Z</time>
      </trkpt>
      <trkpt lat="39.6380770" lon="2.4879240">
        <ele>690.0</ele>
        <time>2020-01-03T13:23:27Z</time>
      </trkpt>
      <trkpt lat="39.6380200" lon="2.4879630">
        <ele>689.0</ele>
        <time>2020-01-03T13:23:34Z</time>
      </trkpt>
      <trkpt lat="39.6380000" lon="2.4880030">
        <ele>687.8</ele>
        <time>2020-01-03T13:23:39Z</time>
      </trkpt>
      <trkpt lat="39.6379960" lon="2.4880130">
        <ele>687.6</ele>
        <time>2020-01-03T13:23:40Z</time>
      </trkpt>
      <trkpt lat="39.6379870" lon="2.4880380">
        <ele>687.0</ele>
        <time>2020-01-03T13:23:42Z</time>
      </trkpt>
      <trkpt lat="39.6379800" lon="2.4880510">
        <ele>686.8</ele>
        <time>2020-01-03T13:23:43Z</time>
      </trkpt>
      <trkpt lat="39.6379710" lon="2.4881080">
        <ele>685.6</ele>
        <time>2020-01-03T13:23:48Z</time>
      </trkpt>
      <trkpt lat="39.6379680" lon="2.4881670">
        <ele>684.6</ele>
        <time>2020-01-03T13:23:53Z</time>
      </trkpt>
      <trkpt lat="39.6379780" lon="2.4882170">
        <ele>683.4</ele>
        <time>2020-01-03T13:23:57Z</time>
      </trkpt>
      <trkpt lat="39.6379750" lon="2.4882440">
        <ele>683.0</ele>
        <time>2020-01-03T13:23:59Z</time>
      </trkpt>
      <trkpt lat="39.6379690" lon="2.4882590">
        <ele>682.4</ele>
        <time>2020-01-03T13:24:01Z</time>
      </trkpt>
      <trkpt lat="39.6379710" lon="2.4882660">
        <ele>682.2</ele>
        <time>2020-01-03T13:24:02Z</time>
      </trkpt>
      <trkpt lat="39.6379750" lon="2.4883090">
        <ele>681.2</ele>
        <time>2020-01-03T13:24:08Z</time>
      </trkpt>
      <trkpt lat="39.6379780" lon="2.4883460">
        <ele>680.2</ele>
        <time>2020-01-03T13:24:13Z</time>
      </trkpt>
      <trkpt lat="39.6379670" lon="2.4883970">
        <ele>678.8</ele>
        <time>2020-01-03T13:24:18Z</time>
      </trkpt>
      <trkpt lat="39.6379570" lon="2.4884340">
        <ele>677.6</ele>
        <time>2020-01-03T13:24:22Z</time>
      </trkpt>
      <trkpt lat="39.6379510" lon="2.4884910">
        <ele>676.6</ele>
        <time>2020-01-03T13:24:27Z</time>
      </trkpt>
      <trkpt lat="39.6379630" lon="2.4885220">
        <ele>675.4</ele>
        <time>2020-01-03T13:24:32Z</time>
      </trkpt>
      <trkpt lat="39.6379880" lon="2.4885410">
        <ele>674.4</ele>
        <time>2020-01-03T13:24:36Z</time>
      </trkpt>
      <trkpt lat="39.6379890" lon="2.4885970">
        <ele>673.4</ele>
        <time>2020-01-03T13:24:41Z</time>
      </trkpt>
      <trkpt lat="39.6379790" lon="2.4886590">
        <ele>672.2</ele>
        <time>2020-01-03T13:24:46Z</time>
      </trkpt>
      <trkpt lat="39.6379650" lon="2.4886950">
        <ele>671.2</ele>
        <time>2020-01-03T13:24:51Z</time>
      </trkpt>
      <trkpt lat="39.6379560" lon="2.4887370">
        <ele>670.0</ele>
        <time>2020-01-03T13:24:55Z</time>
      </trkpt>
      <trkpt lat="39.6379510" lon="2.4887780">
        <ele>669.0</ele>
        <time>2020-01-03T13:24:59Z</time>
      </trkpt>
      <trkpt lat="39.6379500" lon="2.4887910">
        <ele>668.6</ele>
        <time>2020-01-03T13:25:00Z</time>
      </trkpt>
      <trkpt lat="39.6379500" lon="2.4888270">
        <ele>668.0</ele>
        <time>2020-01-03T13:25:03Z</time>
      </trkpt>
      <trkpt lat="39.6379470" lon="2.4888840">
        <ele>666.8</ele>
        <time>2020-01-03T13:25:07Z</time>
      </trkpt>
      <trkpt lat="39.6379720" lon="2.4889470">
        <ele>665.2</ele>
        <time>2020-01-03T13:25:12Z</time>
      </trkpt>
      <trkpt lat="39.6379870" lon="2.4889850">
        <ele>664.2</ele>
        <time>2020-01-03T13:25:16Z</time>
      </trkpt>
      <trkpt lat="39.6379950" lon="2.4890140">
        <ele>662.8</ele>
        <time>2020-01-03T13:25:20Z</time>
      </trkpt>
      <trkpt lat="39.6380150" lon="2.4890380">
        <ele>661.8</ele>
        <time>2020-01-03T13:25:23Z</time>
      </trkpt>
      <trkpt lat="39.6380270" lon="2.4890890">
        <ele>660.4</ele>
        <time>2020-01-03T13:25:28Z</time>
      </trkpt>
      <trkpt lat="39.6380330" lon="2.4891250">
        <ele>659.4</ele>
        <time>2020-01-03T13:25:31Z</time>
      </trkpt>
      <trkpt lat="39.6380430" lon="2.4891520">
        <ele>658.4</ele>
        <time>2020-01-03T13:25:34Z</time>
      </trkpt>
      <trkpt lat="39.6380420" lon="2.4892190">
        <ele>657.2</ele>
        <time>2020-01-03T13:25:39Z</time>
      </trkpt>
      <trkpt lat="39.6380390" lon="2.4892600">
        <ele>656.0</ele>
        <time>2020-01-03T13:25:43Z</time>
      </trkpt>
      <trkpt lat="39.6380330" lon="2.4893130">
        <ele>654.8</ele>
        <time>2020-01-03T13:25:47Z</time>
      </trkpt>
      <trkpt lat="39.6380040" lon="2.4893690">
        <ele>653.6</ele>
        <time>2020-01-03T13:25:51Z</time>
      </trkpt>
      <trkpt lat="39.6379790" lon="2.4894130">
        <ele>652.4</ele>
        <time>2020-01-03T13:25:55Z</time>
      </trkpt>
      <trkpt lat="39.6379720" lon="2.4894760">
        <ele>651.2</ele>
        <time>2020-01-03T13:25:59Z</time>
      </trkpt>
      <trkpt lat="39.6379550" lon="2.4895390">
        <ele>650.0</ele>
        <time>2020-01-03T13:26:03Z</time>
      </trkpt>
      <trkpt lat="39.6379360" lon="2.4896140">
        <ele>649.0</ele>
        <time>2020-01-03T13:26:08Z</time>
      </trkpt>
      <trkpt lat="39.6379010" lon="2.4897260">
        <ele>647.8</ele>
        <time>2020-01-03T13:26:16Z</time>
      </trkpt>
      <trkpt lat="39.6378750" lon="2.4897740">
        <ele>646.8</ele>
        <time>2020-01-03T13:26:20Z</time>
      </trkpt>
      <trkpt lat="39.6378500" lon="2.4898130">
        <ele>645.6</ele>
        <time>2020-01-03T13:26:26Z</time>
      </trkpt>
      <trkpt lat="39.6378460" lon="2.4898450">
        <ele>644.4</ele>
        <time>2020-01-03T13:26:29Z</time>
      </trkpt>
      <trkpt lat="39.6378370" lon="2.4899000">
        <ele>643.2</ele>
        <time>2020-01-03T13:26:33Z</time>
      </trkpt>
      <trkpt lat="39.6378170" lon="2.4899610">
        <ele>642.2</ele>
        <time>2020-01-03T13:26:37Z</time>
      </trkpt>
      <trkpt lat="39.6378100" lon="2.4900280">
        <ele>641.2</ele>
        <time>2020-01-03T13:26:43Z</time>
      </trkpt>
      <trkpt lat="39.6378080" lon="2.4900410">
        <ele>641.0</ele>
        <time>2020-01-03T13:26:44Z</time>
      </trkpt>
      <trkpt lat="39.6378130" lon="2.4900950">
        <ele>640.2</ele>
        <time>2020-01-03T13:26:48Z</time>
      </trkpt>
      <trkpt lat="39.6378140" lon="2.4901010">
        <ele>639.8</ele>
        <time>2020-01-03T13:26:49Z</time>
      </trkpt>
      <trkpt lat="39.6378340" lon="2.4901510">
        <ele>638.6</ele>
        <time>2020-01-03T13:26:54Z</time>
      </trkpt>
      <trkpt lat="39.6378570" lon="2.4901600">
        <ele>638.2</ele>
        <time>2020-01-03T13:26:56Z</time>
      </trkpt>
      <trkpt lat="39.6378830" lon="2.4901730">
        <ele>637.8</ele>
        <time>2020-01-03T13:26:58Z</time>
      </trkpt>
      <trkpt lat="39.6379020" lon="2.4901720">
        <ele>637.4</ele>
        <time>2020-01-03T13:27:01Z</time>
      </trkpt>
      <trkpt lat="39.6379540" lon="2.4901270">
        <ele>636.6</ele>
        <time>2020-01-03T13:27:08Z</time>
      </trkpt>
      <trkpt lat="39.6379630" lon="2.4901210">
        <ele>636.4</ele>
        <time>2020-01-03T13:27:09Z</time>
      </trkpt>
      <trkpt lat="39.6380030" lon="2.4900910">
        <ele>635.2</ele>
        <time>2020-01-03T13:27:15Z</time>
      </trkpt>
      <trkpt lat="39.6380460" lon="2.4900260">
        <ele>634.2</ele>
        <time>2020-01-03T13:27:23Z</time>
      </trkpt>
      <trkpt lat="39.6380510" lon="2.4900110">
        <ele>634.0</ele>
        <time>2020-01-03T13:27:24Z</time>
      </trkpt>
      <trkpt lat="39.6381110" lon="2.4898650">
        <ele>633.8</ele>
        <time>2020-01-03T13:27:37Z</time>
      </trkpt>
      <trkpt lat="39.6381240" lon="2.4898550">
        <ele>633.8</ele>
        <time>2020-01-03T13:27:39Z</time>
      </trkpt>
      <trkpt lat="39.6381630" lon="2.4898230">
        <ele>633.6</ele>
        <time>2020-01-03T13:27:43Z</time>
      </trkpt>
      <trkpt lat="39.6381890" lon="2.4897880">
        <ele>633.6</ele>
        <time>2020-01-03T13:27:46Z</time>
      </trkpt>
      <trkpt lat="39.6384360" lon="2.4894550">
        <ele>635.2</ele>
        <time>2020-01-03T13:28:14Z</time>
      </trkpt>
      <trkpt lat="39.6384970" lon="2.4893500">
        <ele>636.2</ele>
        <time>2020-01-03T13:28:22Z</time>
      </trkpt>
      <trkpt lat="39.6385570" lon="2.4891840">
        <ele>636.8</ele>
        <time>2020-01-03T13:28:34Z</time>
      </trkpt>
      <trkpt lat="39.6387670" lon="2.4890120">
        <ele>635.0</ele>
        <time>2020-01-03T13:28:56Z</time>
      </trkpt>
      <trkpt lat="39.6388210" lon="2.4890200">
        <ele>633.8</ele>
        <time>2020-01-03T13:29:01Z</time>
      </trkpt>
      <trkpt lat="39.6388870" lon="2.4890250">
        <ele>632.8</ele>
        <time>2020-01-03T13:29:06Z</time>
      </trkpt>
      <trkpt lat="39.6389650" lon="2.4890230">
        <ele>631.6</ele>
        <time>2020-01-03T13:29:13Z</time>
      </trkpt>
      <trkpt lat="39.6390250" lon="2.4890630">
        <ele>630.4</ele>
        <time>2020-01-03T13:29:18Z</time>
      </trkpt>
      <trkpt lat="39.6391060" lon="2.4890760">
        <ele>629.4</ele>
        <time>2020-01-03T13:29:23Z</time>
      </trkpt>
      <trkpt lat="39.6391670" lon="2.4890880">
        <ele>628.2</ele>
        <time>2020-01-03T13:29:28Z</time>
      </trkpt>
      <trkpt lat="39.6392060" lon="2.4890770">
        <ele>627.6</ele>
        <time>2020-01-03T13:29:33Z</time>
      </trkpt>
      <trkpt lat="39.6392160" lon="2.4890510">
        <ele>627.0</ele>
        <time>2020-01-03T13:29:35Z</time>
      </trkpt>
      <trkpt lat="39.6392290" lon="2.4890200">
        <ele>626.6</ele>
        <time>2020-01-03T13:29:37Z</time>
      </trkpt>
      <trkpt lat="39.6392520" lon="2.4889720">
        <ele>626.0</ele>
        <time>2020-01-03T13:29:40Z</time>
      </trkpt>
      <trkpt lat="39.6392710" lon="2.4888720">
        <ele>624.8</ele>
        <time>2020-01-03T13:29:48Z</time>
      </trkpt>
      <trkpt lat="39.6392770" lon="2.4888260">
        <ele>623.6</ele>
        <time>2020-01-03T13:29:52Z</time>
      </trkpt>
      <trkpt lat="39.6392700" lon="2.4887560">
        <ele>622.4</ele>
        <time>2020-01-03T13:29:56Z</time>
      </trkpt>
      <trkpt lat="39.6392530" lon="2.4886920">
        <ele>621.2</ele>
        <time>2020-01-03T13:30:01Z</time>
      </trkpt>
      <trkpt lat="39.6392460" lon="2.4886510">
        <ele>620.0</ele>
        <time>2020-01-03T13:30:04Z</time>
      </trkpt>
      <trkpt lat="39.6392340" lon="2.4885900">
        <ele>618.8</ele>
        <time>2020-01-03T13:30:08Z</time>
      </trkpt>
      <trkpt lat="39.6392190" lon="2.4884410">
        <ele>617.8</ele>
        <time>2020-01-03T13:30:19Z</time>
      </trkpt>
      <trkpt lat="39.6392370" lon="2.4883660">
        <ele>616.8</ele>
        <time>2020-01-03T13:30:23Z</time>
      </trkpt>
      <trkpt lat="39.6392660" lon="2.4883190">
        <ele>615.6</ele>
        <time>2020-01-03T13:30:26Z</time>
      </trkpt>
      <trkpt lat="39.6392810" lon="2.4882630">
        <ele>614.4</ele>
        <time>2020-01-03T13:30:29Z</time>
      </trkpt>
      <trkpt lat="39.6393160" lon="2.4882100">
        <ele>613.0</ele>
        <time>2020-01-03T13:30:34Z</time>
      </trkpt>
      <trkpt lat="39.6393600" lon="2.4881480">
        <ele>612.0</ele>
        <time>2020-01-03T13:30:39Z</time>
      </trkpt>
      <trkpt lat="39.6394200" lon="2.4880590">
        <ele>610.8</ele>
        <time>2020-01-03T13:30:59Z</time>
      </trkpt>
      <trkpt lat="39.6394590" lon="2.4880500">
        <ele>610.6</ele>
        <time>2020-01-03T13:31:02Z</time>
      </trkpt>
      <trkpt lat="39.6394800" lon="2.4880430">
        <ele>610.2</ele>
        <time>2020-01-03T13:31:04Z</time>
      </trkpt>
      <trkpt lat="39.6395020" lon="2.4880330">
        <ele>610.0</ele>
        <time>2020-01-03T13:31:06Z</time>
      </trkpt>
      <trkpt lat="39.6395180" lon="2.4880310">
        <ele>609.8</ele>
        <time>2020-01-03T13:31:07Z</time>
      </trkpt>
      <trkpt lat="39.6395760" lon="2.4879880">
        <ele>608.6</ele>
        <time>2020-01-03T13:31:12Z</time>
      </trkpt>
      <trkpt lat="39.6396190" lon="2.4879790">
        <ele>607.6</ele>
        <time>2020-01-03T13:31:16Z</time>
      </trkpt>
      <trkpt lat="39.6396710" lon="2.4879430">
        <ele>606.4</ele>
        <time>2020-01-03T13:31:21Z</time>
      </trkpt>
      <trkpt lat="39.6397040" lon="2.4879140">
        <ele>605.2</ele>
        <time>2020-01-03T13:31:24Z</time>
      </trkpt>
      <trkpt lat="39.6397140" lon="2.4879270">
        <ele>604.0</ele>
        <time>2020-01-03T13:31:28Z</time>
      </trkpt>
      <trkpt lat="39.6397070" lon="2.4879510">
        <ele>603.6</ele>
        <time>2020-01-03T13:31:30Z</time>
      </trkpt>
      <trkpt lat="39.6396970" lon="2.4879920">
        <ele>603.2</ele>
        <time>2020-01-03T13:31:33Z</time>
      </trkpt>
      <trkpt lat="39.6396910" lon="2.4880040">
        <ele>603.0</ele>
        <time>2020-01-03T13:31:34Z</time>
      </trkpt>
      <trkpt lat="39.6396680" lon="2.4880740">
        <ele>601.8</ele>
        <time>2020-01-03T13:31:39Z</time>
      </trkpt>
      <trkpt lat="39.6396920" lon="2.4881120">
        <ele>600.6</ele>
        <time>2020-01-03T13:31:44Z</time>
      </trkpt>
      <trkpt lat="39.6397200" lon="2.4881070">
        <ele>600.0</ele>
        <time>2020-01-03T13:31:47Z</time>
      </trkpt>
      <trkpt lat="39.6397400" lon="2.4881040">
        <ele>599.6</ele>
        <time>2020-01-03T13:31:49Z</time>
      </trkpt>
      <trkpt lat="39.6397780" lon="2.4880890">
        <ele>598.6</ele>
        <time>2020-01-03T13:31:53Z</time>
      </trkpt>
      <trkpt lat="39.6397850" lon="2.4880830">
        <ele>598.4</ele>
        <time>2020-01-03T13:31:54Z</time>
      </trkpt>
      <trkpt lat="39.6398400" lon="2.4880610">
        <ele>597.4</ele>
        <time>2020-01-03T13:31:59Z</time>
      </trkpt>
      <trkpt lat="39.6398730" lon="2.4880280">
        <ele>596.2</ele>
        <time>2020-01-03T13:32:03Z</time>
      </trkpt>
      <trkpt lat="39.6399160" lon="2.4880000">
        <ele>595.0</ele>
        <time>2020-01-03T13:32:07Z</time>
      </trkpt>
      <trkpt lat="39.6399720" lon="2.4879950">
        <ele>593.8</ele>
        <time>2020-01-03T13:32:11Z</time>
      </trkpt>
      <trkpt lat="39.6399990" lon="2.4880020">
        <ele>592.6</ele>
        <time>2020-01-03T13:32:14Z</time>
      </trkpt>
      <trkpt lat="39.6400210" lon="2.4880260">
        <ele>591.4</ele>
        <time>2020-01-03T13:32:17Z</time>
      </trkpt>
      <trkpt lat="39.6400350" lon="2.4880670">
        <ele>590.2</ele>
        <time>2020-01-03T13:32:20Z</time>
      </trkpt>
      <trkpt lat="39.6400490" lon="2.4881280">
        <ele>589.0</ele>
        <time>2020-01-03T13:32:24Z</time>
      </trkpt>
      <trkpt lat="39.6400740" lon="2.4881760">
        <ele>587.8</ele>
        <time>2020-01-03T13:32:28Z</time>
      </trkpt>
      <trkpt lat="39.6401130" lon="2.4882030">
        <ele>586.8</ele>
        <time>2020-01-03T13:32:31Z</time>
      </trkpt>
      <trkpt lat="39.6401280" lon="2.4882640">
        <ele>585.6</ele>
        <time>2020-01-03T13:32:35Z</time>
      </trkpt>
      <trkpt lat="39.6401300" lon="2.4883100">
        <ele>584.6</ele>
        <time>2020-01-03T13:32:38Z</time>
      </trkpt>
      <trkpt lat="39.6401350" lon="2.4883840">
        <ele>583.4</ele>
        <time>2020-01-03T13:32:42Z</time>
      </trkpt>
      <trkpt lat="39.6401250" lon="2.4884610">
        <ele>582.2</ele>
        <time>2020-01-03T13:32:47Z</time>
      </trkpt>
      <trkpt lat="39.6401270" lon="2.4884950">
        <ele>581.2</ele>
        <time>2020-01-03T13:32:50Z</time>
      </trkpt>
      <trkpt lat="39.6401480" lon="2.4885010">
        <ele>580.6</ele>
        <time>2020-01-03T13:32:52Z</time>
      </trkpt>
      <trkpt lat="39.6401780" lon="2.4884920">
        <ele>580.0</ele>
        <time>2020-01-03T13:32:54Z</time>
      </trkpt>
      <trkpt lat="39.6402660" lon="2.4884660">
        <ele>578.8</ele>
        <time>2020-01-03T13:33:00Z</time>
      </trkpt>
      <trkpt lat="39.6402890" lon="2.4884230">
        <ele>577.6</ele>
        <time>2020-01-03T13:33:04Z</time>
      </trkpt>
      <trkpt lat="39.6402980" lon="2.4884230">
        <ele>577.4</ele>
        <time>2020-01-03T13:33:05Z</time>
      </trkpt>
      <trkpt lat="39.6403280" lon="2.4884320">
        <ele>576.2</ele>
        <time>2020-01-03T13:33:08Z</time>
      </trkpt>
      <trkpt lat="39.6403350" lon="2.4884360">
        <ele>575.8</ele>
        <time>2020-01-03T13:33:09Z</time>
      </trkpt>
      <trkpt lat="39.6403640" lon="2.4884480">
        <ele>575.0</ele>
        <time>2020-01-03T13:33:11Z</time>
      </trkpt>
      <trkpt lat="39.6403950" lon="2.4884630">
        <ele>573.8</ele>
        <time>2020-01-03T13:33:14Z</time>
      </trkpt>
      <trkpt lat="39.6404110" lon="2.4884890">
        <ele>572.8</ele>
        <time>2020-01-03T13:33:17Z</time>
      </trkpt>
      <trkpt lat="39.6404010" lon="2.4885520">
        <ele>571.8</ele>
        <time>2020-01-03T13:33:21Z</time>
      </trkpt>
      <trkpt lat="39.6403870" lon="2.4886240">
        <ele>570.6</ele>
        <time>2020-01-03T13:33:25Z</time>
      </trkpt>
      <trkpt lat="39.6403960" lon="2.4887130">
        <ele>569.6</ele>
        <time>2020-01-03T13:33:31Z</time>
      </trkpt>
      <trkpt lat="39.6404500" lon="2.4889000">
        <ele>568.6</ele>
        <time>2020-01-03T13:33:42Z</time>
      </trkpt>
      <trkpt lat="39.6405050" lon="2.4889690">
        <ele>567.4</ele>
        <time>2020-01-03T13:33:47Z</time>
      </trkpt>
      <trkpt lat="39.6405490" lon="2.4890360">
        <ele>566.0</ele>
        <time>2020-01-03T13:33:52Z</time>
      </trkpt>
      <trkpt lat="39.6405900" lon="2.4890770">
        <ele>565.0</ele>
        <time>2020-01-03T13:33:55Z</time>
      </trkpt>
      <trkpt lat="39.6406210" lon="2.4891340">
        <ele>563.8</ele>
        <time>2020-01-03T13:33:59Z</time>
      </trkpt>
      <trkpt lat="39.6406660" lon="2.4892100">
        <ele>562.8</ele>
        <time>2020-01-03T13:34:07Z</time>
      </trkpt>
      <trkpt lat="39.6406910" lon="2.4892290">
        <ele>562.4</ele>
        <time>2020-01-03T13:34:10Z</time>
      </trkpt>
      <trkpt lat="39.6407230" lon="2.4892460">
        <ele>562.2</ele>
        <time>2020-01-03T13:34:14Z</time>
      </trkpt>
      <trkpt lat="39.6407860" lon="2.4892690">
        <ele>561.8</ele>
        <time>2020-01-03T13:34:43Z</time>
      </trkpt>
      <trkpt lat="39.6408020" lon="2.4892750">
        <ele>561.4</ele>
        <time>2020-01-03T13:34:45Z</time>
      </trkpt>
      <trkpt lat="39.6408390" lon="2.4892910">
        <ele>560.8</ele>
        <time>2020-01-03T13:34:52Z</time>
      </trkpt>
      <trkpt lat="39.6408590" lon="2.4892830">
        <ele>560.2</ele>
        <time>2020-01-03T13:34:54Z</time>
      </trkpt>
      <trkpt lat="39.6408830" lon="2.4892580">
        <ele>559.2</ele>
        <time>2020-01-03T13:34:57Z</time>
      </trkpt>
      <trkpt lat="39.6409170" lon="2.4892270">
        <ele>557.8</ele>
        <time>2020-01-03T13:35:01Z</time>
      </trkpt>
      <trkpt lat="39.6409070" lon="2.4891450">
        <ele>556.8</ele>
        <time>2020-01-03T13:35:08Z</time>
      </trkpt>
      <trkpt lat="39.6409120" lon="2.4890470">
        <ele>555.6</ele>
        <time>2020-01-03T13:35:15Z</time>
      </trkpt>
      <trkpt lat="39.6409540" lon="2.4888820">
        <ele>554.6</ele>
        <time>2020-01-03T13:35:24Z</time>
      </trkpt>
      <trkpt lat="39.6409870" lon="2.4888120">
        <ele>553.6</ele>
        <time>2020-01-03T13:35:29Z</time>
      </trkpt>
      <trkpt lat="39.6410050" lon="2.4887720">
        <ele>552.4</ele>
        <time>2020-01-03T13:35:32Z</time>
      </trkpt>
      <trkpt lat="39.6410570" lon="2.4887150">
        <ele>551.2</ele>
        <time>2020-01-03T13:35:36Z</time>
      </trkpt>
      <trkpt lat="39.6410820" lon="2.4886810">
        <ele>550.8</ele>
        <time>2020-01-03T13:35:39Z</time>
      </trkpt>
      <trkpt lat="39.6410870" lon="2.4886370">
        <ele>550.2</ele>
        <time>2020-01-03T13:35:42Z</time>
      </trkpt>
      <trkpt lat="39.6410830" lon="2.4884990">
        <ele>549.0</ele>
        <time>2020-01-03T13:35:49Z</time>
      </trkpt>
      <trkpt lat="39.6411330" lon="2.4883740">
        <ele>548.2</ele>
        <time>2020-01-03T13:36:00Z</time>
      </trkpt>
      <trkpt lat="39.6411370" lon="2.4883120">
        <ele>548.2</ele>
        <time>2020-01-03T13:36:05Z</time>
      </trkpt>
      <trkpt lat="39.6411420" lon="2.4882820">
        <ele>547.8</ele>
        <time>2020-01-03T13:36:07Z</time>
      </trkpt>
      <trkpt lat="39.6411570" lon="2.4882410">
        <ele>547.2</ele>
        <time>2020-01-03T13:36:10Z</time>
      </trkpt>
      <trkpt lat="39.6411750" lon="2.4882070">
        <ele>546.8</ele>
        <time>2020-01-03T13:36:12Z</time>
      </trkpt>
      <trkpt lat="39.6412360" lon="2.4881140">
        <ele>545.6</ele>
        <time>2020-01-03T13:36:18Z</time>
      </trkpt>
      <trkpt lat="39.6412400" lon="2.4880930">
        <ele>545.6</ele>
        <time>2020-01-03T13:36:19Z</time>
      </trkpt>
      <trkpt lat="39.6413030" lon="2.4879760">
        <ele>544.4</ele>
        <time>2020-01-03T13:36:28Z</time>
      </trkpt>
      <trkpt lat="39.6413690" lon="2.4879350">
        <ele>543.2</ele>
        <time>2020-01-03T13:36:33Z</time>
      </trkpt>
      <trkpt lat="39.6413880" lon="2.4879230">
        <ele>542.8</ele>
        <time>2020-01-03T13:36:35Z</time>
      </trkpt>
      <trkpt lat="39.6414370" lon="2.4878700">
        <ele>542.0</ele>
        <time>2020-01-03T13:36:40Z</time>
      </trkpt>
      <trkpt lat="39.6416170" lon="2.4876200">
        <ele>541.0</ele>
        <time>2020-01-03T13:36:56Z</time>
      </trkpt>
      <trkpt lat="39.6416740" lon="2.4875490">
        <ele>539.8</ele>
        <time>2020-01-03T13:37:02Z</time>
      </trkpt>
      <trkpt lat="39.6417120" lon="2.4875160">
        <ele>538.6</ele>
        <time>2020-01-03T13:37:06Z</time>
      </trkpt>
      <trkpt lat="39.6417530" lon="2.4874790">
        <ele>537.4</ele>
        <time>2020-01-03T13:37:10Z</time>
      </trkpt>
      <trkpt lat="39.6417690" lon="2.4874680">
        <ele>536.6</ele>
        <time>2020-01-03T13:37:12Z</time>
      </trkpt>
      <trkpt lat="39.6417940" lon="2.4874540">
        <ele>536.0</ele>
        <time>2020-01-03T13:37:14Z</time>
      </trkpt>
      <trkpt lat="39.6418390" lon="2.4874170">
        <ele>535.0</ele>
        <time>2020-01-03T13:37:18Z</time>
      </trkpt>
      <trkpt lat="39.6418920" lon="2.4873340">
        <ele>534.0</ele>
        <time>2020-01-03T13:37:23Z</time>
      </trkpt>
      <trkpt lat="39.6419410" lon="2.4873020">
        <ele>532.8</ele>
        <time>2020-01-03T13:37:27Z</time>
      </trkpt>
      <trkpt lat="39.6420230" lon="2.4872380">
        <ele>531.8</ele>
        <time>2020-01-03T13:37:33Z</time>
      </trkpt>
      <trkpt lat="39.6421980" lon="2.4871300">
        <ele>530.6</ele>
        <time>2020-01-03T13:37:46Z</time>
      </trkpt>
      <trkpt lat="39.6422550" lon="2.4870970">
        <ele>529.6</ele>
        <time>2020-01-03T13:37:50Z</time>
      </trkpt>
      <trkpt lat="39.6422920" lon="2.4870920">
        <ele>528.6</ele>
        <time>2020-01-03T13:37:53Z</time>
      </trkpt>
      <trkpt lat="39.6423250" lon="2.4870980">
        <ele>527.4</ele>
        <time>2020-01-03T13:37:56Z</time>
      </trkpt>
      <trkpt lat="39.6423580" lon="2.4871450">
        <ele>526.2</ele>
        <time>2020-01-03T13:38:00Z</time>
      </trkpt>
      <trkpt lat="39.6423890" lon="2.4871920">
        <ele>525.0</ele>
        <time>2020-01-03T13:38:04Z</time>
      </trkpt>
      <trkpt lat="39.6424050" lon="2.4872450">
        <ele>524.0</ele>
        <time>2020-01-03T13:38:08Z</time>
      </trkpt>
      <trkpt lat="39.6423960" lon="2.4873100">
        <ele>522.8</ele>
        <time>2020-01-03T13:38:13Z</time>
      </trkpt>
      <trkpt lat="39.6423850" lon="2.4873540">
        <ele>521.6</ele>
        <time>2020-01-03T13:38:17Z</time>
      </trkpt>
      <trkpt lat="39.6423810" lon="2.4874100">
        <ele>520.2</ele>
        <time>2020-01-03T13:38:21Z</time>
      </trkpt>
      <trkpt lat="39.6423770" lon="2.4874720">
        <ele>519.0</ele>
        <time>2020-01-03T13:38:25Z</time>
      </trkpt>
      <trkpt lat="39.6423540" lon="2.4875500">
        <ele>518.0</ele>
        <time>2020-01-03T13:38:30Z</time>
      </trkpt>
      <trkpt lat="39.6423240" lon="2.4876250">
        <ele>516.8</ele>
        <time>2020-01-03T13:38:37Z</time>
      </trkpt>
      <trkpt lat="39.6423070" lon="2.4877060">
        <ele>515.6</ele>
        <time>2020-01-03T13:38:42Z</time>
      </trkpt>
      <trkpt lat="39.6422940" lon="2.4877860">
        <ele>514.4</ele>
        <time>2020-01-03T13:38:46Z</time>
      </trkpt>
      <trkpt lat="39.6422830" lon="2.4878630">
        <ele>513.2</ele>
        <time>2020-01-03T13:38:51Z</time>
      </trkpt>
      <trkpt lat="39.6422740" lon="2.4879530">
        <ele>512.2</ele>
        <time>2020-01-03T13:38:56Z</time>
      </trkpt>
      <trkpt lat="39.6422640" lon="2.4880120">
        <ele>511.0</ele>
        <time>2020-01-03T13:39:00Z</time>
      </trkpt>
      <trkpt lat="39.6422920" lon="2.4882100">
        <ele>510.0</ele>
        <time>2020-01-03T13:39:13Z</time>
      </trkpt>
      <trkpt lat="39.6423180" lon="2.4882680">
        <ele>508.8</ele>
        <time>2020-01-03T13:39:18Z</time>
      </trkpt>
      <trkpt lat="39.6423640" lon="2.4882960">
        <ele>507.8</ele>
        <time>2020-01-03T13:39:22Z</time>
      </trkpt>
      <trkpt lat="39.6423820" lon="2.4882950">
        <ele>507.4</ele>
        <time>2020-01-03T13:39:23Z</time>
      </trkpt>
      <trkpt lat="39.6424030" lon="2.4882970">
        <ele>506.6</ele>
        <time>2020-01-03T13:39:25Z</time>
      </trkpt>
      <trkpt lat="39.6424710" lon="2.4882670">
        <ele>505.4</ele>
        <time>2020-01-03T13:39:29Z</time>
      </trkpt>
      <trkpt lat="39.6425290" lon="2.4882320">
        <ele>504.2</ele>
        <time>2020-01-03T13:39:33Z</time>
      </trkpt>
      <trkpt lat="39.6425900" lon="2.4881430">
        <ele>503.0</ele>
        <time>2020-01-03T13:39:40Z</time>
      </trkpt>
      <trkpt lat="39.6426430" lon="2.4880840">
        <ele>501.8</ele>
        <time>2020-01-03T13:39:45Z</time>
      </trkpt>
      <trkpt lat="39.6427100" lon="2.4880410">
        <ele>500.8</ele>
        <time>2020-01-03T13:39:52Z</time>
      </trkpt>
      <trkpt lat="39.6427350" lon="2.4880370">
        <ele>499.6</ele>
        <time>2020-01-03T13:39:56Z</time>
      </trkpt>
      <trkpt lat="39.6427600" lon="2.4880290">
        <ele>499.4</ele>
        <time>2020-01-03T13:39:58Z</time>
      </trkpt>
      <trkpt lat="39.6427920" lon="2.4880060">
        <ele>498.8</ele>
        <time>2020-01-03T13:40:01Z</time>
      </trkpt>
      <trkpt lat="39.6428000" lon="2.4879940">
        <ele>498.6</ele>
        <time>2020-01-03T13:40:02Z</time>
      </trkpt>
      <trkpt lat="39.6428580" lon="2.4879670">
        <ele>497.8</ele>
        <time>2020-01-03T13:40:08Z</time>
      </trkpt>
      <trkpt lat="39.6428710" lon="2.4879580">
        <ele>497.6</ele>
        <time>2020-01-03T13:40:09Z</time>
      </trkpt>
      <trkpt lat="39.6429490" lon="2.4879290">
        <ele>497.2</ele>
        <time>2020-01-03T13:40:13Z</time>
      </trkpt>
      <trkpt lat="39.6430000" lon="2.4878640">
        <ele>496.4</ele>
        <time>2020-01-03T13:40:18Z</time>
      </trkpt>
      <trkpt lat="39.6430130" lon="2.4878470">
        <ele>496.0</ele>
        <time>2020-01-03T13:40:20Z</time>
      </trkpt>
      <trkpt lat="39.6430270" lon="2.4878340">
        <ele>495.4</ele>
        <time>2020-01-03T13:40:22Z</time>
      </trkpt>
      <trkpt lat="39.6430320" lon="2.4878280">
        <ele>495.0</ele>
        <time>2020-01-03T13:40:23Z</time>
      </trkpt>
      <trkpt lat="39.6430460" lon="2.4878110">
        <ele>494.2</ele>
        <time>2020-01-03T13:40:25Z</time>
      </trkpt>
      <trkpt lat="39.6430500" lon="2.4877990">
        <ele>493.8</ele>
        <time>2020-01-03T13:40:26Z</time>
      </trkpt>
      <trkpt lat="39.6430840" lon="2.4877570">
        <ele>493.0</ele>
        <time>2020-01-03T13:40:30Z</time>
      </trkpt>
      <trkpt lat="39.6431260" lon="2.4877300">
        <ele>492.0</ele>
        <time>2020-01-03T13:40:34Z</time>
      </trkpt>
      <trkpt lat="39.6431630" lon="2.4876910">
        <ele>491.6</ele>
        <time>2020-01-03T13:40:37Z</time>
      </trkpt>
      <trkpt lat="39.6431890" lon="2.4876650">
        <ele>491.2</ele>
        <time>2020-01-03T13:40:39Z</time>
      </trkpt>
      <trkpt lat="39.6432200" lon="2.4876200">
        <ele>491.0</ele>
        <time>2020-01-03T13:40:42Z</time>
      </trkpt>
      <trkpt lat="39.6433270" lon="2.4875420">
        <ele>490.0</ele>
        <time>2020-01-03T13:40:50Z</time>
      </trkpt>
      <trkpt lat="39.6434700" lon="2.4874110">
        <ele>488.8</ele>
        <time>2020-01-03T13:41:03Z</time>
      </trkpt>
      <trkpt lat="39.6435390" lon="2.4872700">
        <ele>487.6</ele>
        <time>2020-01-03T13:41:15Z</time>
      </trkpt>
      <trkpt lat="39.6436040" lon="2.4872130">
        <ele>487.4</ele>
        <time>2020-01-03T13:41:22Z</time>
      </trkpt>
      <trkpt lat="39.6437150" lon="2.4871400">
        <ele>487.4</ele>
        <time>2020-01-03T13:41:43Z</time>
      </trkpt>
      <trkpt lat="39.6437840" lon="2.4871100">
        <ele>486.6</ele>
        <time>2020-01-03T13:41:52Z</time>
      </trkpt>
      <trkpt lat="39.6437900" lon="2.4871020">
        <ele>486.6</ele>
        <time>2020-01-03T13:41:53Z</time>
      </trkpt>
      <trkpt lat="39.6438870" lon="2.4870440">
        <ele>485.6</ele>
        <time>2020-01-03T13:42:00Z</time>
      </trkpt>
      <trkpt lat="39.6439670" lon="2.4870250">
        <ele>484.4</ele>
        <time>2020-01-03T13:42:05Z</time>
      </trkpt>
      <trkpt lat="39.6440330" lon="2.4869870">
        <ele>483.4</ele>
        <time>2020-01-03T13:42:10Z</time>
      </trkpt>
      <trkpt lat="39.6440870" lon="2.4869620">
        <ele>482.4</ele>
        <time>2020-01-03T13:42:14Z</time>
      </trkpt>
      <trkpt lat="39.6441990" lon="2.4868790">
        <ele>481.2</ele>
        <time>2020-01-03T13:42:23Z</time>
      </trkpt>
      <trkpt lat="39.6442870" lon="2.4868260">
        <ele>480.0</ele>
        <time>2020-01-03T13:42:30Z</time>
      </trkpt>
      <trkpt lat="39.6443210" lon="2.4868230">
        <ele>479.6</ele>
        <time>2020-01-03T13:42:33Z</time>
      </trkpt>
      <trkpt lat="39.6443410" lon="2.4868160">
        <ele>479.4</ele>
        <time>2020-01-03T13:42:35Z</time>
      </trkpt>
      <trkpt lat="39.6443830" lon="2.4867470">
        <ele>479.0</ele>
        <time>2020-01-03T13:42:39Z</time>
      </trkpt>
      <trkpt lat="39.6443930" lon="2.4865800">
        <ele>477.8</ele>
        <time>2020-01-03T13:42:48Z</time>
      </trkpt>
      <trkpt lat="39.6443960" lon="2.4865540">
        <ele>477.8</ele>
        <time>2020-01-03T13:42:50Z</time>
      </trkpt>
      <trkpt lat="39.6443890" lon="2.4864790">
        <ele>476.8</ele>
        <time>2020-01-03T13:42:56Z</time>
      </trkpt>
      <trkpt lat="39.6443900" lon="2.4864520">
        <ele>476.8</ele>
        <time>2020-01-03T13:42:58Z</time>
      </trkpt>
      <trkpt lat="39.6443650" lon="2.4861600">
        <ele>476.4</ele>
        <time>2020-01-03T13:43:16Z</time>
      </trkpt>
      <trkpt lat="39.6443590" lon="2.4861380">
        <ele>476.0</ele>
        <time>2020-01-03T13:43:18Z</time>
      </trkpt>
      <trkpt lat="39.6443500" lon="2.4861010">
        <ele>476.0</ele>
        <time>2020-01-03T13:43:20Z</time>
      </trkpt>
      <trkpt lat="39.6443470" lon="2.4860860">
        <ele>475.8</ele>
        <time>2020-01-03T13:43:21Z</time>
      </trkpt>
      <trkpt lat="39.6441270" lon="2.4858360">
        <ele>474.8</ele>
        <time>2020-01-03T13:43:44Z</time>
      </trkpt>
      <trkpt lat="39.6440390" lon="2.4857660">
        <ele>473.6</ele>
        <time>2020-01-03T13:43:52Z</time>
      </trkpt>
      <trkpt lat="39.6439820" lon="2.4856750">
        <ele>472.6</ele>
        <time>2020-01-03T13:44:00Z</time>
      </trkpt>
      <trkpt lat="39.6438860" lon="2.4851210">
        <ele>472.2</ele>
        <time>2020-01-03T13:44:38Z</time>
      </trkpt>
      <trkpt lat="39.6438930" lon="2.4850620">
        <ele>472.2</ele>
        <time>2020-01-03T13:44:43Z</time>
      </trkpt>
      <trkpt lat="39.6439190" lon="2.4848770">
        <ele>472.6</ele>
        <time>2020-01-03T13:44:54Z</time>
      </trkpt>
      <trkpt lat="39.6438330" lon="2.4845660">
        <ele>471.6</ele>
        <time>2020-01-03T13:45:13Z</time>
      </trkpt>
      <trkpt lat="39.6437460" lon="2.4843030">
        <ele>470.4</ele>
        <time>2020-01-03T13:45:29Z</time>
      </trkpt>
      <trkpt lat="39.6437540" lon="2.4842360">
        <ele>469.4</ele>
        <time>2020-01-03T13:45:33Z</time>
      </trkpt>
      <trkpt lat="39.6437640" lon="2.4841930">
        <ele>468.4</ele>
        <time>2020-01-03T13:45:36Z</time>
      </trkpt>
      <trkpt lat="39.6437770" lon="2.4841210">
        <ele>467.0</ele>
        <time>2020-01-03T13:45:40Z</time>
      </trkpt>
      <trkpt lat="39.6437990" lon="2.4840720">
        <ele>465.6</ele>
        <time>2020-01-03T13:45:44Z</time>
      </trkpt>
      <trkpt lat="39.6438210" lon="2.4840210">
        <ele>464.4</ele>
        <time>2020-01-03T13:45:48Z</time>
      </trkpt>
      <trkpt lat="39.6438420" lon="2.4839510">
        <ele>463.2</ele>
        <time>2020-01-03T13:45:53Z</time>
      </trkpt>
      <trkpt lat="39.6437650" lon="2.4834020">
        <ele>463.2</ele>
        <time>2020-01-03T13:46:44Z</time>
      </trkpt>
      <trkpt lat="39.6438120" lon="2.4833230">
        <ele>463.4</ele>
        <time>2020-01-03T13:47:17Z</time>
      </trkpt>
      <trkpt lat="39.6437860" lon="2.4833060">
        <ele>463.2</ele>
        <time>2020-01-03T13:47:20Z</time>
      </trkpt>
      <trkpt lat="39.6437690" lon="2.4832940">
        <ele>463.2</ele>
        <time>2020-01-03T13:47:22Z</time>
      </trkpt>
      <trkpt lat="39.6437530" lon="2.4832770">
        <ele>463.2</ele>
        <time>2020-01-03T13:47:24Z</time>
      </trkpt>
      <trkpt lat="39.6437330" lon="2.4832480">
        <ele>463.2</ele>
        <time>2020-01-03T13:47:27Z</time>
      </trkpt>
      <trkpt lat="39.6437310" lon="2.4832300">
        <ele>463.2</ele>
        <time>2020-01-03T13:47:29Z</time>
      </trkpt>
      <trkpt lat="39.6437470" lon="2.4831210">
        <ele>462.2</ele>
        <time>2020-01-03T13:47:40Z</time>
      </trkpt>
      <trkpt lat="39.6438170" lon="2.4829750">
        <ele>461.0</ele>
        <time>2020-01-03T13:47:51Z</time>
      </trkpt>
      <trkpt lat="39.6438360" lon="2.4829490">
        <ele>460.8</ele>
        <time>2020-01-03T13:47:54Z</time>
      </trkpt>
      <trkpt lat="39.6438630" lon="2.4829040">
        <ele>460.4</ele>
        <time>2020-01-03T13:47:59Z</time>
      </trkpt>
      <trkpt lat="39.6439040" lon="2.4828790">
        <ele>460.4</ele>
        <time>2020-01-03T13:48:03Z</time>
      </trkpt>
      <trkpt lat="39.6439160" lon="2.4828750">
        <ele>460.2</ele>
        <time>2020-01-03T13:48:05Z</time>
      </trkpt>
      <trkpt lat="39.6439340" lon="2.4828640">
        <ele>460.0</ele>
        <time>2020-01-03T13:48:08Z</time>
      </trkpt>
      <trkpt lat="39.6439820" lon="2.4828350">
        <ele>459.6</ele>
        <time>2020-01-03T13:48:12Z</time>
      </trkpt>
      <trkpt lat="39.6440690" lon="2.4828170">
        <ele>458.8</ele>
        <time>2020-01-03T13:48:16Z</time>
      </trkpt>
      <trkpt lat="39.6442320" lon="2.4827020">
        <ele>459.4</ele>
        <time>2020-01-03T13:48:35Z</time>
      </trkpt>
      <trkpt lat="39.6442630" lon="2.4826830">
        <ele>459.6</ele>
        <time>2020-01-03T13:48:39Z</time>
      </trkpt>
      <trkpt lat="39.6442860" lon="2.4826720">
        <ele>459.8</ele>
        <time>2020-01-03T13:48:42Z</time>
      </trkpt>
      <trkpt lat="39.6443110" lon="2.4826710">
        <ele>459.4</ele>
        <time>2020-01-03T13:48:44Z</time>
      </trkpt>
      <trkpt lat="39.6443330" lon="2.4826730">
        <ele>459.0</ele>
        <time>2020-01-03T13:48:46Z</time>
      </trkpt>
      <trkpt lat="39.6443960" lon="2.4826730">
        <ele>457.8</ele>
        <time>2020-01-03T13:48:51Z</time>
      </trkpt>
      <trkpt lat="39.6444380" lon="2.4826680">
        <ele>457.4</ele>
        <time>2020-01-03T13:48:54Z</time>
      </trkpt>
      <trkpt lat="39.6445400" lon="2.4826320">
        <ele>456.6</ele>
        <time>2020-01-03T13:49:02Z</time>
      </trkpt>
      <trkpt lat="39.6446340" lon="2.4825980">
        <ele>455.4</ele>
        <time>2020-01-03T13:49:14Z</time>
      </trkpt>
      <trkpt lat="39.6447320" lon="2.4826140">
        <ele>454.6</ele>
        <time>2020-01-03T13:49:19Z</time>
      </trkpt>
      <trkpt lat="39.6447460" lon="2.4826180">
        <ele>454.4</ele>
        <time>2020-01-03T13:49:20Z</time>
      </trkpt>
      <trkpt lat="39.6448220" lon="2.4826590">
        <ele>453.4</ele>
        <time>2020-01-03T13:49:26Z</time>
      </trkpt>
      <trkpt lat="39.6449810" lon="2.4827650">
        <ele>452.4</ele>
        <time>2020-01-03T13:49:37Z</time>
      </trkpt>
      <trkpt lat="39.6451430" lon="2.4828680">
        <ele>451.2</ele>
        <time>2020-01-03T13:49:50Z</time>
      </trkpt>
      <trkpt lat="39.6452090" lon="2.4828400">
        <ele>450.2</ele>
        <time>2020-01-03T13:49:56Z</time>
      </trkpt>
      <trkpt lat="39.6452320" lon="2.4827910">
        <ele>449.2</ele>
        <time>2020-01-03T13:50:01Z</time>
      </trkpt>
      <trkpt lat="39.6451980" lon="2.4826360">
        <ele>448.0</ele>
        <time>2020-01-03T13:50:11Z</time>
      </trkpt>
      <trkpt lat="39.6451720" lon="2.4825700">
        <ele>447.0</ele>
        <time>2020-01-03T13:50:16Z</time>
      </trkpt>
      <trkpt lat="39.6451470" lon="2.4824870">
        <ele>445.8</ele>
        <time>2020-01-03T13:50:21Z</time>
      </trkpt>
      <trkpt lat="39.6451470" lon="2.4824490">
        <ele>444.8</ele>
        <time>2020-01-03T13:50:24Z</time>
      </trkpt>
      <trkpt lat="39.6451490" lon="2.4824260">
        <ele>443.4</ele>
        <time>2020-01-03T13:50:27Z</time>
      </trkpt>
      <trkpt lat="39.6451510" lon="2.4824080">
        <ele>442.2</ele>
        <time>2020-01-03T13:50:30Z</time>
      </trkpt>
      <trkpt lat="39.6451650" lon="2.4824050">
        <ele>441.0</ele>
        <time>2020-01-03T13:50:33Z</time>
      </trkpt>
      <trkpt lat="39.6451860" lon="2.4824020">
        <ele>440.0</ele>
        <time>2020-01-03T13:50:36Z</time>
      </trkpt>
      <trkpt lat="39.6452330" lon="2.4823780">
        <ele>439.0</ele>
        <time>2020-01-03T13:50:40Z</time>
      </trkpt>
      <trkpt lat="39.6452730" lon="2.4823480">
        <ele>438.2</ele>
        <time>2020-01-03T13:50:43Z</time>
      </trkpt>
      <trkpt lat="39.6453920" lon="2.4823610">
        <ele>438.0</ele>
        <time>2020-01-03T13:50:58Z</time>
      </trkpt>
      <trkpt lat="39.6454280" lon="2.4823080">
        <ele>436.8</ele>
        <time>2020-01-03T13:51:05Z</time>
      </trkpt>
      <trkpt lat="39.6454130" lon="2.4822020">
        <ele>435.6</ele>
        <time>2020-01-03T13:51:12Z</time>
      </trkpt>
      <trkpt lat="39.6454220" lon="2.4821410">
        <ele>434.8</ele>
        <time>2020-01-03T13:51:16Z</time>
      </trkpt>
      <trkpt lat="39.6454280" lon="2.4821160">
        <ele>434.4</ele>
        <time>2020-01-03T13:51:18Z</time>
      </trkpt>
      <trkpt lat="39.6454660" lon="2.4820950">
        <ele>433.4</ele>
        <time>2020-01-03T13:51:23Z</time>
      </trkpt>
      <trkpt lat="39.6454970" lon="2.4820590">
        <ele>432.4</ele>
        <time>2020-01-03T13:51:30Z</time>
      </trkpt>
      <trkpt lat="39.6456500" lon="2.4819660">
        <ele>431.6</ele>
        <time>2020-01-03T13:51:41Z</time>
      </trkpt>
      <trkpt lat="39.6457510" lon="2.4819730">
        <ele>431.4</ele>
        <time>2020-01-03T13:51:51Z</time>
      </trkpt>
      <trkpt lat="39.6457540" lon="2.4819770">
        <ele>431.2</ele>
        <time>2020-01-03T13:51:52Z</time>
      </trkpt>
      <trkpt lat="39.6457380" lon="2.4818230">
        <ele>431.2</ele>
        <time>2020-01-03T13:52:14Z</time>
      </trkpt>
      <trkpt lat="39.6457620" lon="2.4817800">
        <ele>430.8</ele>
        <time>2020-01-03T13:52:19Z</time>
      </trkpt>
      <trkpt lat="39.6457990" lon="2.4817210">
        <ele>431.4</ele>
        <time>2020-01-03T13:52:27Z</time>
      </trkpt>
      <trkpt lat="39.6458090" lon="2.4816630">
        <ele>431.6</ele>
        <time>2020-01-03T13:52:32Z</time>
      </trkpt>
      <trkpt lat="39.6458210" lon="2.4815670">
        <ele>432.2</ele>
        <time>2020-01-03T13:52:39Z</time>
      </trkpt>
      <trkpt lat="39.6456780" lon="2.4812890">
        <ele>431.2</ele>
        <time>2020-01-03T13:53:02Z</time>
      </trkpt>
      <trkpt lat="39.6456560" lon="2.4812260">
        <ele>430.0</ele>
        <time>2020-01-03T13:53:07Z</time>
      </trkpt>
      <trkpt lat="39.6456400" lon="2.4811780">
        <ele>429.0</ele>
        <time>2020-01-03T13:53:11Z</time>
      </trkpt>
      <trkpt lat="39.6454920" lon="2.4808460">
        <ele>430.0</ele>
        <time>2020-01-03T13:53:40Z</time>
      </trkpt>
      <trkpt lat="39.6453860" lon="2.4806230">
        <ele>431.2</ele>
        <time>2020-01-03T13:53:58Z</time>
      </trkpt>
      <trkpt lat="39.6453180" lon="2.4803700">
        <ele>430.2</ele>
        <time>2020-01-03T13:54:15Z</time>
      </trkpt>
      <trkpt lat="39.6453100" lon="2.4803470">
        <ele>429.6</ele>
        <time>2020-01-03T13:54:17Z</time>
      </trkpt>
      <trkpt lat="39.6452920" lon="2.4803250">
        <ele>429.2</ele>
        <time>2020-01-03T13:54:19Z</time>
      </trkpt>
      <trkpt lat="39.6452860" lon="2.4803070">
        <ele>429.0</ele>
        <time>2020-01-03T13:54:20Z</time>
      </trkpt>
      <trkpt lat="39.6452480" lon="2.4802310">
        <ele>427.8</ele>
        <time>2020-01-03T13:54:25Z</time>
      </trkpt>
      <trkpt lat="39.6452400" lon="2.4801830">
        <ele>426.6</ele>
        <time>2020-01-03T13:54:29Z</time>
      </trkpt>
      <trkpt lat="39.6452280" lon="2.4801230">
        <ele>425.4</ele>
        <time>2020-01-03T13:54:33Z</time>
      </trkpt>
      <trkpt lat="39.6452130" lon="2.4800540">
        <ele>424.4</ele>
        <time>2020-01-03T13:54:37Z</time>
      </trkpt>
      <trkpt lat="39.6451790" lon="2.4799820">
        <ele>423.2</ele>
        <time>2020-01-03T13:54:42Z</time>
      </trkpt>
      <trkpt lat="39.6451670" lon="2.4798220">
        <ele>422.2</ele>
        <time>2020-01-03T13:54:53Z</time>
      </trkpt>
      <trkpt lat="39.6451010" lon="2.4795700">
        <ele>421.0</ele>
        <time>2020-01-03T13:55:11Z</time>
      </trkpt>
      <trkpt lat="39.6450810" lon="2.4795300">
        <ele>419.6</ele>
        <time>2020-01-03T13:55:15Z</time>
      </trkpt>
      <trkpt lat="39.6450690" lon="2.4794720">
        <ele>418.4</ele>
        <time>2020-01-03T13:55:19Z</time>
      </trkpt>
      <trkpt lat="39.6450650" lon="2.4794560">
        <ele>418.0</ele>
        <time>2020-01-03T13:55:20Z</time>
      </trkpt>
      <trkpt lat="39.6450580" lon="2.4794010">
        <ele>417.0</ele>
        <time>2020-01-03T13:55:23Z</time>
      </trkpt>
      <trkpt lat="39.6450220" lon="2.4793270">
        <ele>416.0</ele>
        <time>2020-01-03T13:55:28Z</time>
      </trkpt>
      <trkpt lat="39.6449980" lon="2.4792470">
        <ele>414.8</ele>
        <time>2020-01-03T13:55:34Z</time>
      </trkpt>
      <trkpt lat="39.6449940" lon="2.4791970">
        <ele>413.8</ele>
        <time>2020-01-03T13:55:38Z</time>
      </trkpt>
      <trkpt lat="39.6449740" lon="2.4791270">
        <ele>412.6</ele>
        <time>2020-01-03T13:55:43Z</time>
      </trkpt>
      <trkpt lat="39.6449360" lon="2.4790540">
        <ele>411.6</ele>
        <time>2020-01-03T13:55:48Z</time>
      </trkpt>
      <trkpt lat="39.6449570" lon="2.4790240">
        <ele>410.2</ele>
        <time>2020-01-03T13:55:54Z</time>
      </trkpt>
      <trkpt lat="39.6449950" lon="2.4790160">
        <ele>409.2</ele>
        <time>2020-01-03T13:55:59Z</time>
      </trkpt>
      <trkpt lat="39.6449920" lon="2.4789660">
        <ele>408.2</ele>
        <time>2020-01-03T13:56:07Z</time>
      </trkpt>
      <trkpt lat="39.6449600" lon="2.4789100">
        <ele>407.0</ele>
        <time>2020-01-03T13:56:14Z</time>
      </trkpt>
      <trkpt lat="39.6449470" lon="2.4788990">
        <ele>406.6</ele>
        <time>2020-01-03T13:56:16Z</time>
      </trkpt>
      <trkpt lat="39.6449300" lon="2.4788770">
        <ele>405.8</ele>
        <time>2020-01-03T13:56:19Z</time>
      </trkpt>
      <trkpt lat="39.6449260" lon="2.4788630">
        <ele>405.4</ele>
        <time>2020-01-03T13:56:20Z</time>
      </trkpt>
      <trkpt lat="39.6449030" lon="2.4788380">
        <ele>404.8</ele>
        <time>2020-01-03T13:56:23Z</time>
      </trkpt>
      <trkpt lat="39.6448950" lon="2.4788310">
        <ele>404.4</ele>
        <time>2020-01-03T13:56:24Z</time>
      </trkpt>
      <trkpt lat="39.6448750" lon="2.4788160">
        <ele>404.2</ele>
        <time>2020-01-03T13:56:26Z</time>
      </trkpt>
      <trkpt lat="39.6448360" lon="2.4787650">
        <ele>403.4</ele>
        <time>2020-01-03T13:56:31Z</time>
      </trkpt>
      <trkpt lat="39.6448100" lon="2.4786990">
        <ele>403.2</ele>
        <time>2020-01-03T13:56:36Z</time>
      </trkpt>
      <trkpt lat="39.6448190" lon="2.4786850">
        <ele>402.2</ele>
        <time>2020-01-03T13:56:47Z</time>
      </trkpt>
      <trkpt lat="39.6448710" lon="2.4786850">
        <ele>401.4</ele>
        <time>2020-01-03T13:56:51Z</time>
      </trkpt>
      <trkpt lat="39.6448860" lon="2.4786870">
        <ele>401.2</ele>
        <time>2020-01-03T13:56:52Z</time>
      </trkpt>
      <trkpt lat="39.6448990" lon="2.4786900">
        <ele>400.8</ele>
        <time>2020-01-03T13:56:53Z</time>
      </trkpt>
      <trkpt lat="39.6449330" lon="2.4786790">
        <ele>399.8</ele>
        <time>2020-01-03T13:56:57Z</time>
      </trkpt>
      <trkpt lat="39.6449560" lon="2.4786740">
        <ele>399.4</ele>
        <time>2020-01-03T13:56:59Z</time>
      </trkpt>
      <trkpt lat="39.6449780" lon="2.4786740">
        <ele>398.8</ele>
        <time>2020-01-03T13:57:02Z</time>
      </trkpt>
      <trkpt lat="39.6450130" lon="2.4786680">
        <ele>397.8</ele>
        <time>2020-01-03T13:57:07Z</time>
      </trkpt>
      <trkpt lat="39.6450660" lon="2.4786650">
        <ele>396.6</ele>
        <time>2020-01-03T13:57:12Z</time>
      </trkpt>
      <trkpt lat="39.6450920" lon="2.4786640">
        <ele>396.2</ele>
        <time>2020-01-03T13:57:15Z</time>
      </trkpt>
      <trkpt lat="39.6451460" lon="2.4786840">
        <ele>395.4</ele>
        <time>2020-01-03T13:57:27Z</time>
      </trkpt>
      <trkpt lat="39.6451770" lon="2.4786820">
        <ele>394.2</ele>
        <time>2020-01-03T13:57:32Z</time>
      </trkpt>
      <trkpt lat="39.6452040" lon="2.4786780">
        <ele>393.0</ele>
        <time>2020-01-03T13:57:37Z</time>
      </trkpt>
      <trkpt lat="39.6452340" lon="2.4786770">
        <ele>391.8</ele>
        <time>2020-01-03T13:57:41Z</time>
      </trkpt>
      <trkpt lat="39.6452670" lon="2.4787020">
        <ele>390.8</ele>
        <time>2020-01-03T13:57:46Z</time>
      </trkpt>
      <trkpt lat="39.6452810" lon="2.4787360">
        <ele>390.2</ele>
        <time>2020-01-03T13:57:49Z</time>
      </trkpt>
      <trkpt lat="39.6453020" lon="2.4787480">
        <ele>389.8</ele>
        <time>2020-01-03T13:57:51Z</time>
      </trkpt>
      <trkpt lat="39.6453110" lon="2.4787490">
        <ele>389.6</ele>
        <time>2020-01-03T13:57:52Z</time>
      </trkpt>
      <trkpt lat="39.6453250" lon="2.4787470">
        <ele>389.2</ele>
        <time>2020-01-03T13:57:54Z</time>
      </trkpt>
      <trkpt lat="39.6453260" lon="2.4787070">
        <ele>388.4</ele>
        <time>2020-01-03T13:57:58Z</time>
      </trkpt>
      <trkpt lat="39.6453190" lon="2.4786380">
        <ele>387.4</ele>
        <time>2020-01-03T13:58:03Z</time>
      </trkpt>
      <trkpt lat="39.6453170" lon="2.4785990">
        <ele>386.4</ele>
        <time>2020-01-03T13:58:07Z</time>
      </trkpt>
      <trkpt lat="39.6453190" lon="2.4785460">
        <ele>385.2</ele>
        <time>2020-01-03T13:58:13Z</time>
      </trkpt>
      <trkpt lat="39.6453330" lon="2.4785420">
        <ele>384.0</ele>
        <time>2020-01-03T13:58:17Z</time>
      </trkpt>
      <trkpt lat="39.6453620" lon="2.4785480">
        <ele>383.0</ele>
        <time>2020-01-03T13:58:21Z</time>
      </trkpt>
      <trkpt lat="39.6453930" lon="2.4786350">
        <ele>382.0</ele>
        <time>2020-01-03T13:58:28Z</time>
      </trkpt>
      <trkpt lat="39.6454210" lon="2.4786840">
        <ele>380.6</ele>
        <time>2020-01-03T13:58:33Z</time>
      </trkpt>
      <trkpt lat="39.6454630" lon="2.4787350">
        <ele>379.4</ele>
        <time>2020-01-03T13:58:38Z</time>
      </trkpt>
      <trkpt lat="39.6454690" lon="2.4787920">
        <ele>378.4</ele>
        <time>2020-01-03T13:58:44Z</time>
      </trkpt>
      <trkpt lat="39.6454770" lon="2.4788280">
        <ele>377.2</ele>
        <time>2020-01-03T13:58:49Z</time>
      </trkpt>
      <trkpt lat="39.6454730" lon="2.4789020">
        <ele>375.8</ele>
        <time>2020-01-03T13:58:54Z</time>
      </trkpt>
      <trkpt lat="39.6454740" lon="2.4789780">
        <ele>374.8</ele>
        <time>2020-01-03T13:58:59Z</time>
      </trkpt>
      <trkpt lat="39.6455150" lon="2.4790320">
        <ele>373.8</ele>
        <time>2020-01-03T13:59:03Z</time>
      </trkpt>
      <trkpt lat="39.6455240" lon="2.4790460">
        <ele>373.6</ele>
        <time>2020-01-03T13:59:04Z</time>
      </trkpt>
      <trkpt lat="39.6457320" lon="2.4793050">
        <ele>372.8</ele>
        <time>2020-01-03T13:59:23Z</time>
      </trkpt>
      <trkpt lat="39.6457660" lon="2.4794850">
        <ele>371.6</ele>
        <time>2020-01-03T13:59:41Z</time>
      </trkpt>
      <trkpt lat="39.6457710" lon="2.4794990">
        <ele>371.6</ele>
        <time>2020-01-03T13:59:42Z</time>
      </trkpt>
      <trkpt lat="39.6457790" lon="2.4795260">
        <ele>371.2</ele>
        <time>2020-01-03T13:59:44Z</time>
      </trkpt>
      <trkpt lat="39.6457870" lon="2.4795860">
        <ele>370.6</ele>
        <time>2020-01-03T13:59:49Z</time>
      </trkpt>
      <trkpt lat="39.6458200" lon="2.4796550">
        <ele>369.6</ele>
        <time>2020-01-03T13:59:56Z</time>
      </trkpt>
      <trkpt lat="39.6458610" lon="2.4797120">
        <ele>368.4</ele>
        <time>2020-01-03T14:00:01Z</time>
      </trkpt>
      <trkpt lat="39.6458850" lon="2.4797590">
        <ele>367.4</ele>
        <time>2020-01-03T14:00:05Z</time>
      </trkpt>
      <trkpt lat="39.6459160" lon="2.4798030">
        <ele>366.2</ele>
        <time>2020-01-03T14:00:10Z</time>
      </trkpt>
      <trkpt lat="39.6459510" lon="2.4798510">
        <ele>365.2</ele>
        <time>2020-01-03T14:00:15Z</time>
      </trkpt>
      <trkpt lat="39.6460420" lon="2.4799120">
        <ele>364.0</ele>
        <time>2020-01-03T14:00:25Z</time>
      </trkpt>
      <trkpt lat="39.6461760" lon="2.4799670">
        <ele>363.0</ele>
        <time>2020-01-03T14:00:37Z</time>
      </trkpt>
      <trkpt lat="39.6462250" lon="2.4799820">
        <ele>361.8</ele>
        <time>2020-01-03T14:00:43Z</time>
      </trkpt>
      <trkpt lat="39.6463310" lon="2.4799920">
        <ele>360.8</ele>
        <time>2020-01-03T14:00:52Z</time>
      </trkpt>
      <trkpt lat="39.6464010" lon="2.4799300">
        <ele>359.8</ele>
        <time>2020-01-03T14:01:02Z</time>
      </trkpt>
      <trkpt lat="39.6463780" lon="2.4798610">
        <ele>358.6</ele>
        <time>2020-01-03T14:01:18Z</time>
      </trkpt>
      <trkpt lat="39.6463570" lon="2.4798160">
        <ele>357.4</ele>
        <time>2020-01-03T14:01:25Z</time>
      </trkpt>
      <trkpt lat="39.6463170" lon="2.4797510">
        <ele>357.2</ele>
        <time>2020-01-03T14:01:31Z</time>
      </trkpt>
      <trkpt lat="39.6462640" lon="2.4795810">
        <ele>356.4</ele>
        <time>2020-01-03T14:01:45Z</time>
      </trkpt>
      <trkpt lat="39.6461860" lon="2.4794810">
        <ele>355.4</ele>
        <time>2020-01-03T14:01:55Z</time>
      </trkpt>
      <trkpt lat="39.6461120" lon="2.4793740">
        <ele>354.2</ele>
        <time>2020-01-03T14:02:05Z</time>
      </trkpt>
      <trkpt lat="39.6460670" lon="2.4792720">
        <ele>353.2</ele>
        <time>2020-01-03T14:02:11Z</time>
      </trkpt>
      <trkpt lat="39.6460090" lon="2.4791460">
        <ele>352.0</ele>
        <time>2020-01-03T14:02:19Z</time>
      </trkpt>
      <trkpt lat="39.6460330" lon="2.4790840">
        <ele>350.8</ele>
        <time>2020-01-03T14:02:25Z</time>
      </trkpt>
      <trkpt lat="39.6461240" lon="2.4790590">
        <ele>349.8</ele>
        <time>2020-01-03T14:02:33Z</time>
      </trkpt>
      <trkpt lat="39.6461670" lon="2.4790510">
        <ele>348.4</ele>
        <time>2020-01-03T14:02:38Z</time>
      </trkpt>
      <trkpt lat="39.6462030" lon="2.4790610">
        <ele>347.2</ele>
        <time>2020-01-03T14:02:42Z</time>
      </trkpt>
      <trkpt lat="39.6462470" lon="2.4790780">
        <ele>346.0</ele>
        <time>2020-01-03T14:02:46Z</time>
      </trkpt>
      <trkpt lat="39.6463000" lon="2.4791110">
        <ele>344.8</ele>
        <time>2020-01-03T14:02:51Z</time>
      </trkpt>
      <trkpt lat="39.6463500" lon="2.4791600">
        <ele>343.4</ele>
        <time>2020-01-03T14:02:56Z</time>
      </trkpt>
      <trkpt lat="39.6463900" lon="2.4791950">
        <ele>342.4</ele>
        <time>2020-01-03T14:03:00Z</time>
      </trkpt>
      <trkpt lat="39.6464260" lon="2.4792330">
        <ele>341.4</ele>
        <time>2020-01-03T14:03:04Z</time>
      </trkpt>
      <trkpt lat="39.6465040" lon="2.4792650">
        <ele>340.2</ele>
        <time>2020-01-03T14:03:10Z</time>
      </trkpt>
      <trkpt lat="39.6465580" lon="2.4792940">
        <ele>339.2</ele>
        <time>2020-01-03T14:03:23Z</time>
      </trkpt>
      <trkpt lat="39.6466170" lon="2.4793310">
        <ele>338.2</ele>
        <time>2020-01-03T14:03:38Z</time>
      </trkpt>
      <trkpt lat="39.6466430" lon="2.4793500">
        <ele>337.0</ele>
        <time>2020-01-03T14:03:45Z</time>
      </trkpt>
      <trkpt lat="39.6466740" lon="2.4793520">
        <ele>336.0</ele>
        <time>2020-01-03T14:03:49Z</time>
      </trkpt>
      <trkpt lat="39.6467070" lon="2.4793720">
        <ele>334.8</ele>
        <time>2020-01-03T14:03:54Z</time>
      </trkpt>
      <trkpt lat="39.6467420" lon="2.4793960">
        <ele>333.8</ele>
        <time>2020-01-03T14:04:00Z</time>
      </trkpt>
      <trkpt lat="39.6467720" lon="2.4794260">
        <ele>332.6</ele>
        <time>2020-01-03T14:04:06Z</time>
      </trkpt>
      <trkpt lat="39.6467930" lon="2.4794450">
        <ele>332.2</ele>
        <time>2020-01-03T14:04:08Z</time>
      </trkpt>
      <trkpt lat="39.6468280" lon="2.4794680">
        <ele>331.6</ele>
        <time>2020-01-03T14:04:11Z</time>
      </trkpt>
      <trkpt lat="39.6468890" lon="2.4795100">
        <ele>330.4</ele>
        <time>2020-01-03T14:04:16Z</time>
      </trkpt>
      <trkpt lat="39.6469440" lon="2.4795280">
        <ele>329.4</ele>
        <time>2020-01-03T14:04:21Z</time>
      </trkpt>
      <trkpt lat="39.6469720" lon="2.4794790">
        <ele>328.4</ele>
        <time>2020-01-03T14:04:28Z</time>
      </trkpt>
      <trkpt lat="39.6469600" lon="2.4794080">
        <ele>327.2</ele>
        <time>2020-01-03T14:04:36Z</time>
      </trkpt>
      <trkpt lat="39.6469540" lon="2.4793820">
        <ele>327.0</ele>
        <time>2020-01-03T14:04:38Z</time>
      </trkpt>
      <trkpt lat="39.6469370" lon="2.4793340">
        <ele>326.2</ele>
        <time>2020-01-03T14:04:41Z</time>
      </trkpt>
      <trkpt lat="39.6469230" lon="2.4792550">
        <ele>325.0</ele>
        <time>2020-01-03T14:04:46Z</time>
      </trkpt>
      <trkpt lat="39.6469030" lon="2.4791960">
        <ele>323.8</ele>
        <time>2020-01-03T14:04:51Z</time>
      </trkpt>
      <trkpt lat="39.6468720" lon="2.4791250">
        <ele>322.6</ele>
        <time>2020-01-03T14:04:56Z</time>
      </trkpt>
      <trkpt lat="39.6468570" lon="2.4790650">
        <ele>321.4</ele>
        <time>2020-01-03T14:05:01Z</time>
      </trkpt>
      <trkpt lat="39.6468690" lon="2.4790130">
        <ele>320.4</ele>
        <time>2020-01-03T14:05:05Z</time>
      </trkpt>
      <trkpt lat="39.6469180" lon="2.4789360">
        <ele>319.4</ele>
        <time>2020-01-03T14:05:29Z</time>
      </trkpt>
      <trkpt lat="39.6469270" lon="2.4789190">
        <ele>318.2</ele>
        <time>2020-01-03T14:05:33Z</time>
      </trkpt>
      <trkpt lat="39.6469270" lon="2.4788880">
        <ele>317.0</ele>
        <time>2020-01-03T14:05:38Z</time>
      </trkpt>
      <trkpt lat="39.6469310" lon="2.4788710">
        <ele>315.6</ele>
        <time>2020-01-03T14:05:42Z</time>
      </trkpt>
      <trkpt lat="39.6469420" lon="2.4788410">
        <ele>314.6</ele>
        <time>2020-01-03T14:05:45Z</time>
      </trkpt>
      <trkpt lat="39.6469520" lon="2.4787880">
        <ele>313.6</ele>
        <time>2020-01-03T14:05:49Z</time>
      </trkpt>
      <trkpt lat="39.6469450" lon="2.4787550">
        <ele>313.0</ele>
        <time>2020-01-03T14:05:51Z</time>
      </trkpt>
      <trkpt lat="39.6469270" lon="2.4787260">
        <ele>312.4</ele>
        <time>2020-01-03T14:05:55Z</time>
      </trkpt>
      <trkpt lat="39.6469220" lon="2.4786860">
        <ele>311.2</ele>
        <time>2020-01-03T14:05:59Z</time>
      </trkpt>
      <trkpt lat="39.6469280" lon="2.4786620">
        <ele>310.2</ele>
        <time>2020-01-03T14:06:02Z</time>
      </trkpt>
      <trkpt lat="39.6469480" lon="2.4786170">
        <ele>309.0</ele>
        <time>2020-01-03T14:06:07Z</time>
      </trkpt>
      <trkpt lat="39.6469730" lon="2.4785830">
        <ele>307.8</ele>
        <time>2020-01-03T14:06:11Z</time>
      </trkpt>
      <trkpt lat="39.6470030" lon="2.4785600">
        <ele>306.8</ele>
        <time>2020-01-03T14:06:14Z</time>
      </trkpt>
      <trkpt lat="39.6470440" lon="2.4785440">
        <ele>305.8</ele>
        <time>2020-01-03T14:06:17Z</time>
      </trkpt>
      <trkpt lat="39.6471050" lon="2.4785150">
        <ele>304.4</ele>
        <time>2020-01-03T14:06:21Z</time>
      </trkpt>
      <trkpt lat="39.6471520" lon="2.4785020">
        <ele>303.2</ele>
        <time>2020-01-03T14:06:25Z</time>
      </trkpt>
      <trkpt lat="39.6471810" lon="2.4784930">
        <ele>301.8</ele>
        <time>2020-01-03T14:06:29Z</time>
      </trkpt>
      <trkpt lat="39.6472350" lon="2.4784740">
        <ele>300.6</ele>
        <time>2020-01-03T14:06:34Z</time>
      </trkpt>
      <trkpt lat="39.6472740" lon="2.4784610">
        <ele>299.4</ele>
        <time>2020-01-03T14:06:37Z</time>
      </trkpt>
      <trkpt lat="39.6473320" lon="2.4784420">
        <ele>298.2</ele>
        <time>2020-01-03T14:06:42Z</time>
      </trkpt>
      <trkpt lat="39.6474070" lon="2.4784380">
        <ele>297.0</ele>
        <time>2020-01-03T14:06:47Z</time>
      </trkpt>
      <trkpt lat="39.6474410" lon="2.4783920">
        <ele>296.4</ele>
        <time>2020-01-03T14:07:01Z</time>
      </trkpt>
      <trkpt lat="39.6474540" lon="2.4783530">
        <ele>296.4</ele>
        <time>2020-01-03T14:07:05Z</time>
      </trkpt>
      <trkpt lat="39.6474900" lon="2.4783750">
        <ele>296.0</ele>
        <time>2020-01-03T14:07:25Z</time>
      </trkpt>
      <trkpt lat="39.6474620" lon="2.4781870">
        <ele>295.6</ele>
        <time>2020-01-03T14:08:11Z</time>
      </trkpt>
      <trkpt lat="39.6474620" lon="2.4781630">
        <ele>295.8</ele>
        <time>2020-01-03T14:08:13Z</time>
      </trkpt>
      <trkpt lat="39.6474740" lon="2.4781440">
        <ele>296.2</ele>
        <time>2020-01-03T14:08:15Z</time>
      </trkpt>
      <trkpt lat="39.6474850" lon="2.4781210">
        <ele>296.4</ele>
        <time>2020-01-03T14:08:17Z</time>
      </trkpt>
      <trkpt lat="39.6474970" lon="2.4780880">
        <ele>296.4</ele>
        <time>2020-01-03T14:08:20Z</time>
      </trkpt>
      <trkpt lat="39.6474790" lon="2.4780010">
        <ele>297.2</ele>
        <time>2020-01-03T14:08:30Z</time>
      </trkpt>
      <trkpt lat="39.6474450" lon="2.4779680">
        <ele>298.2</ele>
        <time>2020-01-03T14:08:35Z</time>
      </trkpt>
      <trkpt lat="39.6474190" lon="2.4779630">
        <ele>299.0</ele>
        <time>2020-01-03T14:08:38Z</time>
      </trkpt>
      <trkpt lat="39.6474000" lon="2.4779500">
        <ele>299.4</ele>
        <time>2020-01-03T14:08:41Z</time>
      </trkpt>
      <trkpt lat="39.6473930" lon="2.4779260">
        <ele>300.4</ele>
        <time>2020-01-03T14:08:45Z</time>
      </trkpt>
      <trkpt lat="39.6473920" lon="2.4778890">
        <ele>301.6</ele>
        <time>2020-01-03T14:08:50Z</time>
      </trkpt>
      <trkpt lat="39.6474120" lon="2.4778360">
        <ele>302.4</ele>
        <time>2020-01-03T14:08:55Z</time>
      </trkpt>
      <trkpt lat="39.6474180" lon="2.4777970">
        <ele>302.6</ele>
        <time>2020-01-03T14:08:58Z</time>
      </trkpt>
      <trkpt lat="39.6474240" lon="2.4777830">
        <ele>302.8</ele>
        <time>2020-01-03T14:08:59Z</time>
      </trkpt>
      <trkpt lat="39.6474340" lon="2.4775680">
        <ele>303.2</ele>
        <time>2020-01-03T14:09:14Z</time>
      </trkpt>
      <trkpt lat="39.6474470" lon="2.4775410">
        <ele>303.2</ele>
        <time>2020-01-03T14:09:17Z</time>
      </trkpt>
      <trkpt lat="39.6474680" lon="2.4774870">
        <ele>303.6</ele>
        <time>2020-01-03T14:09:21Z</time>
      </trkpt>
      <trkpt lat="39.6474750" lon="2.4774760">
        <ele>303.6</ele>
        <time>2020-01-03T14:09:22Z</time>
      </trkpt>
      <trkpt lat="39.6475390" lon="2.4774120">
        <ele>304.6</ele>
        <time>2020-01-03T14:09:29Z</time>
      </trkpt>
      <trkpt lat="39.6476090" lon="2.4773380">
        <ele>305.8</ele>
        <time>2020-01-03T14:09:36Z</time>
      </trkpt>
      <trkpt lat="39.6476470" lon="2.4772960">
        <ele>306.8</ele>
        <time>2020-01-03T14:09:41Z</time>
      </trkpt>
      <trkpt lat="39.6476860" lon="2.4772320">
        <ele>308.0</ele>
        <time>2020-01-03T14:09:47Z</time>
      </trkpt>
      <trkpt lat="39.6477200" lon="2.4771960">
        <ele>309.0</ele>
        <time>2020-01-03T14:09:53Z</time>
      </trkpt>
      <trkpt lat="39.6477350" lon="2.4771820">
        <ele>309.4</ele>
        <time>2020-01-03T14:09:55Z</time>
      </trkpt>
      <trkpt lat="39.6477640" lon="2.4771660">
        <ele>310.0</ele>
        <time>2020-01-03T14:09:58Z</time>
      </trkpt>
      <trkpt lat="39.6478070" lon="2.4771460">
        <ele>311.2</ele>
        <time>2020-01-03T14:10:04Z</time>
      </trkpt>
      <trkpt lat="39.6478270" lon="2.4771410">
        <ele>311.4</ele>
        <time>2020-01-03T14:10:06Z</time>
      </trkpt>
      <trkpt lat="39.6478570" lon="2.4771340">
        <ele>311.4</ele>
        <time>2020-01-03T14:10:09Z</time>
      </trkpt>
      <trkpt lat="39.6478850" lon="2.4771270">
        <ele>311.4</ele>
        <time>2020-01-03T14:10:11Z</time>
      </trkpt>
      <trkpt lat="39.6479130" lon="2.4771230">
        <ele>311.4</ele>
        <time>2020-01-03T14:10:13Z</time>
      </trkpt>
      <trkpt lat="39.6480820" lon="2.4770890">
        <ele>312.2</ele>
        <time>2020-01-03T14:10:25Z</time>
      </trkpt>
      <trkpt lat="39.6482970" lon="2.4769080">
        <ele>313.2</ele>
        <time>2020-01-03T14:10:47Z</time>
      </trkpt>
      <trkpt lat="39.6483080" lon="2.4768270">
        <ele>314.4</ele>
        <time>2020-01-03T14:11:09Z</time>
      </trkpt>
      <trkpt lat="39.6482790" lon="2.4767510">
        <ele>315.4</ele>
        <time>2020-01-03T14:11:25Z</time>
      </trkpt>
      <trkpt lat="39.6482880" lon="2.4766840">
        <ele>316.6</ele>
        <time>2020-01-03T14:11:30Z</time>
      </trkpt>
      <trkpt lat="39.6482710" lon="2.4765330">
        <ele>317.6</ele>
        <time>2020-01-03T14:11:42Z</time>
      </trkpt>
      <trkpt lat="39.6482670" lon="2.4764700">
        <ele>318.8</ele>
        <time>2020-01-03T14:11:47Z</time>
      </trkpt>
      <trkpt lat="39.6484650" lon="2.4761620">
        <ele>318.8</ele>
        <time>2020-01-03T14:12:20Z</time>
      </trkpt>
      <trkpt lat="39.6484890" lon="2.4761300">
        <ele>319.0</ele>
        <time>2020-01-03T14:12:23Z</time>
      </trkpt>
      <trkpt lat="39.6485530" lon="2.4760410">
        <ele>317.8</ele>
        <time>2020-01-03T14:12:34Z</time>
      </trkpt>
      <trkpt lat="39.6485420" lon="2.4760150">
        <ele>317.6</ele>
        <time>2020-01-03T14:12:37Z</time>
      </trkpt>
      <trkpt lat="39.6485210" lon="2.4760020">
        <ele>317.4</ele>
        <time>2020-01-03T14:12:39Z</time>
      </trkpt>
      <trkpt lat="39.6485080" lon="2.4759870">
        <ele>317.0</ele>
        <time>2020-01-03T14:12:41Z</time>
      </trkpt>
      <trkpt lat="39.6484820" lon="2.4759610">
        <ele>316.4</ele>
        <time>2020-01-03T14:12:45Z</time>
      </trkpt>
      <trkpt lat="39.6484680" lon="2.4759310">
        <ele>315.4</ele>
        <time>2020-01-03T14:12:51Z</time>
      </trkpt>
      <trkpt lat="39.6484650" lon="2.4758890">
        <ele>314.2</ele>
        <time>2020-01-03T14:12:56Z</time>
      </trkpt>
      <trkpt lat="39.6484740" lon="2.4758410">
        <ele>313.0</ele>
        <time>2020-01-03T14:13:01Z</time>
      </trkpt>
      <trkpt lat="39.6484850" lon="2.4758060">
        <ele>311.8</ele>
        <time>2020-01-03T14:13:05Z</time>
      </trkpt>
      <trkpt lat="39.6484700" lon="2.4757400">
        <ele>310.6</ele>
        <time>2020-01-03T14:13:11Z</time>
      </trkpt>
      <trkpt lat="39.6484540" lon="2.4757090">
        <ele>310.2</ele>
        <time>2020-01-03T14:13:14Z</time>
      </trkpt>
      <trkpt lat="39.6484350" lon="2.4756820">
        <ele>309.4</ele>
        <time>2020-01-03T14:13:18Z</time>
      </trkpt>
      <trkpt lat="39.6484560" lon="2.4756400">
        <ele>308.2</ele>
        <time>2020-01-03T14:13:22Z</time>
      </trkpt>
      <trkpt lat="39.6484560" lon="2.4756220">
        <ele>307.6</ele>
        <time>2020-01-03T14:13:24Z</time>
      </trkpt>
      <trkpt lat="39.6484570" lon="2.4756020">
        <ele>307.2</ele>
        <time>2020-01-03T14:13:26Z</time>
      </trkpt>
      <trkpt lat="39.6484540" lon="2.4755890">
        <ele>307.0</ele>
        <time>2020-01-03T14:13:27Z</time>
      </trkpt>
      <trkpt lat="39.6484580" lon="2.4755680">
        <ele>306.6</ele>
        <time>2020-01-03T14:13:29Z</time>
      </trkpt>
      <trkpt lat="39.6484610" lon="2.4755430">
        <ele>306.0</ele>
        <time>2020-01-03T14:13:32Z</time>
      </trkpt>
      <trkpt lat="39.6484660" lon="2.4755280">
        <ele>305.6</ele>
        <time>2020-01-03T14:13:34Z</time>
      </trkpt>
      <trkpt lat="39.6484680" lon="2.4754970">
        <ele>305.0</ele>
        <time>2020-01-03T14:13:37Z</time>
      </trkpt>
      <trkpt lat="39.6484630" lon="2.4754410">
        <ele>303.8</ele>
        <time>2020-01-03T14:13:42Z</time>
      </trkpt>
      <trkpt lat="39.6484570" lon="2.4754070">
        <ele>303.4</ele>
        <time>2020-01-03T14:13:44Z</time>
      </trkpt>
      <trkpt lat="39.6484760" lon="2.4753460">
        <ele>302.6</ele>
        <time>2020-01-03T14:13:48Z</time>
      </trkpt>
      <trkpt lat="39.6485150" lon="2.4752950">
        <ele>301.4</ele>
        <time>2020-01-03T14:13:55Z</time>
      </trkpt>
      <trkpt lat="39.6485070" lon="2.4752620">
        <ele>300.8</ele>
        <time>2020-01-03T14:13:58Z</time>
      </trkpt>
      <trkpt lat="39.6484910" lon="2.4752400">
        <ele>300.6</ele>
        <time>2020-01-03T14:14:00Z</time>
      </trkpt>
      <trkpt lat="39.6484640" lon="2.4752270">
        <ele>300.4</ele>
        <time>2020-01-03T14:14:02Z</time>
      </trkpt>
      <trkpt lat="39.6483520" lon="2.4751400">
        <ele>299.4</ele>
        <time>2020-01-03T14:14:12Z</time>
      </trkpt>
      <trkpt lat="39.6482220" lon="2.4749560">
        <ele>298.2</ele>
        <time>2020-01-03T14:14:29Z</time>
      </trkpt>
      <trkpt lat="39.6482010" lon="2.4748970">
        <ele>297.2</ele>
        <time>2020-01-03T14:14:35Z</time>
      </trkpt>
      <trkpt lat="39.6481930" lon="2.4748620">
        <ele>296.2</ele>
        <time>2020-01-03T14:14:41Z</time>
      </trkpt>
      <trkpt lat="39.6482100" lon="2.4748110">
        <ele>295.0</ele>
        <time>2020-01-03T14:14:46Z</time>
      </trkpt>
      <trkpt lat="39.6482100" lon="2.4747740">
        <ele>294.2</ele>
        <time>2020-01-03T14:14:49Z</time>
      </trkpt>
      <trkpt lat="39.6482070" lon="2.4747650">
        <ele>294.0</ele>
        <time>2020-01-03T14:14:50Z</time>
      </trkpt>
      <trkpt lat="39.6481950" lon="2.4747420">
        <ele>293.4</ele>
        <time>2020-01-03T14:14:52Z</time>
      </trkpt>
      <trkpt lat="39.6481870" lon="2.4747210">
        <ele>293.0</ele>
        <time>2020-01-03T14:14:54Z</time>
      </trkpt>
      <trkpt lat="39.6481640" lon="2.4746890">
        <ele>292.2</ele>
        <time>2020-01-03T14:14:57Z</time>
      </trkpt>
      <trkpt lat="39.6481520" lon="2.4746820">
        <ele>291.8</ele>
        <time>2020-01-03T14:14:58Z</time>
      </trkpt>
      <trkpt lat="39.6481410" lon="2.4746390">
        <ele>290.8</ele>
        <time>2020-01-03T14:15:02Z</time>
      </trkpt>
      <trkpt lat="39.6481760" lon="2.4743620">
        <ele>289.8</ele>
        <time>2020-01-03T14:15:21Z</time>
      </trkpt>
      <trkpt lat="39.6481810" lon="2.4742990">
        <ele>288.8</ele>
        <time>2020-01-03T14:15:26Z</time>
      </trkpt>
      <trkpt lat="39.6481840" lon="2.4742500">
        <ele>287.6</ele>
        <time>2020-01-03T14:15:31Z</time>
      </trkpt>
      <trkpt lat="39.6481880" lon="2.4741910">
        <ele>286.4</ele>
        <time>2020-01-03T14:15:40Z</time>
      </trkpt>
      <trkpt lat="39.6481880" lon="2.4741650">
        <ele>285.4</ele>
        <time>2020-01-03T14:15:47Z</time>
      </trkpt>
      <trkpt lat="39.6481740" lon="2.4741380">
        <ele>284.2</ele>
        <time>2020-01-03T14:15:53Z</time>
      </trkpt>
      <trkpt lat="39.6481550" lon="2.4740850">
        <ele>283.0</ele>
        <time>2020-01-03T14:15:58Z</time>
      </trkpt>
      <trkpt lat="39.6481710" lon="2.4740380">
        <ele>282.0</ele>
        <time>2020-01-03T14:16:03Z</time>
      </trkpt>
      <trkpt lat="39.6481780" lon="2.4740310">
        <ele>281.8</ele>
        <time>2020-01-03T14:16:04Z</time>
      </trkpt>
      <trkpt lat="39.6481790" lon="2.4739940">
        <ele>281.8</ele>
        <time>2020-01-03T14:16:08Z</time>
      </trkpt>
      <trkpt lat="39.6482000" lon="2.4739580">
        <ele>280.8</ele>
        <time>2020-01-03T14:16:15Z</time>
      </trkpt>
      <trkpt lat="39.6482250" lon="2.4739190">
        <ele>279.8</ele>
        <time>2020-01-03T14:16:21Z</time>
      </trkpt>
      <trkpt lat="39.6482510" lon="2.4738980">
        <ele>278.6</ele>
        <time>2020-01-03T14:16:27Z</time>
      </trkpt>
      <trkpt lat="39.6482700" lon="2.4738840">
        <ele>278.2</ele>
        <time>2020-01-03T14:16:29Z</time>
      </trkpt>
      <trkpt lat="39.6482870" lon="2.4738670">
        <ele>277.6</ele>
        <time>2020-01-03T14:16:31Z</time>
      </trkpt>
      <trkpt lat="39.6484020" lon="2.4736460">
        <ele>276.6</ele>
        <time>2020-01-03T14:16:55Z</time>
      </trkpt>
      <trkpt lat="39.6484650" lon="2.4736060">
        <ele>275.4</ele>
        <time>2020-01-03T14:17:01Z</time>
      </trkpt>
      <trkpt lat="39.6484820" lon="2.4735680">
        <ele>274.2</ele>
        <time>2020-01-03T14:17:06Z</time>
      </trkpt>
      <trkpt lat="39.6485200" lon="2.4735430">
        <ele>273.6</ele>
        <time>2020-01-03T14:17:09Z</time>
      </trkpt>
      <trkpt lat="39.6485390" lon="2.4735310">
        <ele>273.2</ele>
        <time>2020-01-03T14:17:12Z</time>
      </trkpt>
      <trkpt lat="39.6485560" lon="2.4734850">
        <ele>273.0</ele>
        <time>2020-01-03T14:17:16Z</time>
      </trkpt>
      <trkpt lat="39.6486250" lon="2.4734140">
        <ele>273.0</ele>
        <time>2020-01-03T14:17:21Z</time>
      </trkpt>
      <trkpt lat="39.6486430" lon="2.4733540">
        <ele>273.4</ele>
        <time>2020-01-03T14:17:26Z</time>
      </trkpt>
      <trkpt lat="39.6486510" lon="2.4733350">
        <ele>273.4</ele>
        <time>2020-01-03T14:17:28Z</time>
      </trkpt>
      <trkpt lat="39.6486840" lon="2.4732870">
        <ele>273.8</ele>
        <time>2020-01-03T14:17:33Z</time>
      </trkpt>
      <trkpt lat="39.6486900" lon="2.4732410">
        <ele>274.2</ele>
        <time>2020-01-03T14:17:38Z</time>
      </trkpt>
      <trkpt lat="39.6486970" lon="2.4732260">
        <ele>274.2</ele>
        <time>2020-01-03T14:17:39Z</time>
      </trkpt>
      <trkpt lat="39.6487280" lon="2.4732130">
        <ele>274.6</ele>
        <time>2020-01-03T14:17:42Z</time>
      </trkpt>
      <trkpt lat="39.6487590" lon="2.4731700">
        <ele>274.8</ele>
        <time>2020-01-03T14:17:46Z</time>
      </trkpt>
      <trkpt lat="39.6488080" lon="2.4731160">
        <ele>274.0</ele>
        <time>2020-01-03T14:17:52Z</time>
      </trkpt>
      <trkpt lat="39.6488380" lon="2.4730880">
        <ele>273.2</ele>
        <time>2020-01-03T14:17:55Z</time>
      </trkpt>
      <trkpt lat="39.6488520" lon="2.4730370">
        <ele>272.2</ele>
        <time>2020-01-03T14:17:59Z</time>
      </trkpt>
      <trkpt lat="39.6488540" lon="2.4730280">
        <ele>272.0</ele>
        <time>2020-01-03T14:18:00Z</time>
      </trkpt>
      <trkpt lat="39.6488680" lon="2.4730210">
        <ele>271.4</ele>
        <time>2020-01-03T14:18:02Z</time>
      </trkpt>
      <trkpt lat="39.6488840" lon="2.4730190">
        <ele>271.2</ele>
        <time>2020-01-03T14:18:03Z</time>
      </trkpt>
      <trkpt lat="39.6488960" lon="2.4730170">
        <ele>270.8</ele>
        <time>2020-01-03T14:18:04Z</time>
      </trkpt>
      <trkpt lat="39.6489300" lon="2.4730030">
        <ele>270.0</ele>
        <time>2020-01-03T14:18:07Z</time>
      </trkpt>
      <trkpt lat="39.6489470" lon="2.4729770">
        <ele>269.0</ele>
        <time>2020-01-03T14:18:11Z</time>
      </trkpt>
      <trkpt lat="39.6489860" lon="2.4729600">
        <ele>267.8</ele>
        <time>2020-01-03T14:18:16Z</time>
      </trkpt>
      <trkpt lat="39.6490200" lon="2.4729500">
        <ele>267.4</ele>
        <time>2020-01-03T14:18:18Z</time>
      </trkpt>
      <trkpt lat="39.6490560" lon="2.4729280">
        <ele>266.6</ele>
        <time>2020-01-03T14:18:21Z</time>
      </trkpt>
      <trkpt lat="39.6490940" lon="2.4728940">
        <ele>265.4</ele>
        <time>2020-01-03T14:18:26Z</time>
      </trkpt>
      <trkpt lat="39.6491110" lon="2.4728840">
        <ele>264.4</ele>
        <time>2020-01-03T14:18:29Z</time>
      </trkpt>
      <trkpt lat="39.6491530" lon="2.4728600">
        <ele>263.2</ele>
        <time>2020-01-03T14:18:33Z</time>
      </trkpt>
      <trkpt lat="39.6491650" lon="2.4728530">
        <ele>263.0</ele>
        <time>2020-01-03T14:18:34Z</time>
      </trkpt>
      <trkpt lat="39.6491910" lon="2.4728310">
        <ele>262.2</ele>
        <time>2020-01-03T14:18:37Z</time>
      </trkpt>
      <trkpt lat="39.6492070" lon="2.4727830">
        <ele>261.0</ele>
        <time>2020-01-03T14:18:41Z</time>
      </trkpt>
      <trkpt lat="39.6492410" lon="2.4727240">
        <ele>259.8</ele>
        <time>2020-01-03T14:18:46Z</time>
      </trkpt>
      <trkpt lat="39.6492910" lon="2.4726390">
        <ele>258.6</ele>
        <time>2020-01-03T14:18:52Z</time>
      </trkpt>
      <trkpt lat="39.6493740" lon="2.4725280">
        <ele>257.6</ele>
        <time>2020-01-03T14:19:02Z</time>
      </trkpt>
      <trkpt lat="39.6494370" lon="2.4724450">
        <ele>256.4</ele>
        <time>2020-01-03T14:19:09Z</time>
      </trkpt>
      <trkpt lat="39.6495480" lon="2.4723580">
        <ele>255.2</ele>
        <time>2020-01-03T14:19:18Z</time>
      </trkpt>
      <trkpt lat="39.6496020" lon="2.4722960">
        <ele>254.2</ele>
        <time>2020-01-03T14:19:25Z</time>
      </trkpt>
      <trkpt lat="39.6496600" lon="2.4722220">
        <ele>253.2</ele>
        <time>2020-01-03T14:19:34Z</time>
      </trkpt>
      <trkpt lat="39.6497090" lon="2.4721990">
        <ele>251.8</ele>
        <time>2020-01-03T14:19:39Z</time>
      </trkpt>
      <trkpt lat="39.6497180" lon="2.4721990">
        <ele>251.4</ele>
        <time>2020-01-03T14:19:41Z</time>
      </trkpt>
      <trkpt lat="39.6497260" lon="2.4722050">
        <ele>250.6</ele>
        <time>2020-01-03T14:19:43Z</time>
      </trkpt>
      <trkpt lat="39.6497380" lon="2.4722290">
        <ele>249.6</ele>
        <time>2020-01-03T14:19:46Z</time>
      </trkpt>
      <trkpt lat="39.6497420" lon="2.4722420">
        <ele>249.2</ele>
        <time>2020-01-03T14:19:47Z</time>
      </trkpt>
      <trkpt lat="39.6497450" lon="2.4722800">
        <ele>248.4</ele>
        <time>2020-01-03T14:19:52Z</time>
      </trkpt>
      <trkpt lat="39.6497320" lon="2.4723110">
        <ele>247.4</ele>
        <time>2020-01-03T14:19:57Z</time>
      </trkpt>
      <trkpt lat="39.6497340" lon="2.4723270">
        <ele>246.0</ele>
        <time>2020-01-03T14:20:01Z</time>
      </trkpt>
      <trkpt lat="39.6497220" lon="2.4723550">
        <ele>244.8</ele>
        <time>2020-01-03T14:20:06Z</time>
      </trkpt>
      <trkpt lat="39.6497090" lon="2.4723780">
        <ele>243.6</ele>
        <time>2020-01-03T14:20:10Z</time>
      </trkpt>
      <trkpt lat="39.6497180" lon="2.4723930">
        <ele>242.6</ele>
        <time>2020-01-03T14:20:13Z</time>
      </trkpt>
      <trkpt lat="39.6497200" lon="2.4724360">
        <ele>241.4</ele>
        <time>2020-01-03T14:20:20Z</time>
      </trkpt>
      <trkpt lat="39.6497190" lon="2.4724590">
        <ele>240.0</ele>
        <time>2020-01-03T14:20:24Z</time>
      </trkpt>
      <trkpt lat="39.6497050" lon="2.4724900">
        <ele>239.0</ele>
        <time>2020-01-03T14:20:28Z</time>
      </trkpt>
      <trkpt lat="39.6496940" lon="2.4725210">
        <ele>237.8</ele>
        <time>2020-01-03T14:20:32Z</time>
      </trkpt>
      <trkpt lat="39.6497030" lon="2.4725560">
        <ele>236.6</ele>
        <time>2020-01-03T14:20:36Z</time>
      </trkpt>
      <trkpt lat="39.6497290" lon="2.4725660">
        <ele>235.6</ele>
        <time>2020-01-03T14:20:39Z</time>
      </trkpt>
      <trkpt lat="39.6497400" lon="2.4725720">
        <ele>235.2</ele>
        <time>2020-01-03T14:20:40Z</time>
      </trkpt>
      <trkpt lat="39.6497670" lon="2.4726820">
        <ele>234.6</ele>
        <time>2020-01-03T14:20:54Z</time>
      </trkpt>
      <trkpt lat="39.6497090" lon="2.4727740">
        <ele>234.2</ele>
        <time>2020-01-03T14:21:09Z</time>
      </trkpt>
      <trkpt lat="39.6496720" lon="2.4728460">
        <ele>233.4</ele>
        <time>2020-01-03T14:21:27Z</time>
      </trkpt>
      <trkpt lat="39.6496440" lon="2.4729210">
        <ele>233.0</ele>
        <time>2020-01-03T14:21:34Z</time>
      </trkpt>
      <trkpt lat="39.6495520" lon="2.4730680">
        <ele>232.4</ele>
        <time>2020-01-03T14:21:50Z</time>
      </trkpt>
      <trkpt lat="39.6495430" lon="2.4730780">
        <ele>232.2</ele>
        <time>2020-01-03T14:21:51Z</time>
      </trkpt>
      <trkpt lat="39.6494120" lon="2.4732890">
        <ele>231.2</ele>
        <time>2020-01-03T14:22:13Z</time>
      </trkpt>
      <trkpt lat="39.6492590" lon="2.4734600">
        <ele>230.2</ele>
        <time>2020-01-03T14:22:30Z</time>
      </trkpt>
      <trkpt lat="39.6491800" lon="2.4735630">
        <ele>229.0</ele>
        <time>2020-01-03T14:22:40Z</time>
      </trkpt>
      <trkpt lat="39.6491420" lon="2.4737330">
        <ele>228.0</ele>
        <time>2020-01-03T14:22:53Z</time>
      </trkpt>
      <trkpt lat="39.6491760" lon="2.4739150">
        <ele>227.0</ele>
        <time>2020-01-03T14:23:04Z</time>
      </trkpt>
      <trkpt lat="39.6492670" lon="2.4740500">
        <ele>226.0</ele>
        <time>2020-01-03T14:23:15Z</time>
      </trkpt>
      <trkpt lat="39.6493550" lon="2.4741590">
        <ele>224.8</ele>
        <time>2020-01-03T14:23:24Z</time>
      </trkpt>
      <trkpt lat="39.6494260" lon="2.4742460">
        <ele>223.8</ele>
        <time>2020-01-03T14:23:32Z</time>
      </trkpt>
      <trkpt lat="39.6494680" lon="2.4742840">
        <ele>223.4</ele>
        <time>2020-01-03T14:23:36Z</time>
      </trkpt>
      <trkpt lat="39.6495060" lon="2.4743300">
        <ele>222.8</ele>
        <time>2020-01-03T14:23:40Z</time>
      </trkpt>
      <trkpt lat="39.6496360" lon="2.4744330">
        <ele>221.8</ele>
        <time>2020-01-03T14:23:54Z</time>
      </trkpt>
      <trkpt lat="39.6497320" lon="2.4745010">
        <ele>220.8</ele>
        <time>2020-01-03T14:24:03Z</time>
      </trkpt>
      <trkpt lat="39.6498370" lon="2.4745890">
        <ele>219.6</ele>
        <time>2020-01-03T14:24:12Z</time>
      </trkpt>
      <trkpt lat="39.6499400" lon="2.4746930">
        <ele>218.6</ele>
        <time>2020-01-03T14:24:22Z</time>
      </trkpt>
      <trkpt lat="39.6500220" lon="2.4748580">
        <ele>217.6</ele>
        <time>2020-01-03T14:24:33Z</time>
      </trkpt>
      <trkpt lat="39.6500410" lon="2.4749080">
        <ele>217.0</ele>
        <time>2020-01-03T14:24:37Z</time>
      </trkpt>
      <trkpt lat="39.6500240" lon="2.4749860">
        <ele>216.6</ele>
        <time>2020-01-03T14:24:42Z</time>
      </trkpt>
      <trkpt lat="39.6499840" lon="2.4752040">
        <ele>215.6</ele>
        <time>2020-01-03T14:24:56Z</time>
      </trkpt>
      <trkpt lat="39.6499080" lon="2.4753510">
        <ele>214.6</ele>
        <time>2020-01-03T14:25:06Z</time>
      </trkpt>
      <trkpt lat="39.6498230" lon="2.4754590">
        <ele>213.4</ele>
        <time>2020-01-03T14:25:14Z</time>
      </trkpt>
      <trkpt lat="39.6497920" lon="2.4755370">
        <ele>212.6</ele>
        <time>2020-01-03T14:25:20Z</time>
      </trkpt>
      <trkpt lat="39.6497970" lon="2.4755620">
        <ele>212.4</ele>
        <time>2020-01-03T14:25:22Z</time>
      </trkpt>
      <trkpt lat="39.6497880" lon="2.4757210">
        <ele>211.4</ele>
        <time>2020-01-03T14:25:32Z</time>
      </trkpt>
      <trkpt lat="39.6498240" lon="2.4758500">
        <ele>210.2</ele>
        <time>2020-01-03T14:25:39Z</time>
      </trkpt>
      <trkpt lat="39.6499210" lon="2.4760100">
        <ele>209.0</ele>
        <time>2020-01-03T14:25:50Z</time>
      </trkpt>
      <trkpt lat="39.6499980" lon="2.4761040">
        <ele>208.0</ele>
        <time>2020-01-03T14:25:59Z</time>
      </trkpt>
      <trkpt lat="39.6500400" lon="2.4762180">
        <ele>208.0</ele>
        <time>2020-01-03T14:26:08Z</time>
      </trkpt>
      <trkpt lat="39.6501510" lon="2.4762550">
        <ele>207.0</ele>
        <time>2020-01-03T14:26:17Z</time>
      </trkpt>
      <trkpt lat="39.6502170" lon="2.4763440">
        <ele>206.0</ele>
        <time>2020-01-03T14:26:25Z</time>
      </trkpt>
      <trkpt lat="39.6502250" lon="2.4763580">
        <ele>205.8</ele>
        <time>2020-01-03T14:26:26Z</time>
      </trkpt>
      <trkpt lat="39.6502920" lon="2.4765110">
        <ele>205.2</ele>
        <time>2020-01-03T14:26:37Z</time>
      </trkpt>
      <trkpt lat="39.6503060" lon="2.4765920">
        <ele>204.8</ele>
        <time>2020-01-03T14:26:42Z</time>
      </trkpt>
      <trkpt lat="39.6503050" lon="2.4767210">
        <ele>203.8</ele>
        <time>2020-01-03T14:26:50Z</time>
      </trkpt>
      <trkpt lat="39.6502260" lon="2.4769180">
        <ele>202.6</ele>
        <time>2020-01-03T14:27:04Z</time>
      </trkpt>
      <trkpt lat="39.6501870" lon="2.4769750">
        <ele>202.2</ele>
        <time>2020-01-03T14:27:10Z</time>
      </trkpt>
      <trkpt lat="39.6501600" lon="2.4770090">
        <ele>201.4</ele>
        <time>2020-01-03T14:27:14Z</time>
      </trkpt>
      <trkpt lat="39.6500620" lon="2.4771400">
        <ele>200.4</ele>
        <time>2020-01-03T14:27:26Z</time>
      </trkpt>
      <trkpt lat="39.6499640" lon="2.4772370">
        <ele>199.2</ele>
        <time>2020-01-03T14:27:35Z</time>
      </trkpt>
      <trkpt lat="39.6499440" lon="2.4772780">
        <ele>199.0</ele>
        <time>2020-01-03T14:27:39Z</time>
      </trkpt>
      <trkpt lat="39.6498990" lon="2.4773860">
        <ele>198.0</ele>
        <time>2020-01-03T14:27:47Z</time>
      </trkpt>
      <trkpt lat="39.6498160" lon="2.4775880">
        <ele>197.0</ele>
        <time>2020-01-03T14:27:57Z</time>
      </trkpt>
      <trkpt lat="39.6498500" lon="2.4777300">
        <ele>195.8</ele>
        <time>2020-01-03T14:28:06Z</time>
      </trkpt>
      <trkpt lat="39.6498850" lon="2.4778420">
        <ele>194.8</ele>
        <time>2020-01-03T14:28:13Z</time>
      </trkpt>
      <trkpt lat="39.6499360" lon="2.4779450">
        <ele>193.8</ele>
        <time>2020-01-03T14:28:21Z</time>
      </trkpt>
      <trkpt lat="39.6500050" lon="2.4780160">
        <ele>192.8</ele>
        <time>2020-01-03T14:28:28Z</time>
      </trkpt>
      <trkpt lat="39.6501730" lon="2.4781240">
        <ele>191.8</ele>
        <time>2020-01-03T14:28:41Z</time>
      </trkpt>
      <trkpt lat="39.6503140" lon="2.4782090">
        <ele>190.8</ele>
        <time>2020-01-03T14:28:52Z</time>
      </trkpt>
      <trkpt lat="39.6504460" lon="2.4782880">
        <ele>189.6</ele>
        <time>2020-01-03T14:29:03Z</time>
      </trkpt>
      <trkpt lat="39.6505680" lon="2.4783630">
        <ele>188.6</ele>
        <time>2020-01-03T14:29:12Z</time>
      </trkpt>
      <trkpt lat="39.6507080" lon="2.4784830">
        <ele>187.6</ele>
        <time>2020-01-03T14:29:25Z</time>
      </trkpt>
      <trkpt lat="39.6507280" lon="2.4785060">
        <ele>187.2</ele>
        <time>2020-01-03T14:29:28Z</time>
      </trkpt>
      <trkpt lat="39.6507730" lon="2.4785490">
        <ele>186.6</ele>
        <time>2020-01-03T14:29:34Z</time>
      </trkpt>
      <trkpt lat="39.6508810" lon="2.4786280">
        <ele>185.6</ele>
        <time>2020-01-03T14:29:43Z</time>
      </trkpt>
      <trkpt lat="39.6508950" lon="2.4786530">
        <ele>185.4</ele>
        <time>2020-01-03T14:29:46Z</time>
      </trkpt>
      <trkpt lat="39.6510230" lon="2.4787480">
        <ele>184.4</ele>
        <time>2020-01-03T14:29:56Z</time>
      </trkpt>
      <trkpt lat="39.6511490" lon="2.4788180">
        <ele>183.2</ele>
        <time>2020-01-03T14:30:06Z</time>
      </trkpt>
      <trkpt lat="39.6513260" lon="2.4789630">
        <ele>182.2</ele>
        <time>2020-01-03T14:30:20Z</time>
      </trkpt>
      <trkpt lat="39.6513900" lon="2.4790730">
        <ele>181.2</ele>
        <time>2020-01-03T14:30:29Z</time>
      </trkpt>
      <trkpt lat="39.6513890" lon="2.4790830">
        <ele>181.0</ele>
        <time>2020-01-03T14:30:30Z</time>
      </trkpt>
      <trkpt lat="39.6514190" lon="2.4792190">
        <ele>180.0</ele>
        <time>2020-01-03T14:30:39Z</time>
      </trkpt>
      <trkpt lat="39.6514540" lon="2.4793700">
        <ele>179.0</ele>
        <time>2020-01-03T14:30:48Z</time>
      </trkpt>
      <trkpt lat="39.6514760" lon="2.4794670">
        <ele>178.4</ele>
        <time>2020-01-03T14:30:55Z</time>
      </trkpt>
      <trkpt lat="39.6515020" lon="2.4795120">
        <ele>178.0</ele>
        <time>2020-01-03T14:30:58Z</time>
      </trkpt>
      <trkpt lat="39.6515800" lon="2.4796110">
        <ele>177.0</ele>
        <time>2020-01-03T14:31:07Z</time>
      </trkpt>
      <trkpt lat="39.6517160" lon="2.4796630">
        <ele>176.0</ele>
        <time>2020-01-03T14:31:17Z</time>
      </trkpt>
      <trkpt lat="39.6518580" lon="2.4796610">
        <ele>174.8</ele>
        <time>2020-01-03T14:31:27Z</time>
      </trkpt>
      <trkpt lat="39.6519400" lon="2.4796600">
        <ele>174.4</ele>
        <time>2020-01-03T14:31:34Z</time>
      </trkpt>
      <trkpt lat="39.6520410" lon="2.4796580">
        <ele>173.8</ele>
        <time>2020-01-03T14:31:40Z</time>
      </trkpt>
      <trkpt lat="39.6521280" lon="2.4796750">
        <ele>172.8</ele>
        <time>2020-01-03T14:31:48Z</time>
      </trkpt>
      <trkpt lat="39.6521940" lon="2.4796780">
        <ele>172.4</ele>
        <time>2020-01-03T14:31:54Z</time>
      </trkpt>
      <trkpt lat="39.6522660" lon="2.4797050">
        <ele>172.0</ele>
        <time>2020-01-03T14:32:17Z</time>
      </trkpt>
      <trkpt lat="39.6523010" lon="2.4797130">
        <ele>171.8</ele>
        <time>2020-01-03T14:32:20Z</time>
      </trkpt>
      <trkpt lat="39.6525090" lon="2.4797900">
        <ele>170.6</ele>
        <time>2020-01-03T14:32:34Z</time>
      </trkpt>
      <trkpt lat="39.6525560" lon="2.4798880">
        <ele>170.0</ele>
        <time>2020-01-03T14:32:42Z</time>
      </trkpt>
      <trkpt lat="39.6525710" lon="2.4799540">
        <ele>169.6</ele>
        <time>2020-01-03T14:32:46Z</time>
      </trkpt>
      <trkpt lat="39.6526070" lon="2.4800840">
        <ele>168.6</ele>
        <time>2020-01-03T14:32:54Z</time>
      </trkpt>
      <trkpt lat="39.6526100" lon="2.4801690">
        <ele>168.0</ele>
        <time>2020-01-03T14:33:00Z</time>
      </trkpt>
      <trkpt lat="39.6526130" lon="2.4802470">
        <ele>167.4</ele>
        <time>2020-01-03T14:33:04Z</time>
      </trkpt>
      <trkpt lat="39.6526430" lon="2.4803970">
        <ele>166.6</ele>
        <time>2020-01-03T14:33:15Z</time>
      </trkpt>
      <trkpt lat="39.6526480" lon="2.4804090">
        <ele>166.4</ele>
        <time>2020-01-03T14:33:18Z</time>
      </trkpt>
      <trkpt lat="39.6526690" lon="2.4805670">
        <ele>165.4</ele>
        <time>2020-01-03T14:33:28Z</time>
      </trkpt>
      <trkpt lat="39.6526730" lon="2.4806960">
        <ele>164.6</ele>
        <time>2020-01-03T14:33:36Z</time>
      </trkpt>
      <trkpt lat="39.6526770" lon="2.4807220">
        <ele>164.4</ele>
        <time>2020-01-03T14:33:38Z</time>
      </trkpt>
      <trkpt lat="39.6528010" lon="2.4809650">
        <ele>163.6</ele>
        <time>2020-01-03T14:33:59Z</time>
      </trkpt>
      <trkpt lat="39.6528180" lon="2.4809840">
        <ele>163.6</ele>
        <time>2020-01-03T14:34:01Z</time>
      </trkpt>
      <trkpt lat="39.6531440" lon="2.4813810">
        <ele>165.6</ele>
        <time>2020-01-03T14:34:38Z</time>
      </trkpt>
      <trkpt lat="39.6534060" lon="2.4816830">
        <ele>165.4</ele>
        <time>2020-01-03T14:35:08Z</time>
      </trkpt>
      <trkpt lat="39.6535020" lon="2.4818980">
        <ele>164.4</ele>
        <time>2020-01-03T14:35:41Z</time>
      </trkpt>
      <trkpt lat="39.6535080" lon="2.4819130">
        <ele>164.2</ele>
        <time>2020-01-03T14:35:43Z</time>
      </trkpt>
      <trkpt lat="39.6535180" lon="2.4820540">
        <ele>164.2</ele>
        <time>2020-01-03T14:42:55Z</time>
      </trkpt>
      <trkpt lat="39.6535530" lon="2.4819540">
        <ele>163.4</ele>
        <time>2020-01-03T14:44:39Z</time>
      </trkpt>
      <trkpt lat="39.6535400" lon="2.4820790">
        <ele>162.8</ele>
        <time>2020-01-03T14:51:14Z</time>
      </trkpt>
      <trkpt lat="39.6535370" lon="2.4819990">
        <ele>162.2</ele>
        <time>2020-01-03T14:53:04Z</time>
      </trkpt>
      <trkpt lat="39.6535020" lon="2.4819900">
        <ele>162.2</ele>
        <time>2020-01-03T14:53:10Z</time>
      </trkpt>
      <trkpt lat="39.6534970" lon="2.4819650">
        <ele>162.2</ele>
        <time>2020-01-03T14:53:12Z</time>
      </trkpt>
      <trkpt lat="39.6534850" lon="2.4820180">
        <ele>161.6</ele>
        <time>2020-01-03T14:55:35Z</time>
      </trkpt>
      <trkpt lat="39.6534800" lon="2.4819730">
        <ele>161.0</ele>
        <time>2020-01-03T14:56:26Z</time>
      </trkpt>
      <trkpt lat="39.6535020" lon="2.4819790">
        <ele>162.4</ele>
        <time>2020-01-03T14:57:06Z</time>
      </trkpt>
      <trkpt lat="39.6534920" lon="2.4819710">
        <ele>161.4</ele>
        <time>2020-01-03T14:57:24Z</time>
      </trkpt>
      <trkpt lat="39.6534450" lon="2.4820190">
        <ele>161.6</ele>
        <time>2020-01-03T15:00:59Z</time>
      </trkpt>
      <trkpt lat="39.6534100" lon="2.4820920">
        <ele>160.2</ele>
        <time>2020-01-03T15:01:15Z</time>
      </trkpt>
      <trkpt lat="39.6534350" lon="2.4821930">
        <ele>159.2</ele>
        <time>2020-01-03T15:01:24Z</time>
      </trkpt>
      <trkpt lat="39.6534600" lon="2.4823080">
        <ele>158.0</ele>
        <time>2020-01-03T15:01:33Z</time>
      </trkpt>
      <trkpt lat="39.6534690" lon="2.4824080">
        <ele>156.8</ele>
        <time>2020-01-03T15:01:40Z</time>
      </trkpt>
      <trkpt lat="39.6534790" lon="2.4824790">
        <ele>156.0</ele>
        <time>2020-01-03T15:01:45Z</time>
      </trkpt>
      <trkpt lat="39.6534790" lon="2.4824930">
        <ele>155.8</ele>
        <time>2020-01-03T15:01:46Z</time>
      </trkpt>
      <trkpt lat="39.6534850" lon="2.4825830">
        <ele>154.6</ele>
        <time>2020-01-03T15:01:53Z</time>
      </trkpt>
      <trkpt lat="39.6535260" lon="2.4827060">
        <ele>153.6</ele>
        <time>2020-01-03T15:02:01Z</time>
      </trkpt>
      <trkpt lat="39.6535630" lon="2.4828890">
        <ele>152.6</ele>
        <time>2020-01-03T15:02:13Z</time>
      </trkpt>
      <trkpt lat="39.6535780" lon="2.4829470">
        <ele>152.8</ele>
        <time>2020-01-03T15:02:17Z</time>
      </trkpt>
      <trkpt lat="39.6536010" lon="2.4829890">
        <ele>152.6</ele>
        <time>2020-01-03T15:02:23Z</time>
      </trkpt>
      <trkpt lat="39.6536060" lon="2.4830770">
        <ele>152.4</ele>
        <time>2020-01-03T15:02:29Z</time>
      </trkpt>
      <trkpt lat="39.6536170" lon="2.4833660">
        <ele>153.0</ele>
        <time>2020-01-03T15:02:54Z</time>
      </trkpt>
      <trkpt lat="39.6534250" lon="2.4836360">
        <ele>151.6</ele>
        <time>2020-01-03T15:03:49Z</time>
      </trkpt>
      <trkpt lat="39.6534150" lon="2.4836380">
        <ele>151.6</ele>
        <time>2020-01-03T15:03:51Z</time>
      </trkpt>
      <trkpt lat="39.6534510" lon="2.4837580">
        <ele>151.2</ele>
        <time>2020-01-03T15:04:32Z</time>
      </trkpt>
      <trkpt lat="39.6537900" lon="2.4839080">
        <ele>152.6</ele>
        <time>2020-01-03T15:05:15Z</time>
      </trkpt>
      <trkpt lat="39.6539080" lon="2.4838670">
        <ele>153.6</ele>
        <time>2020-01-03T15:05:26Z</time>
      </trkpt>
      <trkpt lat="39.6540340" lon="2.4838050">
        <ele>154.8</ele>
        <time>2020-01-03T15:05:36Z</time>
      </trkpt>
      <trkpt lat="39.6541400" lon="2.4837660">
        <ele>155.6</ele>
        <time>2020-01-03T15:05:46Z</time>
      </trkpt>
      <trkpt lat="39.6541500" lon="2.4837650">
        <ele>155.8</ele>
        <time>2020-01-03T15:05:47Z</time>
      </trkpt>
      <trkpt lat="39.6542450" lon="2.4837470">
        <ele>156.8</ele>
        <time>2020-01-03T15:05:56Z</time>
      </trkpt>
      <trkpt lat="39.6543230" lon="2.4837610">
        <ele>158.0</ele>
        <time>2020-01-03T15:06:05Z</time>
      </trkpt>
      <trkpt lat="39.6544660" lon="2.4837930">
        <ele>159.0</ele>
        <time>2020-01-03T15:06:17Z</time>
      </trkpt>
      <trkpt lat="39.6545990" lon="2.4837940">
        <ele>160.0</ele>
        <time>2020-01-03T15:06:27Z</time>
      </trkpt>
      <trkpt lat="39.6547110" lon="2.4838310">
        <ele>161.2</ele>
        <time>2020-01-03T15:06:37Z</time>
      </trkpt>
      <trkpt lat="39.6547920" lon="2.4838420">
        <ele>162.2</ele>
        <time>2020-01-03T15:06:47Z</time>
      </trkpt>
      <trkpt lat="39.6548680" lon="2.4838580">
        <ele>162.8</ele>
        <time>2020-01-03T15:06:54Z</time>
      </trkpt>
      <trkpt lat="39.6549240" lon="2.4838670">
        <ele>163.2</ele>
        <time>2020-01-03T15:06:59Z</time>
      </trkpt>
      <trkpt lat="39.6550990" lon="2.4839410">
        <ele>164.2</ele>
        <time>2020-01-03T15:07:13Z</time>
      </trkpt>
      <trkpt lat="39.6552490" lon="2.4841230">
        <ele>163.2</ele>
        <time>2020-01-03T15:07:50Z</time>
      </trkpt>
      <trkpt lat="39.6552750" lon="2.4841680">
        <ele>162.2</ele>
        <time>2020-01-03T15:07:55Z</time>
      </trkpt>
      <trkpt lat="39.6552860" lon="2.4841900">
        <ele>161.6</ele>
        <time>2020-01-03T15:07:57Z</time>
      </trkpt>
      <trkpt lat="39.6553010" lon="2.4842260">
        <ele>161.0</ele>
        <time>2020-01-03T15:08:00Z</time>
      </trkpt>
      <trkpt lat="39.6553150" lon="2.4842880">
        <ele>159.8</ele>
        <time>2020-01-03T15:08:05Z</time>
      </trkpt>
      <trkpt lat="39.6553390" lon="2.4843370">
        <ele>158.6</ele>
        <time>2020-01-03T15:08:09Z</time>
      </trkpt>
      <trkpt lat="39.6553440" lon="2.4843490">
        <ele>158.6</ele>
        <time>2020-01-03T15:08:11Z</time>
      </trkpt>
      <trkpt lat="39.6553650" lon="2.4843900">
        <ele>157.6</ele>
        <time>2020-01-03T15:08:18Z</time>
      </trkpt>
      <trkpt lat="39.6553750" lon="2.4844250">
        <ele>156.6</ele>
        <time>2020-01-03T15:08:21Z</time>
      </trkpt>
      <trkpt lat="39.6553850" lon="2.4844750">
        <ele>155.4</ele>
        <time>2020-01-03T15:08:25Z</time>
      </trkpt>
      <trkpt lat="39.6554130" lon="2.4845360">
        <ele>154.2</ele>
        <time>2020-01-03T15:08:30Z</time>
      </trkpt>
      <trkpt lat="39.6554240" lon="2.4845720">
        <ele>153.4</ele>
        <time>2020-01-03T15:08:33Z</time>
      </trkpt>
      <trkpt lat="39.6554280" lon="2.4845840">
        <ele>153.0</ele>
        <time>2020-01-03T15:08:34Z</time>
      </trkpt>
      <trkpt lat="39.6554420" lon="2.4846380">
        <ele>152.0</ele>
        <time>2020-01-03T15:08:38Z</time>
      </trkpt>
      <trkpt lat="39.6554910" lon="2.4847010">
        <ele>150.8</ele>
        <time>2020-01-03T15:08:43Z</time>
      </trkpt>
      <trkpt lat="39.6555620" lon="2.4848540">
        <ele>149.8</ele>
        <time>2020-01-03T15:08:55Z</time>
      </trkpt>
      <trkpt lat="39.6556120" lon="2.4849920">
        <ele>148.6</ele>
        <time>2020-01-03T15:09:04Z</time>
      </trkpt>
      <trkpt lat="39.6556840" lon="2.4851210">
        <ele>147.6</ele>
        <time>2020-01-03T15:09:17Z</time>
      </trkpt>
      <trkpt lat="39.6558220" lon="2.4851580">
        <ele>147.0</ele>
        <time>2020-01-03T15:09:32Z</time>
      </trkpt>
      <trkpt lat="39.6558890" lon="2.4851140">
        <ele>148.6</ele>
        <time>2020-01-03T15:09:39Z</time>
      </trkpt>
      <trkpt lat="39.6559260" lon="2.4850720">
        <ele>149.6</ele>
        <time>2020-01-03T15:09:44Z</time>
      </trkpt>
      <trkpt lat="39.6559800" lon="2.4850370">
        <ele>150.8</ele>
        <time>2020-01-03T15:09:50Z</time>
      </trkpt>
      <trkpt lat="39.6560930" lon="2.4850030">
        <ele>151.8</ele>
        <time>2020-01-03T15:10:00Z</time>
      </trkpt>
      <trkpt lat="39.6562090" lon="2.4849790">
        <ele>152.8</ele>
        <time>2020-01-03T15:10:11Z</time>
      </trkpt>
      <trkpt lat="39.6563110" lon="2.4849880">
        <ele>154.0</ele>
        <time>2020-01-03T15:10:21Z</time>
      </trkpt>
      <trkpt lat="39.6564490" lon="2.4849730">
        <ele>155.0</ele>
        <time>2020-01-03T15:10:35Z</time>
      </trkpt>
      <trkpt lat="39.6565330" lon="2.4849720">
        <ele>155.6</ele>
        <time>2020-01-03T15:10:43Z</time>
      </trkpt>
      <trkpt lat="39.6565950" lon="2.4849520">
        <ele>156.0</ele>
        <time>2020-01-03T15:10:49Z</time>
      </trkpt>
      <trkpt lat="39.6567100" lon="2.4849280">
        <ele>157.0</ele>
        <time>2020-01-03T15:11:01Z</time>
      </trkpt>
      <trkpt lat="39.6567150" lon="2.4849280">
        <ele>157.2</ele>
        <time>2020-01-03T15:11:02Z</time>
      </trkpt>
      <trkpt lat="39.6567740" lon="2.4849090">
        <ele>157.4</ele>
        <time>2020-01-03T15:11:09Z</time>
      </trkpt>
      <trkpt lat="39.6568460" lon="2.4848860">
        <ele>158.2</ele>
        <time>2020-01-03T15:11:16Z</time>
      </trkpt>
      <trkpt lat="39.6569630" lon="2.4848050">
        <ele>159.2</ele>
        <time>2020-01-03T15:11:29Z</time>
      </trkpt>
      <trkpt lat="39.6570250" lon="2.4847640">
        <ele>160.2</ele>
        <time>2020-01-03T15:11:36Z</time>
      </trkpt>
      <trkpt lat="39.6571550" lon="2.4847390">
        <ele>161.2</ele>
        <time>2020-01-03T15:11:49Z</time>
      </trkpt>
      <trkpt lat="39.6572020" lon="2.4847400">
        <ele>161.6</ele>
        <time>2020-01-03T15:11:54Z</time>
      </trkpt>
      <trkpt lat="39.6572980" lon="2.4847210">
        <ele>160.0</ele>
        <time>2020-01-03T15:12:04Z</time>
      </trkpt>
      <trkpt lat="39.6573890" lon="2.4847550">
        <ele>159.0</ele>
        <time>2020-01-03T15:12:12Z</time>
      </trkpt>
      <trkpt lat="39.6575220" lon="2.4849010">
        <ele>158.0</ele>
        <time>2020-01-03T15:12:28Z</time>
      </trkpt>
      <trkpt lat="39.6576830" lon="2.4849830">
        <ele>157.2</ele>
        <time>2020-01-03T15:12:47Z</time>
      </trkpt>
      <trkpt lat="39.6578400" lon="2.4850410">
        <ele>156.8</ele>
        <time>2020-01-03T15:13:02Z</time>
      </trkpt>
      <trkpt lat="39.6579060" lon="2.4850200">
        <ele>157.0</ele>
        <time>2020-01-03T15:13:09Z</time>
      </trkpt>
      <trkpt lat="39.6580740" lon="2.4847590">
        <ele>158.0</ele>
        <time>2020-01-03T15:13:33Z</time>
      </trkpt>
      <trkpt lat="39.6581220" lon="2.4846840">
        <ele>159.2</ele>
        <time>2020-01-03T15:13:41Z</time>
      </trkpt>
      <trkpt lat="39.6581810" lon="2.4846040">
        <ele>160.2</ele>
        <time>2020-01-03T15:13:51Z</time>
      </trkpt>
      <trkpt lat="39.6582260" lon="2.4845700">
        <ele>161.4</ele>
        <time>2020-01-03T15:13:59Z</time>
      </trkpt>
      <trkpt lat="39.6582650" lon="2.4845680">
        <ele>162.0</ele>
        <time>2020-01-03T15:14:03Z</time>
      </trkpt>
      <trkpt lat="39.6582830" lon="2.4845630">
        <ele>162.4</ele>
        <time>2020-01-03T15:14:05Z</time>
      </trkpt>
      <trkpt lat="39.6583230" lon="2.4845350">
        <ele>163.2</ele>
        <time>2020-01-03T15:14:10Z</time>
      </trkpt>
      <trkpt lat="39.6583420" lon="2.4845140">
        <ele>163.6</ele>
        <time>2020-01-03T15:14:12Z</time>
      </trkpt>
      <trkpt lat="39.6584420" lon="2.4843700">
        <ele>164.6</ele>
        <time>2020-01-03T15:14:24Z</time>
      </trkpt>
      <trkpt lat="39.6585230" lon="2.4842160">
        <ele>165.6</ele>
        <time>2020-01-03T15:14:38Z</time>
      </trkpt>
      <trkpt lat="39.6585610" lon="2.4841200">
        <ele>166.8</ele>
        <time>2020-01-03T15:14:46Z</time>
      </trkpt>
      <trkpt lat="39.6585760" lon="2.4840290">
        <ele>167.8</ele>
        <time>2020-01-03T15:14:53Z</time>
      </trkpt>
      <trkpt lat="39.6585890" lon="2.4839200">
        <ele>169.0</ele>
        <time>2020-01-03T15:15:01Z</time>
      </trkpt>
      <trkpt lat="39.6586090" lon="2.4838850">
        <ele>170.0</ele>
        <time>2020-01-03T15:15:05Z</time>
      </trkpt>
      <trkpt lat="39.6586140" lon="2.4838810">
        <ele>170.2</ele>
        <time>2020-01-03T15:15:06Z</time>
      </trkpt>
      <trkpt lat="39.6586890" lon="2.4839380">
        <ele>171.2</ele>
        <time>2020-01-03T15:15:16Z</time>
      </trkpt>
      <trkpt lat="39.6587270" lon="2.4840100">
        <ele>172.4</ele>
        <time>2020-01-03T15:15:23Z</time>
      </trkpt>
      <trkpt lat="39.6587580" lon="2.4840690">
        <ele>173.4</ele>
        <time>2020-01-03T15:15:29Z</time>
      </trkpt>
      <trkpt lat="39.6587970" lon="2.4841200">
        <ele>174.4</ele>
        <time>2020-01-03T15:15:36Z</time>
      </trkpt>
      <trkpt lat="39.6588110" lon="2.4841280">
        <ele>175.0</ele>
        <time>2020-01-03T15:15:38Z</time>
      </trkpt>
      <trkpt lat="39.6588350" lon="2.4841270">
        <ele>175.6</ele>
        <time>2020-01-03T15:15:41Z</time>
      </trkpt>
      <trkpt lat="39.6588650" lon="2.4841420">
        <ele>176.6</ele>
        <time>2020-01-03T15:15:45Z</time>
      </trkpt>
      <trkpt lat="39.6588730" lon="2.4841460">
        <ele>176.8</ele>
        <time>2020-01-03T15:15:46Z</time>
      </trkpt>
      <trkpt lat="39.6588860" lon="2.4841540">
        <ele>177.4</ele>
        <time>2020-01-03T15:15:48Z</time>
      </trkpt>
      <trkpt lat="39.6588950" lon="2.4841670">
        <ele>177.8</ele>
        <time>2020-01-03T15:15:50Z</time>
      </trkpt>
      <trkpt lat="39.6589020" lon="2.4841720">
        <ele>178.0</ele>
        <time>2020-01-03T15:15:51Z</time>
      </trkpt>
      <trkpt lat="39.6589160" lon="2.4841750">
        <ele>178.2</ele>
        <time>2020-01-03T15:15:52Z</time>
      </trkpt>
      <trkpt lat="39.6589630" lon="2.4841340">
        <ele>178.2</ele>
        <time>2020-01-03T15:15:58Z</time>
      </trkpt>
      <trkpt lat="39.6593590" lon="2.4838570">
        <ele>177.8</ele>
        <time>2020-01-03T15:16:37Z</time>
      </trkpt>
      <trkpt lat="39.6597500" lon="2.4841210">
        <ele>177.2</ele>
        <time>2020-01-03T15:17:12Z</time>
      </trkpt>
      <trkpt lat="39.6597870" lon="2.4841690">
        <ele>177.0</ele>
        <time>2020-01-03T15:17:16Z</time>
      </trkpt>
      <trkpt lat="39.6598230" lon="2.4842190">
        <ele>176.8</ele>
        <time>2020-01-03T15:17:21Z</time>
      </trkpt>
      <trkpt lat="39.6599580" lon="2.4843540">
        <ele>176.2</ele>
        <time>2020-01-03T15:17:35Z</time>
      </trkpt>
      <trkpt lat="39.6599990" lon="2.4843970">
        <ele>176.0</ele>
        <time>2020-01-03T15:17:39Z</time>
      </trkpt>
      <trkpt lat="39.6601670" lon="2.4845620">
        <ele>175.6</ele>
        <time>2020-01-03T15:17:55Z</time>
      </trkpt>
      <trkpt lat="39.6602820" lon="2.4847130">
        <ele>175.0</ele>
        <time>2020-01-03T15:18:08Z</time>
      </trkpt>
      <trkpt lat="39.6603010" lon="2.4847530">
        <ele>174.6</ele>
        <time>2020-01-03T15:18:11Z</time>
      </trkpt>
      <trkpt lat="39.6603270" lon="2.4847910">
        <ele>174.4</ele>
        <time>2020-01-03T15:18:14Z</time>
      </trkpt>
      <trkpt lat="39.6605790" lon="2.4852770">
        <ele>174.2</ele>
        <time>2020-01-03T15:18:48Z</time>
      </trkpt>
      <trkpt lat="39.6607700" lon="2.4856990">
        <ele>176.0</ele>
        <time>2020-01-03T15:19:18Z</time>
      </trkpt>
      <trkpt lat="39.6609010" lon="2.4857810">
        <ele>177.0</ele>
        <time>2020-01-03T15:19:30Z</time>
      </trkpt>
      <trkpt lat="39.6610160" lon="2.4857870">
        <ele>178.0</ele>
        <time>2020-01-03T15:19:40Z</time>
      </trkpt>
      <trkpt lat="39.6611300" lon="2.4857840">
        <ele>179.0</ele>
        <time>2020-01-03T15:19:49Z</time>
      </trkpt>
      <trkpt lat="39.6614470" lon="2.4859460">
        <ele>180.2</ele>
        <time>2020-01-03T15:20:16Z</time>
      </trkpt>
      <trkpt lat="39.6618360" lon="2.4862270">
        <ele>181.2</ele>
        <time>2020-01-03T15:20:52Z</time>
      </trkpt>
      <trkpt lat="39.6620140" lon="2.4865360">
        <ele>182.4</ele>
        <time>2020-01-03T15:21:15Z</time>
      </trkpt>
      <trkpt lat="39.6621140" lon="2.4867860">
        <ele>183.2</ele>
        <time>2020-01-03T15:21:32Z</time>
      </trkpt>
      <trkpt lat="39.6621490" lon="2.4868930">
        <ele>184.4</ele>
        <time>2020-01-03T15:21:40Z</time>
      </trkpt>
      <trkpt lat="39.6622220" lon="2.4870820">
        <ele>185.4</ele>
        <time>2020-01-03T15:21:52Z</time>
      </trkpt>
      <trkpt lat="39.6622320" lon="2.4876630">
        <ele>185.8</ele>
        <time>2020-01-03T15:22:28Z</time>
      </trkpt>
      <trkpt lat="39.6624180" lon="2.4880880">
        <ele>186.4</ele>
        <time>2020-01-03T15:22:58Z</time>
      </trkpt>
      <trkpt lat="39.6625670" lon="2.4880840">
        <ele>187.6</ele>
        <time>2020-01-03T15:23:09Z</time>
      </trkpt>
      <trkpt lat="39.6627040" lon="2.4879700">
        <ele>188.6</ele>
        <time>2020-01-03T15:23:21Z</time>
      </trkpt>
      <trkpt lat="39.6628140" lon="2.4878850">
        <ele>189.6</ele>
        <time>2020-01-03T15:23:31Z</time>
      </trkpt>
      <trkpt lat="39.6629800" lon="2.4877950">
        <ele>191.0</ele>
        <time>2020-01-03T15:23:45Z</time>
      </trkpt>
      <trkpt lat="39.6630190" lon="2.4877630">
        <ele>192.0</ele>
        <time>2020-01-03T15:23:50Z</time>
      </trkpt>
      <trkpt lat="39.6630560" lon="2.4877310">
        <ele>193.2</ele>
        <time>2020-01-03T15:23:55Z</time>
      </trkpt>
      <trkpt lat="39.6630950" lon="2.4877120">
        <ele>194.4</ele>
        <time>2020-01-03T15:24:00Z</time>
      </trkpt>
      <trkpt lat="39.6631400" lon="2.4876820">
        <ele>195.4</ele>
        <time>2020-01-03T15:24:06Z</time>
      </trkpt>
      <trkpt lat="39.6632000" lon="2.4876350">
        <ele>196.6</ele>
        <time>2020-01-03T15:24:13Z</time>
      </trkpt>
      <trkpt lat="39.6632630" lon="2.4875940">
        <ele>197.6</ele>
        <time>2020-01-03T15:24:20Z</time>
      </trkpt>
      <trkpt lat="39.6633210" lon="2.4875740">
        <ele>198.6</ele>
        <time>2020-01-03T15:24:26Z</time>
      </trkpt>
      <trkpt lat="39.6633750" lon="2.4875590">
        <ele>199.8</ele>
        <time>2020-01-03T15:24:32Z</time>
      </trkpt>
      <trkpt lat="39.6634280" lon="2.4875400">
        <ele>201.2</ele>
        <time>2020-01-03T15:24:38Z</time>
      </trkpt>
      <trkpt lat="39.6634360" lon="2.4875400">
        <ele>201.0</ele>
        <time>2020-01-03T15:24:39Z</time>
      </trkpt>
      <trkpt lat="39.6635230" lon="2.4875080">
        <ele>202.2</ele>
        <time>2020-01-03T15:24:48Z</time>
      </trkpt>
      <trkpt lat="39.6635920" lon="2.4874700">
        <ele>203.2</ele>
        <time>2020-01-03T15:24:55Z</time>
      </trkpt>
      <trkpt lat="39.6636680" lon="2.4874310">
        <ele>204.4</ele>
        <time>2020-01-03T15:25:03Z</time>
      </trkpt>
      <trkpt lat="39.6636750" lon="2.4874280">
        <ele>204.6</ele>
        <time>2020-01-03T15:25:04Z</time>
      </trkpt>
      <trkpt lat="39.6637110" lon="2.4874110">
        <ele>205.6</ele>
        <time>2020-01-03T15:25:09Z</time>
      </trkpt>
      <trkpt lat="39.6637750" lon="2.4873830">
        <ele>206.6</ele>
        <time>2020-01-03T15:25:16Z</time>
      </trkpt>
      <trkpt lat="39.6638220" lon="2.4873520">
        <ele>207.6</ele>
        <time>2020-01-03T15:25:22Z</time>
      </trkpt>
      <trkpt lat="39.6638460" lon="2.4873400">
        <ele>208.2</ele>
        <time>2020-01-03T15:25:25Z</time>
      </trkpt>
      <trkpt lat="39.6638710" lon="2.4873180">
        <ele>208.6</ele>
        <time>2020-01-03T15:25:28Z</time>
      </trkpt>
      <trkpt lat="39.6638830" lon="2.4873100">
        <ele>208.8</ele>
        <time>2020-01-03T15:25:29Z</time>
      </trkpt>
      <trkpt lat="39.6639340" lon="2.4872700">
        <ele>209.8</ele>
        <time>2020-01-03T15:25:35Z</time>
      </trkpt>
      <trkpt lat="39.6639640" lon="2.4872280">
        <ele>210.8</ele>
        <time>2020-01-03T15:25:39Z</time>
      </trkpt>
      <trkpt lat="39.6639710" lon="2.4872220">
        <ele>211.0</ele>
        <time>2020-01-03T15:25:40Z</time>
      </trkpt>
      <trkpt lat="39.6639920" lon="2.4871890">
        <ele>211.8</ele>
        <time>2020-01-03T15:25:44Z</time>
      </trkpt>
      <trkpt lat="39.6639940" lon="2.4871820">
        <ele>212.0</ele>
        <time>2020-01-03T15:25:45Z</time>
      </trkpt>
      <trkpt lat="39.6640170" lon="2.4871520">
        <ele>213.0</ele>
        <time>2020-01-03T15:25:49Z</time>
      </trkpt>
      <trkpt lat="39.6640540" lon="2.4871390">
        <ele>214.2</ele>
        <time>2020-01-03T15:25:54Z</time>
      </trkpt>
      <trkpt lat="39.6640750" lon="2.4871960">
        <ele>215.2</ele>
        <time>2020-01-03T15:26:01Z</time>
      </trkpt>
      <trkpt lat="39.6640780" lon="2.4872950">
        <ele>216.2</ele>
        <time>2020-01-03T15:26:09Z</time>
      </trkpt>
      <trkpt lat="39.6640680" lon="2.4874020">
        <ele>217.2</ele>
        <time>2020-01-03T15:26:17Z</time>
      </trkpt>
      <trkpt lat="39.6640340" lon="2.4874990">
        <ele>218.2</ele>
        <time>2020-01-03T15:26:24Z</time>
      </trkpt>
      <trkpt lat="39.6640200" lon="2.4875750">
        <ele>219.2</ele>
        <time>2020-01-03T15:26:30Z</time>
      </trkpt>
      <trkpt lat="39.6639940" lon="2.4876680">
        <ele>220.4</ele>
        <time>2020-01-03T15:26:37Z</time>
      </trkpt>
      <trkpt lat="39.6639720" lon="2.4877430">
        <ele>221.6</ele>
        <time>2020-01-03T15:26:43Z</time>
      </trkpt>
      <trkpt lat="39.6639400" lon="2.4878200">
        <ele>222.8</ele>
        <time>2020-01-03T15:26:49Z</time>
      </trkpt>
      <trkpt lat="39.6638980" lon="2.4878840">
        <ele>224.0</ele>
        <time>2020-01-03T15:26:55Z</time>
      </trkpt>
      <trkpt lat="39.6638330" lon="2.4879130">
        <ele>225.0</ele>
        <time>2020-01-03T15:27:04Z</time>
      </trkpt>
      <trkpt lat="39.6637810" lon="2.4880050">
        <ele>226.0</ele>
        <time>2020-01-03T15:27:14Z</time>
      </trkpt>
      <trkpt lat="39.6637650" lon="2.4880910">
        <ele>227.0</ele>
        <time>2020-01-03T15:27:20Z</time>
      </trkpt>
      <trkpt lat="39.6637630" lon="2.4881350">
        <ele>227.2</ele>
        <time>2020-01-03T15:27:23Z</time>
      </trkpt>
      <trkpt lat="39.6637560" lon="2.4881880">
        <ele>227.4</ele>
        <time>2020-01-03T15:27:27Z</time>
      </trkpt>
      <trkpt lat="39.6637600" lon="2.4881940">
        <ele>228.4</ele>
        <time>2020-01-03T15:27:31Z</time>
      </trkpt>
      <trkpt lat="39.6637900" lon="2.4883000">
        <ele>229.4</ele>
        <time>2020-01-03T15:28:19Z</time>
      </trkpt>
      <trkpt lat="39.6638020" lon="2.4883580">
        <ele>229.8</ele>
        <time>2020-01-03T15:28:24Z</time>
      </trkpt>
      <trkpt lat="39.6638100" lon="2.4884160">
        <ele>230.6</ele>
        <time>2020-01-03T15:28:28Z</time>
      </trkpt>
      <trkpt lat="39.6638290" lon="2.4885080">
        <ele>231.6</ele>
        <time>2020-01-03T15:28:35Z</time>
      </trkpt>
      <trkpt lat="39.6638410" lon="2.4885620">
        <ele>232.8</ele>
        <time>2020-01-03T15:28:40Z</time>
      </trkpt>
      <trkpt lat="39.6638520" lon="2.4885790">
        <ele>233.0</ele>
        <time>2020-01-03T15:28:42Z</time>
      </trkpt>
      <trkpt lat="39.6638910" lon="2.4886100">
        <ele>233.8</ele>
        <time>2020-01-03T15:28:47Z</time>
      </trkpt>
      <trkpt lat="39.6639010" lon="2.4886090">
        <ele>234.0</ele>
        <time>2020-01-03T15:28:48Z</time>
      </trkpt>
      <trkpt lat="39.6639560" lon="2.4885570">
        <ele>234.8</ele>
        <time>2020-01-03T15:28:55Z</time>
      </trkpt>
      <trkpt lat="39.6639990" lon="2.4884660">
        <ele>236.0</ele>
        <time>2020-01-03T15:29:04Z</time>
      </trkpt>
      <trkpt lat="39.6640420" lon="2.4884100">
        <ele>237.2</ele>
        <time>2020-01-03T15:29:10Z</time>
      </trkpt>
      <trkpt lat="39.6640860" lon="2.4883890">
        <ele>238.2</ele>
        <time>2020-01-03T15:29:15Z</time>
      </trkpt>
      <trkpt lat="39.6640940" lon="2.4883880">
        <ele>238.4</ele>
        <time>2020-01-03T15:29:16Z</time>
      </trkpt>
      <trkpt lat="39.6641230" lon="2.4883940">
        <ele>239.2</ele>
        <time>2020-01-03T15:29:19Z</time>
      </trkpt>
      <trkpt lat="39.6641780" lon="2.4884010">
        <ele>240.4</ele>
        <time>2020-01-03T15:29:24Z</time>
      </trkpt>
      <trkpt lat="39.6642280" lon="2.4884180">
        <ele>241.6</ele>
        <time>2020-01-03T15:29:29Z</time>
      </trkpt>
      <trkpt lat="39.6643020" lon="2.4884440">
        <ele>242.8</ele>
        <time>2020-01-03T15:29:36Z</time>
      </trkpt>
      <trkpt lat="39.6643700" lon="2.4884830">
        <ele>243.8</ele>
        <time>2020-01-03T15:29:42Z</time>
      </trkpt>
      <trkpt lat="39.6644370" lon="2.4885110">
        <ele>244.8</ele>
        <time>2020-01-03T15:29:48Z</time>
      </trkpt>
      <trkpt lat="39.6644840" lon="2.4885180">
        <ele>246.0</ele>
        <time>2020-01-03T15:29:59Z</time>
      </trkpt>
      <trkpt lat="39.6645400" lon="2.4885920">
        <ele>247.2</ele>
        <time>2020-01-03T15:30:24Z</time>
      </trkpt>
      <trkpt lat="39.6646010" lon="2.4887380">
        <ele>248.4</ele>
        <time>2020-01-03T15:30:33Z</time>
      </trkpt>
      <trkpt lat="39.6646130" lon="2.4887620">
        <ele>248.6</ele>
        <time>2020-01-03T15:30:35Z</time>
      </trkpt>
      <trkpt lat="39.6646880" lon="2.4888070">
        <ele>249.4</ele>
        <time>2020-01-03T15:30:41Z</time>
      </trkpt>
      <trkpt lat="39.6648430" lon="2.4888480">
        <ele>251.0</ele>
        <time>2020-01-03T15:30:52Z</time>
      </trkpt>
      <trkpt lat="39.6650690" lon="2.4889390">
        <ele>252.2</ele>
        <time>2020-01-03T15:31:09Z</time>
      </trkpt>
      <trkpt lat="39.6652240" lon="2.4889290">
        <ele>253.2</ele>
        <time>2020-01-03T15:31:24Z</time>
      </trkpt>
      <trkpt lat="39.6653040" lon="2.4889310">
        <ele>254.4</ele>
        <time>2020-01-03T15:31:31Z</time>
      </trkpt>
      <trkpt lat="39.6653800" lon="2.4888860">
        <ele>255.0</ele>
        <time>2020-01-03T15:31:39Z</time>
      </trkpt>
      <trkpt lat="39.6657870" lon="2.4886220">
        <ele>253.6</ele>
        <time>2020-01-03T15:32:14Z</time>
      </trkpt>
      <trkpt lat="39.6657980" lon="2.4886120">
        <ele>253.6</ele>
        <time>2020-01-03T15:32:15Z</time>
      </trkpt>
      <trkpt lat="39.6661740" lon="2.4884530">
        <ele>255.4</ele>
        <time>2020-01-03T15:32:44Z</time>
      </trkpt>
      <trkpt lat="39.6663650" lon="2.4885910">
        <ele>256.4</ele>
        <time>2020-01-03T15:33:03Z</time>
      </trkpt>
      <trkpt lat="39.6664490" lon="2.4886880">
        <ele>255.4</ele>
        <time>2020-01-03T15:33:13Z</time>
      </trkpt>
      <trkpt lat="39.6668720" lon="2.4888780">
        <ele>256.2</ele>
        <time>2020-01-03T15:33:48Z</time>
      </trkpt>
      <trkpt lat="39.6668890" lon="2.4888950">
        <ele>256.4</ele>
        <time>2020-01-03T15:33:50Z</time>
      </trkpt>
      <trkpt lat="39.6669300" lon="2.4889490">
        <ele>257.6</ele>
        <time>2020-01-03T15:33:55Z</time>
      </trkpt>
      <trkpt lat="39.6670370" lon="2.4890840">
        <ele>258.6</ele>
        <time>2020-01-03T15:34:07Z</time>
      </trkpt>
      <trkpt lat="39.6672410" lon="2.4893230">
        <ele>259.6</ele>
        <time>2020-01-03T15:34:26Z</time>
      </trkpt>
      <trkpt lat="39.6673180" lon="2.4893920">
        <ele>260.6</ele>
        <time>2020-01-03T15:34:34Z</time>
      </trkpt>
      <trkpt lat="39.6673950" lon="2.4894610">
        <ele>261.6</ele>
        <time>2020-01-03T15:34:41Z</time>
      </trkpt>
      <trkpt lat="39.6674800" lon="2.4895140">
        <ele>263.0</ele>
        <time>2020-01-03T15:34:49Z</time>
      </trkpt>
      <trkpt lat="39.6675980" lon="2.4896170">
        <ele>264.0</ele>
        <time>2020-01-03T15:35:01Z</time>
      </trkpt>
      <trkpt lat="39.6676470" lon="2.4897050">
        <ele>265.0</ele>
        <time>2020-01-03T15:35:09Z</time>
      </trkpt>
      <trkpt lat="39.6677550" lon="2.4898450">
        <ele>266.2</ele>
        <time>2020-01-03T15:35:21Z</time>
      </trkpt>
      <trkpt lat="39.6679060" lon="2.4900070">
        <ele>265.2</ele>
        <time>2020-01-03T15:35:37Z</time>
      </trkpt>
      <trkpt lat="39.6680150" lon="2.4902000">
        <ele>264.2</ele>
        <time>2020-01-03T15:35:50Z</time>
      </trkpt>
      <trkpt lat="39.6680780" lon="2.4902950">
        <ele>263.0</ele>
        <time>2020-01-03T15:35:58Z</time>
      </trkpt>
      <trkpt lat="39.6681250" lon="2.4903560">
        <ele>262.0</ele>
        <time>2020-01-03T15:36:04Z</time>
      </trkpt>
      <trkpt lat="39.6682370" lon="2.4905220">
        <ele>261.0</ele>
        <time>2020-01-03T15:36:18Z</time>
      </trkpt>
      <trkpt lat="39.6685720" lon="2.4909070">
        <ele>260.6</ele>
        <time>2020-01-03T15:36:49Z</time>
      </trkpt>
      <trkpt lat="39.6686470" lon="2.4913220">
        <ele>260.0</ele>
        <time>2020-01-03T15:37:13Z</time>
      </trkpt>
      <trkpt lat="39.6686680" lon="2.4914740">
        <ele>259.4</ele>
        <time>2020-01-03T15:37:22Z</time>
      </trkpt>
      <trkpt lat="39.6686590" lon="2.4915150">
        <ele>259.0</ele>
        <time>2020-01-03T15:37:25Z</time>
      </trkpt>
      <trkpt lat="39.6687110" lon="2.4917330">
        <ele>258.0</ele>
        <time>2020-01-03T15:37:41Z</time>
      </trkpt>
      <trkpt lat="39.6690450" lon="2.4917750">
        <ele>259.0</ele>
        <time>2020-01-03T15:38:08Z</time>
      </trkpt>
      <trkpt lat="39.6690860" lon="2.4917700">
        <ele>260.0</ele>
        <time>2020-01-03T15:38:13Z</time>
      </trkpt>
      <trkpt lat="39.6691450" lon="2.4917700">
        <ele>261.2</ele>
        <time>2020-01-03T15:38:18Z</time>
      </trkpt>
      <trkpt lat="39.6692030" lon="2.4917730">
        <ele>262.4</ele>
        <time>2020-01-03T15:38:23Z</time>
      </trkpt>
      <trkpt lat="39.6692740" lon="2.4917960">
        <ele>263.6</ele>
        <time>2020-01-03T15:38:29Z</time>
      </trkpt>
      <trkpt lat="39.6693270" lon="2.4918310">
        <ele>264.6</ele>
        <time>2020-01-03T15:38:34Z</time>
      </trkpt>
      <trkpt lat="39.6693840" lon="2.4918800">
        <ele>265.6</ele>
        <time>2020-01-03T15:38:40Z</time>
      </trkpt>
      <trkpt lat="39.6695130" lon="2.4920500">
        <ele>265.4</ele>
        <time>2020-01-03T15:38:53Z</time>
      </trkpt>
      <trkpt lat="39.6695300" lon="2.4921420">
        <ele>264.4</ele>
        <time>2020-01-03T15:39:00Z</time>
      </trkpt>
      <trkpt lat="39.6695570" lon="2.4922030">
        <ele>263.4</ele>
        <time>2020-01-03T15:39:04Z</time>
      </trkpt>
      <trkpt lat="39.6695680" lon="2.4922850">
        <ele>262.2</ele>
        <time>2020-01-03T15:39:09Z</time>
      </trkpt>
      <trkpt lat="39.6695770" lon="2.4923480">
        <ele>261.0</ele>
        <time>2020-01-03T15:39:13Z</time>
      </trkpt>
      <trkpt lat="39.6695580" lon="2.4924200">
        <ele>259.6</ele>
        <time>2020-01-03T15:39:18Z</time>
      </trkpt>
      <trkpt lat="39.6695120" lon="2.4924810">
        <ele>258.4</ele>
        <time>2020-01-03T15:39:25Z</time>
      </trkpt>
      <trkpt lat="39.6694950" lon="2.4925020">
        <ele>257.8</ele>
        <time>2020-01-03T15:39:27Z</time>
      </trkpt>
      <trkpt lat="39.6694730" lon="2.4925480">
        <ele>257.2</ele>
        <time>2020-01-03T15:39:30Z</time>
      </trkpt>
      <trkpt lat="39.6694310" lon="2.4926060">
        <ele>256.0</ele>
        <time>2020-01-03T15:39:35Z</time>
      </trkpt>
      <trkpt lat="39.6694070" lon="2.4926380">
        <ele>255.6</ele>
        <time>2020-01-03T15:39:38Z</time>
      </trkpt>
      <trkpt lat="39.6693880" lon="2.4926760">
        <ele>255.2</ele>
        <time>2020-01-03T15:39:41Z</time>
      </trkpt>
      <trkpt lat="39.6693800" lon="2.4927040">
        <ele>255.0</ele>
        <time>2020-01-03T15:39:43Z</time>
      </trkpt>
      <trkpt lat="39.6693710" lon="2.4927410">
        <ele>254.4</ele>
        <time>2020-01-03T15:39:46Z</time>
      </trkpt>
      <trkpt lat="39.6693630" lon="2.4927700">
        <ele>254.2</ele>
        <time>2020-01-03T15:39:48Z</time>
      </trkpt>
      <trkpt lat="39.6693720" lon="2.4927880">
        <ele>254.4</ele>
        <time>2020-01-03T15:39:50Z</time>
      </trkpt>
      <trkpt lat="39.6694990" lon="2.4928920">
        <ele>256.0</ele>
        <time>2020-01-03T15:40:07Z</time>
      </trkpt>
      <trkpt lat="39.6696230" lon="2.4930800">
        <ele>254.8</ele>
        <time>2020-01-03T15:40:24Z</time>
      </trkpt>
      <trkpt lat="39.6697190" lon="2.4932070">
        <ele>253.8</ele>
        <time>2020-01-03T15:40:35Z</time>
      </trkpt>
      <trkpt lat="39.6697860" lon="2.4932200">
        <ele>252.8</ele>
        <time>2020-01-03T15:40:40Z</time>
      </trkpt>
      <trkpt lat="39.6698540" lon="2.4932260">
        <ele>251.6</ele>
        <time>2020-01-03T15:40:46Z</time>
      </trkpt>
      <trkpt lat="39.6699220" lon="2.4932700">
        <ele>250.6</ele>
        <time>2020-01-03T15:40:52Z</time>
      </trkpt>
      <trkpt lat="39.6700280" lon="2.4933260">
        <ele>251.6</ele>
        <time>2020-01-03T15:41:02Z</time>
      </trkpt>
      <trkpt lat="39.6701020" lon="2.4933250">
        <ele>252.6</ele>
        <time>2020-01-03T15:41:09Z</time>
      </trkpt>
      <trkpt lat="39.6701720" lon="2.4933390">
        <ele>253.0</ele>
        <time>2020-01-03T15:41:16Z</time>
      </trkpt>
      <trkpt lat="39.6702050" lon="2.4933710">
        <ele>252.2</ele>
        <time>2020-01-03T15:41:21Z</time>
      </trkpt>
      <trkpt lat="39.6702270" lon="2.4933930">
        <ele>251.6</ele>
        <time>2020-01-03T15:41:58Z</time>
      </trkpt>
      <trkpt lat="39.6702860" lon="2.4934030">
        <ele>250.6</ele>
        <time>2020-01-03T15:42:11Z</time>
      </trkpt>
      <trkpt lat="39.6703510" lon="2.4934050">
        <ele>249.4</ele>
        <time>2020-01-03T15:42:17Z</time>
      </trkpt>
      <trkpt lat="39.6704340" lon="2.4934280">
        <ele>248.4</ele>
        <time>2020-01-03T15:42:23Z</time>
      </trkpt>
      <trkpt lat="39.6705010" lon="2.4934750">
        <ele>249.4</ele>
        <time>2020-01-03T15:42:31Z</time>
      </trkpt>
      <trkpt lat="39.6706070" lon="2.4935160">
        <ele>250.6</ele>
        <time>2020-01-03T15:42:40Z</time>
      </trkpt>
      <trkpt lat="39.6706520" lon="2.4935470">
        <ele>251.8</ele>
        <time>2020-01-03T15:42:45Z</time>
      </trkpt>
      <trkpt lat="39.6706800" lon="2.4935820">
        <ele>253.0</ele>
        <time>2020-01-03T15:42:50Z</time>
      </trkpt>
      <trkpt lat="39.6706790" lon="2.4936140">
        <ele>254.2</ele>
        <time>2020-01-03T15:42:54Z</time>
      </trkpt>
      <trkpt lat="39.6706800" lon="2.4936520">
        <ele>255.4</ele>
        <time>2020-01-03T15:42:59Z</time>
      </trkpt>
      <trkpt lat="39.6706670" lon="2.4937180">
        <ele>256.4</ele>
        <time>2020-01-03T15:43:05Z</time>
      </trkpt>
      <trkpt lat="39.6706670" lon="2.4937640">
        <ele>257.2</ele>
        <time>2020-01-03T15:43:09Z</time>
      </trkpt>
      <trkpt lat="39.6706660" lon="2.4937790">
        <ele>257.4</ele>
        <time>2020-01-03T15:43:10Z</time>
      </trkpt>
      <trkpt lat="39.6707490" lon="2.4943480">
        <ele>256.6</ele>
        <time>2020-01-03T15:43:48Z</time>
      </trkpt>
      <trkpt lat="39.6707700" lon="2.4944260">
        <ele>256.4</ele>
        <time>2020-01-03T15:43:53Z</time>
      </trkpt>
      <trkpt lat="39.6708590" lon="2.4945880">
        <ele>257.4</ele>
        <time>2020-01-03T15:44:06Z</time>
      </trkpt>
      <trkpt lat="39.6709800" lon="2.4947200">
        <ele>257.6</ele>
        <time>2020-01-03T15:44:18Z</time>
      </trkpt>
      <trkpt lat="39.6711250" lon="2.4951340">
        <ele>258.4</ele>
        <time>2020-01-03T15:44:47Z</time>
      </trkpt>
      <trkpt lat="39.6710670" lon="2.4953650">
        <ele>257.2</ele>
        <time>2020-01-03T15:45:03Z</time>
      </trkpt>
      <trkpt lat="39.6710520" lon="2.4953930">
        <ele>257.2</ele>
        <time>2020-01-03T15:45:05Z</time>
      </trkpt>
      <trkpt lat="39.6709270" lon="2.4955560">
        <ele>258.4</ele>
        <time>2020-01-03T15:45:20Z</time>
      </trkpt>
      <trkpt lat="39.6709080" lon="2.4955760">
        <ele>258.8</ele>
        <time>2020-01-03T15:45:22Z</time>
      </trkpt>
      <trkpt lat="39.6708640" lon="2.4957000">
        <ele>259.4</ele>
        <time>2020-01-03T15:45:30Z</time>
      </trkpt>
      <trkpt lat="39.6708330" lon="2.4957290">
        <ele>260.6</ele>
        <time>2020-01-03T15:45:35Z</time>
      </trkpt>
      <trkpt lat="39.6708150" lon="2.4957450">
        <ele>261.6</ele>
        <time>2020-01-03T15:45:39Z</time>
      </trkpt>
      <trkpt lat="39.6707810" lon="2.4957830">
        <ele>262.6</ele>
        <time>2020-01-03T15:45:45Z</time>
      </trkpt>
      <trkpt lat="39.6707520" lon="2.4958220">
        <ele>263.8</ele>
        <time>2020-01-03T15:45:50Z</time>
      </trkpt>
      <trkpt lat="39.6707040" lon="2.4958920">
        <ele>265.0</ele>
        <time>2020-01-03T15:45:58Z</time>
      </trkpt>
      <trkpt lat="39.6706630" lon="2.4959660">
        <ele>263.8</ele>
        <time>2020-01-03T15:46:05Z</time>
      </trkpt>
      <trkpt lat="39.6706720" lon="2.4960320">
        <ele>262.8</ele>
        <time>2020-01-03T15:46:11Z</time>
      </trkpt>
      <trkpt lat="39.6706770" lon="2.4960530">
        <ele>262.2</ele>
        <time>2020-01-03T15:46:13Z</time>
      </trkpt>
      <trkpt lat="39.6706870" lon="2.4961040">
        <ele>262.2</ele>
        <time>2020-01-03T15:46:17Z</time>
      </trkpt>
      <trkpt lat="39.6707880" lon="2.4966330">
        <ele>263.4</ele>
        <time>2020-01-03T15:46:58Z</time>
      </trkpt>
      <trkpt lat="39.6708110" lon="2.4967230">
        <ele>263.8</ele>
        <time>2020-01-03T15:47:05Z</time>
      </trkpt>
      <trkpt lat="39.6708260" lon="2.4967930">
        <ele>265.0</ele>
        <time>2020-01-03T15:47:11Z</time>
      </trkpt>
      <trkpt lat="39.6709210" lon="2.4972730">
        <ele>264.0</ele>
        <time>2020-01-03T15:47:46Z</time>
      </trkpt>
      <trkpt lat="39.6709220" lon="2.4974040">
        <ele>262.8</ele>
        <time>2020-01-03T15:47:53Z</time>
      </trkpt>
      <trkpt lat="39.6708890" lon="2.4974810">
        <ele>261.8</ele>
        <time>2020-01-03T15:47:59Z</time>
      </trkpt>
      <trkpt lat="39.6708150" lon="2.4976050">
        <ele>263.2</ele>
        <time>2020-01-03T15:48:12Z</time>
      </trkpt>
      <trkpt lat="39.6708100" lon="2.4976180">
        <ele>264.6</ele>
        <time>2020-01-03T15:48:14Z</time>
      </trkpt>
      <trkpt lat="39.6707710" lon="2.4976400">
        <ele>265.6</ele>
        <time>2020-01-03T15:48:20Z</time>
      </trkpt>
      <trkpt lat="39.6707400" lon="2.4976300">
        <ele>266.8</ele>
        <time>2020-01-03T15:48:25Z</time>
      </trkpt>
      <trkpt lat="39.6707140" lon="2.4976700">
        <ele>268.0</ele>
        <time>2020-01-03T15:48:30Z</time>
      </trkpt>
      <trkpt lat="39.6706980" lon="2.4977040">
        <ele>269.2</ele>
        <time>2020-01-03T15:48:34Z</time>
      </trkpt>
      <trkpt lat="39.6706970" lon="2.4977120">
        <ele>269.4</ele>
        <time>2020-01-03T15:48:35Z</time>
      </trkpt>
      <trkpt lat="39.6706910" lon="2.4977320">
        <ele>269.8</ele>
        <time>2020-01-03T15:48:37Z</time>
      </trkpt>
      <trkpt lat="39.6706840" lon="2.4977490">
        <ele>270.2</ele>
        <time>2020-01-03T15:48:39Z</time>
      </trkpt>
      <trkpt lat="39.6706710" lon="2.4977790">
        <ele>271.6</ele>
        <time>2020-01-03T15:48:43Z</time>
      </trkpt>
      <trkpt lat="39.6706690" lon="2.4978470">
        <ele>272.6</ele>
        <time>2020-01-03T15:48:48Z</time>
      </trkpt>
      <trkpt lat="39.6706100" lon="2.4979950">
        <ele>271.6</ele>
        <time>2020-01-03T15:48:58Z</time>
      </trkpt>
      <trkpt lat="39.6705760" lon="2.4980590">
        <ele>270.4</ele>
        <time>2020-01-03T15:49:04Z</time>
      </trkpt>
      <trkpt lat="39.6705370" lon="2.4981530">
        <ele>269.0</ele>
        <time>2020-01-03T15:49:11Z</time>
      </trkpt>
      <trkpt lat="39.6705220" lon="2.4981990">
        <ele>267.8</ele>
        <time>2020-01-03T15:49:17Z</time>
      </trkpt>
      <trkpt lat="39.6705030" lon="2.4982310">
        <ele>266.8</ele>
        <time>2020-01-03T15:49:22Z</time>
      </trkpt>
      <trkpt lat="39.6704790" lon="2.4982720">
        <ele>265.6</ele>
        <time>2020-01-03T15:49:28Z</time>
      </trkpt>
      <trkpt lat="39.6704530" lon="2.4983140">
        <ele>265.0</ele>
        <time>2020-01-03T15:49:32Z</time>
      </trkpt>
      <trkpt lat="39.6704380" lon="2.4983350">
        <ele>264.6</ele>
        <time>2020-01-03T15:49:34Z</time>
      </trkpt>
      <trkpt lat="39.6703910" lon="2.4985590">
        <ele>263.4</ele>
        <time>2020-01-03T15:49:48Z</time>
      </trkpt>
      <trkpt lat="39.6703740" lon="2.4986340">
        <ele>262.2</ele>
        <time>2020-01-03T15:49:53Z</time>
      </trkpt>
      <trkpt lat="39.6703440" lon="2.4987210">
        <ele>261.2</ele>
        <time>2020-01-03T15:49:59Z</time>
      </trkpt>
      <trkpt lat="39.6702790" lon="2.4991110">
        <ele>262.2</ele>
        <time>2020-01-03T15:50:29Z</time>
      </trkpt>
      <trkpt lat="39.6703040" lon="2.4992030">
        <ele>263.2</ele>
        <time>2020-01-03T15:50:35Z</time>
      </trkpt>
      <trkpt lat="39.6703310" lon="2.4993100">
        <ele>264.4</ele>
        <time>2020-01-03T15:50:42Z</time>
      </trkpt>
      <trkpt lat="39.6704220" lon="2.4994500">
        <ele>263.2</ele>
        <time>2020-01-03T15:50:54Z</time>
      </trkpt>
      <trkpt lat="39.6704390" lon="2.4996450">
        <ele>263.6</ele>
        <time>2020-01-03T15:51:12Z</time>
      </trkpt>
      <trkpt lat="39.6704570" lon="2.4996670">
        <ele>263.8</ele>
        <time>2020-01-03T15:51:14Z</time>
      </trkpt>
      <trkpt lat="39.6704730" lon="2.4996690">
        <ele>264.4</ele>
        <time>2020-01-03T15:51:16Z</time>
      </trkpt>
      <trkpt lat="39.6705210" lon="2.4996640">
        <ele>265.2</ele>
        <time>2020-01-03T15:51:21Z</time>
      </trkpt>
      <trkpt lat="39.6705270" lon="2.4996640">
        <ele>265.4</ele>
        <time>2020-01-03T15:51:22Z</time>
      </trkpt>
      <trkpt lat="39.6705610" lon="2.4996390">
        <ele>266.4</ele>
        <time>2020-01-03T15:51:28Z</time>
      </trkpt>
      <trkpt lat="39.6705980" lon="2.4995940">
        <ele>267.6</ele>
        <time>2020-01-03T15:51:35Z</time>
      </trkpt>
      <trkpt lat="39.6706330" lon="2.4995990">
        <ele>268.6</ele>
        <time>2020-01-03T15:51:40Z</time>
      </trkpt>
      <trkpt lat="39.6706520" lon="2.4996010">
        <ele>269.0</ele>
        <time>2020-01-03T15:51:42Z</time>
      </trkpt>
      <trkpt lat="39.6706740" lon="2.4995990">
        <ele>269.6</ele>
        <time>2020-01-03T15:51:45Z</time>
      </trkpt>
      <trkpt lat="39.6707040" lon="2.4996060">
        <ele>270.2</ele>
        <time>2020-01-03T15:51:48Z</time>
      </trkpt>
      <trkpt lat="39.6707260" lon="2.4996100">
        <ele>270.6</ele>
        <time>2020-01-03T15:51:50Z</time>
      </trkpt>
      <trkpt lat="39.6707420" lon="2.4996180">
        <ele>270.8</ele>
        <time>2020-01-03T15:51:51Z</time>
      </trkpt>
      <trkpt lat="39.6707520" lon="2.4996180">
        <ele>270.8</ele>
        <time>2020-01-03T15:51:52Z</time>
      </trkpt>
      <trkpt lat="39.6707950" lon="2.4996230">
        <ele>271.8</ele>
        <time>2020-01-03T15:51:57Z</time>
      </trkpt>
      <trkpt lat="39.6708140" lon="2.4996210">
        <ele>272.8</ele>
        <time>2020-01-03T15:52:02Z</time>
      </trkpt>
      <trkpt lat="39.6708050" lon="2.4996640">
        <ele>273.8</ele>
        <time>2020-01-03T15:52:07Z</time>
      </trkpt>
      <trkpt lat="39.6707810" lon="2.4997100">
        <ele>275.0</ele>
        <time>2020-01-03T15:52:13Z</time>
      </trkpt>
      <trkpt lat="39.6707650" lon="2.4997680">
        <ele>276.0</ele>
        <time>2020-01-03T15:52:19Z</time>
      </trkpt>
      <trkpt lat="39.6707500" lon="2.4998170">
        <ele>277.2</ele>
        <time>2020-01-03T15:52:25Z</time>
      </trkpt>
      <trkpt lat="39.6707440" lon="2.4998730">
        <ele>277.8</ele>
        <time>2020-01-03T15:52:29Z</time>
      </trkpt>
      <trkpt lat="39.6707410" lon="2.4998960">
        <ele>278.4</ele>
        <time>2020-01-03T15:52:31Z</time>
      </trkpt>
      <trkpt lat="39.6707500" lon="2.4999370">
        <ele>279.4</ele>
        <time>2020-01-03T15:52:36Z</time>
      </trkpt>
      <trkpt lat="39.6707790" lon="2.4999240">
        <ele>280.6</ele>
        <time>2020-01-03T15:52:41Z</time>
      </trkpt>
      <trkpt lat="39.6708150" lon="2.4999040">
        <ele>281.8</ele>
        <time>2020-01-03T15:52:46Z</time>
      </trkpt>
      <trkpt lat="39.6708540" lon="2.4998900">
        <ele>282.8</ele>
        <time>2020-01-03T15:52:51Z</time>
      </trkpt>
      <trkpt lat="39.6708720" lon="2.4998790">
        <ele>283.2</ele>
        <time>2020-01-03T15:52:53Z</time>
      </trkpt>
      <trkpt lat="39.6708810" lon="2.4998790">
        <ele>283.6</ele>
        <time>2020-01-03T15:52:55Z</time>
      </trkpt>
      <trkpt lat="39.6708830" lon="2.4998850">
        <ele>284.0</ele>
        <time>2020-01-03T15:52:56Z</time>
      </trkpt>
      <trkpt lat="39.6708830" lon="2.4998930">
        <ele>285.0</ele>
        <time>2020-01-03T15:53:00Z</time>
      </trkpt>
      <trkpt lat="39.6709070" lon="2.4999170">
        <ele>286.2</ele>
        <time>2020-01-03T15:53:05Z</time>
      </trkpt>
      <trkpt lat="39.6709470" lon="2.4999180">
        <ele>287.2</ele>
        <time>2020-01-03T15:53:10Z</time>
      </trkpt>
      <trkpt lat="39.6709970" lon="2.4998860">
        <ele>288.2</ele>
        <time>2020-01-03T15:53:16Z</time>
      </trkpt>
      <trkpt lat="39.6710430" lon="2.4998670">
        <ele>289.4</ele>
        <time>2020-01-03T15:53:23Z</time>
      </trkpt>
      <trkpt lat="39.6710880" lon="2.4998780">
        <ele>290.6</ele>
        <time>2020-01-03T15:53:28Z</time>
      </trkpt>
      <trkpt lat="39.6710950" lon="2.4998800">
        <ele>290.8</ele>
        <time>2020-01-03T15:53:29Z</time>
      </trkpt>
      <trkpt lat="39.6711130" lon="2.4998850">
        <ele>291.4</ele>
        <time>2020-01-03T15:53:31Z</time>
      </trkpt>
      <trkpt lat="39.6711170" lon="2.4998840">
        <ele>291.6</ele>
        <time>2020-01-03T15:53:32Z</time>
      </trkpt>
      <trkpt lat="39.6711450" lon="2.4998610">
        <ele>292.2</ele>
        <time>2020-01-03T15:53:35Z</time>
      </trkpt>
      <trkpt lat="39.6711880" lon="2.4998110">
        <ele>292.8</ele>
        <time>2020-01-03T15:53:40Z</time>
      </trkpt>
      <trkpt lat="39.6712460" lon="2.4997350">
        <ele>293.8</ele>
        <time>2020-01-03T15:53:47Z</time>
      </trkpt>
      <trkpt lat="39.6713620" lon="2.4995540">
        <ele>295.0</ele>
        <time>2020-01-03T15:54:00Z</time>
      </trkpt>
      <trkpt lat="39.6714140" lon="2.4994580">
        <ele>296.0</ele>
        <time>2020-01-03T15:54:08Z</time>
      </trkpt>
      <trkpt lat="39.6714280" lon="2.4994380">
        <ele>296.4</ele>
        <time>2020-01-03T15:54:10Z</time>
      </trkpt>
      <trkpt lat="39.6714470" lon="2.4993990">
        <ele>297.0</ele>
        <time>2020-01-03T15:54:14Z</time>
      </trkpt>
      <trkpt lat="39.6714540" lon="2.4993970">
        <ele>297.2</ele>
        <time>2020-01-03T15:54:15Z</time>
      </trkpt>
      <trkpt lat="39.6714840" lon="2.4993760">
        <ele>298.2</ele>
        <time>2020-01-03T15:54:19Z</time>
      </trkpt>
      <trkpt lat="39.6716190" lon="2.4992670">
        <ele>299.4</ele>
        <time>2020-01-03T15:54:32Z</time>
      </trkpt>
      <trkpt lat="39.6717590" lon="2.4992440">
        <ele>300.4</ele>
        <time>2020-01-03T15:54:43Z</time>
      </trkpt>
      <trkpt lat="39.6718140" lon="2.4992550">
        <ele>301.6</ele>
        <time>2020-01-03T15:54:49Z</time>
      </trkpt>
      <trkpt lat="39.6718510" lon="2.4992770">
        <ele>302.6</ele>
        <time>2020-01-03T15:54:54Z</time>
      </trkpt>
      <trkpt lat="39.6718780" lon="2.4992980">
        <ele>303.8</ele>
        <time>2020-01-03T15:54:58Z</time>
      </trkpt>
      <trkpt lat="39.6719020" lon="2.4993180">
        <ele>304.8</ele>
        <time>2020-01-03T15:55:02Z</time>
      </trkpt>
      <trkpt lat="39.6719240" lon="2.4993400">
        <ele>306.0</ele>
        <time>2020-01-03T15:55:06Z</time>
      </trkpt>
      <trkpt lat="39.6719210" lon="2.4993680">
        <ele>307.2</ele>
        <time>2020-01-03T15:55:10Z</time>
      </trkpt>
      <trkpt lat="39.6719100" lon="2.4993690">
        <ele>308.2</ele>
        <time>2020-01-03T15:55:13Z</time>
      </trkpt>
      <trkpt lat="39.6718930" lon="2.4993770">
        <ele>309.4</ele>
        <time>2020-01-03T15:55:17Z</time>
      </trkpt>
      <trkpt lat="39.6718670" lon="2.4993930">
        <ele>310.8</ele>
        <time>2020-01-03T15:55:22Z</time>
      </trkpt>
      <trkpt lat="39.6718460" lon="2.4993970">
        <ele>312.0</ele>
        <time>2020-01-03T15:55:26Z</time>
      </trkpt>
      <trkpt lat="39.6718190" lon="2.4994110">
        <ele>313.2</ele>
        <time>2020-01-03T15:55:31Z</time>
      </trkpt>
      <trkpt lat="39.6718090" lon="2.4994380">
        <ele>314.2</ele>
        <time>2020-01-03T15:55:36Z</time>
      </trkpt>
      <trkpt lat="39.6717890" lon="2.4994700">
        <ele>315.4</ele>
        <time>2020-01-03T15:55:41Z</time>
      </trkpt>
      <trkpt lat="39.6717730" lon="2.4995060">
        <ele>316.4</ele>
        <time>2020-01-03T15:55:47Z</time>
      </trkpt>
      <trkpt lat="39.6717610" lon="2.4995330">
        <ele>317.4</ele>
        <time>2020-01-03T15:55:52Z</time>
      </trkpt>
      <trkpt lat="39.6716980" lon="2.4996050">
        <ele>318.4</ele>
        <time>2020-01-03T15:57:12Z</time>
      </trkpt>
      <trkpt lat="39.6717690" lon="2.4995600">
        <ele>319.6</ele>
        <time>2020-01-03T15:58:02Z</time>
      </trkpt>
      <trkpt lat="39.6718510" lon="2.4995610">
        <ele>320.6</ele>
        <time>2020-01-03T15:58:43Z</time>
      </trkpt>
      <trkpt lat="39.6718810" lon="2.4995680">
        <ele>321.2</ele>
        <time>2020-01-03T15:58:46Z</time>
      </trkpt>
      <trkpt lat="39.6719100" lon="2.4995970">
        <ele>321.6</ele>
        <time>2020-01-03T15:58:49Z</time>
      </trkpt>
      <trkpt lat="39.6719210" lon="2.4996010">
        <ele>321.6</ele>
        <time>2020-01-03T15:58:50Z</time>
      </trkpt>
      <trkpt lat="39.6719820" lon="2.4996440">
        <ele>322.8</ele>
        <time>2020-01-03T15:58:57Z</time>
      </trkpt>
      <trkpt lat="39.6720540" lon="2.4996920">
        <ele>323.8</ele>
        <time>2020-01-03T15:59:05Z</time>
      </trkpt>
      <trkpt lat="39.6721150" lon="2.4997170">
        <ele>324.8</ele>
        <time>2020-01-03T15:59:13Z</time>
      </trkpt>
      <trkpt lat="39.6722000" lon="2.4997230">
        <ele>326.0</ele>
        <time>2020-01-03T15:59:21Z</time>
      </trkpt>
      <trkpt lat="39.6723260" lon="2.4996930">
        <ele>326.8</ele>
        <time>2020-01-03T15:59:33Z</time>
      </trkpt>
      <trkpt lat="39.6724240" lon="2.4997210">
        <ele>327.0</ele>
        <time>2020-01-03T15:59:41Z</time>
      </trkpt>
      <trkpt lat="39.6725840" lon="2.4997390">
        <ele>328.2</ele>
        <time>2020-01-03T15:59:55Z</time>
      </trkpt>
      <trkpt lat="39.6727200" lon="2.4997330">
        <ele>328.4</ele>
        <time>2020-01-03T16:00:05Z</time>
      </trkpt>
      <trkpt lat="39.6729090" lon="2.4997420">
        <ele>329.4</ele>
        <time>2020-01-03T16:00:18Z</time>
      </trkpt>
      <trkpt lat="39.6729320" lon="2.4997400">
        <ele>329.6</ele>
        <time>2020-01-03T16:00:20Z</time>
      </trkpt>
      <trkpt lat="39.6729530" lon="2.4997370">
        <ele>330.0</ele>
        <time>2020-01-03T16:00:22Z</time>
      </trkpt>
      <trkpt lat="39.6734020" lon="2.4997400">
        <ele>329.8</ele>
        <time>2020-01-03T16:00:59Z</time>
      </trkpt>
      <trkpt lat="39.6735930" lon="2.4998700">
        <ele>329.0</ele>
        <time>2020-01-03T16:01:17Z</time>
      </trkpt>
      <trkpt lat="39.6736270" lon="2.4998780">
        <ele>328.2</ele>
        <time>2020-01-03T16:01:27Z</time>
      </trkpt>
      <trkpt lat="39.6740650" lon="2.4997840">
        <ele>328.0</ele>
        <time>2020-01-03T16:02:01Z</time>
      </trkpt>
      <trkpt lat="39.6743280" lon="2.4996090">
        <ele>329.2</ele>
        <time>2020-01-03T16:02:25Z</time>
      </trkpt>
      <trkpt lat="39.6744460" lon="2.4995200">
        <ele>330.4</ele>
        <time>2020-01-03T16:02:37Z</time>
      </trkpt>
      <trkpt lat="39.6744550" lon="2.4995090">
        <ele>330.4</ele>
        <time>2020-01-03T16:02:38Z</time>
      </trkpt>
      <trkpt lat="39.6745250" lon="2.4994240">
        <ele>330.8</ele>
        <time>2020-01-03T16:02:46Z</time>
      </trkpt>
      <trkpt lat="39.6745910" lon="2.4993330">
        <ele>331.4</ele>
        <time>2020-01-03T16:03:09Z</time>
      </trkpt>
      <trkpt lat="39.6747200" lon="2.4993050">
        <ele>332.4</ele>
        <time>2020-01-03T16:04:26Z</time>
      </trkpt>
      <trkpt lat="39.6747660" lon="2.4993190">
        <ele>332.8</ele>
        <time>2020-01-03T16:04:31Z</time>
      </trkpt>
      <trkpt lat="39.6747900" lon="2.4993080">
        <ele>333.0</ele>
        <time>2020-01-03T16:04:33Z</time>
      </trkpt>
      <trkpt lat="39.6752190" lon="2.4991110">
        <ele>332.4</ele>
        <time>2020-01-03T16:05:10Z</time>
      </trkpt>
      <trkpt lat="39.6754120" lon="2.4990070">
        <ele>332.4</ele>
        <time>2020-01-03T16:05:28Z</time>
      </trkpt>
      <trkpt lat="39.6756550" lon="2.4988900">
        <ele>331.8</ele>
        <time>2020-01-03T16:07:56Z</time>
      </trkpt>
      <trkpt lat="39.6756700" lon="2.4988820">
        <ele>331.4</ele>
        <time>2020-01-03T16:07:58Z</time>
      </trkpt>
      <trkpt lat="39.6757880" lon="2.4988650">
        <ele>330.4</ele>
        <time>2020-01-03T16:08:10Z</time>
      </trkpt>
      <trkpt lat="39.6759930" lon="2.4989400">
        <ele>329.4</ele>
        <time>2020-01-03T16:08:29Z</time>
      </trkpt>
      <trkpt lat="39.6760150" lon="2.4989480">
        <ele>329.2</ele>
        <time>2020-01-03T16:08:39Z</time>
      </trkpt>
      <trkpt lat="39.6760930" lon="2.4989910">
        <ele>328.0</ele>
        <time>2020-01-03T16:08:47Z</time>
      </trkpt>
      <trkpt lat="39.6761370" lon="2.4990140">
        <ele>327.0</ele>
        <time>2020-01-03T16:08:51Z</time>
      </trkpt>
      <trkpt lat="39.6761930" lon="2.4990500">
        <ele>326.0</ele>
        <time>2020-01-03T16:08:57Z</time>
      </trkpt>
      <trkpt lat="39.6763570" lon="2.4990960">
        <ele>324.8</ele>
        <time>2020-01-03T16:09:10Z</time>
      </trkpt>
      <trkpt lat="39.6764120" lon="2.4990970">
        <ele>324.6</ele>
        <time>2020-01-03T16:09:16Z</time>
      </trkpt>
      <trkpt lat="39.6766400" lon="2.4991770">
        <ele>323.8</ele>
        <time>2020-01-03T16:09:36Z</time>
      </trkpt>
      <trkpt lat="39.6767920" lon="2.4992210">
        <ele>324.2</ele>
        <time>2020-01-03T16:09:49Z</time>
      </trkpt>
      <trkpt lat="39.6768500" lon="2.4992240">
        <ele>324.8</ele>
        <time>2020-01-03T16:09:54Z</time>
      </trkpt>
      <trkpt lat="39.6769230" lon="2.4992640">
        <ele>326.0</ele>
        <time>2020-01-03T16:10:01Z</time>
      </trkpt>
      <trkpt lat="39.6769870" lon="2.4992900">
        <ele>327.0</ele>
        <time>2020-01-03T16:10:08Z</time>
      </trkpt>
      <trkpt lat="39.6770480" lon="2.4992860">
        <ele>328.2</ele>
        <time>2020-01-03T16:10:14Z</time>
      </trkpt>
      <trkpt lat="39.6771220" lon="2.4992480">
        <ele>329.2</ele>
        <time>2020-01-03T16:10:21Z</time>
      </trkpt>
      <trkpt lat="39.6772680" lon="2.4992840">
        <ele>330.4</ele>
        <time>2020-01-03T16:10:34Z</time>
      </trkpt>
      <trkpt lat="39.6776020" lon="2.4995190">
        <ele>329.2</ele>
        <time>2020-01-03T16:11:08Z</time>
      </trkpt>
      <trkpt lat="39.6776510" lon="2.4995490">
        <ele>328.0</ele>
        <time>2020-01-03T16:11:13Z</time>
      </trkpt>
      <trkpt lat="39.6776990" lon="2.4996130">
        <ele>326.8</ele>
        <time>2020-01-03T16:11:19Z</time>
      </trkpt>
      <trkpt lat="39.6777330" lon="2.4996950">
        <ele>325.8</ele>
        <time>2020-01-03T16:11:25Z</time>
      </trkpt>
      <trkpt lat="39.6777710" lon="2.4997830">
        <ele>324.8</ele>
        <time>2020-01-03T16:11:31Z</time>
      </trkpt>
      <trkpt lat="39.6777910" lon="2.4998200">
        <ele>324.4</ele>
        <time>2020-01-03T16:11:34Z</time>
      </trkpt>
      <trkpt lat="39.6778290" lon="2.4998590">
        <ele>323.8</ele>
        <time>2020-01-03T16:11:39Z</time>
      </trkpt>
      <trkpt lat="39.6780970" lon="2.5000260">
        <ele>324.8</ele>
        <time>2020-01-03T16:12:03Z</time>
      </trkpt>
      <trkpt lat="39.6782320" lon="2.5001700">
        <ele>323.8</ele>
        <time>2020-01-03T16:12:15Z</time>
      </trkpt>
      <trkpt lat="39.6783480" lon="2.5001840">
        <ele>322.6</ele>
        <time>2020-01-03T16:12:25Z</time>
      </trkpt>
      <trkpt lat="39.6783580" lon="2.5001830">
        <ele>322.6</ele>
        <time>2020-01-03T16:12:26Z</time>
      </trkpt>
      <trkpt lat="39.6784590" lon="2.5002070">
        <ele>322.4</ele>
        <time>2020-01-03T16:12:34Z</time>
      </trkpt>
      <trkpt lat="39.6786940" lon="2.5002100">
        <ele>322.4</ele>
        <time>2020-01-03T16:12:53Z</time>
      </trkpt>
      <trkpt lat="39.6787430" lon="2.5002180">
        <ele>322.0</ele>
        <time>2020-01-03T16:13:00Z</time>
      </trkpt>
      <trkpt lat="39.6791950" lon="2.5003240">
        <ele>322.6</ele>
        <time>2020-01-03T16:13:37Z</time>
      </trkpt>
      <trkpt lat="39.6794580" lon="2.5003610">
        <ele>323.8</ele>
        <time>2020-01-03T16:13:57Z</time>
      </trkpt>
      <trkpt lat="39.6795700" lon="2.5003850">
        <ele>325.0</ele>
        <time>2020-01-03T16:14:07Z</time>
      </trkpt>
      <trkpt lat="39.6796660" lon="2.5004510">
        <ele>326.0</ele>
        <time>2020-01-03T16:14:16Z</time>
      </trkpt>
      <trkpt lat="39.6796960" lon="2.5005520">
        <ele>326.6</ele>
        <time>2020-01-03T16:14:24Z</time>
      </trkpt>
      <trkpt lat="39.6796970" lon="2.5005800">
        <ele>326.8</ele>
        <time>2020-01-03T16:14:26Z</time>
      </trkpt>
      <trkpt lat="39.6796880" lon="2.5006050">
        <ele>327.0</ele>
        <time>2020-01-03T16:14:28Z</time>
      </trkpt>
      <trkpt lat="39.6796500" lon="2.5007190">
        <ele>328.0</ele>
        <time>2020-01-03T16:14:38Z</time>
      </trkpt>
      <trkpt lat="39.6796530" lon="2.5007530">
        <ele>328.2</ele>
        <time>2020-01-03T16:14:40Z</time>
      </trkpt>
      <trkpt lat="39.6797100" lon="2.5009910">
        <ele>329.2</ele>
        <time>2020-01-03T16:14:55Z</time>
      </trkpt>
      <trkpt lat="39.6797340" lon="2.5010430">
        <ele>329.4</ele>
        <time>2020-01-03T16:14:59Z</time>
      </trkpt>
      <trkpt lat="39.6797490" lon="2.5012800">
        <ele>330.2</ele>
        <time>2020-01-03T16:15:15Z</time>
      </trkpt>
      <trkpt lat="39.6797450" lon="2.5013210">
        <ele>330.4</ele>
        <time>2020-01-03T16:15:18Z</time>
      </trkpt>
      <trkpt lat="39.6798830" lon="2.5014580">
        <ele>331.2</ele>
        <time>2020-01-03T16:15:30Z</time>
      </trkpt>
      <trkpt lat="39.6800170" lon="2.5015260">
        <ele>332.2</ele>
        <time>2020-01-03T16:15:42Z</time>
      </trkpt>
      <trkpt lat="39.6800800" lon="2.5015840">
        <ele>333.4</ele>
        <time>2020-01-03T16:15:49Z</time>
      </trkpt>
      <trkpt lat="39.6801660" lon="2.5016520">
        <ele>334.4</ele>
        <time>2020-01-03T16:15:57Z</time>
      </trkpt>
      <trkpt lat="39.6802430" lon="2.5017190">
        <ele>335.4</ele>
        <time>2020-01-03T16:16:04Z</time>
      </trkpt>
      <trkpt lat="39.6803240" lon="2.5017870">
        <ele>336.6</ele>
        <time>2020-01-03T16:16:12Z</time>
      </trkpt>
      <trkpt lat="39.6806800" lon="2.5018480">
        <ele>337.6</ele>
        <time>2020-01-03T16:16:38Z</time>
      </trkpt>
      <trkpt lat="39.6807230" lon="2.5018680">
        <ele>338.0</ele>
        <time>2020-01-03T16:16:42Z</time>
      </trkpt>
      <trkpt lat="39.6807290" lon="2.5019740">
        <ele>338.6</ele>
        <time>2020-01-03T16:16:49Z</time>
      </trkpt>
      <trkpt lat="39.6806980" lon="2.5020770">
        <ele>339.6</ele>
        <time>2020-01-03T16:16:56Z</time>
      </trkpt>
      <trkpt lat="39.6806470" lon="2.5022300">
        <ele>340.6</ele>
        <time>2020-01-03T16:17:06Z</time>
      </trkpt>
      <trkpt lat="39.6805670" lon="2.5023370">
        <ele>341.8</ele>
        <time>2020-01-03T16:17:15Z</time>
      </trkpt>
      <trkpt lat="39.6805470" lon="2.5023500">
        <ele>342.0</ele>
        <time>2020-01-03T16:17:17Z</time>
      </trkpt>
      <trkpt lat="39.6804450" lon="2.5023950">
        <ele>343.0</ele>
        <time>2020-01-03T16:17:26Z</time>
      </trkpt>
      <trkpt lat="39.6804250" lon="2.5024050">
        <ele>343.2</ele>
        <time>2020-01-03T16:17:29Z</time>
      </trkpt>
      <trkpt lat="39.6804010" lon="2.5024470">
        <ele>343.8</ele>
        <time>2020-01-03T16:17:33Z</time>
      </trkpt>
      <trkpt lat="39.6803890" lon="2.5024800">
        <ele>343.8</ele>
        <time>2020-01-03T16:17:35Z</time>
      </trkpt>
      <trkpt lat="39.6803830" lon="2.5024950">
        <ele>344.0</ele>
        <time>2020-01-03T16:17:36Z</time>
      </trkpt>
      <trkpt lat="39.6803410" lon="2.5026300">
        <ele>345.0</ele>
        <time>2020-01-03T16:17:45Z</time>
      </trkpt>
      <trkpt lat="39.6802870" lon="2.5028010">
        <ele>346.0</ele>
        <time>2020-01-03T16:17:55Z</time>
      </trkpt>
      <trkpt lat="39.6802390" lon="2.5029630">
        <ele>347.2</ele>
        <time>2020-01-03T16:18:04Z</time>
      </trkpt>
      <trkpt lat="39.6801650" lon="2.5031070">
        <ele>348.2</ele>
        <time>2020-01-03T16:18:13Z</time>
      </trkpt>
      <trkpt lat="39.6800750" lon="2.5032160">
        <ele>349.2</ele>
        <time>2020-01-03T16:18:23Z</time>
      </trkpt>
      <trkpt lat="39.6799960" lon="2.5032740">
        <ele>349.8</ele>
        <time>2020-01-03T16:18:30Z</time>
      </trkpt>
      <trkpt lat="39.6799320" lon="2.5033180">
        <ele>350.2</ele>
        <time>2020-01-03T16:18:36Z</time>
      </trkpt>
      <trkpt lat="39.6797890" lon="2.5033800">
        <ele>351.2</ele>
        <time>2020-01-03T16:18:49Z</time>
      </trkpt>
      <trkpt lat="39.6796360" lon="2.5036340">
        <ele>352.2</ele>
        <time>2020-01-03T16:19:04Z</time>
      </trkpt>
      <trkpt lat="39.6795660" lon="2.5038480">
        <ele>353.4</ele>
        <time>2020-01-03T16:19:18Z</time>
      </trkpt>
      <trkpt lat="39.6795610" lon="2.5038790">
        <ele>353.6</ele>
        <time>2020-01-03T16:19:20Z</time>
      </trkpt>
      <trkpt lat="39.6795690" lon="2.5040850">
        <ele>354.4</ele>
        <time>2020-01-03T16:19:32Z</time>
      </trkpt>
      <trkpt lat="39.6796210" lon="2.5042710">
        <ele>355.4</ele>
        <time>2020-01-03T16:19:43Z</time>
      </trkpt>
      <trkpt lat="39.6796060" lon="2.5044980">
        <ele>356.6</ele>
        <time>2020-01-03T16:19:57Z</time>
      </trkpt>
      <trkpt lat="39.6795980" lon="2.5048150">
        <ele>357.6</ele>
        <time>2020-01-03T16:20:13Z</time>
      </trkpt>
      <trkpt lat="39.6796000" lon="2.5050350">
        <ele>358.6</ele>
        <time>2020-01-03T16:20:25Z</time>
      </trkpt>
      <trkpt lat="39.6797030" lon="2.5052170">
        <ele>359.6</ele>
        <time>2020-01-03T16:20:37Z</time>
      </trkpt>
      <trkpt lat="39.6797760" lon="2.5053760">
        <ele>360.6</ele>
        <time>2020-01-03T16:20:47Z</time>
      </trkpt>
      <trkpt lat="39.6798320" lon="2.5056130">
        <ele>361.8</ele>
        <time>2020-01-03T16:21:01Z</time>
      </trkpt>
      <trkpt lat="39.6798600" lon="2.5057100">
        <ele>362.6</ele>
        <time>2020-01-03T16:21:07Z</time>
      </trkpt>
      <trkpt lat="39.6798750" lon="2.5058390">
        <ele>362.8</ele>
        <time>2020-01-03T16:21:14Z</time>
      </trkpt>
      <trkpt lat="39.6798750" lon="2.5060100">
        <ele>364.2</ele>
        <time>2020-01-03T16:21:24Z</time>
      </trkpt>
      <trkpt lat="39.6798530" lon="2.5062610">
        <ele>365.4</ele>
        <time>2020-01-03T16:21:40Z</time>
      </trkpt>
      <trkpt lat="39.6798510" lon="2.5062700">
        <ele>365.2</ele>
        <time>2020-01-03T16:21:41Z</time>
      </trkpt>
      <trkpt lat="39.6798490" lon="2.5062830">
        <ele>365.2</ele>
        <time>2020-01-03T16:21:42Z</time>
      </trkpt>
      <trkpt lat="39.6798430" lon="2.5063030">
        <ele>365.2</ele>
        <time>2020-01-03T16:21:44Z</time>
      </trkpt>
      <trkpt lat="39.6798490" lon="2.5063890">
        <ele>365.4</ele>
        <time>2020-01-03T16:22:01Z</time>
      </trkpt>
      <trkpt lat="39.6798340" lon="2.5065840">
        <ele>366.2</ele>
        <time>2020-01-03T16:22:15Z</time>
      </trkpt>
      <trkpt lat="39.6797890" lon="2.5067900">
        <ele>367.4</ele>
        <time>2020-01-03T16:22:27Z</time>
      </trkpt>
      <trkpt lat="39.6796970" lon="2.5069760">
        <ele>368.6</ele>
        <time>2020-01-03T16:22:40Z</time>
      </trkpt>
      <trkpt lat="39.6795960" lon="2.5071470">
        <ele>369.6</ele>
        <time>2020-01-03T16:22:54Z</time>
      </trkpt>
      <trkpt lat="39.6795560" lon="2.5072740">
        <ele>371.0</ele>
        <time>2020-01-03T16:23:04Z</time>
      </trkpt>
      <trkpt lat="39.6797340" lon="2.5074460">
        <ele>372.0</ele>
        <time>2020-01-03T16:23:24Z</time>
      </trkpt>
      <trkpt lat="39.6798540" lon="2.5075180">
        <ele>373.0</ele>
        <time>2020-01-03T16:23:34Z</time>
      </trkpt>
      <trkpt lat="39.6800420" lon="2.5077030">
        <ele>374.2</ele>
        <time>2020-01-03T16:23:51Z</time>
      </trkpt>
      <trkpt lat="39.6801830" lon="2.5077590">
        <ele>375.4</ele>
        <time>2020-01-03T16:24:02Z</time>
      </trkpt>
      <trkpt lat="39.6804500" lon="2.5077250">
        <ele>376.4</ele>
        <time>2020-01-03T16:24:22Z</time>
      </trkpt>
      <trkpt lat="39.6805570" lon="2.5077100">
        <ele>377.4</ele>
        <time>2020-01-03T16:24:30Z</time>
      </trkpt>
      <trkpt lat="39.6808840" lon="2.5076500">
        <ele>378.8</ele>
        <time>2020-01-03T16:24:53Z</time>
      </trkpt>
      <trkpt lat="39.6812880" lon="2.5075750">
        <ele>379.0</ele>
        <time>2020-01-03T16:25:26Z</time>
      </trkpt>
      <trkpt lat="39.6813260" lon="2.5078610">
        <ele>377.4</ele>
        <time>2020-01-03T16:25:43Z</time>
      </trkpt>
      <trkpt lat="39.6811950" lon="2.5081680">
        <ele>377.4</ele>
        <time>2020-01-03T16:26:06Z</time>
      </trkpt>
      <trkpt lat="39.6811830" lon="2.5081920">
        <ele>377.4</ele>
        <time>2020-01-03T16:26:08Z</time>
      </trkpt>
      <trkpt lat="39.6811670" lon="2.5082180">
        <ele>377.4</ele>
        <time>2020-01-03T16:26:10Z</time>
      </trkpt>
      <trkpt lat="39.6809360" lon="2.5087060">
        <ele>378.4</ele>
        <time>2020-01-03T16:26:40Z</time>
      </trkpt>
      <trkpt lat="39.6806110" lon="2.5091180">
        <ele>378.8</ele>
        <time>2020-01-03T16:27:11Z</time>
      </trkpt>
      <trkpt lat="39.6803620" lon="2.5092260">
        <ele>379.2</ele>
        <time>2020-01-03T16:27:28Z</time>
      </trkpt>
      <trkpt lat="39.6803380" lon="2.5092490">
        <ele>379.4</ele>
        <time>2020-01-03T16:27:30Z</time>
      </trkpt>
      <trkpt lat="39.6801230" lon="2.5093510">
        <ele>379.6</ele>
        <time>2020-01-03T16:27:48Z</time>
      </trkpt>
      <trkpt lat="39.6796780" lon="2.5094790">
        <ele>379.0</ele>
        <time>2020-01-03T16:28:20Z</time>
      </trkpt>
      <trkpt lat="39.6795620" lon="2.5095140">
        <ele>378.6</ele>
        <time>2020-01-03T16:28:30Z</time>
      </trkpt>
      <trkpt lat="39.6791840" lon="2.5098350">
        <ele>378.4</ele>
        <time>2020-01-03T16:29:01Z</time>
      </trkpt>
      <trkpt lat="39.6789920" lon="2.5099470">
        <ele>378.6</ele>
        <time>2020-01-03T16:29:17Z</time>
      </trkpt>
      <trkpt lat="39.6789500" lon="2.5099280">
        <ele>378.8</ele>
        <time>2020-01-03T16:29:20Z</time>
      </trkpt>
      <trkpt lat="39.6787500" lon="2.5098170">
        <ele>379.0</ele>
        <time>2020-01-03T16:29:36Z</time>
      </trkpt>
      <trkpt lat="39.6786530" lon="2.5097800">
        <ele>379.4</ele>
        <time>2020-01-03T16:29:44Z</time>
      </trkpt>
      <trkpt lat="39.6786290" lon="2.5097820">
        <ele>379.6</ele>
        <time>2020-01-03T16:29:46Z</time>
      </trkpt>
      <trkpt lat="39.6786180" lon="2.5097820">
        <ele>379.6</ele>
        <time>2020-01-03T16:29:47Z</time>
      </trkpt>
      <trkpt lat="39.6786050" lon="2.5097890">
        <ele>379.8</ele>
        <time>2020-01-03T16:29:48Z</time>
      </trkpt>
      <trkpt lat="39.6784970" lon="2.5099720">
        <ele>380.6</ele>
        <time>2020-01-03T16:30:02Z</time>
      </trkpt>
      <trkpt lat="39.6784850" lon="2.5102080">
        <ele>381.8</ele>
        <time>2020-01-03T16:30:16Z</time>
      </trkpt>
      <trkpt lat="39.6787430" lon="2.5106900">
        <ele>381.4</ele>
        <time>2020-01-03T16:30:50Z</time>
      </trkpt>
      <trkpt lat="39.6787610" lon="2.5107700">
        <ele>381.4</ele>
        <time>2020-01-03T16:30:56Z</time>
      </trkpt>
      <trkpt lat="39.6787700" lon="2.5108400">
        <ele>381.6</ele>
        <time>2020-01-03T16:31:01Z</time>
      </trkpt>
      <trkpt lat="39.6787870" lon="2.5110610">
        <ele>382.0</ele>
        <time>2020-01-03T16:31:14Z</time>
      </trkpt>
      <trkpt lat="39.6787910" lon="2.5111130">
        <ele>382.0</ele>
        <time>2020-01-03T16:31:17Z</time>
      </trkpt>
      <trkpt lat="39.6786460" lon="2.5116690">
        <ele>382.2</ele>
        <time>2020-01-03T16:31:51Z</time>
      </trkpt>
      <trkpt lat="39.6785130" lon="2.5120880">
        <ele>381.2</ele>
        <time>2020-01-03T16:32:18Z</time>
      </trkpt>
      <trkpt lat="39.6787040" lon="2.5126240">
        <ele>381.2</ele>
        <time>2020-01-03T16:32:51Z</time>
      </trkpt>
      <trkpt lat="39.6790250" lon="2.5130350">
        <ele>381.0</ele>
        <time>2020-01-03T16:33:27Z</time>
      </trkpt>
      <trkpt lat="39.6791200" lon="2.5131420">
        <ele>380.8</ele>
        <time>2020-01-03T16:33:35Z</time>
      </trkpt>
      <trkpt lat="39.6791810" lon="2.5131940">
        <ele>380.6</ele>
        <time>2020-01-03T16:33:40Z</time>
      </trkpt>
      <trkpt lat="39.6793480" lon="2.5134530">
        <ele>381.8</ele>
        <time>2020-01-03T16:34:00Z</time>
      </trkpt>
      <trkpt lat="39.6793490" lon="2.5137150">
        <ele>382.8</ele>
        <time>2020-01-03T16:34:14Z</time>
      </trkpt>
      <trkpt lat="39.6793440" lon="2.5137730">
        <ele>383.2</ele>
        <time>2020-01-03T16:34:18Z</time>
      </trkpt>
      <trkpt lat="39.6793450" lon="2.5138000">
        <ele>383.6</ele>
        <time>2020-01-03T16:34:20Z</time>
      </trkpt>
      <trkpt lat="39.6793410" lon="2.5138350">
        <ele>383.8</ele>
        <time>2020-01-03T16:34:22Z</time>
      </trkpt>
      <trkpt lat="39.6792940" lon="2.5140440">
        <ele>385.0</ele>
        <time>2020-01-03T16:34:36Z</time>
      </trkpt>
      <trkpt lat="39.6792970" lon="2.5140570">
        <ele>385.0</ele>
        <time>2020-01-03T16:34:37Z</time>
      </trkpt>
      <trkpt lat="39.6793000" lon="2.5142230">
        <ele>386.0</ele>
        <time>2020-01-03T16:34:45Z</time>
      </trkpt>
      <trkpt lat="39.6793200" lon="2.5143190">
        <ele>386.8</ele>
        <time>2020-01-03T16:34:51Z</time>
      </trkpt>
      <trkpt lat="39.6793290" lon="2.5143710">
        <ele>387.2</ele>
        <time>2020-01-03T16:34:54Z</time>
      </trkpt>
      <trkpt lat="39.6792700" lon="2.5145350">
        <ele>388.2</ele>
        <time>2020-01-03T16:35:05Z</time>
      </trkpt>
      <trkpt lat="39.6792610" lon="2.5145440">
        <ele>388.2</ele>
        <time>2020-01-03T16:35:06Z</time>
      </trkpt>
      <trkpt lat="39.6791350" lon="2.5146460">
        <ele>389.4</ele>
        <time>2020-01-03T16:35:16Z</time>
      </trkpt>
      <trkpt lat="39.6789930" lon="2.5148090">
        <ele>390.4</ele>
        <time>2020-01-03T16:35:30Z</time>
      </trkpt>
      <trkpt lat="39.6788880" lon="2.5149900">
        <ele>391.4</ele>
        <time>2020-01-03T16:35:42Z</time>
      </trkpt>
      <trkpt lat="39.6788320" lon="2.5151220">
        <ele>392.0</ele>
        <time>2020-01-03T16:35:50Z</time>
      </trkpt>
      <trkpt lat="39.6788660" lon="2.5153530">
        <ele>392.4</ele>
        <time>2020-01-03T16:36:04Z</time>
      </trkpt>
      <trkpt lat="39.6790220" lon="2.5155970">
        <ele>393.4</ele>
        <time>2020-01-03T16:36:23Z</time>
      </trkpt>
      <trkpt lat="39.6792050" lon="2.5159430">
        <ele>394.0</ele>
        <time>2020-01-03T16:36:47Z</time>
      </trkpt>
      <trkpt lat="39.6792220" lon="2.5159600">
        <ele>394.0</ele>
        <time>2020-01-03T16:36:49Z</time>
      </trkpt>
      <trkpt lat="39.6796730" lon="2.5159770">
        <ele>392.6</ele>
        <time>2020-01-03T16:37:21Z</time>
      </trkpt>
      <trkpt lat="39.6797590" lon="2.5159680">
        <ele>392.4</ele>
        <time>2020-01-03T16:37:27Z</time>
      </trkpt>
      <trkpt lat="39.6801530" lon="2.5161370">
        <ele>392.6</ele>
        <time>2020-01-03T16:38:02Z</time>
      </trkpt>
      <trkpt lat="39.6801570" lon="2.5162970">
        <ele>393.6</ele>
        <time>2020-01-03T16:38:14Z</time>
      </trkpt>
      <trkpt lat="39.6801400" lon="2.5163480">
        <ele>393.6</ele>
        <time>2020-01-03T16:38:17Z</time>
      </trkpt>
      <trkpt lat="39.6801000" lon="2.5164520">
        <ele>394.4</ele>
        <time>2020-01-03T16:38:23Z</time>
      </trkpt>
      <trkpt lat="39.6800600" lon="2.5166290">
        <ele>395.6</ele>
        <time>2020-01-03T16:38:34Z</time>
      </trkpt>
      <trkpt lat="39.6800540" lon="2.5167950">
        <ele>396.0</ele>
        <time>2020-01-03T16:38:44Z</time>
      </trkpt>
      <trkpt lat="39.6800690" lon="2.5168260">
        <ele>396.2</ele>
        <time>2020-01-03T16:38:46Z</time>
      </trkpt>
      <trkpt lat="39.6801040" lon="2.5169410">
        <ele>396.6</ele>
        <time>2020-01-03T16:38:53Z</time>
      </trkpt>
      <trkpt lat="39.6801010" lon="2.5170040">
        <ele>397.0</ele>
        <time>2020-01-03T16:38:57Z</time>
      </trkpt>
      <trkpt lat="39.6801250" lon="2.5171230">
        <ele>397.2</ele>
        <time>2020-01-03T16:39:04Z</time>
      </trkpt>
      <trkpt lat="39.6801150" lon="2.5173470">
        <ele>397.6</ele>
        <time>2020-01-03T16:39:16Z</time>
      </trkpt>
      <trkpt lat="39.6800960" lon="2.5174350">
        <ele>397.4</ele>
        <time>2020-01-03T16:39:22Z</time>
      </trkpt>
      <trkpt lat="39.6800960" lon="2.5174600">
        <ele>397.4</ele>
        <time>2020-01-03T16:39:24Z</time>
      </trkpt>
      <trkpt lat="39.6801000" lon="2.5175060">
        <ele>397.2</ele>
        <time>2020-01-03T16:39:27Z</time>
      </trkpt>
      <trkpt lat="39.6800900" lon="2.5175480">
        <ele>397.0</ele>
        <time>2020-01-03T16:39:30Z</time>
      </trkpt>
      <trkpt lat="39.6800500" lon="2.5176040">
        <ele>396.8</ele>
        <time>2020-01-03T16:39:34Z</time>
      </trkpt>
      <trkpt lat="39.6800420" lon="2.5176150">
        <ele>396.6</ele>
        <time>2020-01-03T16:39:35Z</time>
      </trkpt>
      <trkpt lat="39.6800110" lon="2.5176420">
        <ele>396.6</ele>
        <time>2020-01-03T16:39:37Z</time>
      </trkpt>
      <trkpt lat="39.6798000" lon="2.5178710">
        <ele>395.6</ele>
        <time>2020-01-03T16:39:56Z</time>
      </trkpt>
      <trkpt lat="39.6794490" lon="2.5181690">
        <ele>394.6</ele>
        <time>2020-01-03T16:40:25Z</time>
      </trkpt>
      <trkpt lat="39.6791250" lon="2.5184350">
        <ele>393.6</ele>
        <time>2020-01-03T16:40:53Z</time>
      </trkpt>
      <trkpt lat="39.6790810" lon="2.5184900">
        <ele>393.2</ele>
        <time>2020-01-03T16:41:00Z</time>
      </trkpt>
      <trkpt lat="39.6790500" lon="2.5188890">
        <ele>392.6</ele>
        <time>2020-01-03T16:41:22Z</time>
      </trkpt>
      <trkpt lat="39.6789250" lon="2.5194480">
        <ele>392.0</ele>
        <time>2020-01-03T16:41:52Z</time>
      </trkpt>
      <trkpt lat="39.6791500" lon="2.5198890">
        <ele>392.0</ele>
        <time>2020-01-03T16:42:20Z</time>
      </trkpt>
      <trkpt lat="39.6793080" lon="2.5201940">
        <ele>391.6</ele>
        <time>2020-01-03T16:42:38Z</time>
      </trkpt>
      <trkpt lat="39.6795060" lon="2.5204920">
        <ele>390.4</ele>
        <time>2020-01-03T16:42:59Z</time>
      </trkpt>
      <trkpt lat="39.6797410" lon="2.5209650">
        <ele>389.6</ele>
        <time>2020-01-03T16:43:31Z</time>
      </trkpt>
      <trkpt lat="39.6798250" lon="2.5210410">
        <ele>389.4</ele>
        <time>2020-01-03T16:43:37Z</time>
      </trkpt>
      <trkpt lat="39.6799100" lon="2.5214080">
        <ele>388.4</ele>
        <time>2020-01-03T16:43:56Z</time>
      </trkpt>
      <trkpt lat="39.6799130" lon="2.5214410">
        <ele>388.0</ele>
        <time>2020-01-03T16:43:58Z</time>
      </trkpt>
      <trkpt lat="39.6798910" lon="2.5215290">
        <ele>387.2</ele>
        <time>2020-01-03T16:44:04Z</time>
      </trkpt>
      <trkpt lat="39.6798410" lon="2.5216940">
        <ele>386.2</ele>
        <time>2020-01-03T16:44:14Z</time>
      </trkpt>
      <trkpt lat="39.6798190" lon="2.5218940">
        <ele>385.2</ele>
        <time>2020-01-03T16:44:25Z</time>
      </trkpt>
      <trkpt lat="39.6798340" lon="2.5219200">
        <ele>385.2</ele>
        <time>2020-01-03T16:44:27Z</time>
      </trkpt>
      <trkpt lat="39.6798760" lon="2.5220890">
        <ele>384.0</ele>
        <time>2020-01-03T16:44:37Z</time>
      </trkpt>
      <trkpt lat="39.6798900" lon="2.5223690">
        <ele>382.8</ele>
        <time>2020-01-03T16:44:51Z</time>
      </trkpt>
      <trkpt lat="39.6799140" lon="2.5225290">
        <ele>382.2</ele>
        <time>2020-01-03T16:45:00Z</time>
      </trkpt>
      <trkpt lat="39.6799160" lon="2.5226200">
        <ele>381.8</ele>
        <time>2020-01-03T16:45:05Z</time>
      </trkpt>
      <trkpt lat="39.6799010" lon="2.5226600">
        <ele>381.6</ele>
        <time>2020-01-03T16:45:07Z</time>
      </trkpt>
      <trkpt lat="39.6797970" lon="2.5228530">
        <ele>380.8</ele>
        <time>2020-01-03T16:45:17Z</time>
      </trkpt>
      <trkpt lat="39.6797430" lon="2.5230320">
        <ele>379.8</ele>
        <time>2020-01-03T16:45:27Z</time>
      </trkpt>
      <trkpt lat="39.6797510" lon="2.5230660">
        <ele>379.6</ele>
        <time>2020-01-03T16:45:29Z</time>
      </trkpt>
      <trkpt lat="39.6797680" lon="2.5232480">
        <ele>378.6</ele>
        <time>2020-01-03T16:45:39Z</time>
      </trkpt>
      <trkpt lat="39.6797580" lon="2.5234240">
        <ele>377.8</ele>
        <time>2020-01-03T16:45:48Z</time>
      </trkpt>
      <trkpt lat="39.6797640" lon="2.5234610">
        <ele>377.6</ele>
        <time>2020-01-03T16:45:51Z</time>
      </trkpt>
      <trkpt lat="39.6797610" lon="2.5236160">
        <ele>376.6</ele>
        <time>2020-01-03T16:46:01Z</time>
      </trkpt>
      <trkpt lat="39.6797630" lon="2.5238340">
        <ele>375.6</ele>
        <time>2020-01-03T16:46:11Z</time>
      </trkpt>
      <trkpt lat="39.6797660" lon="2.5238510">
        <ele>375.4</ele>
        <time>2020-01-03T16:46:12Z</time>
      </trkpt>
      <trkpt lat="39.6797900" lon="2.5240120">
        <ele>374.2</ele>
        <time>2020-01-03T16:46:22Z</time>
      </trkpt>
      <trkpt lat="39.6797200" lon="2.5241830">
        <ele>373.2</ele>
        <time>2020-01-03T16:46:32Z</time>
      </trkpt>
      <trkpt lat="39.6795510" lon="2.5244350">
        <ele>372.2</ele>
        <time>2020-01-03T16:46:47Z</time>
      </trkpt>
      <trkpt lat="39.6795480" lon="2.5244750">
        <ele>372.0</ele>
        <time>2020-01-03T16:46:50Z</time>
      </trkpt>
      <trkpt lat="39.6795350" lon="2.5245120">
        <ele>371.8</ele>
        <time>2020-01-03T16:46:53Z</time>
      </trkpt>
      <trkpt lat="39.6793750" lon="2.5249200">
        <ele>371.2</ele>
        <time>2020-01-03T16:47:17Z</time>
      </trkpt>
      <trkpt lat="39.6793090" lon="2.5251180">
        <ele>370.8</ele>
        <time>2020-01-03T16:47:27Z</time>
      </trkpt>
      <trkpt lat="39.6793280" lon="2.5251710">
        <ele>370.6</ele>
        <time>2020-01-03T16:47:30Z</time>
      </trkpt>
      <trkpt lat="39.6793740" lon="2.5252500">
        <ele>370.6</ele>
        <time>2020-01-03T16:47:35Z</time>
      </trkpt>
      <trkpt lat="39.6794150" lon="2.5254370">
        <ele>370.2</ele>
        <time>2020-01-03T16:47:44Z</time>
      </trkpt>
      <trkpt lat="39.6793810" lon="2.5257030">
        <ele>369.8</ele>
        <time>2020-01-03T16:48:00Z</time>
      </trkpt>
      <trkpt lat="39.6793080" lon="2.5257940">
        <ele>369.2</ele>
        <time>2020-01-03T16:48:08Z</time>
      </trkpt>
      <trkpt lat="39.6791890" lon="2.5260950">
        <ele>368.2</ele>
        <time>2020-01-03T16:48:28Z</time>
      </trkpt>
      <trkpt lat="39.6791850" lon="2.5261050">
        <ele>368.0</ele>
        <time>2020-01-03T16:48:29Z</time>
      </trkpt>
      <trkpt lat="39.6791800" lon="2.5261910">
        <ele>368.0</ele>
        <time>2020-01-03T16:48:34Z</time>
      </trkpt>
      <trkpt lat="39.6791990" lon="2.5263060">
        <ele>367.8</ele>
        <time>2020-01-03T16:48:40Z</time>
      </trkpt>
      <trkpt lat="39.6794590" lon="2.5265330">
        <ele>369.2</ele>
        <time>2020-01-03T16:49:47Z</time>
      </trkpt>
      <trkpt lat="39.6794600" lon="2.5265240">
        <ele>368.0</ele>
        <time>2020-01-03T16:49:51Z</time>
      </trkpt>
      <trkpt lat="39.6794430" lon="2.5265230">
        <ele>369.2</ele>
        <time>2020-01-03T16:50:13Z</time>
      </trkpt>
      <trkpt lat="39.6794190" lon="2.5265650">
        <ele>370.2</ele>
        <time>2020-01-03T16:51:39Z</time>
      </trkpt>
      <trkpt lat="39.6794000" lon="2.5265400">
        <ele>371.4</ele>
        <time>2020-01-03T16:53:54Z</time>
      </trkpt>
      <trkpt lat="39.6794040" lon="2.5265230">
        <ele>372.4</ele>
        <time>2020-01-03T16:54:44Z</time>
      </trkpt>
      <trkpt lat="39.6794060" lon="2.5265230">
        <ele>371.0</ele>
        <time>2020-01-03T16:54:48Z</time>
      </trkpt>
      <trkpt lat="39.6794230" lon="2.5265670">
        <ele>372.2</ele>
        <time>2020-01-03T16:55:06Z</time>
      </trkpt>
      <trkpt lat="39.6794420" lon="2.5266120">
        <ele>373.2</ele>
        <time>2020-01-03T16:55:11Z</time>
      </trkpt>
      <trkpt lat="39.6794790" lon="2.5266560">
        <ele>374.4</ele>
        <time>2020-01-03T16:55:16Z</time>
      </trkpt>
      <trkpt lat="39.6795330" lon="2.5267070">
        <ele>375.6</ele>
        <time>2020-01-03T16:55:22Z</time>
      </trkpt>
      <trkpt lat="39.6795610" lon="2.5267480">
        <ele>376.8</ele>
        <time>2020-01-03T16:55:27Z</time>
      </trkpt>
      <trkpt lat="39.6795850" lon="2.5268090">
        <ele>377.8</ele>
        <time>2020-01-03T16:55:33Z</time>
      </trkpt>
      <trkpt lat="39.6796110" lon="2.5268440">
        <ele>379.0</ele>
        <time>2020-01-03T16:55:37Z</time>
      </trkpt>
      <trkpt lat="39.6796550" lon="2.5268900">
        <ele>380.0</ele>
        <time>2020-01-03T16:55:42Z</time>
      </trkpt>
      <trkpt lat="39.6796740" lon="2.5269410">
        <ele>381.2</ele>
        <time>2020-01-03T16:55:47Z</time>
      </trkpt>
      <trkpt lat="39.6796960" lon="2.5270100">
        <ele>382.4</ele>
        <time>2020-01-03T16:55:53Z</time>
      </trkpt>
      <trkpt lat="39.6796950" lon="2.5270910">
        <ele>383.6</ele>
        <time>2020-01-03T16:56:00Z</time>
      </trkpt>
      <trkpt lat="39.6796960" lon="2.5271510">
        <ele>384.6</ele>
        <time>2020-01-03T16:56:05Z</time>
      </trkpt>
      <trkpt lat="39.6797040" lon="2.5272290">
        <ele>385.8</ele>
        <time>2020-01-03T16:56:09Z</time>
      </trkpt>
      <trkpt lat="39.6797150" lon="2.5274020">
        <ele>385.6</ele>
        <time>2020-01-03T16:56:22Z</time>
      </trkpt>
      <trkpt lat="39.6797120" lon="2.5274880">
        <ele>387.0</ele>
        <time>2020-01-03T16:56:28Z</time>
      </trkpt>
      <trkpt lat="39.6797070" lon="2.5278450">
        <ele>387.0</ele>
        <time>2020-01-03T16:56:50Z</time>
      </trkpt>
      <trkpt lat="39.6796880" lon="2.5279590">
        <ele>387.4</ele>
        <time>2020-01-03T16:56:57Z</time>
      </trkpt>
      <trkpt lat="39.6796810" lon="2.5279820">
        <ele>387.4</ele>
        <time>2020-01-03T16:56:59Z</time>
      </trkpt>
      <trkpt lat="39.6796560" lon="2.5280380">
        <ele>387.8</ele>
        <time>2020-01-03T16:57:04Z</time>
      </trkpt>
      <trkpt lat="39.6796410" lon="2.5280650">
        <ele>388.4</ele>
        <time>2020-01-03T16:57:06Z</time>
      </trkpt>
      <trkpt lat="39.6796290" lon="2.5281420">
        <ele>388.6</ele>
        <time>2020-01-03T16:57:11Z</time>
      </trkpt>
      <trkpt lat="39.6796290" lon="2.5281840">
        <ele>389.2</ele>
        <time>2020-01-03T16:57:14Z</time>
      </trkpt>
      <trkpt lat="39.6796300" lon="2.5282020">
        <ele>389.4</ele>
        <time>2020-01-03T16:57:15Z</time>
      </trkpt>
      <trkpt lat="39.6796450" lon="2.5282740">
        <ele>390.6</ele>
        <time>2020-01-03T16:57:20Z</time>
      </trkpt>
      <trkpt lat="39.6796970" lon="2.5283120">
        <ele>391.8</ele>
        <time>2020-01-03T16:57:25Z</time>
      </trkpt>
      <trkpt lat="39.6797310" lon="2.5283340">
        <ele>392.8</ele>
        <time>2020-01-03T16:57:29Z</time>
      </trkpt>
      <trkpt lat="39.6797410" lon="2.5283400">
        <ele>393.2</ele>
        <time>2020-01-03T16:57:30Z</time>
      </trkpt>
      <trkpt lat="39.6797590" lon="2.5283750">
        <ele>394.4</ele>
        <time>2020-01-03T16:57:34Z</time>
      </trkpt>
      <trkpt lat="39.6798000" lon="2.5284700">
        <ele>395.6</ele>
        <time>2020-01-03T16:57:41Z</time>
      </trkpt>
      <trkpt lat="39.6798300" lon="2.5285380">
        <ele>396.8</ele>
        <time>2020-01-03T16:57:46Z</time>
      </trkpt>
      <trkpt lat="39.6798660" lon="2.5285960">
        <ele>398.0</ele>
        <time>2020-01-03T16:57:51Z</time>
      </trkpt>
      <trkpt lat="39.6799230" lon="2.5286480">
        <ele>399.2</ele>
        <time>2020-01-03T16:57:57Z</time>
      </trkpt>
      <trkpt lat="39.6799650" lon="2.5286670">
        <ele>400.2</ele>
        <time>2020-01-03T16:58:02Z</time>
      </trkpt>
      <trkpt lat="39.6800250" lon="2.5286310">
        <ele>401.4</ele>
        <time>2020-01-03T16:58:08Z</time>
      </trkpt>
      <trkpt lat="39.6800840" lon="2.5285680">
        <ele>402.6</ele>
        <time>2020-01-03T16:58:15Z</time>
      </trkpt>
      <trkpt lat="39.6801310" lon="2.5285130">
        <ele>403.8</ele>
        <time>2020-01-03T16:58:20Z</time>
      </trkpt>
      <trkpt lat="39.6801660" lon="2.5284950">
        <ele>405.0</ele>
        <time>2020-01-03T16:58:25Z</time>
      </trkpt>
      <trkpt lat="39.6802270" lon="2.5284710">
        <ele>406.2</ele>
        <time>2020-01-03T16:58:30Z</time>
      </trkpt>
      <trkpt lat="39.6802360" lon="2.5284740">
        <ele>406.4</ele>
        <time>2020-01-03T16:58:31Z</time>
      </trkpt>
      <trkpt lat="39.6802470" lon="2.5284810">
        <ele>406.8</ele>
        <time>2020-01-03T16:58:33Z</time>
      </trkpt>
      <trkpt lat="39.6802460" lon="2.5285010">
        <ele>407.4</ele>
        <time>2020-01-03T16:58:36Z</time>
      </trkpt>
      <trkpt lat="39.6802320" lon="2.5285690">
        <ele>408.4</ele>
        <time>2020-01-03T16:58:42Z</time>
      </trkpt>
      <trkpt lat="39.6802280" lon="2.5285820">
        <ele>408.6</ele>
        <time>2020-01-03T16:58:43Z</time>
      </trkpt>
      <trkpt lat="39.6802230" lon="2.5285970">
        <ele>408.8</ele>
        <time>2020-01-03T16:58:44Z</time>
      </trkpt>
      <trkpt lat="39.6802440" lon="2.5286060">
        <ele>409.8</ele>
        <time>2020-01-03T16:58:48Z</time>
      </trkpt>
      <trkpt lat="39.6802610" lon="2.5286250">
        <ele>411.0</ele>
        <time>2020-01-03T16:58:53Z</time>
      </trkpt>
      <trkpt lat="39.6802670" lon="2.5286690">
        <ele>412.0</ele>
        <time>2020-01-03T16:58:57Z</time>
      </trkpt>
      <trkpt lat="39.6802930" lon="2.5287140">
        <ele>413.2</ele>
        <time>2020-01-03T16:59:01Z</time>
      </trkpt>
      <trkpt lat="39.6803400" lon="2.5287940">
        <ele>414.2</ele>
        <time>2020-01-03T16:59:07Z</time>
      </trkpt>
      <trkpt lat="39.6803610" lon="2.5288750">
        <ele>414.4</ele>
        <time>2020-01-03T16:59:12Z</time>
      </trkpt>
      <trkpt lat="39.6803790" lon="2.5288990">
        <ele>414.4</ele>
        <time>2020-01-03T16:59:14Z</time>
      </trkpt>
      <trkpt lat="39.6804010" lon="2.5290140">
        <ele>414.6</ele>
        <time>2020-01-03T16:59:21Z</time>
      </trkpt>
      <trkpt lat="39.6804500" lon="2.5292080">
        <ele>413.0</ele>
        <time>2020-01-03T16:59:34Z</time>
      </trkpt>
      <trkpt lat="39.6804800" lon="2.5292780">
        <ele>412.0</ele>
        <time>2020-01-03T16:59:40Z</time>
      </trkpt>
      <trkpt lat="39.6805010" lon="2.5293370">
        <ele>412.0</ele>
        <time>2020-01-03T16:59:44Z</time>
      </trkpt>
      <trkpt lat="39.6805230" lon="2.5295280">
        <ele>411.0</ele>
        <time>2020-01-03T16:59:57Z</time>
      </trkpt>
      <trkpt lat="39.6805440" lon="2.5296180">
        <ele>410.0</ele>
        <time>2020-01-03T17:00:05Z</time>
      </trkpt>
      <trkpt lat="39.6805210" lon="2.5297830">
        <ele>411.2</ele>
        <time>2020-01-03T17:00:17Z</time>
      </trkpt>
      <trkpt lat="39.6805170" lon="2.5298910">
        <ele>412.2</ele>
        <time>2020-01-03T17:00:25Z</time>
      </trkpt>
      <trkpt lat="39.6805160" lon="2.5300110">
        <ele>413.2</ele>
        <time>2020-01-03T17:00:34Z</time>
      </trkpt>
      <trkpt lat="39.6805300" lon="2.5300890">
        <ele>414.2</ele>
        <time>2020-01-03T17:00:40Z</time>
      </trkpt>
      <trkpt lat="39.6805290" lon="2.5301970">
        <ele>415.4</ele>
        <time>2020-01-03T17:00:47Z</time>
      </trkpt>
      <trkpt lat="39.6805390" lon="2.5302540">
        <ele>416.4</ele>
        <time>2020-01-03T17:00:51Z</time>
      </trkpt>
      <trkpt lat="39.6805380" lon="2.5303240">
        <ele>417.6</ele>
        <time>2020-01-03T17:00:56Z</time>
      </trkpt>
      <trkpt lat="39.6805500" lon="2.5303840">
        <ele>418.8</ele>
        <time>2020-01-03T17:01:01Z</time>
      </trkpt>
      <trkpt lat="39.6805120" lon="2.5304200">
        <ele>420.0</ele>
        <time>2020-01-03T17:01:07Z</time>
      </trkpt>
      <trkpt lat="39.6804760" lon="2.5304300">
        <ele>421.2</ele>
        <time>2020-01-03T17:01:13Z</time>
      </trkpt>
      <trkpt lat="39.6804820" lon="2.5304990">
        <ele>422.2</ele>
        <time>2020-01-03T17:01:19Z</time>
      </trkpt>
      <trkpt lat="39.6805200" lon="2.5305940">
        <ele>423.4</ele>
        <time>2020-01-03T17:01:25Z</time>
      </trkpt>
      <trkpt lat="39.6805200" lon="2.5306660">
        <ele>424.6</ele>
        <time>2020-01-03T17:01:30Z</time>
      </trkpt>
      <trkpt lat="39.6805110" lon="2.5307440">
        <ele>425.6</ele>
        <time>2020-01-03T17:01:36Z</time>
      </trkpt>
      <trkpt lat="39.6805090" lon="2.5308120">
        <ele>426.8</ele>
        <time>2020-01-03T17:01:41Z</time>
      </trkpt>
      <trkpt lat="39.6805090" lon="2.5308710">
        <ele>427.8</ele>
        <time>2020-01-03T17:01:45Z</time>
      </trkpt>
      <trkpt lat="39.6805240" lon="2.5309170">
        <ele>429.0</ele>
        <time>2020-01-03T17:01:49Z</time>
      </trkpt>
      <trkpt lat="39.6805630" lon="2.5309700">
        <ele>430.2</ele>
        <time>2020-01-03T17:01:55Z</time>
      </trkpt>
      <trkpt lat="39.6805790" lon="2.5309810">
        <ele>430.2</ele>
        <time>2020-01-03T17:01:57Z</time>
      </trkpt>
      <trkpt lat="39.6806540" lon="2.5310460">
        <ele>431.2</ele>
        <time>2020-01-03T17:02:14Z</time>
      </trkpt>
      <trkpt lat="39.6806590" lon="2.5311290">
        <ele>432.2</ele>
        <time>2020-01-03T17:02:38Z</time>
      </trkpt>
      <trkpt lat="39.6806350" lon="2.5311600">
        <ele>433.2</ele>
        <time>2020-01-03T17:02:43Z</time>
      </trkpt>
      <trkpt lat="39.6806180" lon="2.5311970">
        <ele>434.0</ele>
        <time>2020-01-03T17:02:47Z</time>
      </trkpt>
      <trkpt lat="39.6806100" lon="2.5312200">
        <ele>434.4</ele>
        <time>2020-01-03T17:02:49Z</time>
      </trkpt>
      <trkpt lat="39.6806070" lon="2.5312550">
        <ele>435.0</ele>
        <time>2020-01-03T17:02:52Z</time>
      </trkpt>
      <trkpt lat="39.6805970" lon="2.5313000">
        <ele>435.6</ele>
        <time>2020-01-03T17:02:56Z</time>
      </trkpt>
      <trkpt lat="39.6805810" lon="2.5313780">
        <ele>436.6</ele>
        <time>2020-01-03T17:03:02Z</time>
      </trkpt>
      <trkpt lat="39.6805950" lon="2.5314590">
        <ele>437.4</ele>
        <time>2020-01-03T17:03:09Z</time>
      </trkpt>
      <trkpt lat="39.6805940" lon="2.5314680">
        <ele>437.8</ele>
        <time>2020-01-03T17:03:10Z</time>
      </trkpt>
      <trkpt lat="39.6805760" lon="2.5315310">
        <ele>439.0</ele>
        <time>2020-01-03T17:03:16Z</time>
      </trkpt>
      <trkpt lat="39.6805460" lon="2.5316510">
        <ele>440.2</ele>
        <time>2020-01-03T17:03:24Z</time>
      </trkpt>
      <trkpt lat="39.6805280" lon="2.5317630">
        <ele>441.2</ele>
        <time>2020-01-03T17:03:32Z</time>
      </trkpt>
      <trkpt lat="39.6805300" lon="2.5318610">
        <ele>442.4</ele>
        <time>2020-01-03T17:03:39Z</time>
      </trkpt>
      <trkpt lat="39.6805420" lon="2.5319630">
        <ele>443.4</ele>
        <time>2020-01-03T17:03:46Z</time>
      </trkpt>
      <trkpt lat="39.6805540" lon="2.5321380">
        <ele>444.6</ele>
        <time>2020-01-03T17:03:57Z</time>
      </trkpt>
      <trkpt lat="39.6804510" lon="2.5326190">
        <ele>444.2</ele>
        <time>2020-01-03T17:04:34Z</time>
      </trkpt>
      <trkpt lat="39.6804360" lon="2.5326500">
        <ele>444.4</ele>
        <time>2020-01-03T17:04:37Z</time>
      </trkpt>
      <trkpt lat="39.6804240" lon="2.5326690">
        <ele>444.6</ele>
        <time>2020-01-03T17:04:39Z</time>
      </trkpt>
      <trkpt lat="39.6803970" lon="2.5327130">
        <ele>444.8</ele>
        <time>2020-01-03T17:04:43Z</time>
      </trkpt>
      <trkpt lat="39.6803670" lon="2.5327680">
        <ele>445.0</ele>
        <time>2020-01-03T17:04:46Z</time>
      </trkpt>
      <trkpt lat="39.6802730" lon="2.5329520">
        <ele>445.6</ele>
        <time>2020-01-03T17:04:59Z</time>
      </trkpt>
      <trkpt lat="39.6801210" lon="2.5331270">
        <ele>446.8</ele>
        <time>2020-01-03T17:05:15Z</time>
      </trkpt>
      <trkpt lat="39.6800420" lon="2.5332530">
        <ele>447.8</ele>
        <time>2020-01-03T17:05:25Z</time>
      </trkpt>
      <trkpt lat="39.6798500" lon="2.5336720">
        <ele>446.8</ele>
        <time>2020-01-03T17:05:53Z</time>
      </trkpt>
      <trkpt lat="39.6797680" lon="2.5342520">
        <ele>447.2</ele>
        <time>2020-01-03T17:06:30Z</time>
      </trkpt>
      <trkpt lat="39.6797060" lon="2.5344980">
        <ele>447.8</ele>
        <time>2020-01-03T17:06:44Z</time>
      </trkpt>
      <trkpt lat="39.6795570" lon="2.5350610">
        <ele>448.0</ele>
        <time>2020-01-03T17:07:20Z</time>
      </trkpt>
      <trkpt lat="39.6795570" lon="2.5353820">
        <ele>448.8</ele>
        <time>2020-01-03T17:07:40Z</time>
      </trkpt>
      <trkpt lat="39.6795720" lon="2.5355620">
        <ele>449.8</ele>
        <time>2020-01-03T17:07:51Z</time>
      </trkpt>
      <trkpt lat="39.6796140" lon="2.5356590">
        <ele>450.8</ele>
        <time>2020-01-03T17:07:58Z</time>
      </trkpt>
      <trkpt lat="39.6796410" lon="2.5357860">
        <ele>451.8</ele>
        <time>2020-01-03T17:08:07Z</time>
      </trkpt>
      <trkpt lat="39.6797020" lon="2.5358630">
        <ele>453.0</ele>
        <time>2020-01-03T17:08:14Z</time>
      </trkpt>
      <trkpt lat="39.6797570" lon="2.5359490">
        <ele>454.0</ele>
        <time>2020-01-03T17:08:22Z</time>
      </trkpt>
      <trkpt lat="39.6797950" lon="2.5360240">
        <ele>455.0</ele>
        <time>2020-01-03T17:08:29Z</time>
      </trkpt>
      <trkpt lat="39.6798430" lon="2.5361180">
        <ele>456.0</ele>
        <time>2020-01-03T17:08:37Z</time>
      </trkpt>
      <trkpt lat="39.6798980" lon="2.5362000">
        <ele>457.2</ele>
        <time>2020-01-03T17:08:45Z</time>
      </trkpt>
      <trkpt lat="39.6799500" lon="2.5362600">
        <ele>458.2</ele>
        <time>2020-01-03T17:08:52Z</time>
      </trkpt>
      <trkpt lat="39.6799910" lon="2.5363250">
        <ele>459.2</ele>
        <time>2020-01-03T17:08:59Z</time>
      </trkpt>
      <trkpt lat="39.6800250" lon="2.5364030">
        <ele>460.4</ele>
        <time>2020-01-03T17:09:06Z</time>
      </trkpt>
      <trkpt lat="39.6800640" lon="2.5364920">
        <ele>461.6</ele>
        <time>2020-01-03T17:09:13Z</time>
      </trkpt>
      <trkpt lat="39.6800890" lon="2.5365570">
        <ele>462.6</ele>
        <time>2020-01-03T17:09:19Z</time>
      </trkpt>
      <trkpt lat="39.6801190" lon="2.5366190">
        <ele>463.6</ele>
        <time>2020-01-03T17:09:24Z</time>
      </trkpt>
      <trkpt lat="39.6801630" lon="2.5367100">
        <ele>464.8</ele>
        <time>2020-01-03T17:09:33Z</time>
      </trkpt>
      <trkpt lat="39.6801740" lon="2.5367280">
        <ele>465.2</ele>
        <time>2020-01-03T17:09:35Z</time>
      </trkpt>
      <trkpt lat="39.6801830" lon="2.5367450">
        <ele>465.4</ele>
        <time>2020-01-03T17:09:37Z</time>
      </trkpt>
      <trkpt lat="39.6801920" lon="2.5367650">
        <ele>465.8</ele>
        <time>2020-01-03T17:09:39Z</time>
      </trkpt>
      <trkpt lat="39.6802000" lon="2.5367880">
        <ele>466.2</ele>
        <time>2020-01-03T17:09:41Z</time>
      </trkpt>
      <trkpt lat="39.6802100" lon="2.5368140">
        <ele>466.6</ele>
        <time>2020-01-03T17:09:43Z</time>
      </trkpt>
      <trkpt lat="39.6802130" lon="2.5368210">
        <ele>467.0</ele>
        <time>2020-01-03T17:09:44Z</time>
      </trkpt>
      <trkpt lat="39.6802350" lon="2.5368670">
        <ele>468.0</ele>
        <time>2020-01-03T17:09:50Z</time>
      </trkpt>
      <trkpt lat="39.6802490" lon="2.5369060">
        <ele>468.4</ele>
        <time>2020-01-03T17:09:53Z</time>
      </trkpt>
      <trkpt lat="39.6802650" lon="2.5369480">
        <ele>469.0</ele>
        <time>2020-01-03T17:09:56Z</time>
      </trkpt>
      <trkpt lat="39.6802830" lon="2.5369720">
        <ele>469.2</ele>
        <time>2020-01-03T17:09:58Z</time>
      </trkpt>
      <trkpt lat="39.6803230" lon="2.5370640">
        <ele>470.2</ele>
        <time>2020-01-03T17:10:05Z</time>
      </trkpt>
      <trkpt lat="39.6803540" lon="2.5371290">
        <ele>471.2</ele>
        <time>2020-01-03T17:10:11Z</time>
      </trkpt>
      <trkpt lat="39.6803780" lon="2.5372470">
        <ele>472.4</ele>
        <time>2020-01-03T17:10:19Z</time>
      </trkpt>
      <trkpt lat="39.6803860" lon="2.5373650">
        <ele>473.6</ele>
        <time>2020-01-03T17:10:27Z</time>
      </trkpt>
      <trkpt lat="39.6804020" lon="2.5374780">
        <ele>474.6</ele>
        <time>2020-01-03T17:10:35Z</time>
      </trkpt>
      <trkpt lat="39.6805220" lon="2.5380300">
        <ele>474.4</ele>
        <time>2020-01-03T17:11:14Z</time>
      </trkpt>
      <trkpt lat="39.6805390" lon="2.5382250">
        <ele>474.6</ele>
        <time>2020-01-03T17:11:26Z</time>
      </trkpt>
      <trkpt lat="39.6806520" lon="2.5387920">
        <ele>475.0</ele>
        <time>2020-01-03T17:12:03Z</time>
      </trkpt>
      <trkpt lat="39.6806960" lon="2.5389560">
        <ele>475.6</ele>
        <time>2020-01-03T17:12:13Z</time>
      </trkpt>
      <trkpt lat="39.6806770" lon="2.5393420">
        <ele>476.6</ele>
        <time>2020-01-03T17:12:39Z</time>
      </trkpt>
      <trkpt lat="39.6805340" lon="2.5398070">
        <ele>475.6</ele>
        <time>2020-01-03T17:13:11Z</time>
      </trkpt>
      <trkpt lat="39.6804190" lon="2.5401950">
        <ele>474.6</ele>
        <time>2020-01-03T17:13:35Z</time>
      </trkpt>
      <trkpt lat="39.6804500" lon="2.5404850">
        <ele>474.8</ele>
        <time>2020-01-03T17:13:51Z</time>
      </trkpt>
      <trkpt lat="39.6804800" lon="2.5405270">
        <ele>474.8</ele>
        <time>2020-01-03T17:13:54Z</time>
      </trkpt>
      <trkpt lat="39.6805000" lon="2.5406000">
        <ele>475.0</ele>
        <time>2020-01-03T17:13:59Z</time>
      </trkpt>
      <trkpt lat="39.6804690" lon="2.5408310">
        <ele>475.0</ele>
        <time>2020-01-03T17:14:14Z</time>
      </trkpt>
      <trkpt lat="39.6802870" lon="2.5411240">
        <ele>473.4</ele>
        <time>2020-01-03T17:14:34Z</time>
      </trkpt>
      <trkpt lat="39.6802590" lon="2.5411740">
        <ele>473.0</ele>
        <time>2020-01-03T17:14:39Z</time>
      </trkpt>
      <trkpt lat="39.6802370" lon="2.5412090">
        <ele>472.4</ele>
        <time>2020-01-03T17:14:43Z</time>
      </trkpt>
      <trkpt lat="39.6801980" lon="2.5413120">
        <ele>471.4</ele>
        <time>2020-01-03T17:15:56Z</time>
      </trkpt>
      <trkpt lat="39.6802210" lon="2.5414750">
        <ele>470.6</ele>
        <time>2020-01-03T17:16:11Z</time>
      </trkpt>
      <trkpt lat="39.6802790" lon="2.5415470">
        <ele>470.4</ele>
        <time>2020-01-03T17:16:17Z</time>
      </trkpt>
      <trkpt lat="39.6803430" lon="2.5417170">
        <ele>469.4</ele>
        <time>2020-01-03T17:16:29Z</time>
      </trkpt>
      <trkpt lat="39.6802990" lon="2.5418620">
        <ele>468.4</ele>
        <time>2020-01-03T17:16:41Z</time>
      </trkpt>
      <trkpt lat="39.6802200" lon="2.5420700">
        <ele>467.2</ele>
        <time>2020-01-03T17:16:55Z</time>
      </trkpt>
      <trkpt lat="39.6801640" lon="2.5421870">
        <ele>466.2</ele>
        <time>2020-01-03T17:17:05Z</time>
      </trkpt>
      <trkpt lat="39.6799720" lon="2.5422590">
        <ele>465.2</ele>
        <time>2020-01-03T17:17:22Z</time>
      </trkpt>
      <trkpt lat="39.6799450" lon="2.5422720">
        <ele>464.8</ele>
        <time>2020-01-03T17:17:25Z</time>
      </trkpt>
      <trkpt lat="39.6798850" lon="2.5422900">
        <ele>466.2</ele>
        <time>2020-01-03T17:17:33Z</time>
      </trkpt>
      <trkpt lat="39.6798720" lon="2.5423350">
        <ele>466.0</ele>
        <time>2020-01-03T17:17:36Z</time>
      </trkpt>
      <trkpt lat="39.6798690" lon="2.5423960">
        <ele>466.0</ele>
        <time>2020-01-03T17:17:41Z</time>
      </trkpt>
      <trkpt lat="39.6798640" lon="2.5424090">
        <ele>465.6</ele>
        <time>2020-01-03T17:17:43Z</time>
      </trkpt>
      <trkpt lat="39.6798170" lon="2.5424690">
        <ele>465.8</ele>
        <time>2020-01-03T17:17:50Z</time>
      </trkpt>
      <trkpt lat="39.6798010" lon="2.5424880">
        <ele>465.8</ele>
        <time>2020-01-03T17:17:52Z</time>
      </trkpt>
      <trkpt lat="39.6797750" lon="2.5425250">
        <ele>465.6</ele>
        <time>2020-01-03T17:17:56Z</time>
      </trkpt>
      <trkpt lat="39.6797770" lon="2.5425600">
        <ele>465.6</ele>
        <time>2020-01-03T17:17:59Z</time>
      </trkpt>
      <trkpt lat="39.6797720" lon="2.5426050">
        <ele>465.6</ele>
        <time>2020-01-03T17:18:02Z</time>
      </trkpt>
      <trkpt lat="39.6797660" lon="2.5427190">
        <ele>465.6</ele>
        <time>2020-01-03T17:18:10Z</time>
      </trkpt>
      <trkpt lat="39.6797610" lon="2.5427620">
        <ele>465.4</ele>
        <time>2020-01-03T17:18:14Z</time>
      </trkpt>
      <trkpt lat="39.6797630" lon="2.5427960">
        <ele>465.4</ele>
        <time>2020-01-03T17:18:17Z</time>
      </trkpt>
      <trkpt lat="39.6797720" lon="2.5428390">
        <ele>465.4</ele>
        <time>2020-01-03T17:18:20Z</time>
      </trkpt>
      <trkpt lat="39.6797630" lon="2.5429020">
        <ele>465.6</ele>
        <time>2020-01-03T17:18:24Z</time>
      </trkpt>
      <trkpt lat="39.6798340" lon="2.5431960">
        <ele>465.2</ele>
        <time>2020-01-03T17:18:43Z</time>
      </trkpt>
      <trkpt lat="39.6798640" lon="2.5435690">
        <ele>464.0</ele>
        <time>2020-01-03T17:19:07Z</time>
      </trkpt>
      <trkpt lat="39.6799950" lon="2.5441400">
        <ele>464.8</ele>
        <time>2020-01-03T17:19:44Z</time>
      </trkpt>
      <trkpt lat="39.6800290" lon="2.5442040">
        <ele>465.0</ele>
        <time>2020-01-03T17:19:49Z</time>
      </trkpt>
      <trkpt lat="39.6801180" lon="2.5444820">
        <ele>465.8</ele>
        <time>2020-01-03T17:20:06Z</time>
      </trkpt>
      <trkpt lat="39.6801450" lon="2.5446980">
        <ele>465.2</ele>
        <time>2020-01-03T17:20:18Z</time>
      </trkpt>
      <trkpt lat="39.6801650" lon="2.5452400">
        <ele>464.6</ele>
        <time>2020-01-03T17:20:50Z</time>
      </trkpt>
      <trkpt lat="39.6801350" lon="2.5453500">
        <ele>464.2</ele>
        <time>2020-01-03T17:20:58Z</time>
      </trkpt>
      <trkpt lat="39.6801300" lon="2.5453630">
        <ele>464.0</ele>
        <time>2020-01-03T17:20:59Z</time>
      </trkpt>
      <trkpt lat="39.6799310" lon="2.5457280">
        <ele>463.0</ele>
        <time>2020-01-03T17:21:27Z</time>
      </trkpt>
      <trkpt lat="39.6799210" lon="2.5457450">
        <ele>462.8</ele>
        <time>2020-01-03T17:21:28Z</time>
      </trkpt>
      <trkpt lat="39.6799070" lon="2.5457880">
        <ele>462.6</ele>
        <time>2020-01-03T17:21:30Z</time>
      </trkpt>
      <trkpt lat="39.6798450" lon="2.5460250">
        <ele>461.8</ele>
        <time>2020-01-03T17:21:45Z</time>
      </trkpt>
      <trkpt lat="39.6798270" lon="2.5460730">
        <ele>461.6</ele>
        <time>2020-01-03T17:21:48Z</time>
      </trkpt>
      <trkpt lat="39.6798120" lon="2.5461430">
        <ele>461.4</ele>
        <time>2020-01-03T17:21:52Z</time>
      </trkpt>
      <trkpt lat="39.6796670" lon="2.5464980">
        <ele>460.8</ele>
        <time>2020-01-03T17:22:14Z</time>
      </trkpt>
      <trkpt lat="39.6794970" lon="2.5465900">
        <ele>459.8</ele>
        <time>2020-01-03T17:22:30Z</time>
      </trkpt>
      <trkpt lat="39.6794000" lon="2.5465900">
        <ele>458.6</ele>
        <time>2020-01-03T17:22:39Z</time>
      </trkpt>
      <trkpt lat="39.6793300" lon="2.5466080">
        <ele>457.4</ele>
        <time>2020-01-03T17:22:45Z</time>
      </trkpt>
      <trkpt lat="39.6792510" lon="2.5466220">
        <ele>456.2</ele>
        <time>2020-01-03T17:22:52Z</time>
      </trkpt>
      <trkpt lat="39.6791910" lon="2.5466440">
        <ele>455.2</ele>
        <time>2020-01-03T17:22:59Z</time>
      </trkpt>
      <trkpt lat="39.6791640" lon="2.5466510">
        <ele>455.0</ele>
        <time>2020-01-03T17:23:01Z</time>
      </trkpt>
      <trkpt lat="39.6791360" lon="2.5466650">
        <ele>454.8</ele>
        <time>2020-01-03T17:23:03Z</time>
      </trkpt>
      <trkpt lat="39.6790790" lon="2.5467010">
        <ele>454.2</ele>
        <time>2020-01-03T17:23:09Z</time>
      </trkpt>
      <trkpt lat="39.6789590" lon="2.5468010">
        <ele>453.2</ele>
        <time>2020-01-03T17:23:20Z</time>
      </trkpt>
      <trkpt lat="39.6787930" lon="2.5468580">
        <ele>452.2</ele>
        <time>2020-01-03T17:23:34Z</time>
      </trkpt>
      <trkpt lat="39.6785880" lon="2.5469210">
        <ele>451.2</ele>
        <time>2020-01-03T17:23:50Z</time>
      </trkpt>
      <trkpt lat="39.6783610" lon="2.5470380">
        <ele>450.0</ele>
        <time>2020-01-03T17:24:08Z</time>
      </trkpt>
      <trkpt lat="39.6782260" lon="2.5470900">
        <ele>448.8</ele>
        <time>2020-01-03T17:24:21Z</time>
      </trkpt>
      <trkpt lat="39.6781310" lon="2.5471350">
        <ele>447.8</ele>
        <time>2020-01-03T17:24:29Z</time>
      </trkpt>
      <trkpt lat="39.6780430" lon="2.5471710">
        <ele>446.8</ele>
        <time>2020-01-03T17:24:37Z</time>
      </trkpt>
      <trkpt lat="39.6779870" lon="2.5471840">
        <ele>446.4</ele>
        <time>2020-01-03T17:24:44Z</time>
      </trkpt>
      <trkpt lat="39.6779300" lon="2.5472490">
        <ele>446.6</ele>
        <time>2020-01-03T17:24:50Z</time>
      </trkpt>
      <trkpt lat="39.6777540" lon="2.5476690">
        <ele>447.8</ele>
        <time>2020-01-03T17:25:19Z</time>
      </trkpt>
      <trkpt lat="39.6776610" lon="2.5478920">
        <ele>448.8</ele>
        <time>2020-01-03T17:25:34Z</time>
      </trkpt>
      <trkpt lat="39.6775900" lon="2.5480080">
        <ele>449.8</ele>
        <time>2020-01-03T17:25:43Z</time>
      </trkpt>
      <trkpt lat="39.6775150" lon="2.5481250">
        <ele>451.0</ele>
        <time>2020-01-03T17:25:51Z</time>
      </trkpt>
      <trkpt lat="39.6774680" lon="2.5482110">
        <ele>452.0</ele>
        <time>2020-01-03T17:25:58Z</time>
      </trkpt>
      <trkpt lat="39.6774110" lon="2.5483080">
        <ele>453.0</ele>
        <time>2020-01-03T17:26:07Z</time>
      </trkpt>
      <trkpt lat="39.6773510" lon="2.5484240">
        <ele>454.0</ele>
        <time>2020-01-03T17:26:16Z</time>
      </trkpt>
      <trkpt lat="39.6772610" lon="2.5485560">
        <ele>455.0</ele>
        <time>2020-01-03T17:26:27Z</time>
      </trkpt>
      <trkpt lat="39.6772610" lon="2.5487250">
        <ele>456.0</ele>
        <time>2020-01-03T17:26:38Z</time>
      </trkpt>
      <trkpt lat="39.6773080" lon="2.5488570">
        <ele>457.0</ele>
        <time>2020-01-03T17:26:47Z</time>
      </trkpt>
      <trkpt lat="39.6773540" lon="2.5489440">
        <ele>458.2</ele>
        <time>2020-01-03T17:26:54Z</time>
      </trkpt>
      <trkpt lat="39.6774010" lon="2.5491230">
        <ele>459.2</ele>
        <time>2020-01-03T17:27:06Z</time>
      </trkpt>
      <trkpt lat="39.6773940" lon="2.5492660">
        <ele>459.6</ele>
        <time>2020-01-03T17:27:14Z</time>
      </trkpt>
      <trkpt lat="39.6774010" lon="2.5493380">
        <ele>460.2</ele>
        <time>2020-01-03T17:27:19Z</time>
      </trkpt>
      <trkpt lat="39.6774060" lon="2.5493640">
        <ele>460.4</ele>
        <time>2020-01-03T17:27:21Z</time>
      </trkpt>
      <trkpt lat="39.6773920" lon="2.5494280">
        <ele>460.6</ele>
        <time>2020-01-03T17:27:26Z</time>
      </trkpt>
      <trkpt lat="39.6773470" lon="2.5494950">
        <ele>461.2</ele>
        <time>2020-01-03T17:27:31Z</time>
      </trkpt>
      <trkpt lat="39.6772340" lon="2.5496280">
        <ele>460.2</ele>
        <time>2020-01-03T17:27:43Z</time>
      </trkpt>
      <trkpt lat="39.6771670" lon="2.5496660">
        <ele>459.0</ele>
        <time>2020-01-03T17:27:51Z</time>
      </trkpt>
      <trkpt lat="39.6770730" lon="2.5497450">
        <ele>458.0</ele>
        <time>2020-01-03T17:28:01Z</time>
      </trkpt>
      <trkpt lat="39.6770120" lon="2.5498370">
        <ele>457.0</ele>
        <time>2020-01-03T17:28:09Z</time>
      </trkpt>
      <trkpt lat="39.6769330" lon="2.5499340">
        <ele>455.8</ele>
        <time>2020-01-03T17:28:19Z</time>
      </trkpt>
      <trkpt lat="39.6769380" lon="2.5499470">
        <ele>455.6</ele>
        <time>2020-01-03T17:28:21Z</time>
      </trkpt>
      <trkpt lat="39.6769700" lon="2.5499420">
        <ele>454.8</ele>
        <time>2020-01-03T17:28:26Z</time>
      </trkpt>
      <trkpt lat="39.6769990" lon="2.5499660">
        <ele>453.8</ele>
        <time>2020-01-03T17:28:31Z</time>
      </trkpt>
      <trkpt lat="39.6769750" lon="2.5499960">
        <ele>453.2</ele>
        <time>2020-01-03T17:28:35Z</time>
      </trkpt>
      <trkpt lat="39.6769510" lon="2.5500150">
        <ele>452.8</ele>
        <time>2020-01-03T17:28:37Z</time>
      </trkpt>
      <trkpt lat="39.6769060" lon="2.5501340">
        <ele>451.8</ele>
        <time>2020-01-03T17:28:46Z</time>
      </trkpt>
      <trkpt lat="39.6769110" lon="2.5501790">
        <ele>450.6</ele>
        <time>2020-01-03T17:28:50Z</time>
      </trkpt>
      <trkpt lat="39.6769320" lon="2.5501970">
        <ele>449.6</ele>
        <time>2020-01-03T17:28:55Z</time>
      </trkpt>
      <trkpt lat="39.6769500" lon="2.5502470">
        <ele>448.4</ele>
        <time>2020-01-03T17:29:03Z</time>
      </trkpt>
      <trkpt lat="39.6769310" lon="2.5502780">
        <ele>448.2</ele>
        <time>2020-01-03T17:29:05Z</time>
      </trkpt>
      <trkpt lat="39.6768760" lon="2.5504090">
        <ele>447.4</ele>
        <time>2020-01-03T17:29:15Z</time>
      </trkpt>
      <trkpt lat="39.6768380" lon="2.5505050">
        <ele>446.4</ele>
        <time>2020-01-03T17:29:22Z</time>
      </trkpt>
      <trkpt lat="39.6768290" lon="2.5505250">
        <ele>446.2</ele>
        <time>2020-01-03T17:29:24Z</time>
      </trkpt>
      <trkpt lat="39.6767710" lon="2.5506630">
        <ele>445.2</ele>
        <time>2020-01-03T17:29:34Z</time>
      </trkpt>
      <trkpt lat="39.6767190" lon="2.5507850">
        <ele>444.2</ele>
        <time>2020-01-03T17:29:42Z</time>
      </trkpt>
      <trkpt lat="39.6766830" lon="2.5509350">
        <ele>443.2</ele>
        <time>2020-01-03T17:29:50Z</time>
      </trkpt>
      <trkpt lat="39.6767020" lon="2.5509670">
        <ele>442.4</ele>
        <time>2020-01-03T17:29:54Z</time>
      </trkpt>
      <trkpt lat="39.6767190" lon="2.5509580">
        <ele>442.0</ele>
        <time>2020-01-03T17:29:56Z</time>
      </trkpt>
      <trkpt lat="39.6767480" lon="2.5509250">
        <ele>441.8</ele>
        <time>2020-01-03T17:30:00Z</time>
      </trkpt>
      <trkpt lat="39.6768010" lon="2.5508330">
        <ele>441.0</ele>
        <time>2020-01-03T17:30:08Z</time>
      </trkpt>
      <trkpt lat="39.6768470" lon="2.5507080">
        <ele>440.0</ele>
        <time>2020-01-03T17:30:18Z</time>
      </trkpt>
      <trkpt lat="39.6768570" lon="2.5507090">
        <ele>439.8</ele>
        <time>2020-01-03T17:30:19Z</time>
      </trkpt>
      <trkpt lat="39.6768790" lon="2.5507980">
        <ele>438.8</ele>
        <time>2020-01-03T17:30:27Z</time>
      </trkpt>
      <trkpt lat="39.6768640" lon="2.5508490">
        <ele>437.8</ele>
        <time>2020-01-03T17:30:33Z</time>
      </trkpt>
      <trkpt lat="39.6768740" lon="2.5508680">
        <ele>437.6</ele>
        <time>2020-01-03T17:30:35Z</time>
      </trkpt>
      <trkpt lat="39.6769010" lon="2.5508690">
        <ele>436.8</ele>
        <time>2020-01-03T17:30:39Z</time>
      </trkpt>
      <trkpt lat="39.6769400" lon="2.5508440">
        <ele>436.4</ele>
        <time>2020-01-03T17:30:44Z</time>
      </trkpt>
      <trkpt lat="39.6769540" lon="2.5508310">
        <ele>436.0</ele>
        <time>2020-01-03T17:30:46Z</time>
      </trkpt>
      <trkpt lat="39.6769650" lon="2.5508310">
        <ele>435.8</ele>
        <time>2020-01-03T17:30:48Z</time>
      </trkpt>
      <trkpt lat="39.6769810" lon="2.5508640">
        <ele>434.6</ele>
        <time>2020-01-03T17:30:55Z</time>
      </trkpt>
      <trkpt lat="39.6769980" lon="2.5508970">
        <ele>434.0</ele>
        <time>2020-01-03T17:30:57Z</time>
      </trkpt>
      <trkpt lat="39.6770080" lon="2.5509240">
        <ele>433.6</ele>
        <time>2020-01-03T17:30:59Z</time>
      </trkpt>
      <trkpt lat="39.6770280" lon="2.5509910">
        <ele>432.6</ele>
        <time>2020-01-03T17:31:04Z</time>
      </trkpt>
      <trkpt lat="39.6770410" lon="2.5510700">
        <ele>431.4</ele>
        <time>2020-01-03T17:31:11Z</time>
      </trkpt>
      <trkpt lat="39.6770370" lon="2.5511590">
        <ele>430.4</ele>
        <time>2020-01-03T17:31:17Z</time>
      </trkpt>
      <trkpt lat="39.6770090" lon="2.5513290">
        <ele>429.4</ele>
        <time>2020-01-03T17:31:29Z</time>
      </trkpt>
      <trkpt lat="39.6770030" lon="2.5514490">
        <ele>428.2</ele>
        <time>2020-01-03T17:31:37Z</time>
      </trkpt>
      <trkpt lat="39.6769840" lon="2.5515560">
        <ele>427.0</ele>
        <time>2020-01-03T17:31:44Z</time>
      </trkpt>
      <trkpt lat="39.6769600" lon="2.5516760">
        <ele>426.0</ele>
        <time>2020-01-03T17:31:52Z</time>
      </trkpt>
      <trkpt lat="39.6769340" lon="2.5517930">
        <ele>425.0</ele>
        <time>2020-01-03T17:32:01Z</time>
      </trkpt>
      <trkpt lat="39.6768750" lon="2.5519290">
        <ele>424.0</ele>
        <time>2020-01-03T17:32:11Z</time>
      </trkpt>
      <trkpt lat="39.6768740" lon="2.5519410">
        <ele>423.8</ele>
        <time>2020-01-03T17:32:12Z</time>
      </trkpt>
      <trkpt lat="39.6768610" lon="2.5519710">
        <ele>423.4</ele>
        <time>2020-01-03T17:32:14Z</time>
      </trkpt>
      <trkpt lat="39.6767930" lon="2.5520330">
        <ele>423.0</ele>
        <time>2020-01-03T17:32:19Z</time>
      </trkpt>
      <trkpt lat="39.6767440" lon="2.5520730">
        <ele>423.0</ele>
        <time>2020-01-03T17:32:22Z</time>
      </trkpt>
      <trkpt lat="39.6765130" lon="2.5521440">
        <ele>421.8</ele>
        <time>2020-01-03T17:32:40Z</time>
      </trkpt>
      <trkpt lat="39.6764390" lon="2.5520990">
        <ele>420.8</ele>
        <time>2020-01-03T17:32:48Z</time>
      </trkpt>
      <trkpt lat="39.6763900" lon="2.5520550">
        <ele>419.8</ele>
        <time>2020-01-03T17:32:54Z</time>
      </trkpt>
      <trkpt lat="39.6763000" lon="2.5520120">
        <ele>418.6</ele>
        <time>2020-01-03T17:33:03Z</time>
      </trkpt>
      <trkpt lat="39.6761990" lon="2.5520050">
        <ele>417.4</ele>
        <time>2020-01-03T17:33:09Z</time>
      </trkpt>
      <trkpt lat="39.6761730" lon="2.5520230">
        <ele>416.6</ele>
        <time>2020-01-03T17:33:12Z</time>
      </trkpt>
      <trkpt lat="39.6761660" lon="2.5520310">
        <ele>416.4</ele>
        <time>2020-01-03T17:33:13Z</time>
      </trkpt>
      <trkpt lat="39.6761600" lon="2.5520390">
        <ele>416.2</ele>
        <time>2020-01-03T17:33:14Z</time>
      </trkpt>
      <trkpt lat="39.6761350" lon="2.5520690">
        <ele>415.6</ele>
        <time>2020-01-03T17:33:18Z</time>
      </trkpt>
      <trkpt lat="39.6761270" lon="2.5520820">
        <ele>415.4</ele>
        <time>2020-01-03T17:33:19Z</time>
      </trkpt>
      <trkpt lat="39.6761190" lon="2.5520890">
        <ele>415.2</ele>
        <time>2020-01-03T17:33:20Z</time>
      </trkpt>
      <trkpt lat="39.6761120" lon="2.5521050">
        <ele>415.0</ele>
        <time>2020-01-03T17:33:21Z</time>
      </trkpt>
      <trkpt lat="39.6760710" lon="2.5521830">
        <ele>414.2</ele>
        <time>2020-01-03T17:33:27Z</time>
      </trkpt>
      <trkpt lat="39.6757360" lon="2.5525810">
        <ele>414.0</ele>
        <time>2020-01-03T17:34:02Z</time>
      </trkpt>
      <trkpt lat="39.6755650" lon="2.5528380">
        <ele>413.2</ele>
        <time>2020-01-03T17:34:21Z</time>
      </trkpt>
      <trkpt lat="39.6753650" lon="2.5531300">
        <ele>412.2</ele>
        <time>2020-01-03T17:34:43Z</time>
      </trkpt>
      <trkpt lat="39.6752300" lon="2.5531950">
        <ele>411.0</ele>
        <time>2020-01-03T17:34:54Z</time>
      </trkpt>
      <trkpt lat="39.6751150" lon="2.5533110">
        <ele>409.8</ele>
        <time>2020-01-03T17:35:05Z</time>
      </trkpt>
      <trkpt lat="39.6750150" lon="2.5533910">
        <ele>408.6</ele>
        <time>2020-01-03T17:35:16Z</time>
      </trkpt>
      <trkpt lat="39.6749440" lon="2.5534620">
        <ele>407.6</ele>
        <time>2020-01-03T17:35:24Z</time>
      </trkpt>
      <trkpt lat="39.6748770" lon="2.5535550">
        <ele>406.6</ele>
        <time>2020-01-03T17:35:32Z</time>
      </trkpt>
      <trkpt lat="39.6748140" lon="2.5537890">
        <ele>405.4</ele>
        <time>2020-01-03T17:35:45Z</time>
      </trkpt>
      <trkpt lat="39.6747810" lon="2.5540850">
        <ele>404.4</ele>
        <time>2020-01-03T17:36:01Z</time>
      </trkpt>
      <trkpt lat="39.6747090" lon="2.5542970">
        <ele>403.2</ele>
        <time>2020-01-03T17:36:14Z</time>
      </trkpt>
      <trkpt lat="39.6746530" lon="2.5543470">
        <ele>402.2</ele>
        <time>2020-01-03T17:36:19Z</time>
      </trkpt>
      <trkpt lat="39.6746020" lon="2.5543650">
        <ele>401.0</ele>
        <time>2020-01-03T17:36:24Z</time>
      </trkpt>
      <trkpt lat="39.6745250" lon="2.5543620">
        <ele>399.8</ele>
        <time>2020-01-03T17:36:29Z</time>
      </trkpt>
      <trkpt lat="39.6744530" lon="2.5543700">
        <ele>398.6</ele>
        <time>2020-01-03T17:36:35Z</time>
      </trkpt>
      <trkpt lat="39.6743880" lon="2.5543870">
        <ele>397.4</ele>
        <time>2020-01-03T17:36:41Z</time>
      </trkpt>
      <trkpt lat="39.6743210" lon="2.5544730">
        <ele>396.4</ele>
        <time>2020-01-03T17:36:59Z</time>
      </trkpt>
      <trkpt lat="39.6743150" lon="2.5544790">
        <ele>396.0</ele>
        <time>2020-01-03T17:37:00Z</time>
      </trkpt>
      <trkpt lat="39.6742870" lon="2.5544980">
        <ele>395.4</ele>
        <time>2020-01-03T17:37:04Z</time>
      </trkpt>
      <trkpt lat="39.6742490" lon="2.5545070">
        <ele>394.8</ele>
        <time>2020-01-03T17:37:07Z</time>
      </trkpt>
      <trkpt lat="39.6741650" lon="2.5545380">
        <ele>394.2</ele>
        <time>2020-01-03T17:37:14Z</time>
      </trkpt>
      <trkpt lat="39.6741550" lon="2.5545420">
        <ele>394.2</ele>
        <time>2020-01-03T17:37:15Z</time>
      </trkpt>
      <trkpt lat="39.6741380" lon="2.5545600">
        <ele>393.8</ele>
        <time>2020-01-03T17:37:18Z</time>
      </trkpt>
      <trkpt lat="39.6741110" lon="2.5545890">
        <ele>393.4</ele>
        <time>2020-01-03T17:37:21Z</time>
      </trkpt>
      <trkpt lat="39.6740960" lon="2.5545930">
        <ele>393.2</ele>
        <time>2020-01-03T17:37:22Z</time>
      </trkpt>
      <trkpt lat="39.6740290" lon="2.5546090">
        <ele>392.2</ele>
        <time>2020-01-03T17:37:29Z</time>
      </trkpt>
      <trkpt lat="39.6740280" lon="2.5546160">
        <ele>392.2</ele>
        <time>2020-01-03T17:37:30Z</time>
      </trkpt>
      <trkpt lat="39.6740080" lon="2.5546550">
        <ele>392.0</ele>
        <time>2020-01-03T17:37:35Z</time>
      </trkpt>
      <trkpt lat="39.6739600" lon="2.5546810">
        <ele>391.6</ele>
        <time>2020-01-03T17:37:46Z</time>
      </trkpt>
      <trkpt lat="39.6739440" lon="2.5546900">
        <ele>391.2</ele>
        <time>2020-01-03T17:37:48Z</time>
      </trkpt>
      <trkpt lat="39.6739230" lon="2.5547040">
        <ele>390.8</ele>
        <time>2020-01-03T17:37:50Z</time>
      </trkpt>
      <trkpt lat="39.6738790" lon="2.5547420">
        <ele>390.2</ele>
        <time>2020-01-03T17:37:55Z</time>
      </trkpt>
      <trkpt lat="39.6738710" lon="2.5547640">
        <ele>389.8</ele>
        <time>2020-01-03T17:37:57Z</time>
      </trkpt>
      <trkpt lat="39.6738440" lon="2.5547840">
        <ele>389.2</ele>
        <time>2020-01-03T17:38:00Z</time>
      </trkpt>
      <trkpt lat="39.6738350" lon="2.5547840">
        <ele>388.8</ele>
        <time>2020-01-03T17:38:01Z</time>
      </trkpt>
      <trkpt lat="39.6737730" lon="2.5547700">
        <ele>387.8</ele>
        <time>2020-01-03T17:38:07Z</time>
      </trkpt>
      <trkpt lat="39.6737360" lon="2.5547730">
        <ele>386.8</ele>
        <time>2020-01-03T17:38:13Z</time>
      </trkpt>
      <trkpt lat="39.6736890" lon="2.5547790">
        <ele>385.8</ele>
        <time>2020-01-03T17:38:17Z</time>
      </trkpt>
      <trkpt lat="39.6736360" lon="2.5548170">
        <ele>384.4</ele>
        <time>2020-01-03T17:38:22Z</time>
      </trkpt>
      <trkpt lat="39.6735960" lon="2.5548490">
        <ele>383.4</ele>
        <time>2020-01-03T17:38:26Z</time>
      </trkpt>
      <trkpt lat="39.6735930" lon="2.5549180">
        <ele>382.4</ele>
        <time>2020-01-03T17:38:31Z</time>
      </trkpt>
      <trkpt lat="39.6736050" lon="2.5549890">
        <ele>381.2</ele>
        <time>2020-01-03T17:38:36Z</time>
      </trkpt>
      <trkpt lat="39.6736270" lon="2.5550560">
        <ele>380.0</ele>
        <time>2020-01-03T17:38:42Z</time>
      </trkpt>
      <trkpt lat="39.6736410" lon="2.5550970">
        <ele>379.0</ele>
        <time>2020-01-03T17:38:47Z</time>
      </trkpt>
      <trkpt lat="39.6736320" lon="2.5551470">
        <ele>377.8</ele>
        <time>2020-01-03T17:38:52Z</time>
      </trkpt>
      <trkpt lat="39.6736150" lon="2.5552000">
        <ele>376.8</ele>
        <time>2020-01-03T17:38:57Z</time>
      </trkpt>
      <trkpt lat="39.6736140" lon="2.5552130">
        <ele>376.4</ele>
        <time>2020-01-03T17:38:58Z</time>
      </trkpt>
      <trkpt lat="39.6736240" lon="2.5552700">
        <ele>375.4</ele>
        <time>2020-01-03T17:39:02Z</time>
      </trkpt>
      <trkpt lat="39.6736220" lon="2.5552840">
        <ele>375.2</ele>
        <time>2020-01-03T17:39:03Z</time>
      </trkpt>
      <trkpt lat="39.6736070" lon="2.5553270">
        <ele>374.4</ele>
        <time>2020-01-03T17:39:07Z</time>
      </trkpt>
      <trkpt lat="39.6736170" lon="2.5553780">
        <ele>373.2</ele>
        <time>2020-01-03T17:39:11Z</time>
      </trkpt>
      <trkpt lat="39.6736240" lon="2.5554430">
        <ele>372.2</ele>
        <time>2020-01-03T17:39:16Z</time>
      </trkpt>
      <trkpt lat="39.6736360" lon="2.5555300">
        <ele>371.0</ele>
        <time>2020-01-03T17:39:21Z</time>
      </trkpt>
      <trkpt lat="39.6736220" lon="2.5556110">
        <ele>369.8</ele>
        <time>2020-01-03T17:39:26Z</time>
      </trkpt>
      <trkpt lat="39.6736630" lon="2.5556890">
        <ele>368.8</ele>
        <time>2020-01-03T17:39:32Z</time>
      </trkpt>
      <trkpt lat="39.6736690" lon="2.5557370">
        <ele>367.6</ele>
        <time>2020-01-03T17:39:37Z</time>
      </trkpt>
      <trkpt lat="39.6736540" lon="2.5557910">
        <ele>366.4</ele>
        <time>2020-01-03T17:39:42Z</time>
      </trkpt>
      <trkpt lat="39.6736200" lon="2.5558550">
        <ele>365.4</ele>
        <time>2020-01-03T17:39:47Z</time>
      </trkpt>
      <trkpt lat="39.6735700" lon="2.5559010">
        <ele>364.2</ele>
        <time>2020-01-03T17:39:52Z</time>
      </trkpt>
      <trkpt lat="39.6734760" lon="2.5559670">
        <ele>363.0</ele>
        <time>2020-01-03T17:40:00Z</time>
      </trkpt>
      <trkpt lat="39.6733610" lon="2.5560680">
        <ele>362.0</ele>
        <time>2020-01-03T17:40:11Z</time>
      </trkpt>
      <trkpt lat="39.6733590" lon="2.5561490">
        <ele>360.8</ele>
        <time>2020-01-03T17:40:17Z</time>
      </trkpt>
      <trkpt lat="39.6733760" lon="2.5562420">
        <ele>359.8</ele>
        <time>2020-01-03T17:40:23Z</time>
      </trkpt>
      <trkpt lat="39.6733970" lon="2.5563620">
        <ele>358.8</ele>
        <time>2020-01-03T17:40:31Z</time>
      </trkpt>
      <trkpt lat="39.6734340" lon="2.5565660">
        <ele>357.4</ele>
        <time>2020-01-03T17:40:43Z</time>
      </trkpt>
      <trkpt lat="39.6734420" lon="2.5565870">
        <ele>357.2</ele>
        <time>2020-01-03T17:40:45Z</time>
      </trkpt>
      <trkpt lat="39.6734610" lon="2.5566700">
        <ele>356.2</ele>
        <time>2020-01-03T17:40:51Z</time>
      </trkpt>
      <trkpt lat="39.6734790" lon="2.5568130">
        <ele>355.0</ele>
        <time>2020-01-03T17:41:00Z</time>
      </trkpt>
      <trkpt lat="39.6735020" lon="2.5569350">
        <ele>354.0</ele>
        <time>2020-01-03T17:41:08Z</time>
      </trkpt>
      <trkpt lat="39.6734930" lon="2.5569590">
        <ele>353.8</ele>
        <time>2020-01-03T17:41:10Z</time>
      </trkpt>
      <trkpt lat="39.6734830" lon="2.5570410">
        <ele>353.0</ele>
        <time>2020-01-03T17:41:15Z</time>
      </trkpt>
      <trkpt lat="39.6734910" lon="2.5570700">
        <ele>352.6</ele>
        <time>2020-01-03T17:41:17Z</time>
      </trkpt>
      <trkpt lat="39.6735100" lon="2.5571100">
        <ele>352.0</ele>
        <time>2020-01-03T17:41:20Z</time>
      </trkpt>
      <trkpt lat="39.6735170" lon="2.5571350">
        <ele>351.6</ele>
        <time>2020-01-03T17:41:22Z</time>
      </trkpt>
      <trkpt lat="39.6735160" lon="2.5571600">
        <ele>351.4</ele>
        <time>2020-01-03T17:41:24Z</time>
      </trkpt>
      <trkpt lat="39.6735240" lon="2.5572060">
        <ele>351.0</ele>
        <time>2020-01-03T17:41:27Z</time>
      </trkpt>
      <trkpt lat="39.6735620" lon="2.5574080">
        <ele>349.8</ele>
        <time>2020-01-03T17:41:37Z</time>
      </trkpt>
      <trkpt lat="39.6735610" lon="2.5575260">
        <ele>349.0</ele>
        <time>2020-01-03T17:41:44Z</time>
      </trkpt>
      <trkpt lat="39.6735640" lon="2.5575440">
        <ele>348.8</ele>
        <time>2020-01-03T17:41:45Z</time>
      </trkpt>
      <trkpt lat="39.6735630" lon="2.5575600">
        <ele>348.6</ele>
        <time>2020-01-03T17:41:46Z</time>
      </trkpt>
      <trkpt lat="39.6735650" lon="2.5576530">
        <ele>347.8</ele>
        <time>2020-01-03T17:41:52Z</time>
      </trkpt>
      <trkpt lat="39.6735610" lon="2.5577120">
        <ele>347.4</ele>
        <time>2020-01-03T17:41:56Z</time>
      </trkpt>
      <trkpt lat="39.6735550" lon="2.5577860">
        <ele>347.0</ele>
        <time>2020-01-03T17:42:02Z</time>
      </trkpt>
      <trkpt lat="39.6735870" lon="2.5578110">
        <ele>346.6</ele>
        <time>2020-01-03T17:42:05Z</time>
      </trkpt>
      <trkpt lat="39.6736440" lon="2.5578630">
        <ele>345.6</ele>
        <time>2020-01-03T17:42:11Z</time>
      </trkpt>
      <trkpt lat="39.6736570" lon="2.5578850">
        <ele>345.2</ele>
        <time>2020-01-03T17:42:13Z</time>
      </trkpt>
      <trkpt lat="39.6736520" lon="2.5579340">
        <ele>344.6</ele>
        <time>2020-01-03T17:42:16Z</time>
      </trkpt>
      <trkpt lat="39.6736470" lon="2.5579840">
        <ele>343.6</ele>
        <time>2020-01-03T17:42:20Z</time>
      </trkpt>
      <trkpt lat="39.6736410" lon="2.5579950">
        <ele>343.4</ele>
        <time>2020-01-03T17:42:21Z</time>
      </trkpt>
      <trkpt lat="39.6735870" lon="2.5580530">
        <ele>342.2</ele>
        <time>2020-01-03T17:42:27Z</time>
      </trkpt>
      <trkpt lat="39.6734950" lon="2.5580730">
        <ele>341.2</ele>
        <time>2020-01-03T17:42:35Z</time>
      </trkpt>
      <trkpt lat="39.6734310" lon="2.5581300">
        <ele>340.0</ele>
        <time>2020-01-03T17:42:42Z</time>
      </trkpt>
      <trkpt lat="39.6733950" lon="2.5582300">
        <ele>339.0</ele>
        <time>2020-01-03T17:42:49Z</time>
      </trkpt>
      <trkpt lat="39.6733240" lon="2.5582900">
        <ele>337.8</ele>
        <time>2020-01-03T17:42:55Z</time>
      </trkpt>
      <trkpt lat="39.6732980" lon="2.5583870">
        <ele>336.6</ele>
        <time>2020-01-03T17:43:01Z</time>
      </trkpt>
      <trkpt lat="39.6732870" lon="2.5584380">
        <ele>336.2</ele>
        <time>2020-01-03T17:43:04Z</time>
      </trkpt>
      <trkpt lat="39.6732840" lon="2.5584530">
        <ele>336.2</ele>
        <time>2020-01-03T17:43:06Z</time>
      </trkpt>
      <trkpt lat="39.6732730" lon="2.5585030">
        <ele>335.4</ele>
        <time>2020-01-03T17:43:13Z</time>
      </trkpt>
      <trkpt lat="39.6732630" lon="2.5585160">
        <ele>335.2</ele>
        <time>2020-01-03T17:43:14Z</time>
      </trkpt>
      <trkpt lat="39.6732400" lon="2.5585740">
        <ele>334.4</ele>
        <time>2020-01-03T17:43:18Z</time>
      </trkpt>
      <trkpt lat="39.6732140" lon="2.5586380">
        <ele>333.2</ele>
        <time>2020-01-03T17:43:23Z</time>
      </trkpt>
      <trkpt lat="39.6731830" lon="2.5586940">
        <ele>332.0</ele>
        <time>2020-01-03T17:43:28Z</time>
      </trkpt>
      <trkpt lat="39.6731370" lon="2.5587580">
        <ele>330.8</ele>
        <time>2020-01-03T17:43:34Z</time>
      </trkpt>
      <trkpt lat="39.6731150" lon="2.5588080">
        <ele>329.6</ele>
        <time>2020-01-03T17:43:38Z</time>
      </trkpt>
      <trkpt lat="39.6730450" lon="2.5588680">
        <ele>328.6</ele>
        <time>2020-01-03T17:43:45Z</time>
      </trkpt>
      <trkpt lat="39.6729820" lon="2.5589310">
        <ele>327.4</ele>
        <time>2020-01-03T17:43:51Z</time>
      </trkpt>
      <trkpt lat="39.6728820" lon="2.5589930">
        <ele>326.2</ele>
        <time>2020-01-03T17:43:59Z</time>
      </trkpt>
      <trkpt lat="39.6727780" lon="2.5590600">
        <ele>325.2</ele>
        <time>2020-01-03T17:44:08Z</time>
      </trkpt>
      <trkpt lat="39.6726790" lon="2.5592020">
        <ele>324.0</ele>
        <time>2020-01-03T17:44:19Z</time>
      </trkpt>
      <trkpt lat="39.6725720" lon="2.5592900">
        <ele>323.0</ele>
        <time>2020-01-03T17:44:27Z</time>
      </trkpt>
      <trkpt lat="39.6724850" lon="2.5593670">
        <ele>322.0</ele>
        <time>2020-01-03T17:44:35Z</time>
      </trkpt>
      <trkpt lat="39.6724350" lon="2.5594030">
        <ele>321.2</ele>
        <time>2020-01-03T17:44:40Z</time>
      </trkpt>
      <trkpt lat="39.6724200" lon="2.5594190">
        <ele>321.0</ele>
        <time>2020-01-03T17:44:42Z</time>
      </trkpt>
      <trkpt lat="39.6724070" lon="2.5594240">
        <ele>321.0</ele>
        <time>2020-01-03T17:44:43Z</time>
      </trkpt>
      <trkpt lat="39.6723840" lon="2.5594420">
        <ele>320.6</ele>
        <time>2020-01-03T17:44:45Z</time>
      </trkpt>
      <trkpt lat="39.6723230" lon="2.5594540">
        <ele>320.0</ele>
        <time>2020-01-03T17:44:49Z</time>
      </trkpt>
      <trkpt lat="39.6722620" lon="2.5594990">
        <ele>318.8</ele>
        <time>2020-01-03T17:44:54Z</time>
      </trkpt>
      <trkpt lat="39.6722020" lon="2.5595560">
        <ele>317.8</ele>
        <time>2020-01-03T17:44:59Z</time>
      </trkpt>
      <trkpt lat="39.6721800" lon="2.5596310">
        <ele>316.6</ele>
        <time>2020-01-03T17:45:04Z</time>
      </trkpt>
      <trkpt lat="39.6721110" lon="2.5597170">
        <ele>315.6</ele>
        <time>2020-01-03T17:45:11Z</time>
      </trkpt>
      <trkpt lat="39.6720390" lon="2.5598250">
        <ele>314.6</ele>
        <time>2020-01-03T17:45:19Z</time>
      </trkpt>
      <trkpt lat="39.6719500" lon="2.5599520">
        <ele>313.4</ele>
        <time>2020-01-03T17:45:27Z</time>
      </trkpt>
      <trkpt lat="39.6718750" lon="2.5600620">
        <ele>312.2</ele>
        <time>2020-01-03T17:45:35Z</time>
      </trkpt>
      <trkpt lat="39.6718250" lon="2.5601140">
        <ele>311.0</ele>
        <time>2020-01-03T17:45:42Z</time>
      </trkpt>
      <trkpt lat="39.6718010" lon="2.5602350">
        <ele>309.8</ele>
        <time>2020-01-03T17:45:52Z</time>
      </trkpt>
      <trkpt lat="39.6718220" lon="2.5602960">
        <ele>308.6</ele>
        <time>2020-01-03T17:45:57Z</time>
      </trkpt>
      <trkpt lat="39.6718840" lon="2.5603720">
        <ele>307.6</ele>
        <time>2020-01-03T17:46:03Z</time>
      </trkpt>
      <trkpt lat="39.6719330" lon="2.5605840">
        <ele>306.4</ele>
        <time>2020-01-03T17:46:16Z</time>
      </trkpt>
      <trkpt lat="39.6719700" lon="2.5607160">
        <ele>305.4</ele>
        <time>2020-01-03T17:46:27Z</time>
      </trkpt>
      <trkpt lat="39.6720140" lon="2.5606960">
        <ele>304.2</ele>
        <time>2020-01-03T17:46:33Z</time>
      </trkpt>
      <trkpt lat="39.6720700" lon="2.5606940">
        <ele>303.2</ele>
        <time>2020-01-03T17:46:39Z</time>
      </trkpt>
      <trkpt lat="39.6721110" lon="2.5606910">
        <ele>302.6</ele>
        <time>2020-01-03T17:46:42Z</time>
      </trkpt>
      <trkpt lat="39.6721640" lon="2.5606820">
        <ele>302.2</ele>
        <time>2020-01-03T17:46:45Z</time>
      </trkpt>
      <trkpt lat="39.6722790" lon="2.5605880">
        <ele>301.2</ele>
        <time>2020-01-03T17:46:54Z</time>
      </trkpt>
      <trkpt lat="39.6722950" lon="2.5605810">
        <ele>301.0</ele>
        <time>2020-01-03T17:46:56Z</time>
      </trkpt>
      <trkpt lat="39.6723230" lon="2.5605810">
        <ele>300.6</ele>
        <time>2020-01-03T17:46:58Z</time>
      </trkpt>
      <trkpt lat="39.6724630" lon="2.5606320">
        <ele>300.0</ele>
        <time>2020-01-03T17:47:06Z</time>
      </trkpt>
      <trkpt lat="39.6724880" lon="2.5606340">
        <ele>299.2</ele>
        <time>2020-01-03T17:47:09Z</time>
      </trkpt>
      <trkpt lat="39.6725060" lon="2.5606140">
        <ele>298.8</ele>
        <time>2020-01-03T17:47:11Z</time>
      </trkpt>
      <trkpt lat="39.6725590" lon="2.5605810">
        <ele>298.0</ele>
        <time>2020-01-03T17:47:17Z</time>
      </trkpt>
      <trkpt lat="39.6726260" lon="2.5606460">
        <ele>297.8</ele>
        <time>2020-01-03T17:47:24Z</time>
      </trkpt>
      <trkpt lat="39.6726400" lon="2.5606990">
        <ele>297.8</ele>
        <time>2020-01-03T17:47:29Z</time>
      </trkpt>
      <trkpt lat="39.6725700" lon="2.5608430">
        <ele>298.4</ele>
        <time>2020-01-03T17:47:56Z</time>
      </trkpt>
      <trkpt lat="39.6725430" lon="2.5608830">
        <ele>297.8</ele>
        <time>2020-01-03T17:49:52Z</time>
      </trkpt>
      <trkpt lat="39.6725830" lon="2.5612220">
        <ele>296.6</ele>
        <time>2020-01-03T17:50:17Z</time>
      </trkpt>
      <trkpt lat="39.6724650" lon="2.5613570">
        <ele>295.6</ele>
        <time>2020-01-03T17:50:29Z</time>
      </trkpt>
      <trkpt lat="39.6723340" lon="2.5614930">
        <ele>294.4</ele>
        <time>2020-01-03T17:50:42Z</time>
      </trkpt>
      <trkpt lat="39.6722040" lon="2.5615970">
        <ele>293.2</ele>
        <time>2020-01-03T17:50:53Z</time>
      </trkpt>
      <trkpt lat="39.6721410" lon="2.5616490">
        <ele>292.0</ele>
        <time>2020-01-03T17:50:59Z</time>
      </trkpt>
      <trkpt lat="39.6721150" lon="2.5616650">
        <ele>291.4</ele>
        <time>2020-01-03T17:51:01Z</time>
      </trkpt>
      <trkpt lat="39.6720690" lon="2.5616950">
        <ele>290.8</ele>
        <time>2020-01-03T17:51:05Z</time>
      </trkpt>
      <trkpt lat="39.6720060" lon="2.5617250">
        <ele>289.8</ele>
        <time>2020-01-03T17:51:11Z</time>
      </trkpt>
      <trkpt lat="39.6719090" lon="2.5617730">
        <ele>288.8</ele>
        <time>2020-01-03T17:51:19Z</time>
      </trkpt>
      <trkpt lat="39.6717610" lon="2.5618210">
        <ele>287.6</ele>
        <time>2020-01-03T17:51:30Z</time>
      </trkpt>
      <trkpt lat="39.6715570" lon="2.5618350">
        <ele>287.8</ele>
        <time>2020-01-03T17:51:46Z</time>
      </trkpt>
      <trkpt lat="39.6713680" lon="2.5618390">
        <ele>288.8</ele>
        <time>2020-01-03T17:51:59Z</time>
      </trkpt>
      <trkpt lat="39.6712500" lon="2.5618580">
        <ele>287.8</ele>
        <time>2020-01-03T17:52:07Z</time>
      </trkpt>
      <trkpt lat="39.6712080" lon="2.5618710">
        <ele>287.6</ele>
        <time>2020-01-03T17:52:10Z</time>
      </trkpt>
      <trkpt lat="39.6710970" lon="2.5619110">
        <ele>286.6</ele>
        <time>2020-01-03T17:52:18Z</time>
      </trkpt>
      <trkpt lat="39.6709720" lon="2.5619440">
        <ele>285.4</ele>
        <time>2020-01-03T17:52:28Z</time>
      </trkpt>
      <trkpt lat="39.6709240" lon="2.5619540">
        <ele>284.6</ele>
        <time>2020-01-03T17:52:32Z</time>
      </trkpt>
      <trkpt lat="39.6708930" lon="2.5619700">
        <ele>284.4</ele>
        <time>2020-01-03T17:52:35Z</time>
      </trkpt>
      <trkpt lat="39.6708240" lon="2.5620110">
        <ele>283.2</ele>
        <time>2020-01-03T17:52:41Z</time>
      </trkpt>
      <trkpt lat="39.6707680" lon="2.5620500">
        <ele>282.0</ele>
        <time>2020-01-03T17:52:47Z</time>
      </trkpt>
      <trkpt lat="39.6707000" lon="2.5621270">
        <ele>280.6</ele>
        <time>2020-01-03T17:52:56Z</time>
      </trkpt>
      <trkpt lat="39.6706750" lon="2.5621690">
        <ele>279.8</ele>
        <time>2020-01-03T17:52:59Z</time>
      </trkpt>
      <trkpt lat="39.6706580" lon="2.5621990">
        <ele>279.2</ele>
        <time>2020-01-03T17:53:01Z</time>
      </trkpt>
      <trkpt lat="39.6705910" lon="2.5623590">
        <ele>278.2</ele>
        <time>2020-01-03T17:53:11Z</time>
      </trkpt>
      <trkpt lat="39.6705370" lon="2.5624750">
        <ele>277.2</ele>
        <time>2020-01-03T17:53:18Z</time>
      </trkpt>
      <trkpt lat="39.6704550" lon="2.5626540">
        <ele>276.0</ele>
        <time>2020-01-03T17:53:30Z</time>
      </trkpt>
      <trkpt lat="39.6703950" lon="2.5628230">
        <ele>275.0</ele>
        <time>2020-01-03T17:53:39Z</time>
      </trkpt>
      <trkpt lat="39.6703280" lon="2.5630780">
        <ele>274.0</ele>
        <time>2020-01-03T17:53:54Z</time>
      </trkpt>
      <trkpt lat="39.6703310" lon="2.5634250">
        <ele>273.2</ele>
        <time>2020-01-03T17:54:14Z</time>
      </trkpt>
      <trkpt lat="39.6703280" lon="2.5635170">
        <ele>273.0</ele>
        <time>2020-01-03T17:54:21Z</time>
      </trkpt>
      <trkpt lat="39.6703270" lon="2.5635300">
        <ele>273.0</ele>
        <time>2020-01-03T17:54:22Z</time>
      </trkpt>
      <trkpt lat="39.6703290" lon="2.5635610">
        <ele>272.8</ele>
        <time>2020-01-03T17:54:24Z</time>
      </trkpt>
      <trkpt lat="39.6703620" lon="2.5638200">
        <ele>271.8</ele>
        <time>2020-01-03T17:54:39Z</time>
      </trkpt>
      <trkpt lat="39.6703840" lon="2.5639240">
        <ele>270.8</ele>
        <time>2020-01-03T17:54:46Z</time>
      </trkpt>
      <trkpt lat="39.6703860" lon="2.5639350">
        <ele>270.6</ele>
        <time>2020-01-03T17:54:47Z</time>
      </trkpt>
      <trkpt lat="39.6704040" lon="2.5640370">
        <ele>269.6</ele>
        <time>2020-01-03T17:54:53Z</time>
      </trkpt>
      <trkpt lat="39.6704300" lon="2.5641510">
        <ele>268.4</ele>
        <time>2020-01-03T17:55:00Z</time>
      </trkpt>
      <trkpt lat="39.6704350" lon="2.5641750">
        <ele>268.2</ele>
        <time>2020-01-03T17:55:02Z</time>
      </trkpt>
      <trkpt lat="39.6704690" lon="2.5642770">
        <ele>267.4</ele>
        <time>2020-01-03T17:55:08Z</time>
      </trkpt>
      <trkpt lat="39.6704810" lon="2.5643140">
        <ele>267.2</ele>
        <time>2020-01-03T17:55:10Z</time>
      </trkpt>
      <trkpt lat="39.6704860" lon="2.5643710">
        <ele>266.2</ele>
        <time>2020-01-03T17:55:14Z</time>
      </trkpt>
      <trkpt lat="39.6705170" lon="2.5645180">
        <ele>265.2</ele>
        <time>2020-01-03T17:55:23Z</time>
      </trkpt>
      <trkpt lat="39.6705180" lon="2.5645520">
        <ele>265.0</ele>
        <time>2020-01-03T17:55:26Z</time>
      </trkpt>
      <trkpt lat="39.6705090" lon="2.5646030">
        <ele>265.4</ele>
        <time>2020-01-03T17:55:30Z</time>
      </trkpt>
      <trkpt lat="39.6704960" lon="2.5646630">
        <ele>266.4</ele>
        <time>2020-01-03T17:55:35Z</time>
      </trkpt>
      <trkpt lat="39.6705180" lon="2.5647630">
        <ele>267.6</ele>
        <time>2020-01-03T17:55:42Z</time>
      </trkpt>
      <trkpt lat="39.6705150" lon="2.5647860">
        <ele>268.0</ele>
        <time>2020-01-03T17:55:44Z</time>
      </trkpt>
      <trkpt lat="39.6704910" lon="2.5648140">
        <ele>268.8</ele>
        <time>2020-01-03T17:55:48Z</time>
      </trkpt>
      <trkpt lat="39.6704680" lon="2.5648280">
        <ele>268.8</ele>
        <time>2020-01-03T17:55:50Z</time>
      </trkpt>
      <trkpt lat="39.6701890" lon="2.5652960">
        <ele>268.0</ele>
        <time>2020-01-03T17:56:27Z</time>
      </trkpt>
      <trkpt lat="39.6701520" lon="2.5653540">
        <ele>267.6</ele>
        <time>2020-01-03T17:56:31Z</time>
      </trkpt>
      <trkpt lat="39.6699980" lon="2.5658470">
        <ele>266.6</ele>
        <time>2020-01-03T17:57:03Z</time>
      </trkpt>
      <trkpt lat="39.6699890" lon="2.5658460">
        <ele>266.6</ele>
        <time>2020-01-03T17:57:04Z</time>
      </trkpt>
      <trkpt lat="39.6699830" lon="2.5658150">
        <ele>265.6</ele>
        <time>2020-01-03T17:57:08Z</time>
      </trkpt>
      <trkpt lat="39.6699760" lon="2.5657670">
        <ele>264.4</ele>
        <time>2020-01-03T17:57:13Z</time>
      </trkpt>
      <trkpt lat="39.6699510" lon="2.5658260">
        <ele>263.8</ele>
        <time>2020-01-03T17:57:18Z</time>
      </trkpt>
      <trkpt lat="39.6699310" lon="2.5658820">
        <ele>263.2</ele>
        <time>2020-01-03T17:57:22Z</time>
      </trkpt>
      <trkpt lat="39.6698880" lon="2.5660090">
        <ele>262.6</ele>
        <time>2020-01-03T17:57:31Z</time>
      </trkpt>
      <trkpt lat="39.6698850" lon="2.5660210">
        <ele>262.2</ele>
        <time>2020-01-03T17:57:32Z</time>
      </trkpt>
      <trkpt lat="39.6698440" lon="2.5661300">
        <ele>261.2</ele>
        <time>2020-01-03T17:57:39Z</time>
      </trkpt>
      <trkpt lat="39.6698070" lon="2.5662290">
        <ele>260.0</ele>
        <time>2020-01-03T17:57:46Z</time>
      </trkpt>
      <trkpt lat="39.6697690" lon="2.5663150">
        <ele>258.8</ele>
        <time>2020-01-03T17:57:52Z</time>
      </trkpt>
      <trkpt lat="39.6697320" lon="2.5663900">
        <ele>257.6</ele>
        <time>2020-01-03T17:57:58Z</time>
      </trkpt>
      <trkpt lat="39.6697020" lon="2.5664730">
        <ele>256.4</ele>
        <time>2020-01-03T17:58:04Z</time>
      </trkpt>
      <trkpt lat="39.6696910" lon="2.5664950">
        <ele>256.0</ele>
        <time>2020-01-03T17:58:06Z</time>
      </trkpt>
      <trkpt lat="39.6696730" lon="2.5665390">
        <ele>255.4</ele>
        <time>2020-01-03T17:58:09Z</time>
      </trkpt>
      <trkpt lat="39.6696510" lon="2.5665870">
        <ele>254.4</ele>
        <time>2020-01-03T17:58:13Z</time>
      </trkpt>
      <trkpt lat="39.6696110" lon="2.5666620">
        <ele>253.2</ele>
        <time>2020-01-03T17:58:19Z</time>
      </trkpt>
      <trkpt lat="39.6695970" lon="2.5667050">
        <ele>252.0</ele>
        <time>2020-01-03T17:58:22Z</time>
      </trkpt>
      <trkpt lat="39.6695780" lon="2.5667600">
        <ele>250.8</ele>
        <time>2020-01-03T17:58:26Z</time>
      </trkpt>
      <trkpt lat="39.6695490" lon="2.5669170">
        <ele>249.8</ele>
        <time>2020-01-03T17:58:35Z</time>
      </trkpt>
      <trkpt lat="39.6694460" lon="2.5670780">
        <ele>248.8</ele>
        <time>2020-01-03T17:58:47Z</time>
      </trkpt>
      <trkpt lat="39.6693100" lon="2.5671040">
        <ele>247.6</ele>
        <time>2020-01-03T17:58:57Z</time>
      </trkpt>
      <trkpt lat="39.6692100" lon="2.5671850">
        <ele>246.6</ele>
        <time>2020-01-03T17:59:07Z</time>
      </trkpt>
      <trkpt lat="39.6691880" lon="2.5672260">
        <ele>245.6</ele>
        <time>2020-01-03T17:59:10Z</time>
      </trkpt>
      <trkpt lat="39.6691710" lon="2.5672750">
        <ele>244.4</ele>
        <time>2020-01-03T17:59:13Z</time>
      </trkpt>
      <trkpt lat="39.6690090" lon="2.5676010">
        <ele>243.2</ele>
        <time>2020-01-03T17:59:36Z</time>
      </trkpt>
      <trkpt lat="39.6689860" lon="2.5676540">
        <ele>242.2</ele>
        <time>2020-01-03T17:59:40Z</time>
      </trkpt>
      <trkpt lat="39.6689250" lon="2.5678390">
        <ele>243.2</ele>
        <time>2020-01-03T17:59:54Z</time>
      </trkpt>
      <trkpt lat="39.6689090" lon="2.5678640">
        <ele>244.0</ele>
        <time>2020-01-03T17:59:57Z</time>
      </trkpt>
      <trkpt lat="39.6689080" lon="2.5678710">
        <ele>244.2</ele>
        <time>2020-01-03T17:59:58Z</time>
      </trkpt>
      <trkpt lat="39.6689060" lon="2.5678890">
        <ele>244.2</ele>
        <time>2020-01-03T18:00:01Z</time>
      </trkpt>
      <trkpt lat="39.6689130" lon="2.5694410">
        <ele>239.6</ele>
        <time>2020-01-03T18:16:31Z</time>
      </trkpt>
      <trkpt lat="39.6688990" lon="2.5695290">
        <ele>240.6</ele>
        <time>2020-01-03T18:16:39Z</time>
      </trkpt>
      <trkpt lat="39.6688950" lon="2.5695550">
        <ele>240.8</ele>
        <time>2020-01-03T18:16:41Z</time>
      </trkpt>
      <trkpt lat="39.6688850" lon="2.5696950">
        <ele>242.0</ele>
        <time>2020-01-03T18:16:51Z</time>
      </trkpt>
      <trkpt lat="39.6688080" lon="2.5698790">
        <ele>243.0</ele>
        <time>2020-01-03T18:17:07Z</time>
      </trkpt>
      <trkpt lat="39.6686630" lon="2.5704030">
        <ele>244.2</ele>
        <time>2020-01-03T18:17:45Z</time>
      </trkpt>
      <trkpt lat="39.6686220" lon="2.5705610">
        <ele>245.2</ele>
        <time>2020-01-03T18:17:57Z</time>
      </trkpt>
      <trkpt lat="39.6686240" lon="2.5707020">
        <ele>246.2</ele>
        <time>2020-01-03T18:18:06Z</time>
      </trkpt>
      <trkpt lat="39.6686210" lon="2.5707770">
        <ele>247.2</ele>
        <time>2020-01-03T18:18:12Z</time>
      </trkpt>
      <trkpt lat="39.6686140" lon="2.5708910">
        <ele>248.4</ele>
        <time>2020-01-03T18:18:21Z</time>
      </trkpt>
      <trkpt lat="39.6686160" lon="2.5709660">
        <ele>249.2</ele>
        <time>2020-01-03T18:18:27Z</time>
      </trkpt>
      <trkpt lat="39.6686040" lon="2.5710400">
        <ele>250.2</ele>
        <time>2020-01-03T18:18:33Z</time>
      </trkpt>
      <trkpt lat="39.6685940" lon="2.5710570">
        <ele>250.4</ele>
        <time>2020-01-03T18:18:35Z</time>
      </trkpt>
      <trkpt lat="39.6685550" lon="2.5712210">
        <ele>250.4</ele>
        <time>2020-01-03T18:18:57Z</time>
      </trkpt>
      <trkpt lat="39.6685390" lon="2.5712980">
        <ele>250.0</ele>
        <time>2020-01-03T18:19:02Z</time>
      </trkpt>
      <trkpt lat="39.6685420" lon="2.5714080">
        <ele>249.4</ele>
        <time>2020-01-03T18:19:10Z</time>
      </trkpt>
      <trkpt lat="39.6685660" lon="2.5718450">
        <ele>249.2</ele>
        <time>2020-01-03T18:19:39Z</time>
      </trkpt>
      <trkpt lat="39.6684210" lon="2.5721720">
        <ele>248.2</ele>
        <time>2020-01-03T18:20:07Z</time>
      </trkpt>
      <trkpt lat="39.6684910" lon="2.5727280">
        <ele>247.8</ele>
        <time>2020-01-03T18:20:45Z</time>
      </trkpt>
      <trkpt lat="39.6685110" lon="2.5727640">
        <ele>247.4</ele>
        <time>2020-01-03T18:20:48Z</time>
      </trkpt>
      <trkpt lat="39.6686010" lon="2.5733420">
        <ele>246.6</ele>
        <time>2020-01-03T18:21:29Z</time>
      </trkpt>
      <trkpt lat="39.6686040" lon="2.5733860">
        <ele>246.4</ele>
        <time>2020-01-03T18:21:32Z</time>
      </trkpt>
      <trkpt lat="39.6686210" lon="2.5734940">
        <ele>245.0</ele>
        <time>2020-01-03T18:21:39Z</time>
      </trkpt>
      <trkpt lat="39.6686230" lon="2.5735190">
        <ele>244.8</ele>
        <time>2020-01-03T18:21:41Z</time>
      </trkpt>
      <trkpt lat="39.6686110" lon="2.5735860">
        <ele>244.2</ele>
        <time>2020-01-03T18:21:46Z</time>
      </trkpt>
      <trkpt lat="39.6686140" lon="2.5736490">
        <ele>243.0</ele>
        <time>2020-01-03T18:21:52Z</time>
      </trkpt>
      <trkpt lat="39.6685970" lon="2.5736910">
        <ele>241.8</ele>
        <time>2020-01-03T18:21:58Z</time>
      </trkpt>
      <trkpt lat="39.6685740" lon="2.5737130">
        <ele>241.4</ele>
        <time>2020-01-03T18:22:01Z</time>
      </trkpt>
      <trkpt lat="39.6685590" lon="2.5737280">
        <ele>241.0</ele>
        <time>2020-01-03T18:22:03Z</time>
      </trkpt>
      <trkpt lat="39.6685440" lon="2.5737430">
        <ele>240.6</ele>
        <time>2020-01-03T18:22:05Z</time>
      </trkpt>
      <trkpt lat="39.6685220" lon="2.5737720">
        <ele>239.6</ele>
        <time>2020-01-03T18:22:09Z</time>
      </trkpt>
      <trkpt lat="39.6685110" lon="2.5737900">
        <ele>239.8</ele>
        <time>2020-01-03T18:22:11Z</time>
      </trkpt>
      <trkpt lat="39.6684830" lon="2.5738230">
        <ele>238.8</ele>
        <time>2020-01-03T18:22:15Z</time>
      </trkpt>
      <trkpt lat="39.6684500" lon="2.5738550">
        <ele>237.8</ele>
        <time>2020-01-03T18:22:22Z</time>
      </trkpt>
      <trkpt lat="39.6684220" lon="2.5738960">
        <ele>236.4</ele>
        <time>2020-01-03T18:22:28Z</time>
      </trkpt>
      <trkpt lat="39.6683990" lon="2.5739370">
        <ele>235.2</ele>
        <time>2020-01-03T18:22:34Z</time>
      </trkpt>
      <trkpt lat="39.6684050" lon="2.5739710">
        <ele>234.2</ele>
        <time>2020-01-03T18:22:38Z</time>
      </trkpt>
      <trkpt lat="39.6684100" lon="2.5740220">
        <ele>233.0</ele>
        <time>2020-01-03T18:22:44Z</time>
      </trkpt>
      <trkpt lat="39.6684230" lon="2.5740540">
        <ele>232.0</ele>
        <time>2020-01-03T18:22:49Z</time>
      </trkpt>
      <trkpt lat="39.6684550" lon="2.5741030">
        <ele>231.0</ele>
        <time>2020-01-03T18:22:55Z</time>
      </trkpt>
      <trkpt lat="39.6684700" lon="2.5741530">
        <ele>229.8</ele>
        <time>2020-01-03T18:23:46Z</time>
      </trkpt>
      <trkpt lat="39.6685000" lon="2.5741860">
        <ele>228.8</ele>
        <time>2020-01-03T18:23:52Z</time>
      </trkpt>
      <trkpt lat="39.6685210" lon="2.5742230">
        <ele>227.8</ele>
        <time>2020-01-03T18:23:58Z</time>
      </trkpt>
      <trkpt lat="39.6685550" lon="2.5742950">
        <ele>226.6</ele>
        <time>2020-01-03T18:24:15Z</time>
      </trkpt>
      <trkpt lat="39.6685600" lon="2.5743560">
        <ele>225.4</ele>
        <time>2020-01-03T18:24:27Z</time>
      </trkpt>
      <trkpt lat="39.6685690" lon="2.5743800">
        <ele>225.2</ele>
        <time>2020-01-03T18:24:29Z</time>
      </trkpt>
      <trkpt lat="39.6685820" lon="2.5744230">
        <ele>224.8</ele>
        <time>2020-01-03T18:24:33Z</time>
      </trkpt>
      <trkpt lat="39.6685780" lon="2.5744500">
        <ele>224.6</ele>
        <time>2020-01-03T18:24:36Z</time>
      </trkpt>
      <trkpt lat="39.6685690" lon="2.5744910">
        <ele>223.6</ele>
        <time>2020-01-03T18:24:45Z</time>
      </trkpt>
      <trkpt lat="39.6685870" lon="2.5745390">
        <ele>222.6</ele>
        <time>2020-01-03T18:24:51Z</time>
      </trkpt>
      <trkpt lat="39.6686040" lon="2.5745700">
        <ele>221.2</ele>
        <time>2020-01-03T18:24:56Z</time>
      </trkpt>
      <trkpt lat="39.6686190" lon="2.5746030">
        <ele>220.2</ele>
        <time>2020-01-03T18:25:01Z</time>
      </trkpt>
      <trkpt lat="39.6686370" lon="2.5746640">
        <ele>219.2</ele>
        <time>2020-01-03T18:25:07Z</time>
      </trkpt>
      <trkpt lat="39.6686460" lon="2.5747410">
        <ele>218.0</ele>
        <time>2020-01-03T18:25:15Z</time>
      </trkpt>
      <trkpt lat="39.6686660" lon="2.5747760">
        <ele>217.0</ele>
        <time>2020-01-03T18:25:22Z</time>
      </trkpt>
      <trkpt lat="39.6686850" lon="2.5748330">
        <ele>216.2</ele>
        <time>2020-01-03T18:25:34Z</time>
      </trkpt>
      <trkpt lat="39.6687410" lon="2.5749140">
        <ele>215.0</ele>
        <time>2020-01-03T18:25:43Z</time>
      </trkpt>
      <trkpt lat="39.6687790" lon="2.5749890">
        <ele>213.8</ele>
        <time>2020-01-03T18:25:52Z</time>
      </trkpt>
      <trkpt lat="39.6688230" lon="2.5750610">
        <ele>212.8</ele>
        <time>2020-01-03T18:26:03Z</time>
      </trkpt>
      <trkpt lat="39.6688560" lon="2.5751060">
        <ele>212.0</ele>
        <time>2020-01-03T18:26:12Z</time>
      </trkpt>
      <trkpt lat="39.6688690" lon="2.5751580">
        <ele>210.8</ele>
        <time>2020-01-03T18:26:20Z</time>
      </trkpt>
      <trkpt lat="39.6688770" lon="2.5752100">
        <ele>210.0</ele>
        <time>2020-01-03T18:26:26Z</time>
      </trkpt>
      <trkpt lat="39.6688810" lon="2.5752790">
        <ele>208.8</ele>
        <time>2020-01-03T18:26:34Z</time>
      </trkpt>
      <trkpt lat="39.6689000" lon="2.5753430">
        <ele>207.4</ele>
        <time>2020-01-03T18:26:40Z</time>
      </trkpt>
      <trkpt lat="39.6689140" lon="2.5753870">
        <ele>206.8</ele>
        <time>2020-01-03T18:26:44Z</time>
      </trkpt>
      <trkpt lat="39.6689170" lon="2.5754060">
        <ele>206.6</ele>
        <time>2020-01-03T18:26:46Z</time>
      </trkpt>
      <trkpt lat="39.6689190" lon="2.5754190">
        <ele>206.6</ele>
        <time>2020-01-03T18:26:48Z</time>
      </trkpt>
      <trkpt lat="39.6689120" lon="2.5754880">
        <ele>205.2</ele>
        <time>2020-01-03T18:27:15Z</time>
      </trkpt>
      <trkpt lat="39.6689180" lon="2.5755530">
        <ele>204.2</ele>
        <time>2020-01-03T18:27:21Z</time>
      </trkpt>
      <trkpt lat="39.6689370" lon="2.5756080">
        <ele>203.4</ele>
        <time>2020-01-03T18:27:27Z</time>
      </trkpt>
      <trkpt lat="39.6689270" lon="2.5756780">
        <ele>202.0</ele>
        <time>2020-01-03T18:27:41Z</time>
      </trkpt>
      <trkpt lat="39.6689140" lon="2.5757470">
        <ele>201.2</ele>
        <time>2020-01-03T18:27:47Z</time>
      </trkpt>
      <trkpt lat="39.6689090" lon="2.5757710">
        <ele>201.0</ele>
        <time>2020-01-03T18:27:49Z</time>
      </trkpt>
      <trkpt lat="39.6689030" lon="2.5758440">
        <ele>200.0</ele>
        <time>2020-01-03T18:27:55Z</time>
      </trkpt>
      <trkpt lat="39.6688990" lon="2.5759230">
        <ele>199.0</ele>
        <time>2020-01-03T18:28:02Z</time>
      </trkpt>
      <trkpt lat="39.6688800" lon="2.5759970">
        <ele>198.0</ele>
        <time>2020-01-03T18:28:08Z</time>
      </trkpt>
      <trkpt lat="39.6688510" lon="2.5760740">
        <ele>196.6</ele>
        <time>2020-01-03T18:28:14Z</time>
      </trkpt>
      <trkpt lat="39.6688390" lon="2.5761440">
        <ele>195.8</ele>
        <time>2020-01-03T18:28:19Z</time>
      </trkpt>
      <trkpt lat="39.6688010" lon="2.5762270">
        <ele>194.8</ele>
        <time>2020-01-03T18:28:25Z</time>
      </trkpt>
      <trkpt lat="39.6687720" lon="2.5763170">
        <ele>193.6</ele>
        <time>2020-01-03T18:28:31Z</time>
      </trkpt>
      <trkpt lat="39.6687470" lon="2.5764670">
        <ele>192.2</ele>
        <time>2020-01-03T18:28:39Z</time>
      </trkpt>
      <trkpt lat="39.6687520" lon="2.5765810">
        <ele>191.2</ele>
        <time>2020-01-03T18:28:46Z</time>
      </trkpt>
      <trkpt lat="39.6687430" lon="2.5766820">
        <ele>190.2</ele>
        <time>2020-01-03T18:28:53Z</time>
      </trkpt>
      <trkpt lat="39.6687370" lon="2.5768250">
        <ele>189.0</ele>
        <time>2020-01-03T18:29:04Z</time>
      </trkpt>
      <trkpt lat="39.6686000" lon="2.5769050">
        <ele>188.6</ele>
        <time>2020-01-03T18:30:01Z</time>
      </trkpt>
      <trkpt lat="39.6681560" lon="2.5768070">
        <ele>188.8</ele>
        <time>2020-01-03T18:30:52Z</time>
      </trkpt>
      <trkpt lat="39.6680830" lon="2.5767450">
        <ele>188.6</ele>
        <time>2020-01-03T18:31:02Z</time>
      </trkpt>
      <trkpt lat="39.6680650" lon="2.5767240">
        <ele>188.2</ele>
        <time>2020-01-03T18:31:04Z</time>
      </trkpt>
      <trkpt lat="39.6680210" lon="2.5766860">
        <ele>188.0</ele>
        <time>2020-01-03T18:31:09Z</time>
      </trkpt>
      <trkpt lat="39.6680060" lon="2.5766790">
        <ele>188.0</ele>
        <time>2020-01-03T18:31:10Z</time>
      </trkpt>
      <trkpt lat="39.6677050" lon="2.5764210">
        <ele>189.2</ele>
        <time>2020-01-03T18:31:41Z</time>
      </trkpt>
      <trkpt lat="39.6676020" lon="2.5762960">
        <ele>190.2</ele>
        <time>2020-01-03T18:31:52Z</time>
      </trkpt>
      <trkpt lat="39.6674930" lon="2.5760980">
        <ele>191.2</ele>
        <time>2020-01-03T18:32:08Z</time>
      </trkpt>
      <trkpt lat="39.6673960" lon="2.5759340">
        <ele>192.4</ele>
        <time>2020-01-03T18:32:21Z</time>
      </trkpt>
      <trkpt lat="39.6673090" lon="2.5757670">
        <ele>193.4</ele>
        <time>2020-01-03T18:32:33Z</time>
      </trkpt>
      <trkpt lat="39.6672210" lon="2.5756260">
        <ele>194.4</ele>
        <time>2020-01-03T18:32:45Z</time>
      </trkpt>
      <trkpt lat="39.6670790" lon="2.5754000">
        <ele>195.4</ele>
        <time>2020-01-03T18:33:04Z</time>
      </trkpt>
      <trkpt lat="39.6669850" lon="2.5752440">
        <ele>196.2</ele>
        <time>2020-01-03T18:33:17Z</time>
      </trkpt>
      <trkpt lat="39.6669650" lon="2.5752170">
        <ele>196.4</ele>
        <time>2020-01-03T18:33:20Z</time>
      </trkpt>
      <trkpt lat="39.6668700" lon="2.5751080">
        <ele>197.6</ele>
        <time>2020-01-03T18:33:34Z</time>
      </trkpt>
      <trkpt lat="39.6667520" lon="2.5750870">
        <ele>198.0</ele>
        <time>2020-01-03T18:33:45Z</time>
      </trkpt>
      <trkpt lat="39.6667350" lon="2.5750820">
        <ele>198.2</ele>
        <time>2020-01-03T18:33:47Z</time>
      </trkpt>
      <trkpt lat="39.6666540" lon="2.5750640">
        <ele>198.6</ele>
        <time>2020-01-03T18:33:54Z</time>
      </trkpt>
      <trkpt lat="39.6665890" lon="2.5750710">
        <ele>198.8</ele>
        <time>2020-01-03T18:34:00Z</time>
      </trkpt>
      <trkpt lat="39.6665650" lon="2.5750760">
        <ele>198.8</ele>
        <time>2020-01-03T18:34:02Z</time>
      </trkpt>
      <trkpt lat="39.6663750" lon="2.5750910">
        <ele>199.6</ele>
        <time>2020-01-03T18:34:18Z</time>
      </trkpt>
      <trkpt lat="39.6663570" lon="2.5750990">
        <ele>199.8</ele>
        <time>2020-01-03T18:34:20Z</time>
      </trkpt>
      <trkpt lat="39.6662370" lon="2.5752920">
        <ele>200.2</ele>
        <time>2020-01-03T18:34:38Z</time>
      </trkpt>
      <trkpt lat="39.6662210" lon="2.5753500">
        <ele>200.6</ele>
        <time>2020-01-03T18:34:42Z</time>
      </trkpt>
      <trkpt lat="39.6659930" lon="2.5758550">
        <ele>200.8</ele>
        <time>2020-01-03T18:35:18Z</time>
      </trkpt>
      <trkpt lat="39.6659010" lon="2.5759070">
        <ele>201.0</ele>
        <time>2020-01-03T18:35:27Z</time>
      </trkpt>
      <trkpt lat="39.6654530" lon="2.5759390">
        <ele>201.4</ele>
        <time>2020-01-03T18:36:04Z</time>
      </trkpt>
      <trkpt lat="39.6653740" lon="2.5759460">
        <ele>201.4</ele>
        <time>2020-01-03T18:36:11Z</time>
      </trkpt>
      <trkpt lat="39.6653050" lon="2.5759500">
        <ele>202.0</ele>
        <time>2020-01-03T18:36:18Z</time>
      </trkpt>
      <trkpt lat="39.6652900" lon="2.5759450">
        <ele>202.0</ele>
        <time>2020-01-03T18:36:20Z</time>
      </trkpt>
      <trkpt lat="39.6652610" lon="2.5759050">
        <ele>202.8</ele>
        <time>2020-01-03T18:36:36Z</time>
      </trkpt>
      <trkpt lat="39.6652410" lon="2.5758450">
        <ele>204.0</ele>
        <time>2020-01-03T18:36:44Z</time>
      </trkpt>
      <trkpt lat="39.6652340" lon="2.5757820">
        <ele>205.0</ele>
        <time>2020-01-03T18:36:50Z</time>
      </trkpt>
      <trkpt lat="39.6652270" lon="2.5757010">
        <ele>206.0</ele>
        <time>2020-01-03T18:36:58Z</time>
      </trkpt>
      <trkpt lat="39.6652200" lon="2.5756260">
        <ele>207.2</ele>
        <time>2020-01-03T18:37:05Z</time>
      </trkpt>
      <trkpt lat="39.6652180" lon="2.5755360">
        <ele>207.8</ele>
        <time>2020-01-03T18:37:16Z</time>
      </trkpt>
    </trkseg>
  </trk>
</gpx>
